<?xml version="1.0" encoding="UTF-8" standalone="no" ?>
<gpx xmlns="http://www.topografix.com/GPX/1/1" xmlns:xsi="http://www.w3.org/2001/XMLSchema-instance" xsi:schemaLocation="http://www.topografix.com/GPX/1/1 http://www.topografix.com/GPX/1/1/gpx.xsd" version="1.1" creator="VisuGPX - https://www.visugpx.com">
  <metadata>
    <name>Aaa</name>
  </metadata>
  <wpt lat="43.59733" lon="3.80872">
    <ele>49</ele>
    <name><![CDATA[Pause à 01/01 à 11:14]]></name>
    <desc><![CDATA[Pause de 1min 19s]]></desc>
  </wpt>
  <wpt lat="43.55338" lon="3.82062">
    <ele>13</ele>
    <name><![CDATA[Pause à 01/01 à 11:47]]></name>
    <desc><![CDATA[Pause de 1min 19s]]></desc>
  </wpt>
  <wpt lat="43.5534" lon="3.82061">
    <ele>13</ele>
    <name><![CDATA[Pause à 01/01 à 11:49]]></name>
    <desc><![CDATA[Pause de 1min 10s]]></desc>
  </wpt>
  <wpt lat="43.54185" lon="3.83715">
    <ele>5</ele>
    <name><![CDATA[Pause à 01/01 à 12:28]]></name>
    <desc><![CDATA[Pause de 1min 3s]]></desc>
  </wpt>
  <wpt lat="43.53099" lon="3.83378">
    <ele>12</ele>
    <name><![CDATA[Pause à 01/01 à 12:35]]></name>
    <desc><![CDATA[Pause de 1min 5s]]></desc>
  </wpt>
  <wpt lat="43.52937" lon="3.83079">
    <ele>5</ele>
    <name><![CDATA[Pause à 01/01 à 12:47]]></name>
    <desc><![CDATA[Pause de 1min 3s]]></desc>
  </wpt>
  <wpt lat="43.50826" lon="3.83754">
    <ele>4</ele>
    <name><![CDATA[Pause à 01/01 à 13:03]]></name>
    <desc><![CDATA[Pause de 1min 19s]]></desc>
  </wpt>
  <wpt lat="43.62549" lon="3.811">
    <ele>37</ele>
    <name><![CDATA[Pause à 01/01 à 10:50]]></name>
    <desc><![CDATA[Pause de 1min 10s]]></desc>
  </wpt>
  <trk>
    <name><![CDATA[A]]></name>
    <trkseg>
      <trkpt lat="43.63221" lon="3.85526">
        <ele>41</ele>
        <time>2021-01-01T09:14:04Z</time>
      </trkpt>
      <trkpt lat="43.6322" lon="3.85514">
        <ele>41</ele>
        <time>2021-01-01T09:14:06Z</time>
      </trkpt>
      <trkpt lat="43.6322" lon="3.85508">
        <ele>41</ele>
        <time>2021-01-01T09:14:07Z</time>
      </trkpt>
      <trkpt lat="43.63221" lon="3.85496">
        <ele>41</ele>
        <time>2021-01-01T09:14:09Z</time>
      </trkpt>
      <trkpt lat="43.63221" lon="3.85485">
        <ele>40</ele>
        <time>2021-01-01T09:14:11Z</time>
      </trkpt>
      <trkpt lat="43.63222" lon="3.85478">
        <ele>40</ele>
        <time>2021-01-01T09:14:12Z</time>
      </trkpt>
      <trkpt lat="43.63223" lon="3.85472">
        <ele>40</ele>
        <time>2021-01-01T09:14:13Z</time>
      </trkpt>
      <trkpt lat="43.63224" lon="3.85461">
        <ele>40</ele>
        <time>2021-01-01T09:14:15Z</time>
      </trkpt>
      <trkpt lat="43.63224" lon="3.8545">
        <ele>40</ele>
        <time>2021-01-01T09:14:17Z</time>
      </trkpt>
      <trkpt lat="43.63223" lon="3.85444">
        <ele>39</ele>
        <time>2021-01-01T09:14:18Z</time>
      </trkpt>
      <trkpt lat="43.63221" lon="3.85438">
        <ele>39</ele>
        <time>2021-01-01T09:14:19Z</time>
      </trkpt>
      <trkpt lat="43.63219" lon="3.85432">
        <ele>39</ele>
        <time>2021-01-01T09:14:20Z</time>
      </trkpt>
      <trkpt lat="43.63218" lon="3.85425">
        <ele>39</ele>
        <time>2021-01-01T09:14:21Z</time>
      </trkpt>
      <trkpt lat="43.63216" lon="3.85419">
        <ele>39</ele>
        <time>2021-01-01T09:14:22Z</time>
      </trkpt>
      <trkpt lat="43.63213" lon="3.85414">
        <ele>39</ele>
        <time>2021-01-01T09:14:23Z</time>
      </trkpt>
      <trkpt lat="43.63209" lon="3.85403">
        <ele>39</ele>
        <time>2021-01-01T09:14:25Z</time>
      </trkpt>
      <trkpt lat="43.63207" lon="3.85397">
        <ele>39</ele>
        <time>2021-01-01T09:14:26Z</time>
      </trkpt>
      <trkpt lat="43.63202" lon="3.85389">
        <ele>39</ele>
        <time>2021-01-01T09:14:28Z</time>
      </trkpt>
      <trkpt lat="43.63195" lon="3.85383">
        <ele>39</ele>
        <time>2021-01-01T09:14:30Z</time>
      </trkpt>
      <trkpt lat="43.63189" lon="3.85376">
        <ele>40</ele>
        <time>2021-01-01T09:14:32Z</time>
      </trkpt>
      <trkpt lat="43.63183" lon="3.8537">
        <ele>40</ele>
        <time>2021-01-01T09:14:34Z</time>
      </trkpt>
      <trkpt lat="43.63176" lon="3.85366">
        <ele>41</ele>
        <time>2021-01-01T09:14:36Z</time>
      </trkpt>
      <trkpt lat="43.63169" lon="3.85362">
        <ele>42</ele>
        <time>2021-01-01T09:14:38Z</time>
      </trkpt>
      <trkpt lat="43.63162" lon="3.85355">
        <ele>42</ele>
        <time>2021-01-01T09:14:40Z</time>
      </trkpt>
      <trkpt lat="43.63157" lon="3.85348">
        <ele>42</ele>
        <time>2021-01-01T09:14:42Z</time>
      </trkpt>
      <trkpt lat="43.63152" lon="3.85343">
        <ele>43</ele>
        <time>2021-01-01T09:14:44Z</time>
      </trkpt>
      <trkpt lat="43.63147" lon="3.85334">
        <ele>43</ele>
        <time>2021-01-01T09:14:46Z</time>
      </trkpt>
      <trkpt lat="43.63142" lon="3.85326">
        <ele>43</ele>
        <time>2021-01-01T09:14:48Z</time>
      </trkpt>
      <trkpt lat="43.63139" lon="3.85316">
        <ele>42</ele>
        <time>2021-01-01T09:14:50Z</time>
      </trkpt>
      <trkpt lat="43.63139" lon="3.85305">
        <ele>42</ele>
        <time>2021-01-01T09:14:52Z</time>
      </trkpt>
      <trkpt lat="43.63139" lon="3.85299">
        <ele>42</ele>
        <time>2021-01-01T09:14:53Z</time>
      </trkpt>
      <trkpt lat="43.6314" lon="3.85293">
        <ele>42</ele>
        <time>2021-01-01T09:14:54Z</time>
      </trkpt>
      <trkpt lat="43.63142" lon="3.85286">
        <ele>42</ele>
        <time>2021-01-01T09:14:55Z</time>
      </trkpt>
      <trkpt lat="43.63149" lon="3.85278">
        <ele>42</ele>
        <time>2021-01-01T09:14:57Z</time>
      </trkpt>
      <trkpt lat="43.63152" lon="3.85273">
        <ele>42</ele>
        <time>2021-01-01T09:14:58Z</time>
      </trkpt>
      <trkpt lat="43.63155" lon="3.85268">
        <ele>42</ele>
        <time>2021-01-01T09:14:59Z</time>
      </trkpt>
      <trkpt lat="43.63158" lon="3.85263">
        <ele>42</ele>
        <time>2021-01-01T09:15:00Z</time>
      </trkpt>
      <trkpt lat="43.63164" lon="3.85255">
        <ele>42</ele>
        <time>2021-01-01T09:15:02Z</time>
      </trkpt>
      <trkpt lat="43.63169" lon="3.85249">
        <ele>43</ele>
        <time>2021-01-01T09:15:04Z</time>
      </trkpt>
      <trkpt lat="43.63175" lon="3.8524">
        <ele>43</ele>
        <time>2021-01-01T09:15:06Z</time>
      </trkpt>
      <trkpt lat="43.63181" lon="3.85231">
        <ele>43</ele>
        <time>2021-01-01T09:15:08Z</time>
      </trkpt>
      <trkpt lat="43.63186" lon="3.85227">
        <ele>44</ele>
        <time>2021-01-01T09:15:09Z</time>
      </trkpt>
      <trkpt lat="43.63191" lon="3.85218">
        <ele>44</ele>
        <time>2021-01-01T09:15:11Z</time>
      </trkpt>
      <trkpt lat="43.63194" lon="3.85213">
        <ele>44</ele>
        <time>2021-01-01T09:15:12Z</time>
      </trkpt>
      <trkpt lat="43.63198" lon="3.85209">
        <ele>43</ele>
        <time>2021-01-01T09:15:13Z</time>
      </trkpt>
      <trkpt lat="43.63204" lon="3.85199">
        <ele>42</ele>
        <time>2021-01-01T09:15:15Z</time>
      </trkpt>
      <trkpt lat="43.63208" lon="3.85194">
        <ele>41</ele>
        <time>2021-01-01T09:15:16Z</time>
      </trkpt>
      <trkpt lat="43.63212" lon="3.85189">
        <ele>41</ele>
        <time>2021-01-01T09:15:17Z</time>
      </trkpt>
      <trkpt lat="43.63219" lon="3.85181">
        <ele>40</ele>
        <time>2021-01-01T09:15:19Z</time>
      </trkpt>
      <trkpt lat="43.63225" lon="3.85171">
        <ele>40</ele>
        <time>2021-01-01T09:15:21Z</time>
      </trkpt>
      <trkpt lat="43.6323" lon="3.85166">
        <ele>40</ele>
        <time>2021-01-01T09:15:22Z</time>
      </trkpt>
      <trkpt lat="43.63232" lon="3.8516">
        <ele>39</ele>
        <time>2021-01-01T09:15:23Z</time>
      </trkpt>
      <trkpt lat="43.63236" lon="3.85154">
        <ele>39</ele>
        <time>2021-01-01T09:15:24Z</time>
      </trkpt>
      <trkpt lat="43.6324" lon="3.85148">
        <ele>39</ele>
        <time>2021-01-01T09:15:25Z</time>
      </trkpt>
      <trkpt lat="43.63244" lon="3.85143">
        <ele>39</ele>
        <time>2021-01-01T09:15:26Z</time>
      </trkpt>
      <trkpt lat="43.63247" lon="3.85138">
        <ele>39</ele>
        <time>2021-01-01T09:15:27Z</time>
      </trkpt>
      <trkpt lat="43.63252" lon="3.85132">
        <ele>39</ele>
        <time>2021-01-01T09:15:28Z</time>
      </trkpt>
      <trkpt lat="43.63255" lon="3.85127">
        <ele>40</ele>
        <time>2021-01-01T09:15:29Z</time>
      </trkpt>
      <trkpt lat="43.63259" lon="3.85122">
        <ele>40</ele>
        <time>2021-01-01T09:15:30Z</time>
      </trkpt>
      <trkpt lat="43.63262" lon="3.85115">
        <ele>41</ele>
        <time>2021-01-01T09:15:31Z</time>
      </trkpt>
      <trkpt lat="43.63265" lon="3.85111">
        <ele>42</ele>
        <time>2021-01-01T09:15:32Z</time>
      </trkpt>
      <trkpt lat="43.63269" lon="3.85105">
        <ele>43</ele>
        <time>2021-01-01T09:15:33Z</time>
      </trkpt>
      <trkpt lat="43.63273" lon="3.851">
        <ele>43</ele>
        <time>2021-01-01T09:15:34Z</time>
      </trkpt>
      <trkpt lat="43.63277" lon="3.85094">
        <ele>43</ele>
        <time>2021-01-01T09:15:35Z</time>
      </trkpt>
      <trkpt lat="43.63283" lon="3.85083">
        <ele>43</ele>
        <time>2021-01-01T09:15:37Z</time>
      </trkpt>
      <trkpt lat="43.63287" lon="3.85078">
        <ele>43</ele>
        <time>2021-01-01T09:15:38Z</time>
      </trkpt>
      <trkpt lat="43.6329" lon="3.85072">
        <ele>43</ele>
        <time>2021-01-01T09:15:39Z</time>
      </trkpt>
      <trkpt lat="43.63294" lon="3.85066">
        <ele>42</ele>
        <time>2021-01-01T09:15:40Z</time>
      </trkpt>
      <trkpt lat="43.63297" lon="3.8506">
        <ele>42</ele>
        <time>2021-01-01T09:15:41Z</time>
      </trkpt>
      <trkpt lat="43.633" lon="3.85055">
        <ele>42</ele>
        <time>2021-01-01T09:15:42Z</time>
      </trkpt>
      <trkpt lat="43.63304" lon="3.8505">
        <ele>42</ele>
        <time>2021-01-01T09:15:43Z</time>
      </trkpt>
      <trkpt lat="43.63308" lon="3.85044">
        <ele>43</ele>
        <time>2021-01-01T09:15:44Z</time>
      </trkpt>
      <trkpt lat="43.63311" lon="3.85039">
        <ele>43</ele>
        <time>2021-01-01T09:15:45Z</time>
      </trkpt>
      <trkpt lat="43.63315" lon="3.85033">
        <ele>43</ele>
        <time>2021-01-01T09:15:46Z</time>
      </trkpt>
      <trkpt lat="43.63319" lon="3.85027">
        <ele>44</ele>
        <time>2021-01-01T09:15:47Z</time>
      </trkpt>
      <trkpt lat="43.63322" lon="3.85021">
        <ele>44</ele>
        <time>2021-01-01T09:15:48Z</time>
      </trkpt>
      <trkpt lat="43.6333" lon="3.85011">
        <ele>45</ele>
        <time>2021-01-01T09:15:50Z</time>
      </trkpt>
      <trkpt lat="43.63334" lon="3.85005">
        <ele>45</ele>
        <time>2021-01-01T09:15:51Z</time>
      </trkpt>
      <trkpt lat="43.63338" lon="3.85">
        <ele>45</ele>
        <time>2021-01-01T09:15:52Z</time>
      </trkpt>
      <trkpt lat="43.63342" lon="3.84995">
        <ele>45</ele>
        <time>2021-01-01T09:15:53Z</time>
      </trkpt>
      <trkpt lat="43.63345" lon="3.8499">
        <ele>45</ele>
        <time>2021-01-01T09:15:54Z</time>
      </trkpt>
      <trkpt lat="43.63348" lon="3.84984">
        <ele>45</ele>
        <time>2021-01-01T09:15:55Z</time>
      </trkpt>
      <trkpt lat="43.63352" lon="3.84979">
        <ele>45</ele>
        <time>2021-01-01T09:15:56Z</time>
      </trkpt>
      <trkpt lat="43.63355" lon="3.84974">
        <ele>45</ele>
        <time>2021-01-01T09:15:57Z</time>
      </trkpt>
      <trkpt lat="43.63359" lon="3.84968">
        <ele>44</ele>
        <time>2021-01-01T09:15:58Z</time>
      </trkpt>
      <trkpt lat="43.63362" lon="3.84962">
        <ele>44</ele>
        <time>2021-01-01T09:15:59Z</time>
      </trkpt>
      <trkpt lat="43.63366" lon="3.84957">
        <ele>43</ele>
        <time>2021-01-01T09:16:00Z</time>
      </trkpt>
      <trkpt lat="43.6337" lon="3.84952">
        <ele>42</ele>
        <time>2021-01-01T09:16:01Z</time>
      </trkpt>
      <trkpt lat="43.63374" lon="3.84947">
        <ele>42</ele>
        <time>2021-01-01T09:16:02Z</time>
      </trkpt>
      <trkpt lat="43.63377" lon="3.84943">
        <ele>42</ele>
        <time>2021-01-01T09:16:03Z</time>
      </trkpt>
      <trkpt lat="43.6338" lon="3.84937">
        <ele>42</ele>
        <time>2021-01-01T09:16:04Z</time>
      </trkpt>
      <trkpt lat="43.63384" lon="3.84932">
        <ele>42</ele>
        <time>2021-01-01T09:16:05Z</time>
      </trkpt>
      <trkpt lat="43.63388" lon="3.84923">
        <ele>42</ele>
        <time>2021-01-01T09:16:07Z</time>
      </trkpt>
      <trkpt lat="43.63393" lon="3.84915">
        <ele>42</ele>
        <time>2021-01-01T09:16:09Z</time>
      </trkpt>
      <trkpt lat="43.63397" lon="3.84911">
        <ele>41</ele>
        <time>2021-01-01T09:16:10Z</time>
      </trkpt>
      <trkpt lat="43.634" lon="3.84907">
        <ele>41</ele>
        <time>2021-01-01T09:16:11Z</time>
      </trkpt>
      <trkpt lat="43.63407" lon="3.849">
        <ele>40</ele>
        <time>2021-01-01T09:16:13Z</time>
      </trkpt>
      <trkpt lat="43.63413" lon="3.84891">
        <ele>40</ele>
        <time>2021-01-01T09:16:15Z</time>
      </trkpt>
      <trkpt lat="43.63418" lon="3.84882">
        <ele>40</ele>
        <time>2021-01-01T09:16:17Z</time>
      </trkpt>
      <trkpt lat="43.63422" lon="3.84877">
        <ele>40</ele>
        <time>2021-01-01T09:16:18Z</time>
      </trkpt>
      <trkpt lat="43.63428" lon="3.84868">
        <ele>41</ele>
        <time>2021-01-01T09:16:20Z</time>
      </trkpt>
      <trkpt lat="43.63432" lon="3.84864">
        <ele>41</ele>
        <time>2021-01-01T09:16:21Z</time>
      </trkpt>
      <trkpt lat="43.63439" lon="3.84857">
        <ele>41</ele>
        <time>2021-01-01T09:16:23Z</time>
      </trkpt>
      <trkpt lat="43.63443" lon="3.84853">
        <ele>42</ele>
        <time>2021-01-01T09:16:24Z</time>
      </trkpt>
      <trkpt lat="43.63446" lon="3.84849">
        <ele>42</ele>
        <time>2021-01-01T09:16:25Z</time>
      </trkpt>
      <trkpt lat="43.63454" lon="3.84843">
        <ele>42</ele>
        <time>2021-01-01T09:16:27Z</time>
      </trkpt>
      <trkpt lat="43.63457" lon="3.84839">
        <ele>42</ele>
        <time>2021-01-01T09:16:28Z</time>
      </trkpt>
      <trkpt lat="43.63465" lon="3.84833">
        <ele>42</ele>
        <time>2021-01-01T09:16:30Z</time>
      </trkpt>
      <trkpt lat="43.63472" lon="3.84826">
        <ele>42</ele>
        <time>2021-01-01T09:16:32Z</time>
      </trkpt>
      <trkpt lat="43.63477" lon="3.84824">
        <ele>42</ele>
        <time>2021-01-01T09:16:33Z</time>
      </trkpt>
      <trkpt lat="43.63481" lon="3.84821">
        <ele>41</ele>
        <time>2021-01-01T09:16:34Z</time>
      </trkpt>
      <trkpt lat="43.63485" lon="3.84817">
        <ele>41</ele>
        <time>2021-01-01T09:16:35Z</time>
      </trkpt>
      <trkpt lat="43.63489" lon="3.84814">
        <ele>41</ele>
        <time>2021-01-01T09:16:36Z</time>
      </trkpt>
      <trkpt lat="43.63493" lon="3.8481">
        <ele>41</ele>
        <time>2021-01-01T09:16:37Z</time>
      </trkpt>
      <trkpt lat="43.63498" lon="3.84807">
        <ele>41</ele>
        <time>2021-01-01T09:16:38Z</time>
      </trkpt>
      <trkpt lat="43.63502" lon="3.84803">
        <ele>42</ele>
        <time>2021-01-01T09:16:39Z</time>
      </trkpt>
      <trkpt lat="43.63509" lon="3.84798">
        <ele>42</ele>
        <time>2021-01-01T09:16:41Z</time>
      </trkpt>
      <trkpt lat="43.63514" lon="3.84795">
        <ele>43</ele>
        <time>2021-01-01T09:16:42Z</time>
      </trkpt>
      <trkpt lat="43.63517" lon="3.84791">
        <ele>43</ele>
        <time>2021-01-01T09:16:43Z</time>
      </trkpt>
      <trkpt lat="43.63522" lon="3.84789">
        <ele>43</ele>
        <time>2021-01-01T09:16:44Z</time>
      </trkpt>
      <trkpt lat="43.63529" lon="3.84782">
        <ele>43</ele>
        <time>2021-01-01T09:16:46Z</time>
      </trkpt>
      <trkpt lat="43.63537" lon="3.84777">
        <ele>43</ele>
        <time>2021-01-01T09:16:48Z</time>
      </trkpt>
      <trkpt lat="43.63541" lon="3.84773">
        <ele>43</ele>
        <time>2021-01-01T09:16:49Z</time>
      </trkpt>
      <trkpt lat="43.63545" lon="3.84771">
        <ele>43</ele>
        <time>2021-01-01T09:16:50Z</time>
      </trkpt>
      <trkpt lat="43.63549" lon="3.84767">
        <ele>43</ele>
        <time>2021-01-01T09:16:51Z</time>
      </trkpt>
      <trkpt lat="43.63557" lon="3.84761">
        <ele>43</ele>
        <time>2021-01-01T09:16:53Z</time>
      </trkpt>
      <trkpt lat="43.63565" lon="3.84754">
        <ele>43</ele>
        <time>2021-01-01T09:16:55Z</time>
      </trkpt>
      <trkpt lat="43.63569" lon="3.8475">
        <ele>44</ele>
        <time>2021-01-01T09:16:56Z</time>
      </trkpt>
      <trkpt lat="43.63575" lon="3.84744">
        <ele>44</ele>
        <time>2021-01-01T09:16:58Z</time>
      </trkpt>
      <trkpt lat="43.63579" lon="3.84738">
        <ele>44</ele>
        <time>2021-01-01T09:16:59Z</time>
      </trkpt>
      <trkpt lat="43.6358" lon="3.84732">
        <ele>45</ele>
        <time>2021-01-01T09:17:00Z</time>
      </trkpt>
      <trkpt lat="43.63582" lon="3.84726">
        <ele>45</ele>
        <time>2021-01-01T09:17:01Z</time>
      </trkpt>
      <trkpt lat="43.63583" lon="3.8472">
        <ele>46</ele>
        <time>2021-01-01T09:17:02Z</time>
      </trkpt>
      <trkpt lat="43.63583" lon="3.84713">
        <ele>46</ele>
        <time>2021-01-01T09:17:03Z</time>
      </trkpt>
      <trkpt lat="43.63582" lon="3.84706">
        <ele>46</ele>
        <time>2021-01-01T09:17:04Z</time>
      </trkpt>
      <trkpt lat="43.63581" lon="3.84699">
        <ele>45</ele>
        <time>2021-01-01T09:17:05Z</time>
      </trkpt>
      <trkpt lat="43.63579" lon="3.84693">
        <ele>45</ele>
        <time>2021-01-01T09:17:06Z</time>
      </trkpt>
      <trkpt lat="43.63577" lon="3.84687">
        <ele>44</ele>
        <time>2021-01-01T09:17:07Z</time>
      </trkpt>
      <trkpt lat="43.63575" lon="3.84681">
        <ele>43</ele>
        <time>2021-01-01T09:17:08Z</time>
      </trkpt>
      <trkpt lat="43.63573" lon="3.84675">
        <ele>42</ele>
        <time>2021-01-01T09:17:09Z</time>
      </trkpt>
      <trkpt lat="43.63572" lon="3.84669">
        <ele>41</ele>
        <time>2021-01-01T09:17:10Z</time>
      </trkpt>
      <trkpt lat="43.63568" lon="3.84656">
        <ele>40</ele>
        <time>2021-01-01T09:17:12Z</time>
      </trkpt>
      <trkpt lat="43.63565" lon="3.8465">
        <ele>40</ele>
        <time>2021-01-01T09:17:13Z</time>
      </trkpt>
      <trkpt lat="43.63563" lon="3.84644">
        <ele>39</ele>
        <time>2021-01-01T09:17:14Z</time>
      </trkpt>
      <trkpt lat="43.63561" lon="3.84632">
        <ele>39</ele>
        <time>2021-01-01T09:17:16Z</time>
      </trkpt>
      <trkpt lat="43.63559" lon="3.84625">
        <ele>39</ele>
        <time>2021-01-01T09:17:17Z</time>
      </trkpt>
      <trkpt lat="43.63556" lon="3.84618">
        <ele>39</ele>
        <time>2021-01-01T09:17:18Z</time>
      </trkpt>
      <trkpt lat="43.63554" lon="3.84612">
        <ele>39</ele>
        <time>2021-01-01T09:17:19Z</time>
      </trkpt>
      <trkpt lat="43.63552" lon="3.84606">
        <ele>39</ele>
        <time>2021-01-01T09:17:20Z</time>
      </trkpt>
      <trkpt lat="43.63549" lon="3.84592">
        <ele>40</ele>
        <time>2021-01-01T09:17:22Z</time>
      </trkpt>
      <trkpt lat="43.63547" lon="3.84587">
        <ele>40</ele>
        <time>2021-01-01T09:17:23Z</time>
      </trkpt>
      <trkpt lat="43.63545" lon="3.8458">
        <ele>40</ele>
        <time>2021-01-01T09:17:24Z</time>
      </trkpt>
      <trkpt lat="43.63543" lon="3.84573">
        <ele>41</ele>
        <time>2021-01-01T09:17:25Z</time>
      </trkpt>
      <trkpt lat="43.63541" lon="3.84566">
        <ele>41</ele>
        <time>2021-01-01T09:17:26Z</time>
      </trkpt>
      <trkpt lat="43.63539" lon="3.84559">
        <ele>41</ele>
        <time>2021-01-01T09:17:27Z</time>
      </trkpt>
      <trkpt lat="43.63537" lon="3.84553">
        <ele>41</ele>
        <time>2021-01-01T09:17:28Z</time>
      </trkpt>
      <trkpt lat="43.63534" lon="3.84547">
        <ele>42</ele>
        <time>2021-01-01T09:17:29Z</time>
      </trkpt>
      <trkpt lat="43.63531" lon="3.8454">
        <ele>42</ele>
        <time>2021-01-01T09:17:30Z</time>
      </trkpt>
      <trkpt lat="43.63528" lon="3.84533">
        <ele>42</ele>
        <time>2021-01-01T09:17:31Z</time>
      </trkpt>
      <trkpt lat="43.63526" lon="3.84522">
        <ele>42</ele>
        <time>2021-01-01T09:17:33Z</time>
      </trkpt>
      <trkpt lat="43.63523" lon="3.84513">
        <ele>42</ele>
        <time>2021-01-01T09:17:34Z</time>
      </trkpt>
      <trkpt lat="43.63519" lon="3.84501">
        <ele>42</ele>
        <time>2021-01-01T09:17:36Z</time>
      </trkpt>
      <trkpt lat="43.63516" lon="3.84494">
        <ele>42</ele>
        <time>2021-01-01T09:17:37Z</time>
      </trkpt>
      <trkpt lat="43.63511" lon="3.8448">
        <ele>42</ele>
        <time>2021-01-01T09:17:39Z</time>
      </trkpt>
      <trkpt lat="43.6351" lon="3.84474">
        <ele>41</ele>
        <time>2021-01-01T09:17:40Z</time>
      </trkpt>
      <trkpt lat="43.63506" lon="3.84465">
        <ele>41</ele>
        <time>2021-01-01T09:17:42Z</time>
      </trkpt>
      <trkpt lat="43.63504" lon="3.84459">
        <ele>41</ele>
        <time>2021-01-01T09:17:43Z</time>
      </trkpt>
      <trkpt lat="43.63503" lon="3.84452">
        <ele>41</ele>
        <time>2021-01-01T09:17:44Z</time>
      </trkpt>
      <trkpt lat="43.63501" lon="3.84446">
        <ele>42</ele>
        <time>2021-01-01T09:17:45Z</time>
      </trkpt>
      <trkpt lat="43.635" lon="3.84439">
        <ele>42</ele>
        <time>2021-01-01T09:17:46Z</time>
      </trkpt>
      <trkpt lat="43.63498" lon="3.84431">
        <ele>43</ele>
        <time>2021-01-01T09:17:47Z</time>
      </trkpt>
      <trkpt lat="43.63495" lon="3.84425">
        <ele>43</ele>
        <time>2021-01-01T09:17:48Z</time>
      </trkpt>
      <trkpt lat="43.63493" lon="3.84419">
        <ele>43</ele>
        <time>2021-01-01T09:17:49Z</time>
      </trkpt>
      <trkpt lat="43.6349" lon="3.84412">
        <ele>44</ele>
        <time>2021-01-01T09:17:50Z</time>
      </trkpt>
      <trkpt lat="43.63487" lon="3.84405">
        <ele>44</ele>
        <time>2021-01-01T09:17:51Z</time>
      </trkpt>
      <trkpt lat="43.63483" lon="3.844">
        <ele>44</ele>
        <time>2021-01-01T09:17:52Z</time>
      </trkpt>
      <trkpt lat="43.63479" lon="3.84396">
        <ele>45</ele>
        <time>2021-01-01T09:17:53Z</time>
      </trkpt>
      <trkpt lat="43.63475" lon="3.84391">
        <ele>45</ele>
        <time>2021-01-01T09:17:54Z</time>
      </trkpt>
      <trkpt lat="43.63469" lon="3.84388">
        <ele>45</ele>
        <time>2021-01-01T09:17:55Z</time>
      </trkpt>
      <trkpt lat="43.63464" lon="3.84386">
        <ele>45</ele>
        <time>2021-01-01T09:17:56Z</time>
      </trkpt>
      <trkpt lat="43.63459" lon="3.84383">
        <ele>46</ele>
        <time>2021-01-01T09:17:57Z</time>
      </trkpt>
      <trkpt lat="43.63454" lon="3.84381">
        <ele>46</ele>
        <time>2021-01-01T09:17:58Z</time>
      </trkpt>
      <trkpt lat="43.6345" lon="3.84378">
        <ele>46</ele>
        <time>2021-01-01T09:17:59Z</time>
      </trkpt>
      <trkpt lat="43.63446" lon="3.84375">
        <ele>47</ele>
        <time>2021-01-01T09:18:00Z</time>
      </trkpt>
      <trkpt lat="43.63441" lon="3.84373">
        <ele>47</ele>
        <time>2021-01-01T09:18:01Z</time>
      </trkpt>
      <trkpt lat="43.63437" lon="3.8437">
        <ele>47</ele>
        <time>2021-01-01T09:18:02Z</time>
      </trkpt>
      <trkpt lat="43.63427" lon="3.84365">
        <ele>47</ele>
        <time>2021-01-01T09:18:04Z</time>
      </trkpt>
      <trkpt lat="43.63422" lon="3.84363">
        <ele>47</ele>
        <time>2021-01-01T09:18:05Z</time>
      </trkpt>
      <trkpt lat="43.63417" lon="3.84362">
        <ele>47</ele>
        <time>2021-01-01T09:18:06Z</time>
      </trkpt>
      <trkpt lat="43.63408" lon="3.84358">
        <ele>47</ele>
        <time>2021-01-01T09:18:08Z</time>
      </trkpt>
      <trkpt lat="43.63403" lon="3.84356">
        <ele>47</ele>
        <time>2021-01-01T09:18:09Z</time>
      </trkpt>
      <trkpt lat="43.63398" lon="3.84354">
        <ele>47</ele>
        <time>2021-01-01T09:18:10Z</time>
      </trkpt>
      <trkpt lat="43.63393" lon="3.84352">
        <ele>47</ele>
        <time>2021-01-01T09:18:11Z</time>
      </trkpt>
      <trkpt lat="43.63384" lon="3.8435">
        <ele>48</ele>
        <time>2021-01-01T09:18:13Z</time>
      </trkpt>
      <trkpt lat="43.63379" lon="3.84349">
        <ele>49</ele>
        <time>2021-01-01T09:18:14Z</time>
      </trkpt>
      <trkpt lat="43.63373" lon="3.84349">
        <ele>49</ele>
        <time>2021-01-01T09:18:15Z</time>
      </trkpt>
      <trkpt lat="43.63368" lon="3.84348">
        <ele>50</ele>
        <time>2021-01-01T09:18:16Z</time>
      </trkpt>
      <trkpt lat="43.63363" lon="3.84346">
        <ele>50</ele>
        <time>2021-01-01T09:18:17Z</time>
      </trkpt>
      <trkpt lat="43.63357" lon="3.84345">
        <ele>50</ele>
        <time>2021-01-01T09:18:18Z</time>
      </trkpt>
      <trkpt lat="43.63352" lon="3.84344">
        <ele>50</ele>
        <time>2021-01-01T09:18:19Z</time>
      </trkpt>
      <trkpt lat="43.63342" lon="3.8434">
        <ele>50</ele>
        <time>2021-01-01T09:18:21Z</time>
      </trkpt>
      <trkpt lat="43.63336" lon="3.8434">
        <ele>49</ele>
        <time>2021-01-01T09:18:22Z</time>
      </trkpt>
      <trkpt lat="43.63331" lon="3.84339">
        <ele>48</ele>
        <time>2021-01-01T09:18:23Z</time>
      </trkpt>
      <trkpt lat="43.63326" lon="3.84339">
        <ele>48</ele>
        <time>2021-01-01T09:18:24Z</time>
      </trkpt>
      <trkpt lat="43.63321" lon="3.84338">
        <ele>47</ele>
        <time>2021-01-01T09:18:25Z</time>
      </trkpt>
      <trkpt lat="43.63316" lon="3.84336">
        <ele>46</ele>
        <time>2021-01-01T09:18:26Z</time>
      </trkpt>
      <trkpt lat="43.6331" lon="3.84334">
        <ele>46</ele>
        <time>2021-01-01T09:18:27Z</time>
      </trkpt>
      <trkpt lat="43.63304" lon="3.84333">
        <ele>45</ele>
        <time>2021-01-01T09:18:28Z</time>
      </trkpt>
      <trkpt lat="43.63297" lon="3.84332">
        <ele>45</ele>
        <time>2021-01-01T09:18:29Z</time>
      </trkpt>
      <trkpt lat="43.63293" lon="3.8433">
        <ele>44</ele>
        <time>2021-01-01T09:18:30Z</time>
      </trkpt>
      <trkpt lat="43.63287" lon="3.84328">
        <ele>44</ele>
        <time>2021-01-01T09:18:31Z</time>
      </trkpt>
      <trkpt lat="43.63282" lon="3.84325">
        <ele>44</ele>
        <time>2021-01-01T09:18:32Z</time>
      </trkpt>
      <trkpt lat="43.63276" lon="3.84324">
        <ele>43</ele>
        <time>2021-01-01T09:18:33Z</time>
      </trkpt>
      <trkpt lat="43.63271" lon="3.84321">
        <ele>43</ele>
        <time>2021-01-01T09:18:34Z</time>
      </trkpt>
      <trkpt lat="43.63266" lon="3.8432">
        <ele>43</ele>
        <time>2021-01-01T09:18:35Z</time>
      </trkpt>
      <trkpt lat="43.63259" lon="3.84319">
        <ele>43</ele>
        <time>2021-01-01T09:18:36Z</time>
      </trkpt>
      <trkpt lat="43.63253" lon="3.84317">
        <ele>43</ele>
        <time>2021-01-01T09:18:37Z</time>
      </trkpt>
      <trkpt lat="43.63248" lon="3.84315">
        <ele>43</ele>
        <time>2021-01-01T09:18:38Z</time>
      </trkpt>
      <trkpt lat="43.63243" lon="3.84313">
        <ele>44</ele>
        <time>2021-01-01T09:18:39Z</time>
      </trkpt>
      <trkpt lat="43.63237" lon="3.84311">
        <ele>44</ele>
        <time>2021-01-01T09:18:40Z</time>
      </trkpt>
      <trkpt lat="43.63232" lon="3.8431">
        <ele>44</ele>
        <time>2021-01-01T09:18:41Z</time>
      </trkpt>
      <trkpt lat="43.63225" lon="3.8431">
        <ele>44</ele>
        <time>2021-01-01T09:18:42Z</time>
      </trkpt>
      <trkpt lat="43.63219" lon="3.84309">
        <ele>44</ele>
        <time>2021-01-01T09:18:43Z</time>
      </trkpt>
      <trkpt lat="43.63213" lon="3.8431">
        <ele>44</ele>
        <time>2021-01-01T09:18:44Z</time>
      </trkpt>
      <trkpt lat="43.63208" lon="3.84311">
        <ele>45</ele>
        <time>2021-01-01T09:18:45Z</time>
      </trkpt>
      <trkpt lat="43.63203" lon="3.84312">
        <ele>45</ele>
        <time>2021-01-01T09:18:46Z</time>
      </trkpt>
      <trkpt lat="43.63195" lon="3.8431">
        <ele>46</ele>
        <time>2021-01-01T09:18:48Z</time>
      </trkpt>
      <trkpt lat="43.63189" lon="3.84303">
        <ele>47</ele>
        <time>2021-01-01T09:18:50Z</time>
      </trkpt>
      <trkpt lat="43.63183" lon="3.84294">
        <ele>47</ele>
        <time>2021-01-01T09:18:52Z</time>
      </trkpt>
      <trkpt lat="43.63177" lon="3.84287">
        <ele>48</ele>
        <time>2021-01-01T09:18:54Z</time>
      </trkpt>
      <trkpt lat="43.63177" lon="3.84272">
        <ele>48</ele>
        <time>2021-01-01T09:18:56Z</time>
      </trkpt>
      <trkpt lat="43.63178" lon="3.84265">
        <ele>48</ele>
        <time>2021-01-01T09:18:57Z</time>
      </trkpt>
      <trkpt lat="43.63179" lon="3.84258">
        <ele>48</ele>
        <time>2021-01-01T09:18:58Z</time>
      </trkpt>
      <trkpt lat="43.6318" lon="3.84251">
        <ele>48</ele>
        <time>2021-01-01T09:18:59Z</time>
      </trkpt>
      <trkpt lat="43.63181" lon="3.84244">
        <ele>48</ele>
        <time>2021-01-01T09:19:01Z</time>
      </trkpt>
      <trkpt lat="43.63184" lon="3.84236">
        <ele>49</ele>
        <time>2021-01-01T09:19:05Z</time>
      </trkpt>
      <trkpt lat="43.63182" lon="3.84226">
        <ele>49</ele>
        <time>2021-01-01T09:19:07Z</time>
      </trkpt>
      <trkpt lat="43.63178" lon="3.84218">
        <ele>48</ele>
        <time>2021-01-01T09:19:09Z</time>
      </trkpt>
      <trkpt lat="43.63176" lon="3.84212">
        <ele>47</ele>
        <time>2021-01-01T09:19:10Z</time>
      </trkpt>
      <trkpt lat="43.63176" lon="3.84206">
        <ele>47</ele>
        <time>2021-01-01T09:19:11Z</time>
      </trkpt>
      <trkpt lat="43.63173" lon="3.84194">
        <ele>46</ele>
        <time>2021-01-01T09:19:13Z</time>
      </trkpt>
      <trkpt lat="43.63169" lon="3.84183">
        <ele>45</ele>
        <time>2021-01-01T09:19:15Z</time>
      </trkpt>
      <trkpt lat="43.63169" lon="3.84171">
        <ele>45</ele>
        <time>2021-01-01T09:19:17Z</time>
      </trkpt>
      <trkpt lat="43.63171" lon="3.84162">
        <ele>45</ele>
        <time>2021-01-01T09:19:19Z</time>
      </trkpt>
      <trkpt lat="43.63166" lon="3.84153">
        <ele>45</ele>
        <time>2021-01-01T09:19:21Z</time>
      </trkpt>
      <trkpt lat="43.63161" lon="3.84152">
        <ele>45</ele>
        <time>2021-01-01T09:19:22Z</time>
      </trkpt>
      <trkpt lat="43.63156" lon="3.84153">
        <ele>45</ele>
        <time>2021-01-01T09:19:23Z</time>
      </trkpt>
      <trkpt lat="43.63151" lon="3.84155">
        <ele>45</ele>
        <time>2021-01-01T09:19:24Z</time>
      </trkpt>
      <trkpt lat="43.63143" lon="3.84149">
        <ele>46</ele>
        <time>2021-01-01T09:19:26Z</time>
      </trkpt>
      <trkpt lat="43.63139" lon="3.84146">
        <ele>46</ele>
        <time>2021-01-01T09:19:27Z</time>
      </trkpt>
      <trkpt lat="43.63135" lon="3.84142">
        <ele>46</ele>
        <time>2021-01-01T09:19:28Z</time>
      </trkpt>
      <trkpt lat="43.63129" lon="3.84136">
        <ele>47</ele>
        <time>2021-01-01T09:19:30Z</time>
      </trkpt>
      <trkpt lat="43.6312" lon="3.84137">
        <ele>47</ele>
        <time>2021-01-01T09:19:32Z</time>
      </trkpt>
      <trkpt lat="43.63115" lon="3.84139">
        <ele>48</ele>
        <time>2021-01-01T09:19:33Z</time>
      </trkpt>
      <trkpt lat="43.63107" lon="3.84136">
        <ele>48</ele>
        <time>2021-01-01T09:19:35Z</time>
      </trkpt>
      <trkpt lat="43.63103" lon="3.84133">
        <ele>48</ele>
        <time>2021-01-01T09:19:36Z</time>
      </trkpt>
      <trkpt lat="43.63098" lon="3.84129">
        <ele>49</ele>
        <time>2021-01-01T09:19:37Z</time>
      </trkpt>
      <trkpt lat="43.63091" lon="3.84122">
        <ele>49</ele>
        <time>2021-01-01T09:19:39Z</time>
      </trkpt>
      <trkpt lat="43.63087" lon="3.84119">
        <ele>50</ele>
        <time>2021-01-01T09:19:40Z</time>
      </trkpt>
      <trkpt lat="43.6308" lon="3.84116">
        <ele>50</ele>
        <time>2021-01-01T09:19:42Z</time>
      </trkpt>
      <trkpt lat="43.63075" lon="3.84109">
        <ele>51</ele>
        <time>2021-01-01T09:19:44Z</time>
      </trkpt>
      <trkpt lat="43.63072" lon="3.841">
        <ele>52</ele>
        <time>2021-01-01T09:19:46Z</time>
      </trkpt>
      <trkpt lat="43.63071" lon="3.84093">
        <ele>52</ele>
        <time>2021-01-01T09:19:48Z</time>
      </trkpt>
      <trkpt lat="43.63073" lon="3.84085">
        <ele>52</ele>
        <time>2021-01-01T09:19:51Z</time>
      </trkpt>
      <trkpt lat="43.63076" lon="3.84077">
        <ele>52</ele>
        <time>2021-01-01T09:19:52Z</time>
      </trkpt>
      <trkpt lat="43.63079" lon="3.8407">
        <ele>52</ele>
        <time>2021-01-01T09:19:53Z</time>
      </trkpt>
      <trkpt lat="43.6308" lon="3.84061">
        <ele>53</ele>
        <time>2021-01-01T09:19:55Z</time>
      </trkpt>
      <trkpt lat="43.63072" lon="3.84056">
        <ele>53</ele>
        <time>2021-01-01T09:19:57Z</time>
      </trkpt>
      <trkpt lat="43.63067" lon="3.84053">
        <ele>53</ele>
        <time>2021-01-01T09:19:58Z</time>
      </trkpt>
      <trkpt lat="43.6306" lon="3.84048">
        <ele>54</ele>
        <time>2021-01-01T09:20:00Z</time>
      </trkpt>
      <trkpt lat="43.63054" lon="3.84045">
        <ele>53</ele>
        <time>2021-01-01T09:20:02Z</time>
      </trkpt>
      <trkpt lat="43.6305" lon="3.84042">
        <ele>53</ele>
        <time>2021-01-01T09:20:03Z</time>
      </trkpt>
      <trkpt lat="43.63046" lon="3.84038">
        <ele>52</ele>
        <time>2021-01-01T09:20:04Z</time>
      </trkpt>
      <trkpt lat="43.6304" lon="3.84035">
        <ele>52</ele>
        <time>2021-01-01T09:20:05Z</time>
      </trkpt>
      <trkpt lat="43.63037" lon="3.84029">
        <ele>51</ele>
        <time>2021-01-01T09:20:06Z</time>
      </trkpt>
      <trkpt lat="43.63032" lon="3.8402">
        <ele>51</ele>
        <time>2021-01-01T09:20:08Z</time>
      </trkpt>
      <trkpt lat="43.63031" lon="3.84011">
        <ele>51</ele>
        <time>2021-01-01T09:20:10Z</time>
      </trkpt>
      <trkpt lat="43.63034" lon="3.84003">
        <ele>51</ele>
        <time>2021-01-01T09:20:12Z</time>
      </trkpt>
      <trkpt lat="43.6304" lon="3.83996">
        <ele>51</ele>
        <time>2021-01-01T09:20:14Z</time>
      </trkpt>
      <trkpt lat="43.63046" lon="3.83991">
        <ele>51</ele>
        <time>2021-01-01T09:20:16Z</time>
      </trkpt>
      <trkpt lat="43.63052" lon="3.83987">
        <ele>51</ele>
        <time>2021-01-01T09:20:18Z</time>
      </trkpt>
      <trkpt lat="43.63056" lon="3.83984">
        <ele>50</ele>
        <time>2021-01-01T09:20:19Z</time>
      </trkpt>
      <trkpt lat="43.6306" lon="3.83975">
        <ele>49</ele>
        <time>2021-01-01T09:20:21Z</time>
      </trkpt>
      <trkpt lat="43.63062" lon="3.83966">
        <ele>48</ele>
        <time>2021-01-01T09:20:23Z</time>
      </trkpt>
      <trkpt lat="43.63063" lon="3.83958">
        <ele>48</ele>
        <time>2021-01-01T09:20:25Z</time>
      </trkpt>
      <trkpt lat="43.63067" lon="3.83949">
        <ele>48</ele>
        <time>2021-01-01T09:20:28Z</time>
      </trkpt>
      <trkpt lat="43.63071" lon="3.83941">
        <ele>47</ele>
        <time>2021-01-01T09:20:30Z</time>
      </trkpt>
      <trkpt lat="43.63075" lon="3.83934">
        <ele>47</ele>
        <time>2021-01-01T09:20:32Z</time>
      </trkpt>
      <trkpt lat="43.63078" lon="3.83927">
        <ele>47</ele>
        <time>2021-01-01T09:20:34Z</time>
      </trkpt>
      <trkpt lat="43.6308" lon="3.83919">
        <ele>46</ele>
        <time>2021-01-01T09:20:36Z</time>
      </trkpt>
      <trkpt lat="43.63079" lon="3.8391">
        <ele>45</ele>
        <time>2021-01-01T09:20:39Z</time>
      </trkpt>
      <trkpt lat="43.63081" lon="3.83902">
        <ele>46</ele>
        <time>2021-01-01T09:20:44Z</time>
      </trkpt>
      <trkpt lat="43.63084" lon="3.83895">
        <ele>46</ele>
        <time>2021-01-01T09:20:46Z</time>
      </trkpt>
      <trkpt lat="43.63086" lon="3.83888">
        <ele>47</ele>
        <time>2021-01-01T09:20:48Z</time>
      </trkpt>
      <trkpt lat="43.63088" lon="3.83882">
        <ele>48</ele>
        <time>2021-01-01T09:20:51Z</time>
      </trkpt>
      <trkpt lat="43.63083" lon="3.83889">
        <ele>49</ele>
        <time>2021-01-01T09:20:55Z</time>
      </trkpt>
      <trkpt lat="43.6308" lon="3.83897">
        <ele>50</ele>
        <time>2021-01-01T09:20:57Z</time>
      </trkpt>
      <trkpt lat="43.63076" lon="3.83902">
        <ele>51</ele>
        <time>2021-01-01T09:20:59Z</time>
      </trkpt>
      <trkpt lat="43.63073" lon="3.83909">
        <ele>52</ele>
        <time>2021-01-01T09:21:01Z</time>
      </trkpt>
      <trkpt lat="43.63069" lon="3.83916">
        <ele>52</ele>
        <time>2021-01-01T09:21:03Z</time>
      </trkpt>
      <trkpt lat="43.63064" lon="3.83919">
        <ele>53</ele>
        <time>2021-01-01T09:21:06Z</time>
      </trkpt>
      <trkpt lat="43.6306" lon="3.83917">
        <ele>53</ele>
        <time>2021-01-01T09:21:09Z</time>
      </trkpt>
      <trkpt lat="43.63055" lon="3.83912">
        <ele>53</ele>
        <time>2021-01-01T09:21:12Z</time>
      </trkpt>
      <trkpt lat="43.63052" lon="3.83906">
        <ele>53</ele>
        <time>2021-01-01T09:21:27Z</time>
      </trkpt>
      <trkpt lat="43.63051" lon="3.839">
        <ele>53</ele>
        <time>2021-01-01T09:21:35Z</time>
      </trkpt>
      <trkpt lat="43.63053" lon="3.83907">
        <ele>54</ele>
        <time>2021-01-01T09:21:58Z</time>
      </trkpt>
      <trkpt lat="43.63054" lon="3.83915">
        <ele>55</ele>
        <time>2021-01-01T09:22:02Z</time>
      </trkpt>
      <trkpt lat="43.63057" lon="3.83922">
        <ele>56</ele>
        <time>2021-01-01T09:22:05Z</time>
      </trkpt>
      <trkpt lat="43.63055" lon="3.8393">
        <ele>57</ele>
        <time>2021-01-01T09:22:08Z</time>
      </trkpt>
      <trkpt lat="43.6305" lon="3.83934">
        <ele>57</ele>
        <time>2021-01-01T09:22:10Z</time>
      </trkpt>
      <trkpt lat="43.63044" lon="3.83938">
        <ele>58</ele>
        <time>2021-01-01T09:22:12Z</time>
      </trkpt>
      <trkpt lat="43.63038" lon="3.83941">
        <ele>58</ele>
        <time>2021-01-01T09:22:14Z</time>
      </trkpt>
      <trkpt lat="43.6303" lon="3.83944">
        <ele>58</ele>
        <time>2021-01-01T09:22:16Z</time>
      </trkpt>
      <trkpt lat="43.63022" lon="3.83949">
        <ele>58</ele>
        <time>2021-01-01T09:22:18Z</time>
      </trkpt>
      <trkpt lat="43.63017" lon="3.83951">
        <ele>58</ele>
        <time>2021-01-01T09:22:19Z</time>
      </trkpt>
      <trkpt lat="43.63012" lon="3.83954">
        <ele>58</ele>
        <time>2021-01-01T09:22:20Z</time>
      </trkpt>
      <trkpt lat="43.63007" lon="3.83956">
        <ele>58</ele>
        <time>2021-01-01T09:22:21Z</time>
      </trkpt>
      <trkpt lat="43.63002" lon="3.83959">
        <ele>58</ele>
        <time>2021-01-01T09:22:22Z</time>
      </trkpt>
      <trkpt lat="43.62996" lon="3.83961">
        <ele>58</ele>
        <time>2021-01-01T09:22:23Z</time>
      </trkpt>
      <trkpt lat="43.62988" lon="3.83966">
        <ele>58</ele>
        <time>2021-01-01T09:22:25Z</time>
      </trkpt>
      <trkpt lat="43.62984" lon="3.8397">
        <ele>58</ele>
        <time>2021-01-01T09:22:26Z</time>
      </trkpt>
      <trkpt lat="43.62982" lon="3.83977">
        <ele>57</ele>
        <time>2021-01-01T09:22:29Z</time>
      </trkpt>
      <trkpt lat="43.62977" lon="3.83979">
        <ele>57</ele>
        <time>2021-01-01T09:22:36Z</time>
      </trkpt>
      <trkpt lat="43.6297" lon="3.83979">
        <ele>57</ele>
        <time>2021-01-01T09:22:39Z</time>
      </trkpt>
      <trkpt lat="43.62964" lon="3.83982">
        <ele>56</ele>
        <time>2021-01-01T09:22:41Z</time>
      </trkpt>
      <trkpt lat="43.62959" lon="3.8398">
        <ele>56</ele>
        <time>2021-01-01T09:22:42Z</time>
      </trkpt>
      <trkpt lat="43.62951" lon="3.83984">
        <ele>56</ele>
        <time>2021-01-01T09:22:44Z</time>
      </trkpt>
      <trkpt lat="43.62946" lon="3.83986">
        <ele>56</ele>
        <time>2021-01-01T09:22:45Z</time>
      </trkpt>
      <trkpt lat="43.62937" lon="3.8399">
        <ele>56</ele>
        <time>2021-01-01T09:22:47Z</time>
      </trkpt>
      <trkpt lat="43.62931" lon="3.83991">
        <ele>57</ele>
        <time>2021-01-01T09:22:49Z</time>
      </trkpt>
      <trkpt lat="43.62925" lon="3.83993">
        <ele>57</ele>
        <time>2021-01-01T09:22:50Z</time>
      </trkpt>
      <trkpt lat="43.6292" lon="3.83994">
        <ele>58</ele>
        <time>2021-01-01T09:22:51Z</time>
      </trkpt>
      <trkpt lat="43.62911" lon="3.83994">
        <ele>59</ele>
        <time>2021-01-01T09:22:53Z</time>
      </trkpt>
      <trkpt lat="43.62903" lon="3.83995">
        <ele>60</ele>
        <time>2021-01-01T09:22:55Z</time>
      </trkpt>
      <trkpt lat="43.62894" lon="3.83997">
        <ele>61</ele>
        <time>2021-01-01T09:22:57Z</time>
      </trkpt>
      <trkpt lat="43.62883" lon="3.84003">
        <ele>63</ele>
        <time>2021-01-01T09:22:59Z</time>
      </trkpt>
      <trkpt lat="43.62878" lon="3.84005">
        <ele>64</ele>
        <time>2021-01-01T09:23:00Z</time>
      </trkpt>
      <trkpt lat="43.62869" lon="3.8401">
        <ele>65</ele>
        <time>2021-01-01T09:23:02Z</time>
      </trkpt>
      <trkpt lat="43.62861" lon="3.84013">
        <ele>65</ele>
        <time>2021-01-01T09:23:03Z</time>
      </trkpt>
      <trkpt lat="43.62855" lon="3.84014">
        <ele>66</ele>
        <time>2021-01-01T09:23:04Z</time>
      </trkpt>
      <trkpt lat="43.6285" lon="3.84013">
        <ele>65</ele>
        <time>2021-01-01T09:23:05Z</time>
      </trkpt>
      <trkpt lat="43.62844" lon="3.84013">
        <ele>65</ele>
        <time>2021-01-01T09:23:06Z</time>
      </trkpt>
      <trkpt lat="43.62839" lon="3.84011">
        <ele>64</ele>
        <time>2021-01-01T09:23:07Z</time>
      </trkpt>
      <trkpt lat="43.62835" lon="3.84009">
        <ele>64</ele>
        <time>2021-01-01T09:23:08Z</time>
      </trkpt>
      <trkpt lat="43.6283" lon="3.84007">
        <ele>64</ele>
        <time>2021-01-01T09:23:09Z</time>
      </trkpt>
      <trkpt lat="43.62819" lon="3.84007">
        <ele>64</ele>
        <time>2021-01-01T09:23:11Z</time>
      </trkpt>
      <trkpt lat="43.62812" lon="3.84007">
        <ele>64</ele>
        <time>2021-01-01T09:23:13Z</time>
      </trkpt>
      <trkpt lat="43.62807" lon="3.84006">
        <ele>64</ele>
        <time>2021-01-01T09:23:15Z</time>
      </trkpt>
      <trkpt lat="43.62797" lon="3.84002">
        <ele>64</ele>
        <time>2021-01-01T09:23:17Z</time>
      </trkpt>
      <trkpt lat="43.62791" lon="3.84003">
        <ele>63</ele>
        <time>2021-01-01T09:23:18Z</time>
      </trkpt>
      <trkpt lat="43.62785" lon="3.84">
        <ele>62</ele>
        <time>2021-01-01T09:23:20Z</time>
      </trkpt>
      <trkpt lat="43.62777" lon="3.83993">
        <ele>61</ele>
        <time>2021-01-01T09:23:22Z</time>
      </trkpt>
      <trkpt lat="43.62769" lon="3.83979">
        <ele>59</ele>
        <time>2021-01-01T09:23:24Z</time>
      </trkpt>
      <trkpt lat="43.62765" lon="3.83974">
        <ele>58</ele>
        <time>2021-01-01T09:23:25Z</time>
      </trkpt>
      <trkpt lat="43.62759" lon="3.83965">
        <ele>57</ele>
        <time>2021-01-01T09:23:27Z</time>
      </trkpt>
      <trkpt lat="43.62753" lon="3.83956">
        <ele>57</ele>
        <time>2021-01-01T09:23:29Z</time>
      </trkpt>
      <trkpt lat="43.6275" lon="3.83952">
        <ele>57</ele>
        <time>2021-01-01T09:23:30Z</time>
      </trkpt>
      <trkpt lat="43.62743" lon="3.83947">
        <ele>57</ele>
        <time>2021-01-01T09:23:32Z</time>
      </trkpt>
      <trkpt lat="43.62738" lon="3.8394">
        <ele>57</ele>
        <time>2021-01-01T09:23:34Z</time>
      </trkpt>
      <trkpt lat="43.62734" lon="3.83933">
        <ele>58</ele>
        <time>2021-01-01T09:23:35Z</time>
      </trkpt>
      <trkpt lat="43.62728" lon="3.83924">
        <ele>59</ele>
        <time>2021-01-01T09:23:37Z</time>
      </trkpt>
      <trkpt lat="43.62724" lon="3.83914">
        <ele>60</ele>
        <time>2021-01-01T09:23:39Z</time>
      </trkpt>
      <trkpt lat="43.62718" lon="3.83905">
        <ele>60</ele>
        <time>2021-01-01T09:23:41Z</time>
      </trkpt>
      <trkpt lat="43.62713" lon="3.83895">
        <ele>61</ele>
        <time>2021-01-01T09:23:43Z</time>
      </trkpt>
      <trkpt lat="43.62708" lon="3.83886">
        <ele>61</ele>
        <time>2021-01-01T09:23:45Z</time>
      </trkpt>
      <trkpt lat="43.62706" lon="3.8388">
        <ele>61</ele>
        <time>2021-01-01T09:23:46Z</time>
      </trkpt>
      <trkpt lat="43.62701" lon="3.83871">
        <ele>61</ele>
        <time>2021-01-01T09:23:48Z</time>
      </trkpt>
      <trkpt lat="43.62698" lon="3.83861">
        <ele>62</ele>
        <time>2021-01-01T09:23:50Z</time>
      </trkpt>
      <trkpt lat="43.62695" lon="3.83853">
        <ele>62</ele>
        <time>2021-01-01T09:23:52Z</time>
      </trkpt>
      <trkpt lat="43.62692" lon="3.83845">
        <ele>62</ele>
        <time>2021-01-01T09:23:54Z</time>
      </trkpt>
      <trkpt lat="43.62689" lon="3.83839">
        <ele>63</ele>
        <time>2021-01-01T09:23:56Z</time>
      </trkpt>
      <trkpt lat="43.62685" lon="3.83834">
        <ele>63</ele>
        <time>2021-01-01T09:23:59Z</time>
      </trkpt>
      <trkpt lat="43.62681" lon="3.83822">
        <ele>64</ele>
        <time>2021-01-01T09:24:00Z</time>
      </trkpt>
      <trkpt lat="43.62677" lon="3.83817">
        <ele>65</ele>
        <time>2021-01-01T09:24:02Z</time>
      </trkpt>
      <trkpt lat="43.62674" lon="3.83811">
        <ele>66</ele>
        <time>2021-01-01T09:24:04Z</time>
      </trkpt>
      <trkpt lat="43.62673" lon="3.83805">
        <ele>66</ele>
        <time>2021-01-01T09:24:06Z</time>
      </trkpt>
      <trkpt lat="43.6267" lon="3.83799">
        <ele>67</ele>
        <time>2021-01-01T09:24:09Z</time>
      </trkpt>
      <trkpt lat="43.62666" lon="3.83794">
        <ele>67</ele>
        <time>2021-01-01T09:24:12Z</time>
      </trkpt>
      <trkpt lat="43.62661" lon="3.83788">
        <ele>66</ele>
        <time>2021-01-01T09:24:14Z</time>
      </trkpt>
      <trkpt lat="43.62656" lon="3.83781">
        <ele>65</ele>
        <time>2021-01-01T09:24:16Z</time>
      </trkpt>
      <trkpt lat="43.6265" lon="3.83772">
        <ele>66</ele>
        <time>2021-01-01T09:24:18Z</time>
      </trkpt>
      <trkpt lat="43.62645" lon="3.83765">
        <ele>66</ele>
        <time>2021-01-01T09:24:20Z</time>
      </trkpt>
      <trkpt lat="43.6264" lon="3.83757">
        <ele>67</ele>
        <time>2021-01-01T09:24:22Z</time>
      </trkpt>
      <trkpt lat="43.62635" lon="3.83751">
        <ele>67</ele>
        <time>2021-01-01T09:24:24Z</time>
      </trkpt>
      <trkpt lat="43.62629" lon="3.83744">
        <ele>68</ele>
        <time>2021-01-01T09:24:26Z</time>
      </trkpt>
      <trkpt lat="43.62624" lon="3.83737">
        <ele>69</ele>
        <time>2021-01-01T09:24:28Z</time>
      </trkpt>
      <trkpt lat="43.62619" lon="3.83731">
        <ele>69</ele>
        <time>2021-01-01T09:24:30Z</time>
      </trkpt>
      <trkpt lat="43.62614" lon="3.83725">
        <ele>69</ele>
        <time>2021-01-01T09:24:32Z</time>
      </trkpt>
      <trkpt lat="43.62609" lon="3.83719">
        <ele>69</ele>
        <time>2021-01-01T09:24:34Z</time>
      </trkpt>
      <trkpt lat="43.62604" lon="3.83713">
        <ele>69</ele>
        <time>2021-01-01T09:24:36Z</time>
      </trkpt>
      <trkpt lat="43.626" lon="3.83707">
        <ele>69</ele>
        <time>2021-01-01T09:24:38Z</time>
      </trkpt>
      <trkpt lat="43.62594" lon="3.837">
        <ele>70</ele>
        <time>2021-01-01T09:24:40Z</time>
      </trkpt>
      <trkpt lat="43.6259" lon="3.83693">
        <ele>70</ele>
        <time>2021-01-01T09:24:42Z</time>
      </trkpt>
      <trkpt lat="43.62585" lon="3.83686">
        <ele>70</ele>
        <time>2021-01-01T09:24:44Z</time>
      </trkpt>
      <trkpt lat="43.6258" lon="3.83678">
        <ele>71</ele>
        <time>2021-01-01T09:24:46Z</time>
      </trkpt>
      <trkpt lat="43.62577" lon="3.8367">
        <ele>71</ele>
        <time>2021-01-01T09:24:48Z</time>
      </trkpt>
      <trkpt lat="43.62576" lon="3.83662">
        <ele>71</ele>
        <time>2021-01-01T09:24:50Z</time>
      </trkpt>
      <trkpt lat="43.62577" lon="3.83653">
        <ele>71</ele>
        <time>2021-01-01T09:24:52Z</time>
      </trkpt>
      <trkpt lat="43.62579" lon="3.83643">
        <ele>71</ele>
        <time>2021-01-01T09:24:54Z</time>
      </trkpt>
      <trkpt lat="43.62579" lon="3.83636">
        <ele>71</ele>
        <time>2021-01-01T09:24:56Z</time>
      </trkpt>
      <trkpt lat="43.6258" lon="3.83627">
        <ele>71</ele>
        <time>2021-01-01T09:24:58Z</time>
      </trkpt>
      <trkpt lat="43.6258" lon="3.83618">
        <ele>71</ele>
        <time>2021-01-01T09:25:00Z</time>
      </trkpt>
      <trkpt lat="43.62579" lon="3.8361">
        <ele>71</ele>
        <time>2021-01-01T09:25:02Z</time>
      </trkpt>
      <trkpt lat="43.62575" lon="3.83601">
        <ele>71</ele>
        <time>2021-01-01T09:25:04Z</time>
      </trkpt>
      <trkpt lat="43.6257" lon="3.83594">
        <ele>71</ele>
        <time>2021-01-01T09:25:06Z</time>
      </trkpt>
      <trkpt lat="43.62565" lon="3.83586">
        <ele>70</ele>
        <time>2021-01-01T09:25:08Z</time>
      </trkpt>
      <trkpt lat="43.62558" lon="3.83579">
        <ele>70</ele>
        <time>2021-01-01T09:25:10Z</time>
      </trkpt>
      <trkpt lat="43.62552" lon="3.83573">
        <ele>70</ele>
        <time>2021-01-01T09:25:12Z</time>
      </trkpt>
      <trkpt lat="43.62545" lon="3.83567">
        <ele>69</ele>
        <time>2021-01-01T09:25:14Z</time>
      </trkpt>
      <trkpt lat="43.62539" lon="3.83561">
        <ele>68</ele>
        <time>2021-01-01T09:25:16Z</time>
      </trkpt>
      <trkpt lat="43.62535" lon="3.83556">
        <ele>68</ele>
        <time>2021-01-01T09:25:18Z</time>
      </trkpt>
      <trkpt lat="43.62532" lon="3.8355">
        <ele>67</ele>
        <time>2021-01-01T09:25:21Z</time>
      </trkpt>
      <trkpt lat="43.62533" lon="3.83542">
        <ele>67</ele>
        <time>2021-01-01T09:25:24Z</time>
      </trkpt>
      <trkpt lat="43.62532" lon="3.83535">
        <ele>67</ele>
        <time>2021-01-01T09:25:26Z</time>
      </trkpt>
      <trkpt lat="43.6253" lon="3.83529">
        <ele>66</ele>
        <time>2021-01-01T09:25:28Z</time>
      </trkpt>
      <trkpt lat="43.62524" lon="3.83517">
        <ele>65</ele>
        <time>2021-01-01T09:25:31Z</time>
      </trkpt>
      <trkpt lat="43.6252" lon="3.83508">
        <ele>65</ele>
        <time>2021-01-01T09:25:33Z</time>
      </trkpt>
      <trkpt lat="43.62518" lon="3.835">
        <ele>65</ele>
        <time>2021-01-01T09:25:35Z</time>
      </trkpt>
      <trkpt lat="43.62514" lon="3.83493">
        <ele>65</ele>
        <time>2021-01-01T09:25:37Z</time>
      </trkpt>
      <trkpt lat="43.6251" lon="3.83486">
        <ele>65</ele>
        <time>2021-01-01T09:25:39Z</time>
      </trkpt>
      <trkpt lat="43.62509" lon="3.8348">
        <ele>65</ele>
        <time>2021-01-01T09:25:42Z</time>
      </trkpt>
      <trkpt lat="43.62507" lon="3.83474">
        <ele>66</ele>
        <time>2021-01-01T09:25:43Z</time>
      </trkpt>
      <trkpt lat="43.62504" lon="3.83462">
        <ele>65</ele>
        <time>2021-01-01T09:25:44Z</time>
      </trkpt>
      <trkpt lat="43.62506" lon="3.83455">
        <ele>65</ele>
        <time>2021-01-01T09:25:45Z</time>
      </trkpt>
      <trkpt lat="43.62508" lon="3.83449">
        <ele>65</ele>
        <time>2021-01-01T09:25:46Z</time>
      </trkpt>
      <trkpt lat="43.6251" lon="3.83443">
        <ele>65</ele>
        <time>2021-01-01T09:25:47Z</time>
      </trkpt>
      <trkpt lat="43.62513" lon="3.83436">
        <ele>65</ele>
        <time>2021-01-01T09:25:48Z</time>
      </trkpt>
      <trkpt lat="43.62516" lon="3.83429">
        <ele>66</ele>
        <time>2021-01-01T09:25:49Z</time>
      </trkpt>
      <trkpt lat="43.62517" lon="3.83422">
        <ele>66</ele>
        <time>2021-01-01T09:25:50Z</time>
      </trkpt>
      <trkpt lat="43.62519" lon="3.83414">
        <ele>67</ele>
        <time>2021-01-01T09:25:51Z</time>
      </trkpt>
      <trkpt lat="43.6252" lon="3.83406">
        <ele>67</ele>
        <time>2021-01-01T09:25:52Z</time>
      </trkpt>
      <trkpt lat="43.62523" lon="3.83398">
        <ele>68</ele>
        <time>2021-01-01T09:25:53Z</time>
      </trkpt>
      <trkpt lat="43.62525" lon="3.83391">
        <ele>68</ele>
        <time>2021-01-01T09:25:54Z</time>
      </trkpt>
      <trkpt lat="43.62528" lon="3.83383">
        <ele>69</ele>
        <time>2021-01-01T09:25:55Z</time>
      </trkpt>
      <trkpt lat="43.6253" lon="3.83377">
        <ele>69</ele>
        <time>2021-01-01T09:25:56Z</time>
      </trkpt>
      <trkpt lat="43.62532" lon="3.8337">
        <ele>69</ele>
        <time>2021-01-01T09:25:57Z</time>
      </trkpt>
      <trkpt lat="43.62534" lon="3.83363">
        <ele>69</ele>
        <time>2021-01-01T09:25:58Z</time>
      </trkpt>
      <trkpt lat="43.62536" lon="3.83355">
        <ele>70</ele>
        <time>2021-01-01T09:25:59Z</time>
      </trkpt>
      <trkpt lat="43.62538" lon="3.83348">
        <ele>70</ele>
        <time>2021-01-01T09:26:00Z</time>
      </trkpt>
      <trkpt lat="43.6254" lon="3.83341">
        <ele>71</ele>
        <time>2021-01-01T09:26:01Z</time>
      </trkpt>
      <trkpt lat="43.62542" lon="3.83334">
        <ele>71</ele>
        <time>2021-01-01T09:26:02Z</time>
      </trkpt>
      <trkpt lat="43.62544" lon="3.83327">
        <ele>71</ele>
        <time>2021-01-01T09:26:03Z</time>
      </trkpt>
      <trkpt lat="43.62547" lon="3.83322">
        <ele>72</ele>
        <time>2021-01-01T09:26:04Z</time>
      </trkpt>
      <trkpt lat="43.62549" lon="3.83315">
        <ele>72</ele>
        <time>2021-01-01T09:26:05Z</time>
      </trkpt>
      <trkpt lat="43.62553" lon="3.83305">
        <ele>71</ele>
        <time>2021-01-01T09:26:07Z</time>
      </trkpt>
      <trkpt lat="43.62557" lon="3.83297">
        <ele>71</ele>
        <time>2021-01-01T09:26:08Z</time>
      </trkpt>
      <trkpt lat="43.62559" lon="3.83291">
        <ele>71</ele>
        <time>2021-01-01T09:26:09Z</time>
      </trkpt>
      <trkpt lat="43.62565" lon="3.83283">
        <ele>71</ele>
        <time>2021-01-01T09:26:11Z</time>
      </trkpt>
      <trkpt lat="43.62569" lon="3.83278">
        <ele>71</ele>
        <time>2021-01-01T09:26:12Z</time>
      </trkpt>
      <trkpt lat="43.62576" lon="3.83271">
        <ele>71</ele>
        <time>2021-01-01T09:26:14Z</time>
      </trkpt>
      <trkpt lat="43.62579" lon="3.83265">
        <ele>72</ele>
        <time>2021-01-01T09:26:15Z</time>
      </trkpt>
      <trkpt lat="43.62584" lon="3.83255">
        <ele>72</ele>
        <time>2021-01-01T09:26:17Z</time>
      </trkpt>
      <trkpt lat="43.62586" lon="3.83249">
        <ele>73</ele>
        <time>2021-01-01T09:26:18Z</time>
      </trkpt>
      <trkpt lat="43.62589" lon="3.83244">
        <ele>74</ele>
        <time>2021-01-01T09:26:19Z</time>
      </trkpt>
      <trkpt lat="43.62595" lon="3.83235">
        <ele>75</ele>
        <time>2021-01-01T09:26:21Z</time>
      </trkpt>
      <trkpt lat="43.62602" lon="3.83229">
        <ele>75</ele>
        <time>2021-01-01T09:26:23Z</time>
      </trkpt>
      <trkpt lat="43.62606" lon="3.83227">
        <ele>76</ele>
        <time>2021-01-01T09:26:24Z</time>
      </trkpt>
      <trkpt lat="43.62613" lon="3.83222">
        <ele>77</ele>
        <time>2021-01-01T09:26:26Z</time>
      </trkpt>
      <trkpt lat="43.62619" lon="3.83216">
        <ele>78</ele>
        <time>2021-01-01T09:26:28Z</time>
      </trkpt>
      <trkpt lat="43.62623" lon="3.83206">
        <ele>78</ele>
        <time>2021-01-01T09:26:30Z</time>
      </trkpt>
      <trkpt lat="43.62629" lon="3.832">
        <ele>78</ele>
        <time>2021-01-01T09:26:32Z</time>
      </trkpt>
      <trkpt lat="43.62637" lon="3.83195">
        <ele>79</ele>
        <time>2021-01-01T09:26:34Z</time>
      </trkpt>
      <trkpt lat="43.62645" lon="3.8319">
        <ele>79</ele>
        <time>2021-01-01T09:26:36Z</time>
      </trkpt>
      <trkpt lat="43.62651" lon="3.83185">
        <ele>79</ele>
        <time>2021-01-01T09:26:38Z</time>
      </trkpt>
      <trkpt lat="43.62658" lon="3.8318">
        <ele>80</ele>
        <time>2021-01-01T09:26:40Z</time>
      </trkpt>
      <trkpt lat="43.62664" lon="3.83175">
        <ele>80</ele>
        <time>2021-01-01T09:26:42Z</time>
      </trkpt>
      <trkpt lat="43.6267" lon="3.8317">
        <ele>81</ele>
        <time>2021-01-01T09:26:44Z</time>
      </trkpt>
      <trkpt lat="43.62674" lon="3.83163">
        <ele>81</ele>
        <time>2021-01-01T09:26:46Z</time>
      </trkpt>
      <trkpt lat="43.62677" lon="3.83155">
        <ele>81</ele>
        <time>2021-01-01T09:26:48Z</time>
      </trkpt>
      <trkpt lat="43.62682" lon="3.83148">
        <ele>82</ele>
        <time>2021-01-01T09:26:50Z</time>
      </trkpt>
      <trkpt lat="43.62688" lon="3.83142">
        <ele>82</ele>
        <time>2021-01-01T09:26:52Z</time>
      </trkpt>
      <trkpt lat="43.62695" lon="3.83137">
        <ele>83</ele>
        <time>2021-01-01T09:26:54Z</time>
      </trkpt>
      <trkpt lat="43.62701" lon="3.83132">
        <ele>83</ele>
        <time>2021-01-01T09:26:56Z</time>
      </trkpt>
      <trkpt lat="43.62708" lon="3.83127">
        <ele>83</ele>
        <time>2021-01-01T09:26:58Z</time>
      </trkpt>
      <trkpt lat="43.62715" lon="3.83123">
        <ele>84</ele>
        <time>2021-01-01T09:27:00Z</time>
      </trkpt>
      <trkpt lat="43.62722" lon="3.83119">
        <ele>84</ele>
        <time>2021-01-01T09:27:02Z</time>
      </trkpt>
      <trkpt lat="43.6273" lon="3.83116">
        <ele>85</ele>
        <time>2021-01-01T09:27:04Z</time>
      </trkpt>
      <trkpt lat="43.62736" lon="3.83112">
        <ele>86</ele>
        <time>2021-01-01T09:27:06Z</time>
      </trkpt>
      <trkpt lat="43.62743" lon="3.83108">
        <ele>87</ele>
        <time>2021-01-01T09:27:08Z</time>
      </trkpt>
      <trkpt lat="43.62749" lon="3.83105">
        <ele>88</ele>
        <time>2021-01-01T09:27:11Z</time>
      </trkpt>
      <trkpt lat="43.6276" lon="3.83101">
        <ele>88</ele>
        <time>2021-01-01T09:27:13Z</time>
      </trkpt>
      <trkpt lat="43.62767" lon="3.83099">
        <ele>89</ele>
        <time>2021-01-01T09:27:15Z</time>
      </trkpt>
      <trkpt lat="43.62774" lon="3.83098">
        <ele>89</ele>
        <time>2021-01-01T09:27:17Z</time>
      </trkpt>
      <trkpt lat="43.62782" lon="3.83096">
        <ele>89</ele>
        <time>2021-01-01T09:27:19Z</time>
      </trkpt>
      <trkpt lat="43.62787" lon="3.83097">
        <ele>89</ele>
        <time>2021-01-01T09:27:21Z</time>
      </trkpt>
      <trkpt lat="43.62794" lon="3.83094">
        <ele>88</ele>
        <time>2021-01-01T09:27:23Z</time>
      </trkpt>
      <trkpt lat="43.62803" lon="3.83091">
        <ele>88</ele>
        <time>2021-01-01T09:27:25Z</time>
      </trkpt>
      <trkpt lat="43.62808" lon="3.83089">
        <ele>87</ele>
        <time>2021-01-01T09:27:26Z</time>
      </trkpt>
      <trkpt lat="43.62812" lon="3.83088">
        <ele>87</ele>
        <time>2021-01-01T09:27:27Z</time>
      </trkpt>
      <trkpt lat="43.62818" lon="3.83086">
        <ele>87</ele>
        <time>2021-01-01T09:27:28Z</time>
      </trkpt>
      <trkpt lat="43.62823" lon="3.83085">
        <ele>87</ele>
        <time>2021-01-01T09:27:29Z</time>
      </trkpt>
      <trkpt lat="43.62828" lon="3.83085">
        <ele>87</ele>
        <time>2021-01-01T09:27:30Z</time>
      </trkpt>
      <trkpt lat="43.62832" lon="3.83086">
        <ele>87</ele>
        <time>2021-01-01T09:27:31Z</time>
      </trkpt>
      <trkpt lat="43.62844" lon="3.83082">
        <ele>87</ele>
        <time>2021-01-01T09:27:33Z</time>
      </trkpt>
      <trkpt lat="43.62846" lon="3.83071">
        <ele>86</ele>
        <time>2021-01-01T09:27:35Z</time>
      </trkpt>
      <trkpt lat="43.62848" lon="3.83059">
        <ele>85</ele>
        <time>2021-01-01T09:27:37Z</time>
      </trkpt>
      <trkpt lat="43.62845" lon="3.83052">
        <ele>84</ele>
        <time>2021-01-01T09:27:38Z</time>
      </trkpt>
      <trkpt lat="43.62841" lon="3.83043">
        <ele>83</ele>
        <time>2021-01-01T09:27:39Z</time>
      </trkpt>
      <trkpt lat="43.62839" lon="3.83034">
        <ele>81</ele>
        <time>2021-01-01T09:27:40Z</time>
      </trkpt>
      <trkpt lat="43.62839" lon="3.83023">
        <ele>80</ele>
        <time>2021-01-01T09:27:41Z</time>
      </trkpt>
      <trkpt lat="43.62839" lon="3.83013">
        <ele>79</ele>
        <time>2021-01-01T09:27:42Z</time>
      </trkpt>
      <trkpt lat="43.62838" lon="3.83004">
        <ele>78</ele>
        <time>2021-01-01T09:27:43Z</time>
      </trkpt>
      <trkpt lat="43.62839" lon="3.82994">
        <ele>77</ele>
        <time>2021-01-01T09:27:44Z</time>
      </trkpt>
      <trkpt lat="43.62838" lon="3.82985">
        <ele>76</ele>
        <time>2021-01-01T09:27:45Z</time>
      </trkpt>
      <trkpt lat="43.62837" lon="3.82975">
        <ele>76</ele>
        <time>2021-01-01T09:27:46Z</time>
      </trkpt>
      <trkpt lat="43.62835" lon="3.82967">
        <ele>76</ele>
        <time>2021-01-01T09:27:47Z</time>
      </trkpt>
      <trkpt lat="43.62834" lon="3.8296">
        <ele>75</ele>
        <time>2021-01-01T09:27:48Z</time>
      </trkpt>
      <trkpt lat="43.62836" lon="3.82952">
        <ele>75</ele>
        <time>2021-01-01T09:27:49Z</time>
      </trkpt>
      <trkpt lat="43.62837" lon="3.82943">
        <ele>74</ele>
        <time>2021-01-01T09:27:50Z</time>
      </trkpt>
      <trkpt lat="43.62837" lon="3.82933">
        <ele>73</ele>
        <time>2021-01-01T09:27:51Z</time>
      </trkpt>
      <trkpt lat="43.62839" lon="3.82922">
        <ele>72</ele>
        <time>2021-01-01T09:27:52Z</time>
      </trkpt>
      <trkpt lat="43.6284" lon="3.82911">
        <ele>71</ele>
        <time>2021-01-01T09:27:53Z</time>
      </trkpt>
      <trkpt lat="43.62842" lon="3.829">
        <ele>70</ele>
        <time>2021-01-01T09:27:54Z</time>
      </trkpt>
      <trkpt lat="43.62844" lon="3.82889">
        <ele>69</ele>
        <time>2021-01-01T09:27:55Z</time>
      </trkpt>
      <trkpt lat="43.62846" lon="3.8288">
        <ele>69</ele>
        <time>2021-01-01T09:27:56Z</time>
      </trkpt>
      <trkpt lat="43.62847" lon="3.82868">
        <ele>68</ele>
        <time>2021-01-01T09:27:57Z</time>
      </trkpt>
      <trkpt lat="43.62848" lon="3.82857">
        <ele>67</ele>
        <time>2021-01-01T09:27:58Z</time>
      </trkpt>
      <trkpt lat="43.62851" lon="3.82847">
        <ele>67</ele>
        <time>2021-01-01T09:27:59Z</time>
      </trkpt>
      <trkpt lat="43.62853" lon="3.82837">
        <ele>66</ele>
        <time>2021-01-01T09:28:00Z</time>
      </trkpt>
      <trkpt lat="43.62856" lon="3.8283">
        <ele>65</ele>
        <time>2021-01-01T09:28:01Z</time>
      </trkpt>
      <trkpt lat="43.62859" lon="3.82825">
        <ele>64</ele>
        <time>2021-01-01T09:28:02Z</time>
      </trkpt>
      <trkpt lat="43.62863" lon="3.8282">
        <ele>64</ele>
        <time>2021-01-01T09:28:03Z</time>
      </trkpt>
      <trkpt lat="43.62867" lon="3.82817">
        <ele>63</ele>
        <time>2021-01-01T09:28:04Z</time>
      </trkpt>
      <trkpt lat="43.62872" lon="3.82816">
        <ele>63</ele>
        <time>2021-01-01T09:28:05Z</time>
      </trkpt>
      <trkpt lat="43.62878" lon="3.82815">
        <ele>63</ele>
        <time>2021-01-01T09:28:06Z</time>
      </trkpt>
      <trkpt lat="43.62884" lon="3.82814">
        <ele>63</ele>
        <time>2021-01-01T09:28:07Z</time>
      </trkpt>
      <trkpt lat="43.6289" lon="3.82815">
        <ele>63</ele>
        <time>2021-01-01T09:28:08Z</time>
      </trkpt>
      <trkpt lat="43.62896" lon="3.82812">
        <ele>62</ele>
        <time>2021-01-01T09:28:09Z</time>
      </trkpt>
      <trkpt lat="43.62901" lon="3.82808">
        <ele>62</ele>
        <time>2021-01-01T09:28:10Z</time>
      </trkpt>
      <trkpt lat="43.62903" lon="3.82801">
        <ele>62</ele>
        <time>2021-01-01T09:28:11Z</time>
      </trkpt>
      <trkpt lat="43.62904" lon="3.82795">
        <ele>62</ele>
        <time>2021-01-01T09:28:12Z</time>
      </trkpt>
      <trkpt lat="43.62905" lon="3.82788">
        <ele>61</ele>
        <time>2021-01-01T09:28:13Z</time>
      </trkpt>
      <trkpt lat="43.62904" lon="3.82781">
        <ele>61</ele>
        <time>2021-01-01T09:28:14Z</time>
      </trkpt>
      <trkpt lat="43.62904" lon="3.82774">
        <ele>60</ele>
        <time>2021-01-01T09:28:15Z</time>
      </trkpt>
      <trkpt lat="43.62904" lon="3.82766">
        <ele>60</ele>
        <time>2021-01-01T09:28:16Z</time>
      </trkpt>
      <trkpt lat="43.62907" lon="3.82759">
        <ele>59</ele>
        <time>2021-01-01T09:28:17Z</time>
      </trkpt>
      <trkpt lat="43.62911" lon="3.82753">
        <ele>59</ele>
        <time>2021-01-01T09:28:18Z</time>
      </trkpt>
      <trkpt lat="43.62916" lon="3.82746">
        <ele>59</ele>
        <time>2021-01-01T09:28:19Z</time>
      </trkpt>
      <trkpt lat="43.62919" lon="3.82741">
        <ele>59</ele>
        <time>2021-01-01T09:28:20Z</time>
      </trkpt>
      <trkpt lat="43.62924" lon="3.82736">
        <ele>58</ele>
        <time>2021-01-01T09:28:21Z</time>
      </trkpt>
      <trkpt lat="43.62928" lon="3.82729">
        <ele>58</ele>
        <time>2021-01-01T09:28:22Z</time>
      </trkpt>
      <trkpt lat="43.62933" lon="3.82723">
        <ele>58</ele>
        <time>2021-01-01T09:28:23Z</time>
      </trkpt>
      <trkpt lat="43.62938" lon="3.82717">
        <ele>57</ele>
        <time>2021-01-01T09:28:24Z</time>
      </trkpt>
      <trkpt lat="43.62943" lon="3.82711">
        <ele>57</ele>
        <time>2021-01-01T09:28:25Z</time>
      </trkpt>
      <trkpt lat="43.62947" lon="3.82706">
        <ele>57</ele>
        <time>2021-01-01T09:28:26Z</time>
      </trkpt>
      <trkpt lat="43.62952" lon="3.82701">
        <ele>58</ele>
        <time>2021-01-01T09:28:27Z</time>
      </trkpt>
      <trkpt lat="43.62956" lon="3.82694">
        <ele>58</ele>
        <time>2021-01-01T09:28:28Z</time>
      </trkpt>
      <trkpt lat="43.62961" lon="3.82689">
        <ele>58</ele>
        <time>2021-01-01T09:28:29Z</time>
      </trkpt>
      <trkpt lat="43.62965" lon="3.82684">
        <ele>58</ele>
        <time>2021-01-01T09:28:30Z</time>
      </trkpt>
      <trkpt lat="43.6297" lon="3.82679">
        <ele>59</ele>
        <time>2021-01-01T09:28:31Z</time>
      </trkpt>
      <trkpt lat="43.62975" lon="3.82673">
        <ele>59</ele>
        <time>2021-01-01T09:28:32Z</time>
      </trkpt>
      <trkpt lat="43.62979" lon="3.82668">
        <ele>59</ele>
        <time>2021-01-01T09:28:33Z</time>
      </trkpt>
      <trkpt lat="43.62983" lon="3.82662">
        <ele>59</ele>
        <time>2021-01-01T09:28:34Z</time>
      </trkpt>
      <trkpt lat="43.62987" lon="3.82656">
        <ele>60</ele>
        <time>2021-01-01T09:28:35Z</time>
      </trkpt>
      <trkpt lat="43.62991" lon="3.82651">
        <ele>60</ele>
        <time>2021-01-01T09:28:36Z</time>
      </trkpt>
      <trkpt lat="43.62996" lon="3.82646">
        <ele>60</ele>
        <time>2021-01-01T09:28:37Z</time>
      </trkpt>
      <trkpt lat="43.63001" lon="3.82639">
        <ele>60</ele>
        <time>2021-01-01T09:28:38Z</time>
      </trkpt>
      <trkpt lat="43.63005" lon="3.82634">
        <ele>60</ele>
        <time>2021-01-01T09:28:39Z</time>
      </trkpt>
      <trkpt lat="43.6301" lon="3.82631">
        <ele>60</ele>
        <time>2021-01-01T09:28:40Z</time>
      </trkpt>
      <trkpt lat="43.63015" lon="3.8263">
        <ele>60</ele>
        <time>2021-01-01T09:28:41Z</time>
      </trkpt>
      <trkpt lat="43.63021" lon="3.8263">
        <ele>60</ele>
        <time>2021-01-01T09:28:42Z</time>
      </trkpt>
      <trkpt lat="43.63026" lon="3.8263">
        <ele>60</ele>
        <time>2021-01-01T09:28:43Z</time>
      </trkpt>
      <trkpt lat="43.63031" lon="3.8263">
        <ele>60</ele>
        <time>2021-01-01T09:28:44Z</time>
      </trkpt>
      <trkpt lat="43.63036" lon="3.82628">
        <ele>59</ele>
        <time>2021-01-01T09:28:45Z</time>
      </trkpt>
      <trkpt lat="43.63039" lon="3.82622">
        <ele>59</ele>
        <time>2021-01-01T09:28:46Z</time>
      </trkpt>
      <trkpt lat="43.63041" lon="3.82615">
        <ele>59</ele>
        <time>2021-01-01T09:28:47Z</time>
      </trkpt>
      <trkpt lat="43.63041" lon="3.82608">
        <ele>59</ele>
        <time>2021-01-01T09:28:48Z</time>
      </trkpt>
      <trkpt lat="43.63041" lon="3.82601">
        <ele>58</ele>
        <time>2021-01-01T09:28:49Z</time>
      </trkpt>
      <trkpt lat="43.6304" lon="3.82592">
        <ele>58</ele>
        <time>2021-01-01T09:28:50Z</time>
      </trkpt>
      <trkpt lat="43.6304" lon="3.82583">
        <ele>57</ele>
        <time>2021-01-01T09:28:51Z</time>
      </trkpt>
      <trkpt lat="43.63041" lon="3.82573">
        <ele>56</ele>
        <time>2021-01-01T09:28:52Z</time>
      </trkpt>
      <trkpt lat="43.63041" lon="3.82564">
        <ele>56</ele>
        <time>2021-01-01T09:28:53Z</time>
      </trkpt>
      <trkpt lat="43.63041" lon="3.82553">
        <ele>56</ele>
        <time>2021-01-01T09:28:54Z</time>
      </trkpt>
      <trkpt lat="43.63041" lon="3.82543">
        <ele>55</ele>
        <time>2021-01-01T09:28:55Z</time>
      </trkpt>
      <trkpt lat="43.63041" lon="3.82532">
        <ele>55</ele>
        <time>2021-01-01T09:28:56Z</time>
      </trkpt>
      <trkpt lat="43.63042" lon="3.82521">
        <ele>55</ele>
        <time>2021-01-01T09:28:57Z</time>
      </trkpt>
      <trkpt lat="43.63042" lon="3.82511">
        <ele>55</ele>
        <time>2021-01-01T09:28:58Z</time>
      </trkpt>
      <trkpt lat="43.63043" lon="3.82502">
        <ele>55</ele>
        <time>2021-01-01T09:28:59Z</time>
      </trkpt>
      <trkpt lat="43.63044" lon="3.82492">
        <ele>55</ele>
        <time>2021-01-01T09:29:00Z</time>
      </trkpt>
      <trkpt lat="43.63044" lon="3.82482">
        <ele>55</ele>
        <time>2021-01-01T09:29:01Z</time>
      </trkpt>
      <trkpt lat="43.63044" lon="3.82474">
        <ele>55</ele>
        <time>2021-01-01T09:29:02Z</time>
      </trkpt>
      <trkpt lat="43.63045" lon="3.82466">
        <ele>55</ele>
        <time>2021-01-01T09:29:03Z</time>
      </trkpt>
      <trkpt lat="43.63045" lon="3.82457">
        <ele>55</ele>
        <time>2021-01-01T09:29:04Z</time>
      </trkpt>
      <trkpt lat="43.63045" lon="3.82449">
        <ele>54</ele>
        <time>2021-01-01T09:29:05Z</time>
      </trkpt>
      <trkpt lat="43.63046" lon="3.82441">
        <ele>53</ele>
        <time>2021-01-01T09:29:06Z</time>
      </trkpt>
      <trkpt lat="43.63046" lon="3.82434">
        <ele>53</ele>
        <time>2021-01-01T09:29:07Z</time>
      </trkpt>
      <trkpt lat="43.63046" lon="3.82426">
        <ele>52</ele>
        <time>2021-01-01T09:29:08Z</time>
      </trkpt>
      <trkpt lat="43.63047" lon="3.82418">
        <ele>52</ele>
        <time>2021-01-01T09:29:09Z</time>
      </trkpt>
      <trkpt lat="43.63049" lon="3.82412">
        <ele>52</ele>
        <time>2021-01-01T09:29:10Z</time>
      </trkpt>
      <trkpt lat="43.63051" lon="3.82405">
        <ele>51</ele>
        <time>2021-01-01T09:29:11Z</time>
      </trkpt>
      <trkpt lat="43.6305" lon="3.82397">
        <ele>51</ele>
        <time>2021-01-01T09:29:12Z</time>
      </trkpt>
      <trkpt lat="43.6305" lon="3.8239">
        <ele>50</ele>
        <time>2021-01-01T09:29:13Z</time>
      </trkpt>
      <trkpt lat="43.6305" lon="3.82383">
        <ele>50</ele>
        <time>2021-01-01T09:29:14Z</time>
      </trkpt>
      <trkpt lat="43.6305" lon="3.82375">
        <ele>50</ele>
        <time>2021-01-01T09:29:15Z</time>
      </trkpt>
      <trkpt lat="43.6305" lon="3.82368">
        <ele>50</ele>
        <time>2021-01-01T09:29:16Z</time>
      </trkpt>
      <trkpt lat="43.63051" lon="3.82361">
        <ele>50</ele>
        <time>2021-01-01T09:29:17Z</time>
      </trkpt>
      <trkpt lat="43.63051" lon="3.82354">
        <ele>50</ele>
        <time>2021-01-01T09:29:18Z</time>
      </trkpt>
      <trkpt lat="43.63051" lon="3.82346">
        <ele>50</ele>
        <time>2021-01-01T09:29:19Z</time>
      </trkpt>
      <trkpt lat="43.63051" lon="3.82338">
        <ele>50</ele>
        <time>2021-01-01T09:29:20Z</time>
      </trkpt>
      <trkpt lat="43.63051" lon="3.82331">
        <ele>50</ele>
        <time>2021-01-01T09:29:21Z</time>
      </trkpt>
      <trkpt lat="43.63048" lon="3.82319">
        <ele>50</ele>
        <time>2021-01-01T09:29:23Z</time>
      </trkpt>
      <trkpt lat="43.63045" lon="3.82314">
        <ele>49</ele>
        <time>2021-01-01T09:29:27Z</time>
      </trkpt>
      <trkpt lat="43.63046" lon="3.82308">
        <ele>49</ele>
        <time>2021-01-01T09:29:33Z</time>
      </trkpt>
      <trkpt lat="43.63051" lon="3.823">
        <ele>49</ele>
        <time>2021-01-01T09:29:35Z</time>
      </trkpt>
      <trkpt lat="43.63056" lon="3.82292">
        <ele>49</ele>
        <time>2021-01-01T09:29:37Z</time>
      </trkpt>
      <trkpt lat="43.63057" lon="3.82282">
        <ele>49</ele>
        <time>2021-01-01T09:29:39Z</time>
      </trkpt>
      <trkpt lat="43.63058" lon="3.82271">
        <ele>50</ele>
        <time>2021-01-01T09:29:41Z</time>
      </trkpt>
      <trkpt lat="43.63057" lon="3.82261">
        <ele>49</ele>
        <time>2021-01-01T09:29:43Z</time>
      </trkpt>
      <trkpt lat="43.63057" lon="3.82251">
        <ele>49</ele>
        <time>2021-01-01T09:29:45Z</time>
      </trkpt>
      <trkpt lat="43.63057" lon="3.8224">
        <ele>48</ele>
        <time>2021-01-01T09:29:47Z</time>
      </trkpt>
      <trkpt lat="43.63057" lon="3.82232">
        <ele>48</ele>
        <time>2021-01-01T09:29:49Z</time>
      </trkpt>
      <trkpt lat="43.63057" lon="3.82223">
        <ele>48</ele>
        <time>2021-01-01T09:29:51Z</time>
      </trkpt>
      <trkpt lat="43.63054" lon="3.82213">
        <ele>47</ele>
        <time>2021-01-01T09:29:53Z</time>
      </trkpt>
      <trkpt lat="43.63052" lon="3.82201">
        <ele>47</ele>
        <time>2021-01-01T09:29:55Z</time>
      </trkpt>
      <trkpt lat="43.63051" lon="3.8219">
        <ele>47</ele>
        <time>2021-01-01T09:29:57Z</time>
      </trkpt>
      <trkpt lat="43.63052" lon="3.82179">
        <ele>47</ele>
        <time>2021-01-01T09:29:59Z</time>
      </trkpt>
      <trkpt lat="43.63053" lon="3.82173">
        <ele>47</ele>
        <time>2021-01-01T09:30:00Z</time>
      </trkpt>
      <trkpt lat="43.63055" lon="3.82165">
        <ele>48</ele>
        <time>2021-01-01T09:30:01Z</time>
      </trkpt>
      <trkpt lat="43.63054" lon="3.82153">
        <ele>48</ele>
        <time>2021-01-01T09:30:03Z</time>
      </trkpt>
      <trkpt lat="43.63054" lon="3.82147">
        <ele>48</ele>
        <time>2021-01-01T09:30:04Z</time>
      </trkpt>
      <trkpt lat="43.63055" lon="3.82134">
        <ele>48</ele>
        <time>2021-01-01T09:30:06Z</time>
      </trkpt>
      <trkpt lat="43.63054" lon="3.82128">
        <ele>48</ele>
        <time>2021-01-01T09:30:07Z</time>
      </trkpt>
      <trkpt lat="43.63055" lon="3.82121">
        <ele>47</ele>
        <time>2021-01-01T09:30:08Z</time>
      </trkpt>
      <trkpt lat="43.63054" lon="3.82115">
        <ele>47</ele>
        <time>2021-01-01T09:30:09Z</time>
      </trkpt>
      <trkpt lat="43.63055" lon="3.82102">
        <ele>46</ele>
        <time>2021-01-01T09:30:11Z</time>
      </trkpt>
      <trkpt lat="43.63057" lon="3.82093">
        <ele>45</ele>
        <time>2021-01-01T09:30:13Z</time>
      </trkpt>
      <trkpt lat="43.6306" lon="3.82087">
        <ele>45</ele>
        <time>2021-01-01T09:30:15Z</time>
      </trkpt>
      <trkpt lat="43.63065" lon="3.82084">
        <ele>45</ele>
        <time>2021-01-01T09:30:17Z</time>
      </trkpt>
      <trkpt lat="43.63069" lon="3.8208">
        <ele>45</ele>
        <time>2021-01-01T09:30:19Z</time>
      </trkpt>
      <trkpt lat="43.63073" lon="3.82077">
        <ele>45</ele>
        <time>2021-01-01T09:30:21Z</time>
      </trkpt>
      <trkpt lat="43.63077" lon="3.82072">
        <ele>45</ele>
        <time>2021-01-01T09:30:23Z</time>
      </trkpt>
      <trkpt lat="43.63078" lon="3.82065">
        <ele>45</ele>
        <time>2021-01-01T09:30:26Z</time>
      </trkpt>
      <trkpt lat="43.63076" lon="3.82057">
        <ele>45</ele>
        <time>2021-01-01T09:30:29Z</time>
      </trkpt>
      <trkpt lat="43.63075" lon="3.8205">
        <ele>45</ele>
        <time>2021-01-01T09:30:31Z</time>
      </trkpt>
      <trkpt lat="43.63075" lon="3.82039">
        <ele>44</ele>
        <time>2021-01-01T09:30:33Z</time>
      </trkpt>
      <trkpt lat="43.63075" lon="3.82032">
        <ele>44</ele>
        <time>2021-01-01T09:30:34Z</time>
      </trkpt>
      <trkpt lat="43.63073" lon="3.82021">
        <ele>44</ele>
        <time>2021-01-01T09:30:36Z</time>
      </trkpt>
      <trkpt lat="43.63072" lon="3.8201">
        <ele>44</ele>
        <time>2021-01-01T09:30:38Z</time>
      </trkpt>
      <trkpt lat="43.63072" lon="3.82004">
        <ele>44</ele>
        <time>2021-01-01T09:30:39Z</time>
      </trkpt>
      <trkpt lat="43.63073" lon="3.81992">
        <ele>44</ele>
        <time>2021-01-01T09:30:41Z</time>
      </trkpt>
      <trkpt lat="43.63072" lon="3.8198">
        <ele>44</ele>
        <time>2021-01-01T09:30:43Z</time>
      </trkpt>
      <trkpt lat="43.63072" lon="3.81973">
        <ele>44</ele>
        <time>2021-01-01T09:30:44Z</time>
      </trkpt>
      <trkpt lat="43.6307" lon="3.81967">
        <ele>44</ele>
        <time>2021-01-01T09:30:45Z</time>
      </trkpt>
      <trkpt lat="43.6307" lon="3.8196">
        <ele>44</ele>
        <time>2021-01-01T09:30:46Z</time>
      </trkpt>
      <trkpt lat="43.63069" lon="3.81953">
        <ele>44</ele>
        <time>2021-01-01T09:30:47Z</time>
      </trkpt>
      <trkpt lat="43.63069" lon="3.81942">
        <ele>43</ele>
        <time>2021-01-01T09:30:49Z</time>
      </trkpt>
      <trkpt lat="43.63069" lon="3.81935">
        <ele>43</ele>
        <time>2021-01-01T09:30:50Z</time>
      </trkpt>
      <trkpt lat="43.63068" lon="3.81923">
        <ele>43</ele>
        <time>2021-01-01T09:30:52Z</time>
      </trkpt>
      <trkpt lat="43.63066" lon="3.81918">
        <ele>42</ele>
        <time>2021-01-01T09:30:53Z</time>
      </trkpt>
      <trkpt lat="43.63065" lon="3.81907">
        <ele>42</ele>
        <time>2021-01-01T09:30:55Z</time>
      </trkpt>
      <trkpt lat="43.63067" lon="3.81897">
        <ele>42</ele>
        <time>2021-01-01T09:30:57Z</time>
      </trkpt>
      <trkpt lat="43.63068" lon="3.81891">
        <ele>42</ele>
        <time>2021-01-01T09:30:58Z</time>
      </trkpt>
      <trkpt lat="43.63071" lon="3.81884">
        <ele>42</ele>
        <time>2021-01-01T09:31:00Z</time>
      </trkpt>
      <trkpt lat="43.63078" lon="3.81881">
        <ele>43</ele>
        <time>2021-01-01T09:31:02Z</time>
      </trkpt>
      <trkpt lat="43.63085" lon="3.81882">
        <ele>44</ele>
        <time>2021-01-01T09:31:04Z</time>
      </trkpt>
      <trkpt lat="43.63091" lon="3.81882">
        <ele>45</ele>
        <time>2021-01-01T09:31:06Z</time>
      </trkpt>
      <trkpt lat="43.63096" lon="3.81883">
        <ele>46</ele>
        <time>2021-01-01T09:31:08Z</time>
      </trkpt>
      <trkpt lat="43.63102" lon="3.81886">
        <ele>47</ele>
        <time>2021-01-01T09:31:10Z</time>
      </trkpt>
      <trkpt lat="43.63108" lon="3.81887">
        <ele>48</ele>
        <time>2021-01-01T09:31:12Z</time>
      </trkpt>
      <trkpt lat="43.63115" lon="3.81887">
        <ele>48</ele>
        <time>2021-01-01T09:31:14Z</time>
      </trkpt>
      <trkpt lat="43.63121" lon="3.81885">
        <ele>48</ele>
        <time>2021-01-01T09:31:16Z</time>
      </trkpt>
      <trkpt lat="43.63128" lon="3.81883">
        <ele>48</ele>
        <time>2021-01-01T09:31:18Z</time>
      </trkpt>
      <trkpt lat="43.63137" lon="3.81882">
        <ele>49</ele>
        <time>2021-01-01T09:31:20Z</time>
      </trkpt>
      <trkpt lat="43.63142" lon="3.81882">
        <ele>49</ele>
        <time>2021-01-01T09:31:21Z</time>
      </trkpt>
      <trkpt lat="43.63147" lon="3.81881">
        <ele>49</ele>
        <time>2021-01-01T09:31:22Z</time>
      </trkpt>
      <trkpt lat="43.63151" lon="3.8188">
        <ele>50</ele>
        <time>2021-01-01T09:31:23Z</time>
      </trkpt>
      <trkpt lat="43.63156" lon="3.81877">
        <ele>50</ele>
        <time>2021-01-01T09:31:24Z</time>
      </trkpt>
      <trkpt lat="43.6316" lon="3.81874">
        <ele>50</ele>
        <time>2021-01-01T09:31:25Z</time>
      </trkpt>
      <trkpt lat="43.63164" lon="3.81871">
        <ele>50</ele>
        <time>2021-01-01T09:31:26Z</time>
      </trkpt>
      <trkpt lat="43.6317" lon="3.81868">
        <ele>50</ele>
        <time>2021-01-01T09:31:27Z</time>
      </trkpt>
      <trkpt lat="43.63174" lon="3.81866">
        <ele>51</ele>
        <time>2021-01-01T09:31:28Z</time>
      </trkpt>
      <trkpt lat="43.6318" lon="3.81862">
        <ele>52</ele>
        <time>2021-01-01T09:31:30Z</time>
      </trkpt>
      <trkpt lat="43.63186" lon="3.81857">
        <ele>52</ele>
        <time>2021-01-01T09:31:31Z</time>
      </trkpt>
      <trkpt lat="43.63192" lon="3.81853">
        <ele>53</ele>
        <time>2021-01-01T09:31:32Z</time>
      </trkpt>
      <trkpt lat="43.63195" lon="3.81849">
        <ele>52</ele>
        <time>2021-01-01T09:31:33Z</time>
      </trkpt>
      <trkpt lat="43.63201" lon="3.81845">
        <ele>52</ele>
        <time>2021-01-01T09:31:34Z</time>
      </trkpt>
      <trkpt lat="43.63205" lon="3.8184">
        <ele>52</ele>
        <time>2021-01-01T09:31:35Z</time>
      </trkpt>
      <trkpt lat="43.63209" lon="3.81837">
        <ele>52</ele>
        <time>2021-01-01T09:31:36Z</time>
      </trkpt>
      <trkpt lat="43.63214" lon="3.81838">
        <ele>52</ele>
        <time>2021-01-01T09:31:37Z</time>
      </trkpt>
      <trkpt lat="43.6322" lon="3.81833">
        <ele>52</ele>
        <time>2021-01-01T09:31:39Z</time>
      </trkpt>
      <trkpt lat="43.63226" lon="3.81827">
        <ele>53</ele>
        <time>2021-01-01T09:31:41Z</time>
      </trkpt>
      <trkpt lat="43.63232" lon="3.81821">
        <ele>53</ele>
        <time>2021-01-01T09:31:43Z</time>
      </trkpt>
      <trkpt lat="43.63236" lon="3.81816">
        <ele>53</ele>
        <time>2021-01-01T09:31:44Z</time>
      </trkpt>
      <trkpt lat="43.6324" lon="3.81809">
        <ele>54</ele>
        <time>2021-01-01T09:31:46Z</time>
      </trkpt>
      <trkpt lat="43.63242" lon="3.81802">
        <ele>53</ele>
        <time>2021-01-01T09:31:49Z</time>
      </trkpt>
      <trkpt lat="43.63248" lon="3.81796">
        <ele>53</ele>
        <time>2021-01-01T09:31:52Z</time>
      </trkpt>
      <trkpt lat="43.63252" lon="3.81791">
        <ele>52</ele>
        <time>2021-01-01T09:31:54Z</time>
      </trkpt>
      <trkpt lat="43.63256" lon="3.81786">
        <ele>51</ele>
        <time>2021-01-01T09:31:57Z</time>
      </trkpt>
      <trkpt lat="43.63261" lon="3.81781">
        <ele>50</ele>
        <time>2021-01-01T09:31:59Z</time>
      </trkpt>
      <trkpt lat="43.63265" lon="3.81775">
        <ele>51</ele>
        <time>2021-01-01T09:32:01Z</time>
      </trkpt>
      <trkpt lat="43.63268" lon="3.8177">
        <ele>51</ele>
        <time>2021-01-01T09:32:03Z</time>
      </trkpt>
      <trkpt lat="43.63272" lon="3.81764">
        <ele>51</ele>
        <time>2021-01-01T09:32:05Z</time>
      </trkpt>
      <trkpt lat="43.63276" lon="3.81758">
        <ele>52</ele>
        <time>2021-01-01T09:32:08Z</time>
      </trkpt>
      <trkpt lat="43.6328" lon="3.81752">
        <ele>53</ele>
        <time>2021-01-01T09:32:11Z</time>
      </trkpt>
      <trkpt lat="43.63283" lon="3.81747">
        <ele>54</ele>
        <time>2021-01-01T09:32:13Z</time>
      </trkpt>
      <trkpt lat="43.63287" lon="3.81743">
        <ele>54</ele>
        <time>2021-01-01T09:32:15Z</time>
      </trkpt>
      <trkpt lat="43.63291" lon="3.81737">
        <ele>55</ele>
        <time>2021-01-01T09:32:17Z</time>
      </trkpt>
      <trkpt lat="43.63294" lon="3.8173">
        <ele>55</ele>
        <time>2021-01-01T09:32:20Z</time>
      </trkpt>
      <trkpt lat="43.63298" lon="3.81723">
        <ele>55</ele>
        <time>2021-01-01T09:32:23Z</time>
      </trkpt>
      <trkpt lat="43.63301" lon="3.81717">
        <ele>56</ele>
        <time>2021-01-01T09:32:26Z</time>
      </trkpt>
      <trkpt lat="43.63303" lon="3.8171">
        <ele>57</ele>
        <time>2021-01-01T09:32:29Z</time>
      </trkpt>
      <trkpt lat="43.63305" lon="3.81704">
        <ele>58</ele>
        <time>2021-01-01T09:32:32Z</time>
      </trkpt>
      <trkpt lat="43.63306" lon="3.81696">
        <ele>59</ele>
        <time>2021-01-01T09:32:36Z</time>
      </trkpt>
      <trkpt lat="43.63311" lon="3.81689">
        <ele>59</ele>
        <time>2021-01-01T09:32:39Z</time>
      </trkpt>
      <trkpt lat="43.63315" lon="3.81686">
        <ele>59</ele>
        <time>2021-01-01T09:32:41Z</time>
      </trkpt>
      <trkpt lat="43.6332" lon="3.81685">
        <ele>60</ele>
        <time>2021-01-01T09:32:43Z</time>
      </trkpt>
      <trkpt lat="43.63326" lon="3.81683">
        <ele>60</ele>
        <time>2021-01-01T09:32:46Z</time>
      </trkpt>
      <trkpt lat="43.63331" lon="3.81681">
        <ele>61</ele>
        <time>2021-01-01T09:32:49Z</time>
      </trkpt>
      <trkpt lat="43.63335" lon="3.81676">
        <ele>62</ele>
        <time>2021-01-01T09:32:52Z</time>
      </trkpt>
      <trkpt lat="43.6334" lon="3.81677">
        <ele>63</ele>
        <time>2021-01-01T09:32:56Z</time>
      </trkpt>
      <trkpt lat="43.63345" lon="3.81677">
        <ele>65</ele>
        <time>2021-01-01T09:33:00Z</time>
      </trkpt>
      <trkpt lat="43.63348" lon="3.81672">
        <ele>66</ele>
        <time>2021-01-01T09:33:03Z</time>
      </trkpt>
      <trkpt lat="43.63352" lon="3.81666">
        <ele>68</ele>
        <time>2021-01-01T09:33:07Z</time>
      </trkpt>
      <trkpt lat="43.63356" lon="3.81661">
        <ele>69</ele>
        <time>2021-01-01T09:33:10Z</time>
      </trkpt>
      <trkpt lat="43.6336" lon="3.81657">
        <ele>71</ele>
        <time>2021-01-01T09:33:13Z</time>
      </trkpt>
      <trkpt lat="43.63364" lon="3.81653">
        <ele>73</ele>
        <time>2021-01-01T09:33:16Z</time>
      </trkpt>
      <trkpt lat="43.63369" lon="3.81651">
        <ele>74</ele>
        <time>2021-01-01T09:33:19Z</time>
      </trkpt>
      <trkpt lat="43.63374" lon="3.81649">
        <ele>75</ele>
        <time>2021-01-01T09:33:22Z</time>
      </trkpt>
      <trkpt lat="43.6338" lon="3.81648">
        <ele>76</ele>
        <time>2021-01-01T09:33:25Z</time>
      </trkpt>
      <trkpt lat="43.63385" lon="3.81648">
        <ele>77</ele>
        <time>2021-01-01T09:33:28Z</time>
      </trkpt>
      <trkpt lat="43.63391" lon="3.81649">
        <ele>77</ele>
        <time>2021-01-01T09:33:31Z</time>
      </trkpt>
      <trkpt lat="43.63397" lon="3.81649">
        <ele>77</ele>
        <time>2021-01-01T09:33:34Z</time>
      </trkpt>
      <trkpt lat="43.63402" lon="3.81649">
        <ele>76</ele>
        <time>2021-01-01T09:33:40Z</time>
      </trkpt>
      <trkpt lat="43.63409" lon="3.8165">
        <ele>76</ele>
        <time>2021-01-01T09:33:42Z</time>
      </trkpt>
      <trkpt lat="43.63417" lon="3.81651">
        <ele>76</ele>
        <time>2021-01-01T09:33:44Z</time>
      </trkpt>
      <trkpt lat="43.63422" lon="3.81653">
        <ele>76</ele>
        <time>2021-01-01T09:33:46Z</time>
      </trkpt>
      <trkpt lat="43.63427" lon="3.81657">
        <ele>76</ele>
        <time>2021-01-01T09:33:50Z</time>
      </trkpt>
      <trkpt lat="43.63433" lon="3.81659">
        <ele>77</ele>
        <time>2021-01-01T09:33:53Z</time>
      </trkpt>
      <trkpt lat="43.63438" lon="3.81654">
        <ele>76</ele>
        <time>2021-01-01T09:34:00Z</time>
      </trkpt>
      <trkpt lat="43.63442" lon="3.81647">
        <ele>76</ele>
        <time>2021-01-01T09:34:02Z</time>
      </trkpt>
      <trkpt lat="43.63448" lon="3.81641">
        <ele>75</ele>
        <time>2021-01-01T09:34:04Z</time>
      </trkpt>
      <trkpt lat="43.63454" lon="3.81635">
        <ele>74</ele>
        <time>2021-01-01T09:34:06Z</time>
      </trkpt>
      <trkpt lat="43.63461" lon="3.81629">
        <ele>73</ele>
        <time>2021-01-01T09:34:08Z</time>
      </trkpt>
      <trkpt lat="43.63467" lon="3.81623">
        <ele>73</ele>
        <time>2021-01-01T09:34:10Z</time>
      </trkpt>
      <trkpt lat="43.63474" lon="3.81618">
        <ele>73</ele>
        <time>2021-01-01T09:34:12Z</time>
      </trkpt>
      <trkpt lat="43.6348" lon="3.81612">
        <ele>73</ele>
        <time>2021-01-01T09:34:14Z</time>
      </trkpt>
      <trkpt lat="43.63487" lon="3.81609">
        <ele>73</ele>
        <time>2021-01-01T09:34:16Z</time>
      </trkpt>
      <trkpt lat="43.63491" lon="3.81608">
        <ele>73</ele>
        <time>2021-01-01T09:34:20Z</time>
      </trkpt>
      <trkpt lat="43.63498" lon="3.81606">
        <ele>73</ele>
        <time>2021-01-01T09:34:22Z</time>
      </trkpt>
      <trkpt lat="43.63503" lon="3.81605">
        <ele>73</ele>
        <time>2021-01-01T09:34:24Z</time>
      </trkpt>
      <trkpt lat="43.63509" lon="3.81605">
        <ele>73</ele>
        <time>2021-01-01T09:34:26Z</time>
      </trkpt>
      <trkpt lat="43.63514" lon="3.81606">
        <ele>72</ele>
        <time>2021-01-01T09:34:28Z</time>
      </trkpt>
      <trkpt lat="43.6352" lon="3.81607">
        <ele>73</ele>
        <time>2021-01-01T09:34:31Z</time>
      </trkpt>
      <trkpt lat="43.63525" lon="3.81607">
        <ele>74</ele>
        <time>2021-01-01T09:34:35Z</time>
      </trkpt>
      <trkpt lat="43.6353" lon="3.8161">
        <ele>74</ele>
        <time>2021-01-01T09:34:46Z</time>
      </trkpt>
      <trkpt lat="43.63534" lon="3.81607">
        <ele>75</ele>
        <time>2021-01-01T09:34:51Z</time>
      </trkpt>
      <trkpt lat="43.63539" lon="3.81606">
        <ele>76</ele>
        <time>2021-01-01T09:35:10Z</time>
      </trkpt>
      <trkpt lat="43.63545" lon="3.81607">
        <ele>76</ele>
        <time>2021-01-01T09:35:13Z</time>
      </trkpt>
      <trkpt lat="43.63551" lon="3.81609">
        <ele>77</ele>
        <time>2021-01-01T09:35:16Z</time>
      </trkpt>
      <trkpt lat="43.63557" lon="3.8161">
        <ele>78</ele>
        <time>2021-01-01T09:35:19Z</time>
      </trkpt>
      <trkpt lat="43.63563" lon="3.81614">
        <ele>79</ele>
        <time>2021-01-01T09:35:22Z</time>
      </trkpt>
      <trkpt lat="43.63567" lon="3.81616">
        <ele>80</ele>
        <time>2021-01-01T09:35:24Z</time>
      </trkpt>
      <trkpt lat="43.63572" lon="3.81619">
        <ele>80</ele>
        <time>2021-01-01T09:35:27Z</time>
      </trkpt>
      <trkpt lat="43.63575" lon="3.81623">
        <ele>80</ele>
        <time>2021-01-01T09:35:29Z</time>
      </trkpt>
      <trkpt lat="43.63578" lon="3.81629">
        <ele>81</ele>
        <time>2021-01-01T09:35:31Z</time>
      </trkpt>
      <trkpt lat="43.63582" lon="3.81635">
        <ele>80</ele>
        <time>2021-01-01T09:35:33Z</time>
      </trkpt>
      <trkpt lat="43.63585" lon="3.8164">
        <ele>80</ele>
        <time>2021-01-01T09:35:35Z</time>
      </trkpt>
      <trkpt lat="43.63591" lon="3.81645">
        <ele>80</ele>
        <time>2021-01-01T09:35:38Z</time>
      </trkpt>
      <trkpt lat="43.63598" lon="3.81649">
        <ele>80</ele>
        <time>2021-01-01T09:35:41Z</time>
      </trkpt>
      <trkpt lat="43.63602" lon="3.81652">
        <ele>80</ele>
        <time>2021-01-01T09:35:43Z</time>
      </trkpt>
      <trkpt lat="43.63609" lon="3.81654">
        <ele>80</ele>
        <time>2021-01-01T09:35:45Z</time>
      </trkpt>
      <trkpt lat="43.63613" lon="3.81655">
        <ele>80</ele>
        <time>2021-01-01T09:35:46Z</time>
      </trkpt>
      <trkpt lat="43.6362" lon="3.81656">
        <ele>81</ele>
        <time>2021-01-01T09:35:48Z</time>
      </trkpt>
      <trkpt lat="43.63627" lon="3.81657">
        <ele>82</ele>
        <time>2021-01-01T09:35:50Z</time>
      </trkpt>
      <trkpt lat="43.63631" lon="3.81658">
        <ele>83</ele>
        <time>2021-01-01T09:35:52Z</time>
      </trkpt>
      <trkpt lat="43.63638" lon="3.81659">
        <ele>83</ele>
        <time>2021-01-01T09:35:55Z</time>
      </trkpt>
      <trkpt lat="43.63643" lon="3.81659">
        <ele>84</ele>
        <time>2021-01-01T09:35:57Z</time>
      </trkpt>
      <trkpt lat="43.63648" lon="3.81661">
        <ele>85</ele>
        <time>2021-01-01T09:35:59Z</time>
      </trkpt>
      <trkpt lat="43.63652" lon="3.81663">
        <ele>85</ele>
        <time>2021-01-01T09:36:01Z</time>
      </trkpt>
      <trkpt lat="43.63658" lon="3.81666">
        <ele>86</ele>
        <time>2021-01-01T09:36:05Z</time>
      </trkpt>
      <trkpt lat="43.63664" lon="3.81668">
        <ele>87</ele>
        <time>2021-01-01T09:36:09Z</time>
      </trkpt>
      <trkpt lat="43.63668" lon="3.81672">
        <ele>87</ele>
        <time>2021-01-01T09:36:12Z</time>
      </trkpt>
      <trkpt lat="43.63673" lon="3.81674">
        <ele>88</ele>
        <time>2021-01-01T09:36:25Z</time>
      </trkpt>
      <trkpt lat="43.63677" lon="3.81677">
        <ele>89</ele>
        <time>2021-01-01T09:36:29Z</time>
      </trkpt>
      <trkpt lat="43.63678" lon="3.81671">
        <ele>89</ele>
        <time>2021-01-01T09:36:38Z</time>
      </trkpt>
      <trkpt lat="43.63682" lon="3.81668">
        <ele>89</ele>
        <time>2021-01-01T09:36:41Z</time>
      </trkpt>
      <trkpt lat="43.63687" lon="3.81665">
        <ele>89</ele>
        <time>2021-01-01T09:36:44Z</time>
      </trkpt>
      <trkpt lat="43.63691" lon="3.81662">
        <ele>88</ele>
        <time>2021-01-01T09:36:48Z</time>
      </trkpt>
      <trkpt lat="43.63697" lon="3.81662">
        <ele>87</ele>
        <time>2021-01-01T09:36:52Z</time>
      </trkpt>
      <trkpt lat="43.63703" lon="3.81665">
        <ele>86</ele>
        <time>2021-01-01T09:36:55Z</time>
      </trkpt>
      <trkpt lat="43.63709" lon="3.81667">
        <ele>86</ele>
        <time>2021-01-01T09:36:57Z</time>
      </trkpt>
      <trkpt lat="43.63715" lon="3.81669">
        <ele>85</ele>
        <time>2021-01-01T09:36:59Z</time>
      </trkpt>
      <trkpt lat="43.63722" lon="3.81672">
        <ele>85</ele>
        <time>2021-01-01T09:37:01Z</time>
      </trkpt>
      <trkpt lat="43.6373" lon="3.81674">
        <ele>85</ele>
        <time>2021-01-01T09:37:03Z</time>
      </trkpt>
      <trkpt lat="43.63737" lon="3.81675">
        <ele>85</ele>
        <time>2021-01-01T09:37:05Z</time>
      </trkpt>
      <trkpt lat="43.63742" lon="3.81676">
        <ele>85</ele>
        <time>2021-01-01T09:37:07Z</time>
      </trkpt>
      <trkpt lat="43.63747" lon="3.81679">
        <ele>85</ele>
        <time>2021-01-01T09:37:09Z</time>
      </trkpt>
      <trkpt lat="43.63753" lon="3.8168">
        <ele>85</ele>
        <time>2021-01-01T09:37:11Z</time>
      </trkpt>
      <trkpt lat="43.63759" lon="3.8168">
        <ele>85</ele>
        <time>2021-01-01T09:37:13Z</time>
      </trkpt>
      <trkpt lat="43.63764" lon="3.81681">
        <ele>85</ele>
        <time>2021-01-01T09:37:16Z</time>
      </trkpt>
      <trkpt lat="43.63769" lon="3.81683">
        <ele>85</ele>
        <time>2021-01-01T09:37:17Z</time>
      </trkpt>
      <trkpt lat="43.63776" lon="3.81685">
        <ele>86</ele>
        <time>2021-01-01T09:37:18Z</time>
      </trkpt>
      <trkpt lat="43.63784" lon="3.81688">
        <ele>86</ele>
        <time>2021-01-01T09:37:20Z</time>
      </trkpt>
      <trkpt lat="43.63792" lon="3.8169">
        <ele>86</ele>
        <time>2021-01-01T09:37:22Z</time>
      </trkpt>
      <trkpt lat="43.638" lon="3.81694">
        <ele>87</ele>
        <time>2021-01-01T09:37:24Z</time>
      </trkpt>
      <trkpt lat="43.63805" lon="3.81697">
        <ele>87</ele>
        <time>2021-01-01T09:37:25Z</time>
      </trkpt>
      <trkpt lat="43.6381" lon="3.817">
        <ele>88</ele>
        <time>2021-01-01T09:37:26Z</time>
      </trkpt>
      <trkpt lat="43.63814" lon="3.81702">
        <ele>88</ele>
        <time>2021-01-01T09:37:27Z</time>
      </trkpt>
      <trkpt lat="43.63821" lon="3.81708">
        <ele>89</ele>
        <time>2021-01-01T09:37:29Z</time>
      </trkpt>
      <trkpt lat="43.63829" lon="3.81713">
        <ele>89</ele>
        <time>2021-01-01T09:37:31Z</time>
      </trkpt>
      <trkpt lat="43.63837" lon="3.81715">
        <ele>90</ele>
        <time>2021-01-01T09:37:33Z</time>
      </trkpt>
      <trkpt lat="43.63845" lon="3.8172">
        <ele>90</ele>
        <time>2021-01-01T09:37:35Z</time>
      </trkpt>
      <trkpt lat="43.63853" lon="3.81725">
        <ele>90</ele>
        <time>2021-01-01T09:37:37Z</time>
      </trkpt>
      <trkpt lat="43.6386" lon="3.8173">
        <ele>90</ele>
        <time>2021-01-01T09:37:39Z</time>
      </trkpt>
      <trkpt lat="43.63866" lon="3.81735">
        <ele>90</ele>
        <time>2021-01-01T09:37:41Z</time>
      </trkpt>
      <trkpt lat="43.6387" lon="3.81737">
        <ele>91</ele>
        <time>2021-01-01T09:37:43Z</time>
      </trkpt>
      <trkpt lat="43.63874" lon="3.8173">
        <ele>91</ele>
        <time>2021-01-01T09:37:46Z</time>
      </trkpt>
      <trkpt lat="43.63876" lon="3.81724">
        <ele>91</ele>
        <time>2021-01-01T09:37:49Z</time>
      </trkpt>
      <trkpt lat="43.63873" lon="3.81727">
        <ele>91</ele>
        <time>2021-01-01T09:37:57Z</time>
      </trkpt>
      <trkpt lat="43.63871" lon="3.81735">
        <ele>90</ele>
        <time>2021-01-01T09:38:00Z</time>
      </trkpt>
      <trkpt lat="43.63873" lon="3.81741">
        <ele>89</ele>
        <time>2021-01-01T09:38:02Z</time>
      </trkpt>
      <trkpt lat="43.6388" lon="3.81741">
        <ele>89</ele>
        <time>2021-01-01T09:38:04Z</time>
      </trkpt>
      <trkpt lat="43.63887" lon="3.8174">
        <ele>88</ele>
        <time>2021-01-01T09:38:06Z</time>
      </trkpt>
      <trkpt lat="43.63893" lon="3.81738">
        <ele>87</ele>
        <time>2021-01-01T09:38:07Z</time>
      </trkpt>
      <trkpt lat="43.63897" lon="3.81736">
        <ele>88</ele>
        <time>2021-01-01T09:38:08Z</time>
      </trkpt>
      <trkpt lat="43.63902" lon="3.81726">
        <ele>88</ele>
        <time>2021-01-01T09:38:10Z</time>
      </trkpt>
      <trkpt lat="43.639" lon="3.81716">
        <ele>88</ele>
        <time>2021-01-01T09:38:12Z</time>
      </trkpt>
      <trkpt lat="43.63897" lon="3.81706">
        <ele>88</ele>
        <time>2021-01-01T09:38:14Z</time>
      </trkpt>
      <trkpt lat="43.63895" lon="3.817">
        <ele>88</ele>
        <time>2021-01-01T09:38:15Z</time>
      </trkpt>
      <trkpt lat="43.63894" lon="3.81693">
        <ele>88</ele>
        <time>2021-01-01T09:38:16Z</time>
      </trkpt>
      <trkpt lat="43.63893" lon="3.81686">
        <ele>88</ele>
        <time>2021-01-01T09:38:17Z</time>
      </trkpt>
      <trkpt lat="43.63895" lon="3.81675">
        <ele>88</ele>
        <time>2021-01-01T09:38:19Z</time>
      </trkpt>
      <trkpt lat="43.639" lon="3.81666">
        <ele>88</ele>
        <time>2021-01-01T09:38:21Z</time>
      </trkpt>
      <trkpt lat="43.63907" lon="3.81658">
        <ele>89</ele>
        <time>2021-01-01T09:38:23Z</time>
      </trkpt>
      <trkpt lat="43.63913" lon="3.81651">
        <ele>89</ele>
        <time>2021-01-01T09:38:25Z</time>
      </trkpt>
      <trkpt lat="43.63921" lon="3.81646">
        <ele>90</ele>
        <time>2021-01-01T09:38:27Z</time>
      </trkpt>
      <trkpt lat="43.63928" lon="3.81641">
        <ele>90</ele>
        <time>2021-01-01T09:38:29Z</time>
      </trkpt>
      <trkpt lat="43.63937" lon="3.81637">
        <ele>90</ele>
        <time>2021-01-01T09:38:31Z</time>
      </trkpt>
      <trkpt lat="43.63944" lon="3.81632">
        <ele>90</ele>
        <time>2021-01-01T09:38:33Z</time>
      </trkpt>
      <trkpt lat="43.6395" lon="3.81626">
        <ele>89</ele>
        <time>2021-01-01T09:38:35Z</time>
      </trkpt>
      <trkpt lat="43.63957" lon="3.81621">
        <ele>88</ele>
        <time>2021-01-01T09:38:37Z</time>
      </trkpt>
      <trkpt lat="43.63963" lon="3.81613">
        <ele>87</ele>
        <time>2021-01-01T09:38:39Z</time>
      </trkpt>
      <trkpt lat="43.63968" lon="3.81606">
        <ele>86</ele>
        <time>2021-01-01T09:38:41Z</time>
      </trkpt>
      <trkpt lat="43.63974" lon="3.81599">
        <ele>85</ele>
        <time>2021-01-01T09:38:43Z</time>
      </trkpt>
      <trkpt lat="43.6398" lon="3.81592">
        <ele>85</ele>
        <time>2021-01-01T09:38:45Z</time>
      </trkpt>
      <trkpt lat="43.63985" lon="3.81586">
        <ele>84</ele>
        <time>2021-01-01T09:38:47Z</time>
      </trkpt>
      <trkpt lat="43.63989" lon="3.81581">
        <ele>83</ele>
        <time>2021-01-01T09:38:49Z</time>
      </trkpt>
      <trkpt lat="43.63989" lon="3.81574">
        <ele>83</ele>
        <time>2021-01-01T09:38:53Z</time>
      </trkpt>
      <trkpt lat="43.63979" lon="3.81561">
        <ele>82</ele>
        <time>2021-01-01T09:38:55Z</time>
      </trkpt>
      <trkpt lat="43.63974" lon="3.81561">
        <ele>81</ele>
        <time>2021-01-01T09:38:56Z</time>
      </trkpt>
      <trkpt lat="43.63969" lon="3.8156">
        <ele>80</ele>
        <time>2021-01-01T09:38:57Z</time>
      </trkpt>
      <trkpt lat="43.63965" lon="3.8156">
        <ele>80</ele>
        <time>2021-01-01T09:38:58Z</time>
      </trkpt>
      <trkpt lat="43.6396" lon="3.81561">
        <ele>80</ele>
        <time>2021-01-01T09:38:59Z</time>
      </trkpt>
      <trkpt lat="43.63955" lon="3.81561">
        <ele>80</ele>
        <time>2021-01-01T09:39:00Z</time>
      </trkpt>
      <trkpt lat="43.6395" lon="3.81561">
        <ele>81</ele>
        <time>2021-01-01T09:39:01Z</time>
      </trkpt>
      <trkpt lat="43.63943" lon="3.81562">
        <ele>81</ele>
        <time>2021-01-01T09:39:03Z</time>
      </trkpt>
      <trkpt lat="43.63936" lon="3.81563">
        <ele>81</ele>
        <time>2021-01-01T09:39:05Z</time>
      </trkpt>
      <trkpt lat="43.6393" lon="3.81565">
        <ele>81</ele>
        <time>2021-01-01T09:39:09Z</time>
      </trkpt>
      <trkpt lat="43.63918" lon="3.81574">
        <ele>81</ele>
        <time>2021-01-01T09:39:10Z</time>
      </trkpt>
      <trkpt lat="43.63911" lon="3.8158">
        <ele>82</ele>
        <time>2021-01-01T09:39:12Z</time>
      </trkpt>
      <trkpt lat="43.63902" lon="3.81585">
        <ele>82</ele>
        <time>2021-01-01T09:39:14Z</time>
      </trkpt>
      <trkpt lat="43.63898" lon="3.81587">
        <ele>83</ele>
        <time>2021-01-01T09:39:15Z</time>
      </trkpt>
      <trkpt lat="43.63891" lon="3.81591">
        <ele>84</ele>
        <time>2021-01-01T09:39:17Z</time>
      </trkpt>
      <trkpt lat="43.63884" lon="3.81596">
        <ele>85</ele>
        <time>2021-01-01T09:39:19Z</time>
      </trkpt>
      <trkpt lat="43.63876" lon="3.81601">
        <ele>85</ele>
        <time>2021-01-01T09:39:21Z</time>
      </trkpt>
      <trkpt lat="43.6387" lon="3.81603">
        <ele>85</ele>
        <time>2021-01-01T09:39:22Z</time>
      </trkpt>
      <trkpt lat="43.63864" lon="3.81606">
        <ele>85</ele>
        <time>2021-01-01T09:39:24Z</time>
      </trkpt>
      <trkpt lat="43.63857" lon="3.8161">
        <ele>85</ele>
        <time>2021-01-01T09:39:26Z</time>
      </trkpt>
      <trkpt lat="43.63847" lon="3.81612">
        <ele>85</ele>
        <time>2021-01-01T09:39:28Z</time>
      </trkpt>
      <trkpt lat="43.63841" lon="3.81613">
        <ele>85</ele>
        <time>2021-01-01T09:39:29Z</time>
      </trkpt>
      <trkpt lat="43.63836" lon="3.81613">
        <ele>84</ele>
        <time>2021-01-01T09:39:30Z</time>
      </trkpt>
      <trkpt lat="43.6383" lon="3.81613">
        <ele>84</ele>
        <time>2021-01-01T09:39:31Z</time>
      </trkpt>
      <trkpt lat="43.63824" lon="3.81609">
        <ele>83</ele>
        <time>2021-01-01T09:39:33Z</time>
      </trkpt>
      <trkpt lat="43.6382" lon="3.81608">
        <ele>83</ele>
        <time>2021-01-01T09:39:34Z</time>
      </trkpt>
      <trkpt lat="43.63815" lon="3.81605">
        <ele>82</ele>
        <time>2021-01-01T09:39:35Z</time>
      </trkpt>
      <trkpt lat="43.63808" lon="3.81603">
        <ele>82</ele>
        <time>2021-01-01T09:39:36Z</time>
      </trkpt>
      <trkpt lat="43.63804" lon="3.816">
        <ele>82</ele>
        <time>2021-01-01T09:39:37Z</time>
      </trkpt>
      <trkpt lat="43.63795" lon="3.81596">
        <ele>81</ele>
        <time>2021-01-01T09:39:39Z</time>
      </trkpt>
      <trkpt lat="43.6379" lon="3.81593">
        <ele>80</ele>
        <time>2021-01-01T09:39:40Z</time>
      </trkpt>
      <trkpt lat="43.63785" lon="3.8159">
        <ele>80</ele>
        <time>2021-01-01T09:39:41Z</time>
      </trkpt>
      <trkpt lat="43.6378" lon="3.81587">
        <ele>80</ele>
        <time>2021-01-01T09:39:42Z</time>
      </trkpt>
      <trkpt lat="43.63775" lon="3.81585">
        <ele>81</ele>
        <time>2021-01-01T09:39:43Z</time>
      </trkpt>
      <trkpt lat="43.63771" lon="3.81581">
        <ele>81</ele>
        <time>2021-01-01T09:39:44Z</time>
      </trkpt>
      <trkpt lat="43.63763" lon="3.81576">
        <ele>81</ele>
        <time>2021-01-01T09:39:46Z</time>
      </trkpt>
      <trkpt lat="43.63754" lon="3.81572">
        <ele>81</ele>
        <time>2021-01-01T09:39:48Z</time>
      </trkpt>
      <trkpt lat="43.63749" lon="3.81569">
        <ele>80</ele>
        <time>2021-01-01T09:39:49Z</time>
      </trkpt>
      <trkpt lat="43.63744" lon="3.81567">
        <ele>79</ele>
        <time>2021-01-01T09:39:50Z</time>
      </trkpt>
      <trkpt lat="43.63738" lon="3.81566">
        <ele>73</ele>
        <time>2021-01-01T09:39:51Z</time>
      </trkpt>
      <trkpt lat="43.63734" lon="3.81566">
        <ele>68</ele>
        <time>2021-01-01T09:39:52Z</time>
      </trkpt>
      <trkpt lat="43.63729" lon="3.81567">
        <ele>65</ele>
        <time>2021-01-01T09:39:53Z</time>
      </trkpt>
      <trkpt lat="43.63724" lon="3.81567">
        <ele>62</ele>
        <time>2021-01-01T09:39:54Z</time>
      </trkpt>
      <trkpt lat="43.63717" lon="3.81564">
        <ele>61</ele>
        <time>2021-01-01T09:39:56Z</time>
      </trkpt>
      <trkpt lat="43.63712" lon="3.81563">
        <ele>66</ele>
        <time>2021-01-01T09:39:57Z</time>
      </trkpt>
      <trkpt lat="43.63706" lon="3.81563">
        <ele>70</ele>
        <time>2021-01-01T09:39:58Z</time>
      </trkpt>
      <trkpt lat="43.63702" lon="3.81563">
        <ele>73</ele>
        <time>2021-01-01T09:39:59Z</time>
      </trkpt>
      <trkpt lat="43.63696" lon="3.81562">
        <ele>75</ele>
        <time>2021-01-01T09:40:00Z</time>
      </trkpt>
      <trkpt lat="43.63691" lon="3.81562">
        <ele>75</ele>
        <time>2021-01-01T09:40:01Z</time>
      </trkpt>
      <trkpt lat="43.63686" lon="3.8156">
        <ele>75</ele>
        <time>2021-01-01T09:40:02Z</time>
      </trkpt>
      <trkpt lat="43.6368" lon="3.8156">
        <ele>75</ele>
        <time>2021-01-01T09:40:03Z</time>
      </trkpt>
      <trkpt lat="43.63675" lon="3.81558">
        <ele>75</ele>
        <time>2021-01-01T09:40:04Z</time>
      </trkpt>
      <trkpt lat="43.63669" lon="3.81554">
        <ele>75</ele>
        <time>2021-01-01T09:40:05Z</time>
      </trkpt>
      <trkpt lat="43.63664" lon="3.81555">
        <ele>75</ele>
        <time>2021-01-01T09:40:06Z</time>
      </trkpt>
      <trkpt lat="43.63655" lon="3.81555">
        <ele>75</ele>
        <time>2021-01-01T09:40:08Z</time>
      </trkpt>
      <trkpt lat="43.63648" lon="3.81556">
        <ele>74</ele>
        <time>2021-01-01T09:40:10Z</time>
      </trkpt>
      <trkpt lat="43.63643" lon="3.8155">
        <ele>74</ele>
        <time>2021-01-01T09:40:13Z</time>
      </trkpt>
      <trkpt lat="43.63639" lon="3.81546">
        <ele>74</ele>
        <time>2021-01-01T09:40:16Z</time>
      </trkpt>
      <trkpt lat="43.63634" lon="3.81546">
        <ele>72</ele>
        <time>2021-01-01T09:40:19Z</time>
      </trkpt>
      <trkpt lat="43.63629" lon="3.8154">
        <ele>71</ele>
        <time>2021-01-01T09:40:22Z</time>
      </trkpt>
      <trkpt lat="43.63625" lon="3.81535">
        <ele>70</ele>
        <time>2021-01-01T09:40:24Z</time>
      </trkpt>
      <trkpt lat="43.6362" lon="3.81528">
        <ele>70</ele>
        <time>2021-01-01T09:40:26Z</time>
      </trkpt>
      <trkpt lat="43.63614" lon="3.81518">
        <ele>71</ele>
        <time>2021-01-01T09:40:28Z</time>
      </trkpt>
      <trkpt lat="43.63609" lon="3.81511">
        <ele>73</ele>
        <time>2021-01-01T09:40:30Z</time>
      </trkpt>
      <trkpt lat="43.63604" lon="3.81503">
        <ele>75</ele>
        <time>2021-01-01T09:40:32Z</time>
      </trkpt>
      <trkpt lat="43.63599" lon="3.81496">
        <ele>76</ele>
        <time>2021-01-01T09:40:34Z</time>
      </trkpt>
      <trkpt lat="43.63596" lon="3.8149">
        <ele>77</ele>
        <time>2021-01-01T09:40:36Z</time>
      </trkpt>
      <trkpt lat="43.63588" lon="3.81483">
        <ele>78</ele>
        <time>2021-01-01T09:40:39Z</time>
      </trkpt>
      <trkpt lat="43.63583" lon="3.81475">
        <ele>78</ele>
        <time>2021-01-01T09:40:40Z</time>
      </trkpt>
      <trkpt lat="43.63577" lon="3.81472">
        <ele>78</ele>
        <time>2021-01-01T09:40:42Z</time>
      </trkpt>
      <trkpt lat="43.63569" lon="3.8147">
        <ele>78</ele>
        <time>2021-01-01T09:40:44Z</time>
      </trkpt>
      <trkpt lat="43.63562" lon="3.81467">
        <ele>78</ele>
        <time>2021-01-01T09:40:46Z</time>
      </trkpt>
      <trkpt lat="43.63556" lon="3.81463">
        <ele>78</ele>
        <time>2021-01-01T09:40:48Z</time>
      </trkpt>
      <trkpt lat="43.6355" lon="3.81461">
        <ele>78</ele>
        <time>2021-01-01T09:40:51Z</time>
      </trkpt>
      <trkpt lat="43.63544" lon="3.8146">
        <ele>77</ele>
        <time>2021-01-01T09:40:53Z</time>
      </trkpt>
      <trkpt lat="43.63536" lon="3.81458">
        <ele>77</ele>
        <time>2021-01-01T09:40:55Z</time>
      </trkpt>
      <trkpt lat="43.63527" lon="3.81456">
        <ele>76</ele>
        <time>2021-01-01T09:40:57Z</time>
      </trkpt>
      <trkpt lat="43.63522" lon="3.81455">
        <ele>76</ele>
        <time>2021-01-01T09:40:58Z</time>
      </trkpt>
      <trkpt lat="43.63517" lon="3.81453">
        <ele>75</ele>
        <time>2021-01-01T09:40:59Z</time>
      </trkpt>
      <trkpt lat="43.63513" lon="3.81451">
        <ele>75</ele>
        <time>2021-01-01T09:41:00Z</time>
      </trkpt>
      <trkpt lat="43.63508" lon="3.81449">
        <ele>74</ele>
        <time>2021-01-01T09:41:01Z</time>
      </trkpt>
      <trkpt lat="43.63503" lon="3.81449">
        <ele>74</ele>
        <time>2021-01-01T09:41:02Z</time>
      </trkpt>
      <trkpt lat="43.63495" lon="3.8145">
        <ele>74</ele>
        <time>2021-01-01T09:41:04Z</time>
      </trkpt>
      <trkpt lat="43.63488" lon="3.81447">
        <ele>73</ele>
        <time>2021-01-01T09:41:06Z</time>
      </trkpt>
      <trkpt lat="43.63481" lon="3.81443">
        <ele>73</ele>
        <time>2021-01-01T09:41:08Z</time>
      </trkpt>
      <trkpt lat="43.63474" lon="3.81439">
        <ele>73</ele>
        <time>2021-01-01T09:41:10Z</time>
      </trkpt>
      <trkpt lat="43.63469" lon="3.81432">
        <ele>74</ele>
        <time>2021-01-01T09:41:12Z</time>
      </trkpt>
      <trkpt lat="43.63465" lon="3.81425">
        <ele>73</ele>
        <time>2021-01-01T09:41:14Z</time>
      </trkpt>
      <trkpt lat="43.63462" lon="3.81419">
        <ele>73</ele>
        <time>2021-01-01T09:41:16Z</time>
      </trkpt>
      <trkpt lat="43.63456" lon="3.81417">
        <ele>73</ele>
        <time>2021-01-01T09:41:18Z</time>
      </trkpt>
      <trkpt lat="43.63452" lon="3.81412">
        <ele>73</ele>
        <time>2021-01-01T09:41:21Z</time>
      </trkpt>
      <trkpt lat="43.63446" lon="3.81408">
        <ele>72</ele>
        <time>2021-01-01T09:41:24Z</time>
      </trkpt>
      <trkpt lat="43.6344" lon="3.81411">
        <ele>72</ele>
        <time>2021-01-01T09:41:33Z</time>
      </trkpt>
      <trkpt lat="43.63435" lon="3.81412">
        <ele>72</ele>
        <time>2021-01-01T09:41:36Z</time>
      </trkpt>
      <trkpt lat="43.63431" lon="3.81416">
        <ele>72</ele>
        <time>2021-01-01T09:41:39Z</time>
      </trkpt>
      <trkpt lat="43.63427" lon="3.81421">
        <ele>71</ele>
        <time>2021-01-01T09:41:42Z</time>
      </trkpt>
      <trkpt lat="43.63424" lon="3.81426">
        <ele>70</ele>
        <time>2021-01-01T09:41:44Z</time>
      </trkpt>
      <trkpt lat="43.63421" lon="3.81431">
        <ele>70</ele>
        <time>2021-01-01T09:41:47Z</time>
      </trkpt>
      <trkpt lat="43.63414" lon="3.81433">
        <ele>68</ele>
        <time>2021-01-01T09:41:50Z</time>
      </trkpt>
      <trkpt lat="43.63408" lon="3.81437">
        <ele>67</ele>
        <time>2021-01-01T09:41:53Z</time>
      </trkpt>
      <trkpt lat="43.63403" lon="3.81439">
        <ele>66</ele>
        <time>2021-01-01T09:41:55Z</time>
      </trkpt>
      <trkpt lat="43.63396" lon="3.81442">
        <ele>65</ele>
        <time>2021-01-01T09:41:58Z</time>
      </trkpt>
      <trkpt lat="43.63389" lon="3.81444">
        <ele>64</ele>
        <time>2021-01-01T09:42:00Z</time>
      </trkpt>
      <trkpt lat="43.63385" lon="3.81447">
        <ele>62</ele>
        <time>2021-01-01T09:42:02Z</time>
      </trkpt>
      <trkpt lat="43.63378" lon="3.81449">
        <ele>61</ele>
        <time>2021-01-01T09:42:04Z</time>
      </trkpt>
      <trkpt lat="43.63373" lon="3.8145">
        <ele>60</ele>
        <time>2021-01-01T09:42:05Z</time>
      </trkpt>
      <trkpt lat="43.63366" lon="3.81453">
        <ele>59</ele>
        <time>2021-01-01T09:42:06Z</time>
      </trkpt>
      <trkpt lat="43.63362" lon="3.81456">
        <ele>58</ele>
        <time>2021-01-01T09:42:07Z</time>
      </trkpt>
      <trkpt lat="43.63355" lon="3.81459">
        <ele>57</ele>
        <time>2021-01-01T09:42:09Z</time>
      </trkpt>
      <trkpt lat="43.63351" lon="3.81465">
        <ele>56</ele>
        <time>2021-01-01T09:42:13Z</time>
      </trkpt>
      <trkpt lat="43.63353" lon="3.81473">
        <ele>55</ele>
        <time>2021-01-01T09:42:15Z</time>
      </trkpt>
      <trkpt lat="43.63354" lon="3.81481">
        <ele>54</ele>
        <time>2021-01-01T09:42:17Z</time>
      </trkpt>
      <trkpt lat="43.63356" lon="3.81494">
        <ele>53</ele>
        <time>2021-01-01T09:42:21Z</time>
      </trkpt>
      <trkpt lat="43.63354" lon="3.81504">
        <ele>53</ele>
        <time>2021-01-01T09:42:22Z</time>
      </trkpt>
      <trkpt lat="43.63349" lon="3.81512">
        <ele>53</ele>
        <time>2021-01-01T09:42:24Z</time>
      </trkpt>
      <trkpt lat="43.63343" lon="3.81518">
        <ele>53</ele>
        <time>2021-01-01T09:42:26Z</time>
      </trkpt>
      <trkpt lat="43.63335" lon="3.81518">
        <ele>54</ele>
        <time>2021-01-01T09:42:28Z</time>
      </trkpt>
      <trkpt lat="43.63329" lon="3.81521">
        <ele>54</ele>
        <time>2021-01-01T09:42:30Z</time>
      </trkpt>
      <trkpt lat="43.63321" lon="3.8152">
        <ele>54</ele>
        <time>2021-01-01T09:42:34Z</time>
      </trkpt>
      <trkpt lat="43.63316" lon="3.81521">
        <ele>55</ele>
        <time>2021-01-01T09:42:35Z</time>
      </trkpt>
      <trkpt lat="43.63313" lon="3.81514">
        <ele>54</ele>
        <time>2021-01-01T09:42:42Z</time>
      </trkpt>
      <trkpt lat="43.63312" lon="3.81507">
        <ele>54</ele>
        <time>2021-01-01T09:42:44Z</time>
      </trkpt>
      <trkpt lat="43.63311" lon="3.81498">
        <ele>53</ele>
        <time>2021-01-01T09:42:47Z</time>
      </trkpt>
      <trkpt lat="43.63306" lon="3.81492">
        <ele>52</ele>
        <time>2021-01-01T09:42:48Z</time>
      </trkpt>
      <trkpt lat="43.63299" lon="3.81494">
        <ele>51</ele>
        <time>2021-01-01T09:42:50Z</time>
      </trkpt>
      <trkpt lat="43.63294" lon="3.81496">
        <ele>50</ele>
        <time>2021-01-01T09:42:52Z</time>
      </trkpt>
      <trkpt lat="43.63286" lon="3.81496">
        <ele>49</ele>
        <time>2021-01-01T09:42:54Z</time>
      </trkpt>
      <trkpt lat="43.63282" lon="3.81498">
        <ele>48</ele>
        <time>2021-01-01T09:42:55Z</time>
      </trkpt>
      <trkpt lat="43.63277" lon="3.815">
        <ele>48</ele>
        <time>2021-01-01T09:42:56Z</time>
      </trkpt>
      <trkpt lat="43.63273" lon="3.81505">
        <ele>47</ele>
        <time>2021-01-01T09:42:58Z</time>
      </trkpt>
      <trkpt lat="43.63268" lon="3.81515">
        <ele>47</ele>
        <time>2021-01-01T09:43:00Z</time>
      </trkpt>
      <trkpt lat="43.6326" lon="3.81526">
        <ele>46</ele>
        <time>2021-01-01T09:43:02Z</time>
      </trkpt>
      <trkpt lat="43.63256" lon="3.81531">
        <ele>45</ele>
        <time>2021-01-01T09:43:03Z</time>
      </trkpt>
      <trkpt lat="43.63252" lon="3.81536">
        <ele>45</ele>
        <time>2021-01-01T09:43:04Z</time>
      </trkpt>
      <trkpt lat="43.63248" lon="3.81542">
        <ele>44</ele>
        <time>2021-01-01T09:43:05Z</time>
      </trkpt>
      <trkpt lat="43.63244" lon="3.81547">
        <ele>44</ele>
        <time>2021-01-01T09:43:06Z</time>
      </trkpt>
      <trkpt lat="43.63239" lon="3.8155">
        <ele>44</ele>
        <time>2021-01-01T09:43:07Z</time>
      </trkpt>
      <trkpt lat="43.63232" lon="3.81558">
        <ele>43</ele>
        <time>2021-01-01T09:43:08Z</time>
      </trkpt>
      <trkpt lat="43.63228" lon="3.81562">
        <ele>42</ele>
        <time>2021-01-01T09:43:09Z</time>
      </trkpt>
      <trkpt lat="43.63224" lon="3.81567">
        <ele>42</ele>
        <time>2021-01-01T09:43:10Z</time>
      </trkpt>
      <trkpt lat="43.6322" lon="3.81573">
        <ele>41</ele>
        <time>2021-01-01T09:43:11Z</time>
      </trkpt>
      <trkpt lat="43.63216" lon="3.81579">
        <ele>41</ele>
        <time>2021-01-01T09:43:12Z</time>
      </trkpt>
      <trkpt lat="43.63213" lon="3.81585">
        <ele>41</ele>
        <time>2021-01-01T09:43:13Z</time>
      </trkpt>
      <trkpt lat="43.63207" lon="3.81592">
        <ele>41</ele>
        <time>2021-01-01T09:43:15Z</time>
      </trkpt>
      <trkpt lat="43.63203" lon="3.81595">
        <ele>41</ele>
        <time>2021-01-01T09:43:16Z</time>
      </trkpt>
      <trkpt lat="43.63196" lon="3.81601">
        <ele>41</ele>
        <time>2021-01-01T09:43:18Z</time>
      </trkpt>
      <trkpt lat="43.63192" lon="3.81605">
        <ele>41</ele>
        <time>2021-01-01T09:43:19Z</time>
      </trkpt>
      <trkpt lat="43.63187" lon="3.8161">
        <ele>41</ele>
        <time>2021-01-01T09:43:20Z</time>
      </trkpt>
      <trkpt lat="43.63183" lon="3.81615">
        <ele>41</ele>
        <time>2021-01-01T09:43:21Z</time>
      </trkpt>
      <trkpt lat="43.63176" lon="3.81623">
        <ele>41</ele>
        <time>2021-01-01T09:43:23Z</time>
      </trkpt>
      <trkpt lat="43.63171" lon="3.81627">
        <ele>41</ele>
        <time>2021-01-01T09:43:24Z</time>
      </trkpt>
      <trkpt lat="43.63167" lon="3.8163">
        <ele>41</ele>
        <time>2021-01-01T09:43:25Z</time>
      </trkpt>
      <trkpt lat="43.63159" lon="3.81634">
        <ele>41</ele>
        <time>2021-01-01T09:43:27Z</time>
      </trkpt>
      <trkpt lat="43.63154" lon="3.81637">
        <ele>41</ele>
        <time>2021-01-01T09:43:28Z</time>
      </trkpt>
      <trkpt lat="43.6315" lon="3.8164">
        <ele>41</ele>
        <time>2021-01-01T09:43:29Z</time>
      </trkpt>
      <trkpt lat="43.63142" lon="3.81645">
        <ele>41</ele>
        <time>2021-01-01T09:43:31Z</time>
      </trkpt>
      <trkpt lat="43.63136" lon="3.8165">
        <ele>41</ele>
        <time>2021-01-01T09:43:33Z</time>
      </trkpt>
      <trkpt lat="43.6313" lon="3.81649">
        <ele>40</ele>
        <time>2021-01-01T09:43:35Z</time>
      </trkpt>
      <trkpt lat="43.63122" lon="3.8165">
        <ele>39</ele>
        <time>2021-01-01T09:43:37Z</time>
      </trkpt>
      <trkpt lat="43.63115" lon="3.81651">
        <ele>39</ele>
        <time>2021-01-01T09:43:39Z</time>
      </trkpt>
      <trkpt lat="43.63109" lon="3.81648">
        <ele>40</ele>
        <time>2021-01-01T09:43:42Z</time>
      </trkpt>
      <trkpt lat="43.63103" lon="3.81643">
        <ele>40</ele>
        <time>2021-01-01T09:43:44Z</time>
      </trkpt>
      <trkpt lat="43.63097" lon="3.81645">
        <ele>41</ele>
        <time>2021-01-01T09:43:46Z</time>
      </trkpt>
      <trkpt lat="43.63094" lon="3.8165">
        <ele>42</ele>
        <time>2021-01-01T09:43:48Z</time>
      </trkpt>
      <trkpt lat="43.63089" lon="3.81657">
        <ele>42</ele>
        <time>2021-01-01T09:43:51Z</time>
      </trkpt>
      <trkpt lat="43.63085" lon="3.81656">
        <ele>42</ele>
        <time>2021-01-01T09:43:54Z</time>
      </trkpt>
      <trkpt lat="43.63081" lon="3.81649">
        <ele>42</ele>
        <time>2021-01-01T09:43:56Z</time>
      </trkpt>
      <trkpt lat="43.63076" lon="3.81644">
        <ele>42</ele>
        <time>2021-01-01T09:43:58Z</time>
      </trkpt>
      <trkpt lat="43.63064" lon="3.81641">
        <ele>41</ele>
        <time>2021-01-01T09:43:59Z</time>
      </trkpt>
      <trkpt lat="43.63059" lon="3.81642">
        <ele>40</ele>
        <time>2021-01-01T09:44:00Z</time>
      </trkpt>
      <trkpt lat="43.63054" lon="3.8164">
        <ele>40</ele>
        <time>2021-01-01T09:44:01Z</time>
      </trkpt>
      <trkpt lat="43.63049" lon="3.81638">
        <ele>39</ele>
        <time>2021-01-01T09:44:02Z</time>
      </trkpt>
      <trkpt lat="43.6304" lon="3.81636">
        <ele>39</ele>
        <time>2021-01-01T09:44:04Z</time>
      </trkpt>
      <trkpt lat="43.63035" lon="3.81636">
        <ele>38</ele>
        <time>2021-01-01T09:44:05Z</time>
      </trkpt>
      <trkpt lat="43.6303" lon="3.81633">
        <ele>38</ele>
        <time>2021-01-01T09:44:06Z</time>
      </trkpt>
      <trkpt lat="43.63026" lon="3.8163">
        <ele>38</ele>
        <time>2021-01-01T09:44:07Z</time>
      </trkpt>
      <trkpt lat="43.63022" lon="3.81626">
        <ele>38</ele>
        <time>2021-01-01T09:44:08Z</time>
      </trkpt>
      <trkpt lat="43.63016" lon="3.81623">
        <ele>38</ele>
        <time>2021-01-01T09:44:09Z</time>
      </trkpt>
      <trkpt lat="43.63011" lon="3.81621">
        <ele>38</ele>
        <time>2021-01-01T09:44:10Z</time>
      </trkpt>
      <trkpt lat="43.63005" lon="3.8162">
        <ele>38</ele>
        <time>2021-01-01T09:44:11Z</time>
      </trkpt>
      <trkpt lat="43.63" lon="3.81618">
        <ele>37</ele>
        <time>2021-01-01T09:44:12Z</time>
      </trkpt>
      <trkpt lat="43.62995" lon="3.81616">
        <ele>37</ele>
        <time>2021-01-01T09:44:13Z</time>
      </trkpt>
      <trkpt lat="43.62989" lon="3.81614">
        <ele>37</ele>
        <time>2021-01-01T09:44:14Z</time>
      </trkpt>
      <trkpt lat="43.62984" lon="3.81614">
        <ele>36</ele>
        <time>2021-01-01T09:44:15Z</time>
      </trkpt>
      <trkpt lat="43.62978" lon="3.81613">
        <ele>36</ele>
        <time>2021-01-01T09:44:16Z</time>
      </trkpt>
      <trkpt lat="43.62974" lon="3.81611">
        <ele>35</ele>
        <time>2021-01-01T09:44:17Z</time>
      </trkpt>
      <trkpt lat="43.62965" lon="3.81611">
        <ele>35</ele>
        <time>2021-01-01T09:44:19Z</time>
      </trkpt>
      <trkpt lat="43.6296" lon="3.81609">
        <ele>34</ele>
        <time>2021-01-01T09:44:20Z</time>
      </trkpt>
      <trkpt lat="43.62955" lon="3.81608">
        <ele>34</ele>
        <time>2021-01-01T09:44:21Z</time>
      </trkpt>
      <trkpt lat="43.6295" lon="3.81606">
        <ele>33</ele>
        <time>2021-01-01T09:44:22Z</time>
      </trkpt>
      <trkpt lat="43.62942" lon="3.81603">
        <ele>33</ele>
        <time>2021-01-01T09:44:24Z</time>
      </trkpt>
      <trkpt lat="43.62937" lon="3.81601">
        <ele>33</ele>
        <time>2021-01-01T09:44:25Z</time>
      </trkpt>
      <trkpt lat="43.62932" lon="3.81601">
        <ele>33</ele>
        <time>2021-01-01T09:44:29Z</time>
      </trkpt>
      <trkpt lat="43.62929" lon="3.81597">
        <ele>33</ele>
        <time>2021-01-01T09:44:44Z</time>
      </trkpt>
      <trkpt lat="43.62923" lon="3.81595">
        <ele>34</ele>
        <time>2021-01-01T09:44:47Z</time>
      </trkpt>
      <trkpt lat="43.6292" lon="3.81586">
        <ele>34</ele>
        <time>2021-01-01T09:44:50Z</time>
      </trkpt>
      <trkpt lat="43.62917" lon="3.81576">
        <ele>34</ele>
        <time>2021-01-01T09:44:52Z</time>
      </trkpt>
      <trkpt lat="43.62915" lon="3.81568">
        <ele>34</ele>
        <time>2021-01-01T09:44:53Z</time>
      </trkpt>
      <trkpt lat="43.62914" lon="3.81558">
        <ele>34</ele>
        <time>2021-01-01T09:44:55Z</time>
      </trkpt>
      <trkpt lat="43.62911" lon="3.81549">
        <ele>34</ele>
        <time>2021-01-01T09:44:57Z</time>
      </trkpt>
      <trkpt lat="43.62905" lon="3.8154">
        <ele>34</ele>
        <time>2021-01-01T09:44:59Z</time>
      </trkpt>
      <trkpt lat="43.62899" lon="3.81533">
        <ele>34</ele>
        <time>2021-01-01T09:45:01Z</time>
      </trkpt>
      <trkpt lat="43.62892" lon="3.81526">
        <ele>34</ele>
        <time>2021-01-01T09:45:03Z</time>
      </trkpt>
      <trkpt lat="43.62886" lon="3.81519">
        <ele>34</ele>
        <time>2021-01-01T09:45:05Z</time>
      </trkpt>
      <trkpt lat="43.6288" lon="3.81513">
        <ele>34</ele>
        <time>2021-01-01T09:45:07Z</time>
      </trkpt>
      <trkpt lat="43.62875" lon="3.81504">
        <ele>34</ele>
        <time>2021-01-01T09:45:09Z</time>
      </trkpt>
      <trkpt lat="43.62869" lon="3.815">
        <ele>33</ele>
        <time>2021-01-01T09:45:11Z</time>
      </trkpt>
      <trkpt lat="43.62864" lon="3.81492">
        <ele>32</ele>
        <time>2021-01-01T09:45:13Z</time>
      </trkpt>
      <trkpt lat="43.62859" lon="3.81486">
        <ele>31</ele>
        <time>2021-01-01T09:45:15Z</time>
      </trkpt>
      <trkpt lat="43.62854" lon="3.81484">
        <ele>30</ele>
        <time>2021-01-01T09:45:18Z</time>
      </trkpt>
      <trkpt lat="43.62849" lon="3.81481">
        <ele>30</ele>
        <time>2021-01-01T09:45:20Z</time>
      </trkpt>
      <trkpt lat="43.62847" lon="3.81473">
        <ele>30</ele>
        <time>2021-01-01T09:45:24Z</time>
      </trkpt>
      <trkpt lat="43.62846" lon="3.81465">
        <ele>31</ele>
        <time>2021-01-01T09:45:27Z</time>
      </trkpt>
      <trkpt lat="43.62843" lon="3.8146">
        <ele>32</ele>
        <time>2021-01-01T09:45:29Z</time>
      </trkpt>
      <trkpt lat="43.62839" lon="3.81455">
        <ele>32</ele>
        <time>2021-01-01T09:45:31Z</time>
      </trkpt>
      <trkpt lat="43.62834" lon="3.81449">
        <ele>33</ele>
        <time>2021-01-01T09:45:33Z</time>
      </trkpt>
      <trkpt lat="43.62829" lon="3.81441">
        <ele>33</ele>
        <time>2021-01-01T09:45:35Z</time>
      </trkpt>
      <trkpt lat="43.62826" lon="3.81434">
        <ele>34</ele>
        <time>2021-01-01T09:45:36Z</time>
      </trkpt>
      <trkpt lat="43.62822" lon="3.81431">
        <ele>34</ele>
        <time>2021-01-01T09:45:37Z</time>
      </trkpt>
      <trkpt lat="43.62817" lon="3.81428">
        <ele>35</ele>
        <time>2021-01-01T09:45:38Z</time>
      </trkpt>
      <trkpt lat="43.62811" lon="3.8142">
        <ele>35</ele>
        <time>2021-01-01T09:45:40Z</time>
      </trkpt>
      <trkpt lat="43.62807" lon="3.81415">
        <ele>35</ele>
        <time>2021-01-01T09:45:41Z</time>
      </trkpt>
      <trkpt lat="43.62803" lon="3.81409">
        <ele>35</ele>
        <time>2021-01-01T09:45:43Z</time>
      </trkpt>
      <trkpt lat="43.628" lon="3.81403">
        <ele>34</ele>
        <time>2021-01-01T09:45:46Z</time>
      </trkpt>
      <trkpt lat="43.62796" lon="3.81395">
        <ele>34</ele>
        <time>2021-01-01T09:45:49Z</time>
      </trkpt>
      <trkpt lat="43.62793" lon="3.81388">
        <ele>34</ele>
        <time>2021-01-01T09:45:51Z</time>
      </trkpt>
      <trkpt lat="43.62788" lon="3.81381">
        <ele>34</ele>
        <time>2021-01-01T09:45:53Z</time>
      </trkpt>
      <trkpt lat="43.62783" lon="3.81373">
        <ele>34</ele>
        <time>2021-01-01T09:45:55Z</time>
      </trkpt>
      <trkpt lat="43.62779" lon="3.81368">
        <ele>34</ele>
        <time>2021-01-01T09:45:56Z</time>
      </trkpt>
      <trkpt lat="43.62777" lon="3.81362">
        <ele>33</ele>
        <time>2021-01-01T09:45:58Z</time>
      </trkpt>
      <trkpt lat="43.62776" lon="3.81355">
        <ele>33</ele>
        <time>2021-01-01T09:46:00Z</time>
      </trkpt>
      <trkpt lat="43.6278" lon="3.81349">
        <ele>33</ele>
        <time>2021-01-01T09:46:03Z</time>
      </trkpt>
      <trkpt lat="43.62779" lon="3.81341">
        <ele>34</ele>
        <time>2021-01-01T09:46:06Z</time>
      </trkpt>
      <trkpt lat="43.6278" lon="3.81334">
        <ele>34</ele>
        <time>2021-01-01T09:46:09Z</time>
      </trkpt>
      <trkpt lat="43.62777" lon="3.81326">
        <ele>35</ele>
        <time>2021-01-01T09:46:11Z</time>
      </trkpt>
      <trkpt lat="43.62772" lon="3.81317">
        <ele>35</ele>
        <time>2021-01-01T09:46:13Z</time>
      </trkpt>
      <trkpt lat="43.62767" lon="3.81309">
        <ele>36</ele>
        <time>2021-01-01T09:46:14Z</time>
      </trkpt>
      <trkpt lat="43.62765" lon="3.81301">
        <ele>36</ele>
        <time>2021-01-01T09:46:16Z</time>
      </trkpt>
      <trkpt lat="43.62763" lon="3.81294">
        <ele>36</ele>
        <time>2021-01-01T09:46:18Z</time>
      </trkpt>
      <trkpt lat="43.62761" lon="3.81285">
        <ele>37</ele>
        <time>2021-01-01T09:46:22Z</time>
      </trkpt>
      <trkpt lat="43.6276" lon="3.81279">
        <ele>37</ele>
        <time>2021-01-01T09:46:25Z</time>
      </trkpt>
      <trkpt lat="43.62756" lon="3.81273">
        <ele>37</ele>
        <time>2021-01-01T09:46:30Z</time>
      </trkpt>
      <trkpt lat="43.62753" lon="3.81266">
        <ele>37</ele>
        <time>2021-01-01T09:46:32Z</time>
      </trkpt>
      <trkpt lat="43.62751" lon="3.81261">
        <ele>35</ele>
        <time>2021-01-01T09:46:34Z</time>
      </trkpt>
      <trkpt lat="43.62748" lon="3.81256">
        <ele>34</ele>
        <time>2021-01-01T09:46:36Z</time>
      </trkpt>
      <trkpt lat="43.62745" lon="3.81249">
        <ele>33</ele>
        <time>2021-01-01T09:46:39Z</time>
      </trkpt>
      <trkpt lat="43.62741" lon="3.81242">
        <ele>32</ele>
        <time>2021-01-01T09:46:42Z</time>
      </trkpt>
      <trkpt lat="43.62737" lon="3.81235">
        <ele>32</ele>
        <time>2021-01-01T09:46:45Z</time>
      </trkpt>
      <trkpt lat="43.62734" lon="3.8123">
        <ele>31</ele>
        <time>2021-01-01T09:46:48Z</time>
      </trkpt>
      <trkpt lat="43.62729" lon="3.81226">
        <ele>31</ele>
        <time>2021-01-01T09:46:50Z</time>
      </trkpt>
      <trkpt lat="43.62723" lon="3.81221">
        <ele>30</ele>
        <time>2021-01-01T09:46:52Z</time>
      </trkpt>
      <trkpt lat="43.62717" lon="3.81216">
        <ele>29</ele>
        <time>2021-01-01T09:46:54Z</time>
      </trkpt>
      <trkpt lat="43.62708" lon="3.81212">
        <ele>28</ele>
        <time>2021-01-01T09:46:56Z</time>
      </trkpt>
      <trkpt lat="43.62703" lon="3.81211">
        <ele>27</ele>
        <time>2021-01-01T09:46:58Z</time>
      </trkpt>
      <trkpt lat="43.62698" lon="3.81207">
        <ele>27</ele>
        <time>2021-01-01T09:47:00Z</time>
      </trkpt>
      <trkpt lat="43.62693" lon="3.81203">
        <ele>28</ele>
        <time>2021-01-01T09:47:03Z</time>
      </trkpt>
      <trkpt lat="43.62688" lon="3.81199">
        <ele>28</ele>
        <time>2021-01-01T09:47:06Z</time>
      </trkpt>
      <trkpt lat="43.62685" lon="3.81195">
        <ele>28</ele>
        <time>2021-01-01T09:47:09Z</time>
      </trkpt>
      <trkpt lat="43.62682" lon="3.81191">
        <ele>28</ele>
        <time>2021-01-01T09:47:13Z</time>
      </trkpt>
      <trkpt lat="43.62676" lon="3.81185">
        <ele>27</ele>
        <time>2021-01-01T09:47:16Z</time>
      </trkpt>
      <trkpt lat="43.62673" lon="3.81177">
        <ele>27</ele>
        <time>2021-01-01T09:47:18Z</time>
      </trkpt>
      <trkpt lat="43.62672" lon="3.81171">
        <ele>26</ele>
        <time>2021-01-01T09:47:20Z</time>
      </trkpt>
      <trkpt lat="43.62669" lon="3.81164">
        <ele>26</ele>
        <time>2021-01-01T09:47:22Z</time>
      </trkpt>
      <trkpt lat="43.62666" lon="3.81157">
        <ele>26</ele>
        <time>2021-01-01T09:47:24Z</time>
      </trkpt>
      <trkpt lat="43.62661" lon="3.81151">
        <ele>27</ele>
        <time>2021-01-01T09:47:26Z</time>
      </trkpt>
      <trkpt lat="43.62653" lon="3.81146">
        <ele>27</ele>
        <time>2021-01-01T09:47:28Z</time>
      </trkpt>
      <trkpt lat="43.62647" lon="3.81141">
        <ele>27</ele>
        <time>2021-01-01T09:47:30Z</time>
      </trkpt>
      <trkpt lat="43.6264" lon="3.81136">
        <ele>27</ele>
        <time>2021-01-01T09:47:32Z</time>
      </trkpt>
      <trkpt lat="43.62634" lon="3.8113">
        <ele>28</ele>
        <time>2021-01-01T09:47:34Z</time>
      </trkpt>
      <trkpt lat="43.6263" lon="3.81127">
        <ele>27</ele>
        <time>2021-01-01T09:47:35Z</time>
      </trkpt>
      <trkpt lat="43.62626" lon="3.81119">
        <ele>28</ele>
        <time>2021-01-01T09:47:37Z</time>
      </trkpt>
      <trkpt lat="43.6262" lon="3.8111">
        <ele>28</ele>
        <time>2021-01-01T09:47:39Z</time>
      </trkpt>
      <trkpt lat="43.62614" lon="3.81105">
        <ele>29</ele>
        <time>2021-01-01T09:47:41Z</time>
      </trkpt>
      <trkpt lat="43.62611" lon="3.81099">
        <ele>29</ele>
        <time>2021-01-01T09:47:44Z</time>
      </trkpt>
      <trkpt lat="43.62607" lon="3.81094">
        <ele>30</ele>
        <time>2021-01-01T09:47:47Z</time>
      </trkpt>
      <trkpt lat="43.62602" lon="3.81089">
        <ele>30</ele>
        <time>2021-01-01T09:47:52Z</time>
      </trkpt>
      <trkpt lat="43.62597" lon="3.81085">
        <ele>31</ele>
        <time>2021-01-01T09:47:55Z</time>
      </trkpt>
      <trkpt lat="43.62592" lon="3.81085">
        <ele>31</ele>
        <time>2021-01-01T09:47:57Z</time>
      </trkpt>
      <trkpt lat="43.62587" lon="3.81085">
        <ele>32</ele>
        <time>2021-01-01T09:47:59Z</time>
      </trkpt>
      <trkpt lat="43.62581" lon="3.81084">
        <ele>33</ele>
        <time>2021-01-01T09:48:02Z</time>
      </trkpt>
      <trkpt lat="43.62577" lon="3.8108">
        <ele>34</ele>
        <time>2021-01-01T09:48:05Z</time>
      </trkpt>
      <trkpt lat="43.62575" lon="3.81074">
        <ele>34</ele>
        <time>2021-01-01T09:48:08Z</time>
      </trkpt>
      <trkpt lat="43.62573" lon="3.81068">
        <ele>34</ele>
        <time>2021-01-01T09:48:11Z</time>
      </trkpt>
      <trkpt lat="43.62568" lon="3.81064">
        <ele>35</ele>
        <time>2021-01-01T09:48:14Z</time>
      </trkpt>
      <trkpt lat="43.62564" lon="3.81061">
        <ele>35</ele>
        <time>2021-01-01T09:48:17Z</time>
      </trkpt>
      <trkpt lat="43.62557" lon="3.81061">
        <ele>35</ele>
        <time>2021-01-01T09:48:20Z</time>
      </trkpt>
      <trkpt lat="43.62554" lon="3.81067">
        <ele>35</ele>
        <time>2021-01-01T09:48:24Z</time>
      </trkpt>
      <trkpt lat="43.62553" lon="3.81068">
        <ele>35</ele>
        <time>2021-01-01T09:48:43Z</time>
      </trkpt>
      <trkpt lat="43.62553" lon="3.81068">
        <ele>34</ele>
        <time>2021-01-01T09:48:45Z</time>
      </trkpt>
      <trkpt lat="43.62548" lon="3.81072">
        <ele>34</ele>
        <time>2021-01-01T09:48:57Z</time>
      </trkpt>
      <trkpt lat="43.62545" lon="3.81078">
        <ele>35</ele>
        <time>2021-01-01T09:49:00Z</time>
      </trkpt>
      <trkpt lat="43.62545" lon="3.81085">
        <ele>36</ele>
        <time>2021-01-01T09:49:04Z</time>
      </trkpt>
      <trkpt lat="43.62546" lon="3.81093">
        <ele>36</ele>
        <time>2021-01-01T09:49:08Z</time>
      </trkpt>
      <trkpt lat="43.62549" lon="3.811">
        <ele>37</ele>
        <time>2021-01-01T09:49:11Z</time>
      </trkpt>
      <trkpt lat="43.6255" lon="3.81106">
        <ele>37</ele>
        <time>2021-01-01T09:49:28Z</time>
      </trkpt>
      <trkpt lat="43.62551" lon="3.81106">
        <ele>37</ele>
        <time>2021-01-01T09:49:30Z</time>
      </trkpt>
      <trkpt lat="43.62553" lon="3.81112">
        <ele>37</ele>
        <time>2021-01-01T09:49:47Z</time>
      </trkpt>
      <trkpt lat="43.62552" lon="3.81119">
        <ele>37</ele>
        <time>2021-01-01T09:49:54Z</time>
      </trkpt>
      <trkpt lat="43.62553" lon="3.81125">
        <ele>38</ele>
        <time>2021-01-01T09:50:07Z</time>
      </trkpt>
      <trkpt lat="43.62552" lon="3.81131">
        <ele>39</ele>
        <time>2021-01-01T09:50:09Z</time>
      </trkpt>
      <trkpt lat="43.62549" lon="3.81136">
        <ele>40</ele>
        <time>2021-01-01T09:50:12Z</time>
      </trkpt>
      <trkpt lat="43.62544" lon="3.81136">
        <ele>40</ele>
        <time>2021-01-01T09:50:16Z</time>
      </trkpt>
      <trkpt lat="43.62536" lon="3.81128">
        <ele>40</ele>
        <time>2021-01-01T09:50:21Z</time>
      </trkpt>
      <trkpt lat="43.62531" lon="3.81124">
        <ele>40</ele>
        <time>2021-01-01T09:50:23Z</time>
      </trkpt>
      <trkpt lat="43.62526" lon="3.8112">
        <ele>40</ele>
        <time>2021-01-01T09:50:25Z</time>
      </trkpt>
      <trkpt lat="43.6252" lon="3.81116">
        <ele>39</ele>
        <time>2021-01-01T09:50:28Z</time>
      </trkpt>
      <trkpt lat="43.62513" lon="3.81111">
        <ele>39</ele>
        <time>2021-01-01T09:50:29Z</time>
      </trkpt>
      <trkpt lat="43.62508" lon="3.81105">
        <ele>38</ele>
        <time>2021-01-01T09:50:31Z</time>
      </trkpt>
      <trkpt lat="43.62504" lon="3.81098">
        <ele>37</ele>
        <time>2021-01-01T09:50:33Z</time>
      </trkpt>
      <trkpt lat="43.625" lon="3.81089">
        <ele>36</ele>
        <time>2021-01-01T09:50:35Z</time>
      </trkpt>
      <trkpt lat="43.62497" lon="3.81083">
        <ele>36</ele>
        <time>2021-01-01T09:50:37Z</time>
      </trkpt>
      <trkpt lat="43.62494" lon="3.81075">
        <ele>35</ele>
        <time>2021-01-01T09:50:39Z</time>
      </trkpt>
      <trkpt lat="43.62492" lon="3.81065">
        <ele>34</ele>
        <time>2021-01-01T09:50:41Z</time>
      </trkpt>
      <trkpt lat="43.62489" lon="3.81058">
        <ele>34</ele>
        <time>2021-01-01T09:50:43Z</time>
      </trkpt>
      <trkpt lat="43.62484" lon="3.81046">
        <ele>33</ele>
        <time>2021-01-01T09:50:45Z</time>
      </trkpt>
      <trkpt lat="43.62481" lon="3.81039">
        <ele>33</ele>
        <time>2021-01-01T09:50:47Z</time>
      </trkpt>
      <trkpt lat="43.62478" lon="3.81035">
        <ele>32</ele>
        <time>2021-01-01T09:50:49Z</time>
      </trkpt>
      <trkpt lat="43.62475" lon="3.81027">
        <ele>32</ele>
        <time>2021-01-01T09:50:51Z</time>
      </trkpt>
      <trkpt lat="43.62473" lon="3.81018">
        <ele>31</ele>
        <time>2021-01-01T09:50:53Z</time>
      </trkpt>
      <trkpt lat="43.62474" lon="3.81009">
        <ele>31</ele>
        <time>2021-01-01T09:50:57Z</time>
      </trkpt>
      <trkpt lat="43.62471" lon="3.80995">
        <ele>31</ele>
        <time>2021-01-01T09:50:58Z</time>
      </trkpt>
      <trkpt lat="43.62469" lon="3.80987">
        <ele>31</ele>
        <time>2021-01-01T09:51:00Z</time>
      </trkpt>
      <trkpt lat="43.62467" lon="3.8098">
        <ele>30</ele>
        <time>2021-01-01T09:51:02Z</time>
      </trkpt>
      <trkpt lat="43.62463" lon="3.8097">
        <ele>31</ele>
        <time>2021-01-01T09:51:04Z</time>
      </trkpt>
      <trkpt lat="43.62459" lon="3.8096">
        <ele>31</ele>
        <time>2021-01-01T09:51:06Z</time>
      </trkpt>
      <trkpt lat="43.62455" lon="3.80951">
        <ele>32</ele>
        <time>2021-01-01T09:51:08Z</time>
      </trkpt>
      <trkpt lat="43.62452" lon="3.80941">
        <ele>33</ele>
        <time>2021-01-01T09:51:10Z</time>
      </trkpt>
      <trkpt lat="43.62449" lon="3.80934">
        <ele>33</ele>
        <time>2021-01-01T09:51:12Z</time>
      </trkpt>
      <trkpt lat="43.62446" lon="3.80928">
        <ele>34</ele>
        <time>2021-01-01T09:51:14Z</time>
      </trkpt>
      <trkpt lat="43.62444" lon="3.80922">
        <ele>34</ele>
        <time>2021-01-01T09:51:17Z</time>
      </trkpt>
      <trkpt lat="43.62441" lon="3.80917">
        <ele>35</ele>
        <time>2021-01-01T09:51:20Z</time>
      </trkpt>
      <trkpt lat="43.62435" lon="3.80913">
        <ele>35</ele>
        <time>2021-01-01T09:51:23Z</time>
      </trkpt>
      <trkpt lat="43.62431" lon="3.80906">
        <ele>35</ele>
        <time>2021-01-01T09:51:26Z</time>
      </trkpt>
      <trkpt lat="43.62429" lon="3.809">
        <ele>35</ele>
        <time>2021-01-01T09:51:28Z</time>
      </trkpt>
      <trkpt lat="43.62426" lon="3.80894">
        <ele>35</ele>
        <time>2021-01-01T09:51:30Z</time>
      </trkpt>
      <trkpt lat="43.62423" lon="3.80888">
        <ele>36</ele>
        <time>2021-01-01T09:51:32Z</time>
      </trkpt>
      <trkpt lat="43.6242" lon="3.80883">
        <ele>36</ele>
        <time>2021-01-01T09:51:34Z</time>
      </trkpt>
      <trkpt lat="43.62418" lon="3.80874">
        <ele>36</ele>
        <time>2021-01-01T09:51:37Z</time>
      </trkpt>
      <trkpt lat="43.62415" lon="3.80868">
        <ele>36</ele>
        <time>2021-01-01T09:51:40Z</time>
      </trkpt>
      <trkpt lat="43.62411" lon="3.80864">
        <ele>36</ele>
        <time>2021-01-01T09:51:43Z</time>
      </trkpt>
      <trkpt lat="43.62409" lon="3.80858">
        <ele>36</ele>
        <time>2021-01-01T09:51:45Z</time>
      </trkpt>
      <trkpt lat="43.62407" lon="3.8085">
        <ele>35</ele>
        <time>2021-01-01T09:51:47Z</time>
      </trkpt>
      <trkpt lat="43.624" lon="3.80836">
        <ele>34</ele>
        <time>2021-01-01T09:51:48Z</time>
      </trkpt>
      <trkpt lat="43.62395" lon="3.8083">
        <ele>33</ele>
        <time>2021-01-01T09:51:50Z</time>
      </trkpt>
      <trkpt lat="43.62392" lon="3.80824">
        <ele>32</ele>
        <time>2021-01-01T09:51:53Z</time>
      </trkpt>
      <trkpt lat="43.6239" lon="3.80818">
        <ele>31</ele>
        <time>2021-01-01T09:51:55Z</time>
      </trkpt>
      <trkpt lat="43.62386" lon="3.80813">
        <ele>31</ele>
        <time>2021-01-01T09:51:59Z</time>
      </trkpt>
      <trkpt lat="43.62383" lon="3.80805">
        <ele>31</ele>
        <time>2021-01-01T09:52:02Z</time>
      </trkpt>
      <trkpt lat="43.6238" lon="3.808">
        <ele>32</ele>
        <time>2021-01-01T09:52:04Z</time>
      </trkpt>
      <trkpt lat="43.62374" lon="3.80796">
        <ele>32</ele>
        <time>2021-01-01T09:52:06Z</time>
      </trkpt>
      <trkpt lat="43.62367" lon="3.80796">
        <ele>32</ele>
        <time>2021-01-01T09:52:08Z</time>
      </trkpt>
      <trkpt lat="43.62361" lon="3.80795">
        <ele>33</ele>
        <time>2021-01-01T09:52:10Z</time>
      </trkpt>
      <trkpt lat="43.62355" lon="3.80795">
        <ele>33</ele>
        <time>2021-01-01T09:52:12Z</time>
      </trkpt>
      <trkpt lat="43.62348" lon="3.80794">
        <ele>34</ele>
        <time>2021-01-01T09:52:14Z</time>
      </trkpt>
      <trkpt lat="43.62339" lon="3.80794">
        <ele>34</ele>
        <time>2021-01-01T09:52:16Z</time>
      </trkpt>
      <trkpt lat="43.62332" lon="3.80794">
        <ele>35</ele>
        <time>2021-01-01T09:52:18Z</time>
      </trkpt>
      <trkpt lat="43.62325" lon="3.80793">
        <ele>35</ele>
        <time>2021-01-01T09:52:20Z</time>
      </trkpt>
      <trkpt lat="43.62317" lon="3.80794">
        <ele>36</ele>
        <time>2021-01-01T09:52:22Z</time>
      </trkpt>
      <trkpt lat="43.62313" lon="3.80794">
        <ele>36</ele>
        <time>2021-01-01T09:52:24Z</time>
      </trkpt>
      <trkpt lat="43.62308" lon="3.80794">
        <ele>37</ele>
        <time>2021-01-01T09:52:26Z</time>
      </trkpt>
      <trkpt lat="43.62299" lon="3.80794">
        <ele>37</ele>
        <time>2021-01-01T09:52:29Z</time>
      </trkpt>
      <trkpt lat="43.6229" lon="3.80794">
        <ele>38</ele>
        <time>2021-01-01T09:52:30Z</time>
      </trkpt>
      <trkpt lat="43.62283" lon="3.80794">
        <ele>38</ele>
        <time>2021-01-01T09:52:31Z</time>
      </trkpt>
      <trkpt lat="43.62276" lon="3.80793">
        <ele>39</ele>
        <time>2021-01-01T09:52:33Z</time>
      </trkpt>
      <trkpt lat="43.62268" lon="3.80794">
        <ele>40</ele>
        <time>2021-01-01T09:52:35Z</time>
      </trkpt>
      <trkpt lat="43.62261" lon="3.80794">
        <ele>41</ele>
        <time>2021-01-01T09:52:37Z</time>
      </trkpt>
      <trkpt lat="43.62254" lon="3.80792">
        <ele>41</ele>
        <time>2021-01-01T09:52:39Z</time>
      </trkpt>
      <trkpt lat="43.62247" lon="3.80792">
        <ele>41</ele>
        <time>2021-01-01T09:52:41Z</time>
      </trkpt>
      <trkpt lat="43.62241" lon="3.80793">
        <ele>41</ele>
        <time>2021-01-01T09:52:43Z</time>
      </trkpt>
      <trkpt lat="43.62233" lon="3.80793">
        <ele>41</ele>
        <time>2021-01-01T09:52:45Z</time>
      </trkpt>
      <trkpt lat="43.62228" lon="3.80797">
        <ele>41</ele>
        <time>2021-01-01T09:52:48Z</time>
      </trkpt>
      <trkpt lat="43.62226" lon="3.80805">
        <ele>40</ele>
        <time>2021-01-01T09:52:52Z</time>
      </trkpt>
      <trkpt lat="43.62227" lon="3.80812">
        <ele>39</ele>
        <time>2021-01-01T09:52:54Z</time>
      </trkpt>
      <trkpt lat="43.62228" lon="3.80819">
        <ele>38</ele>
        <time>2021-01-01T09:52:56Z</time>
      </trkpt>
      <trkpt lat="43.62229" lon="3.80828">
        <ele>37</ele>
        <time>2021-01-01T09:52:58Z</time>
      </trkpt>
      <trkpt lat="43.62227" lon="3.80838">
        <ele>45</ele>
        <time>2021-01-01T09:53:00Z</time>
      </trkpt>
      <trkpt lat="43.62226" lon="3.80849">
        <ele>51</ele>
        <time>2021-01-01T09:53:02Z</time>
      </trkpt>
      <trkpt lat="43.62225" lon="3.80858">
        <ele>62</ele>
        <time>2021-01-01T09:53:05Z</time>
      </trkpt>
      <trkpt lat="43.62224" lon="3.80865">
        <ele>70</ele>
        <time>2021-01-01T09:53:07Z</time>
      </trkpt>
      <trkpt lat="43.62224" lon="3.80876">
        <ele>73</ele>
        <time>2021-01-01T09:53:09Z</time>
      </trkpt>
      <trkpt lat="43.62224" lon="3.80887">
        <ele>66</ele>
        <time>2021-01-01T09:53:11Z</time>
      </trkpt>
      <trkpt lat="43.62224" lon="3.80901">
        <ele>62</ele>
        <time>2021-01-01T09:53:13Z</time>
      </trkpt>
      <trkpt lat="43.62223" lon="3.80911">
        <ele>51</ele>
        <time>2021-01-01T09:53:15Z</time>
      </trkpt>
      <trkpt lat="43.62223" lon="3.80924">
        <ele>44</ele>
        <time>2021-01-01T09:53:16Z</time>
      </trkpt>
      <trkpt lat="43.62225" lon="3.80932">
        <ele>40</ele>
        <time>2021-01-01T09:53:19Z</time>
      </trkpt>
      <trkpt lat="43.62225" lon="3.8094">
        <ele>38</ele>
        <time>2021-01-01T09:53:22Z</time>
      </trkpt>
      <trkpt lat="43.62225" lon="3.80949">
        <ele>36</ele>
        <time>2021-01-01T09:53:25Z</time>
      </trkpt>
      <trkpt lat="43.62227" lon="3.80955">
        <ele>35</ele>
        <time>2021-01-01T09:53:30Z</time>
      </trkpt>
      <trkpt lat="43.6223" lon="3.80961">
        <ele>44</ele>
        <time>2021-01-01T09:53:34Z</time>
      </trkpt>
      <trkpt lat="43.6223" lon="3.80969">
        <ele>48</ele>
        <time>2021-01-01T09:53:37Z</time>
      </trkpt>
      <trkpt lat="43.6223" lon="3.80977">
        <ele>51</ele>
        <time>2021-01-01T09:53:39Z</time>
      </trkpt>
      <trkpt lat="43.62232" lon="3.80985">
        <ele>53</ele>
        <time>2021-01-01T09:53:41Z</time>
      </trkpt>
      <trkpt lat="43.62232" lon="3.80991">
        <ele>53</ele>
        <time>2021-01-01T09:53:43Z</time>
      </trkpt>
      <trkpt lat="43.62232" lon="3.80999">
        <ele>44</ele>
        <time>2021-01-01T09:53:46Z</time>
      </trkpt>
      <trkpt lat="43.62232" lon="3.81006">
        <ele>40</ele>
        <time>2021-01-01T09:53:49Z</time>
      </trkpt>
      <trkpt lat="43.62232" lon="3.81014">
        <ele>39</ele>
        <time>2021-01-01T09:53:53Z</time>
      </trkpt>
      <trkpt lat="43.62231" lon="3.81023">
        <ele>38</ele>
        <time>2021-01-01T09:53:56Z</time>
      </trkpt>
      <trkpt lat="43.62233" lon="3.81031">
        <ele>37</ele>
        <time>2021-01-01T09:53:59Z</time>
      </trkpt>
      <trkpt lat="43.62233" lon="3.81039">
        <ele>38</ele>
        <time>2021-01-01T09:54:02Z</time>
      </trkpt>
      <trkpt lat="43.62233" lon="3.8103">
        <ele>37</ele>
        <time>2021-01-01T09:54:11Z</time>
      </trkpt>
      <trkpt lat="43.62233" lon="3.81022">
        <ele>37</ele>
        <time>2021-01-01T09:54:13Z</time>
      </trkpt>
      <trkpt lat="43.62232" lon="3.81014">
        <ele>41</ele>
        <time>2021-01-01T09:54:15Z</time>
      </trkpt>
      <trkpt lat="43.62231" lon="3.81008">
        <ele>42</ele>
        <time>2021-01-01T09:54:17Z</time>
      </trkpt>
      <trkpt lat="43.62232" lon="3.81">
        <ele>42</ele>
        <time>2021-01-01T09:54:20Z</time>
      </trkpt>
      <trkpt lat="43.62231" lon="3.80993">
        <ele>43</ele>
        <time>2021-01-01T09:54:23Z</time>
      </trkpt>
      <trkpt lat="43.62232" lon="3.80985">
        <ele>43</ele>
        <time>2021-01-01T09:54:25Z</time>
      </trkpt>
      <trkpt lat="43.62232" lon="3.80976">
        <ele>40</ele>
        <time>2021-01-01T09:54:27Z</time>
      </trkpt>
      <trkpt lat="43.62232" lon="3.80966">
        <ele>38</ele>
        <time>2021-01-01T09:54:29Z</time>
      </trkpt>
      <trkpt lat="43.62232" lon="3.80957">
        <ele>37</ele>
        <time>2021-01-01T09:54:31Z</time>
      </trkpt>
      <trkpt lat="43.62231" lon="3.80948">
        <ele>36</ele>
        <time>2021-01-01T09:54:33Z</time>
      </trkpt>
      <trkpt lat="43.6223" lon="3.80939">
        <ele>35</ele>
        <time>2021-01-01T09:54:35Z</time>
      </trkpt>
      <trkpt lat="43.62231" lon="3.80929">
        <ele>35</ele>
        <time>2021-01-01T09:54:37Z</time>
      </trkpt>
      <trkpt lat="43.6223" lon="3.8092">
        <ele>35</ele>
        <time>2021-01-01T09:54:40Z</time>
      </trkpt>
      <trkpt lat="43.62234" lon="3.80909">
        <ele>34</ele>
        <time>2021-01-01T09:54:42Z</time>
      </trkpt>
      <trkpt lat="43.62239" lon="3.80902">
        <ele>34</ele>
        <time>2021-01-01T09:54:44Z</time>
      </trkpt>
      <trkpt lat="43.62244" lon="3.80898">
        <ele>34</ele>
        <time>2021-01-01T09:54:46Z</time>
      </trkpt>
      <trkpt lat="43.6225" lon="3.80898">
        <ele>34</ele>
        <time>2021-01-01T09:54:48Z</time>
      </trkpt>
      <trkpt lat="43.62256" lon="3.80898">
        <ele>34</ele>
        <time>2021-01-01T09:54:50Z</time>
      </trkpt>
      <trkpt lat="43.62263" lon="3.80898">
        <ele>35</ele>
        <time>2021-01-01T09:54:52Z</time>
      </trkpt>
      <trkpt lat="43.62269" lon="3.80898">
        <ele>36</ele>
        <time>2021-01-01T09:54:54Z</time>
      </trkpt>
      <trkpt lat="43.62275" lon="3.80897">
        <ele>36</ele>
        <time>2021-01-01T09:54:56Z</time>
      </trkpt>
      <trkpt lat="43.62281" lon="3.80896">
        <ele>37</ele>
        <time>2021-01-01T09:54:59Z</time>
      </trkpt>
      <trkpt lat="43.62285" lon="3.80894">
        <ele>37</ele>
        <time>2021-01-01T09:55:13Z</time>
      </trkpt>
      <trkpt lat="43.62289" lon="3.80889">
        <ele>37</ele>
        <time>2021-01-01T09:55:18Z</time>
      </trkpt>
      <trkpt lat="43.62293" lon="3.80888">
        <ele>37</ele>
        <time>2021-01-01T09:55:20Z</time>
      </trkpt>
      <trkpt lat="43.62298" lon="3.80888">
        <ele>37</ele>
        <time>2021-01-01T09:55:22Z</time>
      </trkpt>
      <trkpt lat="43.62303" lon="3.80887">
        <ele>38</ele>
        <time>2021-01-01T09:55:24Z</time>
      </trkpt>
      <trkpt lat="43.62309" lon="3.80886">
        <ele>39</ele>
        <time>2021-01-01T09:55:27Z</time>
      </trkpt>
      <trkpt lat="43.62313" lon="3.80887">
        <ele>39</ele>
        <time>2021-01-01T09:55:30Z</time>
      </trkpt>
      <trkpt lat="43.62317" lon="3.80888">
        <ele>39</ele>
        <time>2021-01-01T09:55:32Z</time>
      </trkpt>
      <trkpt lat="43.62323" lon="3.8089">
        <ele>40</ele>
        <time>2021-01-01T09:55:35Z</time>
      </trkpt>
      <trkpt lat="43.62328" lon="3.80891">
        <ele>39</ele>
        <time>2021-01-01T09:55:38Z</time>
      </trkpt>
      <trkpt lat="43.62333" lon="3.80889">
        <ele>39</ele>
        <time>2021-01-01T09:55:42Z</time>
      </trkpt>
      <trkpt lat="43.62336" lon="3.80891">
        <ele>38</ele>
        <time>2021-01-01T09:55:58Z</time>
      </trkpt>
      <trkpt lat="43.62336" lon="3.80891">
        <ele>38</ele>
        <time>2021-01-01T09:56:00Z</time>
      </trkpt>
      <trkpt lat="43.62336" lon="3.80898">
        <ele>37</ele>
        <time>2021-01-01T09:56:06Z</time>
      </trkpt>
      <trkpt lat="43.62332" lon="3.80905">
        <ele>37</ele>
        <time>2021-01-01T09:56:09Z</time>
      </trkpt>
      <trkpt lat="43.62333" lon="3.80912">
        <ele>37</ele>
        <time>2021-01-01T09:56:11Z</time>
      </trkpt>
      <trkpt lat="43.62336" lon="3.80918">
        <ele>36</ele>
        <time>2021-01-01T09:56:13Z</time>
      </trkpt>
      <trkpt lat="43.62338" lon="3.80924">
        <ele>36</ele>
        <time>2021-01-01T09:56:15Z</time>
      </trkpt>
      <trkpt lat="43.62339" lon="3.80931">
        <ele>35</ele>
        <time>2021-01-01T09:56:17Z</time>
      </trkpt>
      <trkpt lat="43.6234" lon="3.80939">
        <ele>34</ele>
        <time>2021-01-01T09:56:19Z</time>
      </trkpt>
      <trkpt lat="43.62343" lon="3.80945">
        <ele>33</ele>
        <time>2021-01-01T09:56:21Z</time>
      </trkpt>
      <trkpt lat="43.62347" lon="3.80961">
        <ele>33</ele>
        <time>2021-01-01T09:56:25Z</time>
      </trkpt>
      <trkpt lat="43.62348" lon="3.80968">
        <ele>33</ele>
        <time>2021-01-01T09:56:27Z</time>
      </trkpt>
      <trkpt lat="43.6235" lon="3.80975">
        <ele>33</ele>
        <time>2021-01-01T09:56:29Z</time>
      </trkpt>
      <trkpt lat="43.62352" lon="3.80982">
        <ele>33</ele>
        <time>2021-01-01T09:56:31Z</time>
      </trkpt>
      <trkpt lat="43.62355" lon="3.80989">
        <ele>33</ele>
        <time>2021-01-01T09:56:33Z</time>
      </trkpt>
      <trkpt lat="43.62358" lon="3.80996">
        <ele>33</ele>
        <time>2021-01-01T09:56:35Z</time>
      </trkpt>
      <trkpt lat="43.6236" lon="3.81005">
        <ele>33</ele>
        <time>2021-01-01T09:56:37Z</time>
      </trkpt>
      <trkpt lat="43.62363" lon="3.81014">
        <ele>34</ele>
        <time>2021-01-01T09:56:39Z</time>
      </trkpt>
      <trkpt lat="43.62365" lon="3.81022">
        <ele>34</ele>
        <time>2021-01-01T09:56:41Z</time>
      </trkpt>
      <trkpt lat="43.62368" lon="3.81029">
        <ele>34</ele>
        <time>2021-01-01T09:56:43Z</time>
      </trkpt>
      <trkpt lat="43.62371" lon="3.81037">
        <ele>34</ele>
        <time>2021-01-01T09:56:45Z</time>
      </trkpt>
      <trkpt lat="43.62374" lon="3.81045">
        <ele>34</ele>
        <time>2021-01-01T09:56:47Z</time>
      </trkpt>
      <trkpt lat="43.62376" lon="3.81053">
        <ele>34</ele>
        <time>2021-01-01T09:56:49Z</time>
      </trkpt>
      <trkpt lat="43.62379" lon="3.81061">
        <ele>34</ele>
        <time>2021-01-01T09:56:51Z</time>
      </trkpt>
      <trkpt lat="43.62382" lon="3.81069">
        <ele>34</ele>
        <time>2021-01-01T09:56:53Z</time>
      </trkpt>
      <trkpt lat="43.62386" lon="3.81075">
        <ele>34</ele>
        <time>2021-01-01T09:56:55Z</time>
      </trkpt>
      <trkpt lat="43.62389" lon="3.8108">
        <ele>34</ele>
        <time>2021-01-01T09:56:57Z</time>
      </trkpt>
      <trkpt lat="43.62392" lon="3.81085">
        <ele>34</ele>
        <time>2021-01-01T09:57:00Z</time>
      </trkpt>
      <trkpt lat="43.62392" lon="3.81092">
        <ele>34</ele>
        <time>2021-01-01T09:57:02Z</time>
      </trkpt>
      <trkpt lat="43.62392" lon="3.811">
        <ele>35</ele>
        <time>2021-01-01T09:57:04Z</time>
      </trkpt>
      <trkpt lat="43.62393" lon="3.81107">
        <ele>36</ele>
        <time>2021-01-01T09:57:06Z</time>
      </trkpt>
      <trkpt lat="43.62395" lon="3.81113">
        <ele>37</ele>
        <time>2021-01-01T09:57:08Z</time>
      </trkpt>
      <trkpt lat="43.62396" lon="3.81121">
        <ele>37</ele>
        <time>2021-01-01T09:57:10Z</time>
      </trkpt>
      <trkpt lat="43.62397" lon="3.81127">
        <ele>38</ele>
        <time>2021-01-01T09:57:12Z</time>
      </trkpt>
      <trkpt lat="43.62397" lon="3.81133">
        <ele>39</ele>
        <time>2021-01-01T09:57:14Z</time>
      </trkpt>
      <trkpt lat="43.62395" lon="3.81141">
        <ele>39</ele>
        <time>2021-01-01T09:57:17Z</time>
      </trkpt>
      <trkpt lat="43.62389" lon="3.81141">
        <ele>39</ele>
        <time>2021-01-01T09:57:19Z</time>
      </trkpt>
      <trkpt lat="43.6238" lon="3.81138">
        <ele>40</ele>
        <time>2021-01-01T09:57:21Z</time>
      </trkpt>
      <trkpt lat="43.62373" lon="3.8114">
        <ele>40</ele>
        <time>2021-01-01T09:57:23Z</time>
      </trkpt>
      <trkpt lat="43.62366" lon="3.81143">
        <ele>40</ele>
        <time>2021-01-01T09:57:25Z</time>
      </trkpt>
      <trkpt lat="43.62358" lon="3.81148">
        <ele>40</ele>
        <time>2021-01-01T09:57:27Z</time>
      </trkpt>
      <trkpt lat="43.62354" lon="3.81151">
        <ele>40</ele>
        <time>2021-01-01T09:57:28Z</time>
      </trkpt>
      <trkpt lat="43.62347" lon="3.81158">
        <ele>40</ele>
        <time>2021-01-01T09:57:30Z</time>
      </trkpt>
      <trkpt lat="43.62344" lon="3.81163">
        <ele>40</ele>
        <time>2021-01-01T09:57:31Z</time>
      </trkpt>
      <trkpt lat="43.62339" lon="3.81172">
        <ele>40</ele>
        <time>2021-01-01T09:57:33Z</time>
      </trkpt>
      <trkpt lat="43.62334" lon="3.81183">
        <ele>41</ele>
        <time>2021-01-01T09:57:35Z</time>
      </trkpt>
      <trkpt lat="43.6233" lon="3.81188">
        <ele>41</ele>
        <time>2021-01-01T09:57:36Z</time>
      </trkpt>
      <trkpt lat="43.62326" lon="3.81193">
        <ele>41</ele>
        <time>2021-01-01T09:57:37Z</time>
      </trkpt>
      <trkpt lat="43.62323" lon="3.81198">
        <ele>41</ele>
        <time>2021-01-01T09:57:38Z</time>
      </trkpt>
      <trkpt lat="43.62318" lon="3.81201">
        <ele>41</ele>
        <time>2021-01-01T09:57:39Z</time>
      </trkpt>
      <trkpt lat="43.62314" lon="3.81205">
        <ele>40</ele>
        <time>2021-01-01T09:57:40Z</time>
      </trkpt>
      <trkpt lat="43.62309" lon="3.81212">
        <ele>40</ele>
        <time>2021-01-01T09:57:42Z</time>
      </trkpt>
      <trkpt lat="43.62309" lon="3.8122">
        <ele>40</ele>
        <time>2021-01-01T09:57:44Z</time>
      </trkpt>
      <trkpt lat="43.62302" lon="3.8123">
        <ele>39</ele>
        <time>2021-01-01T09:57:46Z</time>
      </trkpt>
      <trkpt lat="43.62299" lon="3.81235">
        <ele>39</ele>
        <time>2021-01-01T09:57:48Z</time>
      </trkpt>
      <trkpt lat="43.62293" lon="3.81243">
        <ele>39</ele>
        <time>2021-01-01T09:57:50Z</time>
      </trkpt>
      <trkpt lat="43.62289" lon="3.81249">
        <ele>39</ele>
        <time>2021-01-01T09:57:51Z</time>
      </trkpt>
      <trkpt lat="43.62282" lon="3.81262">
        <ele>39</ele>
        <time>2021-01-01T09:57:52Z</time>
      </trkpt>
      <trkpt lat="43.62278" lon="3.81268">
        <ele>39</ele>
        <time>2021-01-01T09:57:53Z</time>
      </trkpt>
      <trkpt lat="43.62272" lon="3.81279">
        <ele>39</ele>
        <time>2021-01-01T09:57:55Z</time>
      </trkpt>
      <trkpt lat="43.62269" lon="3.81284">
        <ele>39</ele>
        <time>2021-01-01T09:57:56Z</time>
      </trkpt>
      <trkpt lat="43.62264" lon="3.81288">
        <ele>39</ele>
        <time>2021-01-01T09:57:57Z</time>
      </trkpt>
      <trkpt lat="43.6226" lon="3.81298">
        <ele>39</ele>
        <time>2021-01-01T09:57:59Z</time>
      </trkpt>
      <trkpt lat="43.62256" lon="3.81304">
        <ele>39</ele>
        <time>2021-01-01T09:58:00Z</time>
      </trkpt>
      <trkpt lat="43.62252" lon="3.81309">
        <ele>39</ele>
        <time>2021-01-01T09:58:01Z</time>
      </trkpt>
      <trkpt lat="43.62246" lon="3.81313">
        <ele>39</ele>
        <time>2021-01-01T09:58:02Z</time>
      </trkpt>
      <trkpt lat="43.62243" lon="3.81319">
        <ele>40</ele>
        <time>2021-01-01T09:58:03Z</time>
      </trkpt>
      <trkpt lat="43.6224" lon="3.81325">
        <ele>40</ele>
        <time>2021-01-01T09:58:04Z</time>
      </trkpt>
      <trkpt lat="43.62236" lon="3.8133">
        <ele>40</ele>
        <time>2021-01-01T09:58:05Z</time>
      </trkpt>
      <trkpt lat="43.62233" lon="3.81336">
        <ele>41</ele>
        <time>2021-01-01T09:58:06Z</time>
      </trkpt>
      <trkpt lat="43.6223" lon="3.81341">
        <ele>41</ele>
        <time>2021-01-01T09:58:07Z</time>
      </trkpt>
      <trkpt lat="43.62227" lon="3.81346">
        <ele>42</ele>
        <time>2021-01-01T09:58:08Z</time>
      </trkpt>
      <trkpt lat="43.62224" lon="3.81352">
        <ele>42</ele>
        <time>2021-01-01T09:58:09Z</time>
      </trkpt>
      <trkpt lat="43.62222" lon="3.81358">
        <ele>43</ele>
        <time>2021-01-01T09:58:10Z</time>
      </trkpt>
      <trkpt lat="43.62219" lon="3.81364">
        <ele>43</ele>
        <time>2021-01-01T09:58:11Z</time>
      </trkpt>
      <trkpt lat="43.62213" lon="3.81373">
        <ele>43</ele>
        <time>2021-01-01T09:58:13Z</time>
      </trkpt>
      <trkpt lat="43.62208" lon="3.81382">
        <ele>42</ele>
        <time>2021-01-01T09:58:15Z</time>
      </trkpt>
      <trkpt lat="43.62204" lon="3.81391">
        <ele>42</ele>
        <time>2021-01-01T09:58:17Z</time>
      </trkpt>
      <trkpt lat="43.62198" lon="3.81401">
        <ele>41</ele>
        <time>2021-01-01T09:58:19Z</time>
      </trkpt>
      <trkpt lat="43.62196" lon="3.81406">
        <ele>41</ele>
        <time>2021-01-01T09:58:20Z</time>
      </trkpt>
      <trkpt lat="43.6219" lon="3.81415">
        <ele>41</ele>
        <time>2021-01-01T09:58:22Z</time>
      </trkpt>
      <trkpt lat="43.62184" lon="3.81424">
        <ele>42</ele>
        <time>2021-01-01T09:58:24Z</time>
      </trkpt>
      <trkpt lat="43.62179" lon="3.81434">
        <ele>43</ele>
        <time>2021-01-01T09:58:26Z</time>
      </trkpt>
      <trkpt lat="43.62177" lon="3.8144">
        <ele>43</ele>
        <time>2021-01-01T09:58:28Z</time>
      </trkpt>
      <trkpt lat="43.62173" lon="3.81445">
        <ele>43</ele>
        <time>2021-01-01T09:58:30Z</time>
      </trkpt>
      <trkpt lat="43.62169" lon="3.81452">
        <ele>44</ele>
        <time>2021-01-01T09:58:31Z</time>
      </trkpt>
      <trkpt lat="43.62166" lon="3.81458">
        <ele>44</ele>
        <time>2021-01-01T09:58:32Z</time>
      </trkpt>
      <trkpt lat="43.62162" lon="3.81464">
        <ele>43</ele>
        <time>2021-01-01T09:58:33Z</time>
      </trkpt>
      <trkpt lat="43.62158" lon="3.8147">
        <ele>43</ele>
        <time>2021-01-01T09:58:34Z</time>
      </trkpt>
      <trkpt lat="43.62151" lon="3.81479">
        <ele>43</ele>
        <time>2021-01-01T09:58:35Z</time>
      </trkpt>
      <trkpt lat="43.62147" lon="3.81485">
        <ele>43</ele>
        <time>2021-01-01T09:58:37Z</time>
      </trkpt>
      <trkpt lat="43.62142" lon="3.81492">
        <ele>42</ele>
        <time>2021-01-01T09:58:39Z</time>
      </trkpt>
      <trkpt lat="43.62136" lon="3.815">
        <ele>42</ele>
        <time>2021-01-01T09:58:41Z</time>
      </trkpt>
      <trkpt lat="43.62133" lon="3.81505">
        <ele>42</ele>
        <time>2021-01-01T09:58:42Z</time>
      </trkpt>
      <trkpt lat="43.6213" lon="3.81512">
        <ele>41</ele>
        <time>2021-01-01T09:58:45Z</time>
      </trkpt>
      <trkpt lat="43.62125" lon="3.81521">
        <ele>41</ele>
        <time>2021-01-01T09:58:46Z</time>
      </trkpt>
      <trkpt lat="43.62119" lon="3.8153">
        <ele>41</ele>
        <time>2021-01-01T09:58:47Z</time>
      </trkpt>
      <trkpt lat="43.62116" lon="3.81534">
        <ele>41</ele>
        <time>2021-01-01T09:58:48Z</time>
      </trkpt>
      <trkpt lat="43.62112" lon="3.8154">
        <ele>41</ele>
        <time>2021-01-01T09:58:49Z</time>
      </trkpt>
      <trkpt lat="43.62111" lon="3.81546">
        <ele>41</ele>
        <time>2021-01-01T09:58:50Z</time>
      </trkpt>
      <trkpt lat="43.62105" lon="3.81555">
        <ele>41</ele>
        <time>2021-01-01T09:58:52Z</time>
      </trkpt>
      <trkpt lat="43.621" lon="3.81564">
        <ele>41</ele>
        <time>2021-01-01T09:58:54Z</time>
      </trkpt>
      <trkpt lat="43.62093" lon="3.81573">
        <ele>41</ele>
        <time>2021-01-01T09:58:56Z</time>
      </trkpt>
      <trkpt lat="43.6209" lon="3.81577">
        <ele>42</ele>
        <time>2021-01-01T09:58:57Z</time>
      </trkpt>
      <trkpt lat="43.62085" lon="3.8158">
        <ele>42</ele>
        <time>2021-01-01T09:58:58Z</time>
      </trkpt>
      <trkpt lat="43.62082" lon="3.81584">
        <ele>42</ele>
        <time>2021-01-01T09:58:59Z</time>
      </trkpt>
      <trkpt lat="43.62076" lon="3.81587">
        <ele>42</ele>
        <time>2021-01-01T09:59:01Z</time>
      </trkpt>
      <trkpt lat="43.62071" lon="3.81589">
        <ele>41</ele>
        <time>2021-01-01T09:59:02Z</time>
      </trkpt>
      <trkpt lat="43.62067" lon="3.81593">
        <ele>41</ele>
        <time>2021-01-01T09:59:03Z</time>
      </trkpt>
      <trkpt lat="43.62063" lon="3.81596">
        <ele>40</ele>
        <time>2021-01-01T09:59:04Z</time>
      </trkpt>
      <trkpt lat="43.62055" lon="3.81603">
        <ele>40</ele>
        <time>2021-01-01T09:59:06Z</time>
      </trkpt>
      <trkpt lat="43.6205" lon="3.8161">
        <ele>40</ele>
        <time>2021-01-01T09:59:08Z</time>
      </trkpt>
      <trkpt lat="43.62045" lon="3.81612">
        <ele>40</ele>
        <time>2021-01-01T09:59:09Z</time>
      </trkpt>
      <trkpt lat="43.62039" lon="3.81613">
        <ele>40</ele>
        <time>2021-01-01T09:59:13Z</time>
      </trkpt>
      <trkpt lat="43.62032" lon="3.81616">
        <ele>39</ele>
        <time>2021-01-01T09:59:14Z</time>
      </trkpt>
      <trkpt lat="43.62027" lon="3.81617">
        <ele>39</ele>
        <time>2021-01-01T09:59:15Z</time>
      </trkpt>
      <trkpt lat="43.62021" lon="3.81619">
        <ele>39</ele>
        <time>2021-01-01T09:59:16Z</time>
      </trkpt>
      <trkpt lat="43.62015" lon="3.81623">
        <ele>39</ele>
        <time>2021-01-01T09:59:17Z</time>
      </trkpt>
      <trkpt lat="43.62009" lon="3.81626">
        <ele>38</ele>
        <time>2021-01-01T09:59:18Z</time>
      </trkpt>
      <trkpt lat="43.62004" lon="3.81627">
        <ele>46</ele>
        <time>2021-01-01T09:59:19Z</time>
      </trkpt>
      <trkpt lat="43.61998" lon="3.81629">
        <ele>51</ele>
        <time>2021-01-01T09:59:20Z</time>
      </trkpt>
      <trkpt lat="43.61984" lon="3.81632">
        <ele>54</ele>
        <time>2021-01-01T09:59:22Z</time>
      </trkpt>
      <trkpt lat="43.61977" lon="3.81634">
        <ele>54</ele>
        <time>2021-01-01T09:59:24Z</time>
      </trkpt>
      <trkpt lat="43.61971" lon="3.81637">
        <ele>54</ele>
        <time>2021-01-01T09:59:25Z</time>
      </trkpt>
      <trkpt lat="43.61966" lon="3.8164">
        <ele>46</ele>
        <time>2021-01-01T09:59:26Z</time>
      </trkpt>
      <trkpt lat="43.61961" lon="3.81642">
        <ele>40</ele>
        <time>2021-01-01T09:59:27Z</time>
      </trkpt>
      <trkpt lat="43.61955" lon="3.81645">
        <ele>36</ele>
        <time>2021-01-01T09:59:28Z</time>
      </trkpt>
      <trkpt lat="43.61951" lon="3.81647">
        <ele>35</ele>
        <time>2021-01-01T09:59:29Z</time>
      </trkpt>
      <trkpt lat="43.61946" lon="3.81651">
        <ele>35</ele>
        <time>2021-01-01T09:59:30Z</time>
      </trkpt>
      <trkpt lat="43.6194" lon="3.81654">
        <ele>35</ele>
        <time>2021-01-01T09:59:31Z</time>
      </trkpt>
      <trkpt lat="43.61936" lon="3.81655">
        <ele>35</ele>
        <time>2021-01-01T09:59:32Z</time>
      </trkpt>
      <trkpt lat="43.61932" lon="3.81657">
        <ele>35</ele>
        <time>2021-01-01T09:59:33Z</time>
      </trkpt>
      <trkpt lat="43.61927" lon="3.8166">
        <ele>36</ele>
        <time>2021-01-01T09:59:34Z</time>
      </trkpt>
      <trkpt lat="43.61922" lon="3.81663">
        <ele>36</ele>
        <time>2021-01-01T09:59:35Z</time>
      </trkpt>
      <trkpt lat="43.61913" lon="3.81667">
        <ele>36</ele>
        <time>2021-01-01T09:59:37Z</time>
      </trkpt>
      <trkpt lat="43.61906" lon="3.81671">
        <ele>37</ele>
        <time>2021-01-01T09:59:39Z</time>
      </trkpt>
      <trkpt lat="43.619" lon="3.81675">
        <ele>37</ele>
        <time>2021-01-01T09:59:41Z</time>
      </trkpt>
      <trkpt lat="43.61894" lon="3.81678">
        <ele>37</ele>
        <time>2021-01-01T09:59:43Z</time>
      </trkpt>
      <trkpt lat="43.61889" lon="3.81679">
        <ele>38</ele>
        <time>2021-01-01T09:59:46Z</time>
      </trkpt>
      <trkpt lat="43.61894" lon="3.81679">
        <ele>39</ele>
        <time>2021-01-01T09:59:51Z</time>
      </trkpt>
      <trkpt lat="43.61898" lon="3.81675">
        <ele>38</ele>
        <time>2021-01-01T09:59:55Z</time>
      </trkpt>
      <trkpt lat="43.61903" lon="3.8168">
        <ele>37</ele>
        <time>2021-01-01T09:59:58Z</time>
      </trkpt>
      <trkpt lat="43.61907" lon="3.81688">
        <ele>36</ele>
        <time>2021-01-01T10:00:00Z</time>
      </trkpt>
      <trkpt lat="43.6191" lon="3.81698">
        <ele>35</ele>
        <time>2021-01-01T10:00:02Z</time>
      </trkpt>
      <trkpt lat="43.61912" lon="3.81706">
        <ele>34</ele>
        <time>2021-01-01T10:00:04Z</time>
      </trkpt>
      <trkpt lat="43.61914" lon="3.81714">
        <ele>33</ele>
        <time>2021-01-01T10:00:06Z</time>
      </trkpt>
      <trkpt lat="43.61915" lon="3.8172">
        <ele>33</ele>
        <time>2021-01-01T10:00:10Z</time>
      </trkpt>
      <trkpt lat="43.61917" lon="3.81728">
        <ele>33</ele>
        <time>2021-01-01T10:00:14Z</time>
      </trkpt>
      <trkpt lat="43.61921" lon="3.81728">
        <ele>34</ele>
        <time>2021-01-01T10:00:16Z</time>
      </trkpt>
      <trkpt lat="43.61926" lon="3.81725">
        <ele>34</ele>
        <time>2021-01-01T10:00:18Z</time>
      </trkpt>
      <trkpt lat="43.61931" lon="3.81722">
        <ele>35</ele>
        <time>2021-01-01T10:00:20Z</time>
      </trkpt>
      <trkpt lat="43.61935" lon="3.81719">
        <ele>36</ele>
        <time>2021-01-01T10:00:22Z</time>
      </trkpt>
      <trkpt lat="43.6194" lon="3.81715">
        <ele>37</ele>
        <time>2021-01-01T10:00:25Z</time>
      </trkpt>
      <trkpt lat="43.61946" lon="3.8171">
        <ele>37</ele>
        <time>2021-01-01T10:00:28Z</time>
      </trkpt>
      <trkpt lat="43.61952" lon="3.81709">
        <ele>37</ele>
        <time>2021-01-01T10:00:31Z</time>
      </trkpt>
      <trkpt lat="43.61957" lon="3.81712">
        <ele>37</ele>
        <time>2021-01-01T10:00:34Z</time>
      </trkpt>
      <trkpt lat="43.6196" lon="3.81719">
        <ele>38</ele>
        <time>2021-01-01T10:00:37Z</time>
      </trkpt>
      <trkpt lat="43.61956" lon="3.81726">
        <ele>38</ele>
        <time>2021-01-01T10:00:39Z</time>
      </trkpt>
      <trkpt lat="43.6195" lon="3.81731">
        <ele>38</ele>
        <time>2021-01-01T10:00:41Z</time>
      </trkpt>
      <trkpt lat="43.61943" lon="3.81734">
        <ele>39</ele>
        <time>2021-01-01T10:00:43Z</time>
      </trkpt>
      <trkpt lat="43.61938" lon="3.81735">
        <ele>39</ele>
        <time>2021-01-01T10:00:44Z</time>
      </trkpt>
      <trkpt lat="43.61932" lon="3.8174">
        <ele>40</ele>
        <time>2021-01-01T10:00:46Z</time>
      </trkpt>
      <trkpt lat="43.61925" lon="3.81743">
        <ele>40</ele>
        <time>2021-01-01T10:00:48Z</time>
      </trkpt>
      <trkpt lat="43.61919" lon="3.81747">
        <ele>40</ele>
        <time>2021-01-01T10:00:50Z</time>
      </trkpt>
      <trkpt lat="43.61913" lon="3.81752">
        <ele>40</ele>
        <time>2021-01-01T10:00:52Z</time>
      </trkpt>
      <trkpt lat="43.61907" lon="3.81758">
        <ele>40</ele>
        <time>2021-01-01T10:00:54Z</time>
      </trkpt>
      <trkpt lat="43.61902" lon="3.81764">
        <ele>40</ele>
        <time>2021-01-01T10:00:56Z</time>
      </trkpt>
      <trkpt lat="43.61896" lon="3.81772">
        <ele>40</ele>
        <time>2021-01-01T10:00:58Z</time>
      </trkpt>
      <trkpt lat="43.6189" lon="3.81777">
        <ele>39</ele>
        <time>2021-01-01T10:01:00Z</time>
      </trkpt>
      <trkpt lat="43.61883" lon="3.81781">
        <ele>39</ele>
        <time>2021-01-01T10:01:02Z</time>
      </trkpt>
      <trkpt lat="43.61876" lon="3.81783">
        <ele>39</ele>
        <time>2021-01-01T10:01:04Z</time>
      </trkpt>
      <trkpt lat="43.61869" lon="3.81788">
        <ele>38</ele>
        <time>2021-01-01T10:01:06Z</time>
      </trkpt>
      <trkpt lat="43.61862" lon="3.81796">
        <ele>37</ele>
        <time>2021-01-01T10:01:08Z</time>
      </trkpt>
      <trkpt lat="43.61858" lon="3.81799">
        <ele>37</ele>
        <time>2021-01-01T10:01:09Z</time>
      </trkpt>
      <trkpt lat="43.61854" lon="3.81803">
        <ele>37</ele>
        <time>2021-01-01T10:01:10Z</time>
      </trkpt>
      <trkpt lat="43.61848" lon="3.81811">
        <ele>37</ele>
        <time>2021-01-01T10:01:12Z</time>
      </trkpt>
      <trkpt lat="43.61841" lon="3.81819">
        <ele>37</ele>
        <time>2021-01-01T10:01:14Z</time>
      </trkpt>
      <trkpt lat="43.61835" lon="3.81825">
        <ele>36</ele>
        <time>2021-01-01T10:01:16Z</time>
      </trkpt>
      <trkpt lat="43.61831" lon="3.81831">
        <ele>36</ele>
        <time>2021-01-01T10:01:18Z</time>
      </trkpt>
      <trkpt lat="43.61826" lon="3.81837">
        <ele>36</ele>
        <time>2021-01-01T10:01:20Z</time>
      </trkpt>
      <trkpt lat="43.61819" lon="3.81844">
        <ele>36</ele>
        <time>2021-01-01T10:01:22Z</time>
      </trkpt>
      <trkpt lat="43.61815" lon="3.81847">
        <ele>36</ele>
        <time>2021-01-01T10:01:23Z</time>
      </trkpt>
      <trkpt lat="43.61811" lon="3.81851">
        <ele>37</ele>
        <time>2021-01-01T10:01:24Z</time>
      </trkpt>
      <trkpt lat="43.61808" lon="3.81856">
        <ele>37</ele>
        <time>2021-01-01T10:01:25Z</time>
      </trkpt>
      <trkpt lat="43.61802" lon="3.81861">
        <ele>37</ele>
        <time>2021-01-01T10:01:26Z</time>
      </trkpt>
      <trkpt lat="43.61796" lon="3.81867">
        <ele>37</ele>
        <time>2021-01-01T10:01:28Z</time>
      </trkpt>
      <trkpt lat="43.61791" lon="3.81873">
        <ele>38</ele>
        <time>2021-01-01T10:01:30Z</time>
      </trkpt>
      <trkpt lat="43.61786" lon="3.81876">
        <ele>38</ele>
        <time>2021-01-01T10:01:32Z</time>
      </trkpt>
      <trkpt lat="43.61779" lon="3.81875">
        <ele>38</ele>
        <time>2021-01-01T10:01:34Z</time>
      </trkpt>
      <trkpt lat="43.61774" lon="3.81868">
        <ele>38</ele>
        <time>2021-01-01T10:01:36Z</time>
      </trkpt>
      <trkpt lat="43.61768" lon="3.81862">
        <ele>38</ele>
        <time>2021-01-01T10:01:38Z</time>
      </trkpt>
      <trkpt lat="43.61761" lon="3.81861">
        <ele>39</ele>
        <time>2021-01-01T10:01:40Z</time>
      </trkpt>
      <trkpt lat="43.61754" lon="3.81857">
        <ele>38</ele>
        <time>2021-01-01T10:01:42Z</time>
      </trkpt>
      <trkpt lat="43.61749" lon="3.81848">
        <ele>38</ele>
        <time>2021-01-01T10:01:44Z</time>
      </trkpt>
      <trkpt lat="43.61744" lon="3.8184">
        <ele>38</ele>
        <time>2021-01-01T10:01:46Z</time>
      </trkpt>
      <trkpt lat="43.61739" lon="3.8183">
        <ele>38</ele>
        <time>2021-01-01T10:01:48Z</time>
      </trkpt>
      <trkpt lat="43.61733" lon="3.8182">
        <ele>37</ele>
        <time>2021-01-01T10:01:50Z</time>
      </trkpt>
      <trkpt lat="43.6173" lon="3.81807">
        <ele>37</ele>
        <time>2021-01-01T10:01:52Z</time>
      </trkpt>
      <trkpt lat="43.61729" lon="3.81801">
        <ele>36</ele>
        <time>2021-01-01T10:01:53Z</time>
      </trkpt>
      <trkpt lat="43.61726" lon="3.81794">
        <ele>36</ele>
        <time>2021-01-01T10:01:54Z</time>
      </trkpt>
      <trkpt lat="43.61724" lon="3.81787">
        <ele>35</ele>
        <time>2021-01-01T10:01:55Z</time>
      </trkpt>
      <trkpt lat="43.61721" lon="3.81781">
        <ele>35</ele>
        <time>2021-01-01T10:01:56Z</time>
      </trkpt>
      <trkpt lat="43.61715" lon="3.81775">
        <ele>34</ele>
        <time>2021-01-01T10:01:58Z</time>
      </trkpt>
      <trkpt lat="43.61708" lon="3.8177">
        <ele>34</ele>
        <time>2021-01-01T10:02:00Z</time>
      </trkpt>
      <trkpt lat="43.61702" lon="3.81763">
        <ele>34</ele>
        <time>2021-01-01T10:02:02Z</time>
      </trkpt>
      <trkpt lat="43.61693" lon="3.81765">
        <ele>33</ele>
        <time>2021-01-01T10:02:04Z</time>
      </trkpt>
      <trkpt lat="43.61685" lon="3.81769">
        <ele>33</ele>
        <time>2021-01-01T10:02:06Z</time>
      </trkpt>
      <trkpt lat="43.6168" lon="3.81772">
        <ele>33</ele>
        <time>2021-01-01T10:02:07Z</time>
      </trkpt>
      <trkpt lat="43.61675" lon="3.81774">
        <ele>33</ele>
        <time>2021-01-01T10:02:08Z</time>
      </trkpt>
      <trkpt lat="43.6167" lon="3.81777">
        <ele>33</ele>
        <time>2021-01-01T10:02:09Z</time>
      </trkpt>
      <trkpt lat="43.61663" lon="3.81781">
        <ele>32</ele>
        <time>2021-01-01T10:02:11Z</time>
      </trkpt>
      <trkpt lat="43.61659" lon="3.81783">
        <ele>32</ele>
        <time>2021-01-01T10:02:12Z</time>
      </trkpt>
      <trkpt lat="43.61654" lon="3.81786">
        <ele>32</ele>
        <time>2021-01-01T10:02:13Z</time>
      </trkpt>
      <trkpt lat="43.6165" lon="3.81787">
        <ele>32</ele>
        <time>2021-01-01T10:02:14Z</time>
      </trkpt>
      <trkpt lat="43.61645" lon="3.81789">
        <ele>32</ele>
        <time>2021-01-01T10:02:15Z</time>
      </trkpt>
      <trkpt lat="43.61638" lon="3.81794">
        <ele>33</ele>
        <time>2021-01-01T10:02:17Z</time>
      </trkpt>
      <trkpt lat="43.61631" lon="3.81799">
        <ele>33</ele>
        <time>2021-01-01T10:02:19Z</time>
      </trkpt>
      <trkpt lat="43.61624" lon="3.81802">
        <ele>33</ele>
        <time>2021-01-01T10:02:21Z</time>
      </trkpt>
      <trkpt lat="43.61617" lon="3.81805">
        <ele>33</ele>
        <time>2021-01-01T10:02:23Z</time>
      </trkpt>
      <trkpt lat="43.61609" lon="3.81809">
        <ele>33</ele>
        <time>2021-01-01T10:02:25Z</time>
      </trkpt>
      <trkpt lat="43.61602" lon="3.81813">
        <ele>33</ele>
        <time>2021-01-01T10:02:27Z</time>
      </trkpt>
      <trkpt lat="43.61594" lon="3.81816">
        <ele>33</ele>
        <time>2021-01-01T10:02:29Z</time>
      </trkpt>
      <trkpt lat="43.61587" lon="3.81818">
        <ele>33</ele>
        <time>2021-01-01T10:02:31Z</time>
      </trkpt>
      <trkpt lat="43.6158" lon="3.81818">
        <ele>33</ele>
        <time>2021-01-01T10:02:33Z</time>
      </trkpt>
      <trkpt lat="43.61571" lon="3.81814">
        <ele>34</ele>
        <time>2021-01-01T10:02:35Z</time>
      </trkpt>
      <trkpt lat="43.61563" lon="3.81809">
        <ele>34</ele>
        <time>2021-01-01T10:02:37Z</time>
      </trkpt>
      <trkpt lat="43.6156" lon="3.81805">
        <ele>35</ele>
        <time>2021-01-01T10:02:38Z</time>
      </trkpt>
      <trkpt lat="43.61554" lon="3.81795">
        <ele>35</ele>
        <time>2021-01-01T10:02:40Z</time>
      </trkpt>
      <trkpt lat="43.61551" lon="3.81784">
        <ele>36</ele>
        <time>2021-01-01T10:02:42Z</time>
      </trkpt>
      <trkpt lat="43.61549" lon="3.81773">
        <ele>36</ele>
        <time>2021-01-01T10:02:44Z</time>
      </trkpt>
      <trkpt lat="43.61547" lon="3.81762">
        <ele>36</ele>
        <time>2021-01-01T10:02:46Z</time>
      </trkpt>
      <trkpt lat="43.61544" lon="3.81751">
        <ele>37</ele>
        <time>2021-01-01T10:02:48Z</time>
      </trkpt>
      <trkpt lat="43.61541" lon="3.8174">
        <ele>37</ele>
        <time>2021-01-01T10:02:50Z</time>
      </trkpt>
      <trkpt lat="43.61538" lon="3.8173">
        <ele>37</ele>
        <time>2021-01-01T10:02:52Z</time>
      </trkpt>
      <trkpt lat="43.61536" lon="3.81718">
        <ele>37</ele>
        <time>2021-01-01T10:02:54Z</time>
      </trkpt>
      <trkpt lat="43.61533" lon="3.81707">
        <ele>36</ele>
        <time>2021-01-01T10:02:56Z</time>
      </trkpt>
      <trkpt lat="43.61531" lon="3.817">
        <ele>36</ele>
        <time>2021-01-01T10:02:57Z</time>
      </trkpt>
      <trkpt lat="43.61527" lon="3.81689">
        <ele>36</ele>
        <time>2021-01-01T10:02:59Z</time>
      </trkpt>
      <trkpt lat="43.61525" lon="3.81683">
        <ele>35</ele>
        <time>2021-01-01T10:03:00Z</time>
      </trkpt>
      <trkpt lat="43.61524" lon="3.81676">
        <ele>35</ele>
        <time>2021-01-01T10:03:01Z</time>
      </trkpt>
      <trkpt lat="43.61522" lon="3.8167">
        <ele>35</ele>
        <time>2021-01-01T10:03:02Z</time>
      </trkpt>
      <trkpt lat="43.6152" lon="3.81663">
        <ele>34</ele>
        <time>2021-01-01T10:03:03Z</time>
      </trkpt>
      <trkpt lat="43.61517" lon="3.81656">
        <ele>34</ele>
        <time>2021-01-01T10:03:04Z</time>
      </trkpt>
      <trkpt lat="43.61515" lon="3.8165">
        <ele>34</ele>
        <time>2021-01-01T10:03:05Z</time>
      </trkpt>
      <trkpt lat="43.61513" lon="3.81643">
        <ele>33</ele>
        <time>2021-01-01T10:03:06Z</time>
      </trkpt>
      <trkpt lat="43.61512" lon="3.81637">
        <ele>33</ele>
        <time>2021-01-01T10:03:07Z</time>
      </trkpt>
      <trkpt lat="43.61511" lon="3.81631">
        <ele>33</ele>
        <time>2021-01-01T10:03:08Z</time>
      </trkpt>
      <trkpt lat="43.61509" lon="3.81624">
        <ele>33</ele>
        <time>2021-01-01T10:03:10Z</time>
      </trkpt>
      <trkpt lat="43.61504" lon="3.81622">
        <ele>32</ele>
        <time>2021-01-01T10:03:13Z</time>
      </trkpt>
      <trkpt lat="43.61499" lon="3.81623">
        <ele>32</ele>
        <time>2021-01-01T10:03:15Z</time>
      </trkpt>
      <trkpt lat="43.61494" lon="3.81625">
        <ele>32</ele>
        <time>2021-01-01T10:03:17Z</time>
      </trkpt>
      <trkpt lat="43.61488" lon="3.81624">
        <ele>31</ele>
        <time>2021-01-01T10:03:20Z</time>
      </trkpt>
      <trkpt lat="43.61486" lon="3.81616">
        <ele>31</ele>
        <time>2021-01-01T10:03:23Z</time>
      </trkpt>
      <trkpt lat="43.61484" lon="3.81607">
        <ele>31</ele>
        <time>2021-01-01T10:03:25Z</time>
      </trkpt>
      <trkpt lat="43.61481" lon="3.81597">
        <ele>31</ele>
        <time>2021-01-01T10:03:27Z</time>
      </trkpt>
      <trkpt lat="43.61479" lon="3.81589">
        <ele>31</ele>
        <time>2021-01-01T10:03:29Z</time>
      </trkpt>
      <trkpt lat="43.61477" lon="3.8158">
        <ele>31</ele>
        <time>2021-01-01T10:03:31Z</time>
      </trkpt>
      <trkpt lat="43.61475" lon="3.81573">
        <ele>31</ele>
        <time>2021-01-01T10:03:34Z</time>
      </trkpt>
      <trkpt lat="43.61472" lon="3.81569">
        <ele>31</ele>
        <time>2021-01-01T10:03:38Z</time>
      </trkpt>
      <trkpt lat="43.61466" lon="3.81566">
        <ele>33</ele>
        <time>2021-01-01T10:03:43Z</time>
      </trkpt>
      <trkpt lat="43.61466" lon="3.81556">
        <ele>33</ele>
        <time>2021-01-01T10:03:46Z</time>
      </trkpt>
      <trkpt lat="43.61461" lon="3.81549">
        <ele>33</ele>
        <time>2021-01-01T10:03:49Z</time>
      </trkpt>
      <trkpt lat="43.61454" lon="3.81551">
        <ele>34</ele>
        <time>2021-01-01T10:03:52Z</time>
      </trkpt>
      <trkpt lat="43.61447" lon="3.81556">
        <ele>34</ele>
        <time>2021-01-01T10:03:53Z</time>
      </trkpt>
      <trkpt lat="43.61441" lon="3.8156">
        <ele>32</ele>
        <time>2021-01-01T10:03:55Z</time>
      </trkpt>
      <trkpt lat="43.61433" lon="3.81563">
        <ele>32</ele>
        <time>2021-01-01T10:03:57Z</time>
      </trkpt>
      <trkpt lat="43.61425" lon="3.81567">
        <ele>32</ele>
        <time>2021-01-01T10:03:59Z</time>
      </trkpt>
      <trkpt lat="43.6142" lon="3.8157">
        <ele>32</ele>
        <time>2021-01-01T10:04:00Z</time>
      </trkpt>
      <trkpt lat="43.61416" lon="3.81572">
        <ele>32</ele>
        <time>2021-01-01T10:04:01Z</time>
      </trkpt>
      <trkpt lat="43.61406" lon="3.81574">
        <ele>32</ele>
        <time>2021-01-01T10:04:03Z</time>
      </trkpt>
      <trkpt lat="43.614" lon="3.81576">
        <ele>33</ele>
        <time>2021-01-01T10:04:04Z</time>
      </trkpt>
      <trkpt lat="43.61395" lon="3.81578">
        <ele>33</ele>
        <time>2021-01-01T10:04:05Z</time>
      </trkpt>
      <trkpt lat="43.61391" lon="3.8158">
        <ele>34</ele>
        <time>2021-01-01T10:04:06Z</time>
      </trkpt>
      <trkpt lat="43.61385" lon="3.81582">
        <ele>34</ele>
        <time>2021-01-01T10:04:07Z</time>
      </trkpt>
      <trkpt lat="43.6138" lon="3.81584">
        <ele>34</ele>
        <time>2021-01-01T10:04:08Z</time>
      </trkpt>
      <trkpt lat="43.61374" lon="3.81587">
        <ele>35</ele>
        <time>2021-01-01T10:04:09Z</time>
      </trkpt>
      <trkpt lat="43.61369" lon="3.81588">
        <ele>35</ele>
        <time>2021-01-01T10:04:10Z</time>
      </trkpt>
      <trkpt lat="43.61364" lon="3.81588">
        <ele>35</ele>
        <time>2021-01-01T10:04:11Z</time>
      </trkpt>
      <trkpt lat="43.61358" lon="3.81589">
        <ele>35</ele>
        <time>2021-01-01T10:04:12Z</time>
      </trkpt>
      <trkpt lat="43.61353" lon="3.81589">
        <ele>35</ele>
        <time>2021-01-01T10:04:13Z</time>
      </trkpt>
      <trkpt lat="43.61347" lon="3.81589">
        <ele>35</ele>
        <time>2021-01-01T10:04:14Z</time>
      </trkpt>
      <trkpt lat="43.61342" lon="3.81588">
        <ele>36</ele>
        <time>2021-01-01T10:04:15Z</time>
      </trkpt>
      <trkpt lat="43.61332" lon="3.81587">
        <ele>35</ele>
        <time>2021-01-01T10:04:17Z</time>
      </trkpt>
      <trkpt lat="43.61327" lon="3.81585">
        <ele>35</ele>
        <time>2021-01-01T10:04:18Z</time>
      </trkpt>
      <trkpt lat="43.61321" lon="3.81583">
        <ele>35</ele>
        <time>2021-01-01T10:04:19Z</time>
      </trkpt>
      <trkpt lat="43.61317" lon="3.8158">
        <ele>35</ele>
        <time>2021-01-01T10:04:20Z</time>
      </trkpt>
      <trkpt lat="43.61311" lon="3.81577">
        <ele>35</ele>
        <time>2021-01-01T10:04:21Z</time>
      </trkpt>
      <trkpt lat="43.61305" lon="3.81573">
        <ele>35</ele>
        <time>2021-01-01T10:04:22Z</time>
      </trkpt>
      <trkpt lat="43.613" lon="3.81569">
        <ele>35</ele>
        <time>2021-01-01T10:04:23Z</time>
      </trkpt>
      <trkpt lat="43.61295" lon="3.81564">
        <ele>35</ele>
        <time>2021-01-01T10:04:24Z</time>
      </trkpt>
      <trkpt lat="43.6129" lon="3.81558">
        <ele>35</ele>
        <time>2021-01-01T10:04:25Z</time>
      </trkpt>
      <trkpt lat="43.61287" lon="3.81551">
        <ele>35</ele>
        <time>2021-01-01T10:04:26Z</time>
      </trkpt>
      <trkpt lat="43.61283" lon="3.81543">
        <ele>35</ele>
        <time>2021-01-01T10:04:27Z</time>
      </trkpt>
      <trkpt lat="43.61278" lon="3.81537">
        <ele>35</ele>
        <time>2021-01-01T10:04:28Z</time>
      </trkpt>
      <trkpt lat="43.61274" lon="3.8153">
        <ele>36</ele>
        <time>2021-01-01T10:04:29Z</time>
      </trkpt>
      <trkpt lat="43.61269" lon="3.81524">
        <ele>36</ele>
        <time>2021-01-01T10:04:30Z</time>
      </trkpt>
      <trkpt lat="43.61264" lon="3.81518">
        <ele>36</ele>
        <time>2021-01-01T10:04:31Z</time>
      </trkpt>
      <trkpt lat="43.61258" lon="3.81511">
        <ele>36</ele>
        <time>2021-01-01T10:04:32Z</time>
      </trkpt>
      <trkpt lat="43.61253" lon="3.81506">
        <ele>36</ele>
        <time>2021-01-01T10:04:33Z</time>
      </trkpt>
      <trkpt lat="43.61247" lon="3.81501">
        <ele>36</ele>
        <time>2021-01-01T10:04:34Z</time>
      </trkpt>
      <trkpt lat="43.61242" lon="3.81497">
        <ele>39</ele>
        <time>2021-01-01T10:04:35Z</time>
      </trkpt>
      <trkpt lat="43.61238" lon="3.81491">
        <ele>40</ele>
        <time>2021-01-01T10:04:36Z</time>
      </trkpt>
      <trkpt lat="43.61234" lon="3.81485">
        <ele>41</ele>
        <time>2021-01-01T10:04:37Z</time>
      </trkpt>
      <trkpt lat="43.61229" lon="3.81481">
        <ele>41</ele>
        <time>2021-01-01T10:04:38Z</time>
      </trkpt>
      <trkpt lat="43.61226" lon="3.81475">
        <ele>41</ele>
        <time>2021-01-01T10:04:39Z</time>
      </trkpt>
      <trkpt lat="43.61221" lon="3.81471">
        <ele>40</ele>
        <time>2021-01-01T10:04:40Z</time>
      </trkpt>
      <trkpt lat="43.61216" lon="3.81467">
        <ele>39</ele>
        <time>2021-01-01T10:04:41Z</time>
      </trkpt>
      <trkpt lat="43.6121" lon="3.81464">
        <ele>39</ele>
        <time>2021-01-01T10:04:42Z</time>
      </trkpt>
      <trkpt lat="43.61205" lon="3.81461">
        <ele>39</ele>
        <time>2021-01-01T10:04:43Z</time>
      </trkpt>
      <trkpt lat="43.61198" lon="3.8146">
        <ele>39</ele>
        <time>2021-01-01T10:04:44Z</time>
      </trkpt>
      <trkpt lat="43.61193" lon="3.81459">
        <ele>39</ele>
        <time>2021-01-01T10:04:45Z</time>
      </trkpt>
      <trkpt lat="43.61187" lon="3.81457">
        <ele>39</ele>
        <time>2021-01-01T10:04:46Z</time>
      </trkpt>
      <trkpt lat="43.61181" lon="3.81457">
        <ele>39</ele>
        <time>2021-01-01T10:04:47Z</time>
      </trkpt>
      <trkpt lat="43.61175" lon="3.81457">
        <ele>39</ele>
        <time>2021-01-01T10:04:48Z</time>
      </trkpt>
      <trkpt lat="43.61169" lon="3.81457">
        <ele>39</ele>
        <time>2021-01-01T10:04:49Z</time>
      </trkpt>
      <trkpt lat="43.61163" lon="3.8146">
        <ele>39</ele>
        <time>2021-01-01T10:04:50Z</time>
      </trkpt>
      <trkpt lat="43.61157" lon="3.81463">
        <ele>39</ele>
        <time>2021-01-01T10:04:51Z</time>
      </trkpt>
      <trkpt lat="43.61151" lon="3.81466">
        <ele>39</ele>
        <time>2021-01-01T10:04:52Z</time>
      </trkpt>
      <trkpt lat="43.61146" lon="3.81471">
        <ele>39</ele>
        <time>2021-01-01T10:04:53Z</time>
      </trkpt>
      <trkpt lat="43.6114" lon="3.81474">
        <ele>39</ele>
        <time>2021-01-01T10:04:54Z</time>
      </trkpt>
      <trkpt lat="43.61135" lon="3.81478">
        <ele>39</ele>
        <time>2021-01-01T10:04:55Z</time>
      </trkpt>
      <trkpt lat="43.61129" lon="3.81482">
        <ele>39</ele>
        <time>2021-01-01T10:04:56Z</time>
      </trkpt>
      <trkpt lat="43.61124" lon="3.81485">
        <ele>39</ele>
        <time>2021-01-01T10:04:57Z</time>
      </trkpt>
      <trkpt lat="43.61118" lon="3.81489">
        <ele>39</ele>
        <time>2021-01-01T10:04:58Z</time>
      </trkpt>
      <trkpt lat="43.61113" lon="3.81492">
        <ele>38</ele>
        <time>2021-01-01T10:04:59Z</time>
      </trkpt>
      <trkpt lat="43.61107" lon="3.81495">
        <ele>38</ele>
        <time>2021-01-01T10:05:00Z</time>
      </trkpt>
      <trkpt lat="43.61102" lon="3.81499">
        <ele>38</ele>
        <time>2021-01-01T10:05:01Z</time>
      </trkpt>
      <trkpt lat="43.61097" lon="3.81501">
        <ele>38</ele>
        <time>2021-01-01T10:05:02Z</time>
      </trkpt>
      <trkpt lat="43.61091" lon="3.81506">
        <ele>38</ele>
        <time>2021-01-01T10:05:03Z</time>
      </trkpt>
      <trkpt lat="43.61084" lon="3.8151">
        <ele>38</ele>
        <time>2021-01-01T10:05:04Z</time>
      </trkpt>
      <trkpt lat="43.61079" lon="3.81513">
        <ele>38</ele>
        <time>2021-01-01T10:05:05Z</time>
      </trkpt>
      <trkpt lat="43.61073" lon="3.81517">
        <ele>37</ele>
        <time>2021-01-01T10:05:06Z</time>
      </trkpt>
      <trkpt lat="43.61068" lon="3.81522">
        <ele>37</ele>
        <time>2021-01-01T10:05:07Z</time>
      </trkpt>
      <trkpt lat="43.61062" lon="3.81527">
        <ele>37</ele>
        <time>2021-01-01T10:05:08Z</time>
      </trkpt>
      <trkpt lat="43.61055" lon="3.81532">
        <ele>36</ele>
        <time>2021-01-01T10:05:09Z</time>
      </trkpt>
      <trkpt lat="43.61049" lon="3.81536">
        <ele>36</ele>
        <time>2021-01-01T10:05:10Z</time>
      </trkpt>
      <trkpt lat="43.61043" lon="3.81539">
        <ele>35</ele>
        <time>2021-01-01T10:05:11Z</time>
      </trkpt>
      <trkpt lat="43.61036" lon="3.81542">
        <ele>35</ele>
        <time>2021-01-01T10:05:12Z</time>
      </trkpt>
      <trkpt lat="43.6103" lon="3.81546">
        <ele>35</ele>
        <time>2021-01-01T10:05:13Z</time>
      </trkpt>
      <trkpt lat="43.61024" lon="3.81549">
        <ele>35</ele>
        <time>2021-01-01T10:05:14Z</time>
      </trkpt>
      <trkpt lat="43.61018" lon="3.81553">
        <ele>35</ele>
        <time>2021-01-01T10:05:15Z</time>
      </trkpt>
      <trkpt lat="43.61011" lon="3.81557">
        <ele>35</ele>
        <time>2021-01-01T10:05:16Z</time>
      </trkpt>
      <trkpt lat="43.61005" lon="3.81561">
        <ele>35</ele>
        <time>2021-01-01T10:05:17Z</time>
      </trkpt>
      <trkpt lat="43.61" lon="3.81564">
        <ele>35</ele>
        <time>2021-01-01T10:05:18Z</time>
      </trkpt>
      <trkpt lat="43.60994" lon="3.81567">
        <ele>36</ele>
        <time>2021-01-01T10:05:19Z</time>
      </trkpt>
      <trkpt lat="43.60988" lon="3.81569">
        <ele>36</ele>
        <time>2021-01-01T10:05:20Z</time>
      </trkpt>
      <trkpt lat="43.60981" lon="3.81571">
        <ele>36</ele>
        <time>2021-01-01T10:05:21Z</time>
      </trkpt>
      <trkpt lat="43.60976" lon="3.81571">
        <ele>36</ele>
        <time>2021-01-01T10:05:22Z</time>
      </trkpt>
      <trkpt lat="43.60969" lon="3.81571">
        <ele>36</ele>
        <time>2021-01-01T10:05:23Z</time>
      </trkpt>
      <trkpt lat="43.60962" lon="3.8157">
        <ele>36</ele>
        <time>2021-01-01T10:05:24Z</time>
      </trkpt>
      <trkpt lat="43.60956" lon="3.81568">
        <ele>36</ele>
        <time>2021-01-01T10:05:25Z</time>
      </trkpt>
      <trkpt lat="43.6095" lon="3.81566">
        <ele>36</ele>
        <time>2021-01-01T10:05:26Z</time>
      </trkpt>
      <trkpt lat="43.60946" lon="3.8156">
        <ele>36</ele>
        <time>2021-01-01T10:05:27Z</time>
      </trkpt>
      <trkpt lat="43.6094" lon="3.81554">
        <ele>35</ele>
        <time>2021-01-01T10:05:28Z</time>
      </trkpt>
      <trkpt lat="43.60936" lon="3.81548">
        <ele>35</ele>
        <time>2021-01-01T10:05:29Z</time>
      </trkpt>
      <trkpt lat="43.60932" lon="3.81543">
        <ele>35</ele>
        <time>2021-01-01T10:05:30Z</time>
      </trkpt>
      <trkpt lat="43.60929" lon="3.81536">
        <ele>35</ele>
        <time>2021-01-01T10:05:31Z</time>
      </trkpt>
      <trkpt lat="43.60925" lon="3.8153">
        <ele>35</ele>
        <time>2021-01-01T10:05:32Z</time>
      </trkpt>
      <trkpt lat="43.60922" lon="3.81523">
        <ele>36</ele>
        <time>2021-01-01T10:05:33Z</time>
      </trkpt>
      <trkpt lat="43.60918" lon="3.81517">
        <ele>36</ele>
        <time>2021-01-01T10:05:34Z</time>
      </trkpt>
      <trkpt lat="43.60915" lon="3.8151">
        <ele>36</ele>
        <time>2021-01-01T10:05:35Z</time>
      </trkpt>
      <trkpt lat="43.60913" lon="3.81504">
        <ele>36</ele>
        <time>2021-01-01T10:05:36Z</time>
      </trkpt>
      <trkpt lat="43.60909" lon="3.81497">
        <ele>36</ele>
        <time>2021-01-01T10:05:37Z</time>
      </trkpt>
      <trkpt lat="43.60905" lon="3.8149">
        <ele>37</ele>
        <time>2021-01-01T10:05:38Z</time>
      </trkpt>
      <trkpt lat="43.60902" lon="3.81484">
        <ele>37</ele>
        <time>2021-01-01T10:05:39Z</time>
      </trkpt>
      <trkpt lat="43.60897" lon="3.81478">
        <ele>36</ele>
        <time>2021-01-01T10:05:40Z</time>
      </trkpt>
      <trkpt lat="43.60894" lon="3.81472">
        <ele>36</ele>
        <time>2021-01-01T10:05:41Z</time>
      </trkpt>
      <trkpt lat="43.60891" lon="3.81465">
        <ele>36</ele>
        <time>2021-01-01T10:05:42Z</time>
      </trkpt>
      <trkpt lat="43.60888" lon="3.81458">
        <ele>36</ele>
        <time>2021-01-01T10:05:43Z</time>
      </trkpt>
      <trkpt lat="43.60884" lon="3.81452">
        <ele>36</ele>
        <time>2021-01-01T10:05:44Z</time>
      </trkpt>
      <trkpt lat="43.6088" lon="3.81446">
        <ele>36</ele>
        <time>2021-01-01T10:05:45Z</time>
      </trkpt>
      <trkpt lat="43.60877" lon="3.81439">
        <ele>36</ele>
        <time>2021-01-01T10:05:46Z</time>
      </trkpt>
      <trkpt lat="43.60873" lon="3.81433">
        <ele>36</ele>
        <time>2021-01-01T10:05:47Z</time>
      </trkpt>
      <trkpt lat="43.6087" lon="3.81427">
        <ele>36</ele>
        <time>2021-01-01T10:05:48Z</time>
      </trkpt>
      <trkpt lat="43.60867" lon="3.81421">
        <ele>37</ele>
        <time>2021-01-01T10:05:49Z</time>
      </trkpt>
      <trkpt lat="43.60864" lon="3.81414">
        <ele>37</ele>
        <time>2021-01-01T10:05:50Z</time>
      </trkpt>
      <trkpt lat="43.6086" lon="3.81407">
        <ele>37</ele>
        <time>2021-01-01T10:05:51Z</time>
      </trkpt>
      <trkpt lat="43.60857" lon="3.814">
        <ele>37</ele>
        <time>2021-01-01T10:05:52Z</time>
      </trkpt>
      <trkpt lat="43.60854" lon="3.81393">
        <ele>37</ele>
        <time>2021-01-01T10:05:53Z</time>
      </trkpt>
      <trkpt lat="43.6085" lon="3.81388">
        <ele>37</ele>
        <time>2021-01-01T10:05:54Z</time>
      </trkpt>
      <trkpt lat="43.60846" lon="3.81381">
        <ele>37</ele>
        <time>2021-01-01T10:05:55Z</time>
      </trkpt>
      <trkpt lat="43.60843" lon="3.81375">
        <ele>37</ele>
        <time>2021-01-01T10:05:56Z</time>
      </trkpt>
      <trkpt lat="43.6084" lon="3.81368">
        <ele>38</ele>
        <time>2021-01-01T10:05:57Z</time>
      </trkpt>
      <trkpt lat="43.60837" lon="3.81362">
        <ele>38</ele>
        <time>2021-01-01T10:05:58Z</time>
      </trkpt>
      <trkpt lat="43.60833" lon="3.81356">
        <ele>38</ele>
        <time>2021-01-01T10:05:59Z</time>
      </trkpt>
      <trkpt lat="43.6083" lon="3.8135">
        <ele>39</ele>
        <time>2021-01-01T10:06:00Z</time>
      </trkpt>
      <trkpt lat="43.60825" lon="3.81343">
        <ele>39</ele>
        <time>2021-01-01T10:06:01Z</time>
      </trkpt>
      <trkpt lat="43.60822" lon="3.81337">
        <ele>39</ele>
        <time>2021-01-01T10:06:02Z</time>
      </trkpt>
      <trkpt lat="43.60818" lon="3.81331">
        <ele>39</ele>
        <time>2021-01-01T10:06:03Z</time>
      </trkpt>
      <trkpt lat="43.60815" lon="3.81324">
        <ele>39</ele>
        <time>2021-01-01T10:06:04Z</time>
      </trkpt>
      <trkpt lat="43.60812" lon="3.81318">
        <ele>39</ele>
        <time>2021-01-01T10:06:05Z</time>
      </trkpt>
      <trkpt lat="43.60809" lon="3.81312">
        <ele>39</ele>
        <time>2021-01-01T10:06:06Z</time>
      </trkpt>
      <trkpt lat="43.60805" lon="3.81307">
        <ele>40</ele>
        <time>2021-01-01T10:06:07Z</time>
      </trkpt>
      <trkpt lat="43.60802" lon="3.81302">
        <ele>40</ele>
        <time>2021-01-01T10:06:08Z</time>
      </trkpt>
      <trkpt lat="43.60799" lon="3.81297">
        <ele>40</ele>
        <time>2021-01-01T10:06:09Z</time>
      </trkpt>
      <trkpt lat="43.60795" lon="3.81292">
        <ele>40</ele>
        <time>2021-01-01T10:06:10Z</time>
      </trkpt>
      <trkpt lat="43.60791" lon="3.81286">
        <ele>41</ele>
        <time>2021-01-01T10:06:11Z</time>
      </trkpt>
      <trkpt lat="43.60787" lon="3.81281">
        <ele>40</ele>
        <time>2021-01-01T10:06:12Z</time>
      </trkpt>
      <trkpt lat="43.60783" lon="3.81275">
        <ele>40</ele>
        <time>2021-01-01T10:06:13Z</time>
      </trkpt>
      <trkpt lat="43.6078" lon="3.81269">
        <ele>40</ele>
        <time>2021-01-01T10:06:14Z</time>
      </trkpt>
      <trkpt lat="43.60777" lon="3.81263">
        <ele>40</ele>
        <time>2021-01-01T10:06:15Z</time>
      </trkpt>
      <trkpt lat="43.60773" lon="3.81257">
        <ele>40</ele>
        <time>2021-01-01T10:06:16Z</time>
      </trkpt>
      <trkpt lat="43.60769" lon="3.81252">
        <ele>40</ele>
        <time>2021-01-01T10:06:17Z</time>
      </trkpt>
      <trkpt lat="43.60766" lon="3.81247">
        <ele>40</ele>
        <time>2021-01-01T10:06:18Z</time>
      </trkpt>
      <trkpt lat="43.60761" lon="3.81243">
        <ele>41</ele>
        <time>2021-01-01T10:06:19Z</time>
      </trkpt>
      <trkpt lat="43.60757" lon="3.81239">
        <ele>40</ele>
        <time>2021-01-01T10:06:20Z</time>
      </trkpt>
      <trkpt lat="43.60753" lon="3.81234">
        <ele>40</ele>
        <time>2021-01-01T10:06:21Z</time>
      </trkpt>
      <trkpt lat="43.60749" lon="3.81228">
        <ele>40</ele>
        <time>2021-01-01T10:06:22Z</time>
      </trkpt>
      <trkpt lat="43.60745" lon="3.81224">
        <ele>40</ele>
        <time>2021-01-01T10:06:23Z</time>
      </trkpt>
      <trkpt lat="43.6074" lon="3.81219">
        <ele>40</ele>
        <time>2021-01-01T10:06:24Z</time>
      </trkpt>
      <trkpt lat="43.60735" lon="3.81215">
        <ele>40</ele>
        <time>2021-01-01T10:06:25Z</time>
      </trkpt>
      <trkpt lat="43.60729" lon="3.81211">
        <ele>40</ele>
        <time>2021-01-01T10:06:26Z</time>
      </trkpt>
      <trkpt lat="43.60722" lon="3.81208">
        <ele>40</ele>
        <time>2021-01-01T10:06:27Z</time>
      </trkpt>
      <trkpt lat="43.60716" lon="3.81205">
        <ele>40</ele>
        <time>2021-01-01T10:06:28Z</time>
      </trkpt>
      <trkpt lat="43.60709" lon="3.81201">
        <ele>40</ele>
        <time>2021-01-01T10:06:29Z</time>
      </trkpt>
      <trkpt lat="43.60702" lon="3.812">
        <ele>40</ele>
        <time>2021-01-01T10:06:30Z</time>
      </trkpt>
      <trkpt lat="43.60695" lon="3.81197">
        <ele>40</ele>
        <time>2021-01-01T10:06:31Z</time>
      </trkpt>
      <trkpt lat="43.60688" lon="3.81195">
        <ele>40</ele>
        <time>2021-01-01T10:06:32Z</time>
      </trkpt>
      <trkpt lat="43.60681" lon="3.81194">
        <ele>40</ele>
        <time>2021-01-01T10:06:33Z</time>
      </trkpt>
      <trkpt lat="43.60674" lon="3.81192">
        <ele>40</ele>
        <time>2021-01-01T10:06:34Z</time>
      </trkpt>
      <trkpt lat="43.60667" lon="3.81191">
        <ele>40</ele>
        <time>2021-01-01T10:06:35Z</time>
      </trkpt>
      <trkpt lat="43.60661" lon="3.81189">
        <ele>40</ele>
        <time>2021-01-01T10:06:36Z</time>
      </trkpt>
      <trkpt lat="43.60656" lon="3.81188">
        <ele>40</ele>
        <time>2021-01-01T10:06:37Z</time>
      </trkpt>
      <trkpt lat="43.6065" lon="3.81187">
        <ele>40</ele>
        <time>2021-01-01T10:06:38Z</time>
      </trkpt>
      <trkpt lat="43.60645" lon="3.81185">
        <ele>40</ele>
        <time>2021-01-01T10:06:39Z</time>
      </trkpt>
      <trkpt lat="43.60639" lon="3.81184">
        <ele>41</ele>
        <time>2021-01-01T10:06:40Z</time>
      </trkpt>
      <trkpt lat="43.60634" lon="3.81182">
        <ele>41</ele>
        <time>2021-01-01T10:06:41Z</time>
      </trkpt>
      <trkpt lat="43.60629" lon="3.8118">
        <ele>41</ele>
        <time>2021-01-01T10:06:42Z</time>
      </trkpt>
      <trkpt lat="43.60624" lon="3.81178">
        <ele>42</ele>
        <time>2021-01-01T10:06:43Z</time>
      </trkpt>
      <trkpt lat="43.60619" lon="3.81176">
        <ele>42</ele>
        <time>2021-01-01T10:06:44Z</time>
      </trkpt>
      <trkpt lat="43.60615" lon="3.81172">
        <ele>43</ele>
        <time>2021-01-01T10:06:45Z</time>
      </trkpt>
      <trkpt lat="43.60611" lon="3.8117">
        <ele>43</ele>
        <time>2021-01-01T10:06:46Z</time>
      </trkpt>
      <trkpt lat="43.60606" lon="3.81168">
        <ele>44</ele>
        <time>2021-01-01T10:06:47Z</time>
      </trkpt>
      <trkpt lat="43.60598" lon="3.81162">
        <ele>44</ele>
        <time>2021-01-01T10:06:49Z</time>
      </trkpt>
      <trkpt lat="43.60592" lon="3.81158">
        <ele>44</ele>
        <time>2021-01-01T10:06:51Z</time>
      </trkpt>
      <trkpt lat="43.60585" lon="3.81153">
        <ele>44</ele>
        <time>2021-01-01T10:06:53Z</time>
      </trkpt>
      <trkpt lat="43.60581" lon="3.8115">
        <ele>44</ele>
        <time>2021-01-01T10:06:56Z</time>
      </trkpt>
      <trkpt lat="43.60576" lon="3.81145">
        <ele>43</ele>
        <time>2021-01-01T10:06:57Z</time>
      </trkpt>
      <trkpt lat="43.60569" lon="3.81139">
        <ele>43</ele>
        <time>2021-01-01T10:06:58Z</time>
      </trkpt>
      <trkpt lat="43.60563" lon="3.81132">
        <ele>43</ele>
        <time>2021-01-01T10:07:00Z</time>
      </trkpt>
      <trkpt lat="43.60557" lon="3.81124">
        <ele>43</ele>
        <time>2021-01-01T10:07:02Z</time>
      </trkpt>
      <trkpt lat="43.6055" lon="3.81116">
        <ele>44</ele>
        <time>2021-01-01T10:07:04Z</time>
      </trkpt>
      <trkpt lat="43.60546" lon="3.81111">
        <ele>44</ele>
        <time>2021-01-01T10:07:05Z</time>
      </trkpt>
      <trkpt lat="43.6054" lon="3.81104">
        <ele>44</ele>
        <time>2021-01-01T10:07:07Z</time>
      </trkpt>
      <trkpt lat="43.60537" lon="3.81099">
        <ele>44</ele>
        <time>2021-01-01T10:07:08Z</time>
      </trkpt>
      <trkpt lat="43.60531" lon="3.81091">
        <ele>45</ele>
        <time>2021-01-01T10:07:10Z</time>
      </trkpt>
      <trkpt lat="43.60527" lon="3.81087">
        <ele>45</ele>
        <time>2021-01-01T10:07:11Z</time>
      </trkpt>
      <trkpt lat="43.60523" lon="3.81083">
        <ele>45</ele>
        <time>2021-01-01T10:07:12Z</time>
      </trkpt>
      <trkpt lat="43.6052" lon="3.81078">
        <ele>45</ele>
        <time>2021-01-01T10:07:13Z</time>
      </trkpt>
      <trkpt lat="43.60517" lon="3.81073">
        <ele>45</ele>
        <time>2021-01-01T10:07:14Z</time>
      </trkpt>
      <trkpt lat="43.60514" lon="3.81068">
        <ele>45</ele>
        <time>2021-01-01T10:07:15Z</time>
      </trkpt>
      <trkpt lat="43.60511" lon="3.81063">
        <ele>45</ele>
        <time>2021-01-01T10:07:16Z</time>
      </trkpt>
      <trkpt lat="43.60504" lon="3.81055">
        <ele>45</ele>
        <time>2021-01-01T10:07:18Z</time>
      </trkpt>
      <trkpt lat="43.605" lon="3.81052">
        <ele>46</ele>
        <time>2021-01-01T10:07:19Z</time>
      </trkpt>
      <trkpt lat="43.60494" lon="3.81043">
        <ele>46</ele>
        <time>2021-01-01T10:07:21Z</time>
      </trkpt>
      <trkpt lat="43.60489" lon="3.81033">
        <ele>46</ele>
        <time>2021-01-01T10:07:23Z</time>
      </trkpt>
      <trkpt lat="43.60484" lon="3.81027">
        <ele>46</ele>
        <time>2021-01-01T10:07:25Z</time>
      </trkpt>
      <trkpt lat="43.6048" lon="3.81022">
        <ele>47</ele>
        <time>2021-01-01T10:07:27Z</time>
      </trkpt>
      <trkpt lat="43.60475" lon="3.81021">
        <ele>47</ele>
        <time>2021-01-01T10:07:29Z</time>
      </trkpt>
      <trkpt lat="43.60472" lon="3.81027">
        <ele>47</ele>
        <time>2021-01-01T10:07:31Z</time>
      </trkpt>
      <trkpt lat="43.60469" lon="3.81038">
        <ele>46</ele>
        <time>2021-01-01T10:07:33Z</time>
      </trkpt>
      <trkpt lat="43.60466" lon="3.81045">
        <ele>46</ele>
        <time>2021-01-01T10:07:34Z</time>
      </trkpt>
      <trkpt lat="43.60464" lon="3.81051">
        <ele>46</ele>
        <time>2021-01-01T10:07:35Z</time>
      </trkpt>
      <trkpt lat="43.60461" lon="3.81057">
        <ele>45</ele>
        <time>2021-01-01T10:07:36Z</time>
      </trkpt>
      <trkpt lat="43.6046" lon="3.81064">
        <ele>45</ele>
        <time>2021-01-01T10:07:37Z</time>
      </trkpt>
      <trkpt lat="43.60459" lon="3.81072">
        <ele>44</ele>
        <time>2021-01-01T10:07:38Z</time>
      </trkpt>
      <trkpt lat="43.60461" lon="3.81079">
        <ele>44</ele>
        <time>2021-01-01T10:07:39Z</time>
      </trkpt>
      <trkpt lat="43.60465" lon="3.81088">
        <ele>43</ele>
        <time>2021-01-01T10:07:41Z</time>
      </trkpt>
      <trkpt lat="43.60469" lon="3.81093">
        <ele>43</ele>
        <time>2021-01-01T10:07:44Z</time>
      </trkpt>
      <trkpt lat="43.60474" lon="3.81096">
        <ele>42</ele>
        <time>2021-01-01T10:07:46Z</time>
      </trkpt>
      <trkpt lat="43.60478" lon="3.81102">
        <ele>42</ele>
        <time>2021-01-01T10:07:49Z</time>
      </trkpt>
      <trkpt lat="43.60483" lon="3.81108">
        <ele>41</ele>
        <time>2021-01-01T10:07:51Z</time>
      </trkpt>
      <trkpt lat="43.60489" lon="3.81115">
        <ele>41</ele>
        <time>2021-01-01T10:07:53Z</time>
      </trkpt>
      <trkpt lat="43.60496" lon="3.81123">
        <ele>40</ele>
        <time>2021-01-01T10:07:55Z</time>
      </trkpt>
      <trkpt lat="43.605" lon="3.8113">
        <ele>40</ele>
        <time>2021-01-01T10:07:57Z</time>
      </trkpt>
      <trkpt lat="43.60497" lon="3.81138">
        <ele>39</ele>
        <time>2021-01-01T10:07:59Z</time>
      </trkpt>
      <trkpt lat="43.60491" lon="3.81146">
        <ele>39</ele>
        <time>2021-01-01T10:08:01Z</time>
      </trkpt>
      <trkpt lat="43.60488" lon="3.81151">
        <ele>38</ele>
        <time>2021-01-01T10:08:02Z</time>
      </trkpt>
      <trkpt lat="43.60484" lon="3.81156">
        <ele>38</ele>
        <time>2021-01-01T10:08:03Z</time>
      </trkpt>
      <trkpt lat="43.6048" lon="3.81161">
        <ele>38</ele>
        <time>2021-01-01T10:08:04Z</time>
      </trkpt>
      <trkpt lat="43.60477" lon="3.81167">
        <ele>38</ele>
        <time>2021-01-01T10:08:05Z</time>
      </trkpt>
      <trkpt lat="43.60473" lon="3.81172">
        <ele>37</ele>
        <time>2021-01-01T10:08:06Z</time>
      </trkpt>
      <trkpt lat="43.60469" lon="3.81177">
        <ele>37</ele>
        <time>2021-01-01T10:08:07Z</time>
      </trkpt>
      <trkpt lat="43.60466" lon="3.81183">
        <ele>37</ele>
        <time>2021-01-01T10:08:08Z</time>
      </trkpt>
      <trkpt lat="43.60462" lon="3.81189">
        <ele>37</ele>
        <time>2021-01-01T10:08:09Z</time>
      </trkpt>
      <trkpt lat="43.60458" lon="3.81196">
        <ele>37</ele>
        <time>2021-01-01T10:08:10Z</time>
      </trkpt>
      <trkpt lat="43.60454" lon="3.81202">
        <ele>37</ele>
        <time>2021-01-01T10:08:11Z</time>
      </trkpt>
      <trkpt lat="43.6045" lon="3.81208">
        <ele>37</ele>
        <time>2021-01-01T10:08:12Z</time>
      </trkpt>
      <trkpt lat="43.60447" lon="3.81215">
        <ele>37</ele>
        <time>2021-01-01T10:08:13Z</time>
      </trkpt>
      <trkpt lat="43.60444" lon="3.8122">
        <ele>36</ele>
        <time>2021-01-01T10:08:14Z</time>
      </trkpt>
      <trkpt lat="43.6044" lon="3.81227">
        <ele>36</ele>
        <time>2021-01-01T10:08:15Z</time>
      </trkpt>
      <trkpt lat="43.60436" lon="3.81233">
        <ele>36</ele>
        <time>2021-01-01T10:08:16Z</time>
      </trkpt>
      <trkpt lat="43.60433" lon="3.81238">
        <ele>36</ele>
        <time>2021-01-01T10:08:17Z</time>
      </trkpt>
      <trkpt lat="43.60429" lon="3.81243">
        <ele>36</ele>
        <time>2021-01-01T10:08:18Z</time>
      </trkpt>
      <trkpt lat="43.60426" lon="3.81248">
        <ele>37</ele>
        <time>2021-01-01T10:08:19Z</time>
      </trkpt>
      <trkpt lat="43.60422" lon="3.81251">
        <ele>36</ele>
        <time>2021-01-01T10:08:20Z</time>
      </trkpt>
      <trkpt lat="43.60418" lon="3.81255">
        <ele>36</ele>
        <time>2021-01-01T10:08:21Z</time>
      </trkpt>
      <trkpt lat="43.60414" lon="3.81258">
        <ele>36</ele>
        <time>2021-01-01T10:08:22Z</time>
      </trkpt>
      <trkpt lat="43.6041" lon="3.81263">
        <ele>36</ele>
        <time>2021-01-01T10:08:23Z</time>
      </trkpt>
      <trkpt lat="43.60406" lon="3.81274">
        <ele>35</ele>
        <time>2021-01-01T10:08:25Z</time>
      </trkpt>
      <trkpt lat="43.60406" lon="3.81283">
        <ele>35</ele>
        <time>2021-01-01T10:08:27Z</time>
      </trkpt>
      <trkpt lat="43.60411" lon="3.8129">
        <ele>35</ele>
        <time>2021-01-01T10:08:29Z</time>
      </trkpt>
      <trkpt lat="43.60416" lon="3.813">
        <ele>35</ele>
        <time>2021-01-01T10:08:31Z</time>
      </trkpt>
      <trkpt lat="43.6042" lon="3.81309">
        <ele>35</ele>
        <time>2021-01-01T10:08:33Z</time>
      </trkpt>
      <trkpt lat="43.60421" lon="3.81314">
        <ele>35</ele>
        <time>2021-01-01T10:08:35Z</time>
      </trkpt>
      <trkpt lat="43.6042" lon="3.81321">
        <ele>35</ele>
        <time>2021-01-01T10:08:38Z</time>
      </trkpt>
      <trkpt lat="43.60414" lon="3.81324">
        <ele>35</ele>
        <time>2021-01-01T10:08:40Z</time>
      </trkpt>
      <trkpt lat="43.60407" lon="3.8133">
        <ele>35</ele>
        <time>2021-01-01T10:08:42Z</time>
      </trkpt>
      <trkpt lat="43.604" lon="3.81339">
        <ele>35</ele>
        <time>2021-01-01T10:08:44Z</time>
      </trkpt>
      <trkpt lat="43.60398" lon="3.81344">
        <ele>35</ele>
        <time>2021-01-01T10:08:45Z</time>
      </trkpt>
      <trkpt lat="43.60395" lon="3.8135">
        <ele>34</ele>
        <time>2021-01-01T10:08:46Z</time>
      </trkpt>
      <trkpt lat="43.60392" lon="3.81356">
        <ele>34</ele>
        <time>2021-01-01T10:08:47Z</time>
      </trkpt>
      <trkpt lat="43.60389" lon="3.81363">
        <ele>34</ele>
        <time>2021-01-01T10:08:48Z</time>
      </trkpt>
      <trkpt lat="43.60386" lon="3.81369">
        <ele>34</ele>
        <time>2021-01-01T10:08:49Z</time>
      </trkpt>
      <trkpt lat="43.60383" lon="3.81377">
        <ele>34</ele>
        <time>2021-01-01T10:08:50Z</time>
      </trkpt>
      <trkpt lat="43.6038" lon="3.81384">
        <ele>34</ele>
        <time>2021-01-01T10:08:51Z</time>
      </trkpt>
      <trkpt lat="43.60377" lon="3.81391">
        <ele>33</ele>
        <time>2021-01-01T10:08:52Z</time>
      </trkpt>
      <trkpt lat="43.60373" lon="3.81397">
        <ele>33</ele>
        <time>2021-01-01T10:08:53Z</time>
      </trkpt>
      <trkpt lat="43.6037" lon="3.81404">
        <ele>33</ele>
        <time>2021-01-01T10:08:54Z</time>
      </trkpt>
      <trkpt lat="43.60366" lon="3.81411">
        <ele>33</ele>
        <time>2021-01-01T10:08:55Z</time>
      </trkpt>
      <trkpt lat="43.60363" lon="3.81418">
        <ele>33</ele>
        <time>2021-01-01T10:08:56Z</time>
      </trkpt>
      <trkpt lat="43.6036" lon="3.81425">
        <ele>33</ele>
        <time>2021-01-01T10:08:57Z</time>
      </trkpt>
      <trkpt lat="43.60356" lon="3.81432">
        <ele>33</ele>
        <time>2021-01-01T10:08:58Z</time>
      </trkpt>
      <trkpt lat="43.60353" lon="3.81439">
        <ele>33</ele>
        <time>2021-01-01T10:08:59Z</time>
      </trkpt>
      <trkpt lat="43.6035" lon="3.81446">
        <ele>33</ele>
        <time>2021-01-01T10:09:00Z</time>
      </trkpt>
      <trkpt lat="43.60347" lon="3.81452">
        <ele>33</ele>
        <time>2021-01-01T10:09:01Z</time>
      </trkpt>
      <trkpt lat="43.60343" lon="3.81458">
        <ele>33</ele>
        <time>2021-01-01T10:09:02Z</time>
      </trkpt>
      <trkpt lat="43.60341" lon="3.81464">
        <ele>33</ele>
        <time>2021-01-01T10:09:03Z</time>
      </trkpt>
      <trkpt lat="43.60338" lon="3.81471">
        <ele>32</ele>
        <time>2021-01-01T10:09:04Z</time>
      </trkpt>
      <trkpt lat="43.60335" lon="3.81478">
        <ele>32</ele>
        <time>2021-01-01T10:09:05Z</time>
      </trkpt>
      <trkpt lat="43.60331" lon="3.81485">
        <ele>32</ele>
        <time>2021-01-01T10:09:06Z</time>
      </trkpt>
      <trkpt lat="43.60327" lon="3.81491">
        <ele>32</ele>
        <time>2021-01-01T10:09:07Z</time>
      </trkpt>
      <trkpt lat="43.60323" lon="3.81497">
        <ele>31</ele>
        <time>2021-01-01T10:09:08Z</time>
      </trkpt>
      <trkpt lat="43.60318" lon="3.81502">
        <ele>31</ele>
        <time>2021-01-01T10:09:09Z</time>
      </trkpt>
      <trkpt lat="43.60314" lon="3.81505">
        <ele>31</ele>
        <time>2021-01-01T10:09:10Z</time>
      </trkpt>
      <trkpt lat="43.60309" lon="3.81509">
        <ele>31</ele>
        <time>2021-01-01T10:09:11Z</time>
      </trkpt>
      <trkpt lat="43.60303" lon="3.81511">
        <ele>31</ele>
        <time>2021-01-01T10:09:12Z</time>
      </trkpt>
      <trkpt lat="43.60298" lon="3.81513">
        <ele>31</ele>
        <time>2021-01-01T10:09:13Z</time>
      </trkpt>
      <trkpt lat="43.60292" lon="3.81514">
        <ele>30</ele>
        <time>2021-01-01T10:09:14Z</time>
      </trkpt>
      <trkpt lat="43.60287" lon="3.81513">
        <ele>30</ele>
        <time>2021-01-01T10:09:15Z</time>
      </trkpt>
      <trkpt lat="43.60281" lon="3.81511">
        <ele>30</ele>
        <time>2021-01-01T10:09:16Z</time>
      </trkpt>
      <trkpt lat="43.60275" lon="3.81508">
        <ele>30</ele>
        <time>2021-01-01T10:09:17Z</time>
      </trkpt>
      <trkpt lat="43.6027" lon="3.81507">
        <ele>30</ele>
        <time>2021-01-01T10:09:18Z</time>
      </trkpt>
      <trkpt lat="43.60264" lon="3.81505">
        <ele>30</ele>
        <time>2021-01-01T10:09:19Z</time>
      </trkpt>
      <trkpt lat="43.60258" lon="3.81503">
        <ele>31</ele>
        <time>2021-01-01T10:09:20Z</time>
      </trkpt>
      <trkpt lat="43.60253" lon="3.81501">
        <ele>31</ele>
        <time>2021-01-01T10:09:21Z</time>
      </trkpt>
      <trkpt lat="43.60247" lon="3.81498">
        <ele>31</ele>
        <time>2021-01-01T10:09:22Z</time>
      </trkpt>
      <trkpt lat="43.60242" lon="3.81496">
        <ele>31</ele>
        <time>2021-01-01T10:09:23Z</time>
      </trkpt>
      <trkpt lat="43.60238" lon="3.81492">
        <ele>31</ele>
        <time>2021-01-01T10:09:24Z</time>
      </trkpt>
      <trkpt lat="43.60233" lon="3.81489">
        <ele>31</ele>
        <time>2021-01-01T10:09:25Z</time>
      </trkpt>
      <trkpt lat="43.60228" lon="3.81487">
        <ele>31</ele>
        <time>2021-01-01T10:09:26Z</time>
      </trkpt>
      <trkpt lat="43.60224" lon="3.81485">
        <ele>31</ele>
        <time>2021-01-01T10:09:27Z</time>
      </trkpt>
      <trkpt lat="43.6022" lon="3.81481">
        <ele>31</ele>
        <time>2021-01-01T10:09:28Z</time>
      </trkpt>
      <trkpt lat="43.60216" lon="3.81476">
        <ele>31</ele>
        <time>2021-01-01T10:09:29Z</time>
      </trkpt>
      <trkpt lat="43.60212" lon="3.81472">
        <ele>31</ele>
        <time>2021-01-01T10:09:30Z</time>
      </trkpt>
      <trkpt lat="43.60207" lon="3.81468">
        <ele>31</ele>
        <time>2021-01-01T10:09:31Z</time>
      </trkpt>
      <trkpt lat="43.60199" lon="3.8146">
        <ele>31</ele>
        <time>2021-01-01T10:09:33Z</time>
      </trkpt>
      <trkpt lat="43.60194" lon="3.81456">
        <ele>31</ele>
        <time>2021-01-01T10:09:34Z</time>
      </trkpt>
      <trkpt lat="43.6019" lon="3.81453">
        <ele>31</ele>
        <time>2021-01-01T10:09:35Z</time>
      </trkpt>
      <trkpt lat="43.60186" lon="3.81449">
        <ele>31</ele>
        <time>2021-01-01T10:09:36Z</time>
      </trkpt>
      <trkpt lat="43.60182" lon="3.81446">
        <ele>31</ele>
        <time>2021-01-01T10:09:37Z</time>
      </trkpt>
      <trkpt lat="43.60178" lon="3.81442">
        <ele>31</ele>
        <time>2021-01-01T10:09:38Z</time>
      </trkpt>
      <trkpt lat="43.60174" lon="3.81437">
        <ele>32</ele>
        <time>2021-01-01T10:09:39Z</time>
      </trkpt>
      <trkpt lat="43.6017" lon="3.81432">
        <ele>32</ele>
        <time>2021-01-01T10:09:40Z</time>
      </trkpt>
      <trkpt lat="43.60165" lon="3.81427">
        <ele>32</ele>
        <time>2021-01-01T10:09:41Z</time>
      </trkpt>
      <trkpt lat="43.6016" lon="3.81422">
        <ele>32</ele>
        <time>2021-01-01T10:09:42Z</time>
      </trkpt>
      <trkpt lat="43.60155" lon="3.81418">
        <ele>32</ele>
        <time>2021-01-01T10:09:43Z</time>
      </trkpt>
      <trkpt lat="43.6015" lon="3.81413">
        <ele>32</ele>
        <time>2021-01-01T10:09:44Z</time>
      </trkpt>
      <trkpt lat="43.60145" lon="3.81409">
        <ele>32</ele>
        <time>2021-01-01T10:09:45Z</time>
      </trkpt>
      <trkpt lat="43.60141" lon="3.81405">
        <ele>32</ele>
        <time>2021-01-01T10:09:46Z</time>
      </trkpt>
      <trkpt lat="43.60137" lon="3.81401">
        <ele>32</ele>
        <time>2021-01-01T10:09:47Z</time>
      </trkpt>
      <trkpt lat="43.60132" lon="3.81398">
        <ele>32</ele>
        <time>2021-01-01T10:09:48Z</time>
      </trkpt>
      <trkpt lat="43.60127" lon="3.81393">
        <ele>32</ele>
        <time>2021-01-01T10:09:49Z</time>
      </trkpt>
      <trkpt lat="43.60122" lon="3.81388">
        <ele>32</ele>
        <time>2021-01-01T10:09:50Z</time>
      </trkpt>
      <trkpt lat="43.60118" lon="3.81383">
        <ele>32</ele>
        <time>2021-01-01T10:09:51Z</time>
      </trkpt>
      <trkpt lat="43.60114" lon="3.81379">
        <ele>32</ele>
        <time>2021-01-01T10:09:52Z</time>
      </trkpt>
      <trkpt lat="43.60109" lon="3.81374">
        <ele>32</ele>
        <time>2021-01-01T10:09:53Z</time>
      </trkpt>
      <trkpt lat="43.60104" lon="3.81371">
        <ele>32</ele>
        <time>2021-01-01T10:09:54Z</time>
      </trkpt>
      <trkpt lat="43.601" lon="3.81367">
        <ele>32</ele>
        <time>2021-01-01T10:09:55Z</time>
      </trkpt>
      <trkpt lat="43.60096" lon="3.81363">
        <ele>32</ele>
        <time>2021-01-01T10:09:56Z</time>
      </trkpt>
      <trkpt lat="43.60088" lon="3.81356">
        <ele>32</ele>
        <time>2021-01-01T10:09:58Z</time>
      </trkpt>
      <trkpt lat="43.60081" lon="3.81348">
        <ele>32</ele>
        <time>2021-01-01T10:10:00Z</time>
      </trkpt>
      <trkpt lat="43.60074" lon="3.81342">
        <ele>32</ele>
        <time>2021-01-01T10:10:02Z</time>
      </trkpt>
      <trkpt lat="43.60067" lon="3.81336">
        <ele>32</ele>
        <time>2021-01-01T10:10:04Z</time>
      </trkpt>
      <trkpt lat="43.60059" lon="3.81337">
        <ele>32</ele>
        <time>2021-01-01T10:10:06Z</time>
      </trkpt>
      <trkpt lat="43.60054" lon="3.81345">
        <ele>32</ele>
        <time>2021-01-01T10:10:08Z</time>
      </trkpt>
      <trkpt lat="43.60049" lon="3.81356">
        <ele>31</ele>
        <time>2021-01-01T10:10:10Z</time>
      </trkpt>
      <trkpt lat="43.60046" lon="3.81366">
        <ele>31</ele>
        <time>2021-01-01T10:10:12Z</time>
      </trkpt>
      <trkpt lat="43.60041" lon="3.81371">
        <ele>31</ele>
        <time>2021-01-01T10:10:14Z</time>
      </trkpt>
      <trkpt lat="43.60035" lon="3.81371">
        <ele>31</ele>
        <time>2021-01-01T10:10:16Z</time>
      </trkpt>
      <trkpt lat="43.60029" lon="3.81368">
        <ele>31</ele>
        <time>2021-01-01T10:10:18Z</time>
      </trkpt>
      <trkpt lat="43.60024" lon="3.81362">
        <ele>30</ele>
        <time>2021-01-01T10:10:20Z</time>
      </trkpt>
      <trkpt lat="43.60019" lon="3.81354">
        <ele>30</ele>
        <time>2021-01-01T10:10:22Z</time>
      </trkpt>
      <trkpt lat="43.60017" lon="3.81348">
        <ele>29</ele>
        <time>2021-01-01T10:10:24Z</time>
      </trkpt>
      <trkpt lat="43.60014" lon="3.81342">
        <ele>29</ele>
        <time>2021-01-01T10:10:27Z</time>
      </trkpt>
      <trkpt lat="43.60009" lon="3.81337">
        <ele>29</ele>
        <time>2021-01-01T10:10:29Z</time>
      </trkpt>
      <trkpt lat="43.60004" lon="3.81331">
        <ele>29</ele>
        <time>2021-01-01T10:10:31Z</time>
      </trkpt>
      <trkpt lat="43.6" lon="3.81325">
        <ele>29</ele>
        <time>2021-01-01T10:10:33Z</time>
      </trkpt>
      <trkpt lat="43.5999" lon="3.81309">
        <ele>29</ele>
        <time>2021-01-01T10:10:35Z</time>
      </trkpt>
      <trkpt lat="43.59987" lon="3.81304">
        <ele>30</ele>
        <time>2021-01-01T10:10:36Z</time>
      </trkpt>
      <trkpt lat="43.59982" lon="3.81297">
        <ele>30</ele>
        <time>2021-01-01T10:10:38Z</time>
      </trkpt>
      <trkpt lat="43.59976" lon="3.8129">
        <ele>30</ele>
        <time>2021-01-01T10:10:40Z</time>
      </trkpt>
      <trkpt lat="43.59971" lon="3.81283">
        <ele>31</ele>
        <time>2021-01-01T10:10:42Z</time>
      </trkpt>
      <trkpt lat="43.59964" lon="3.81277">
        <ele>31</ele>
        <time>2021-01-01T10:10:44Z</time>
      </trkpt>
      <trkpt lat="43.59959" lon="3.8127">
        <ele>31</ele>
        <time>2021-01-01T10:10:46Z</time>
      </trkpt>
      <trkpt lat="43.59953" lon="3.81264">
        <ele>31</ele>
        <time>2021-01-01T10:10:48Z</time>
      </trkpt>
      <trkpt lat="43.59947" lon="3.81258">
        <ele>31</ele>
        <time>2021-01-01T10:10:50Z</time>
      </trkpt>
      <trkpt lat="43.59942" lon="3.81252">
        <ele>31</ele>
        <time>2021-01-01T10:10:52Z</time>
      </trkpt>
      <trkpt lat="43.59937" lon="3.81248">
        <ele>31</ele>
        <time>2021-01-01T10:10:54Z</time>
      </trkpt>
      <trkpt lat="43.59932" lon="3.81245">
        <ele>32</ele>
        <time>2021-01-01T10:10:57Z</time>
      </trkpt>
      <trkpt lat="43.59922" lon="3.8124">
        <ele>33</ele>
        <time>2021-01-01T10:10:59Z</time>
      </trkpt>
      <trkpt lat="43.59918" lon="3.81237">
        <ele>33</ele>
        <time>2021-01-01T10:11:01Z</time>
      </trkpt>
      <trkpt lat="43.59913" lon="3.81233">
        <ele>34</ele>
        <time>2021-01-01T10:11:03Z</time>
      </trkpt>
      <trkpt lat="43.59909" lon="3.81229">
        <ele>35</ele>
        <time>2021-01-01T10:11:05Z</time>
      </trkpt>
      <trkpt lat="43.59905" lon="3.81225">
        <ele>36</ele>
        <time>2021-01-01T10:11:08Z</time>
      </trkpt>
      <trkpt lat="43.599" lon="3.81222">
        <ele>36</ele>
        <time>2021-01-01T10:11:10Z</time>
      </trkpt>
      <trkpt lat="43.59896" lon="3.81219">
        <ele>36</ele>
        <time>2021-01-01T10:11:12Z</time>
      </trkpt>
      <trkpt lat="43.5989" lon="3.81214">
        <ele>36</ele>
        <time>2021-01-01T10:11:14Z</time>
      </trkpt>
      <trkpt lat="43.59885" lon="3.81209">
        <ele>36</ele>
        <time>2021-01-01T10:11:16Z</time>
      </trkpt>
      <trkpt lat="43.59881" lon="3.81204">
        <ele>37</ele>
        <time>2021-01-01T10:11:18Z</time>
      </trkpt>
      <trkpt lat="43.59876" lon="3.81201">
        <ele>37</ele>
        <time>2021-01-01T10:11:20Z</time>
      </trkpt>
      <trkpt lat="43.59872" lon="3.81197">
        <ele>38</ele>
        <time>2021-01-01T10:11:22Z</time>
      </trkpt>
      <trkpt lat="43.59868" lon="3.81192">
        <ele>38</ele>
        <time>2021-01-01T10:11:24Z</time>
      </trkpt>
      <trkpt lat="43.59865" lon="3.81187">
        <ele>39</ele>
        <time>2021-01-01T10:11:26Z</time>
      </trkpt>
      <trkpt lat="43.59863" lon="3.81182">
        <ele>39</ele>
        <time>2021-01-01T10:11:28Z</time>
      </trkpt>
      <trkpt lat="43.5986" lon="3.81178">
        <ele>40</ele>
        <time>2021-01-01T10:11:30Z</time>
      </trkpt>
      <trkpt lat="43.59856" lon="3.81173">
        <ele>41</ele>
        <time>2021-01-01T10:11:32Z</time>
      </trkpt>
      <trkpt lat="43.59853" lon="3.81168">
        <ele>41</ele>
        <time>2021-01-01T10:11:34Z</time>
      </trkpt>
      <trkpt lat="43.5985" lon="3.81163">
        <ele>42</ele>
        <time>2021-01-01T10:11:36Z</time>
      </trkpt>
      <trkpt lat="43.59845" lon="3.81158">
        <ele>42</ele>
        <time>2021-01-01T10:11:39Z</time>
      </trkpt>
      <trkpt lat="43.59841" lon="3.81151">
        <ele>43</ele>
        <time>2021-01-01T10:11:42Z</time>
      </trkpt>
      <trkpt lat="43.59837" lon="3.81145">
        <ele>43</ele>
        <time>2021-01-01T10:11:45Z</time>
      </trkpt>
      <trkpt lat="43.59833" lon="3.81138">
        <ele>44</ele>
        <time>2021-01-01T10:11:48Z</time>
      </trkpt>
      <trkpt lat="43.59831" lon="3.8113">
        <ele>44</ele>
        <time>2021-01-01T10:11:51Z</time>
      </trkpt>
      <trkpt lat="43.59829" lon="3.81121">
        <ele>43</ele>
        <time>2021-01-01T10:11:54Z</time>
      </trkpt>
      <trkpt lat="43.59826" lon="3.81114">
        <ele>43</ele>
        <time>2021-01-01T10:11:56Z</time>
      </trkpt>
      <trkpt lat="43.59823" lon="3.81107">
        <ele>42</ele>
        <time>2021-01-01T10:11:58Z</time>
      </trkpt>
      <trkpt lat="43.59821" lon="3.81102">
        <ele>42</ele>
        <time>2021-01-01T10:12:00Z</time>
      </trkpt>
      <trkpt lat="43.59816" lon="3.81094">
        <ele>41</ele>
        <time>2021-01-01T10:12:02Z</time>
      </trkpt>
      <trkpt lat="43.59812" lon="3.81083">
        <ele>41</ele>
        <time>2021-01-01T10:12:04Z</time>
      </trkpt>
      <trkpt lat="43.59808" lon="3.81077">
        <ele>41</ele>
        <time>2021-01-01T10:12:06Z</time>
      </trkpt>
      <trkpt lat="43.59805" lon="3.81071">
        <ele>41</ele>
        <time>2021-01-01T10:12:08Z</time>
      </trkpt>
      <trkpt lat="43.59802" lon="3.81064">
        <ele>42</ele>
        <time>2021-01-01T10:12:10Z</time>
      </trkpt>
      <trkpt lat="43.59799" lon="3.81059">
        <ele>43</ele>
        <time>2021-01-01T10:12:12Z</time>
      </trkpt>
      <trkpt lat="43.59797" lon="3.81052">
        <ele>43</ele>
        <time>2021-01-01T10:12:15Z</time>
      </trkpt>
      <trkpt lat="43.59794" lon="3.81046">
        <ele>43</ele>
        <time>2021-01-01T10:12:17Z</time>
      </trkpt>
      <trkpt lat="43.59791" lon="3.81039">
        <ele>44</ele>
        <time>2021-01-01T10:12:19Z</time>
      </trkpt>
      <trkpt lat="43.59788" lon="3.81031">
        <ele>44</ele>
        <time>2021-01-01T10:12:21Z</time>
      </trkpt>
      <trkpt lat="43.59786" lon="3.81025">
        <ele>44</ele>
        <time>2021-01-01T10:12:23Z</time>
      </trkpt>
      <trkpt lat="43.59783" lon="3.81019">
        <ele>45</ele>
        <time>2021-01-01T10:12:25Z</time>
      </trkpt>
      <trkpt lat="43.5978" lon="3.81013">
        <ele>45</ele>
        <time>2021-01-01T10:12:27Z</time>
      </trkpt>
      <trkpt lat="43.59777" lon="3.81006">
        <ele>45</ele>
        <time>2021-01-01T10:12:29Z</time>
      </trkpt>
      <trkpt lat="43.59773" lon="3.80999">
        <ele>46</ele>
        <time>2021-01-01T10:12:31Z</time>
      </trkpt>
      <trkpt lat="43.59769" lon="3.8099">
        <ele>46</ele>
        <time>2021-01-01T10:12:33Z</time>
      </trkpt>
      <trkpt lat="43.59766" lon="3.80983">
        <ele>46</ele>
        <time>2021-01-01T10:12:35Z</time>
      </trkpt>
      <trkpt lat="43.59762" lon="3.80975">
        <ele>46</ele>
        <time>2021-01-01T10:12:37Z</time>
      </trkpt>
      <trkpt lat="43.59759" lon="3.80967">
        <ele>47</ele>
        <time>2021-01-01T10:12:39Z</time>
      </trkpt>
      <trkpt lat="43.59756" lon="3.80959">
        <ele>47</ele>
        <time>2021-01-01T10:12:41Z</time>
      </trkpt>
      <trkpt lat="43.59752" lon="3.80952">
        <ele>48</ele>
        <time>2021-01-01T10:12:43Z</time>
      </trkpt>
      <trkpt lat="43.59747" lon="3.80944">
        <ele>48</ele>
        <time>2021-01-01T10:12:45Z</time>
      </trkpt>
      <trkpt lat="43.59745" lon="3.80937">
        <ele>49</ele>
        <time>2021-01-01T10:12:47Z</time>
      </trkpt>
      <trkpt lat="43.59744" lon="3.80929">
        <ele>49</ele>
        <time>2021-01-01T10:12:50Z</time>
      </trkpt>
      <trkpt lat="43.59742" lon="3.80921">
        <ele>49</ele>
        <time>2021-01-01T10:12:52Z</time>
      </trkpt>
      <trkpt lat="43.59741" lon="3.80913">
        <ele>49</ele>
        <time>2021-01-01T10:12:54Z</time>
      </trkpt>
      <trkpt lat="43.5974" lon="3.80906">
        <ele>49</ele>
        <time>2021-01-01T10:12:57Z</time>
      </trkpt>
      <trkpt lat="43.59737" lon="3.80895">
        <ele>49</ele>
        <time>2021-01-01T10:12:59Z</time>
      </trkpt>
      <trkpt lat="43.59735" lon="3.80887">
        <ele>49</ele>
        <time>2021-01-01T10:13:02Z</time>
      </trkpt>
      <trkpt lat="43.59734" lon="3.80879">
        <ele>49</ele>
        <time>2021-01-01T10:13:04Z</time>
      </trkpt>
      <trkpt lat="43.59733" lon="3.80872">
        <ele>49</ele>
        <time>2021-01-01T10:13:08Z</time>
      </trkpt>
      <trkpt lat="43.59735" lon="3.80873">
        <ele>50</ele>
        <time>2021-01-01T10:13:28Z</time>
      </trkpt>
      <trkpt lat="43.59734" lon="3.80875">
        <ele>50</ele>
        <time>2021-01-01T10:13:30Z</time>
      </trkpt>
      <trkpt lat="43.59734" lon="3.80877">
        <ele>50</ele>
        <time>2021-01-01T10:13:58Z</time>
      </trkpt>
      <trkpt lat="43.59734" lon="3.80877">
        <ele>50</ele>
        <time>2021-01-01T10:14:00Z</time>
      </trkpt>
      <trkpt lat="43.59729" lon="3.8084">
        <ele>51</ele>
        <time>2021-01-01T10:14:27Z</time>
      </trkpt>
      <trkpt lat="43.59726" lon="3.80832">
        <ele>51</ele>
        <time>2021-01-01T10:14:29Z</time>
      </trkpt>
      <trkpt lat="43.59724" lon="3.80824">
        <ele>52</ele>
        <time>2021-01-01T10:14:31Z</time>
      </trkpt>
      <trkpt lat="43.59722" lon="3.80816">
        <ele>52</ele>
        <time>2021-01-01T10:14:33Z</time>
      </trkpt>
      <trkpt lat="43.5972" lon="3.80808">
        <ele>52</ele>
        <time>2021-01-01T10:14:35Z</time>
      </trkpt>
      <trkpt lat="43.59718" lon="3.80799">
        <ele>53</ele>
        <time>2021-01-01T10:14:37Z</time>
      </trkpt>
      <trkpt lat="43.59715" lon="3.8079">
        <ele>53</ele>
        <time>2021-01-01T10:14:39Z</time>
      </trkpt>
      <trkpt lat="43.59712" lon="3.80782">
        <ele>53</ele>
        <time>2021-01-01T10:14:41Z</time>
      </trkpt>
      <trkpt lat="43.5971" lon="3.80773">
        <ele>53</ele>
        <time>2021-01-01T10:14:43Z</time>
      </trkpt>
      <trkpt lat="43.59708" lon="3.80766">
        <ele>54</ele>
        <time>2021-01-01T10:14:46Z</time>
      </trkpt>
      <trkpt lat="43.59707" lon="3.80756">
        <ele>54</ele>
        <time>2021-01-01T10:14:50Z</time>
      </trkpt>
      <trkpt lat="43.59705" lon="3.80747">
        <ele>54</ele>
        <time>2021-01-01T10:14:52Z</time>
      </trkpt>
      <trkpt lat="43.59703" lon="3.80738">
        <ele>54</ele>
        <time>2021-01-01T10:14:54Z</time>
      </trkpt>
      <trkpt lat="43.59702" lon="3.8073">
        <ele>54</ele>
        <time>2021-01-01T10:14:56Z</time>
      </trkpt>
      <trkpt lat="43.597" lon="3.80722">
        <ele>54</ele>
        <time>2021-01-01T10:14:58Z</time>
      </trkpt>
      <trkpt lat="43.59699" lon="3.80715">
        <ele>54</ele>
        <time>2021-01-01T10:15:00Z</time>
      </trkpt>
      <trkpt lat="43.59698" lon="3.80708">
        <ele>54</ele>
        <time>2021-01-01T10:15:03Z</time>
      </trkpt>
      <trkpt lat="43.59695" lon="3.80702">
        <ele>54</ele>
        <time>2021-01-01T10:15:06Z</time>
      </trkpt>
      <trkpt lat="43.59689" lon="3.80703">
        <ele>54</ele>
        <time>2021-01-01T10:15:09Z</time>
      </trkpt>
      <trkpt lat="43.59687" lon="3.8071">
        <ele>54</ele>
        <time>2021-01-01T10:15:12Z</time>
      </trkpt>
      <trkpt lat="43.59688" lon="3.80713">
        <ele>54</ele>
        <time>2021-01-01T10:15:28Z</time>
      </trkpt>
      <trkpt lat="43.59689" lon="3.80715">
        <ele>55</ele>
        <time>2021-01-01T10:15:30Z</time>
      </trkpt>
      <trkpt lat="43.59685" lon="3.80718">
        <ele>55</ele>
        <time>2021-01-01T10:15:33Z</time>
      </trkpt>
      <trkpt lat="43.5968" lon="3.80717">
        <ele>55</ele>
        <time>2021-01-01T10:15:36Z</time>
      </trkpt>
      <trkpt lat="43.59675" lon="3.80717">
        <ele>56</ele>
        <time>2021-01-01T10:15:38Z</time>
      </trkpt>
      <trkpt lat="43.59669" lon="3.80717">
        <ele>56</ele>
        <time>2021-01-01T10:15:41Z</time>
      </trkpt>
      <trkpt lat="43.59662" lon="3.80718">
        <ele>56</ele>
        <time>2021-01-01T10:15:44Z</time>
      </trkpt>
      <trkpt lat="43.59656" lon="3.80718">
        <ele>56</ele>
        <time>2021-01-01T10:15:46Z</time>
      </trkpt>
      <trkpt lat="43.59652" lon="3.8072">
        <ele>55</ele>
        <time>2021-01-01T10:15:48Z</time>
      </trkpt>
      <trkpt lat="43.59647" lon="3.80721">
        <ele>55</ele>
        <time>2021-01-01T10:15:50Z</time>
      </trkpt>
      <trkpt lat="43.59641" lon="3.80723">
        <ele>54</ele>
        <time>2021-01-01T10:15:52Z</time>
      </trkpt>
      <trkpt lat="43.59636" lon="3.80728">
        <ele>54</ele>
        <time>2021-01-01T10:15:54Z</time>
      </trkpt>
      <trkpt lat="43.59627" lon="3.80736">
        <ele>53</ele>
        <time>2021-01-01T10:15:56Z</time>
      </trkpt>
      <trkpt lat="43.59623" lon="3.8074">
        <ele>53</ele>
        <time>2021-01-01T10:15:57Z</time>
      </trkpt>
      <trkpt lat="43.5962" lon="3.80745">
        <ele>53</ele>
        <time>2021-01-01T10:15:58Z</time>
      </trkpt>
      <trkpt lat="43.59615" lon="3.8075">
        <ele>53</ele>
        <time>2021-01-01T10:15:59Z</time>
      </trkpt>
      <trkpt lat="43.59612" lon="3.80754">
        <ele>52</ele>
        <time>2021-01-01T10:16:00Z</time>
      </trkpt>
      <trkpt lat="43.59607" lon="3.80759">
        <ele>52</ele>
        <time>2021-01-01T10:16:01Z</time>
      </trkpt>
      <trkpt lat="43.59603" lon="3.80764">
        <ele>52</ele>
        <time>2021-01-01T10:16:02Z</time>
      </trkpt>
      <trkpt lat="43.59599" lon="3.80768">
        <ele>51</ele>
        <time>2021-01-01T10:16:03Z</time>
      </trkpt>
      <trkpt lat="43.59594" lon="3.80773">
        <ele>51</ele>
        <time>2021-01-01T10:16:04Z</time>
      </trkpt>
      <trkpt lat="43.5959" lon="3.80779">
        <ele>50</ele>
        <time>2021-01-01T10:16:05Z</time>
      </trkpt>
      <trkpt lat="43.59585" lon="3.80785">
        <ele>50</ele>
        <time>2021-01-01T10:16:06Z</time>
      </trkpt>
      <trkpt lat="43.59581" lon="3.80792">
        <ele>50</ele>
        <time>2021-01-01T10:16:07Z</time>
      </trkpt>
      <trkpt lat="43.59577" lon="3.80797">
        <ele>49</ele>
        <time>2021-01-01T10:16:08Z</time>
      </trkpt>
      <trkpt lat="43.59573" lon="3.80802">
        <ele>49</ele>
        <time>2021-01-01T10:16:09Z</time>
      </trkpt>
      <trkpt lat="43.59568" lon="3.80807">
        <ele>49</ele>
        <time>2021-01-01T10:16:10Z</time>
      </trkpt>
      <trkpt lat="43.59564" lon="3.80812">
        <ele>49</ele>
        <time>2021-01-01T10:16:11Z</time>
      </trkpt>
      <trkpt lat="43.5956" lon="3.80817">
        <ele>48</ele>
        <time>2021-01-01T10:16:12Z</time>
      </trkpt>
      <trkpt lat="43.59556" lon="3.80823">
        <ele>48</ele>
        <time>2021-01-01T10:16:13Z</time>
      </trkpt>
      <trkpt lat="43.59552" lon="3.80828">
        <ele>47</ele>
        <time>2021-01-01T10:16:14Z</time>
      </trkpt>
      <trkpt lat="43.59549" lon="3.80833">
        <ele>47</ele>
        <time>2021-01-01T10:16:15Z</time>
      </trkpt>
      <trkpt lat="43.59546" lon="3.80838">
        <ele>47</ele>
        <time>2021-01-01T10:16:16Z</time>
      </trkpt>
      <trkpt lat="43.59542" lon="3.80847">
        <ele>46</ele>
        <time>2021-01-01T10:16:18Z</time>
      </trkpt>
      <trkpt lat="43.59536" lon="3.8085">
        <ele>46</ele>
        <time>2021-01-01T10:16:22Z</time>
      </trkpt>
      <trkpt lat="43.5953" lon="3.80848">
        <ele>45</ele>
        <time>2021-01-01T10:16:24Z</time>
      </trkpt>
      <trkpt lat="43.59522" lon="3.80844">
        <ele>45</ele>
        <time>2021-01-01T10:16:26Z</time>
      </trkpt>
      <trkpt lat="43.59514" lon="3.80839">
        <ele>44</ele>
        <time>2021-01-01T10:16:28Z</time>
      </trkpt>
      <trkpt lat="43.59506" lon="3.80834">
        <ele>44</ele>
        <time>2021-01-01T10:16:30Z</time>
      </trkpt>
      <trkpt lat="43.59498" lon="3.8083">
        <ele>44</ele>
        <time>2021-01-01T10:16:32Z</time>
      </trkpt>
      <trkpt lat="43.59491" lon="3.80825">
        <ele>44</ele>
        <time>2021-01-01T10:16:34Z</time>
      </trkpt>
      <trkpt lat="43.59483" lon="3.80821">
        <ele>45</ele>
        <time>2021-01-01T10:16:36Z</time>
      </trkpt>
      <trkpt lat="43.59475" lon="3.80816">
        <ele>44</ele>
        <time>2021-01-01T10:16:38Z</time>
      </trkpt>
      <trkpt lat="43.59468" lon="3.80811">
        <ele>44</ele>
        <time>2021-01-01T10:16:41Z</time>
      </trkpt>
      <trkpt lat="43.59458" lon="3.80807">
        <ele>43</ele>
        <time>2021-01-01T10:16:43Z</time>
      </trkpt>
      <trkpt lat="43.59452" lon="3.80806">
        <ele>42</ele>
        <time>2021-01-01T10:16:44Z</time>
      </trkpt>
      <trkpt lat="43.59448" lon="3.80805">
        <ele>41</ele>
        <time>2021-01-01T10:16:45Z</time>
      </trkpt>
      <trkpt lat="43.59443" lon="3.80803">
        <ele>41</ele>
        <time>2021-01-01T10:16:46Z</time>
      </trkpt>
      <trkpt lat="43.59438" lon="3.808">
        <ele>41</ele>
        <time>2021-01-01T10:16:47Z</time>
      </trkpt>
      <trkpt lat="43.5943" lon="3.80798">
        <ele>41</ele>
        <time>2021-01-01T10:16:49Z</time>
      </trkpt>
      <trkpt lat="43.5942" lon="3.80796">
        <ele>41</ele>
        <time>2021-01-01T10:16:51Z</time>
      </trkpt>
      <trkpt lat="43.59412" lon="3.80795">
        <ele>42</ele>
        <time>2021-01-01T10:16:53Z</time>
      </trkpt>
      <trkpt lat="43.59404" lon="3.80793">
        <ele>42</ele>
        <time>2021-01-01T10:16:55Z</time>
      </trkpt>
      <trkpt lat="43.59396" lon="3.80791">
        <ele>42</ele>
        <time>2021-01-01T10:16:57Z</time>
      </trkpt>
      <trkpt lat="43.5939" lon="3.80786">
        <ele>43</ele>
        <time>2021-01-01T10:16:59Z</time>
      </trkpt>
      <trkpt lat="43.59385" lon="3.80781">
        <ele>43</ele>
        <time>2021-01-01T10:17:01Z</time>
      </trkpt>
      <trkpt lat="43.59379" lon="3.80776">
        <ele>43</ele>
        <time>2021-01-01T10:17:03Z</time>
      </trkpt>
      <trkpt lat="43.59375" lon="3.80771">
        <ele>44</ele>
        <time>2021-01-01T10:17:04Z</time>
      </trkpt>
      <trkpt lat="43.59372" lon="3.80767">
        <ele>44</ele>
        <time>2021-01-01T10:17:05Z</time>
      </trkpt>
      <trkpt lat="43.59365" lon="3.80759">
        <ele>44</ele>
        <time>2021-01-01T10:17:07Z</time>
      </trkpt>
      <trkpt lat="43.59359" lon="3.80753">
        <ele>44</ele>
        <time>2021-01-01T10:17:09Z</time>
      </trkpt>
      <trkpt lat="43.59352" lon="3.80745">
        <ele>45</ele>
        <time>2021-01-01T10:17:11Z</time>
      </trkpt>
      <trkpt lat="43.59346" lon="3.80739">
        <ele>46</ele>
        <time>2021-01-01T10:17:13Z</time>
      </trkpt>
      <trkpt lat="43.5934" lon="3.80734">
        <ele>46</ele>
        <time>2021-01-01T10:17:15Z</time>
      </trkpt>
      <trkpt lat="43.59335" lon="3.80728">
        <ele>47</ele>
        <time>2021-01-01T10:17:17Z</time>
      </trkpt>
      <trkpt lat="43.5933" lon="3.80722">
        <ele>47</ele>
        <time>2021-01-01T10:17:19Z</time>
      </trkpt>
      <trkpt lat="43.59327" lon="3.80718">
        <ele>48</ele>
        <time>2021-01-01T10:17:22Z</time>
      </trkpt>
      <trkpt lat="43.59319" lon="3.80709">
        <ele>48</ele>
        <time>2021-01-01T10:17:24Z</time>
      </trkpt>
      <trkpt lat="43.59316" lon="3.80705">
        <ele>48</ele>
        <time>2021-01-01T10:17:26Z</time>
      </trkpt>
      <trkpt lat="43.59312" lon="3.807">
        <ele>48</ele>
        <time>2021-01-01T10:17:28Z</time>
      </trkpt>
      <trkpt lat="43.59308" lon="3.80695">
        <ele>48</ele>
        <time>2021-01-01T10:17:31Z</time>
      </trkpt>
      <trkpt lat="43.59304" lon="3.80689">
        <ele>48</ele>
        <time>2021-01-01T10:17:35Z</time>
      </trkpt>
      <trkpt lat="43.593" lon="3.80684">
        <ele>48</ele>
        <time>2021-01-01T10:17:37Z</time>
      </trkpt>
      <trkpt lat="43.59296" lon="3.80676">
        <ele>48</ele>
        <time>2021-01-01T10:17:39Z</time>
      </trkpt>
      <trkpt lat="43.59289" lon="3.80669">
        <ele>48</ele>
        <time>2021-01-01T10:17:41Z</time>
      </trkpt>
      <trkpt lat="43.59283" lon="3.80662">
        <ele>47</ele>
        <time>2021-01-01T10:17:43Z</time>
      </trkpt>
      <trkpt lat="43.59277" lon="3.80654">
        <ele>47</ele>
        <time>2021-01-01T10:17:45Z</time>
      </trkpt>
      <trkpt lat="43.59271" lon="3.80648">
        <ele>47</ele>
        <time>2021-01-01T10:17:47Z</time>
      </trkpt>
      <trkpt lat="43.59265" lon="3.80641">
        <ele>47</ele>
        <time>2021-01-01T10:17:49Z</time>
      </trkpt>
      <trkpt lat="43.59258" lon="3.80636">
        <ele>47</ele>
        <time>2021-01-01T10:17:51Z</time>
      </trkpt>
      <trkpt lat="43.59253" lon="3.80631">
        <ele>47</ele>
        <time>2021-01-01T10:17:53Z</time>
      </trkpt>
      <trkpt lat="43.59248" lon="3.80625">
        <ele>47</ele>
        <time>2021-01-01T10:17:55Z</time>
      </trkpt>
      <trkpt lat="43.59245" lon="3.80617">
        <ele>47</ele>
        <time>2021-01-01T10:17:57Z</time>
      </trkpt>
      <trkpt lat="43.59244" lon="3.8061">
        <ele>47</ele>
        <time>2021-01-01T10:18:00Z</time>
      </trkpt>
      <trkpt lat="43.59242" lon="3.80598">
        <ele>47</ele>
        <time>2021-01-01T10:18:01Z</time>
      </trkpt>
      <trkpt lat="43.59238" lon="3.80589">
        <ele>46</ele>
        <time>2021-01-01T10:18:03Z</time>
      </trkpt>
      <trkpt lat="43.59233" lon="3.8058">
        <ele>46</ele>
        <time>2021-01-01T10:18:05Z</time>
      </trkpt>
      <trkpt lat="43.59227" lon="3.80571">
        <ele>46</ele>
        <time>2021-01-01T10:18:07Z</time>
      </trkpt>
      <trkpt lat="43.59222" lon="3.80562">
        <ele>46</ele>
        <time>2021-01-01T10:18:09Z</time>
      </trkpt>
      <trkpt lat="43.59219" lon="3.80553">
        <ele>46</ele>
        <time>2021-01-01T10:18:12Z</time>
      </trkpt>
      <trkpt lat="43.59217" lon="3.80547">
        <ele>45</ele>
        <time>2021-01-01T10:18:13Z</time>
      </trkpt>
      <trkpt lat="43.59212" lon="3.80538">
        <ele>45</ele>
        <time>2021-01-01T10:18:15Z</time>
      </trkpt>
      <trkpt lat="43.59205" lon="3.80526">
        <ele>45</ele>
        <time>2021-01-01T10:18:17Z</time>
      </trkpt>
      <trkpt lat="43.59201" lon="3.80518">
        <ele>44</ele>
        <time>2021-01-01T10:18:19Z</time>
      </trkpt>
      <trkpt lat="43.59196" lon="3.80509">
        <ele>44</ele>
        <time>2021-01-01T10:18:21Z</time>
      </trkpt>
      <trkpt lat="43.59191" lon="3.805">
        <ele>43</ele>
        <time>2021-01-01T10:18:23Z</time>
      </trkpt>
      <trkpt lat="43.59189" lon="3.80494">
        <ele>43</ele>
        <time>2021-01-01T10:18:25Z</time>
      </trkpt>
      <trkpt lat="43.59186" lon="3.80487">
        <ele>42</ele>
        <time>2021-01-01T10:18:28Z</time>
      </trkpt>
      <trkpt lat="43.59179" lon="3.80474">
        <ele>42</ele>
        <time>2021-01-01T10:18:29Z</time>
      </trkpt>
      <trkpt lat="43.59175" lon="3.80468">
        <ele>41</ele>
        <time>2021-01-01T10:18:31Z</time>
      </trkpt>
      <trkpt lat="43.5917" lon="3.80463">
        <ele>41</ele>
        <time>2021-01-01T10:18:33Z</time>
      </trkpt>
      <trkpt lat="43.59164" lon="3.80459">
        <ele>41</ele>
        <time>2021-01-01T10:18:35Z</time>
      </trkpt>
      <trkpt lat="43.5916" lon="3.80452">
        <ele>40</ele>
        <time>2021-01-01T10:18:37Z</time>
      </trkpt>
      <trkpt lat="43.59155" lon="3.80445">
        <ele>40</ele>
        <time>2021-01-01T10:18:39Z</time>
      </trkpt>
      <trkpt lat="43.59152" lon="3.80438">
        <ele>40</ele>
        <time>2021-01-01T10:18:41Z</time>
      </trkpt>
      <trkpt lat="43.59147" lon="3.80431">
        <ele>40</ele>
        <time>2021-01-01T10:18:43Z</time>
      </trkpt>
      <trkpt lat="43.59144" lon="3.80425">
        <ele>40</ele>
        <time>2021-01-01T10:18:45Z</time>
      </trkpt>
      <trkpt lat="43.5914" lon="3.8042">
        <ele>40</ele>
        <time>2021-01-01T10:18:47Z</time>
      </trkpt>
      <trkpt lat="43.59137" lon="3.80414">
        <ele>40</ele>
        <time>2021-01-01T10:18:49Z</time>
      </trkpt>
      <trkpt lat="43.59134" lon="3.80407">
        <ele>40</ele>
        <time>2021-01-01T10:18:51Z</time>
      </trkpt>
      <trkpt lat="43.59131" lon="3.804">
        <ele>39</ele>
        <time>2021-01-01T10:18:53Z</time>
      </trkpt>
      <trkpt lat="43.59128" lon="3.80393">
        <ele>39</ele>
        <time>2021-01-01T10:18:55Z</time>
      </trkpt>
      <trkpt lat="43.59124" lon="3.80387">
        <ele>39</ele>
        <time>2021-01-01T10:18:57Z</time>
      </trkpt>
      <trkpt lat="43.59121" lon="3.80382">
        <ele>39</ele>
        <time>2021-01-01T10:18:59Z</time>
      </trkpt>
      <trkpt lat="43.59118" lon="3.80377">
        <ele>39</ele>
        <time>2021-01-01T10:19:02Z</time>
      </trkpt>
      <trkpt lat="43.59115" lon="3.8037">
        <ele>40</ele>
        <time>2021-01-01T10:19:06Z</time>
      </trkpt>
      <trkpt lat="43.59111" lon="3.80363">
        <ele>41</ele>
        <time>2021-01-01T10:19:09Z</time>
      </trkpt>
      <trkpt lat="43.59108" lon="3.80358">
        <ele>41</ele>
        <time>2021-01-01T10:19:12Z</time>
      </trkpt>
      <trkpt lat="43.59105" lon="3.80353">
        <ele>42</ele>
        <time>2021-01-01T10:19:17Z</time>
      </trkpt>
      <trkpt lat="43.59103" lon="3.80347">
        <ele>43</ele>
        <time>2021-01-01T10:19:22Z</time>
      </trkpt>
      <trkpt lat="43.59103" lon="3.80339">
        <ele>43</ele>
        <time>2021-01-01T10:19:26Z</time>
      </trkpt>
      <trkpt lat="43.59102" lon="3.8033">
        <ele>44</ele>
        <time>2021-01-01T10:19:29Z</time>
      </trkpt>
      <trkpt lat="43.59102" lon="3.80322">
        <ele>44</ele>
        <time>2021-01-01T10:19:31Z</time>
      </trkpt>
      <trkpt lat="43.59102" lon="3.80315">
        <ele>45</ele>
        <time>2021-01-01T10:19:33Z</time>
      </trkpt>
      <trkpt lat="43.59102" lon="3.80307">
        <ele>45</ele>
        <time>2021-01-01T10:19:35Z</time>
      </trkpt>
      <trkpt lat="43.591" lon="3.80299">
        <ele>46</ele>
        <time>2021-01-01T10:19:37Z</time>
      </trkpt>
      <trkpt lat="43.59098" lon="3.80291">
        <ele>46</ele>
        <time>2021-01-01T10:19:39Z</time>
      </trkpt>
      <trkpt lat="43.59097" lon="3.80283">
        <ele>46</ele>
        <time>2021-01-01T10:19:41Z</time>
      </trkpt>
      <trkpt lat="43.59096" lon="3.80273">
        <ele>46</ele>
        <time>2021-01-01T10:19:43Z</time>
      </trkpt>
      <trkpt lat="43.59094" lon="3.80265">
        <ele>46</ele>
        <time>2021-01-01T10:19:45Z</time>
      </trkpt>
      <trkpt lat="43.5909" lon="3.80261">
        <ele>46</ele>
        <time>2021-01-01T10:19:48Z</time>
      </trkpt>
      <trkpt lat="43.59085" lon="3.80254">
        <ele>46</ele>
        <time>2021-01-01T10:19:51Z</time>
      </trkpt>
      <trkpt lat="43.59083" lon="3.80247">
        <ele>46</ele>
        <time>2021-01-01T10:19:53Z</time>
      </trkpt>
      <trkpt lat="43.59081" lon="3.80239">
        <ele>46</ele>
        <time>2021-01-01T10:19:55Z</time>
      </trkpt>
      <trkpt lat="43.59078" lon="3.80231">
        <ele>46</ele>
        <time>2021-01-01T10:19:57Z</time>
      </trkpt>
      <trkpt lat="43.59076" lon="3.80222">
        <ele>45</ele>
        <time>2021-01-01T10:19:59Z</time>
      </trkpt>
      <trkpt lat="43.59073" lon="3.80213">
        <ele>45</ele>
        <time>2021-01-01T10:20:01Z</time>
      </trkpt>
      <trkpt lat="43.59067" lon="3.80203">
        <ele>44</ele>
        <time>2021-01-01T10:20:03Z</time>
      </trkpt>
      <trkpt lat="43.59065" lon="3.80197">
        <ele>44</ele>
        <time>2021-01-01T10:20:04Z</time>
      </trkpt>
      <trkpt lat="43.59062" lon="3.80192">
        <ele>44</ele>
        <time>2021-01-01T10:20:05Z</time>
      </trkpt>
      <trkpt lat="43.5906" lon="3.80187">
        <ele>44</ele>
        <time>2021-01-01T10:20:06Z</time>
      </trkpt>
      <trkpt lat="43.59057" lon="3.80177">
        <ele>44</ele>
        <time>2021-01-01T10:20:08Z</time>
      </trkpt>
      <trkpt lat="43.59053" lon="3.80171">
        <ele>45</ele>
        <time>2021-01-01T10:20:09Z</time>
      </trkpt>
      <trkpt lat="43.5905" lon="3.80165">
        <ele>45</ele>
        <time>2021-01-01T10:20:10Z</time>
      </trkpt>
      <trkpt lat="43.59047" lon="3.80159">
        <ele>45</ele>
        <time>2021-01-01T10:20:11Z</time>
      </trkpt>
      <trkpt lat="43.59044" lon="3.80152">
        <ele>45</ele>
        <time>2021-01-01T10:20:12Z</time>
      </trkpt>
      <trkpt lat="43.59041" lon="3.80146">
        <ele>45</ele>
        <time>2021-01-01T10:20:13Z</time>
      </trkpt>
      <trkpt lat="43.59038" lon="3.8014">
        <ele>44</ele>
        <time>2021-01-01T10:20:14Z</time>
      </trkpt>
      <trkpt lat="43.59035" lon="3.80135">
        <ele>43</ele>
        <time>2021-01-01T10:20:15Z</time>
      </trkpt>
      <trkpt lat="43.5903" lon="3.80125">
        <ele>43</ele>
        <time>2021-01-01T10:20:17Z</time>
      </trkpt>
      <trkpt lat="43.59024" lon="3.80116">
        <ele>42</ele>
        <time>2021-01-01T10:20:19Z</time>
      </trkpt>
      <trkpt lat="43.5902" lon="3.80114">
        <ele>42</ele>
        <time>2021-01-01T10:20:21Z</time>
      </trkpt>
      <trkpt lat="43.59013" lon="3.80115">
        <ele>41</ele>
        <time>2021-01-01T10:20:23Z</time>
      </trkpt>
      <trkpt lat="43.59006" lon="3.80115">
        <ele>41</ele>
        <time>2021-01-01T10:20:25Z</time>
      </trkpt>
      <trkpt lat="43.58997" lon="3.80116">
        <ele>40</ele>
        <time>2021-01-01T10:20:27Z</time>
      </trkpt>
      <trkpt lat="43.58993" lon="3.80118">
        <ele>40</ele>
        <time>2021-01-01T10:20:28Z</time>
      </trkpt>
      <trkpt lat="43.58986" lon="3.80125">
        <ele>40</ele>
        <time>2021-01-01T10:20:30Z</time>
      </trkpt>
      <trkpt lat="43.58978" lon="3.80131">
        <ele>40</ele>
        <time>2021-01-01T10:20:32Z</time>
      </trkpt>
      <trkpt lat="43.58971" lon="3.80138">
        <ele>40</ele>
        <time>2021-01-01T10:20:34Z</time>
      </trkpt>
      <trkpt lat="43.58965" lon="3.80142">
        <ele>40</ele>
        <time>2021-01-01T10:20:36Z</time>
      </trkpt>
      <trkpt lat="43.58958" lon="3.8014">
        <ele>40</ele>
        <time>2021-01-01T10:20:39Z</time>
      </trkpt>
      <trkpt lat="43.58952" lon="3.80144">
        <ele>40</ele>
        <time>2021-01-01T10:20:41Z</time>
      </trkpt>
      <trkpt lat="43.58944" lon="3.80151">
        <ele>39</ele>
        <time>2021-01-01T10:20:43Z</time>
      </trkpt>
      <trkpt lat="43.58939" lon="3.80154">
        <ele>39</ele>
        <time>2021-01-01T10:20:44Z</time>
      </trkpt>
      <trkpt lat="43.58931" lon="3.80159">
        <ele>39</ele>
        <time>2021-01-01T10:20:46Z</time>
      </trkpt>
      <trkpt lat="43.58926" lon="3.80162">
        <ele>39</ele>
        <time>2021-01-01T10:20:47Z</time>
      </trkpt>
      <trkpt lat="43.5892" lon="3.80168">
        <ele>39</ele>
        <time>2021-01-01T10:20:49Z</time>
      </trkpt>
      <trkpt lat="43.58915" lon="3.80171">
        <ele>40</ele>
        <time>2021-01-01T10:20:50Z</time>
      </trkpt>
      <trkpt lat="43.58911" lon="3.80174">
        <ele>40</ele>
        <time>2021-01-01T10:20:51Z</time>
      </trkpt>
      <trkpt lat="43.58905" lon="3.80179">
        <ele>40</ele>
        <time>2021-01-01T10:20:52Z</time>
      </trkpt>
      <trkpt lat="43.58901" lon="3.80182">
        <ele>40</ele>
        <time>2021-01-01T10:20:53Z</time>
      </trkpt>
      <trkpt lat="43.58897" lon="3.80184">
        <ele>40</ele>
        <time>2021-01-01T10:20:54Z</time>
      </trkpt>
      <trkpt lat="43.58892" lon="3.80187">
        <ele>40</ele>
        <time>2021-01-01T10:20:55Z</time>
      </trkpt>
      <trkpt lat="43.58888" lon="3.8019">
        <ele>40</ele>
        <time>2021-01-01T10:20:56Z</time>
      </trkpt>
      <trkpt lat="43.58883" lon="3.80194">
        <ele>40</ele>
        <time>2021-01-01T10:20:57Z</time>
      </trkpt>
      <trkpt lat="43.58877" lon="3.80199">
        <ele>39</ele>
        <time>2021-01-01T10:20:58Z</time>
      </trkpt>
      <trkpt lat="43.58872" lon="3.80202">
        <ele>39</ele>
        <time>2021-01-01T10:20:59Z</time>
      </trkpt>
      <trkpt lat="43.58866" lon="3.80205">
        <ele>39</ele>
        <time>2021-01-01T10:21:00Z</time>
      </trkpt>
      <trkpt lat="43.58861" lon="3.80209">
        <ele>39</ele>
        <time>2021-01-01T10:21:01Z</time>
      </trkpt>
      <trkpt lat="43.58856" lon="3.80213">
        <ele>39</ele>
        <time>2021-01-01T10:21:02Z</time>
      </trkpt>
      <trkpt lat="43.58851" lon="3.80218">
        <ele>38</ele>
        <time>2021-01-01T10:21:03Z</time>
      </trkpt>
      <trkpt lat="43.58846" lon="3.80221">
        <ele>38</ele>
        <time>2021-01-01T10:21:04Z</time>
      </trkpt>
      <trkpt lat="43.5884" lon="3.80223">
        <ele>37</ele>
        <time>2021-01-01T10:21:05Z</time>
      </trkpt>
      <trkpt lat="43.58834" lon="3.80223">
        <ele>37</ele>
        <time>2021-01-01T10:21:06Z</time>
      </trkpt>
      <trkpt lat="43.58829" lon="3.80224">
        <ele>36</ele>
        <time>2021-01-01T10:21:07Z</time>
      </trkpt>
      <trkpt lat="43.58823" lon="3.80227">
        <ele>35</ele>
        <time>2021-01-01T10:21:08Z</time>
      </trkpt>
      <trkpt lat="43.58817" lon="3.80231">
        <ele>34</ele>
        <time>2021-01-01T10:21:09Z</time>
      </trkpt>
      <trkpt lat="43.58812" lon="3.80234">
        <ele>34</ele>
        <time>2021-01-01T10:21:10Z</time>
      </trkpt>
      <trkpt lat="43.58806" lon="3.80238">
        <ele>33</ele>
        <time>2021-01-01T10:21:11Z</time>
      </trkpt>
      <trkpt lat="43.58799" lon="3.80241">
        <ele>33</ele>
        <time>2021-01-01T10:21:12Z</time>
      </trkpt>
      <trkpt lat="43.58793" lon="3.80243">
        <ele>33</ele>
        <time>2021-01-01T10:21:13Z</time>
      </trkpt>
      <trkpt lat="43.58786" lon="3.80244">
        <ele>33</ele>
        <time>2021-01-01T10:21:14Z</time>
      </trkpt>
      <trkpt lat="43.5878" lon="3.80246">
        <ele>33</ele>
        <time>2021-01-01T10:21:15Z</time>
      </trkpt>
      <trkpt lat="43.58773" lon="3.80248">
        <ele>33</ele>
        <time>2021-01-01T10:21:16Z</time>
      </trkpt>
      <trkpt lat="43.58767" lon="3.80251">
        <ele>33</ele>
        <time>2021-01-01T10:21:17Z</time>
      </trkpt>
      <trkpt lat="43.5876" lon="3.80252">
        <ele>33</ele>
        <time>2021-01-01T10:21:18Z</time>
      </trkpt>
      <trkpt lat="43.58753" lon="3.80254">
        <ele>33</ele>
        <time>2021-01-01T10:21:19Z</time>
      </trkpt>
      <trkpt lat="43.58746" lon="3.80256">
        <ele>33</ele>
        <time>2021-01-01T10:21:20Z</time>
      </trkpt>
      <trkpt lat="43.5874" lon="3.80258">
        <ele>33</ele>
        <time>2021-01-01T10:21:21Z</time>
      </trkpt>
      <trkpt lat="43.58733" lon="3.80261">
        <ele>33</ele>
        <time>2021-01-01T10:21:22Z</time>
      </trkpt>
      <trkpt lat="43.58726" lon="3.80264">
        <ele>33</ele>
        <time>2021-01-01T10:21:23Z</time>
      </trkpt>
      <trkpt lat="43.58719" lon="3.80267">
        <ele>33</ele>
        <time>2021-01-01T10:21:24Z</time>
      </trkpt>
      <trkpt lat="43.58712" lon="3.80271">
        <ele>33</ele>
        <time>2021-01-01T10:21:25Z</time>
      </trkpt>
      <trkpt lat="43.58706" lon="3.80273">
        <ele>32</ele>
        <time>2021-01-01T10:21:26Z</time>
      </trkpt>
      <trkpt lat="43.58698" lon="3.80276">
        <ele>32</ele>
        <time>2021-01-01T10:21:27Z</time>
      </trkpt>
      <trkpt lat="43.58691" lon="3.80278">
        <ele>31</ele>
        <time>2021-01-01T10:21:28Z</time>
      </trkpt>
      <trkpt lat="43.58685" lon="3.80282">
        <ele>31</ele>
        <time>2021-01-01T10:21:29Z</time>
      </trkpt>
      <trkpt lat="43.58679" lon="3.80285">
        <ele>31</ele>
        <time>2021-01-01T10:21:30Z</time>
      </trkpt>
      <trkpt lat="43.58672" lon="3.80288">
        <ele>30</ele>
        <time>2021-01-01T10:21:31Z</time>
      </trkpt>
      <trkpt lat="43.58664" lon="3.80292">
        <ele>30</ele>
        <time>2021-01-01T10:21:32Z</time>
      </trkpt>
      <trkpt lat="43.58657" lon="3.80295">
        <ele>30</ele>
        <time>2021-01-01T10:21:33Z</time>
      </trkpt>
      <trkpt lat="43.58651" lon="3.80299">
        <ele>29</ele>
        <time>2021-01-01T10:21:34Z</time>
      </trkpt>
      <trkpt lat="43.58646" lon="3.80303">
        <ele>29</ele>
        <time>2021-01-01T10:21:35Z</time>
      </trkpt>
      <trkpt lat="43.58639" lon="3.80307">
        <ele>29</ele>
        <time>2021-01-01T10:21:36Z</time>
      </trkpt>
      <trkpt lat="43.58632" lon="3.8031">
        <ele>29</ele>
        <time>2021-01-01T10:21:37Z</time>
      </trkpt>
      <trkpt lat="43.58626" lon="3.80315">
        <ele>29</ele>
        <time>2021-01-01T10:21:38Z</time>
      </trkpt>
      <trkpt lat="43.58621" lon="3.80319">
        <ele>29</ele>
        <time>2021-01-01T10:21:39Z</time>
      </trkpt>
      <trkpt lat="43.58615" lon="3.80324">
        <ele>29</ele>
        <time>2021-01-01T10:21:40Z</time>
      </trkpt>
      <trkpt lat="43.5861" lon="3.80328">
        <ele>29</ele>
        <time>2021-01-01T10:21:41Z</time>
      </trkpt>
      <trkpt lat="43.58605" lon="3.80334">
        <ele>29</ele>
        <time>2021-01-01T10:21:42Z</time>
      </trkpt>
      <trkpt lat="43.586" lon="3.8034">
        <ele>29</ele>
        <time>2021-01-01T10:21:43Z</time>
      </trkpt>
      <trkpt lat="43.58596" lon="3.80347">
        <ele>29</ele>
        <time>2021-01-01T10:21:44Z</time>
      </trkpt>
      <trkpt lat="43.58591" lon="3.80353">
        <ele>29</ele>
        <time>2021-01-01T10:21:45Z</time>
      </trkpt>
      <trkpt lat="43.58587" lon="3.8036">
        <ele>29</ele>
        <time>2021-01-01T10:21:46Z</time>
      </trkpt>
      <trkpt lat="43.58582" lon="3.80366">
        <ele>29</ele>
        <time>2021-01-01T10:21:47Z</time>
      </trkpt>
      <trkpt lat="43.58579" lon="3.80372">
        <ele>29</ele>
        <time>2021-01-01T10:21:48Z</time>
      </trkpt>
      <trkpt lat="43.58575" lon="3.80379">
        <ele>29</ele>
        <time>2021-01-01T10:21:49Z</time>
      </trkpt>
      <trkpt lat="43.58571" lon="3.80386">
        <ele>29</ele>
        <time>2021-01-01T10:21:50Z</time>
      </trkpt>
      <trkpt lat="43.58566" lon="3.80393">
        <ele>29</ele>
        <time>2021-01-01T10:21:51Z</time>
      </trkpt>
      <trkpt lat="43.58563" lon="3.80398">
        <ele>29</ele>
        <time>2021-01-01T10:21:52Z</time>
      </trkpt>
      <trkpt lat="43.58559" lon="3.80404">
        <ele>29</ele>
        <time>2021-01-01T10:21:53Z</time>
      </trkpt>
      <trkpt lat="43.58553" lon="3.8041">
        <ele>29</ele>
        <time>2021-01-01T10:21:54Z</time>
      </trkpt>
      <trkpt lat="43.58549" lon="3.80416">
        <ele>29</ele>
        <time>2021-01-01T10:21:55Z</time>
      </trkpt>
      <trkpt lat="43.58544" lon="3.80422">
        <ele>28</ele>
        <time>2021-01-01T10:21:56Z</time>
      </trkpt>
      <trkpt lat="43.58539" lon="3.80428">
        <ele>29</ele>
        <time>2021-01-01T10:21:57Z</time>
      </trkpt>
      <trkpt lat="43.58535" lon="3.80434">
        <ele>29</ele>
        <time>2021-01-01T10:21:58Z</time>
      </trkpt>
      <trkpt lat="43.5853" lon="3.8044">
        <ele>29</ele>
        <time>2021-01-01T10:21:59Z</time>
      </trkpt>
      <trkpt lat="43.58526" lon="3.80444">
        <ele>29</ele>
        <time>2021-01-01T10:22:00Z</time>
      </trkpt>
      <trkpt lat="43.58522" lon="3.80448">
        <ele>29</ele>
        <time>2021-01-01T10:22:01Z</time>
      </trkpt>
      <trkpt lat="43.58517" lon="3.80453">
        <ele>29</ele>
        <time>2021-01-01T10:22:02Z</time>
      </trkpt>
      <trkpt lat="43.58512" lon="3.80456">
        <ele>29</ele>
        <time>2021-01-01T10:22:03Z</time>
      </trkpt>
      <trkpt lat="43.58508" lon="3.80459">
        <ele>29</ele>
        <time>2021-01-01T10:22:04Z</time>
      </trkpt>
      <trkpt lat="43.58504" lon="3.80463">
        <ele>29</ele>
        <time>2021-01-01T10:22:05Z</time>
      </trkpt>
      <trkpt lat="43.58497" lon="3.80469">
        <ele>29</ele>
        <time>2021-01-01T10:22:07Z</time>
      </trkpt>
      <trkpt lat="43.58492" lon="3.80475">
        <ele>29</ele>
        <time>2021-01-01T10:22:09Z</time>
      </trkpt>
      <trkpt lat="43.5849" lon="3.80485">
        <ele>29</ele>
        <time>2021-01-01T10:22:11Z</time>
      </trkpt>
      <trkpt lat="43.58489" lon="3.80491">
        <ele>30</ele>
        <time>2021-01-01T10:22:12Z</time>
      </trkpt>
      <trkpt lat="43.58486" lon="3.80496">
        <ele>30</ele>
        <time>2021-01-01T10:22:13Z</time>
      </trkpt>
      <trkpt lat="43.58482" lon="3.80505">
        <ele>31</ele>
        <time>2021-01-01T10:22:16Z</time>
      </trkpt>
      <trkpt lat="43.58475" lon="3.80523">
        <ele>31</ele>
        <time>2021-01-01T10:22:18Z</time>
      </trkpt>
      <trkpt lat="43.58472" lon="3.8053">
        <ele>30</ele>
        <time>2021-01-01T10:22:19Z</time>
      </trkpt>
      <trkpt lat="43.58468" lon="3.80535">
        <ele>30</ele>
        <time>2021-01-01T10:22:20Z</time>
      </trkpt>
      <trkpt lat="43.58464" lon="3.80541">
        <ele>29</ele>
        <time>2021-01-01T10:22:21Z</time>
      </trkpt>
      <trkpt lat="43.58461" lon="3.80548">
        <ele>28</ele>
        <time>2021-01-01T10:22:22Z</time>
      </trkpt>
      <trkpt lat="43.58456" lon="3.80554">
        <ele>28</ele>
        <time>2021-01-01T10:22:23Z</time>
      </trkpt>
      <trkpt lat="43.58453" lon="3.8056">
        <ele>28</ele>
        <time>2021-01-01T10:22:24Z</time>
      </trkpt>
      <trkpt lat="43.58449" lon="3.80567">
        <ele>28</ele>
        <time>2021-01-01T10:22:25Z</time>
      </trkpt>
      <trkpt lat="43.58447" lon="3.80574">
        <ele>28</ele>
        <time>2021-01-01T10:22:26Z</time>
      </trkpt>
      <trkpt lat="43.58442" lon="3.80579">
        <ele>28</ele>
        <time>2021-01-01T10:22:27Z</time>
      </trkpt>
      <trkpt lat="43.58439" lon="3.80586">
        <ele>28</ele>
        <time>2021-01-01T10:22:28Z</time>
      </trkpt>
      <trkpt lat="43.58436" lon="3.80592">
        <ele>28</ele>
        <time>2021-01-01T10:22:29Z</time>
      </trkpt>
      <trkpt lat="43.58434" lon="3.80599">
        <ele>27</ele>
        <time>2021-01-01T10:22:30Z</time>
      </trkpt>
      <trkpt lat="43.58431" lon="3.80606">
        <ele>27</ele>
        <time>2021-01-01T10:22:32Z</time>
      </trkpt>
      <trkpt lat="43.58427" lon="3.8061">
        <ele>26</ele>
        <time>2021-01-01T10:22:36Z</time>
      </trkpt>
      <trkpt lat="43.58423" lon="3.80616">
        <ele>26</ele>
        <time>2021-01-01T10:22:41Z</time>
      </trkpt>
      <trkpt lat="43.5842" lon="3.80622">
        <ele>27</ele>
        <time>2021-01-01T10:22:43Z</time>
      </trkpt>
      <trkpt lat="43.58416" lon="3.8063">
        <ele>27</ele>
        <time>2021-01-01T10:22:45Z</time>
      </trkpt>
      <trkpt lat="43.58412" lon="3.80638">
        <ele>28</ele>
        <time>2021-01-01T10:22:47Z</time>
      </trkpt>
      <trkpt lat="43.58408" lon="3.80648">
        <ele>30</ele>
        <time>2021-01-01T10:22:49Z</time>
      </trkpt>
      <trkpt lat="43.58404" lon="3.80656">
        <ele>30</ele>
        <time>2021-01-01T10:22:51Z</time>
      </trkpt>
      <trkpt lat="43.58401" lon="3.8066">
        <ele>30</ele>
        <time>2021-01-01T10:22:53Z</time>
      </trkpt>
      <trkpt lat="43.58397" lon="3.80663">
        <ele>31</ele>
        <time>2021-01-01T10:22:55Z</time>
      </trkpt>
      <trkpt lat="43.58395" lon="3.8067">
        <ele>32</ele>
        <time>2021-01-01T10:22:57Z</time>
      </trkpt>
      <trkpt lat="43.58396" lon="3.80681">
        <ele>32</ele>
        <time>2021-01-01T10:22:59Z</time>
      </trkpt>
      <trkpt lat="43.58397" lon="3.80688">
        <ele>31</ele>
        <time>2021-01-01T10:23:01Z</time>
      </trkpt>
      <trkpt lat="43.58395" lon="3.80697">
        <ele>31</ele>
        <time>2021-01-01T10:23:03Z</time>
      </trkpt>
      <trkpt lat="43.58394" lon="3.80703">
        <ele>30</ele>
        <time>2021-01-01T10:23:04Z</time>
      </trkpt>
      <trkpt lat="43.58391" lon="3.80717">
        <ele>29</ele>
        <time>2021-01-01T10:23:05Z</time>
      </trkpt>
      <trkpt lat="43.58389" lon="3.80723">
        <ele>29</ele>
        <time>2021-01-01T10:23:06Z</time>
      </trkpt>
      <trkpt lat="43.58388" lon="3.8073">
        <ele>29</ele>
        <time>2021-01-01T10:23:07Z</time>
      </trkpt>
      <trkpt lat="43.58387" lon="3.80737">
        <ele>29</ele>
        <time>2021-01-01T10:23:08Z</time>
      </trkpt>
      <trkpt lat="43.58387" lon="3.80744">
        <ele>29</ele>
        <time>2021-01-01T10:23:09Z</time>
      </trkpt>
      <trkpt lat="43.58387" lon="3.80751">
        <ele>28</ele>
        <time>2021-01-01T10:23:10Z</time>
      </trkpt>
      <trkpt lat="43.58387" lon="3.80759">
        <ele>28</ele>
        <time>2021-01-01T10:23:11Z</time>
      </trkpt>
      <trkpt lat="43.58389" lon="3.80767">
        <ele>28</ele>
        <time>2021-01-01T10:23:12Z</time>
      </trkpt>
      <trkpt lat="43.58389" lon="3.80775">
        <ele>28</ele>
        <time>2021-01-01T10:23:13Z</time>
      </trkpt>
      <trkpt lat="43.5839" lon="3.80784">
        <ele>29</ele>
        <time>2021-01-01T10:23:14Z</time>
      </trkpt>
      <trkpt lat="43.58391" lon="3.80791">
        <ele>29</ele>
        <time>2021-01-01T10:23:15Z</time>
      </trkpt>
      <trkpt lat="43.58391" lon="3.80799">
        <ele>29</ele>
        <time>2021-01-01T10:23:16Z</time>
      </trkpt>
      <trkpt lat="43.5839" lon="3.80808">
        <ele>29</ele>
        <time>2021-01-01T10:23:17Z</time>
      </trkpt>
      <trkpt lat="43.58391" lon="3.80816">
        <ele>29</ele>
        <time>2021-01-01T10:23:18Z</time>
      </trkpt>
      <trkpt lat="43.58392" lon="3.80825">
        <ele>29</ele>
        <time>2021-01-01T10:23:19Z</time>
      </trkpt>
      <trkpt lat="43.58391" lon="3.80833">
        <ele>29</ele>
        <time>2021-01-01T10:23:20Z</time>
      </trkpt>
      <trkpt lat="43.58391" lon="3.80842">
        <ele>29</ele>
        <time>2021-01-01T10:23:21Z</time>
      </trkpt>
      <trkpt lat="43.5839" lon="3.80851">
        <ele>29</ele>
        <time>2021-01-01T10:23:22Z</time>
      </trkpt>
      <trkpt lat="43.58391" lon="3.8086">
        <ele>28</ele>
        <time>2021-01-01T10:23:23Z</time>
      </trkpt>
      <trkpt lat="43.58392" lon="3.8087">
        <ele>28</ele>
        <time>2021-01-01T10:23:24Z</time>
      </trkpt>
      <trkpt lat="43.58393" lon="3.8088">
        <ele>28</ele>
        <time>2021-01-01T10:23:25Z</time>
      </trkpt>
      <trkpt lat="43.58394" lon="3.80889">
        <ele>27</ele>
        <time>2021-01-01T10:23:26Z</time>
      </trkpt>
      <trkpt lat="43.58394" lon="3.80899">
        <ele>27</ele>
        <time>2021-01-01T10:23:27Z</time>
      </trkpt>
      <trkpt lat="43.58395" lon="3.80909">
        <ele>26</ele>
        <time>2021-01-01T10:23:28Z</time>
      </trkpt>
      <trkpt lat="43.58395" lon="3.80919">
        <ele>26</ele>
        <time>2021-01-01T10:23:29Z</time>
      </trkpt>
      <trkpt lat="43.58396" lon="3.80929">
        <ele>26</ele>
        <time>2021-01-01T10:23:30Z</time>
      </trkpt>
      <trkpt lat="43.58397" lon="3.80938">
        <ele>26</ele>
        <time>2021-01-01T10:23:31Z</time>
      </trkpt>
      <trkpt lat="43.58399" lon="3.80948">
        <ele>26</ele>
        <time>2021-01-01T10:23:32Z</time>
      </trkpt>
      <trkpt lat="43.584" lon="3.80958">
        <ele>26</ele>
        <time>2021-01-01T10:23:33Z</time>
      </trkpt>
      <trkpt lat="43.58402" lon="3.80968">
        <ele>26</ele>
        <time>2021-01-01T10:23:34Z</time>
      </trkpt>
      <trkpt lat="43.58402" lon="3.80978">
        <ele>26</ele>
        <time>2021-01-01T10:23:35Z</time>
      </trkpt>
      <trkpt lat="43.58403" lon="3.80988">
        <ele>26</ele>
        <time>2021-01-01T10:23:36Z</time>
      </trkpt>
      <trkpt lat="43.58403" lon="3.80998">
        <ele>26</ele>
        <time>2021-01-01T10:23:37Z</time>
      </trkpt>
      <trkpt lat="43.58403" lon="3.81007">
        <ele>26</ele>
        <time>2021-01-01T10:23:38Z</time>
      </trkpt>
      <trkpt lat="43.58403" lon="3.81017">
        <ele>25</ele>
        <time>2021-01-01T10:23:39Z</time>
      </trkpt>
      <trkpt lat="43.58404" lon="3.81026">
        <ele>25</ele>
        <time>2021-01-01T10:23:40Z</time>
      </trkpt>
      <trkpt lat="43.58405" lon="3.81036">
        <ele>25</ele>
        <time>2021-01-01T10:23:41Z</time>
      </trkpt>
      <trkpt lat="43.58406" lon="3.81044">
        <ele>24</ele>
        <time>2021-01-01T10:23:42Z</time>
      </trkpt>
      <trkpt lat="43.58406" lon="3.81054">
        <ele>24</ele>
        <time>2021-01-01T10:23:43Z</time>
      </trkpt>
      <trkpt lat="43.58407" lon="3.81064">
        <ele>24</ele>
        <time>2021-01-01T10:23:44Z</time>
      </trkpt>
      <trkpt lat="43.58408" lon="3.81073">
        <ele>23</ele>
        <time>2021-01-01T10:23:45Z</time>
      </trkpt>
      <trkpt lat="43.58408" lon="3.81082">
        <ele>23</ele>
        <time>2021-01-01T10:23:46Z</time>
      </trkpt>
      <trkpt lat="43.58409" lon="3.81092">
        <ele>23</ele>
        <time>2021-01-01T10:23:47Z</time>
      </trkpt>
      <trkpt lat="43.58409" lon="3.81101">
        <ele>23</ele>
        <time>2021-01-01T10:23:48Z</time>
      </trkpt>
      <trkpt lat="43.58409" lon="3.8111">
        <ele>23</ele>
        <time>2021-01-01T10:23:49Z</time>
      </trkpt>
      <trkpt lat="43.58409" lon="3.81118">
        <ele>23</ele>
        <time>2021-01-01T10:23:50Z</time>
      </trkpt>
      <trkpt lat="43.58408" lon="3.81127">
        <ele>23</ele>
        <time>2021-01-01T10:23:51Z</time>
      </trkpt>
      <trkpt lat="43.58408" lon="3.81137">
        <ele>23</ele>
        <time>2021-01-01T10:23:52Z</time>
      </trkpt>
      <trkpt lat="43.58408" lon="3.81146">
        <ele>23</ele>
        <time>2021-01-01T10:23:53Z</time>
      </trkpt>
      <trkpt lat="43.58409" lon="3.81153">
        <ele>23</ele>
        <time>2021-01-01T10:23:54Z</time>
      </trkpt>
      <trkpt lat="43.58412" lon="3.81158">
        <ele>23</ele>
        <time>2021-01-01T10:23:55Z</time>
      </trkpt>
      <trkpt lat="43.58416" lon="3.81162">
        <ele>23</ele>
        <time>2021-01-01T10:23:56Z</time>
      </trkpt>
      <trkpt lat="43.58421" lon="3.81164">
        <ele>23</ele>
        <time>2021-01-01T10:23:57Z</time>
      </trkpt>
      <trkpt lat="43.58426" lon="3.81165">
        <ele>23</ele>
        <time>2021-01-01T10:23:58Z</time>
      </trkpt>
      <trkpt lat="43.58431" lon="3.81168">
        <ele>23</ele>
        <time>2021-01-01T10:24:00Z</time>
      </trkpt>
      <trkpt lat="43.58436" lon="3.81171">
        <ele>23</ele>
        <time>2021-01-01T10:24:02Z</time>
      </trkpt>
      <trkpt lat="43.58444" lon="3.81172">
        <ele>23</ele>
        <time>2021-01-01T10:24:04Z</time>
      </trkpt>
      <trkpt lat="43.58451" lon="3.81174">
        <ele>23</ele>
        <time>2021-01-01T10:24:06Z</time>
      </trkpt>
      <trkpt lat="43.5846" lon="3.81177">
        <ele>23</ele>
        <time>2021-01-01T10:24:08Z</time>
      </trkpt>
      <trkpt lat="43.58468" lon="3.81179">
        <ele>24</ele>
        <time>2021-01-01T10:24:10Z</time>
      </trkpt>
      <trkpt lat="43.58476" lon="3.8118">
        <ele>24</ele>
        <time>2021-01-01T10:24:12Z</time>
      </trkpt>
      <trkpt lat="43.58481" lon="3.81182">
        <ele>24</ele>
        <time>2021-01-01T10:24:13Z</time>
      </trkpt>
      <trkpt lat="43.58487" lon="3.81189">
        <ele>23</ele>
        <time>2021-01-01T10:24:15Z</time>
      </trkpt>
      <trkpt lat="43.58489" lon="3.81201">
        <ele>23</ele>
        <time>2021-01-01T10:24:17Z</time>
      </trkpt>
      <trkpt lat="43.58487" lon="3.81207">
        <ele>23</ele>
        <time>2021-01-01T10:24:18Z</time>
      </trkpt>
      <trkpt lat="43.58485" lon="3.81213">
        <ele>23</ele>
        <time>2021-01-01T10:24:19Z</time>
      </trkpt>
      <trkpt lat="43.58483" lon="3.8122">
        <ele>23</ele>
        <time>2021-01-01T10:24:20Z</time>
      </trkpt>
      <trkpt lat="43.58481" lon="3.81227">
        <ele>23</ele>
        <time>2021-01-01T10:24:21Z</time>
      </trkpt>
      <trkpt lat="43.58479" lon="3.81233">
        <ele>23</ele>
        <time>2021-01-01T10:24:22Z</time>
      </trkpt>
      <trkpt lat="43.58476" lon="3.8124">
        <ele>23</ele>
        <time>2021-01-01T10:24:23Z</time>
      </trkpt>
      <trkpt lat="43.58474" lon="3.81246">
        <ele>23</ele>
        <time>2021-01-01T10:24:24Z</time>
      </trkpt>
      <trkpt lat="43.58472" lon="3.81254">
        <ele>23</ele>
        <time>2021-01-01T10:24:25Z</time>
      </trkpt>
      <trkpt lat="43.58469" lon="3.8126">
        <ele>23</ele>
        <time>2021-01-01T10:24:26Z</time>
      </trkpt>
      <trkpt lat="43.58466" lon="3.81267">
        <ele>23</ele>
        <time>2021-01-01T10:24:27Z</time>
      </trkpt>
      <trkpt lat="43.58464" lon="3.81275">
        <ele>23</ele>
        <time>2021-01-01T10:24:28Z</time>
      </trkpt>
      <trkpt lat="43.58461" lon="3.81284">
        <ele>23</ele>
        <time>2021-01-01T10:24:29Z</time>
      </trkpt>
      <trkpt lat="43.58459" lon="3.81292">
        <ele>23</ele>
        <time>2021-01-01T10:24:30Z</time>
      </trkpt>
      <trkpt lat="43.58457" lon="3.81301">
        <ele>23</ele>
        <time>2021-01-01T10:24:31Z</time>
      </trkpt>
      <trkpt lat="43.58455" lon="3.81308">
        <ele>23</ele>
        <time>2021-01-01T10:24:32Z</time>
      </trkpt>
      <trkpt lat="43.58453" lon="3.81316">
        <ele>22</ele>
        <time>2021-01-01T10:24:33Z</time>
      </trkpt>
      <trkpt lat="43.58449" lon="3.81321">
        <ele>22</ele>
        <time>2021-01-01T10:24:34Z</time>
      </trkpt>
      <trkpt lat="43.58448" lon="3.81336">
        <ele>21</ele>
        <time>2021-01-01T10:24:36Z</time>
      </trkpt>
      <trkpt lat="43.58448" lon="3.81344">
        <ele>21</ele>
        <time>2021-01-01T10:24:37Z</time>
      </trkpt>
      <trkpt lat="43.58447" lon="3.81352">
        <ele>21</ele>
        <time>2021-01-01T10:24:38Z</time>
      </trkpt>
      <trkpt lat="43.58446" lon="3.81359">
        <ele>20</ele>
        <time>2021-01-01T10:24:39Z</time>
      </trkpt>
      <trkpt lat="43.58447" lon="3.81366">
        <ele>20</ele>
        <time>2021-01-01T10:24:40Z</time>
      </trkpt>
      <trkpt lat="43.58445" lon="3.81372">
        <ele>21</ele>
        <time>2021-01-01T10:24:41Z</time>
      </trkpt>
      <trkpt lat="43.58443" lon="3.81378">
        <ele>21</ele>
        <time>2021-01-01T10:24:42Z</time>
      </trkpt>
      <trkpt lat="43.58442" lon="3.81389">
        <ele>21</ele>
        <time>2021-01-01T10:24:44Z</time>
      </trkpt>
      <trkpt lat="43.58439" lon="3.81396">
        <ele>21</ele>
        <time>2021-01-01T10:24:45Z</time>
      </trkpt>
      <trkpt lat="43.58439" lon="3.81402">
        <ele>21</ele>
        <time>2021-01-01T10:24:46Z</time>
      </trkpt>
      <trkpt lat="43.58439" lon="3.81414">
        <ele>22</ele>
        <time>2021-01-01T10:24:48Z</time>
      </trkpt>
      <trkpt lat="43.58439" lon="3.8142">
        <ele>22</ele>
        <time>2021-01-01T10:24:49Z</time>
      </trkpt>
      <trkpt lat="43.58439" lon="3.81427">
        <ele>22</ele>
        <time>2021-01-01T10:24:50Z</time>
      </trkpt>
      <trkpt lat="43.58439" lon="3.81433">
        <ele>22</ele>
        <time>2021-01-01T10:24:51Z</time>
      </trkpt>
      <trkpt lat="43.58438" lon="3.81445">
        <ele>22</ele>
        <time>2021-01-01T10:24:53Z</time>
      </trkpt>
      <trkpt lat="43.58437" lon="3.81453">
        <ele>22</ele>
        <time>2021-01-01T10:24:54Z</time>
      </trkpt>
      <trkpt lat="43.58435" lon="3.8146">
        <ele>22</ele>
        <time>2021-01-01T10:24:56Z</time>
      </trkpt>
      <trkpt lat="43.58432" lon="3.81467">
        <ele>22</ele>
        <time>2021-01-01T10:25:00Z</time>
      </trkpt>
      <trkpt lat="43.58432" lon="3.81473">
        <ele>23</ele>
        <time>2021-01-01T10:25:11Z</time>
      </trkpt>
      <trkpt lat="43.58431" lon="3.81479">
        <ele>22</ele>
        <time>2021-01-01T10:25:15Z</time>
      </trkpt>
      <trkpt lat="43.58428" lon="3.81486">
        <ele>23</ele>
        <time>2021-01-01T10:25:28Z</time>
      </trkpt>
      <trkpt lat="43.58427" lon="3.81493">
        <ele>24</ele>
        <time>2021-01-01T10:25:32Z</time>
      </trkpt>
      <trkpt lat="43.58426" lon="3.815">
        <ele>25</ele>
        <time>2021-01-01T10:25:35Z</time>
      </trkpt>
      <trkpt lat="43.58425" lon="3.81507">
        <ele>25</ele>
        <time>2021-01-01T10:25:37Z</time>
      </trkpt>
      <trkpt lat="43.58423" lon="3.81515">
        <ele>26</ele>
        <time>2021-01-01T10:25:40Z</time>
      </trkpt>
      <trkpt lat="43.58421" lon="3.81522">
        <ele>25</ele>
        <time>2021-01-01T10:25:43Z</time>
      </trkpt>
      <trkpt lat="43.58421" lon="3.81528">
        <ele>24</ele>
        <time>2021-01-01T10:25:45Z</time>
      </trkpt>
      <trkpt lat="43.58419" lon="3.81536">
        <ele>24</ele>
        <time>2021-01-01T10:25:47Z</time>
      </trkpt>
      <trkpt lat="43.58417" lon="3.81542">
        <ele>23</ele>
        <time>2021-01-01T10:25:49Z</time>
      </trkpt>
      <trkpt lat="43.58414" lon="3.8155">
        <ele>23</ele>
        <time>2021-01-01T10:25:51Z</time>
      </trkpt>
      <trkpt lat="43.5841" lon="3.81558">
        <ele>23</ele>
        <time>2021-01-01T10:25:53Z</time>
      </trkpt>
      <trkpt lat="43.58406" lon="3.81564">
        <ele>24</ele>
        <time>2021-01-01T10:25:55Z</time>
      </trkpt>
      <trkpt lat="43.58401" lon="3.8157">
        <ele>24</ele>
        <time>2021-01-01T10:25:57Z</time>
      </trkpt>
      <trkpt lat="43.58395" lon="3.81575">
        <ele>25</ele>
        <time>2021-01-01T10:25:59Z</time>
      </trkpt>
      <trkpt lat="43.58386" lon="3.8157">
        <ele>24</ele>
        <time>2021-01-01T10:26:01Z</time>
      </trkpt>
      <trkpt lat="43.58381" lon="3.81572">
        <ele>23</ele>
        <time>2021-01-01T10:26:03Z</time>
      </trkpt>
      <trkpt lat="43.58376" lon="3.81578">
        <ele>22</ele>
        <time>2021-01-01T10:26:05Z</time>
      </trkpt>
      <trkpt lat="43.58373" lon="3.81585">
        <ele>21</ele>
        <time>2021-01-01T10:26:07Z</time>
      </trkpt>
      <trkpt lat="43.58369" lon="3.81593">
        <ele>19</ele>
        <time>2021-01-01T10:26:09Z</time>
      </trkpt>
      <trkpt lat="43.58364" lon="3.81597">
        <ele>19</ele>
        <time>2021-01-01T10:26:12Z</time>
      </trkpt>
      <trkpt lat="43.58355" lon="3.81607">
        <ele>19</ele>
        <time>2021-01-01T10:26:15Z</time>
      </trkpt>
      <trkpt lat="43.58349" lon="3.81609">
        <ele>19</ele>
        <time>2021-01-01T10:26:16Z</time>
      </trkpt>
      <trkpt lat="43.58344" lon="3.81611">
        <ele>20</ele>
        <time>2021-01-01T10:26:17Z</time>
      </trkpt>
      <trkpt lat="43.58336" lon="3.81613">
        <ele>20</ele>
        <time>2021-01-01T10:26:19Z</time>
      </trkpt>
      <trkpt lat="43.58331" lon="3.81614">
        <ele>20</ele>
        <time>2021-01-01T10:26:20Z</time>
      </trkpt>
      <trkpt lat="43.58327" lon="3.81615">
        <ele>21</ele>
        <time>2021-01-01T10:26:21Z</time>
      </trkpt>
      <trkpt lat="43.5832" lon="3.81614">
        <ele>21</ele>
        <time>2021-01-01T10:26:23Z</time>
      </trkpt>
      <trkpt lat="43.58313" lon="3.81613">
        <ele>21</ele>
        <time>2021-01-01T10:26:26Z</time>
      </trkpt>
      <trkpt lat="43.58307" lon="3.81612">
        <ele>22</ele>
        <time>2021-01-01T10:26:28Z</time>
      </trkpt>
      <trkpt lat="43.58302" lon="3.8161">
        <ele>22</ele>
        <time>2021-01-01T10:26:29Z</time>
      </trkpt>
      <trkpt lat="43.58297" lon="3.81606">
        <ele>23</ele>
        <time>2021-01-01T10:26:30Z</time>
      </trkpt>
      <trkpt lat="43.5829" lon="3.816">
        <ele>23</ele>
        <time>2021-01-01T10:26:31Z</time>
      </trkpt>
      <trkpt lat="43.58286" lon="3.81597">
        <ele>23</ele>
        <time>2021-01-01T10:26:32Z</time>
      </trkpt>
      <trkpt lat="43.58279" lon="3.8159">
        <ele>23</ele>
        <time>2021-01-01T10:26:34Z</time>
      </trkpt>
      <trkpt lat="43.58272" lon="3.81584">
        <ele>23</ele>
        <time>2021-01-01T10:26:36Z</time>
      </trkpt>
      <trkpt lat="43.58264" lon="3.8158">
        <ele>23</ele>
        <time>2021-01-01T10:26:38Z</time>
      </trkpt>
      <trkpt lat="43.58258" lon="3.81577">
        <ele>23</ele>
        <time>2021-01-01T10:26:40Z</time>
      </trkpt>
      <trkpt lat="43.58252" lon="3.81574">
        <ele>24</ele>
        <time>2021-01-01T10:26:42Z</time>
      </trkpt>
      <trkpt lat="43.58247" lon="3.81572">
        <ele>23</ele>
        <time>2021-01-01T10:26:44Z</time>
      </trkpt>
      <trkpt lat="43.58239" lon="3.81568">
        <ele>23</ele>
        <time>2021-01-01T10:26:46Z</time>
      </trkpt>
      <trkpt lat="43.58231" lon="3.81566">
        <ele>22</ele>
        <time>2021-01-01T10:26:47Z</time>
      </trkpt>
      <trkpt lat="43.58225" lon="3.81563">
        <ele>22</ele>
        <time>2021-01-01T10:26:48Z</time>
      </trkpt>
      <trkpt lat="43.58217" lon="3.81558">
        <ele>22</ele>
        <time>2021-01-01T10:26:50Z</time>
      </trkpt>
      <trkpt lat="43.58209" lon="3.81555">
        <ele>22</ele>
        <time>2021-01-01T10:26:52Z</time>
      </trkpt>
      <trkpt lat="43.58201" lon="3.81553">
        <ele>22</ele>
        <time>2021-01-01T10:26:54Z</time>
      </trkpt>
      <trkpt lat="43.58194" lon="3.81552">
        <ele>23</ele>
        <time>2021-01-01T10:26:56Z</time>
      </trkpt>
      <trkpt lat="43.58187" lon="3.81551">
        <ele>22</ele>
        <time>2021-01-01T10:26:59Z</time>
      </trkpt>
      <trkpt lat="43.58181" lon="3.8155">
        <ele>22</ele>
        <time>2021-01-01T10:27:01Z</time>
      </trkpt>
      <trkpt lat="43.58167" lon="3.81545">
        <ele>22</ele>
        <time>2021-01-01T10:27:03Z</time>
      </trkpt>
      <trkpt lat="43.58161" lon="3.81544">
        <ele>22</ele>
        <time>2021-01-01T10:27:04Z</time>
      </trkpt>
      <trkpt lat="43.58154" lon="3.8154">
        <ele>22</ele>
        <time>2021-01-01T10:27:06Z</time>
      </trkpt>
      <trkpt lat="43.5815" lon="3.81536">
        <ele>23</ele>
        <time>2021-01-01T10:27:07Z</time>
      </trkpt>
      <trkpt lat="43.58147" lon="3.8153">
        <ele>23</ele>
        <time>2021-01-01T10:27:08Z</time>
      </trkpt>
      <trkpt lat="43.58145" lon="3.81525">
        <ele>23</ele>
        <time>2021-01-01T10:27:09Z</time>
      </trkpt>
      <trkpt lat="43.58142" lon="3.8152">
        <ele>24</ele>
        <time>2021-01-01T10:27:10Z</time>
      </trkpt>
      <trkpt lat="43.58136" lon="3.81514">
        <ele>24</ele>
        <time>2021-01-01T10:27:12Z</time>
      </trkpt>
      <trkpt lat="43.5813" lon="3.81517">
        <ele>24</ele>
        <time>2021-01-01T10:27:15Z</time>
      </trkpt>
      <trkpt lat="43.58125" lon="3.81516">
        <ele>23</ele>
        <time>2021-01-01T10:27:17Z</time>
      </trkpt>
      <trkpt lat="43.5812" lon="3.81512">
        <ele>23</ele>
        <time>2021-01-01T10:27:20Z</time>
      </trkpt>
      <trkpt lat="43.58115" lon="3.81507">
        <ele>23</ele>
        <time>2021-01-01T10:27:22Z</time>
      </trkpt>
      <trkpt lat="43.5811" lon="3.81501">
        <ele>23</ele>
        <time>2021-01-01T10:27:24Z</time>
      </trkpt>
      <trkpt lat="43.58103" lon="3.81498">
        <ele>22</ele>
        <time>2021-01-01T10:27:26Z</time>
      </trkpt>
      <trkpt lat="43.58094" lon="3.81496">
        <ele>22</ele>
        <time>2021-01-01T10:27:28Z</time>
      </trkpt>
      <trkpt lat="43.58089" lon="3.81496">
        <ele>21</ele>
        <time>2021-01-01T10:27:29Z</time>
      </trkpt>
      <trkpt lat="43.58085" lon="3.81496">
        <ele>21</ele>
        <time>2021-01-01T10:27:30Z</time>
      </trkpt>
      <trkpt lat="43.58079" lon="3.81496">
        <ele>21</ele>
        <time>2021-01-01T10:27:31Z</time>
      </trkpt>
      <trkpt lat="43.58074" lon="3.81496">
        <ele>21</ele>
        <time>2021-01-01T10:27:32Z</time>
      </trkpt>
      <trkpt lat="43.58069" lon="3.81495">
        <ele>21</ele>
        <time>2021-01-01T10:27:33Z</time>
      </trkpt>
      <trkpt lat="43.58063" lon="3.81494">
        <ele>21</ele>
        <time>2021-01-01T10:27:34Z</time>
      </trkpt>
      <trkpt lat="43.58056" lon="3.81493">
        <ele>21</ele>
        <time>2021-01-01T10:27:35Z</time>
      </trkpt>
      <trkpt lat="43.5805" lon="3.81492">
        <ele>21</ele>
        <time>2021-01-01T10:27:36Z</time>
      </trkpt>
      <trkpt lat="43.58044" lon="3.81491">
        <ele>21</ele>
        <time>2021-01-01T10:27:37Z</time>
      </trkpt>
      <trkpt lat="43.58038" lon="3.81491">
        <ele>21</ele>
        <time>2021-01-01T10:27:38Z</time>
      </trkpt>
      <trkpt lat="43.58032" lon="3.81491">
        <ele>22</ele>
        <time>2021-01-01T10:27:39Z</time>
      </trkpt>
      <trkpt lat="43.58027" lon="3.81489">
        <ele>22</ele>
        <time>2021-01-01T10:27:40Z</time>
      </trkpt>
      <trkpt lat="43.58021" lon="3.81486">
        <ele>22</ele>
        <time>2021-01-01T10:27:41Z</time>
      </trkpt>
      <trkpt lat="43.58013" lon="3.81482">
        <ele>21</ele>
        <time>2021-01-01T10:27:43Z</time>
      </trkpt>
      <trkpt lat="43.58008" lon="3.81477">
        <ele>21</ele>
        <time>2021-01-01T10:27:44Z</time>
      </trkpt>
      <trkpt lat="43.58002" lon="3.8147">
        <ele>21</ele>
        <time>2021-01-01T10:27:45Z</time>
      </trkpt>
      <trkpt lat="43.57997" lon="3.81463">
        <ele>20</ele>
        <time>2021-01-01T10:27:46Z</time>
      </trkpt>
      <trkpt lat="43.57992" lon="3.81459">
        <ele>20</ele>
        <time>2021-01-01T10:27:47Z</time>
      </trkpt>
      <trkpt lat="43.57987" lon="3.81456">
        <ele>20</ele>
        <time>2021-01-01T10:27:48Z</time>
      </trkpt>
      <trkpt lat="43.57982" lon="3.81454">
        <ele>20</ele>
        <time>2021-01-01T10:27:49Z</time>
      </trkpt>
      <trkpt lat="43.57977" lon="3.81453">
        <ele>21</ele>
        <time>2021-01-01T10:27:50Z</time>
      </trkpt>
      <trkpt lat="43.57971" lon="3.81451">
        <ele>21</ele>
        <time>2021-01-01T10:27:51Z</time>
      </trkpt>
      <trkpt lat="43.57965" lon="3.81449">
        <ele>21</ele>
        <time>2021-01-01T10:27:52Z</time>
      </trkpt>
      <trkpt lat="43.57959" lon="3.81448">
        <ele>20</ele>
        <time>2021-01-01T10:27:53Z</time>
      </trkpt>
      <trkpt lat="43.57954" lon="3.81446">
        <ele>20</ele>
        <time>2021-01-01T10:27:54Z</time>
      </trkpt>
      <trkpt lat="43.57948" lon="3.81445">
        <ele>20</ele>
        <time>2021-01-01T10:27:55Z</time>
      </trkpt>
      <trkpt lat="43.57943" lon="3.81444">
        <ele>20</ele>
        <time>2021-01-01T10:27:56Z</time>
      </trkpt>
      <trkpt lat="43.57938" lon="3.81442">
        <ele>20</ele>
        <time>2021-01-01T10:27:57Z</time>
      </trkpt>
      <trkpt lat="43.57932" lon="3.81443">
        <ele>20</ele>
        <time>2021-01-01T10:27:58Z</time>
      </trkpt>
      <trkpt lat="43.57927" lon="3.81443">
        <ele>20</ele>
        <time>2021-01-01T10:27:59Z</time>
      </trkpt>
      <trkpt lat="43.57921" lon="3.81443">
        <ele>20</ele>
        <time>2021-01-01T10:28:00Z</time>
      </trkpt>
      <trkpt lat="43.57915" lon="3.81443">
        <ele>20</ele>
        <time>2021-01-01T10:28:01Z</time>
      </trkpt>
      <trkpt lat="43.57911" lon="3.81442">
        <ele>19</ele>
        <time>2021-01-01T10:28:02Z</time>
      </trkpt>
      <trkpt lat="43.57905" lon="3.81442">
        <ele>19</ele>
        <time>2021-01-01T10:28:03Z</time>
      </trkpt>
      <trkpt lat="43.579" lon="3.81442">
        <ele>18</ele>
        <time>2021-01-01T10:28:04Z</time>
      </trkpt>
      <trkpt lat="43.57893" lon="3.81442">
        <ele>18</ele>
        <time>2021-01-01T10:28:05Z</time>
      </trkpt>
      <trkpt lat="43.57882" lon="3.81441">
        <ele>17</ele>
        <time>2021-01-01T10:28:07Z</time>
      </trkpt>
      <trkpt lat="43.57877" lon="3.81439">
        <ele>17</ele>
        <time>2021-01-01T10:28:08Z</time>
      </trkpt>
      <trkpt lat="43.57871" lon="3.81438">
        <ele>17</ele>
        <time>2021-01-01T10:28:09Z</time>
      </trkpt>
      <trkpt lat="43.57866" lon="3.81435">
        <ele>18</ele>
        <time>2021-01-01T10:28:10Z</time>
      </trkpt>
      <trkpt lat="43.57861" lon="3.81432">
        <ele>18</ele>
        <time>2021-01-01T10:28:11Z</time>
      </trkpt>
      <trkpt lat="43.57857" lon="3.81428">
        <ele>18</ele>
        <time>2021-01-01T10:28:12Z</time>
      </trkpt>
      <trkpt lat="43.57852" lon="3.81421">
        <ele>17</ele>
        <time>2021-01-01T10:28:13Z</time>
      </trkpt>
      <trkpt lat="43.5785" lon="3.81415">
        <ele>16</ele>
        <time>2021-01-01T10:28:14Z</time>
      </trkpt>
      <trkpt lat="43.57847" lon="3.81409">
        <ele>16</ele>
        <time>2021-01-01T10:28:15Z</time>
      </trkpt>
      <trkpt lat="43.57843" lon="3.81403">
        <ele>15</ele>
        <time>2021-01-01T10:28:16Z</time>
      </trkpt>
      <trkpt lat="43.57838" lon="3.81398">
        <ele>15</ele>
        <time>2021-01-01T10:28:17Z</time>
      </trkpt>
      <trkpt lat="43.57834" lon="3.81391">
        <ele>15</ele>
        <time>2021-01-01T10:28:18Z</time>
      </trkpt>
      <trkpt lat="43.57829" lon="3.81385">
        <ele>16</ele>
        <time>2021-01-01T10:28:19Z</time>
      </trkpt>
      <trkpt lat="43.57825" lon="3.81381">
        <ele>16</ele>
        <time>2021-01-01T10:28:20Z</time>
      </trkpt>
      <trkpt lat="43.5782" lon="3.81378">
        <ele>16</ele>
        <time>2021-01-01T10:28:21Z</time>
      </trkpt>
      <trkpt lat="43.57815" lon="3.81376">
        <ele>16</ele>
        <time>2021-01-01T10:28:22Z</time>
      </trkpt>
      <trkpt lat="43.57809" lon="3.81374">
        <ele>17</ele>
        <time>2021-01-01T10:28:23Z</time>
      </trkpt>
      <trkpt lat="43.57804" lon="3.81372">
        <ele>17</ele>
        <time>2021-01-01T10:28:24Z</time>
      </trkpt>
      <trkpt lat="43.57798" lon="3.81372">
        <ele>17</ele>
        <time>2021-01-01T10:28:25Z</time>
      </trkpt>
      <trkpt lat="43.57793" lon="3.81372">
        <ele>18</ele>
        <time>2021-01-01T10:28:26Z</time>
      </trkpt>
      <trkpt lat="43.57788" lon="3.81373">
        <ele>18</ele>
        <time>2021-01-01T10:28:27Z</time>
      </trkpt>
      <trkpt lat="43.57783" lon="3.81373">
        <ele>18</ele>
        <time>2021-01-01T10:28:28Z</time>
      </trkpt>
      <trkpt lat="43.57778" lon="3.81374">
        <ele>18</ele>
        <time>2021-01-01T10:28:29Z</time>
      </trkpt>
      <trkpt lat="43.57772" lon="3.81374">
        <ele>18</ele>
        <time>2021-01-01T10:28:30Z</time>
      </trkpt>
      <trkpt lat="43.57766" lon="3.81374">
        <ele>18</ele>
        <time>2021-01-01T10:28:31Z</time>
      </trkpt>
      <trkpt lat="43.57761" lon="3.81374">
        <ele>17</ele>
        <time>2021-01-01T10:28:32Z</time>
      </trkpt>
      <trkpt lat="43.57756" lon="3.81375">
        <ele>17</ele>
        <time>2021-01-01T10:28:33Z</time>
      </trkpt>
      <trkpt lat="43.5775" lon="3.81374">
        <ele>17</ele>
        <time>2021-01-01T10:28:34Z</time>
      </trkpt>
      <trkpt lat="43.57744" lon="3.81375">
        <ele>17</ele>
        <time>2021-01-01T10:28:35Z</time>
      </trkpt>
      <trkpt lat="43.57739" lon="3.81375">
        <ele>16</ele>
        <time>2021-01-01T10:28:36Z</time>
      </trkpt>
      <trkpt lat="43.57734" lon="3.81376">
        <ele>16</ele>
        <time>2021-01-01T10:28:37Z</time>
      </trkpt>
      <trkpt lat="43.57727" lon="3.81377">
        <ele>17</ele>
        <time>2021-01-01T10:28:38Z</time>
      </trkpt>
      <trkpt lat="43.57722" lon="3.81375">
        <ele>17</ele>
        <time>2021-01-01T10:28:39Z</time>
      </trkpt>
      <trkpt lat="43.57716" lon="3.81376">
        <ele>17</ele>
        <time>2021-01-01T10:28:40Z</time>
      </trkpt>
      <trkpt lat="43.57711" lon="3.81377">
        <ele>17</ele>
        <time>2021-01-01T10:28:41Z</time>
      </trkpt>
      <trkpt lat="43.57705" lon="3.81379">
        <ele>17</ele>
        <time>2021-01-01T10:28:42Z</time>
      </trkpt>
      <trkpt lat="43.57699" lon="3.81379">
        <ele>18</ele>
        <time>2021-01-01T10:28:43Z</time>
      </trkpt>
      <trkpt lat="43.57694" lon="3.81379">
        <ele>18</ele>
        <time>2021-01-01T10:28:44Z</time>
      </trkpt>
      <trkpt lat="43.57688" lon="3.81378">
        <ele>18</ele>
        <time>2021-01-01T10:28:45Z</time>
      </trkpt>
      <trkpt lat="43.57681" lon="3.81377">
        <ele>19</ele>
        <time>2021-01-01T10:28:46Z</time>
      </trkpt>
      <trkpt lat="43.57676" lon="3.81375">
        <ele>20</ele>
        <time>2021-01-01T10:28:47Z</time>
      </trkpt>
      <trkpt lat="43.57671" lon="3.81374">
        <ele>20</ele>
        <time>2021-01-01T10:28:48Z</time>
      </trkpt>
      <trkpt lat="43.57666" lon="3.81372">
        <ele>20</ele>
        <time>2021-01-01T10:28:49Z</time>
      </trkpt>
      <trkpt lat="43.5766" lon="3.8137">
        <ele>20</ele>
        <time>2021-01-01T10:28:50Z</time>
      </trkpt>
      <trkpt lat="43.57655" lon="3.81366">
        <ele>21</ele>
        <time>2021-01-01T10:28:51Z</time>
      </trkpt>
      <trkpt lat="43.57649" lon="3.81364">
        <ele>21</ele>
        <time>2021-01-01T10:28:52Z</time>
      </trkpt>
      <trkpt lat="43.57645" lon="3.81362">
        <ele>21</ele>
        <time>2021-01-01T10:28:53Z</time>
      </trkpt>
      <trkpt lat="43.57641" lon="3.81357">
        <ele>22</ele>
        <time>2021-01-01T10:28:54Z</time>
      </trkpt>
      <trkpt lat="43.57634" lon="3.8135">
        <ele>22</ele>
        <time>2021-01-01T10:28:56Z</time>
      </trkpt>
      <trkpt lat="43.57629" lon="3.81346">
        <ele>22</ele>
        <time>2021-01-01T10:28:57Z</time>
      </trkpt>
      <trkpt lat="43.57621" lon="3.81342">
        <ele>22</ele>
        <time>2021-01-01T10:28:59Z</time>
      </trkpt>
      <trkpt lat="43.57613" lon="3.81338">
        <ele>23</ele>
        <time>2021-01-01T10:29:01Z</time>
      </trkpt>
      <trkpt lat="43.57608" lon="3.81334">
        <ele>23</ele>
        <time>2021-01-01T10:29:02Z</time>
      </trkpt>
      <trkpt lat="43.57603" lon="3.81331">
        <ele>23</ele>
        <time>2021-01-01T10:29:03Z</time>
      </trkpt>
      <trkpt lat="43.57599" lon="3.81328">
        <ele>23</ele>
        <time>2021-01-01T10:29:04Z</time>
      </trkpt>
      <trkpt lat="43.57594" lon="3.81325">
        <ele>23</ele>
        <time>2021-01-01T10:29:05Z</time>
      </trkpt>
      <trkpt lat="43.57588" lon="3.81323">
        <ele>23</ele>
        <time>2021-01-01T10:29:06Z</time>
      </trkpt>
      <trkpt lat="43.57582" lon="3.8132">
        <ele>23</ele>
        <time>2021-01-01T10:29:07Z</time>
      </trkpt>
      <trkpt lat="43.57577" lon="3.81317">
        <ele>23</ele>
        <time>2021-01-01T10:29:08Z</time>
      </trkpt>
      <trkpt lat="43.57573" lon="3.81314">
        <ele>23</ele>
        <time>2021-01-01T10:29:09Z</time>
      </trkpt>
      <trkpt lat="43.57568" lon="3.8131">
        <ele>23</ele>
        <time>2021-01-01T10:29:10Z</time>
      </trkpt>
      <trkpt lat="43.57564" lon="3.81306">
        <ele>23</ele>
        <time>2021-01-01T10:29:11Z</time>
      </trkpt>
      <trkpt lat="43.5756" lon="3.81302">
        <ele>23</ele>
        <time>2021-01-01T10:29:12Z</time>
      </trkpt>
      <trkpt lat="43.57556" lon="3.81298">
        <ele>23</ele>
        <time>2021-01-01T10:29:13Z</time>
      </trkpt>
      <trkpt lat="43.57552" lon="3.81294">
        <ele>23</ele>
        <time>2021-01-01T10:29:14Z</time>
      </trkpt>
      <trkpt lat="43.57548" lon="3.8129">
        <ele>23</ele>
        <time>2021-01-01T10:29:15Z</time>
      </trkpt>
      <trkpt lat="43.57544" lon="3.81288">
        <ele>23</ele>
        <time>2021-01-01T10:29:16Z</time>
      </trkpt>
      <trkpt lat="43.57535" lon="3.81284">
        <ele>23</ele>
        <time>2021-01-01T10:29:18Z</time>
      </trkpt>
      <trkpt lat="43.57529" lon="3.81281">
        <ele>23</ele>
        <time>2021-01-01T10:29:20Z</time>
      </trkpt>
      <trkpt lat="43.57523" lon="3.81278">
        <ele>23</ele>
        <time>2021-01-01T10:29:22Z</time>
      </trkpt>
      <trkpt lat="43.57518" lon="3.81273">
        <ele>23</ele>
        <time>2021-01-01T10:29:24Z</time>
      </trkpt>
      <trkpt lat="43.57508" lon="3.81268">
        <ele>23</ele>
        <time>2021-01-01T10:29:28Z</time>
      </trkpt>
      <trkpt lat="43.575" lon="3.81267">
        <ele>23</ele>
        <time>2021-01-01T10:29:29Z</time>
      </trkpt>
      <trkpt lat="43.57494" lon="3.81266">
        <ele>22</ele>
        <time>2021-01-01T10:29:31Z</time>
      </trkpt>
      <trkpt lat="43.57489" lon="3.81262">
        <ele>22</ele>
        <time>2021-01-01T10:29:33Z</time>
      </trkpt>
      <trkpt lat="43.57485" lon="3.81259">
        <ele>21</ele>
        <time>2021-01-01T10:29:35Z</time>
      </trkpt>
      <trkpt lat="43.5748" lon="3.81257">
        <ele>21</ele>
        <time>2021-01-01T10:29:37Z</time>
      </trkpt>
      <trkpt lat="43.57473" lon="3.81259">
        <ele>21</ele>
        <time>2021-01-01T10:29:40Z</time>
      </trkpt>
      <trkpt lat="43.57464" lon="3.81258">
        <ele>21</ele>
        <time>2021-01-01T10:29:41Z</time>
      </trkpt>
      <trkpt lat="43.57457" lon="3.81255">
        <ele>21</ele>
        <time>2021-01-01T10:29:43Z</time>
      </trkpt>
      <trkpt lat="43.57452" lon="3.81251">
        <ele>21</ele>
        <time>2021-01-01T10:29:45Z</time>
      </trkpt>
      <trkpt lat="43.57446" lon="3.81247">
        <ele>21</ele>
        <time>2021-01-01T10:29:48Z</time>
      </trkpt>
      <trkpt lat="43.57442" lon="3.81244">
        <ele>21</ele>
        <time>2021-01-01T10:29:51Z</time>
      </trkpt>
      <trkpt lat="43.57439" lon="3.81241">
        <ele>21</ele>
        <time>2021-01-01T10:30:14Z</time>
      </trkpt>
      <trkpt lat="43.57438" lon="3.81241">
        <ele>22</ele>
        <time>2021-01-01T10:30:15Z</time>
      </trkpt>
      <trkpt lat="43.57436" lon="3.81235">
        <ele>22</ele>
        <time>2021-01-01T10:30:19Z</time>
      </trkpt>
      <trkpt lat="43.5743" lon="3.81232">
        <ele>22</ele>
        <time>2021-01-01T10:30:22Z</time>
      </trkpt>
      <trkpt lat="43.57425" lon="3.81226">
        <ele>22</ele>
        <time>2021-01-01T10:30:25Z</time>
      </trkpt>
      <trkpt lat="43.57417" lon="3.81224">
        <ele>22</ele>
        <time>2021-01-01T10:30:29Z</time>
      </trkpt>
      <trkpt lat="43.57412" lon="3.81221">
        <ele>23</ele>
        <time>2021-01-01T10:30:30Z</time>
      </trkpt>
      <trkpt lat="43.57407" lon="3.81218">
        <ele>23</ele>
        <time>2021-01-01T10:30:32Z</time>
      </trkpt>
      <trkpt lat="43.57403" lon="3.81214">
        <ele>23</ele>
        <time>2021-01-01T10:30:35Z</time>
      </trkpt>
      <trkpt lat="43.574" lon="3.81205">
        <ele>23</ele>
        <time>2021-01-01T10:30:38Z</time>
      </trkpt>
      <trkpt lat="43.57396" lon="3.812">
        <ele>23</ele>
        <time>2021-01-01T10:30:42Z</time>
      </trkpt>
      <trkpt lat="43.57392" lon="3.81194">
        <ele>22</ele>
        <time>2021-01-01T10:30:46Z</time>
      </trkpt>
      <trkpt lat="43.5739" lon="3.81185">
        <ele>21</ele>
        <time>2021-01-01T10:30:49Z</time>
      </trkpt>
      <trkpt lat="43.57388" lon="3.81177">
        <ele>20</ele>
        <time>2021-01-01T10:30:52Z</time>
      </trkpt>
      <trkpt lat="43.57383" lon="3.81173">
        <ele>19</ele>
        <time>2021-01-01T10:30:55Z</time>
      </trkpt>
      <trkpt lat="43.57378" lon="3.81171">
        <ele>19</ele>
        <time>2021-01-01T10:30:58Z</time>
      </trkpt>
      <trkpt lat="43.57372" lon="3.8117">
        <ele>18</ele>
        <time>2021-01-01T10:31:01Z</time>
      </trkpt>
      <trkpt lat="43.57367" lon="3.81167">
        <ele>18</ele>
        <time>2021-01-01T10:31:04Z</time>
      </trkpt>
      <trkpt lat="43.57362" lon="3.81164">
        <ele>18</ele>
        <time>2021-01-01T10:31:07Z</time>
      </trkpt>
      <trkpt lat="43.57357" lon="3.81164">
        <ele>19</ele>
        <time>2021-01-01T10:31:10Z</time>
      </trkpt>
      <trkpt lat="43.57352" lon="3.81161">
        <ele>19</ele>
        <time>2021-01-01T10:31:12Z</time>
      </trkpt>
      <trkpt lat="43.57348" lon="3.81157">
        <ele>20</ele>
        <time>2021-01-01T10:31:14Z</time>
      </trkpt>
      <trkpt lat="43.57345" lon="3.81151">
        <ele>20</ele>
        <time>2021-01-01T10:31:16Z</time>
      </trkpt>
      <trkpt lat="43.57341" lon="3.81144">
        <ele>20</ele>
        <time>2021-01-01T10:31:19Z</time>
      </trkpt>
      <trkpt lat="43.57336" lon="3.8114">
        <ele>20</ele>
        <time>2021-01-01T10:31:21Z</time>
      </trkpt>
      <trkpt lat="43.57331" lon="3.81134">
        <ele>20</ele>
        <time>2021-01-01T10:31:23Z</time>
      </trkpt>
      <trkpt lat="43.57326" lon="3.81129">
        <ele>20</ele>
        <time>2021-01-01T10:31:25Z</time>
      </trkpt>
      <trkpt lat="43.57322" lon="3.81127">
        <ele>20</ele>
        <time>2021-01-01T10:31:27Z</time>
      </trkpt>
      <trkpt lat="43.57317" lon="3.81124">
        <ele>20</ele>
        <time>2021-01-01T10:31:29Z</time>
      </trkpt>
      <trkpt lat="43.57313" lon="3.81118">
        <ele>21</ele>
        <time>2021-01-01T10:31:32Z</time>
      </trkpt>
      <trkpt lat="43.57308" lon="3.81115">
        <ele>21</ele>
        <time>2021-01-01T10:31:36Z</time>
      </trkpt>
      <trkpt lat="43.57303" lon="3.81117">
        <ele>20</ele>
        <time>2021-01-01T10:31:42Z</time>
      </trkpt>
      <trkpt lat="43.57299" lon="3.81115">
        <ele>20</ele>
        <time>2021-01-01T10:31:45Z</time>
      </trkpt>
      <trkpt lat="43.57293" lon="3.81117">
        <ele>19</ele>
        <time>2021-01-01T10:31:48Z</time>
      </trkpt>
      <trkpt lat="43.5729" lon="3.81122">
        <ele>18</ele>
        <time>2021-01-01T10:31:50Z</time>
      </trkpt>
      <trkpt lat="43.57285" lon="3.81128">
        <ele>18</ele>
        <time>2021-01-01T10:31:52Z</time>
      </trkpt>
      <trkpt lat="43.57281" lon="3.81134">
        <ele>17</ele>
        <time>2021-01-01T10:31:54Z</time>
      </trkpt>
      <trkpt lat="43.57276" lon="3.81139">
        <ele>17</ele>
        <time>2021-01-01T10:31:56Z</time>
      </trkpt>
      <trkpt lat="43.57271" lon="3.81143">
        <ele>17</ele>
        <time>2021-01-01T10:31:58Z</time>
      </trkpt>
      <trkpt lat="43.57266" lon="3.81147">
        <ele>17</ele>
        <time>2021-01-01T10:32:00Z</time>
      </trkpt>
      <trkpt lat="43.57259" lon="3.8115">
        <ele>17</ele>
        <time>2021-01-01T10:32:02Z</time>
      </trkpt>
      <trkpt lat="43.57253" lon="3.81152">
        <ele>17</ele>
        <time>2021-01-01T10:32:04Z</time>
      </trkpt>
      <trkpt lat="43.57246" lon="3.81153">
        <ele>17</ele>
        <time>2021-01-01T10:32:06Z</time>
      </trkpt>
      <trkpt lat="43.5724" lon="3.81156">
        <ele>17</ele>
        <time>2021-01-01T10:32:08Z</time>
      </trkpt>
      <trkpt lat="43.57233" lon="3.81158">
        <ele>17</ele>
        <time>2021-01-01T10:32:10Z</time>
      </trkpt>
      <trkpt lat="43.57227" lon="3.8116">
        <ele>17</ele>
        <time>2021-01-01T10:32:12Z</time>
      </trkpt>
      <trkpt lat="43.57222" lon="3.81164">
        <ele>17</ele>
        <time>2021-01-01T10:32:14Z</time>
      </trkpt>
      <trkpt lat="43.57216" lon="3.81166">
        <ele>17</ele>
        <time>2021-01-01T10:32:16Z</time>
      </trkpt>
      <trkpt lat="43.57211" lon="3.8117">
        <ele>17</ele>
        <time>2021-01-01T10:32:18Z</time>
      </trkpt>
      <trkpt lat="43.57204" lon="3.81175">
        <ele>17</ele>
        <time>2021-01-01T10:32:20Z</time>
      </trkpt>
      <trkpt lat="43.57198" lon="3.81179">
        <ele>17</ele>
        <time>2021-01-01T10:32:22Z</time>
      </trkpt>
      <trkpt lat="43.57192" lon="3.81184">
        <ele>16</ele>
        <time>2021-01-01T10:32:24Z</time>
      </trkpt>
      <trkpt lat="43.57185" lon="3.81188">
        <ele>16</ele>
        <time>2021-01-01T10:32:26Z</time>
      </trkpt>
      <trkpt lat="43.57179" lon="3.81193">
        <ele>16</ele>
        <time>2021-01-01T10:32:28Z</time>
      </trkpt>
      <trkpt lat="43.57172" lon="3.81198">
        <ele>15</ele>
        <time>2021-01-01T10:32:30Z</time>
      </trkpt>
      <trkpt lat="43.57165" lon="3.81202">
        <ele>15</ele>
        <time>2021-01-01T10:32:32Z</time>
      </trkpt>
      <trkpt lat="43.57159" lon="3.81207">
        <ele>15</ele>
        <time>2021-01-01T10:32:34Z</time>
      </trkpt>
      <trkpt lat="43.57153" lon="3.81211">
        <ele>15</ele>
        <time>2021-01-01T10:32:36Z</time>
      </trkpt>
      <trkpt lat="43.57147" lon="3.81216">
        <ele>15</ele>
        <time>2021-01-01T10:32:38Z</time>
      </trkpt>
      <trkpt lat="43.57141" lon="3.81221">
        <ele>16</ele>
        <time>2021-01-01T10:32:40Z</time>
      </trkpt>
      <trkpt lat="43.57136" lon="3.81227">
        <ele>16</ele>
        <time>2021-01-01T10:32:42Z</time>
      </trkpt>
      <trkpt lat="43.57132" lon="3.81232">
        <ele>16</ele>
        <time>2021-01-01T10:32:44Z</time>
      </trkpt>
      <trkpt lat="43.57129" lon="3.81237">
        <ele>16</ele>
        <time>2021-01-01T10:32:46Z</time>
      </trkpt>
      <trkpt lat="43.57125" lon="3.81243">
        <ele>16</ele>
        <time>2021-01-01T10:32:48Z</time>
      </trkpt>
      <trkpt lat="43.57124" lon="3.81251">
        <ele>16</ele>
        <time>2021-01-01T10:32:50Z</time>
      </trkpt>
      <trkpt lat="43.57124" lon="3.81261">
        <ele>16</ele>
        <time>2021-01-01T10:32:52Z</time>
      </trkpt>
      <trkpt lat="43.57125" lon="3.81271">
        <ele>16</ele>
        <time>2021-01-01T10:32:54Z</time>
      </trkpt>
      <trkpt lat="43.57125" lon="3.8128">
        <ele>16</ele>
        <time>2021-01-01T10:32:56Z</time>
      </trkpt>
      <trkpt lat="43.57126" lon="3.81289">
        <ele>16</ele>
        <time>2021-01-01T10:32:58Z</time>
      </trkpt>
      <trkpt lat="43.57127" lon="3.81296">
        <ele>16</ele>
        <time>2021-01-01T10:33:00Z</time>
      </trkpt>
      <trkpt lat="43.57125" lon="3.81301">
        <ele>17</ele>
        <time>2021-01-01T10:33:02Z</time>
      </trkpt>
      <trkpt lat="43.57121" lon="3.81306">
        <ele>17</ele>
        <time>2021-01-01T10:33:05Z</time>
      </trkpt>
      <trkpt lat="43.57115" lon="3.8131">
        <ele>18</ele>
        <time>2021-01-01T10:33:08Z</time>
      </trkpt>
      <trkpt lat="43.5711" lon="3.81313">
        <ele>18</ele>
        <time>2021-01-01T10:33:10Z</time>
      </trkpt>
      <trkpt lat="43.57105" lon="3.81313">
        <ele>18</ele>
        <time>2021-01-01T10:33:12Z</time>
      </trkpt>
      <trkpt lat="43.57099" lon="3.81314">
        <ele>18</ele>
        <time>2021-01-01T10:33:14Z</time>
      </trkpt>
      <trkpt lat="43.57093" lon="3.81318">
        <ele>18</ele>
        <time>2021-01-01T10:33:16Z</time>
      </trkpt>
      <trkpt lat="43.57087" lon="3.81323">
        <ele>18</ele>
        <time>2021-01-01T10:33:18Z</time>
      </trkpt>
      <trkpt lat="43.57081" lon="3.81331">
        <ele>18</ele>
        <time>2021-01-01T10:33:20Z</time>
      </trkpt>
      <trkpt lat="43.57075" lon="3.81339">
        <ele>17</ele>
        <time>2021-01-01T10:33:22Z</time>
      </trkpt>
      <trkpt lat="43.57071" lon="3.81345">
        <ele>16</ele>
        <time>2021-01-01T10:33:24Z</time>
      </trkpt>
      <trkpt lat="43.57068" lon="3.81349">
        <ele>15</ele>
        <time>2021-01-01T10:33:26Z</time>
      </trkpt>
      <trkpt lat="43.57063" lon="3.81352">
        <ele>15</ele>
        <time>2021-01-01T10:33:29Z</time>
      </trkpt>
      <trkpt lat="43.57059" lon="3.81357">
        <ele>15</ele>
        <time>2021-01-01T10:33:32Z</time>
      </trkpt>
      <trkpt lat="43.57057" lon="3.81363">
        <ele>16</ele>
        <time>2021-01-01T10:33:35Z</time>
      </trkpt>
      <trkpt lat="43.57056" lon="3.81371">
        <ele>16</ele>
        <time>2021-01-01T10:33:39Z</time>
      </trkpt>
      <trkpt lat="43.57055" lon="3.81372">
        <ele>16</ele>
        <time>2021-01-01T10:33:59Z</time>
      </trkpt>
      <trkpt lat="43.57055" lon="3.81373">
        <ele>17</ele>
        <time>2021-01-01T10:34:00Z</time>
      </trkpt>
      <trkpt lat="43.57055" lon="3.81381">
        <ele>17</ele>
        <time>2021-01-01T10:34:19Z</time>
      </trkpt>
      <trkpt lat="43.57055" lon="3.81388">
        <ele>18</ele>
        <time>2021-01-01T10:34:21Z</time>
      </trkpt>
      <trkpt lat="43.57055" lon="3.81394">
        <ele>18</ele>
        <time>2021-01-01T10:34:23Z</time>
      </trkpt>
      <trkpt lat="43.57052" lon="3.81403">
        <ele>19</ele>
        <time>2021-01-01T10:34:26Z</time>
      </trkpt>
      <trkpt lat="43.57049" lon="3.81409">
        <ele>19</ele>
        <time>2021-01-01T10:34:28Z</time>
      </trkpt>
      <trkpt lat="43.57046" lon="3.81414">
        <ele>20</ele>
        <time>2021-01-01T10:34:30Z</time>
      </trkpt>
      <trkpt lat="43.57043" lon="3.81419">
        <ele>20</ele>
        <time>2021-01-01T10:34:32Z</time>
      </trkpt>
      <trkpt lat="43.5704" lon="3.81425">
        <ele>20</ele>
        <time>2021-01-01T10:34:34Z</time>
      </trkpt>
      <trkpt lat="43.57039" lon="3.81431">
        <ele>20</ele>
        <time>2021-01-01T10:34:36Z</time>
      </trkpt>
      <trkpt lat="43.57036" lon="3.81437">
        <ele>20</ele>
        <time>2021-01-01T10:34:38Z</time>
      </trkpt>
      <trkpt lat="43.57034" lon="3.81443">
        <ele>21</ele>
        <time>2021-01-01T10:34:40Z</time>
      </trkpt>
      <trkpt lat="43.57032" lon="3.8145">
        <ele>21</ele>
        <time>2021-01-01T10:34:42Z</time>
      </trkpt>
      <trkpt lat="43.5703" lon="3.81456">
        <ele>22</ele>
        <time>2021-01-01T10:34:44Z</time>
      </trkpt>
      <trkpt lat="43.57028" lon="3.81462">
        <ele>22</ele>
        <time>2021-01-01T10:34:46Z</time>
      </trkpt>
      <trkpt lat="43.57026" lon="3.81468">
        <ele>22</ele>
        <time>2021-01-01T10:34:48Z</time>
      </trkpt>
      <trkpt lat="43.57024" lon="3.81474">
        <ele>23</ele>
        <time>2021-01-01T10:34:50Z</time>
      </trkpt>
      <trkpt lat="43.57022" lon="3.8148">
        <ele>23</ele>
        <time>2021-01-01T10:34:52Z</time>
      </trkpt>
      <trkpt lat="43.5702" lon="3.81486">
        <ele>23</ele>
        <time>2021-01-01T10:34:54Z</time>
      </trkpt>
      <trkpt lat="43.57018" lon="3.81492">
        <ele>23</ele>
        <time>2021-01-01T10:34:56Z</time>
      </trkpt>
      <trkpt lat="43.57015" lon="3.81497">
        <ele>23</ele>
        <time>2021-01-01T10:34:58Z</time>
      </trkpt>
      <trkpt lat="43.57013" lon="3.81502">
        <ele>24</ele>
        <time>2021-01-01T10:35:00Z</time>
      </trkpt>
      <trkpt lat="43.5701" lon="3.81508">
        <ele>24</ele>
        <time>2021-01-01T10:35:02Z</time>
      </trkpt>
      <trkpt lat="43.57007" lon="3.81513">
        <ele>24</ele>
        <time>2021-01-01T10:35:04Z</time>
      </trkpt>
      <trkpt lat="43.57005" lon="3.81518">
        <ele>25</ele>
        <time>2021-01-01T10:35:06Z</time>
      </trkpt>
      <trkpt lat="43.57002" lon="3.81525">
        <ele>25</ele>
        <time>2021-01-01T10:35:08Z</time>
      </trkpt>
      <trkpt lat="43.57" lon="3.81531">
        <ele>25</ele>
        <time>2021-01-01T10:35:10Z</time>
      </trkpt>
      <trkpt lat="43.56998" lon="3.81537">
        <ele>25</ele>
        <time>2021-01-01T10:35:12Z</time>
      </trkpt>
      <trkpt lat="43.56996" lon="3.81544">
        <ele>26</ele>
        <time>2021-01-01T10:35:14Z</time>
      </trkpt>
      <trkpt lat="43.56994" lon="3.81551">
        <ele>26</ele>
        <time>2021-01-01T10:35:16Z</time>
      </trkpt>
      <trkpt lat="43.56991" lon="3.81557">
        <ele>26</ele>
        <time>2021-01-01T10:35:18Z</time>
      </trkpt>
      <trkpt lat="43.56989" lon="3.81564">
        <ele>27</ele>
        <time>2021-01-01T10:35:20Z</time>
      </trkpt>
      <trkpt lat="43.56986" lon="3.8157">
        <ele>27</ele>
        <time>2021-01-01T10:35:22Z</time>
      </trkpt>
      <trkpt lat="43.56984" lon="3.81577">
        <ele>28</ele>
        <time>2021-01-01T10:35:24Z</time>
      </trkpt>
      <trkpt lat="43.56981" lon="3.81583">
        <ele>28</ele>
        <time>2021-01-01T10:35:26Z</time>
      </trkpt>
      <trkpt lat="43.56979" lon="3.81589">
        <ele>28</ele>
        <time>2021-01-01T10:35:28Z</time>
      </trkpt>
      <trkpt lat="43.56976" lon="3.81595">
        <ele>29</ele>
        <time>2021-01-01T10:35:30Z</time>
      </trkpt>
      <trkpt lat="43.56971" lon="3.816">
        <ele>29</ele>
        <time>2021-01-01T10:35:32Z</time>
      </trkpt>
      <trkpt lat="43.56968" lon="3.81605">
        <ele>29</ele>
        <time>2021-01-01T10:35:34Z</time>
      </trkpt>
      <trkpt lat="43.56966" lon="3.81612">
        <ele>29</ele>
        <time>2021-01-01T10:35:37Z</time>
      </trkpt>
      <trkpt lat="43.5696" lon="3.81606">
        <ele>30</ele>
        <time>2021-01-01T10:35:42Z</time>
      </trkpt>
      <trkpt lat="43.56955" lon="3.81603">
        <ele>30</ele>
        <time>2021-01-01T10:35:44Z</time>
      </trkpt>
      <trkpt lat="43.5695" lon="3.816">
        <ele>30</ele>
        <time>2021-01-01T10:35:47Z</time>
      </trkpt>
      <trkpt lat="43.56944" lon="3.81597">
        <ele>30</ele>
        <time>2021-01-01T10:35:50Z</time>
      </trkpt>
      <trkpt lat="43.5694" lon="3.81594">
        <ele>30</ele>
        <time>2021-01-01T10:35:53Z</time>
      </trkpt>
      <trkpt lat="43.56936" lon="3.81591">
        <ele>29</ele>
        <time>2021-01-01T10:35:56Z</time>
      </trkpt>
      <trkpt lat="43.56932" lon="3.81586">
        <ele>28</ele>
        <time>2021-01-01T10:36:00Z</time>
      </trkpt>
      <trkpt lat="43.5693" lon="3.8158">
        <ele>28</ele>
        <time>2021-01-01T10:36:03Z</time>
      </trkpt>
      <trkpt lat="43.56926" lon="3.81579">
        <ele>28</ele>
        <time>2021-01-01T10:36:07Z</time>
      </trkpt>
      <trkpt lat="43.56927" lon="3.81586">
        <ele>29</ele>
        <time>2021-01-01T10:36:10Z</time>
      </trkpt>
      <trkpt lat="43.56929" lon="3.81592">
        <ele>29</ele>
        <time>2021-01-01T10:36:12Z</time>
      </trkpt>
      <trkpt lat="43.56928" lon="3.81599">
        <ele>30</ele>
        <time>2021-01-01T10:36:15Z</time>
      </trkpt>
      <trkpt lat="43.56922" lon="3.81602">
        <ele>30</ele>
        <time>2021-01-01T10:36:18Z</time>
      </trkpt>
      <trkpt lat="43.56916" lon="3.81604">
        <ele>30</ele>
        <time>2021-01-01T10:36:21Z</time>
      </trkpt>
      <trkpt lat="43.56912" lon="3.81606">
        <ele>30</ele>
        <time>2021-01-01T10:36:24Z</time>
      </trkpt>
      <trkpt lat="43.56906" lon="3.81609">
        <ele>30</ele>
        <time>2021-01-01T10:36:27Z</time>
      </trkpt>
      <trkpt lat="43.56902" lon="3.81612">
        <ele>30</ele>
        <time>2021-01-01T10:36:29Z</time>
      </trkpt>
      <trkpt lat="43.56896" lon="3.81618">
        <ele>30</ele>
        <time>2021-01-01T10:36:32Z</time>
      </trkpt>
      <trkpt lat="43.56892" lon="3.81623">
        <ele>31</ele>
        <time>2021-01-01T10:36:34Z</time>
      </trkpt>
      <trkpt lat="43.56889" lon="3.81628">
        <ele>32</ele>
        <time>2021-01-01T10:36:36Z</time>
      </trkpt>
      <trkpt lat="43.56886" lon="3.81634">
        <ele>32</ele>
        <time>2021-01-01T10:36:38Z</time>
      </trkpt>
      <trkpt lat="43.56884" lon="3.81639">
        <ele>33</ele>
        <time>2021-01-01T10:36:40Z</time>
      </trkpt>
      <trkpt lat="43.5688" lon="3.81643">
        <ele>33</ele>
        <time>2021-01-01T10:36:42Z</time>
      </trkpt>
      <trkpt lat="43.56876" lon="3.81647">
        <ele>33</ele>
        <time>2021-01-01T10:36:44Z</time>
      </trkpt>
      <trkpt lat="43.56873" lon="3.8165">
        <ele>33</ele>
        <time>2021-01-01T10:36:46Z</time>
      </trkpt>
      <trkpt lat="43.56869" lon="3.81655">
        <ele>33</ele>
        <time>2021-01-01T10:36:48Z</time>
      </trkpt>
      <trkpt lat="43.56866" lon="3.8166">
        <ele>33</ele>
        <time>2021-01-01T10:36:50Z</time>
      </trkpt>
      <trkpt lat="43.56863" lon="3.81665">
        <ele>33</ele>
        <time>2021-01-01T10:36:52Z</time>
      </trkpt>
      <trkpt lat="43.56859" lon="3.81672">
        <ele>33</ele>
        <time>2021-01-01T10:36:55Z</time>
      </trkpt>
      <trkpt lat="43.56855" lon="3.81677">
        <ele>34</ele>
        <time>2021-01-01T10:36:57Z</time>
      </trkpt>
      <trkpt lat="43.56852" lon="3.81684">
        <ele>34</ele>
        <time>2021-01-01T10:36:59Z</time>
      </trkpt>
      <trkpt lat="43.56848" lon="3.81689">
        <ele>34</ele>
        <time>2021-01-01T10:37:01Z</time>
      </trkpt>
      <trkpt lat="43.56844" lon="3.81693">
        <ele>34</ele>
        <time>2021-01-01T10:37:03Z</time>
      </trkpt>
      <trkpt lat="43.56841" lon="3.81699">
        <ele>34</ele>
        <time>2021-01-01T10:37:05Z</time>
      </trkpt>
      <trkpt lat="43.56838" lon="3.81706">
        <ele>33</ele>
        <time>2021-01-01T10:37:07Z</time>
      </trkpt>
      <trkpt lat="43.56834" lon="3.81713">
        <ele>33</ele>
        <time>2021-01-01T10:37:09Z</time>
      </trkpt>
      <trkpt lat="43.56831" lon="3.81718">
        <ele>33</ele>
        <time>2021-01-01T10:37:11Z</time>
      </trkpt>
      <trkpt lat="43.56826" lon="3.81724">
        <ele>32</ele>
        <time>2021-01-01T10:37:14Z</time>
      </trkpt>
      <trkpt lat="43.5682" lon="3.81736">
        <ele>33</ele>
        <time>2021-01-01T10:37:15Z</time>
      </trkpt>
      <trkpt lat="43.56815" lon="3.81744">
        <ele>33</ele>
        <time>2021-01-01T10:37:17Z</time>
      </trkpt>
      <trkpt lat="43.5681" lon="3.81752">
        <ele>33</ele>
        <time>2021-01-01T10:37:19Z</time>
      </trkpt>
      <trkpt lat="43.56805" lon="3.8176">
        <ele>33</ele>
        <time>2021-01-01T10:37:21Z</time>
      </trkpt>
      <trkpt lat="43.56801" lon="3.81769">
        <ele>34</ele>
        <time>2021-01-01T10:37:23Z</time>
      </trkpt>
      <trkpt lat="43.56795" lon="3.81776">
        <ele>34</ele>
        <time>2021-01-01T10:37:25Z</time>
      </trkpt>
      <trkpt lat="43.56789" lon="3.81784">
        <ele>34</ele>
        <time>2021-01-01T10:37:28Z</time>
      </trkpt>
      <trkpt lat="43.56786" lon="3.81789">
        <ele>34</ele>
        <time>2021-01-01T10:37:29Z</time>
      </trkpt>
      <trkpt lat="43.56784" lon="3.81794">
        <ele>35</ele>
        <time>2021-01-01T10:37:30Z</time>
      </trkpt>
      <trkpt lat="43.56779" lon="3.81803">
        <ele>35</ele>
        <time>2021-01-01T10:37:32Z</time>
      </trkpt>
      <trkpt lat="43.56774" lon="3.81812">
        <ele>35</ele>
        <time>2021-01-01T10:37:34Z</time>
      </trkpt>
      <trkpt lat="43.56768" lon="3.81821">
        <ele>36</ele>
        <time>2021-01-01T10:37:36Z</time>
      </trkpt>
      <trkpt lat="43.56766" lon="3.81826">
        <ele>36</ele>
        <time>2021-01-01T10:37:37Z</time>
      </trkpt>
      <trkpt lat="43.56763" lon="3.81831">
        <ele>36</ele>
        <time>2021-01-01T10:37:38Z</time>
      </trkpt>
      <trkpt lat="43.56757" lon="3.8184">
        <ele>37</ele>
        <time>2021-01-01T10:37:40Z</time>
      </trkpt>
      <trkpt lat="43.56752" lon="3.81849">
        <ele>37</ele>
        <time>2021-01-01T10:37:42Z</time>
      </trkpt>
      <trkpt lat="43.56747" lon="3.81858">
        <ele>37</ele>
        <time>2021-01-01T10:37:44Z</time>
      </trkpt>
      <trkpt lat="43.56741" lon="3.81866">
        <ele>37</ele>
        <time>2021-01-01T10:37:46Z</time>
      </trkpt>
      <trkpt lat="43.56736" lon="3.81875">
        <ele>37</ele>
        <time>2021-01-01T10:37:48Z</time>
      </trkpt>
      <trkpt lat="43.56729" lon="3.81883">
        <ele>37</ele>
        <time>2021-01-01T10:37:50Z</time>
      </trkpt>
      <trkpt lat="43.56725" lon="3.81886">
        <ele>36</ele>
        <time>2021-01-01T10:37:51Z</time>
      </trkpt>
      <trkpt lat="43.56718" lon="3.81893">
        <ele>36</ele>
        <time>2021-01-01T10:37:53Z</time>
      </trkpt>
      <trkpt lat="43.5671" lon="3.81898">
        <ele>36</ele>
        <time>2021-01-01T10:37:55Z</time>
      </trkpt>
      <trkpt lat="43.56706" lon="3.81901">
        <ele>35</ele>
        <time>2021-01-01T10:37:56Z</time>
      </trkpt>
      <trkpt lat="43.56702" lon="3.81904">
        <ele>35</ele>
        <time>2021-01-01T10:37:57Z</time>
      </trkpt>
      <trkpt lat="43.56694" lon="3.8191">
        <ele>35</ele>
        <time>2021-01-01T10:37:59Z</time>
      </trkpt>
      <trkpt lat="43.5669" lon="3.81914">
        <ele>35</ele>
        <time>2021-01-01T10:38:00Z</time>
      </trkpt>
      <trkpt lat="43.56683" lon="3.81921">
        <ele>35</ele>
        <time>2021-01-01T10:38:02Z</time>
      </trkpt>
      <trkpt lat="43.56678" lon="3.81925">
        <ele>35</ele>
        <time>2021-01-01T10:38:03Z</time>
      </trkpt>
      <trkpt lat="43.56674" lon="3.8193">
        <ele>34</ele>
        <time>2021-01-01T10:38:04Z</time>
      </trkpt>
      <trkpt lat="43.5667" lon="3.81934">
        <ele>34</ele>
        <time>2021-01-01T10:38:05Z</time>
      </trkpt>
      <trkpt lat="43.56666" lon="3.81938">
        <ele>34</ele>
        <time>2021-01-01T10:38:06Z</time>
      </trkpt>
      <trkpt lat="43.56663" lon="3.81942">
        <ele>34</ele>
        <time>2021-01-01T10:38:07Z</time>
      </trkpt>
      <trkpt lat="43.56659" lon="3.81945">
        <ele>34</ele>
        <time>2021-01-01T10:38:08Z</time>
      </trkpt>
      <trkpt lat="43.56653" lon="3.81948">
        <ele>34</ele>
        <time>2021-01-01T10:38:10Z</time>
      </trkpt>
      <trkpt lat="43.56647" lon="3.81954">
        <ele>34</ele>
        <time>2021-01-01T10:38:12Z</time>
      </trkpt>
      <trkpt lat="43.56642" lon="3.81957">
        <ele>33</ele>
        <time>2021-01-01T10:38:15Z</time>
      </trkpt>
      <trkpt lat="43.56636" lon="3.81964">
        <ele>33</ele>
        <time>2021-01-01T10:38:18Z</time>
      </trkpt>
      <trkpt lat="43.56629" lon="3.81969">
        <ele>32</ele>
        <time>2021-01-01T10:38:20Z</time>
      </trkpt>
      <trkpt lat="43.56621" lon="3.81974">
        <ele>32</ele>
        <time>2021-01-01T10:38:22Z</time>
      </trkpt>
      <trkpt lat="43.56616" lon="3.81977">
        <ele>32</ele>
        <time>2021-01-01T10:38:23Z</time>
      </trkpt>
      <trkpt lat="43.56611" lon="3.81981">
        <ele>32</ele>
        <time>2021-01-01T10:38:24Z</time>
      </trkpt>
      <trkpt lat="43.56603" lon="3.81987">
        <ele>32</ele>
        <time>2021-01-01T10:38:26Z</time>
      </trkpt>
      <trkpt lat="43.56599" lon="3.81991">
        <ele>32</ele>
        <time>2021-01-01T10:38:27Z</time>
      </trkpt>
      <trkpt lat="43.56595" lon="3.81995">
        <ele>32</ele>
        <time>2021-01-01T10:38:28Z</time>
      </trkpt>
      <trkpt lat="43.5659" lon="3.81998">
        <ele>32</ele>
        <time>2021-01-01T10:38:29Z</time>
      </trkpt>
      <trkpt lat="43.56585" lon="3.82001">
        <ele>32</ele>
        <time>2021-01-01T10:38:30Z</time>
      </trkpt>
      <trkpt lat="43.5658" lon="3.82004">
        <ele>32</ele>
        <time>2021-01-01T10:38:31Z</time>
      </trkpt>
      <trkpt lat="43.56575" lon="3.82007">
        <ele>32</ele>
        <time>2021-01-01T10:38:32Z</time>
      </trkpt>
      <trkpt lat="43.5657" lon="3.8201">
        <ele>32</ele>
        <time>2021-01-01T10:38:33Z</time>
      </trkpt>
      <trkpt lat="43.56565" lon="3.82013">
        <ele>32</ele>
        <time>2021-01-01T10:38:34Z</time>
      </trkpt>
      <trkpt lat="43.5656" lon="3.82016">
        <ele>32</ele>
        <time>2021-01-01T10:38:35Z</time>
      </trkpt>
      <trkpt lat="43.56556" lon="3.82023">
        <ele>32</ele>
        <time>2021-01-01T10:38:36Z</time>
      </trkpt>
      <trkpt lat="43.56551" lon="3.82027">
        <ele>32</ele>
        <time>2021-01-01T10:38:37Z</time>
      </trkpt>
      <trkpt lat="43.56546" lon="3.82031">
        <ele>32</ele>
        <time>2021-01-01T10:38:38Z</time>
      </trkpt>
      <trkpt lat="43.56539" lon="3.82037">
        <ele>33</ele>
        <time>2021-01-01T10:38:40Z</time>
      </trkpt>
      <trkpt lat="43.56534" lon="3.82043">
        <ele>33</ele>
        <time>2021-01-01T10:38:42Z</time>
      </trkpt>
      <trkpt lat="43.56529" lon="3.82043">
        <ele>33</ele>
        <time>2021-01-01T10:38:44Z</time>
      </trkpt>
      <trkpt lat="43.56525" lon="3.82045">
        <ele>34</ele>
        <time>2021-01-01T10:38:45Z</time>
      </trkpt>
      <trkpt lat="43.5652" lon="3.8205">
        <ele>34</ele>
        <time>2021-01-01T10:38:49Z</time>
      </trkpt>
      <trkpt lat="43.56511" lon="3.82056">
        <ele>34</ele>
        <time>2021-01-01T10:38:51Z</time>
      </trkpt>
      <trkpt lat="43.56504" lon="3.82061">
        <ele>34</ele>
        <time>2021-01-01T10:38:52Z</time>
      </trkpt>
      <trkpt lat="43.56497" lon="3.82067">
        <ele>34</ele>
        <time>2021-01-01T10:38:54Z</time>
      </trkpt>
      <trkpt lat="43.56491" lon="3.82073">
        <ele>34</ele>
        <time>2021-01-01T10:38:56Z</time>
      </trkpt>
      <trkpt lat="43.56484" lon="3.82078">
        <ele>33</ele>
        <time>2021-01-01T10:38:58Z</time>
      </trkpt>
      <trkpt lat="43.56477" lon="3.82084">
        <ele>33</ele>
        <time>2021-01-01T10:39:00Z</time>
      </trkpt>
      <trkpt lat="43.56469" lon="3.82091">
        <ele>32</ele>
        <time>2021-01-01T10:39:02Z</time>
      </trkpt>
      <trkpt lat="43.56465" lon="3.82095">
        <ele>32</ele>
        <time>2021-01-01T10:39:03Z</time>
      </trkpt>
      <trkpt lat="43.5646" lon="3.82099">
        <ele>32</ele>
        <time>2021-01-01T10:39:04Z</time>
      </trkpt>
      <trkpt lat="43.56455" lon="3.82103">
        <ele>32</ele>
        <time>2021-01-01T10:39:05Z</time>
      </trkpt>
      <trkpt lat="43.56448" lon="3.82109">
        <ele>31</ele>
        <time>2021-01-01T10:39:07Z</time>
      </trkpt>
      <trkpt lat="43.56443" lon="3.82112">
        <ele>31</ele>
        <time>2021-01-01T10:39:08Z</time>
      </trkpt>
      <trkpt lat="43.56439" lon="3.82115">
        <ele>31</ele>
        <time>2021-01-01T10:39:09Z</time>
      </trkpt>
      <trkpt lat="43.56435" lon="3.82118">
        <ele>32</ele>
        <time>2021-01-01T10:39:10Z</time>
      </trkpt>
      <trkpt lat="43.56427" lon="3.82118">
        <ele>32</ele>
        <time>2021-01-01T10:39:12Z</time>
      </trkpt>
      <trkpt lat="43.56422" lon="3.82111">
        <ele>33</ele>
        <time>2021-01-01T10:39:14Z</time>
      </trkpt>
      <trkpt lat="43.56418" lon="3.82109">
        <ele>33</ele>
        <time>2021-01-01T10:39:15Z</time>
      </trkpt>
      <trkpt lat="43.56413" lon="3.82109">
        <ele>34</ele>
        <time>2021-01-01T10:39:17Z</time>
      </trkpt>
      <trkpt lat="43.56407" lon="3.82114">
        <ele>34</ele>
        <time>2021-01-01T10:39:19Z</time>
      </trkpt>
      <trkpt lat="43.56398" lon="3.82116">
        <ele>34</ele>
        <time>2021-01-01T10:39:21Z</time>
      </trkpt>
      <trkpt lat="43.56391" lon="3.82119">
        <ele>33</ele>
        <time>2021-01-01T10:39:23Z</time>
      </trkpt>
      <trkpt lat="43.56384" lon="3.82123">
        <ele>33</ele>
        <time>2021-01-01T10:39:25Z</time>
      </trkpt>
      <trkpt lat="43.56379" lon="3.82126">
        <ele>33</ele>
        <time>2021-01-01T10:39:27Z</time>
      </trkpt>
      <trkpt lat="43.56373" lon="3.82126">
        <ele>33</ele>
        <time>2021-01-01T10:39:28Z</time>
      </trkpt>
      <trkpt lat="43.56368" lon="3.8213">
        <ele>32</ele>
        <time>2021-01-01T10:39:30Z</time>
      </trkpt>
      <trkpt lat="43.56361" lon="3.82131">
        <ele>31</ele>
        <time>2021-01-01T10:39:32Z</time>
      </trkpt>
      <trkpt lat="43.56357" lon="3.82134">
        <ele>31</ele>
        <time>2021-01-01T10:39:33Z</time>
      </trkpt>
      <trkpt lat="43.56353" lon="3.82136">
        <ele>30</ele>
        <time>2021-01-01T10:39:34Z</time>
      </trkpt>
      <trkpt lat="43.56345" lon="3.82139">
        <ele>30</ele>
        <time>2021-01-01T10:39:36Z</time>
      </trkpt>
      <trkpt lat="43.56337" lon="3.82144">
        <ele>29</ele>
        <time>2021-01-01T10:39:38Z</time>
      </trkpt>
      <trkpt lat="43.56333" lon="3.82145">
        <ele>29</ele>
        <time>2021-01-01T10:39:41Z</time>
      </trkpt>
      <trkpt lat="43.5632" lon="3.82156">
        <ele>29</ele>
        <time>2021-01-01T10:39:43Z</time>
      </trkpt>
      <trkpt lat="43.56315" lon="3.82157">
        <ele>29</ele>
        <time>2021-01-01T10:39:46Z</time>
      </trkpt>
      <trkpt lat="43.56308" lon="3.82155">
        <ele>29</ele>
        <time>2021-01-01T10:39:48Z</time>
      </trkpt>
      <trkpt lat="43.56302" lon="3.82153">
        <ele>30</ele>
        <time>2021-01-01T10:39:50Z</time>
      </trkpt>
      <trkpt lat="43.56297" lon="3.8215">
        <ele>30</ele>
        <time>2021-01-01T10:39:52Z</time>
      </trkpt>
      <trkpt lat="43.56291" lon="3.82149">
        <ele>30</ele>
        <time>2021-01-01T10:39:55Z</time>
      </trkpt>
      <trkpt lat="43.56284" lon="3.82146">
        <ele>30</ele>
        <time>2021-01-01T10:39:56Z</time>
      </trkpt>
      <trkpt lat="43.56279" lon="3.82143">
        <ele>31</ele>
        <time>2021-01-01T10:39:58Z</time>
      </trkpt>
      <trkpt lat="43.56271" lon="3.8214">
        <ele>31</ele>
        <time>2021-01-01T10:40:00Z</time>
      </trkpt>
      <trkpt lat="43.56264" lon="3.82139">
        <ele>31</ele>
        <time>2021-01-01T10:40:02Z</time>
      </trkpt>
      <trkpt lat="43.5626" lon="3.82135">
        <ele>31</ele>
        <time>2021-01-01T10:40:04Z</time>
      </trkpt>
      <trkpt lat="43.56254" lon="3.82132">
        <ele>31</ele>
        <time>2021-01-01T10:40:07Z</time>
      </trkpt>
      <trkpt lat="43.5625" lon="3.82129">
        <ele>32</ele>
        <time>2021-01-01T10:40:09Z</time>
      </trkpt>
      <trkpt lat="43.56238" lon="3.82125">
        <ele>32</ele>
        <time>2021-01-01T10:40:11Z</time>
      </trkpt>
      <trkpt lat="43.56233" lon="3.82122">
        <ele>32</ele>
        <time>2021-01-01T10:40:12Z</time>
      </trkpt>
      <trkpt lat="43.56228" lon="3.8212">
        <ele>32</ele>
        <time>2021-01-01T10:40:14Z</time>
      </trkpt>
      <trkpt lat="43.56223" lon="3.82118">
        <ele>32</ele>
        <time>2021-01-01T10:40:16Z</time>
      </trkpt>
      <trkpt lat="43.56217" lon="3.82116">
        <ele>32</ele>
        <time>2021-01-01T10:40:18Z</time>
      </trkpt>
      <trkpt lat="43.56212" lon="3.82113">
        <ele>33</ele>
        <time>2021-01-01T10:40:21Z</time>
      </trkpt>
      <trkpt lat="43.56207" lon="3.82113">
        <ele>33</ele>
        <time>2021-01-01T10:40:24Z</time>
      </trkpt>
      <trkpt lat="43.562" lon="3.82111">
        <ele>33</ele>
        <time>2021-01-01T10:40:27Z</time>
      </trkpt>
      <trkpt lat="43.56193" lon="3.82109">
        <ele>33</ele>
        <time>2021-01-01T10:40:29Z</time>
      </trkpt>
      <trkpt lat="43.56188" lon="3.82106">
        <ele>33</ele>
        <time>2021-01-01T10:40:31Z</time>
      </trkpt>
      <trkpt lat="43.56177" lon="3.821">
        <ele>33</ele>
        <time>2021-01-01T10:40:33Z</time>
      </trkpt>
      <trkpt lat="43.5617" lon="3.82095">
        <ele>33</ele>
        <time>2021-01-01T10:40:35Z</time>
      </trkpt>
      <trkpt lat="43.56164" lon="3.82091">
        <ele>33</ele>
        <time>2021-01-01T10:40:37Z</time>
      </trkpt>
      <trkpt lat="43.56157" lon="3.82088">
        <ele>33</ele>
        <time>2021-01-01T10:40:39Z</time>
      </trkpt>
      <trkpt lat="43.56151" lon="3.82088">
        <ele>34</ele>
        <time>2021-01-01T10:40:42Z</time>
      </trkpt>
      <trkpt lat="43.56146" lon="3.82087">
        <ele>34</ele>
        <time>2021-01-01T10:40:44Z</time>
      </trkpt>
      <trkpt lat="43.5614" lon="3.82086">
        <ele>35</ele>
        <time>2021-01-01T10:40:45Z</time>
      </trkpt>
      <trkpt lat="43.56135" lon="3.82083">
        <ele>35</ele>
        <time>2021-01-01T10:40:47Z</time>
      </trkpt>
      <trkpt lat="43.5613" lon="3.82081">
        <ele>35</ele>
        <time>2021-01-01T10:40:49Z</time>
      </trkpt>
      <trkpt lat="43.56125" lon="3.82078">
        <ele>35</ele>
        <time>2021-01-01T10:40:51Z</time>
      </trkpt>
      <trkpt lat="43.56119" lon="3.82076">
        <ele>35</ele>
        <time>2021-01-01T10:40:53Z</time>
      </trkpt>
      <trkpt lat="43.56115" lon="3.82074">
        <ele>35</ele>
        <time>2021-01-01T10:40:56Z</time>
      </trkpt>
      <trkpt lat="43.5611" lon="3.82072">
        <ele>35</ele>
        <time>2021-01-01T10:40:59Z</time>
      </trkpt>
      <trkpt lat="43.56104" lon="3.82069">
        <ele>35</ele>
        <time>2021-01-01T10:41:01Z</time>
      </trkpt>
      <trkpt lat="43.56099" lon="3.82067">
        <ele>36</ele>
        <time>2021-01-01T10:41:03Z</time>
      </trkpt>
      <trkpt lat="43.56093" lon="3.82064">
        <ele>36</ele>
        <time>2021-01-01T10:41:05Z</time>
      </trkpt>
      <trkpt lat="43.56087" lon="3.82061">
        <ele>36</ele>
        <time>2021-01-01T10:41:07Z</time>
      </trkpt>
      <trkpt lat="43.56082" lon="3.82057">
        <ele>37</ele>
        <time>2021-01-01T10:41:10Z</time>
      </trkpt>
      <trkpt lat="43.56077" lon="3.82051">
        <ele>37</ele>
        <time>2021-01-01T10:41:12Z</time>
      </trkpt>
      <trkpt lat="43.56073" lon="3.82047">
        <ele>38</ele>
        <time>2021-01-01T10:41:14Z</time>
      </trkpt>
      <trkpt lat="43.56066" lon="3.82042">
        <ele>39</ele>
        <time>2021-01-01T10:41:17Z</time>
      </trkpt>
      <trkpt lat="43.56059" lon="3.82037">
        <ele>39</ele>
        <time>2021-01-01T10:41:18Z</time>
      </trkpt>
      <trkpt lat="43.56055" lon="3.82033">
        <ele>40</ele>
        <time>2021-01-01T10:41:20Z</time>
      </trkpt>
      <trkpt lat="43.56051" lon="3.82029">
        <ele>40</ele>
        <time>2021-01-01T10:41:22Z</time>
      </trkpt>
      <trkpt lat="43.56045" lon="3.82026">
        <ele>41</ele>
        <time>2021-01-01T10:41:24Z</time>
      </trkpt>
      <trkpt lat="43.56041" lon="3.82024">
        <ele>39</ele>
        <time>2021-01-01T10:41:26Z</time>
      </trkpt>
      <trkpt lat="43.56036" lon="3.82022">
        <ele>39</ele>
        <time>2021-01-01T10:41:29Z</time>
      </trkpt>
      <trkpt lat="43.5603" lon="3.82018">
        <ele>39</ele>
        <time>2021-01-01T10:41:33Z</time>
      </trkpt>
      <trkpt lat="43.56024" lon="3.82015">
        <ele>39</ele>
        <time>2021-01-01T10:41:35Z</time>
      </trkpt>
      <trkpt lat="43.56018" lon="3.82012">
        <ele>39</ele>
        <time>2021-01-01T10:41:37Z</time>
      </trkpt>
      <trkpt lat="43.56012" lon="3.82009">
        <ele>40</ele>
        <time>2021-01-01T10:41:40Z</time>
      </trkpt>
      <trkpt lat="43.56007" lon="3.82006">
        <ele>41</ele>
        <time>2021-01-01T10:41:42Z</time>
      </trkpt>
      <trkpt lat="43.56002" lon="3.82002">
        <ele>41</ele>
        <time>2021-01-01T10:41:44Z</time>
      </trkpt>
      <trkpt lat="43.55997" lon="3.81998">
        <ele>42</ele>
        <time>2021-01-01T10:41:46Z</time>
      </trkpt>
      <trkpt lat="43.55993" lon="3.81992">
        <ele>42</ele>
        <time>2021-01-01T10:41:48Z</time>
      </trkpt>
      <trkpt lat="43.55989" lon="3.81987">
        <ele>43</ele>
        <time>2021-01-01T10:41:50Z</time>
      </trkpt>
      <trkpt lat="43.55984" lon="3.81983">
        <ele>43</ele>
        <time>2021-01-01T10:41:52Z</time>
      </trkpt>
      <trkpt lat="43.55979" lon="3.81978">
        <ele>43</ele>
        <time>2021-01-01T10:41:54Z</time>
      </trkpt>
      <trkpt lat="43.55975" lon="3.81974">
        <ele>44</ele>
        <time>2021-01-01T10:41:56Z</time>
      </trkpt>
      <trkpt lat="43.55969" lon="3.8197">
        <ele>44</ele>
        <time>2021-01-01T10:41:58Z</time>
      </trkpt>
      <trkpt lat="43.55964" lon="3.81968">
        <ele>44</ele>
        <time>2021-01-01T10:42:00Z</time>
      </trkpt>
      <trkpt lat="43.55959" lon="3.81966">
        <ele>44</ele>
        <time>2021-01-01T10:42:03Z</time>
      </trkpt>
      <trkpt lat="43.55949" lon="3.8196">
        <ele>44</ele>
        <time>2021-01-01T10:42:05Z</time>
      </trkpt>
      <trkpt lat="43.55943" lon="3.81958">
        <ele>44</ele>
        <time>2021-01-01T10:42:07Z</time>
      </trkpt>
      <trkpt lat="43.55936" lon="3.81955">
        <ele>44</ele>
        <time>2021-01-01T10:42:09Z</time>
      </trkpt>
      <trkpt lat="43.5593" lon="3.81952">
        <ele>44</ele>
        <time>2021-01-01T10:42:11Z</time>
      </trkpt>
      <trkpt lat="43.55925" lon="3.81949">
        <ele>44</ele>
        <time>2021-01-01T10:42:13Z</time>
      </trkpt>
      <trkpt lat="43.55919" lon="3.81949">
        <ele>44</ele>
        <time>2021-01-01T10:42:16Z</time>
      </trkpt>
      <trkpt lat="43.55912" lon="3.81946">
        <ele>43</ele>
        <time>2021-01-01T10:42:17Z</time>
      </trkpt>
      <trkpt lat="43.55907" lon="3.81942">
        <ele>43</ele>
        <time>2021-01-01T10:42:19Z</time>
      </trkpt>
      <trkpt lat="43.559" lon="3.81942">
        <ele>43</ele>
        <time>2021-01-01T10:42:21Z</time>
      </trkpt>
      <trkpt lat="43.55894" lon="3.81949">
        <ele>43</ele>
        <time>2021-01-01T10:42:23Z</time>
      </trkpt>
      <trkpt lat="43.5589" lon="3.81954">
        <ele>43</ele>
        <time>2021-01-01T10:42:25Z</time>
      </trkpt>
      <trkpt lat="43.55885" lon="3.81959">
        <ele>43</ele>
        <time>2021-01-01T10:42:28Z</time>
      </trkpt>
      <trkpt lat="43.5588" lon="3.81963">
        <ele>43</ele>
        <time>2021-01-01T10:42:30Z</time>
      </trkpt>
      <trkpt lat="43.55875" lon="3.81962">
        <ele>42</ele>
        <time>2021-01-01T10:42:32Z</time>
      </trkpt>
      <trkpt lat="43.55868" lon="3.81961">
        <ele>42</ele>
        <time>2021-01-01T10:42:34Z</time>
      </trkpt>
      <trkpt lat="43.55862" lon="3.8196">
        <ele>42</ele>
        <time>2021-01-01T10:42:36Z</time>
      </trkpt>
      <trkpt lat="43.55855" lon="3.81956">
        <ele>41</ele>
        <time>2021-01-01T10:42:38Z</time>
      </trkpt>
      <trkpt lat="43.55848" lon="3.81951">
        <ele>41</ele>
        <time>2021-01-01T10:42:40Z</time>
      </trkpt>
      <trkpt lat="43.55845" lon="3.81945">
        <ele>41</ele>
        <time>2021-01-01T10:42:42Z</time>
      </trkpt>
      <trkpt lat="43.55841" lon="3.81939">
        <ele>41</ele>
        <time>2021-01-01T10:42:44Z</time>
      </trkpt>
      <trkpt lat="43.55838" lon="3.81932">
        <ele>41</ele>
        <time>2021-01-01T10:42:46Z</time>
      </trkpt>
      <trkpt lat="43.55833" lon="3.81927">
        <ele>40</ele>
        <time>2021-01-01T10:42:48Z</time>
      </trkpt>
      <trkpt lat="43.55827" lon="3.81923">
        <ele>40</ele>
        <time>2021-01-01T10:42:50Z</time>
      </trkpt>
      <trkpt lat="43.55821" lon="3.81922">
        <ele>39</ele>
        <time>2021-01-01T10:42:52Z</time>
      </trkpt>
      <trkpt lat="43.55816" lon="3.81922">
        <ele>38</ele>
        <time>2021-01-01T10:42:54Z</time>
      </trkpt>
      <trkpt lat="43.55811" lon="3.81923">
        <ele>37</ele>
        <time>2021-01-01T10:42:57Z</time>
      </trkpt>
      <trkpt lat="43.55804" lon="3.81923">
        <ele>37</ele>
        <time>2021-01-01T10:43:00Z</time>
      </trkpt>
      <trkpt lat="43.558" lon="3.81921">
        <ele>37</ele>
        <time>2021-01-01T10:43:02Z</time>
      </trkpt>
      <trkpt lat="43.55794" lon="3.81921">
        <ele>36</ele>
        <time>2021-01-01T10:43:04Z</time>
      </trkpt>
      <trkpt lat="43.55789" lon="3.81921">
        <ele>36</ele>
        <time>2021-01-01T10:43:05Z</time>
      </trkpt>
      <trkpt lat="43.55782" lon="3.81924">
        <ele>36</ele>
        <time>2021-01-01T10:43:07Z</time>
      </trkpt>
      <trkpt lat="43.55775" lon="3.81929">
        <ele>35</ele>
        <time>2021-01-01T10:43:09Z</time>
      </trkpt>
      <trkpt lat="43.55768" lon="3.81933">
        <ele>35</ele>
        <time>2021-01-01T10:43:11Z</time>
      </trkpt>
      <trkpt lat="43.55762" lon="3.81935">
        <ele>35</ele>
        <time>2021-01-01T10:43:13Z</time>
      </trkpt>
      <trkpt lat="43.55758" lon="3.81935">
        <ele>35</ele>
        <time>2021-01-01T10:43:15Z</time>
      </trkpt>
      <trkpt lat="43.5575" lon="3.81938">
        <ele>35</ele>
        <time>2021-01-01T10:43:17Z</time>
      </trkpt>
      <trkpt lat="43.55745" lon="3.81939">
        <ele>35</ele>
        <time>2021-01-01T10:43:18Z</time>
      </trkpt>
      <trkpt lat="43.5574" lon="3.81943">
        <ele>35</ele>
        <time>2021-01-01T10:43:19Z</time>
      </trkpt>
      <trkpt lat="43.55736" lon="3.81945">
        <ele>35</ele>
        <time>2021-01-01T10:43:20Z</time>
      </trkpt>
      <trkpt lat="43.55727" lon="3.81946">
        <ele>35</ele>
        <time>2021-01-01T10:43:22Z</time>
      </trkpt>
      <trkpt lat="43.55718" lon="3.81949">
        <ele>35</ele>
        <time>2021-01-01T10:43:24Z</time>
      </trkpt>
      <trkpt lat="43.55713" lon="3.81951">
        <ele>36</ele>
        <time>2021-01-01T10:43:25Z</time>
      </trkpt>
      <trkpt lat="43.55703" lon="3.81952">
        <ele>35</ele>
        <time>2021-01-01T10:43:27Z</time>
      </trkpt>
      <trkpt lat="43.55695" lon="3.81954">
        <ele>35</ele>
        <time>2021-01-01T10:43:29Z</time>
      </trkpt>
      <trkpt lat="43.5569" lon="3.81954">
        <ele>35</ele>
        <time>2021-01-01T10:43:30Z</time>
      </trkpt>
      <trkpt lat="43.55682" lon="3.81954">
        <ele>35</ele>
        <time>2021-01-01T10:43:32Z</time>
      </trkpt>
      <trkpt lat="43.55677" lon="3.81954">
        <ele>35</ele>
        <time>2021-01-01T10:43:34Z</time>
      </trkpt>
      <trkpt lat="43.5567" lon="3.81952">
        <ele>35</ele>
        <time>2021-01-01T10:43:37Z</time>
      </trkpt>
      <trkpt lat="43.55663" lon="3.81956">
        <ele>34</ele>
        <time>2021-01-01T10:43:38Z</time>
      </trkpt>
      <trkpt lat="43.55658" lon="3.81957">
        <ele>34</ele>
        <time>2021-01-01T10:43:39Z</time>
      </trkpt>
      <trkpt lat="43.55654" lon="3.81958">
        <ele>33</ele>
        <time>2021-01-01T10:43:40Z</time>
      </trkpt>
      <trkpt lat="43.55649" lon="3.81959">
        <ele>33</ele>
        <time>2021-01-01T10:43:41Z</time>
      </trkpt>
      <trkpt lat="43.55644" lon="3.81961">
        <ele>33</ele>
        <time>2021-01-01T10:43:42Z</time>
      </trkpt>
      <trkpt lat="43.5564" lon="3.81962">
        <ele>33</ele>
        <time>2021-01-01T10:43:43Z</time>
      </trkpt>
      <trkpt lat="43.55632" lon="3.81966">
        <ele>32</ele>
        <time>2021-01-01T10:43:45Z</time>
      </trkpt>
      <trkpt lat="43.55626" lon="3.81966">
        <ele>32</ele>
        <time>2021-01-01T10:43:46Z</time>
      </trkpt>
      <trkpt lat="43.55618" lon="3.81967">
        <ele>32</ele>
        <time>2021-01-01T10:43:48Z</time>
      </trkpt>
      <trkpt lat="43.5561" lon="3.8197">
        <ele>31</ele>
        <time>2021-01-01T10:43:50Z</time>
      </trkpt>
      <trkpt lat="43.55602" lon="3.81975">
        <ele>31</ele>
        <time>2021-01-01T10:43:52Z</time>
      </trkpt>
      <trkpt lat="43.55598" lon="3.81978">
        <ele>31</ele>
        <time>2021-01-01T10:43:53Z</time>
      </trkpt>
      <trkpt lat="43.55591" lon="3.81981">
        <ele>31</ele>
        <time>2021-01-01T10:43:56Z</time>
      </trkpt>
      <trkpt lat="43.55584" lon="3.81987">
        <ele>31</ele>
        <time>2021-01-01T10:43:57Z</time>
      </trkpt>
      <trkpt lat="43.55578" lon="3.8199">
        <ele>31</ele>
        <time>2021-01-01T10:43:58Z</time>
      </trkpt>
      <trkpt lat="43.55571" lon="3.81995">
        <ele>31</ele>
        <time>2021-01-01T10:44:00Z</time>
      </trkpt>
      <trkpt lat="43.55564" lon="3.82">
        <ele>31</ele>
        <time>2021-01-01T10:44:02Z</time>
      </trkpt>
      <trkpt lat="43.55558" lon="3.82006">
        <ele>30</ele>
        <time>2021-01-01T10:44:04Z</time>
      </trkpt>
      <trkpt lat="43.55552" lon="3.82014">
        <ele>30</ele>
        <time>2021-01-01T10:44:06Z</time>
      </trkpt>
      <trkpt lat="43.55546" lon="3.82017">
        <ele>30</ele>
        <time>2021-01-01T10:44:09Z</time>
      </trkpt>
      <trkpt lat="43.55539" lon="3.82025">
        <ele>29</ele>
        <time>2021-01-01T10:44:11Z</time>
      </trkpt>
      <trkpt lat="43.55532" lon="3.82032">
        <ele>29</ele>
        <time>2021-01-01T10:44:13Z</time>
      </trkpt>
      <trkpt lat="43.55528" lon="3.82035">
        <ele>28</ele>
        <time>2021-01-01T10:44:14Z</time>
      </trkpt>
      <trkpt lat="43.55523" lon="3.8204">
        <ele>28</ele>
        <time>2021-01-01T10:44:15Z</time>
      </trkpt>
      <trkpt lat="43.55517" lon="3.82045">
        <ele>28</ele>
        <time>2021-01-01T10:44:17Z</time>
      </trkpt>
      <trkpt lat="43.55511" lon="3.82049">
        <ele>27</ele>
        <time>2021-01-01T10:44:19Z</time>
      </trkpt>
      <trkpt lat="43.55504" lon="3.82053">
        <ele>27</ele>
        <time>2021-01-01T10:44:21Z</time>
      </trkpt>
      <trkpt lat="43.55499" lon="3.82056">
        <ele>26</ele>
        <time>2021-01-01T10:44:23Z</time>
      </trkpt>
      <trkpt lat="43.55493" lon="3.82061">
        <ele>26</ele>
        <time>2021-01-01T10:44:26Z</time>
      </trkpt>
      <trkpt lat="43.55489" lon="3.82066">
        <ele>26</ele>
        <time>2021-01-01T10:44:28Z</time>
      </trkpt>
      <trkpt lat="43.55484" lon="3.8207">
        <ele>26</ele>
        <time>2021-01-01T10:44:30Z</time>
      </trkpt>
      <trkpt lat="43.55478" lon="3.82071">
        <ele>25</ele>
        <time>2021-01-01T10:44:32Z</time>
      </trkpt>
      <trkpt lat="43.55471" lon="3.82072">
        <ele>24</ele>
        <time>2021-01-01T10:44:34Z</time>
      </trkpt>
      <trkpt lat="43.55465" lon="3.8207">
        <ele>24</ele>
        <time>2021-01-01T10:44:36Z</time>
      </trkpt>
      <trkpt lat="43.55459" lon="3.82065">
        <ele>24</ele>
        <time>2021-01-01T10:44:38Z</time>
      </trkpt>
      <trkpt lat="43.55453" lon="3.82061">
        <ele>24</ele>
        <time>2021-01-01T10:44:40Z</time>
      </trkpt>
      <trkpt lat="43.55448" lon="3.82057">
        <ele>24</ele>
        <time>2021-01-01T10:44:43Z</time>
      </trkpt>
      <trkpt lat="43.55444" lon="3.82051">
        <ele>24</ele>
        <time>2021-01-01T10:44:46Z</time>
      </trkpt>
      <trkpt lat="43.55439" lon="3.82046">
        <ele>24</ele>
        <time>2021-01-01T10:44:49Z</time>
      </trkpt>
      <trkpt lat="43.55436" lon="3.82041">
        <ele>24</ele>
        <time>2021-01-01T10:44:51Z</time>
      </trkpt>
      <trkpt lat="43.55432" lon="3.82035">
        <ele>24</ele>
        <time>2021-01-01T10:44:53Z</time>
      </trkpt>
      <trkpt lat="43.55429" lon="3.82029">
        <ele>23</ele>
        <time>2021-01-01T10:44:55Z</time>
      </trkpt>
      <trkpt lat="43.55426" lon="3.82023">
        <ele>22</ele>
        <time>2021-01-01T10:44:57Z</time>
      </trkpt>
      <trkpt lat="43.55422" lon="3.82016">
        <ele>21</ele>
        <time>2021-01-01T10:45:00Z</time>
      </trkpt>
      <trkpt lat="43.55419" lon="3.82011">
        <ele>20</ele>
        <time>2021-01-01T10:45:02Z</time>
      </trkpt>
      <trkpt lat="43.55415" lon="3.82005">
        <ele>18</ele>
        <time>2021-01-01T10:45:04Z</time>
      </trkpt>
      <trkpt lat="43.55408" lon="3.82002">
        <ele>17</ele>
        <time>2021-01-01T10:45:06Z</time>
      </trkpt>
      <trkpt lat="43.55401" lon="3.82006">
        <ele>16</ele>
        <time>2021-01-01T10:45:08Z</time>
      </trkpt>
      <trkpt lat="43.55396" lon="3.82007">
        <ele>15</ele>
        <time>2021-01-01T10:45:10Z</time>
      </trkpt>
      <trkpt lat="43.55391" lon="3.8201">
        <ele>14</ele>
        <time>2021-01-01T10:45:12Z</time>
      </trkpt>
      <trkpt lat="43.55386" lon="3.82014">
        <ele>13</ele>
        <time>2021-01-01T10:45:15Z</time>
      </trkpt>
      <trkpt lat="43.55382" lon="3.82018">
        <ele>13</ele>
        <time>2021-01-01T10:45:18Z</time>
      </trkpt>
      <trkpt lat="43.55378" lon="3.82024">
        <ele>13</ele>
        <time>2021-01-01T10:45:23Z</time>
      </trkpt>
      <trkpt lat="43.55372" lon="3.82031">
        <ele>12</ele>
        <time>2021-01-01T10:45:25Z</time>
      </trkpt>
      <trkpt lat="43.55368" lon="3.82034">
        <ele>12</ele>
        <time>2021-01-01T10:45:26Z</time>
      </trkpt>
      <trkpt lat="43.55364" lon="3.82038">
        <ele>11</ele>
        <time>2021-01-01T10:45:27Z</time>
      </trkpt>
      <trkpt lat="43.55359" lon="3.82042">
        <ele>11</ele>
        <time>2021-01-01T10:45:28Z</time>
      </trkpt>
      <trkpt lat="43.55355" lon="3.82046">
        <ele>11</ele>
        <time>2021-01-01T10:45:29Z</time>
      </trkpt>
      <trkpt lat="43.55347" lon="3.82053">
        <ele>11</ele>
        <time>2021-01-01T10:45:30Z</time>
      </trkpt>
      <trkpt lat="43.55342" lon="3.82059">
        <ele>12</ele>
        <time>2021-01-01T10:45:32Z</time>
      </trkpt>
      <trkpt lat="43.55338" lon="3.82062">
        <ele>12</ele>
        <time>2021-01-01T10:45:44Z</time>
      </trkpt>
      <trkpt lat="43.55338" lon="3.82062">
        <ele>13</ele>
        <time>2021-01-01T10:45:59Z</time>
      </trkpt>
      <trkpt lat="43.55338" lon="3.82062">
        <ele>13</ele>
        <time>2021-01-01T10:46:00Z</time>
      </trkpt>
      <trkpt lat="43.55339" lon="3.82064">
        <ele>13</ele>
        <time>2021-01-01T10:46:29Z</time>
      </trkpt>
      <trkpt lat="43.55338" lon="3.82064">
        <ele>14</ele>
        <time>2021-01-01T10:46:30Z</time>
      </trkpt>
      <trkpt lat="43.55338" lon="3.82059">
        <ele>13</ele>
        <time>2021-01-01T10:46:59Z</time>
      </trkpt>
      <trkpt lat="43.55353" lon="3.82034">
        <ele>12</ele>
        <time>2021-01-01T10:47:19Z</time>
      </trkpt>
      <trkpt lat="43.55357" lon="3.8203">
        <ele>12</ele>
        <time>2021-01-01T10:47:20Z</time>
      </trkpt>
      <trkpt lat="43.55361" lon="3.82026">
        <ele>11</ele>
        <time>2021-01-01T10:47:22Z</time>
      </trkpt>
      <trkpt lat="43.55365" lon="3.82022">
        <ele>11</ele>
        <time>2021-01-01T10:47:26Z</time>
      </trkpt>
      <trkpt lat="43.55359" lon="3.82024">
        <ele>9</ele>
        <time>2021-01-01T10:47:31Z</time>
      </trkpt>
      <trkpt lat="43.55354" lon="3.82027">
        <ele>8</ele>
        <time>2021-01-01T10:47:34Z</time>
      </trkpt>
      <trkpt lat="43.55351" lon="3.82034">
        <ele>11</ele>
        <time>2021-01-01T10:47:38Z</time>
      </trkpt>
      <trkpt lat="43.55348" lon="3.8204">
        <ele>11</ele>
        <time>2021-01-01T10:47:42Z</time>
      </trkpt>
      <trkpt lat="43.55343" lon="3.82043">
        <ele>12</ele>
        <time>2021-01-01T10:47:46Z</time>
      </trkpt>
      <trkpt lat="43.55339" lon="3.82048">
        <ele>13</ele>
        <time>2021-01-01T10:47:49Z</time>
      </trkpt>
      <trkpt lat="43.55342" lon="3.82054">
        <ele>14</ele>
        <time>2021-01-01T10:47:53Z</time>
      </trkpt>
      <trkpt lat="43.55347" lon="3.82056">
        <ele>12</ele>
        <time>2021-01-01T10:47:57Z</time>
      </trkpt>
      <trkpt lat="43.55342" lon="3.82056">
        <ele>12</ele>
        <time>2021-01-01T10:48:04Z</time>
      </trkpt>
      <trkpt lat="43.5534" lon="3.82061">
        <ele>12</ele>
        <time>2021-01-01T10:48:11Z</time>
      </trkpt>
      <trkpt lat="43.5534" lon="3.82062">
        <ele>13</ele>
        <time>2021-01-01T10:48:29Z</time>
      </trkpt>
      <trkpt lat="43.5534" lon="3.82061">
        <ele>13</ele>
        <time>2021-01-01T10:48:30Z</time>
      </trkpt>
      <trkpt lat="43.55339" lon="3.82062">
        <ele>13</ele>
        <time>2021-01-01T10:48:59Z</time>
      </trkpt>
      <trkpt lat="43.55339" lon="3.82061">
        <ele>13</ele>
        <time>2021-01-01T10:49:00Z</time>
      </trkpt>
      <trkpt lat="43.55341" lon="3.8206">
        <ele>13</ele>
        <time>2021-01-01T10:49:29Z</time>
      </trkpt>
      <trkpt lat="43.55321" lon="3.8208">
        <ele>15</ele>
        <time>2021-01-01T10:49:40Z</time>
      </trkpt>
      <trkpt lat="43.55316" lon="3.82088">
        <ele>14</ele>
        <time>2021-01-01T10:49:42Z</time>
      </trkpt>
      <trkpt lat="43.55312" lon="3.82095">
        <ele>14</ele>
        <time>2021-01-01T10:49:44Z</time>
      </trkpt>
      <trkpt lat="43.55307" lon="3.821">
        <ele>13</ele>
        <time>2021-01-01T10:49:46Z</time>
      </trkpt>
      <trkpt lat="43.55303" lon="3.82102">
        <ele>13</ele>
        <time>2021-01-01T10:49:48Z</time>
      </trkpt>
      <trkpt lat="43.55298" lon="3.82106">
        <ele>12</ele>
        <time>2021-01-01T10:49:51Z</time>
      </trkpt>
      <trkpt lat="43.55293" lon="3.82111">
        <ele>12</ele>
        <time>2021-01-01T10:49:54Z</time>
      </trkpt>
      <trkpt lat="43.55288" lon="3.82114">
        <ele>11</ele>
        <time>2021-01-01T10:49:57Z</time>
      </trkpt>
      <trkpt lat="43.55283" lon="3.82118">
        <ele>11</ele>
        <time>2021-01-01T10:50:00Z</time>
      </trkpt>
      <trkpt lat="43.55279" lon="3.82123">
        <ele>11</ele>
        <time>2021-01-01T10:50:02Z</time>
      </trkpt>
      <trkpt lat="43.55274" lon="3.82129">
        <ele>11</ele>
        <time>2021-01-01T10:50:04Z</time>
      </trkpt>
      <trkpt lat="43.55269" lon="3.82134">
        <ele>10</ele>
        <time>2021-01-01T10:50:08Z</time>
      </trkpt>
      <trkpt lat="43.55263" lon="3.82144">
        <ele>10</ele>
        <time>2021-01-01T10:50:09Z</time>
      </trkpt>
      <trkpt lat="43.5526" lon="3.8215">
        <ele>9</ele>
        <time>2021-01-01T10:50:11Z</time>
      </trkpt>
      <trkpt lat="43.55255" lon="3.82156">
        <ele>9</ele>
        <time>2021-01-01T10:50:13Z</time>
      </trkpt>
      <trkpt lat="43.5525" lon="3.82161">
        <ele>9</ele>
        <time>2021-01-01T10:50:15Z</time>
      </trkpt>
      <trkpt lat="43.55245" lon="3.82167">
        <ele>9</ele>
        <time>2021-01-01T10:50:17Z</time>
      </trkpt>
      <trkpt lat="43.5524" lon="3.82172">
        <ele>9</ele>
        <time>2021-01-01T10:50:19Z</time>
      </trkpt>
      <trkpt lat="43.55236" lon="3.82177">
        <ele>10</ele>
        <time>2021-01-01T10:50:21Z</time>
      </trkpt>
      <trkpt lat="43.55233" lon="3.82181">
        <ele>11</ele>
        <time>2021-01-01T10:50:23Z</time>
      </trkpt>
      <trkpt lat="43.55229" lon="3.82185">
        <ele>11</ele>
        <time>2021-01-01T10:50:25Z</time>
      </trkpt>
      <trkpt lat="43.55223" lon="3.82189">
        <ele>12</ele>
        <time>2021-01-01T10:50:28Z</time>
      </trkpt>
      <trkpt lat="43.55219" lon="3.82194">
        <ele>13</ele>
        <time>2021-01-01T10:50:31Z</time>
      </trkpt>
      <trkpt lat="43.55216" lon="3.82201">
        <ele>13</ele>
        <time>2021-01-01T10:50:34Z</time>
      </trkpt>
      <trkpt lat="43.55213" lon="3.82207">
        <ele>13</ele>
        <time>2021-01-01T10:50:36Z</time>
      </trkpt>
      <trkpt lat="43.5521" lon="3.82213">
        <ele>13</ele>
        <time>2021-01-01T10:50:38Z</time>
      </trkpt>
      <trkpt lat="43.55207" lon="3.82221">
        <ele>14</ele>
        <time>2021-01-01T10:50:41Z</time>
      </trkpt>
      <trkpt lat="43.55206" lon="3.82229">
        <ele>14</ele>
        <time>2021-01-01T10:50:44Z</time>
      </trkpt>
      <trkpt lat="43.55208" lon="3.82235">
        <ele>14</ele>
        <time>2021-01-01T10:50:47Z</time>
      </trkpt>
      <trkpt lat="43.55212" lon="3.82239">
        <ele>14</ele>
        <time>2021-01-01T10:50:52Z</time>
      </trkpt>
      <trkpt lat="43.55214" lon="3.82237">
        <ele>14</ele>
        <time>2021-01-01T10:51:14Z</time>
      </trkpt>
      <trkpt lat="43.55214" lon="3.82237">
        <ele>14</ele>
        <time>2021-01-01T10:51:16Z</time>
      </trkpt>
      <trkpt lat="43.55218" lon="3.8223">
        <ele>14</ele>
        <time>2021-01-01T10:51:37Z</time>
      </trkpt>
      <trkpt lat="43.55221" lon="3.82226">
        <ele>13</ele>
        <time>2021-01-01T10:51:39Z</time>
      </trkpt>
      <trkpt lat="43.55225" lon="3.82222">
        <ele>13</ele>
        <time>2021-01-01T10:51:41Z</time>
      </trkpt>
      <trkpt lat="43.55229" lon="3.82216">
        <ele>13</ele>
        <time>2021-01-01T10:51:43Z</time>
      </trkpt>
      <trkpt lat="43.55233" lon="3.8221">
        <ele>13</ele>
        <time>2021-01-01T10:51:45Z</time>
      </trkpt>
      <trkpt lat="43.55238" lon="3.82205">
        <ele>13</ele>
        <time>2021-01-01T10:51:47Z</time>
      </trkpt>
      <trkpt lat="43.55243" lon="3.82201">
        <ele>13</ele>
        <time>2021-01-01T10:51:49Z</time>
      </trkpt>
      <trkpt lat="43.55248" lon="3.82196">
        <ele>13</ele>
        <time>2021-01-01T10:51:51Z</time>
      </trkpt>
      <trkpt lat="43.55253" lon="3.82192">
        <ele>12</ele>
        <time>2021-01-01T10:51:53Z</time>
      </trkpt>
      <trkpt lat="43.55259" lon="3.82188">
        <ele>12</ele>
        <time>2021-01-01T10:51:57Z</time>
      </trkpt>
      <trkpt lat="43.55264" lon="3.82186">
        <ele>12</ele>
        <time>2021-01-01T10:51:59Z</time>
      </trkpt>
      <trkpt lat="43.55269" lon="3.82184">
        <ele>12</ele>
        <time>2021-01-01T10:52:00Z</time>
      </trkpt>
      <trkpt lat="43.55274" lon="3.82182">
        <ele>12</ele>
        <time>2021-01-01T10:52:02Z</time>
      </trkpt>
      <trkpt lat="43.55279" lon="3.82184">
        <ele>13</ele>
        <time>2021-01-01T10:52:04Z</time>
      </trkpt>
      <trkpt lat="43.55284" lon="3.82188">
        <ele>14</ele>
        <time>2021-01-01T10:52:06Z</time>
      </trkpt>
      <trkpt lat="43.55289" lon="3.82193">
        <ele>14</ele>
        <time>2021-01-01T10:52:09Z</time>
      </trkpt>
      <trkpt lat="43.55293" lon="3.82198">
        <ele>15</ele>
        <time>2021-01-01T10:52:11Z</time>
      </trkpt>
      <trkpt lat="43.55298" lon="3.82205">
        <ele>15</ele>
        <time>2021-01-01T10:52:14Z</time>
      </trkpt>
      <trkpt lat="43.55302" lon="3.8221">
        <ele>16</ele>
        <time>2021-01-01T10:52:16Z</time>
      </trkpt>
      <trkpt lat="43.55309" lon="3.82215">
        <ele>16</ele>
        <time>2021-01-01T10:52:19Z</time>
      </trkpt>
      <trkpt lat="43.55317" lon="3.82221">
        <ele>16</ele>
        <time>2021-01-01T10:52:21Z</time>
      </trkpt>
      <trkpt lat="43.55323" lon="3.82223">
        <ele>16</ele>
        <time>2021-01-01T10:52:23Z</time>
      </trkpt>
      <trkpt lat="43.55329" lon="3.82226">
        <ele>16</ele>
        <time>2021-01-01T10:52:25Z</time>
      </trkpt>
      <trkpt lat="43.55335" lon="3.82228">
        <ele>16</ele>
        <time>2021-01-01T10:52:27Z</time>
      </trkpt>
      <trkpt lat="43.55341" lon="3.82231">
        <ele>16</ele>
        <time>2021-01-01T10:52:30Z</time>
      </trkpt>
      <trkpt lat="43.55347" lon="3.82232">
        <ele>17</ele>
        <time>2021-01-01T10:52:32Z</time>
      </trkpt>
      <trkpt lat="43.55352" lon="3.82233">
        <ele>17</ele>
        <time>2021-01-01T10:52:33Z</time>
      </trkpt>
      <trkpt lat="43.55358" lon="3.82234">
        <ele>17</ele>
        <time>2021-01-01T10:52:35Z</time>
      </trkpt>
      <trkpt lat="43.55364" lon="3.82234">
        <ele>18</ele>
        <time>2021-01-01T10:52:37Z</time>
      </trkpt>
      <trkpt lat="43.55369" lon="3.82231">
        <ele>18</ele>
        <time>2021-01-01T10:52:39Z</time>
      </trkpt>
      <trkpt lat="43.55375" lon="3.8223">
        <ele>18</ele>
        <time>2021-01-01T10:52:41Z</time>
      </trkpt>
      <trkpt lat="43.55383" lon="3.82228">
        <ele>18</ele>
        <time>2021-01-01T10:52:44Z</time>
      </trkpt>
      <trkpt lat="43.5539" lon="3.82227">
        <ele>18</ele>
        <time>2021-01-01T10:52:46Z</time>
      </trkpt>
      <trkpt lat="43.55396" lon="3.82227">
        <ele>18</ele>
        <time>2021-01-01T10:52:48Z</time>
      </trkpt>
      <trkpt lat="43.55402" lon="3.82228">
        <ele>18</ele>
        <time>2021-01-01T10:52:50Z</time>
      </trkpt>
      <trkpt lat="43.55408" lon="3.8223">
        <ele>18</ele>
        <time>2021-01-01T10:52:52Z</time>
      </trkpt>
      <trkpt lat="43.55413" lon="3.82232">
        <ele>17</ele>
        <time>2021-01-01T10:52:56Z</time>
      </trkpt>
      <trkpt lat="43.55421" lon="3.82236">
        <ele>18</ele>
        <time>2021-01-01T10:52:57Z</time>
      </trkpt>
      <trkpt lat="43.55427" lon="3.82242">
        <ele>18</ele>
        <time>2021-01-01T10:53:00Z</time>
      </trkpt>
      <trkpt lat="43.55432" lon="3.82247">
        <ele>19</ele>
        <time>2021-01-01T10:53:03Z</time>
      </trkpt>
      <trkpt lat="43.55437" lon="3.82253">
        <ele>19</ele>
        <time>2021-01-01T10:53:06Z</time>
      </trkpt>
      <trkpt lat="43.55441" lon="3.82258">
        <ele>20</ele>
        <time>2021-01-01T10:53:09Z</time>
      </trkpt>
      <trkpt lat="43.55445" lon="3.82262">
        <ele>20</ele>
        <time>2021-01-01T10:53:12Z</time>
      </trkpt>
      <trkpt lat="43.55448" lon="3.82268">
        <ele>20</ele>
        <time>2021-01-01T10:53:15Z</time>
      </trkpt>
      <trkpt lat="43.55452" lon="3.82274">
        <ele>21</ele>
        <time>2021-01-01T10:53:18Z</time>
      </trkpt>
      <trkpt lat="43.55457" lon="3.82279">
        <ele>21</ele>
        <time>2021-01-01T10:53:21Z</time>
      </trkpt>
      <trkpt lat="43.55462" lon="3.82285">
        <ele>22</ele>
        <time>2021-01-01T10:53:24Z</time>
      </trkpt>
      <trkpt lat="43.55467" lon="3.82291">
        <ele>22</ele>
        <time>2021-01-01T10:53:27Z</time>
      </trkpt>
      <trkpt lat="43.55471" lon="3.82295">
        <ele>22</ele>
        <time>2021-01-01T10:53:29Z</time>
      </trkpt>
      <trkpt lat="43.55475" lon="3.823">
        <ele>22</ele>
        <time>2021-01-01T10:53:31Z</time>
      </trkpt>
      <trkpt lat="43.55479" lon="3.82306">
        <ele>23</ele>
        <time>2021-01-01T10:53:33Z</time>
      </trkpt>
      <trkpt lat="43.55483" lon="3.82311">
        <ele>23</ele>
        <time>2021-01-01T10:53:35Z</time>
      </trkpt>
      <trkpt lat="43.55487" lon="3.82315">
        <ele>23</ele>
        <time>2021-01-01T10:53:37Z</time>
      </trkpt>
      <trkpt lat="43.55492" lon="3.82319">
        <ele>23</ele>
        <time>2021-01-01T10:53:39Z</time>
      </trkpt>
      <trkpt lat="43.55496" lon="3.82323">
        <ele>23</ele>
        <time>2021-01-01T10:53:41Z</time>
      </trkpt>
      <trkpt lat="43.555" lon="3.82328">
        <ele>23</ele>
        <time>2021-01-01T10:53:43Z</time>
      </trkpt>
      <trkpt lat="43.55504" lon="3.82334">
        <ele>23</ele>
        <time>2021-01-01T10:53:46Z</time>
      </trkpt>
      <trkpt lat="43.55508" lon="3.82339">
        <ele>23</ele>
        <time>2021-01-01T10:53:50Z</time>
      </trkpt>
      <trkpt lat="43.55514" lon="3.82344">
        <ele>23</ele>
        <time>2021-01-01T10:53:53Z</time>
      </trkpt>
      <trkpt lat="43.55518" lon="3.8235">
        <ele>24</ele>
        <time>2021-01-01T10:53:55Z</time>
      </trkpt>
      <trkpt lat="43.55524" lon="3.82357">
        <ele>24</ele>
        <time>2021-01-01T10:53:57Z</time>
      </trkpt>
      <trkpt lat="43.55531" lon="3.82364">
        <ele>24</ele>
        <time>2021-01-01T10:53:59Z</time>
      </trkpt>
      <trkpt lat="43.55537" lon="3.82372">
        <ele>24</ele>
        <time>2021-01-01T10:54:01Z</time>
      </trkpt>
      <trkpt lat="43.55541" lon="3.82376">
        <ele>25</ele>
        <time>2021-01-01T10:54:02Z</time>
      </trkpt>
      <trkpt lat="43.55548" lon="3.82384">
        <ele>25</ele>
        <time>2021-01-01T10:54:04Z</time>
      </trkpt>
      <trkpt lat="43.55551" lon="3.82389">
        <ele>25</ele>
        <time>2021-01-01T10:54:05Z</time>
      </trkpt>
      <trkpt lat="43.55555" lon="3.82393">
        <ele>25</ele>
        <time>2021-01-01T10:54:06Z</time>
      </trkpt>
      <trkpt lat="43.55559" lon="3.82397">
        <ele>25</ele>
        <time>2021-01-01T10:54:07Z</time>
      </trkpt>
      <trkpt lat="43.55563" lon="3.82401">
        <ele>25</ele>
        <time>2021-01-01T10:54:08Z</time>
      </trkpt>
      <trkpt lat="43.55566" lon="3.82405">
        <ele>25</ele>
        <time>2021-01-01T10:54:09Z</time>
      </trkpt>
      <trkpt lat="43.55571" lon="3.82409">
        <ele>25</ele>
        <time>2021-01-01T10:54:10Z</time>
      </trkpt>
      <trkpt lat="43.55575" lon="3.82413">
        <ele>25</ele>
        <time>2021-01-01T10:54:11Z</time>
      </trkpt>
      <trkpt lat="43.55581" lon="3.8242">
        <ele>24</ele>
        <time>2021-01-01T10:54:13Z</time>
      </trkpt>
      <trkpt lat="43.55585" lon="3.82424">
        <ele>24</ele>
        <time>2021-01-01T10:54:14Z</time>
      </trkpt>
      <trkpt lat="43.55591" lon="3.82432">
        <ele>24</ele>
        <time>2021-01-01T10:54:16Z</time>
      </trkpt>
      <trkpt lat="43.55597" lon="3.8244">
        <ele>24</ele>
        <time>2021-01-01T10:54:18Z</time>
      </trkpt>
      <trkpt lat="43.55602" lon="3.82444">
        <ele>24</ele>
        <time>2021-01-01T10:54:19Z</time>
      </trkpt>
      <trkpt lat="43.55608" lon="3.82451">
        <ele>24</ele>
        <time>2021-01-01T10:54:21Z</time>
      </trkpt>
      <trkpt lat="43.55614" lon="3.82458">
        <ele>25</ele>
        <time>2021-01-01T10:54:23Z</time>
      </trkpt>
      <trkpt lat="43.5562" lon="3.82463">
        <ele>25</ele>
        <time>2021-01-01T10:54:25Z</time>
      </trkpt>
      <trkpt lat="43.55624" lon="3.82469">
        <ele>26</ele>
        <time>2021-01-01T10:54:27Z</time>
      </trkpt>
      <trkpt lat="43.55629" lon="3.82476">
        <ele>27</ele>
        <time>2021-01-01T10:54:29Z</time>
      </trkpt>
      <trkpt lat="43.55634" lon="3.82481">
        <ele>28</ele>
        <time>2021-01-01T10:54:31Z</time>
      </trkpt>
      <trkpt lat="43.5564" lon="3.82487">
        <ele>29</ele>
        <time>2021-01-01T10:54:33Z</time>
      </trkpt>
      <trkpt lat="43.55644" lon="3.82492">
        <ele>30</ele>
        <time>2021-01-01T10:54:36Z</time>
      </trkpt>
      <trkpt lat="43.55647" lon="3.82496">
        <ele>31</ele>
        <time>2021-01-01T10:54:38Z</time>
      </trkpt>
      <trkpt lat="43.5565" lon="3.82502">
        <ele>31</ele>
        <time>2021-01-01T10:54:40Z</time>
      </trkpt>
      <trkpt lat="43.55661" lon="3.82515">
        <ele>32</ele>
        <time>2021-01-01T10:54:42Z</time>
      </trkpt>
      <trkpt lat="43.55667" lon="3.8252">
        <ele>32</ele>
        <time>2021-01-01T10:54:44Z</time>
      </trkpt>
      <trkpt lat="43.55673" lon="3.82524">
        <ele>32</ele>
        <time>2021-01-01T10:54:46Z</time>
      </trkpt>
      <trkpt lat="43.55678" lon="3.82532">
        <ele>33</ele>
        <time>2021-01-01T10:54:48Z</time>
      </trkpt>
      <trkpt lat="43.55682" lon="3.82537">
        <ele>33</ele>
        <time>2021-01-01T10:54:50Z</time>
      </trkpt>
      <trkpt lat="43.55688" lon="3.82543">
        <ele>33</ele>
        <time>2021-01-01T10:54:53Z</time>
      </trkpt>
      <trkpt lat="43.55693" lon="3.82551">
        <ele>34</ele>
        <time>2021-01-01T10:54:54Z</time>
      </trkpt>
      <trkpt lat="43.55698" lon="3.82556">
        <ele>34</ele>
        <time>2021-01-01T10:54:56Z</time>
      </trkpt>
      <trkpt lat="43.55703" lon="3.82563">
        <ele>34</ele>
        <time>2021-01-01T10:54:58Z</time>
      </trkpt>
      <trkpt lat="43.55709" lon="3.82569">
        <ele>35</ele>
        <time>2021-01-01T10:55:00Z</time>
      </trkpt>
      <trkpt lat="43.55712" lon="3.82573">
        <ele>35</ele>
        <time>2021-01-01T10:55:02Z</time>
      </trkpt>
      <trkpt lat="43.55718" lon="3.82582">
        <ele>36</ele>
        <time>2021-01-01T10:55:05Z</time>
      </trkpt>
      <trkpt lat="43.55724" lon="3.82588">
        <ele>36</ele>
        <time>2021-01-01T10:55:07Z</time>
      </trkpt>
      <trkpt lat="43.5573" lon="3.82595">
        <ele>36</ele>
        <time>2021-01-01T10:55:09Z</time>
      </trkpt>
      <trkpt lat="43.55737" lon="3.82603">
        <ele>36</ele>
        <time>2021-01-01T10:55:11Z</time>
      </trkpt>
      <trkpt lat="43.55742" lon="3.82608">
        <ele>35</ele>
        <time>2021-01-01T10:55:12Z</time>
      </trkpt>
      <trkpt lat="43.55747" lon="3.82614">
        <ele>34</ele>
        <time>2021-01-01T10:55:13Z</time>
      </trkpt>
      <trkpt lat="43.55751" lon="3.82621">
        <ele>34</ele>
        <time>2021-01-01T10:55:14Z</time>
      </trkpt>
      <trkpt lat="43.55756" lon="3.82628">
        <ele>33</ele>
        <time>2021-01-01T10:55:15Z</time>
      </trkpt>
      <trkpt lat="43.55761" lon="3.82636">
        <ele>33</ele>
        <time>2021-01-01T10:55:16Z</time>
      </trkpt>
      <trkpt lat="43.55765" lon="3.82641">
        <ele>32</ele>
        <time>2021-01-01T10:55:17Z</time>
      </trkpt>
      <trkpt lat="43.5577" lon="3.82645">
        <ele>32</ele>
        <time>2021-01-01T10:55:18Z</time>
      </trkpt>
      <trkpt lat="43.55775" lon="3.82648">
        <ele>31</ele>
        <time>2021-01-01T10:55:19Z</time>
      </trkpt>
      <trkpt lat="43.5578" lon="3.8265">
        <ele>30</ele>
        <time>2021-01-01T10:55:20Z</time>
      </trkpt>
      <trkpt lat="43.55786" lon="3.82651">
        <ele>30</ele>
        <time>2021-01-01T10:55:21Z</time>
      </trkpt>
      <trkpt lat="43.55792" lon="3.82651">
        <ele>29</ele>
        <time>2021-01-01T10:55:22Z</time>
      </trkpt>
      <trkpt lat="43.55799" lon="3.82651">
        <ele>29</ele>
        <time>2021-01-01T10:55:23Z</time>
      </trkpt>
      <trkpt lat="43.55806" lon="3.8265">
        <ele>28</ele>
        <time>2021-01-01T10:55:24Z</time>
      </trkpt>
      <trkpt lat="43.55814" lon="3.82649">
        <ele>28</ele>
        <time>2021-01-01T10:55:25Z</time>
      </trkpt>
      <trkpt lat="43.55821" lon="3.82647">
        <ele>28</ele>
        <time>2021-01-01T10:55:26Z</time>
      </trkpt>
      <trkpt lat="43.55829" lon="3.82644">
        <ele>27</ele>
        <time>2021-01-01T10:55:27Z</time>
      </trkpt>
      <trkpt lat="43.55837" lon="3.82641">
        <ele>27</ele>
        <time>2021-01-01T10:55:28Z</time>
      </trkpt>
      <trkpt lat="43.55843" lon="3.8264">
        <ele>27</ele>
        <time>2021-01-01T10:55:29Z</time>
      </trkpt>
      <trkpt lat="43.55849" lon="3.82641">
        <ele>27</ele>
        <time>2021-01-01T10:55:30Z</time>
      </trkpt>
      <trkpt lat="43.55856" lon="3.82644">
        <ele>28</ele>
        <time>2021-01-01T10:55:31Z</time>
      </trkpt>
      <trkpt lat="43.55861" lon="3.82648">
        <ele>28</ele>
        <time>2021-01-01T10:55:32Z</time>
      </trkpt>
      <trkpt lat="43.55867" lon="3.82654">
        <ele>28</ele>
        <time>2021-01-01T10:55:33Z</time>
      </trkpt>
      <trkpt lat="43.55873" lon="3.82659">
        <ele>27</ele>
        <time>2021-01-01T10:55:34Z</time>
      </trkpt>
      <trkpt lat="43.55878" lon="3.82665">
        <ele>27</ele>
        <time>2021-01-01T10:55:35Z</time>
      </trkpt>
      <trkpt lat="43.55883" lon="3.82672">
        <ele>27</ele>
        <time>2021-01-01T10:55:36Z</time>
      </trkpt>
      <trkpt lat="43.55888" lon="3.82678">
        <ele>26</ele>
        <time>2021-01-01T10:55:37Z</time>
      </trkpt>
      <trkpt lat="43.55894" lon="3.82683">
        <ele>26</ele>
        <time>2021-01-01T10:55:38Z</time>
      </trkpt>
      <trkpt lat="43.55899" lon="3.82689">
        <ele>26</ele>
        <time>2021-01-01T10:55:39Z</time>
      </trkpt>
      <trkpt lat="43.55904" lon="3.82696">
        <ele>26</ele>
        <time>2021-01-01T10:55:40Z</time>
      </trkpt>
      <trkpt lat="43.55909" lon="3.82703">
        <ele>26</ele>
        <time>2021-01-01T10:55:41Z</time>
      </trkpt>
      <trkpt lat="43.55913" lon="3.82711">
        <ele>25</ele>
        <time>2021-01-01T10:55:42Z</time>
      </trkpt>
      <trkpt lat="43.55913" lon="3.82719">
        <ele>25</ele>
        <time>2021-01-01T10:55:43Z</time>
      </trkpt>
      <trkpt lat="43.55915" lon="3.82727">
        <ele>25</ele>
        <time>2021-01-01T10:55:44Z</time>
      </trkpt>
      <trkpt lat="43.55917" lon="3.82735">
        <ele>25</ele>
        <time>2021-01-01T10:55:45Z</time>
      </trkpt>
      <trkpt lat="43.55921" lon="3.82744">
        <ele>24</ele>
        <time>2021-01-01T10:55:46Z</time>
      </trkpt>
      <trkpt lat="43.55926" lon="3.82752">
        <ele>24</ele>
        <time>2021-01-01T10:55:47Z</time>
      </trkpt>
      <trkpt lat="43.55931" lon="3.82757">
        <ele>24</ele>
        <time>2021-01-01T10:55:48Z</time>
      </trkpt>
      <trkpt lat="43.55936" lon="3.82762">
        <ele>23</ele>
        <time>2021-01-01T10:55:49Z</time>
      </trkpt>
      <trkpt lat="43.5594" lon="3.82766">
        <ele>24</ele>
        <time>2021-01-01T10:55:50Z</time>
      </trkpt>
      <trkpt lat="43.55945" lon="3.82771">
        <ele>24</ele>
        <time>2021-01-01T10:55:51Z</time>
      </trkpt>
      <trkpt lat="43.55949" lon="3.82775">
        <ele>24</ele>
        <time>2021-01-01T10:55:52Z</time>
      </trkpt>
      <trkpt lat="43.55956" lon="3.82782">
        <ele>25</ele>
        <time>2021-01-01T10:55:54Z</time>
      </trkpt>
      <trkpt lat="43.55959" lon="3.82788">
        <ele>25</ele>
        <time>2021-01-01T10:55:56Z</time>
      </trkpt>
      <trkpt lat="43.55962" lon="3.82794">
        <ele>25</ele>
        <time>2021-01-01T10:55:58Z</time>
      </trkpt>
      <trkpt lat="43.5596" lon="3.82802">
        <ele>25</ele>
        <time>2021-01-01T10:56:00Z</time>
      </trkpt>
      <trkpt lat="43.55956" lon="3.82809">
        <ele>26</ele>
        <time>2021-01-01T10:56:02Z</time>
      </trkpt>
      <trkpt lat="43.55953" lon="3.82814">
        <ele>26</ele>
        <time>2021-01-01T10:56:04Z</time>
      </trkpt>
      <trkpt lat="43.55949" lon="3.8282">
        <ele>26</ele>
        <time>2021-01-01T10:56:06Z</time>
      </trkpt>
      <trkpt lat="43.55946" lon="3.82828">
        <ele>26</ele>
        <time>2021-01-01T10:56:08Z</time>
      </trkpt>
      <trkpt lat="43.55945" lon="3.82835">
        <ele>27</ele>
        <time>2021-01-01T10:56:10Z</time>
      </trkpt>
      <trkpt lat="43.55945" lon="3.82842">
        <ele>28</ele>
        <time>2021-01-01T10:56:12Z</time>
      </trkpt>
      <trkpt lat="43.55944" lon="3.82848">
        <ele>29</ele>
        <time>2021-01-01T10:56:14Z</time>
      </trkpt>
      <trkpt lat="43.55943" lon="3.82855">
        <ele>29</ele>
        <time>2021-01-01T10:56:16Z</time>
      </trkpt>
      <trkpt lat="43.55943" lon="3.82864">
        <ele>30</ele>
        <time>2021-01-01T10:56:19Z</time>
      </trkpt>
      <trkpt lat="43.55944" lon="3.82872">
        <ele>30</ele>
        <time>2021-01-01T10:56:22Z</time>
      </trkpt>
      <trkpt lat="43.55945" lon="3.8288">
        <ele>31</ele>
        <time>2021-01-01T10:56:25Z</time>
      </trkpt>
      <trkpt lat="43.55948" lon="3.82888">
        <ele>31</ele>
        <time>2021-01-01T10:56:28Z</time>
      </trkpt>
      <trkpt lat="43.55951" lon="3.82896">
        <ele>32</ele>
        <time>2021-01-01T10:56:31Z</time>
      </trkpt>
      <trkpt lat="43.55956" lon="3.82901">
        <ele>32</ele>
        <time>2021-01-01T10:56:34Z</time>
      </trkpt>
      <trkpt lat="43.5596" lon="3.82906">
        <ele>33</ele>
        <time>2021-01-01T10:56:37Z</time>
      </trkpt>
      <trkpt lat="43.55965" lon="3.8291">
        <ele>34</ele>
        <time>2021-01-01T10:56:40Z</time>
      </trkpt>
      <trkpt lat="43.5597" lon="3.82914">
        <ele>34</ele>
        <time>2021-01-01T10:56:43Z</time>
      </trkpt>
      <trkpt lat="43.55976" lon="3.82918">
        <ele>35</ele>
        <time>2021-01-01T10:56:46Z</time>
      </trkpt>
      <trkpt lat="43.55981" lon="3.82922">
        <ele>36</ele>
        <time>2021-01-01T10:56:49Z</time>
      </trkpt>
      <trkpt lat="43.55986" lon="3.82924">
        <ele>36</ele>
        <time>2021-01-01T10:56:52Z</time>
      </trkpt>
      <trkpt lat="43.55992" lon="3.82927">
        <ele>37</ele>
        <time>2021-01-01T10:56:55Z</time>
      </trkpt>
      <trkpt lat="43.55998" lon="3.8293">
        <ele>37</ele>
        <time>2021-01-01T10:56:58Z</time>
      </trkpt>
      <trkpt lat="43.56002" lon="3.82932">
        <ele>38</ele>
        <time>2021-01-01T10:57:01Z</time>
      </trkpt>
      <trkpt lat="43.56007" lon="3.82935">
        <ele>39</ele>
        <time>2021-01-01T10:57:04Z</time>
      </trkpt>
      <trkpt lat="43.56013" lon="3.8294">
        <ele>39</ele>
        <time>2021-01-01T10:57:07Z</time>
      </trkpt>
      <trkpt lat="43.56018" lon="3.82943">
        <ele>39</ele>
        <time>2021-01-01T10:57:10Z</time>
      </trkpt>
      <trkpt lat="43.56022" lon="3.82947">
        <ele>39</ele>
        <time>2021-01-01T10:57:13Z</time>
      </trkpt>
      <trkpt lat="43.56027" lon="3.82951">
        <ele>39</ele>
        <time>2021-01-01T10:57:16Z</time>
      </trkpt>
      <trkpt lat="43.56031" lon="3.82955">
        <ele>38</ele>
        <time>2021-01-01T10:57:19Z</time>
      </trkpt>
      <trkpt lat="43.56037" lon="3.82961">
        <ele>38</ele>
        <time>2021-01-01T10:57:22Z</time>
      </trkpt>
      <trkpt lat="43.56041" lon="3.82965">
        <ele>38</ele>
        <time>2021-01-01T10:57:24Z</time>
      </trkpt>
      <trkpt lat="43.56044" lon="3.8297">
        <ele>38</ele>
        <time>2021-01-01T10:57:26Z</time>
      </trkpt>
      <trkpt lat="43.56049" lon="3.82976">
        <ele>39</ele>
        <time>2021-01-01T10:57:28Z</time>
      </trkpt>
      <trkpt lat="43.56053" lon="3.82983">
        <ele>39</ele>
        <time>2021-01-01T10:57:30Z</time>
      </trkpt>
      <trkpt lat="43.56058" lon="3.82991">
        <ele>39</ele>
        <time>2021-01-01T10:57:32Z</time>
      </trkpt>
      <trkpt lat="43.56063" lon="3.83001">
        <ele>39</ele>
        <time>2021-01-01T10:57:34Z</time>
      </trkpt>
      <trkpt lat="43.56068" lon="3.83011">
        <ele>39</ele>
        <time>2021-01-01T10:57:36Z</time>
      </trkpt>
      <trkpt lat="43.56072" lon="3.83017">
        <ele>39</ele>
        <time>2021-01-01T10:57:37Z</time>
      </trkpt>
      <trkpt lat="43.56075" lon="3.83023">
        <ele>38</ele>
        <time>2021-01-01T10:57:38Z</time>
      </trkpt>
      <trkpt lat="43.56078" lon="3.83031">
        <ele>37</ele>
        <time>2021-01-01T10:57:39Z</time>
      </trkpt>
      <trkpt lat="43.56082" lon="3.83039">
        <ele>36</ele>
        <time>2021-01-01T10:57:40Z</time>
      </trkpt>
      <trkpt lat="43.56085" lon="3.83048">
        <ele>36</ele>
        <time>2021-01-01T10:57:41Z</time>
      </trkpt>
      <trkpt lat="43.56089" lon="3.83058">
        <ele>35</ele>
        <time>2021-01-01T10:57:42Z</time>
      </trkpt>
      <trkpt lat="43.56092" lon="3.83069">
        <ele>35</ele>
        <time>2021-01-01T10:57:43Z</time>
      </trkpt>
      <trkpt lat="43.56096" lon="3.83081">
        <ele>35</ele>
        <time>2021-01-01T10:57:44Z</time>
      </trkpt>
      <trkpt lat="43.561" lon="3.83092">
        <ele>34</ele>
        <time>2021-01-01T10:57:45Z</time>
      </trkpt>
      <trkpt lat="43.56104" lon="3.83106">
        <ele>33</ele>
        <time>2021-01-01T10:57:46Z</time>
      </trkpt>
      <trkpt lat="43.56109" lon="3.83119">
        <ele>33</ele>
        <time>2021-01-01T10:57:47Z</time>
      </trkpt>
      <trkpt lat="43.56112" lon="3.83132">
        <ele>32</ele>
        <time>2021-01-01T10:57:48Z</time>
      </trkpt>
      <trkpt lat="43.56116" lon="3.83145">
        <ele>32</ele>
        <time>2021-01-01T10:57:49Z</time>
      </trkpt>
      <trkpt lat="43.5612" lon="3.83159">
        <ele>32</ele>
        <time>2021-01-01T10:57:50Z</time>
      </trkpt>
      <trkpt lat="43.56124" lon="3.83172">
        <ele>32</ele>
        <time>2021-01-01T10:57:51Z</time>
      </trkpt>
      <trkpt lat="43.56128" lon="3.83185">
        <ele>33</ele>
        <time>2021-01-01T10:57:52Z</time>
      </trkpt>
      <trkpt lat="43.56131" lon="3.83198">
        <ele>33</ele>
        <time>2021-01-01T10:57:53Z</time>
      </trkpt>
      <trkpt lat="43.56136" lon="3.83209">
        <ele>33</ele>
        <time>2021-01-01T10:57:54Z</time>
      </trkpt>
      <trkpt lat="43.56139" lon="3.8322">
        <ele>33</ele>
        <time>2021-01-01T10:57:55Z</time>
      </trkpt>
      <trkpt lat="43.56145" lon="3.83229">
        <ele>34</ele>
        <time>2021-01-01T10:57:56Z</time>
      </trkpt>
      <trkpt lat="43.5615" lon="3.83236">
        <ele>34</ele>
        <time>2021-01-01T10:57:57Z</time>
      </trkpt>
      <trkpt lat="43.56157" lon="3.83242">
        <ele>35</ele>
        <time>2021-01-01T10:57:58Z</time>
      </trkpt>
      <trkpt lat="43.56164" lon="3.83245">
        <ele>35</ele>
        <time>2021-01-01T10:57:59Z</time>
      </trkpt>
      <trkpt lat="43.5617" lon="3.83248">
        <ele>35</ele>
        <time>2021-01-01T10:58:00Z</time>
      </trkpt>
      <trkpt lat="43.56176" lon="3.8325">
        <ele>36</ele>
        <time>2021-01-01T10:58:01Z</time>
      </trkpt>
      <trkpt lat="43.56183" lon="3.83253">
        <ele>36</ele>
        <time>2021-01-01T10:58:02Z</time>
      </trkpt>
      <trkpt lat="43.56189" lon="3.83254">
        <ele>36</ele>
        <time>2021-01-01T10:58:03Z</time>
      </trkpt>
      <trkpt lat="43.56193" lon="3.83256">
        <ele>36</ele>
        <time>2021-01-01T10:58:04Z</time>
      </trkpt>
      <trkpt lat="43.56198" lon="3.83257">
        <ele>35</ele>
        <time>2021-01-01T10:58:05Z</time>
      </trkpt>
      <trkpt lat="43.56204" lon="3.83259">
        <ele>35</ele>
        <time>2021-01-01T10:58:06Z</time>
      </trkpt>
      <trkpt lat="43.56208" lon="3.83261">
        <ele>35</ele>
        <time>2021-01-01T10:58:07Z</time>
      </trkpt>
      <trkpt lat="43.56213" lon="3.83263">
        <ele>35</ele>
        <time>2021-01-01T10:58:08Z</time>
      </trkpt>
      <trkpt lat="43.56218" lon="3.83265">
        <ele>35</ele>
        <time>2021-01-01T10:58:09Z</time>
      </trkpt>
      <trkpt lat="43.56223" lon="3.83268">
        <ele>35</ele>
        <time>2021-01-01T10:58:11Z</time>
      </trkpt>
      <trkpt lat="43.56229" lon="3.8327">
        <ele>35</ele>
        <time>2021-01-01T10:58:13Z</time>
      </trkpt>
      <trkpt lat="43.56225" lon="3.83265">
        <ele>35</ele>
        <time>2021-01-01T10:58:18Z</time>
      </trkpt>
      <trkpt lat="43.56217" lon="3.83266">
        <ele>34</ele>
        <time>2021-01-01T10:58:20Z</time>
      </trkpt>
      <trkpt lat="43.5621" lon="3.83262">
        <ele>34</ele>
        <time>2021-01-01T10:58:22Z</time>
      </trkpt>
      <trkpt lat="43.56202" lon="3.83259">
        <ele>34</ele>
        <time>2021-01-01T10:58:24Z</time>
      </trkpt>
      <trkpt lat="43.56196" lon="3.83257">
        <ele>33</ele>
        <time>2021-01-01T10:58:25Z</time>
      </trkpt>
      <trkpt lat="43.56191" lon="3.83256">
        <ele>33</ele>
        <time>2021-01-01T10:58:26Z</time>
      </trkpt>
      <trkpt lat="43.56185" lon="3.83254">
        <ele>33</ele>
        <time>2021-01-01T10:58:27Z</time>
      </trkpt>
      <trkpt lat="43.56179" lon="3.83253">
        <ele>33</ele>
        <time>2021-01-01T10:58:28Z</time>
      </trkpt>
      <trkpt lat="43.56175" lon="3.83251">
        <ele>33</ele>
        <time>2021-01-01T10:58:29Z</time>
      </trkpt>
      <trkpt lat="43.5617" lon="3.8325">
        <ele>33</ele>
        <time>2021-01-01T10:58:30Z</time>
      </trkpt>
      <trkpt lat="43.56165" lon="3.83252">
        <ele>33</ele>
        <time>2021-01-01T10:58:31Z</time>
      </trkpt>
      <trkpt lat="43.56162" lon="3.83257">
        <ele>33</ele>
        <time>2021-01-01T10:58:32Z</time>
      </trkpt>
      <trkpt lat="43.56159" lon="3.83263">
        <ele>33</ele>
        <time>2021-01-01T10:58:33Z</time>
      </trkpt>
      <trkpt lat="43.5616" lon="3.83275">
        <ele>33</ele>
        <time>2021-01-01T10:58:35Z</time>
      </trkpt>
      <trkpt lat="43.56164" lon="3.83284">
        <ele>33</ele>
        <time>2021-01-01T10:58:37Z</time>
      </trkpt>
      <trkpt lat="43.56169" lon="3.83293">
        <ele>33</ele>
        <time>2021-01-01T10:58:39Z</time>
      </trkpt>
      <trkpt lat="43.56173" lon="3.83302">
        <ele>33</ele>
        <time>2021-01-01T10:58:41Z</time>
      </trkpt>
      <trkpt lat="43.56179" lon="3.8331">
        <ele>33</ele>
        <time>2021-01-01T10:58:43Z</time>
      </trkpt>
      <trkpt lat="43.56184" lon="3.83316">
        <ele>33</ele>
        <time>2021-01-01T10:58:45Z</time>
      </trkpt>
      <trkpt lat="43.56191" lon="3.83323">
        <ele>34</ele>
        <time>2021-01-01T10:58:48Z</time>
      </trkpt>
      <trkpt lat="43.56198" lon="3.83331">
        <ele>34</ele>
        <time>2021-01-01T10:58:49Z</time>
      </trkpt>
      <trkpt lat="43.56204" lon="3.83339">
        <ele>34</ele>
        <time>2021-01-01T10:58:51Z</time>
      </trkpt>
      <trkpt lat="43.56209" lon="3.83343">
        <ele>34</ele>
        <time>2021-01-01T10:58:52Z</time>
      </trkpt>
      <trkpt lat="43.56213" lon="3.83346">
        <ele>34</ele>
        <time>2021-01-01T10:58:53Z</time>
      </trkpt>
      <trkpt lat="43.56217" lon="3.83349">
        <ele>34</ele>
        <time>2021-01-01T10:58:54Z</time>
      </trkpt>
      <trkpt lat="43.56224" lon="3.83356">
        <ele>35</ele>
        <time>2021-01-01T10:58:56Z</time>
      </trkpt>
      <trkpt lat="43.56231" lon="3.83363">
        <ele>35</ele>
        <time>2021-01-01T10:58:58Z</time>
      </trkpt>
      <trkpt lat="43.56238" lon="3.83368">
        <ele>35</ele>
        <time>2021-01-01T10:59:00Z</time>
      </trkpt>
      <trkpt lat="43.56245" lon="3.83374">
        <ele>35</ele>
        <time>2021-01-01T10:59:02Z</time>
      </trkpt>
      <trkpt lat="43.56251" lon="3.8338">
        <ele>36</ele>
        <time>2021-01-01T10:59:04Z</time>
      </trkpt>
      <trkpt lat="43.56257" lon="3.83386">
        <ele>36</ele>
        <time>2021-01-01T10:59:06Z</time>
      </trkpt>
      <trkpt lat="43.56261" lon="3.83392">
        <ele>36</ele>
        <time>2021-01-01T10:59:08Z</time>
      </trkpt>
      <trkpt lat="43.56264" lon="3.83398">
        <ele>36</ele>
        <time>2021-01-01T10:59:11Z</time>
      </trkpt>
      <trkpt lat="43.56261" lon="3.83404">
        <ele>35</ele>
        <time>2021-01-01T10:59:13Z</time>
      </trkpt>
      <trkpt lat="43.56254" lon="3.83403">
        <ele>35</ele>
        <time>2021-01-01T10:59:15Z</time>
      </trkpt>
      <trkpt lat="43.56247" lon="3.83399">
        <ele>34</ele>
        <time>2021-01-01T10:59:17Z</time>
      </trkpt>
      <trkpt lat="43.56243" lon="3.83398">
        <ele>34</ele>
        <time>2021-01-01T10:59:19Z</time>
      </trkpt>
      <trkpt lat="43.56237" lon="3.83396">
        <ele>34</ele>
        <time>2021-01-01T10:59:21Z</time>
      </trkpt>
      <trkpt lat="43.56232" lon="3.83396">
        <ele>33</ele>
        <time>2021-01-01T10:59:23Z</time>
      </trkpt>
      <trkpt lat="43.56226" lon="3.83396">
        <ele>33</ele>
        <time>2021-01-01T10:59:26Z</time>
      </trkpt>
      <trkpt lat="43.56221" lon="3.83393">
        <ele>33</ele>
        <time>2021-01-01T10:59:29Z</time>
      </trkpt>
      <trkpt lat="43.56215" lon="3.83388">
        <ele>33</ele>
        <time>2021-01-01T10:59:31Z</time>
      </trkpt>
      <trkpt lat="43.56207" lon="3.83386">
        <ele>33</ele>
        <time>2021-01-01T10:59:32Z</time>
      </trkpt>
      <trkpt lat="43.56201" lon="3.83385">
        <ele>33</ele>
        <time>2021-01-01T10:59:33Z</time>
      </trkpt>
      <trkpt lat="43.56196" lon="3.83384">
        <ele>33</ele>
        <time>2021-01-01T10:59:34Z</time>
      </trkpt>
      <trkpt lat="43.56191" lon="3.83382">
        <ele>32</ele>
        <time>2021-01-01T10:59:35Z</time>
      </trkpt>
      <trkpt lat="43.56186" lon="3.83379">
        <ele>32</ele>
        <time>2021-01-01T10:59:36Z</time>
      </trkpt>
      <trkpt lat="43.56182" lon="3.83378">
        <ele>32</ele>
        <time>2021-01-01T10:59:37Z</time>
      </trkpt>
      <trkpt lat="43.56176" lon="3.83378">
        <ele>31</ele>
        <time>2021-01-01T10:59:38Z</time>
      </trkpt>
      <trkpt lat="43.5617" lon="3.83376">
        <ele>31</ele>
        <time>2021-01-01T10:59:39Z</time>
      </trkpt>
      <trkpt lat="43.56165" lon="3.83376">
        <ele>31</ele>
        <time>2021-01-01T10:59:40Z</time>
      </trkpt>
      <trkpt lat="43.5616" lon="3.83374">
        <ele>30</ele>
        <time>2021-01-01T10:59:41Z</time>
      </trkpt>
      <trkpt lat="43.56155" lon="3.83374">
        <ele>30</ele>
        <time>2021-01-01T10:59:42Z</time>
      </trkpt>
      <trkpt lat="43.56149" lon="3.83372">
        <ele>29</ele>
        <time>2021-01-01T10:59:43Z</time>
      </trkpt>
      <trkpt lat="43.56144" lon="3.8337">
        <ele>29</ele>
        <time>2021-01-01T10:59:44Z</time>
      </trkpt>
      <trkpt lat="43.56139" lon="3.83369">
        <ele>29</ele>
        <time>2021-01-01T10:59:45Z</time>
      </trkpt>
      <trkpt lat="43.56133" lon="3.83367">
        <ele>29</ele>
        <time>2021-01-01T10:59:46Z</time>
      </trkpt>
      <trkpt lat="43.56128" lon="3.83365">
        <ele>29</ele>
        <time>2021-01-01T10:59:47Z</time>
      </trkpt>
      <trkpt lat="43.56123" lon="3.83362">
        <ele>29</ele>
        <time>2021-01-01T10:59:48Z</time>
      </trkpt>
      <trkpt lat="43.56118" lon="3.83359">
        <ele>29</ele>
        <time>2021-01-01T10:59:49Z</time>
      </trkpt>
      <trkpt lat="43.56112" lon="3.83357">
        <ele>29</ele>
        <time>2021-01-01T10:59:50Z</time>
      </trkpt>
      <trkpt lat="43.56107" lon="3.83354">
        <ele>29</ele>
        <time>2021-01-01T10:59:51Z</time>
      </trkpt>
      <trkpt lat="43.56101" lon="3.8335">
        <ele>29</ele>
        <time>2021-01-01T10:59:52Z</time>
      </trkpt>
      <trkpt lat="43.56097" lon="3.83346">
        <ele>29</ele>
        <time>2021-01-01T10:59:53Z</time>
      </trkpt>
      <trkpt lat="43.56092" lon="3.83342">
        <ele>29</ele>
        <time>2021-01-01T10:59:54Z</time>
      </trkpt>
      <trkpt lat="43.56087" lon="3.83339">
        <ele>29</ele>
        <time>2021-01-01T10:59:55Z</time>
      </trkpt>
      <trkpt lat="43.56082" lon="3.83335">
        <ele>29</ele>
        <time>2021-01-01T10:59:56Z</time>
      </trkpt>
      <trkpt lat="43.56077" lon="3.83333">
        <ele>29</ele>
        <time>2021-01-01T10:59:57Z</time>
      </trkpt>
      <trkpt lat="43.56072" lon="3.83332">
        <ele>29</ele>
        <time>2021-01-01T10:59:58Z</time>
      </trkpt>
      <trkpt lat="43.56067" lon="3.83331">
        <ele>29</ele>
        <time>2021-01-01T10:59:59Z</time>
      </trkpt>
      <trkpt lat="43.56062" lon="3.83328">
        <ele>29</ele>
        <time>2021-01-01T11:00:00Z</time>
      </trkpt>
      <trkpt lat="43.56057" lon="3.83325">
        <ele>29</ele>
        <time>2021-01-01T11:00:01Z</time>
      </trkpt>
      <trkpt lat="43.56052" lon="3.83322">
        <ele>28</ele>
        <time>2021-01-01T11:00:02Z</time>
      </trkpt>
      <trkpt lat="43.56047" lon="3.83318">
        <ele>28</ele>
        <time>2021-01-01T11:00:03Z</time>
      </trkpt>
      <trkpt lat="43.56041" lon="3.83318">
        <ele>28</ele>
        <time>2021-01-01T11:00:05Z</time>
      </trkpt>
      <trkpt lat="43.56037" lon="3.83315">
        <ele>27</ele>
        <time>2021-01-01T11:00:12Z</time>
      </trkpt>
      <trkpt lat="43.56033" lon="3.83315">
        <ele>27</ele>
        <time>2021-01-01T11:00:15Z</time>
      </trkpt>
      <trkpt lat="43.56028" lon="3.83314">
        <ele>26</ele>
        <time>2021-01-01T11:00:17Z</time>
      </trkpt>
      <trkpt lat="43.56023" lon="3.83313">
        <ele>25</ele>
        <time>2021-01-01T11:00:19Z</time>
      </trkpt>
      <trkpt lat="43.56018" lon="3.83309">
        <ele>25</ele>
        <time>2021-01-01T11:00:22Z</time>
      </trkpt>
      <trkpt lat="43.56012" lon="3.83306">
        <ele>25</ele>
        <time>2021-01-01T11:00:26Z</time>
      </trkpt>
      <trkpt lat="43.55998" lon="3.83304">
        <ele>24</ele>
        <time>2021-01-01T11:00:28Z</time>
      </trkpt>
      <trkpt lat="43.55993" lon="3.83305">
        <ele>24</ele>
        <time>2021-01-01T11:00:29Z</time>
      </trkpt>
      <trkpt lat="43.55989" lon="3.83304">
        <ele>24</ele>
        <time>2021-01-01T11:00:30Z</time>
      </trkpt>
      <trkpt lat="43.55983" lon="3.83305">
        <ele>23</ele>
        <time>2021-01-01T11:00:31Z</time>
      </trkpt>
      <trkpt lat="43.55978" lon="3.83304">
        <ele>23</ele>
        <time>2021-01-01T11:00:32Z</time>
      </trkpt>
      <trkpt lat="43.55973" lon="3.83306">
        <ele>23</ele>
        <time>2021-01-01T11:00:33Z</time>
      </trkpt>
      <trkpt lat="43.55969" lon="3.83307">
        <ele>23</ele>
        <time>2021-01-01T11:00:34Z</time>
      </trkpt>
      <trkpt lat="43.55964" lon="3.83308">
        <ele>23</ele>
        <time>2021-01-01T11:00:35Z</time>
      </trkpt>
      <trkpt lat="43.55954" lon="3.83311">
        <ele>23</ele>
        <time>2021-01-01T11:00:37Z</time>
      </trkpt>
      <trkpt lat="43.5595" lon="3.83311">
        <ele>23</ele>
        <time>2021-01-01T11:00:38Z</time>
      </trkpt>
      <trkpt lat="43.55944" lon="3.83312">
        <ele>23</ele>
        <time>2021-01-01T11:00:39Z</time>
      </trkpt>
      <trkpt lat="43.5594" lon="3.83313">
        <ele>23</ele>
        <time>2021-01-01T11:00:40Z</time>
      </trkpt>
      <trkpt lat="43.55932" lon="3.83313">
        <ele>22</ele>
        <time>2021-01-01T11:00:42Z</time>
      </trkpt>
      <trkpt lat="43.55922" lon="3.83312">
        <ele>22</ele>
        <time>2021-01-01T11:00:44Z</time>
      </trkpt>
      <trkpt lat="43.55917" lon="3.83313">
        <ele>22</ele>
        <time>2021-01-01T11:00:45Z</time>
      </trkpt>
      <trkpt lat="43.55912" lon="3.83313">
        <ele>22</ele>
        <time>2021-01-01T11:00:46Z</time>
      </trkpt>
      <trkpt lat="43.55907" lon="3.83313">
        <ele>22</ele>
        <time>2021-01-01T11:00:47Z</time>
      </trkpt>
      <trkpt lat="43.55901" lon="3.83314">
        <ele>22</ele>
        <time>2021-01-01T11:00:48Z</time>
      </trkpt>
      <trkpt lat="43.55896" lon="3.83315">
        <ele>23</ele>
        <time>2021-01-01T11:00:49Z</time>
      </trkpt>
      <trkpt lat="43.55891" lon="3.83315">
        <ele>22</ele>
        <time>2021-01-01T11:00:50Z</time>
      </trkpt>
      <trkpt lat="43.55886" lon="3.83315">
        <ele>22</ele>
        <time>2021-01-01T11:00:51Z</time>
      </trkpt>
      <trkpt lat="43.55881" lon="3.83317">
        <ele>22</ele>
        <time>2021-01-01T11:00:52Z</time>
      </trkpt>
      <trkpt lat="43.55876" lon="3.83318">
        <ele>22</ele>
        <time>2021-01-01T11:00:53Z</time>
      </trkpt>
      <trkpt lat="43.5587" lon="3.8332">
        <ele>21</ele>
        <time>2021-01-01T11:00:55Z</time>
      </trkpt>
      <trkpt lat="43.55865" lon="3.83321">
        <ele>21</ele>
        <time>2021-01-01T11:00:56Z</time>
      </trkpt>
      <trkpt lat="43.55857" lon="3.83325">
        <ele>20</ele>
        <time>2021-01-01T11:00:58Z</time>
      </trkpt>
      <trkpt lat="43.55852" lon="3.83325">
        <ele>20</ele>
        <time>2021-01-01T11:00:59Z</time>
      </trkpt>
      <trkpt lat="43.55847" lon="3.83326">
        <ele>19</ele>
        <time>2021-01-01T11:01:00Z</time>
      </trkpt>
      <trkpt lat="43.55841" lon="3.83328">
        <ele>20</ele>
        <time>2021-01-01T11:01:01Z</time>
      </trkpt>
      <trkpt lat="43.55836" lon="3.83327">
        <ele>20</ele>
        <time>2021-01-01T11:01:02Z</time>
      </trkpt>
      <trkpt lat="43.55831" lon="3.83326">
        <ele>20</ele>
        <time>2021-01-01T11:01:03Z</time>
      </trkpt>
      <trkpt lat="43.55825" lon="3.83325">
        <ele>21</ele>
        <time>2021-01-01T11:01:04Z</time>
      </trkpt>
      <trkpt lat="43.55821" lon="3.83326">
        <ele>21</ele>
        <time>2021-01-01T11:01:05Z</time>
      </trkpt>
      <trkpt lat="43.55816" lon="3.83326">
        <ele>21</ele>
        <time>2021-01-01T11:01:06Z</time>
      </trkpt>
      <trkpt lat="43.55811" lon="3.83327">
        <ele>21</ele>
        <time>2021-01-01T11:01:07Z</time>
      </trkpt>
      <trkpt lat="43.55806" lon="3.83326">
        <ele>22</ele>
        <time>2021-01-01T11:01:08Z</time>
      </trkpt>
      <trkpt lat="43.55801" lon="3.83326">
        <ele>22</ele>
        <time>2021-01-01T11:01:09Z</time>
      </trkpt>
      <trkpt lat="43.55796" lon="3.83326">
        <ele>22</ele>
        <time>2021-01-01T11:01:10Z</time>
      </trkpt>
      <trkpt lat="43.55792" lon="3.83325">
        <ele>22</ele>
        <time>2021-01-01T11:01:11Z</time>
      </trkpt>
      <trkpt lat="43.55787" lon="3.83324">
        <ele>22</ele>
        <time>2021-01-01T11:01:12Z</time>
      </trkpt>
      <trkpt lat="43.55778" lon="3.83321">
        <ele>23</ele>
        <time>2021-01-01T11:01:14Z</time>
      </trkpt>
      <trkpt lat="43.55773" lon="3.83319">
        <ele>23</ele>
        <time>2021-01-01T11:01:15Z</time>
      </trkpt>
      <trkpt lat="43.55765" lon="3.83318">
        <ele>23</ele>
        <time>2021-01-01T11:01:17Z</time>
      </trkpt>
      <trkpt lat="43.5576" lon="3.83318">
        <ele>22</ele>
        <time>2021-01-01T11:01:18Z</time>
      </trkpt>
      <trkpt lat="43.55752" lon="3.83319">
        <ele>22</ele>
        <time>2021-01-01T11:01:20Z</time>
      </trkpt>
      <trkpt lat="43.55746" lon="3.83322">
        <ele>22</ele>
        <time>2021-01-01T11:01:22Z</time>
      </trkpt>
      <trkpt lat="43.55741" lon="3.83329">
        <ele>22</ele>
        <time>2021-01-01T11:01:24Z</time>
      </trkpt>
      <trkpt lat="43.55736" lon="3.83332">
        <ele>22</ele>
        <time>2021-01-01T11:01:26Z</time>
      </trkpt>
      <trkpt lat="43.55729" lon="3.83335">
        <ele>21</ele>
        <time>2021-01-01T11:01:29Z</time>
      </trkpt>
      <trkpt lat="43.55721" lon="3.8334">
        <ele>21</ele>
        <time>2021-01-01T11:01:30Z</time>
      </trkpt>
      <trkpt lat="43.55715" lon="3.83348">
        <ele>21</ele>
        <time>2021-01-01T11:01:32Z</time>
      </trkpt>
      <trkpt lat="43.55711" lon="3.83355">
        <ele>20</ele>
        <time>2021-01-01T11:01:34Z</time>
      </trkpt>
      <trkpt lat="43.55706" lon="3.8336">
        <ele>20</ele>
        <time>2021-01-01T11:01:36Z</time>
      </trkpt>
      <trkpt lat="43.55701" lon="3.83364">
        <ele>19</ele>
        <time>2021-01-01T11:01:38Z</time>
      </trkpt>
      <trkpt lat="43.55697" lon="3.83369">
        <ele>19</ele>
        <time>2021-01-01T11:01:41Z</time>
      </trkpt>
      <trkpt lat="43.55694" lon="3.83374">
        <ele>19</ele>
        <time>2021-01-01T11:01:43Z</time>
      </trkpt>
      <trkpt lat="43.55688" lon="3.83381">
        <ele>19</ele>
        <time>2021-01-01T11:01:45Z</time>
      </trkpt>
      <trkpt lat="43.55684" lon="3.83385">
        <ele>19</ele>
        <time>2021-01-01T11:01:46Z</time>
      </trkpt>
      <trkpt lat="43.5568" lon="3.83391">
        <ele>19</ele>
        <time>2021-01-01T11:01:48Z</time>
      </trkpt>
      <trkpt lat="43.55676" lon="3.83396">
        <ele>19</ele>
        <time>2021-01-01T11:01:50Z</time>
      </trkpt>
      <trkpt lat="43.55671" lon="3.83399">
        <ele>18</ele>
        <time>2021-01-01T11:01:53Z</time>
      </trkpt>
      <trkpt lat="43.55669" lon="3.83406">
        <ele>18</ele>
        <time>2021-01-01T11:01:57Z</time>
      </trkpt>
      <trkpt lat="43.55671" lon="3.83412">
        <ele>18</ele>
        <time>2021-01-01T11:02:01Z</time>
      </trkpt>
      <trkpt lat="43.55673" lon="3.8342">
        <ele>17</ele>
        <time>2021-01-01T11:02:04Z</time>
      </trkpt>
      <trkpt lat="43.55674" lon="3.83426">
        <ele>16</ele>
        <time>2021-01-01T11:02:06Z</time>
      </trkpt>
      <trkpt lat="43.55676" lon="3.83434">
        <ele>16</ele>
        <time>2021-01-01T11:02:09Z</time>
      </trkpt>
      <trkpt lat="43.55677" lon="3.83443">
        <ele>15</ele>
        <time>2021-01-01T11:02:12Z</time>
      </trkpt>
      <trkpt lat="43.55676" lon="3.8345">
        <ele>14</ele>
        <time>2021-01-01T11:02:15Z</time>
      </trkpt>
      <trkpt lat="43.55673" lon="3.83455">
        <ele>14</ele>
        <time>2021-01-01T11:02:22Z</time>
      </trkpt>
      <trkpt lat="43.55672" lon="3.83462">
        <ele>15</ele>
        <time>2021-01-01T11:02:28Z</time>
      </trkpt>
      <trkpt lat="43.55674" lon="3.83469">
        <ele>15</ele>
        <time>2021-01-01T11:02:34Z</time>
      </trkpt>
      <trkpt lat="43.55673" lon="3.83476">
        <ele>16</ele>
        <time>2021-01-01T11:02:56Z</time>
      </trkpt>
      <trkpt lat="43.55674" lon="3.83481">
        <ele>17</ele>
        <time>2021-01-01T11:02:59Z</time>
      </trkpt>
      <trkpt lat="43.55676" lon="3.83488">
        <ele>17</ele>
        <time>2021-01-01T11:03:02Z</time>
      </trkpt>
      <trkpt lat="43.55678" lon="3.83494">
        <ele>17</ele>
        <time>2021-01-01T11:03:05Z</time>
      </trkpt>
      <trkpt lat="43.55678" lon="3.835">
        <ele>17</ele>
        <time>2021-01-01T11:03:08Z</time>
      </trkpt>
      <trkpt lat="43.55678" lon="3.83509">
        <ele>18</ele>
        <time>2021-01-01T11:03:11Z</time>
      </trkpt>
      <trkpt lat="43.55678" lon="3.83516">
        <ele>18</ele>
        <time>2021-01-01T11:03:14Z</time>
      </trkpt>
      <trkpt lat="43.55675" lon="3.83524">
        <ele>19</ele>
        <time>2021-01-01T11:03:17Z</time>
      </trkpt>
      <trkpt lat="43.55672" lon="3.83531">
        <ele>20</ele>
        <time>2021-01-01T11:03:20Z</time>
      </trkpt>
      <trkpt lat="43.55669" lon="3.83538">
        <ele>20</ele>
        <time>2021-01-01T11:03:23Z</time>
      </trkpt>
      <trkpt lat="43.55666" lon="3.83546">
        <ele>21</ele>
        <time>2021-01-01T11:03:26Z</time>
      </trkpt>
      <trkpt lat="43.55666" lon="3.83553">
        <ele>21</ele>
        <time>2021-01-01T11:03:28Z</time>
      </trkpt>
      <trkpt lat="43.55669" lon="3.83561">
        <ele>21</ele>
        <time>2021-01-01T11:03:31Z</time>
      </trkpt>
      <trkpt lat="43.55672" lon="3.83566">
        <ele>22</ele>
        <time>2021-01-01T11:03:34Z</time>
      </trkpt>
      <trkpt lat="43.55672" lon="3.83573">
        <ele>22</ele>
        <time>2021-01-01T11:03:37Z</time>
      </trkpt>
      <trkpt lat="43.55669" lon="3.83582">
        <ele>22</ele>
        <time>2021-01-01T11:03:40Z</time>
      </trkpt>
      <trkpt lat="43.55668" lon="3.83588">
        <ele>23</ele>
        <time>2021-01-01T11:03:42Z</time>
      </trkpt>
      <trkpt lat="43.55668" lon="3.83596">
        <ele>23</ele>
        <time>2021-01-01T11:03:45Z</time>
      </trkpt>
      <trkpt lat="43.55666" lon="3.83602">
        <ele>23</ele>
        <time>2021-01-01T11:03:48Z</time>
      </trkpt>
      <trkpt lat="43.55664" lon="3.8361">
        <ele>23</ele>
        <time>2021-01-01T11:03:51Z</time>
      </trkpt>
      <trkpt lat="43.55662" lon="3.83617">
        <ele>23</ele>
        <time>2021-01-01T11:03:54Z</time>
      </trkpt>
      <trkpt lat="43.55659" lon="3.83622">
        <ele>23</ele>
        <time>2021-01-01T11:03:57Z</time>
      </trkpt>
      <trkpt lat="43.55657" lon="3.83629">
        <ele>23</ele>
        <time>2021-01-01T11:04:00Z</time>
      </trkpt>
      <trkpt lat="43.55658" lon="3.83636">
        <ele>23</ele>
        <time>2021-01-01T11:04:02Z</time>
      </trkpt>
      <trkpt lat="43.55661" lon="3.83643">
        <ele>24</ele>
        <time>2021-01-01T11:04:04Z</time>
      </trkpt>
      <trkpt lat="43.55664" lon="3.8365">
        <ele>24</ele>
        <time>2021-01-01T11:04:07Z</time>
      </trkpt>
      <trkpt lat="43.55668" lon="3.83656">
        <ele>24</ele>
        <time>2021-01-01T11:04:09Z</time>
      </trkpt>
      <trkpt lat="43.55671" lon="3.83662">
        <ele>24</ele>
        <time>2021-01-01T11:04:11Z</time>
      </trkpt>
      <trkpt lat="43.55674" lon="3.83668">
        <ele>24</ele>
        <time>2021-01-01T11:04:13Z</time>
      </trkpt>
      <trkpt lat="43.55676" lon="3.83674">
        <ele>24</ele>
        <time>2021-01-01T11:04:15Z</time>
      </trkpt>
      <trkpt lat="43.55681" lon="3.83682">
        <ele>24</ele>
        <time>2021-01-01T11:04:18Z</time>
      </trkpt>
      <trkpt lat="43.55683" lon="3.83687">
        <ele>25</ele>
        <time>2021-01-01T11:04:20Z</time>
      </trkpt>
      <trkpt lat="43.55686" lon="3.83695">
        <ele>25</ele>
        <time>2021-01-01T11:04:23Z</time>
      </trkpt>
      <trkpt lat="43.55689" lon="3.837">
        <ele>26</ele>
        <time>2021-01-01T11:04:25Z</time>
      </trkpt>
      <trkpt lat="43.55692" lon="3.83706">
        <ele>26</ele>
        <time>2021-01-01T11:04:27Z</time>
      </trkpt>
      <trkpt lat="43.55694" lon="3.83711">
        <ele>26</ele>
        <time>2021-01-01T11:04:29Z</time>
      </trkpt>
      <trkpt lat="43.55698" lon="3.83718">
        <ele>26</ele>
        <time>2021-01-01T11:04:32Z</time>
      </trkpt>
      <trkpt lat="43.55702" lon="3.83725">
        <ele>26</ele>
        <time>2021-01-01T11:04:35Z</time>
      </trkpt>
      <trkpt lat="43.55706" lon="3.83732">
        <ele>27</ele>
        <time>2021-01-01T11:04:38Z</time>
      </trkpt>
      <trkpt lat="43.55708" lon="3.8374">
        <ele>27</ele>
        <time>2021-01-01T11:04:41Z</time>
      </trkpt>
      <trkpt lat="43.55711" lon="3.83745">
        <ele>27</ele>
        <time>2021-01-01T11:04:43Z</time>
      </trkpt>
      <trkpt lat="43.55715" lon="3.83752">
        <ele>28</ele>
        <time>2021-01-01T11:04:46Z</time>
      </trkpt>
      <trkpt lat="43.55717" lon="3.83759">
        <ele>28</ele>
        <time>2021-01-01T11:04:48Z</time>
      </trkpt>
      <trkpt lat="43.55714" lon="3.83767">
        <ele>28</ele>
        <time>2021-01-01T11:04:51Z</time>
      </trkpt>
      <trkpt lat="43.5571" lon="3.83772">
        <ele>28</ele>
        <time>2021-01-01T11:04:53Z</time>
      </trkpt>
      <trkpt lat="43.55705" lon="3.83775">
        <ele>28</ele>
        <time>2021-01-01T11:04:55Z</time>
      </trkpt>
      <trkpt lat="43.557" lon="3.83779">
        <ele>27</ele>
        <time>2021-01-01T11:04:57Z</time>
      </trkpt>
      <trkpt lat="43.55695" lon="3.83784">
        <ele>27</ele>
        <time>2021-01-01T11:04:59Z</time>
      </trkpt>
      <trkpt lat="43.55689" lon="3.83786">
        <ele>27</ele>
        <time>2021-01-01T11:05:01Z</time>
      </trkpt>
      <trkpt lat="43.55682" lon="3.83787">
        <ele>26</ele>
        <time>2021-01-01T11:05:03Z</time>
      </trkpt>
      <trkpt lat="43.55675" lon="3.83789">
        <ele>25</ele>
        <time>2021-01-01T11:05:05Z</time>
      </trkpt>
      <trkpt lat="43.5567" lon="3.83789">
        <ele>25</ele>
        <time>2021-01-01T11:05:07Z</time>
      </trkpt>
      <trkpt lat="43.55664" lon="3.8379">
        <ele>24</ele>
        <time>2021-01-01T11:05:09Z</time>
      </trkpt>
      <trkpt lat="43.55656" lon="3.83789">
        <ele>23</ele>
        <time>2021-01-01T11:05:10Z</time>
      </trkpt>
      <trkpt lat="43.5565" lon="3.83789">
        <ele>23</ele>
        <time>2021-01-01T11:05:12Z</time>
      </trkpt>
      <trkpt lat="43.55642" lon="3.83786">
        <ele>22</ele>
        <time>2021-01-01T11:05:14Z</time>
      </trkpt>
      <trkpt lat="43.55633" lon="3.83785">
        <ele>22</ele>
        <time>2021-01-01T11:05:16Z</time>
      </trkpt>
      <trkpt lat="43.55628" lon="3.83784">
        <ele>21</ele>
        <time>2021-01-01T11:05:17Z</time>
      </trkpt>
      <trkpt lat="43.55621" lon="3.83784">
        <ele>21</ele>
        <time>2021-01-01T11:05:19Z</time>
      </trkpt>
      <trkpt lat="43.55616" lon="3.83788">
        <ele>20</ele>
        <time>2021-01-01T11:05:21Z</time>
      </trkpt>
      <trkpt lat="43.55611" lon="3.83795">
        <ele>20</ele>
        <time>2021-01-01T11:05:23Z</time>
      </trkpt>
      <trkpt lat="43.55607" lon="3.83801">
        <ele>19</ele>
        <time>2021-01-01T11:05:25Z</time>
      </trkpt>
      <trkpt lat="43.55603" lon="3.83806">
        <ele>19</ele>
        <time>2021-01-01T11:05:27Z</time>
      </trkpt>
      <trkpt lat="43.55596" lon="3.83814">
        <ele>18</ele>
        <time>2021-01-01T11:05:29Z</time>
      </trkpt>
      <trkpt lat="43.55592" lon="3.83819">
        <ele>18</ele>
        <time>2021-01-01T11:05:31Z</time>
      </trkpt>
      <trkpt lat="43.55588" lon="3.83822">
        <ele>18</ele>
        <time>2021-01-01T11:05:51Z</time>
      </trkpt>
      <trkpt lat="43.55586" lon="3.83828">
        <ele>17</ele>
        <time>2021-01-01T11:05:55Z</time>
      </trkpt>
      <trkpt lat="43.5559" lon="3.8383">
        <ele>17</ele>
        <time>2021-01-01T11:05:59Z</time>
      </trkpt>
      <trkpt lat="43.55592" lon="3.83824">
        <ele>17</ele>
        <time>2021-01-01T11:06:02Z</time>
      </trkpt>
      <trkpt lat="43.55595" lon="3.83817">
        <ele>16</ele>
        <time>2021-01-01T11:06:05Z</time>
      </trkpt>
      <trkpt lat="43.55599" lon="3.83811">
        <ele>16</ele>
        <time>2021-01-01T11:06:08Z</time>
      </trkpt>
      <trkpt lat="43.55603" lon="3.83806">
        <ele>16</ele>
        <time>2021-01-01T11:06:11Z</time>
      </trkpt>
      <trkpt lat="43.55607" lon="3.83801">
        <ele>16</ele>
        <time>2021-01-01T11:06:14Z</time>
      </trkpt>
      <trkpt lat="43.5561" lon="3.83796">
        <ele>16</ele>
        <time>2021-01-01T11:06:17Z</time>
      </trkpt>
      <trkpt lat="43.55614" lon="3.83791">
        <ele>17</ele>
        <time>2021-01-01T11:06:21Z</time>
      </trkpt>
      <trkpt lat="43.55616" lon="3.83784">
        <ele>18</ele>
        <time>2021-01-01T11:06:25Z</time>
      </trkpt>
      <trkpt lat="43.55621" lon="3.83779">
        <ele>18</ele>
        <time>2021-01-01T11:06:29Z</time>
      </trkpt>
      <trkpt lat="43.55625" lon="3.83781">
        <ele>18</ele>
        <time>2021-01-01T11:06:32Z</time>
      </trkpt>
      <trkpt lat="43.55631" lon="3.83784">
        <ele>19</ele>
        <time>2021-01-01T11:06:35Z</time>
      </trkpt>
      <trkpt lat="43.55636" lon="3.83784">
        <ele>19</ele>
        <time>2021-01-01T11:06:38Z</time>
      </trkpt>
      <trkpt lat="43.55641" lon="3.83785">
        <ele>19</ele>
        <time>2021-01-01T11:06:41Z</time>
      </trkpt>
      <trkpt lat="43.55647" lon="3.83786">
        <ele>19</ele>
        <time>2021-01-01T11:06:44Z</time>
      </trkpt>
      <trkpt lat="43.55652" lon="3.83787">
        <ele>20</ele>
        <time>2021-01-01T11:06:47Z</time>
      </trkpt>
      <trkpt lat="43.55658" lon="3.83789">
        <ele>21</ele>
        <time>2021-01-01T11:06:50Z</time>
      </trkpt>
      <trkpt lat="43.55663" lon="3.83788">
        <ele>21</ele>
        <time>2021-01-01T11:06:53Z</time>
      </trkpt>
      <trkpt lat="43.55668" lon="3.83788">
        <ele>22</ele>
        <time>2021-01-01T11:06:56Z</time>
      </trkpt>
      <trkpt lat="43.55674" lon="3.83789">
        <ele>22</ele>
        <time>2021-01-01T11:06:59Z</time>
      </trkpt>
      <trkpt lat="43.55679" lon="3.83788">
        <ele>23</ele>
        <time>2021-01-01T11:07:02Z</time>
      </trkpt>
      <trkpt lat="43.55684" lon="3.83786">
        <ele>24</ele>
        <time>2021-01-01T11:07:05Z</time>
      </trkpt>
      <trkpt lat="43.55688" lon="3.83789">
        <ele>24</ele>
        <time>2021-01-01T11:07:08Z</time>
      </trkpt>
      <trkpt lat="43.55693" lon="3.8379">
        <ele>24</ele>
        <time>2021-01-01T11:07:12Z</time>
      </trkpt>
      <trkpt lat="43.55697" lon="3.83795">
        <ele>25</ele>
        <time>2021-01-01T11:07:15Z</time>
      </trkpt>
      <trkpt lat="43.55702" lon="3.83797">
        <ele>25</ele>
        <time>2021-01-01T11:07:18Z</time>
      </trkpt>
      <trkpt lat="43.55707" lon="3.838">
        <ele>25</ele>
        <time>2021-01-01T11:07:21Z</time>
      </trkpt>
      <trkpt lat="43.55713" lon="3.83801">
        <ele>25</ele>
        <time>2021-01-01T11:07:24Z</time>
      </trkpt>
      <trkpt lat="43.55719" lon="3.83803">
        <ele>25</ele>
        <time>2021-01-01T11:07:27Z</time>
      </trkpt>
      <trkpt lat="43.55724" lon="3.83806">
        <ele>25</ele>
        <time>2021-01-01T11:07:30Z</time>
      </trkpt>
      <trkpt lat="43.5573" lon="3.83808">
        <ele>25</ele>
        <time>2021-01-01T11:07:33Z</time>
      </trkpt>
      <trkpt lat="43.55735" lon="3.83809">
        <ele>25</ele>
        <time>2021-01-01T11:07:35Z</time>
      </trkpt>
      <trkpt lat="43.5574" lon="3.83809">
        <ele>25</ele>
        <time>2021-01-01T11:07:37Z</time>
      </trkpt>
      <trkpt lat="43.55744" lon="3.83809">
        <ele>25</ele>
        <time>2021-01-01T11:07:39Z</time>
      </trkpt>
      <trkpt lat="43.55751" lon="3.8381">
        <ele>25</ele>
        <time>2021-01-01T11:07:42Z</time>
      </trkpt>
      <trkpt lat="43.55757" lon="3.8381">
        <ele>25</ele>
        <time>2021-01-01T11:07:45Z</time>
      </trkpt>
      <trkpt lat="43.55762" lon="3.8381">
        <ele>25</ele>
        <time>2021-01-01T11:07:47Z</time>
      </trkpt>
      <trkpt lat="43.55767" lon="3.83809">
        <ele>26</ele>
        <time>2021-01-01T11:07:49Z</time>
      </trkpt>
      <trkpt lat="43.55772" lon="3.83807">
        <ele>25</ele>
        <time>2021-01-01T11:07:51Z</time>
      </trkpt>
      <trkpt lat="43.55779" lon="3.83804">
        <ele>25</ele>
        <time>2021-01-01T11:07:53Z</time>
      </trkpt>
      <trkpt lat="43.55784" lon="3.83801">
        <ele>25</ele>
        <time>2021-01-01T11:07:56Z</time>
      </trkpt>
      <trkpt lat="43.55789" lon="3.83798">
        <ele>25</ele>
        <time>2021-01-01T11:07:58Z</time>
      </trkpt>
      <trkpt lat="43.55794" lon="3.83793">
        <ele>25</ele>
        <time>2021-01-01T11:08:00Z</time>
      </trkpt>
      <trkpt lat="43.55799" lon="3.83789">
        <ele>26</ele>
        <time>2021-01-01T11:08:03Z</time>
      </trkpt>
      <trkpt lat="43.55802" lon="3.83784">
        <ele>26</ele>
        <time>2021-01-01T11:08:05Z</time>
      </trkpt>
      <trkpt lat="43.55805" lon="3.83776">
        <ele>26</ele>
        <time>2021-01-01T11:08:08Z</time>
      </trkpt>
      <trkpt lat="43.55807" lon="3.83769">
        <ele>26</ele>
        <time>2021-01-01T11:08:10Z</time>
      </trkpt>
      <trkpt lat="43.55808" lon="3.83762">
        <ele>26</ele>
        <time>2021-01-01T11:08:12Z</time>
      </trkpt>
      <trkpt lat="43.55808" lon="3.83755">
        <ele>26</ele>
        <time>2021-01-01T11:08:14Z</time>
      </trkpt>
      <trkpt lat="43.55808" lon="3.83749">
        <ele>26</ele>
        <time>2021-01-01T11:08:16Z</time>
      </trkpt>
      <trkpt lat="43.55809" lon="3.8374">
        <ele>27</ele>
        <time>2021-01-01T11:08:19Z</time>
      </trkpt>
      <trkpt lat="43.55809" lon="3.83733">
        <ele>27</ele>
        <time>2021-01-01T11:08:21Z</time>
      </trkpt>
      <trkpt lat="43.5581" lon="3.83727">
        <ele>27</ele>
        <time>2021-01-01T11:08:23Z</time>
      </trkpt>
      <trkpt lat="43.55811" lon="3.83721">
        <ele>27</ele>
        <time>2021-01-01T11:08:25Z</time>
      </trkpt>
      <trkpt lat="43.55812" lon="3.83714">
        <ele>27</ele>
        <time>2021-01-01T11:08:27Z</time>
      </trkpt>
      <trkpt lat="43.55813" lon="3.83708">
        <ele>28</ele>
        <time>2021-01-01T11:08:29Z</time>
      </trkpt>
      <trkpt lat="43.55814" lon="3.83701">
        <ele>28</ele>
        <time>2021-01-01T11:08:31Z</time>
      </trkpt>
      <trkpt lat="43.55815" lon="3.83695">
        <ele>28</ele>
        <time>2021-01-01T11:08:33Z</time>
      </trkpt>
      <trkpt lat="43.55818" lon="3.83687">
        <ele>28</ele>
        <time>2021-01-01T11:08:36Z</time>
      </trkpt>
      <trkpt lat="43.55822" lon="3.83684">
        <ele>28</ele>
        <time>2021-01-01T11:08:38Z</time>
      </trkpt>
      <trkpt lat="43.55828" lon="3.83684">
        <ele>28</ele>
        <time>2021-01-01T11:08:40Z</time>
      </trkpt>
      <trkpt lat="43.55833" lon="3.83687">
        <ele>28</ele>
        <time>2021-01-01T11:08:42Z</time>
      </trkpt>
      <trkpt lat="43.55838" lon="3.83691">
        <ele>29</ele>
        <time>2021-01-01T11:08:44Z</time>
      </trkpt>
      <trkpt lat="43.55849" lon="3.83695">
        <ele>29</ele>
        <time>2021-01-01T11:08:47Z</time>
      </trkpt>
      <trkpt lat="43.55856" lon="3.83697">
        <ele>29</ele>
        <time>2021-01-01T11:08:49Z</time>
      </trkpt>
      <trkpt lat="43.55862" lon="3.83699">
        <ele>29</ele>
        <time>2021-01-01T11:08:51Z</time>
      </trkpt>
      <trkpt lat="43.55869" lon="3.837">
        <ele>29</ele>
        <time>2021-01-01T11:08:53Z</time>
      </trkpt>
      <trkpt lat="43.55875" lon="3.83701">
        <ele>30</ele>
        <time>2021-01-01T11:08:55Z</time>
      </trkpt>
      <trkpt lat="43.55884" lon="3.83701">
        <ele>30</ele>
        <time>2021-01-01T11:08:58Z</time>
      </trkpt>
      <trkpt lat="43.5589" lon="3.83702">
        <ele>30</ele>
        <time>2021-01-01T11:08:59Z</time>
      </trkpt>
      <trkpt lat="43.55897" lon="3.83701">
        <ele>30</ele>
        <time>2021-01-01T11:09:01Z</time>
      </trkpt>
      <trkpt lat="43.55904" lon="3.83702">
        <ele>30</ele>
        <time>2021-01-01T11:09:03Z</time>
      </trkpt>
      <trkpt lat="43.55911" lon="3.83704">
        <ele>30</ele>
        <time>2021-01-01T11:09:05Z</time>
      </trkpt>
      <trkpt lat="43.55916" lon="3.83706">
        <ele>30</ele>
        <time>2021-01-01T11:09:07Z</time>
      </trkpt>
      <trkpt lat="43.55922" lon="3.83713">
        <ele>29</ele>
        <time>2021-01-01T11:09:10Z</time>
      </trkpt>
      <trkpt lat="43.55927" lon="3.83718">
        <ele>29</ele>
        <time>2021-01-01T11:09:11Z</time>
      </trkpt>
      <trkpt lat="43.55932" lon="3.83721">
        <ele>29</ele>
        <time>2021-01-01T11:09:13Z</time>
      </trkpt>
      <trkpt lat="43.55937" lon="3.83723">
        <ele>29</ele>
        <time>2021-01-01T11:09:15Z</time>
      </trkpt>
      <trkpt lat="43.55943" lon="3.83724">
        <ele>29</ele>
        <time>2021-01-01T11:09:17Z</time>
      </trkpt>
      <trkpt lat="43.55948" lon="3.83726">
        <ele>29</ele>
        <time>2021-01-01T11:09:19Z</time>
      </trkpt>
      <trkpt lat="43.55954" lon="3.83728">
        <ele>29</ele>
        <time>2021-01-01T11:09:22Z</time>
      </trkpt>
      <trkpt lat="43.55959" lon="3.83731">
        <ele>29</ele>
        <time>2021-01-01T11:09:25Z</time>
      </trkpt>
      <trkpt lat="43.55969" lon="3.83735">
        <ele>29</ele>
        <time>2021-01-01T11:09:28Z</time>
      </trkpt>
      <trkpt lat="43.55974" lon="3.83733">
        <ele>30</ele>
        <time>2021-01-01T11:09:29Z</time>
      </trkpt>
      <trkpt lat="43.5598" lon="3.83732">
        <ele>30</ele>
        <time>2021-01-01T11:09:31Z</time>
      </trkpt>
      <trkpt lat="43.55986" lon="3.83732">
        <ele>31</ele>
        <time>2021-01-01T11:09:33Z</time>
      </trkpt>
      <trkpt lat="43.55991" lon="3.83731">
        <ele>32</ele>
        <time>2021-01-01T11:09:35Z</time>
      </trkpt>
      <trkpt lat="43.55996" lon="3.83731">
        <ele>33</ele>
        <time>2021-01-01T11:09:37Z</time>
      </trkpt>
      <trkpt lat="43.56003" lon="3.83733">
        <ele>33</ele>
        <time>2021-01-01T11:09:41Z</time>
      </trkpt>
      <trkpt lat="43.56008" lon="3.83736">
        <ele>33</ele>
        <time>2021-01-01T11:09:43Z</time>
      </trkpt>
      <trkpt lat="43.56014" lon="3.83738">
        <ele>34</ele>
        <time>2021-01-01T11:09:45Z</time>
      </trkpt>
      <trkpt lat="43.56019" lon="3.83741">
        <ele>34</ele>
        <time>2021-01-01T11:09:47Z</time>
      </trkpt>
      <trkpt lat="43.56023" lon="3.83745">
        <ele>34</ele>
        <time>2021-01-01T11:09:49Z</time>
      </trkpt>
      <trkpt lat="43.56025" lon="3.8375">
        <ele>34</ele>
        <time>2021-01-01T11:09:51Z</time>
      </trkpt>
      <trkpt lat="43.56024" lon="3.83759">
        <ele>35</ele>
        <time>2021-01-01T11:09:54Z</time>
      </trkpt>
      <trkpt lat="43.56022" lon="3.83766">
        <ele>35</ele>
        <time>2021-01-01T11:09:56Z</time>
      </trkpt>
      <trkpt lat="43.5602" lon="3.83774">
        <ele>35</ele>
        <time>2021-01-01T11:09:58Z</time>
      </trkpt>
      <trkpt lat="43.5602" lon="3.83781">
        <ele>35</ele>
        <time>2021-01-01T11:10:03Z</time>
      </trkpt>
      <trkpt lat="43.56017" lon="3.83786">
        <ele>35</ele>
        <time>2021-01-01T11:10:07Z</time>
      </trkpt>
      <trkpt lat="43.56014" lon="3.83792">
        <ele>35</ele>
        <time>2021-01-01T11:10:11Z</time>
      </trkpt>
      <trkpt lat="43.56011" lon="3.83797">
        <ele>36</ele>
        <time>2021-01-01T11:10:14Z</time>
      </trkpt>
      <trkpt lat="43.5601" lon="3.83805">
        <ele>36</ele>
        <time>2021-01-01T11:10:17Z</time>
      </trkpt>
      <trkpt lat="43.56008" lon="3.83812">
        <ele>36</ele>
        <time>2021-01-01T11:10:19Z</time>
      </trkpt>
      <trkpt lat="43.56007" lon="3.83822">
        <ele>36</ele>
        <time>2021-01-01T11:10:21Z</time>
      </trkpt>
      <trkpt lat="43.56005" lon="3.83832">
        <ele>35</ele>
        <time>2021-01-01T11:10:23Z</time>
      </trkpt>
      <trkpt lat="43.56005" lon="3.83843">
        <ele>35</ele>
        <time>2021-01-01T11:10:25Z</time>
      </trkpt>
      <trkpt lat="43.56001" lon="3.83853">
        <ele>35</ele>
        <time>2021-01-01T11:10:27Z</time>
      </trkpt>
      <trkpt lat="43.56001" lon="3.83859">
        <ele>34</ele>
        <time>2021-01-01T11:10:28Z</time>
      </trkpt>
      <trkpt lat="43.55999" lon="3.83871">
        <ele>34</ele>
        <time>2021-01-01T11:10:30Z</time>
      </trkpt>
      <trkpt lat="43.55997" lon="3.83878">
        <ele>34</ele>
        <time>2021-01-01T11:10:31Z</time>
      </trkpt>
      <trkpt lat="43.55997" lon="3.83885">
        <ele>34</ele>
        <time>2021-01-01T11:10:32Z</time>
      </trkpt>
      <trkpt lat="43.55998" lon="3.83893">
        <ele>33</ele>
        <time>2021-01-01T11:10:33Z</time>
      </trkpt>
      <trkpt lat="43.55997" lon="3.839">
        <ele>33</ele>
        <time>2021-01-01T11:10:34Z</time>
      </trkpt>
      <trkpt lat="43.55994" lon="3.83908">
        <ele>33</ele>
        <time>2021-01-01T11:10:35Z</time>
      </trkpt>
      <trkpt lat="43.55993" lon="3.83915">
        <ele>33</ele>
        <time>2021-01-01T11:10:36Z</time>
      </trkpt>
      <trkpt lat="43.55992" lon="3.83922">
        <ele>33</ele>
        <time>2021-01-01T11:10:37Z</time>
      </trkpt>
      <trkpt lat="43.55991" lon="3.8393">
        <ele>34</ele>
        <time>2021-01-01T11:10:38Z</time>
      </trkpt>
      <trkpt lat="43.55989" lon="3.83937">
        <ele>34</ele>
        <time>2021-01-01T11:10:39Z</time>
      </trkpt>
      <trkpt lat="43.55988" lon="3.83945">
        <ele>34</ele>
        <time>2021-01-01T11:10:40Z</time>
      </trkpt>
      <trkpt lat="43.55988" lon="3.83952">
        <ele>34</ele>
        <time>2021-01-01T11:10:41Z</time>
      </trkpt>
      <trkpt lat="43.55988" lon="3.8396">
        <ele>33</ele>
        <time>2021-01-01T11:10:42Z</time>
      </trkpt>
      <trkpt lat="43.55985" lon="3.83973">
        <ele>33</ele>
        <time>2021-01-01T11:10:44Z</time>
      </trkpt>
      <trkpt lat="43.55984" lon="3.83979">
        <ele>33</ele>
        <time>2021-01-01T11:10:45Z</time>
      </trkpt>
      <trkpt lat="43.55983" lon="3.83986">
        <ele>33</ele>
        <time>2021-01-01T11:10:46Z</time>
      </trkpt>
      <trkpt lat="43.55981" lon="3.83998">
        <ele>33</ele>
        <time>2021-01-01T11:10:48Z</time>
      </trkpt>
      <trkpt lat="43.5598" lon="3.84005">
        <ele>33</ele>
        <time>2021-01-01T11:10:49Z</time>
      </trkpt>
      <trkpt lat="43.55979" lon="3.84013">
        <ele>33</ele>
        <time>2021-01-01T11:10:50Z</time>
      </trkpt>
      <trkpt lat="43.55978" lon="3.84021">
        <ele>33</ele>
        <time>2021-01-01T11:10:51Z</time>
      </trkpt>
      <trkpt lat="43.55977" lon="3.84028">
        <ele>32</ele>
        <time>2021-01-01T11:10:52Z</time>
      </trkpt>
      <trkpt lat="43.55976" lon="3.84037">
        <ele>32</ele>
        <time>2021-01-01T11:10:53Z</time>
      </trkpt>
      <trkpt lat="43.55973" lon="3.84045">
        <ele>32</ele>
        <time>2021-01-01T11:10:54Z</time>
      </trkpt>
      <trkpt lat="43.55972" lon="3.84053">
        <ele>32</ele>
        <time>2021-01-01T11:10:55Z</time>
      </trkpt>
      <trkpt lat="43.5597" lon="3.84059">
        <ele>31</ele>
        <time>2021-01-01T11:10:56Z</time>
      </trkpt>
      <trkpt lat="43.55969" lon="3.84066">
        <ele>31</ele>
        <time>2021-01-01T11:10:57Z</time>
      </trkpt>
      <trkpt lat="43.55968" lon="3.84074">
        <ele>31</ele>
        <time>2021-01-01T11:10:58Z</time>
      </trkpt>
      <trkpt lat="43.55966" lon="3.84081">
        <ele>31</ele>
        <time>2021-01-01T11:10:59Z</time>
      </trkpt>
      <trkpt lat="43.55965" lon="3.84088">
        <ele>31</ele>
        <time>2021-01-01T11:11:00Z</time>
      </trkpt>
      <trkpt lat="43.55964" lon="3.84095">
        <ele>31</ele>
        <time>2021-01-01T11:11:01Z</time>
      </trkpt>
      <trkpt lat="43.55962" lon="3.84102">
        <ele>31</ele>
        <time>2021-01-01T11:11:02Z</time>
      </trkpt>
      <trkpt lat="43.5596" lon="3.84109">
        <ele>31</ele>
        <time>2021-01-01T11:11:03Z</time>
      </trkpt>
      <trkpt lat="43.55959" lon="3.84116">
        <ele>31</ele>
        <time>2021-01-01T11:11:04Z</time>
      </trkpt>
      <trkpt lat="43.55957" lon="3.84122">
        <ele>31</ele>
        <time>2021-01-01T11:11:05Z</time>
      </trkpt>
      <trkpt lat="43.55957" lon="3.84128">
        <ele>31</ele>
        <time>2021-01-01T11:11:06Z</time>
      </trkpt>
      <trkpt lat="43.55956" lon="3.84135">
        <ele>31</ele>
        <time>2021-01-01T11:11:07Z</time>
      </trkpt>
      <trkpt lat="43.55954" lon="3.84147">
        <ele>31</ele>
        <time>2021-01-01T11:11:09Z</time>
      </trkpt>
      <trkpt lat="43.55953" lon="3.84153">
        <ele>31</ele>
        <time>2021-01-01T11:11:10Z</time>
      </trkpt>
      <trkpt lat="43.55952" lon="3.84159">
        <ele>31</ele>
        <time>2021-01-01T11:11:11Z</time>
      </trkpt>
      <trkpt lat="43.55951" lon="3.84165">
        <ele>31</ele>
        <time>2021-01-01T11:11:12Z</time>
      </trkpt>
      <trkpt lat="43.55948" lon="3.84177">
        <ele>31</ele>
        <time>2021-01-01T11:11:14Z</time>
      </trkpt>
      <trkpt lat="43.55945" lon="3.84188">
        <ele>31</ele>
        <time>2021-01-01T11:11:16Z</time>
      </trkpt>
      <trkpt lat="43.55943" lon="3.84198">
        <ele>31</ele>
        <time>2021-01-01T11:11:18Z</time>
      </trkpt>
      <trkpt lat="43.55941" lon="3.84209">
        <ele>31</ele>
        <time>2021-01-01T11:11:20Z</time>
      </trkpt>
      <trkpt lat="43.55943" lon="3.84219">
        <ele>31</ele>
        <time>2021-01-01T11:11:22Z</time>
      </trkpt>
      <trkpt lat="43.55946" lon="3.84228">
        <ele>32</ele>
        <time>2021-01-01T11:11:24Z</time>
      </trkpt>
      <trkpt lat="43.5595" lon="3.84232">
        <ele>32</ele>
        <time>2021-01-01T11:11:25Z</time>
      </trkpt>
      <trkpt lat="43.55957" lon="3.84238">
        <ele>32</ele>
        <time>2021-01-01T11:11:27Z</time>
      </trkpt>
      <trkpt lat="43.55964" lon="3.84243">
        <ele>32</ele>
        <time>2021-01-01T11:11:29Z</time>
      </trkpt>
      <trkpt lat="43.55972" lon="3.84247">
        <ele>32</ele>
        <time>2021-01-01T11:11:31Z</time>
      </trkpt>
      <trkpt lat="43.5598" lon="3.8425">
        <ele>32</ele>
        <time>2021-01-01T11:11:33Z</time>
      </trkpt>
      <trkpt lat="43.55988" lon="3.84252">
        <ele>32</ele>
        <time>2021-01-01T11:11:35Z</time>
      </trkpt>
      <trkpt lat="43.55996" lon="3.84254">
        <ele>32</ele>
        <time>2021-01-01T11:11:37Z</time>
      </trkpt>
      <trkpt lat="43.56003" lon="3.84255">
        <ele>33</ele>
        <time>2021-01-01T11:11:39Z</time>
      </trkpt>
      <trkpt lat="43.5601" lon="3.84257">
        <ele>33</ele>
        <time>2021-01-01T11:11:41Z</time>
      </trkpt>
      <trkpt lat="43.56017" lon="3.8426">
        <ele>34</ele>
        <time>2021-01-01T11:11:43Z</time>
      </trkpt>
      <trkpt lat="43.56023" lon="3.84263">
        <ele>34</ele>
        <time>2021-01-01T11:11:45Z</time>
      </trkpt>
      <trkpt lat="43.5603" lon="3.84266">
        <ele>34</ele>
        <time>2021-01-01T11:11:47Z</time>
      </trkpt>
      <trkpt lat="43.56037" lon="3.84268">
        <ele>34</ele>
        <time>2021-01-01T11:11:49Z</time>
      </trkpt>
      <trkpt lat="43.56043" lon="3.84273">
        <ele>35</ele>
        <time>2021-01-01T11:11:51Z</time>
      </trkpt>
      <trkpt lat="43.56047" lon="3.84279">
        <ele>35</ele>
        <time>2021-01-01T11:11:53Z</time>
      </trkpt>
      <trkpt lat="43.56049" lon="3.84287">
        <ele>36</ele>
        <time>2021-01-01T11:11:55Z</time>
      </trkpt>
      <trkpt lat="43.5605" lon="3.84296">
        <ele>36</ele>
        <time>2021-01-01T11:11:57Z</time>
      </trkpt>
      <trkpt lat="43.56048" lon="3.84306">
        <ele>37</ele>
        <time>2021-01-01T11:11:59Z</time>
      </trkpt>
      <trkpt lat="43.56045" lon="3.84316">
        <ele>37</ele>
        <time>2021-01-01T11:12:01Z</time>
      </trkpt>
      <trkpt lat="43.56043" lon="3.84327">
        <ele>37</ele>
        <time>2021-01-01T11:12:03Z</time>
      </trkpt>
      <trkpt lat="43.56041" lon="3.84337">
        <ele>37</ele>
        <time>2021-01-01T11:12:05Z</time>
      </trkpt>
      <trkpt lat="43.56038" lon="3.84347">
        <ele>37</ele>
        <time>2021-01-01T11:12:07Z</time>
      </trkpt>
      <trkpt lat="43.56035" lon="3.84357">
        <ele>38</ele>
        <time>2021-01-01T11:12:09Z</time>
      </trkpt>
      <trkpt lat="43.56032" lon="3.84368">
        <ele>38</ele>
        <time>2021-01-01T11:12:11Z</time>
      </trkpt>
      <trkpt lat="43.5603" lon="3.84374">
        <ele>38</ele>
        <time>2021-01-01T11:12:12Z</time>
      </trkpt>
      <trkpt lat="43.56028" lon="3.8438">
        <ele>38</ele>
        <time>2021-01-01T11:12:13Z</time>
      </trkpt>
      <trkpt lat="43.56025" lon="3.84385">
        <ele>38</ele>
        <time>2021-01-01T11:12:14Z</time>
      </trkpt>
      <trkpt lat="43.56025" lon="3.84392">
        <ele>38</ele>
        <time>2021-01-01T11:12:15Z</time>
      </trkpt>
      <trkpt lat="43.56022" lon="3.84398">
        <ele>37</ele>
        <time>2021-01-01T11:12:16Z</time>
      </trkpt>
      <trkpt lat="43.56019" lon="3.84404">
        <ele>37</ele>
        <time>2021-01-01T11:12:17Z</time>
      </trkpt>
      <trkpt lat="43.56017" lon="3.84411">
        <ele>37</ele>
        <time>2021-01-01T11:12:18Z</time>
      </trkpt>
      <trkpt lat="43.56015" lon="3.84418">
        <ele>36</ele>
        <time>2021-01-01T11:12:19Z</time>
      </trkpt>
      <trkpt lat="43.56013" lon="3.84424">
        <ele>36</ele>
        <time>2021-01-01T11:12:20Z</time>
      </trkpt>
      <trkpt lat="43.56009" lon="3.8443">
        <ele>36</ele>
        <time>2021-01-01T11:12:21Z</time>
      </trkpt>
      <trkpt lat="43.56009" lon="3.84438">
        <ele>35</ele>
        <time>2021-01-01T11:12:22Z</time>
      </trkpt>
      <trkpt lat="43.56006" lon="3.84446">
        <ele>34</ele>
        <time>2021-01-01T11:12:23Z</time>
      </trkpt>
      <trkpt lat="43.56002" lon="3.84453">
        <ele>34</ele>
        <time>2021-01-01T11:12:24Z</time>
      </trkpt>
      <trkpt lat="43.55998" lon="3.8446">
        <ele>34</ele>
        <time>2021-01-01T11:12:25Z</time>
      </trkpt>
      <trkpt lat="43.55996" lon="3.84469">
        <ele>34</ele>
        <time>2021-01-01T11:12:26Z</time>
      </trkpt>
      <trkpt lat="43.55993" lon="3.84476">
        <ele>34</ele>
        <time>2021-01-01T11:12:27Z</time>
      </trkpt>
      <trkpt lat="43.55988" lon="3.84481">
        <ele>34</ele>
        <time>2021-01-01T11:12:28Z</time>
      </trkpt>
      <trkpt lat="43.55984" lon="3.84487">
        <ele>34</ele>
        <time>2021-01-01T11:12:29Z</time>
      </trkpt>
      <trkpt lat="43.55981" lon="3.84495">
        <ele>34</ele>
        <time>2021-01-01T11:12:30Z</time>
      </trkpt>
      <trkpt lat="43.55978" lon="3.84502">
        <ele>33</ele>
        <time>2021-01-01T11:12:31Z</time>
      </trkpt>
      <trkpt lat="43.55977" lon="3.84511">
        <ele>33</ele>
        <time>2021-01-01T11:12:32Z</time>
      </trkpt>
      <trkpt lat="43.55977" lon="3.84519">
        <ele>32</ele>
        <time>2021-01-01T11:12:33Z</time>
      </trkpt>
      <trkpt lat="43.55977" lon="3.84528">
        <ele>33</ele>
        <time>2021-01-01T11:12:34Z</time>
      </trkpt>
      <trkpt lat="43.55975" lon="3.84534">
        <ele>33</ele>
        <time>2021-01-01T11:12:35Z</time>
      </trkpt>
      <trkpt lat="43.55972" lon="3.84541">
        <ele>33</ele>
        <time>2021-01-01T11:12:36Z</time>
      </trkpt>
      <trkpt lat="43.5597" lon="3.84548">
        <ele>33</ele>
        <time>2021-01-01T11:12:37Z</time>
      </trkpt>
      <trkpt lat="43.55969" lon="3.84555">
        <ele>32</ele>
        <time>2021-01-01T11:12:38Z</time>
      </trkpt>
      <trkpt lat="43.55967" lon="3.84562">
        <ele>32</ele>
        <time>2021-01-01T11:12:39Z</time>
      </trkpt>
      <trkpt lat="43.55966" lon="3.8457">
        <ele>32</ele>
        <time>2021-01-01T11:12:40Z</time>
      </trkpt>
      <trkpt lat="43.55965" lon="3.84579">
        <ele>32</ele>
        <time>2021-01-01T11:12:41Z</time>
      </trkpt>
      <trkpt lat="43.55964" lon="3.84587">
        <ele>32</ele>
        <time>2021-01-01T11:12:42Z</time>
      </trkpt>
      <trkpt lat="43.55962" lon="3.84595">
        <ele>32</ele>
        <time>2021-01-01T11:12:43Z</time>
      </trkpt>
      <trkpt lat="43.55961" lon="3.84604">
        <ele>32</ele>
        <time>2021-01-01T11:12:44Z</time>
      </trkpt>
      <trkpt lat="43.55959" lon="3.84612">
        <ele>32</ele>
        <time>2021-01-01T11:12:45Z</time>
      </trkpt>
      <trkpt lat="43.55957" lon="3.84621">
        <ele>32</ele>
        <time>2021-01-01T11:12:46Z</time>
      </trkpt>
      <trkpt lat="43.55956" lon="3.84629">
        <ele>32</ele>
        <time>2021-01-01T11:12:47Z</time>
      </trkpt>
      <trkpt lat="43.55954" lon="3.84638">
        <ele>32</ele>
        <time>2021-01-01T11:12:48Z</time>
      </trkpt>
      <trkpt lat="43.55952" lon="3.84647">
        <ele>32</ele>
        <time>2021-01-01T11:12:49Z</time>
      </trkpt>
      <trkpt lat="43.55951" lon="3.84657">
        <ele>32</ele>
        <time>2021-01-01T11:12:50Z</time>
      </trkpt>
      <trkpt lat="43.55949" lon="3.84666">
        <ele>32</ele>
        <time>2021-01-01T11:12:51Z</time>
      </trkpt>
      <trkpt lat="43.55947" lon="3.84676">
        <ele>32</ele>
        <time>2021-01-01T11:12:52Z</time>
      </trkpt>
      <trkpt lat="43.55946" lon="3.84686">
        <ele>31</ele>
        <time>2021-01-01T11:12:53Z</time>
      </trkpt>
      <trkpt lat="43.55944" lon="3.84695">
        <ele>31</ele>
        <time>2021-01-01T11:12:54Z</time>
      </trkpt>
      <trkpt lat="43.55942" lon="3.84705">
        <ele>31</ele>
        <time>2021-01-01T11:12:55Z</time>
      </trkpt>
      <trkpt lat="43.5594" lon="3.84714">
        <ele>30</ele>
        <time>2021-01-01T11:12:56Z</time>
      </trkpt>
      <trkpt lat="43.55939" lon="3.84722">
        <ele>30</ele>
        <time>2021-01-01T11:12:57Z</time>
      </trkpt>
      <trkpt lat="43.55938" lon="3.84729">
        <ele>30</ele>
        <time>2021-01-01T11:12:58Z</time>
      </trkpt>
      <trkpt lat="43.55932" lon="3.84736">
        <ele>30</ele>
        <time>2021-01-01T11:13:00Z</time>
      </trkpt>
      <trkpt lat="43.55925" lon="3.84742">
        <ele>30</ele>
        <time>2021-01-01T11:13:02Z</time>
      </trkpt>
      <trkpt lat="43.5592" lon="3.84746">
        <ele>29</ele>
        <time>2021-01-01T11:13:04Z</time>
      </trkpt>
      <trkpt lat="43.55918" lon="3.84752">
        <ele>28</ele>
        <time>2021-01-01T11:13:07Z</time>
      </trkpt>
      <trkpt lat="43.5592" lon="3.84761">
        <ele>27</ele>
        <time>2021-01-01T11:13:09Z</time>
      </trkpt>
      <trkpt lat="43.55922" lon="3.84768">
        <ele>27</ele>
        <time>2021-01-01T11:13:11Z</time>
      </trkpt>
      <trkpt lat="43.55928" lon="3.84772">
        <ele>26</ele>
        <time>2021-01-01T11:13:14Z</time>
      </trkpt>
      <trkpt lat="43.55929" lon="3.84779">
        <ele>25</ele>
        <time>2021-01-01T11:13:16Z</time>
      </trkpt>
      <trkpt lat="43.55925" lon="3.84788">
        <ele>26</ele>
        <time>2021-01-01T11:13:18Z</time>
      </trkpt>
      <trkpt lat="43.55924" lon="3.84799">
        <ele>26</ele>
        <time>2021-01-01T11:13:20Z</time>
      </trkpt>
      <trkpt lat="43.55922" lon="3.84805">
        <ele>25</ele>
        <time>2021-01-01T11:13:21Z</time>
      </trkpt>
      <trkpt lat="43.55921" lon="3.84811">
        <ele>25</ele>
        <time>2021-01-01T11:13:22Z</time>
      </trkpt>
      <trkpt lat="43.55919" lon="3.84822">
        <ele>24</ele>
        <time>2021-01-01T11:13:24Z</time>
      </trkpt>
      <trkpt lat="43.55916" lon="3.84833">
        <ele>23</ele>
        <time>2021-01-01T11:13:26Z</time>
      </trkpt>
      <trkpt lat="43.55912" lon="3.84841">
        <ele>23</ele>
        <time>2021-01-01T11:13:28Z</time>
      </trkpt>
      <trkpt lat="43.55907" lon="3.84846">
        <ele>22</ele>
        <time>2021-01-01T11:13:30Z</time>
      </trkpt>
      <trkpt lat="43.55903" lon="3.8485">
        <ele>22</ele>
        <time>2021-01-01T11:13:32Z</time>
      </trkpt>
      <trkpt lat="43.55895" lon="3.84848">
        <ele>22</ele>
        <time>2021-01-01T11:13:34Z</time>
      </trkpt>
      <trkpt lat="43.55885" lon="3.84848">
        <ele>22</ele>
        <time>2021-01-01T11:13:36Z</time>
      </trkpt>
      <trkpt lat="43.55876" lon="3.84847">
        <ele>22</ele>
        <time>2021-01-01T11:13:38Z</time>
      </trkpt>
      <trkpt lat="43.55871" lon="3.84848">
        <ele>22</ele>
        <time>2021-01-01T11:13:39Z</time>
      </trkpt>
      <trkpt lat="43.55865" lon="3.84848">
        <ele>22</ele>
        <time>2021-01-01T11:13:40Z</time>
      </trkpt>
      <trkpt lat="43.5586" lon="3.84848">
        <ele>21</ele>
        <time>2021-01-01T11:13:41Z</time>
      </trkpt>
      <trkpt lat="43.55854" lon="3.84848">
        <ele>21</ele>
        <time>2021-01-01T11:13:42Z</time>
      </trkpt>
      <trkpt lat="43.55848" lon="3.84849">
        <ele>21</ele>
        <time>2021-01-01T11:13:43Z</time>
      </trkpt>
      <trkpt lat="43.55842" lon="3.84849">
        <ele>21</ele>
        <time>2021-01-01T11:13:44Z</time>
      </trkpt>
      <trkpt lat="43.55835" lon="3.8485">
        <ele>20</ele>
        <time>2021-01-01T11:13:45Z</time>
      </trkpt>
      <trkpt lat="43.55829" lon="3.84852">
        <ele>20</ele>
        <time>2021-01-01T11:13:46Z</time>
      </trkpt>
      <trkpt lat="43.55821" lon="3.84852">
        <ele>20</ele>
        <time>2021-01-01T11:13:47Z</time>
      </trkpt>
      <trkpt lat="43.55814" lon="3.84854">
        <ele>19</ele>
        <time>2021-01-01T11:13:48Z</time>
      </trkpt>
      <trkpt lat="43.55808" lon="3.84855">
        <ele>19</ele>
        <time>2021-01-01T11:13:49Z</time>
      </trkpt>
      <trkpt lat="43.55801" lon="3.84856">
        <ele>19</ele>
        <time>2021-01-01T11:13:50Z</time>
      </trkpt>
      <trkpt lat="43.55794" lon="3.84857">
        <ele>19</ele>
        <time>2021-01-01T11:13:51Z</time>
      </trkpt>
      <trkpt lat="43.55788" lon="3.84858">
        <ele>19</ele>
        <time>2021-01-01T11:13:52Z</time>
      </trkpt>
      <trkpt lat="43.55781" lon="3.84859">
        <ele>19</ele>
        <time>2021-01-01T11:13:53Z</time>
      </trkpt>
      <trkpt lat="43.55774" lon="3.84859">
        <ele>19</ele>
        <time>2021-01-01T11:13:54Z</time>
      </trkpt>
      <trkpt lat="43.55767" lon="3.84859">
        <ele>20</ele>
        <time>2021-01-01T11:13:55Z</time>
      </trkpt>
      <trkpt lat="43.5576" lon="3.84859">
        <ele>20</ele>
        <time>2021-01-01T11:13:56Z</time>
      </trkpt>
      <trkpt lat="43.55754" lon="3.84861">
        <ele>20</ele>
        <time>2021-01-01T11:13:57Z</time>
      </trkpt>
      <trkpt lat="43.55747" lon="3.84862">
        <ele>20</ele>
        <time>2021-01-01T11:13:58Z</time>
      </trkpt>
      <trkpt lat="43.55741" lon="3.84863">
        <ele>20</ele>
        <time>2021-01-01T11:13:59Z</time>
      </trkpt>
      <trkpt lat="43.55735" lon="3.84862">
        <ele>20</ele>
        <time>2021-01-01T11:14:00Z</time>
      </trkpt>
      <trkpt lat="43.55729" lon="3.84862">
        <ele>20</ele>
        <time>2021-01-01T11:14:01Z</time>
      </trkpt>
      <trkpt lat="43.55723" lon="3.84862">
        <ele>20</ele>
        <time>2021-01-01T11:14:02Z</time>
      </trkpt>
      <trkpt lat="43.55717" lon="3.84863">
        <ele>21</ele>
        <time>2021-01-01T11:14:03Z</time>
      </trkpt>
      <trkpt lat="43.55711" lon="3.84864">
        <ele>21</ele>
        <time>2021-01-01T11:14:04Z</time>
      </trkpt>
      <trkpt lat="43.55705" lon="3.84865">
        <ele>21</ele>
        <time>2021-01-01T11:14:05Z</time>
      </trkpt>
      <trkpt lat="43.55698" lon="3.84865">
        <ele>21</ele>
        <time>2021-01-01T11:14:06Z</time>
      </trkpt>
      <trkpt lat="43.55692" lon="3.84865">
        <ele>20</ele>
        <time>2021-01-01T11:14:07Z</time>
      </trkpt>
      <trkpt lat="43.55687" lon="3.84865">
        <ele>20</ele>
        <time>2021-01-01T11:14:08Z</time>
      </trkpt>
      <trkpt lat="43.55681" lon="3.84866">
        <ele>20</ele>
        <time>2021-01-01T11:14:09Z</time>
      </trkpt>
      <trkpt lat="43.55676" lon="3.84867">
        <ele>19</ele>
        <time>2021-01-01T11:14:10Z</time>
      </trkpt>
      <trkpt lat="43.5567" lon="3.84867">
        <ele>19</ele>
        <time>2021-01-01T11:14:11Z</time>
      </trkpt>
      <trkpt lat="43.55665" lon="3.84868">
        <ele>20</ele>
        <time>2021-01-01T11:14:12Z</time>
      </trkpt>
      <trkpt lat="43.55659" lon="3.84867">
        <ele>20</ele>
        <time>2021-01-01T11:14:13Z</time>
      </trkpt>
      <trkpt lat="43.55653" lon="3.84866">
        <ele>20</ele>
        <time>2021-01-01T11:14:14Z</time>
      </trkpt>
      <trkpt lat="43.55648" lon="3.84865">
        <ele>20</ele>
        <time>2021-01-01T11:14:15Z</time>
      </trkpt>
      <trkpt lat="43.55642" lon="3.84864">
        <ele>20</ele>
        <time>2021-01-01T11:14:16Z</time>
      </trkpt>
      <trkpt lat="43.55637" lon="3.84862">
        <ele>20</ele>
        <time>2021-01-01T11:14:17Z</time>
      </trkpt>
      <trkpt lat="43.55632" lon="3.84859">
        <ele>20</ele>
        <time>2021-01-01T11:14:18Z</time>
      </trkpt>
      <trkpt lat="43.55626" lon="3.84856">
        <ele>20</ele>
        <time>2021-01-01T11:14:19Z</time>
      </trkpt>
      <trkpt lat="43.5562" lon="3.84854">
        <ele>20</ele>
        <time>2021-01-01T11:14:20Z</time>
      </trkpt>
      <trkpt lat="43.55615" lon="3.8485">
        <ele>19</ele>
        <time>2021-01-01T11:14:21Z</time>
      </trkpt>
      <trkpt lat="43.55609" lon="3.84847">
        <ele>19</ele>
        <time>2021-01-01T11:14:22Z</time>
      </trkpt>
      <trkpt lat="43.55604" lon="3.84842">
        <ele>19</ele>
        <time>2021-01-01T11:14:23Z</time>
      </trkpt>
      <trkpt lat="43.55598" lon="3.84837">
        <ele>19</ele>
        <time>2021-01-01T11:14:24Z</time>
      </trkpt>
      <trkpt lat="43.55594" lon="3.84831">
        <ele>19</ele>
        <time>2021-01-01T11:14:25Z</time>
      </trkpt>
      <trkpt lat="43.55589" lon="3.84825">
        <ele>19</ele>
        <time>2021-01-01T11:14:26Z</time>
      </trkpt>
      <trkpt lat="43.55586" lon="3.84818">
        <ele>19</ele>
        <time>2021-01-01T11:14:27Z</time>
      </trkpt>
      <trkpt lat="43.55581" lon="3.84812">
        <ele>19</ele>
        <time>2021-01-01T11:14:28Z</time>
      </trkpt>
      <trkpt lat="43.55577" lon="3.84806">
        <ele>19</ele>
        <time>2021-01-01T11:14:29Z</time>
      </trkpt>
      <trkpt lat="43.55574" lon="3.848">
        <ele>18</ele>
        <time>2021-01-01T11:14:30Z</time>
      </trkpt>
      <trkpt lat="43.55571" lon="3.84793">
        <ele>18</ele>
        <time>2021-01-01T11:14:31Z</time>
      </trkpt>
      <trkpt lat="43.55568" lon="3.84787">
        <ele>18</ele>
        <time>2021-01-01T11:14:32Z</time>
      </trkpt>
      <trkpt lat="43.55565" lon="3.84782">
        <ele>18</ele>
        <time>2021-01-01T11:14:33Z</time>
      </trkpt>
      <trkpt lat="43.55562" lon="3.84775">
        <ele>17</ele>
        <time>2021-01-01T11:14:34Z</time>
      </trkpt>
      <trkpt lat="43.55559" lon="3.84768">
        <ele>17</ele>
        <time>2021-01-01T11:14:35Z</time>
      </trkpt>
      <trkpt lat="43.55557" lon="3.8476">
        <ele>17</ele>
        <time>2021-01-01T11:14:36Z</time>
      </trkpt>
      <trkpt lat="43.55554" lon="3.84752">
        <ele>17</ele>
        <time>2021-01-01T11:14:37Z</time>
      </trkpt>
      <trkpt lat="43.55551" lon="3.84743">
        <ele>17</ele>
        <time>2021-01-01T11:14:38Z</time>
      </trkpt>
      <trkpt lat="43.55549" lon="3.84735">
        <ele>17</ele>
        <time>2021-01-01T11:14:39Z</time>
      </trkpt>
      <trkpt lat="43.55547" lon="3.84727">
        <ele>17</ele>
        <time>2021-01-01T11:14:40Z</time>
      </trkpt>
      <trkpt lat="43.55545" lon="3.84719">
        <ele>17</ele>
        <time>2021-01-01T11:14:41Z</time>
      </trkpt>
      <trkpt lat="43.55544" lon="3.84712">
        <ele>17</ele>
        <time>2021-01-01T11:14:42Z</time>
      </trkpt>
      <trkpt lat="43.55541" lon="3.84704">
        <ele>17</ele>
        <time>2021-01-01T11:14:43Z</time>
      </trkpt>
      <trkpt lat="43.55538" lon="3.84696">
        <ele>17</ele>
        <time>2021-01-01T11:14:44Z</time>
      </trkpt>
      <trkpt lat="43.55536" lon="3.84689">
        <ele>17</ele>
        <time>2021-01-01T11:14:45Z</time>
      </trkpt>
      <trkpt lat="43.55534" lon="3.84682">
        <ele>17</ele>
        <time>2021-01-01T11:14:46Z</time>
      </trkpt>
      <trkpt lat="43.55532" lon="3.84674">
        <ele>18</ele>
        <time>2021-01-01T11:14:47Z</time>
      </trkpt>
      <trkpt lat="43.55529" lon="3.84666">
        <ele>18</ele>
        <time>2021-01-01T11:14:48Z</time>
      </trkpt>
      <trkpt lat="43.55527" lon="3.84658">
        <ele>18</ele>
        <time>2021-01-01T11:14:49Z</time>
      </trkpt>
      <trkpt lat="43.55524" lon="3.8465">
        <ele>17</ele>
        <time>2021-01-01T11:14:50Z</time>
      </trkpt>
      <trkpt lat="43.55522" lon="3.84643">
        <ele>17</ele>
        <time>2021-01-01T11:14:51Z</time>
      </trkpt>
      <trkpt lat="43.5552" lon="3.84635">
        <ele>17</ele>
        <time>2021-01-01T11:14:52Z</time>
      </trkpt>
      <trkpt lat="43.55517" lon="3.84627">
        <ele>17</ele>
        <time>2021-01-01T11:14:53Z</time>
      </trkpt>
      <trkpt lat="43.55515" lon="3.84618">
        <ele>16</ele>
        <time>2021-01-01T11:14:54Z</time>
      </trkpt>
      <trkpt lat="43.55512" lon="3.84609">
        <ele>16</ele>
        <time>2021-01-01T11:14:55Z</time>
      </trkpt>
      <trkpt lat="43.5551" lon="3.84599">
        <ele>16</ele>
        <time>2021-01-01T11:14:56Z</time>
      </trkpt>
      <trkpt lat="43.55508" lon="3.8459">
        <ele>16</ele>
        <time>2021-01-01T11:14:57Z</time>
      </trkpt>
      <trkpt lat="43.55505" lon="3.84581">
        <ele>16</ele>
        <time>2021-01-01T11:14:58Z</time>
      </trkpt>
      <trkpt lat="43.55504" lon="3.84573">
        <ele>16</ele>
        <time>2021-01-01T11:14:59Z</time>
      </trkpt>
      <trkpt lat="43.55501" lon="3.84563">
        <ele>15</ele>
        <time>2021-01-01T11:15:00Z</time>
      </trkpt>
      <trkpt lat="43.55498" lon="3.84553">
        <ele>15</ele>
        <time>2021-01-01T11:15:01Z</time>
      </trkpt>
      <trkpt lat="43.55494" lon="3.84544">
        <ele>15</ele>
        <time>2021-01-01T11:15:02Z</time>
      </trkpt>
      <trkpt lat="43.55491" lon="3.84534">
        <ele>15</ele>
        <time>2021-01-01T11:15:03Z</time>
      </trkpt>
      <trkpt lat="43.55488" lon="3.84524">
        <ele>15</ele>
        <time>2021-01-01T11:15:04Z</time>
      </trkpt>
      <trkpt lat="43.55484" lon="3.84515">
        <ele>15</ele>
        <time>2021-01-01T11:15:05Z</time>
      </trkpt>
      <trkpt lat="43.55481" lon="3.84505">
        <ele>15</ele>
        <time>2021-01-01T11:15:06Z</time>
      </trkpt>
      <trkpt lat="43.55476" lon="3.84498">
        <ele>14</ele>
        <time>2021-01-01T11:15:07Z</time>
      </trkpt>
      <trkpt lat="43.55471" lon="3.84492">
        <ele>14</ele>
        <time>2021-01-01T11:15:08Z</time>
      </trkpt>
      <trkpt lat="43.55465" lon="3.84489">
        <ele>14</ele>
        <time>2021-01-01T11:15:09Z</time>
      </trkpt>
      <trkpt lat="43.5546" lon="3.84488">
        <ele>14</ele>
        <time>2021-01-01T11:15:10Z</time>
      </trkpt>
      <trkpt lat="43.55454" lon="3.84488">
        <ele>13</ele>
        <time>2021-01-01T11:15:11Z</time>
      </trkpt>
      <trkpt lat="43.5545" lon="3.8449">
        <ele>13</ele>
        <time>2021-01-01T11:15:12Z</time>
      </trkpt>
      <trkpt lat="43.55444" lon="3.84493">
        <ele>13</ele>
        <time>2021-01-01T11:15:14Z</time>
      </trkpt>
      <trkpt lat="43.5544" lon="3.84498">
        <ele>13</ele>
        <time>2021-01-01T11:15:17Z</time>
      </trkpt>
      <trkpt lat="43.55436" lon="3.84501">
        <ele>12</ele>
        <time>2021-01-01T11:15:19Z</time>
      </trkpt>
      <trkpt lat="43.5543" lon="3.84507">
        <ele>12</ele>
        <time>2021-01-01T11:15:21Z</time>
      </trkpt>
      <trkpt lat="43.55423" lon="3.84512">
        <ele>11</ele>
        <time>2021-01-01T11:15:23Z</time>
      </trkpt>
      <trkpt lat="43.55418" lon="3.84515">
        <ele>11</ele>
        <time>2021-01-01T11:15:24Z</time>
      </trkpt>
      <trkpt lat="43.55413" lon="3.8452">
        <ele>11</ele>
        <time>2021-01-01T11:15:25Z</time>
      </trkpt>
      <trkpt lat="43.55409" lon="3.84524">
        <ele>11</ele>
        <time>2021-01-01T11:15:26Z</time>
      </trkpt>
      <trkpt lat="43.55405" lon="3.84529">
        <ele>11</ele>
        <time>2021-01-01T11:15:27Z</time>
      </trkpt>
      <trkpt lat="43.554" lon="3.84532">
        <ele>11</ele>
        <time>2021-01-01T11:15:28Z</time>
      </trkpt>
      <trkpt lat="43.55396" lon="3.84536">
        <ele>11</ele>
        <time>2021-01-01T11:15:29Z</time>
      </trkpt>
      <trkpt lat="43.55391" lon="3.8454">
        <ele>11</ele>
        <time>2021-01-01T11:15:30Z</time>
      </trkpt>
      <trkpt lat="43.55386" lon="3.84542">
        <ele>12</ele>
        <time>2021-01-01T11:15:31Z</time>
      </trkpt>
      <trkpt lat="43.55381" lon="3.84543">
        <ele>12</ele>
        <time>2021-01-01T11:15:32Z</time>
      </trkpt>
      <trkpt lat="43.55376" lon="3.84545">
        <ele>12</ele>
        <time>2021-01-01T11:15:33Z</time>
      </trkpt>
      <trkpt lat="43.5537" lon="3.84548">
        <ele>13</ele>
        <time>2021-01-01T11:15:34Z</time>
      </trkpt>
      <trkpt lat="43.55364" lon="3.84551">
        <ele>13</ele>
        <time>2021-01-01T11:15:35Z</time>
      </trkpt>
      <trkpt lat="43.55359" lon="3.84556">
        <ele>13</ele>
        <time>2021-01-01T11:15:36Z</time>
      </trkpt>
      <trkpt lat="43.55354" lon="3.84562">
        <ele>12</ele>
        <time>2021-01-01T11:15:37Z</time>
      </trkpt>
      <trkpt lat="43.55349" lon="3.84566">
        <ele>12</ele>
        <time>2021-01-01T11:15:38Z</time>
      </trkpt>
      <trkpt lat="43.55343" lon="3.84571">
        <ele>12</ele>
        <time>2021-01-01T11:15:39Z</time>
      </trkpt>
      <trkpt lat="43.55337" lon="3.84576">
        <ele>12</ele>
        <time>2021-01-01T11:15:40Z</time>
      </trkpt>
      <trkpt lat="43.55332" lon="3.84581">
        <ele>12</ele>
        <time>2021-01-01T11:15:41Z</time>
      </trkpt>
      <trkpt lat="43.55327" lon="3.84584">
        <ele>12</ele>
        <time>2021-01-01T11:15:42Z</time>
      </trkpt>
      <trkpt lat="43.5532" lon="3.84585">
        <ele>12</ele>
        <time>2021-01-01T11:15:44Z</time>
      </trkpt>
      <trkpt lat="43.55314" lon="3.8458">
        <ele>12</ele>
        <time>2021-01-01T11:15:46Z</time>
      </trkpt>
      <trkpt lat="43.55307" lon="3.84574">
        <ele>12</ele>
        <time>2021-01-01T11:15:48Z</time>
      </trkpt>
      <trkpt lat="43.55304" lon="3.84569">
        <ele>12</ele>
        <time>2021-01-01T11:15:50Z</time>
      </trkpt>
      <trkpt lat="43.553" lon="3.84563">
        <ele>12</ele>
        <time>2021-01-01T11:15:52Z</time>
      </trkpt>
      <trkpt lat="43.55296" lon="3.84558">
        <ele>12</ele>
        <time>2021-01-01T11:15:53Z</time>
      </trkpt>
      <trkpt lat="43.55291" lon="3.84555">
        <ele>12</ele>
        <time>2021-01-01T11:15:54Z</time>
      </trkpt>
      <trkpt lat="43.55291" lon="3.84564">
        <ele>11</ele>
        <time>2021-01-01T11:15:56Z</time>
      </trkpt>
      <trkpt lat="43.55287" lon="3.84572">
        <ele>11</ele>
        <time>2021-01-01T11:15:58Z</time>
      </trkpt>
      <trkpt lat="43.55283" lon="3.8458">
        <ele>11</ele>
        <time>2021-01-01T11:16:00Z</time>
      </trkpt>
      <trkpt lat="43.5528" lon="3.84587">
        <ele>11</ele>
        <time>2021-01-01T11:16:02Z</time>
      </trkpt>
      <trkpt lat="43.55275" lon="3.84592">
        <ele>11</ele>
        <time>2021-01-01T11:16:05Z</time>
      </trkpt>
      <trkpt lat="43.55272" lon="3.84597">
        <ele>11</ele>
        <time>2021-01-01T11:16:08Z</time>
      </trkpt>
      <trkpt lat="43.5527" lon="3.84605">
        <ele>11</ele>
        <time>2021-01-01T11:16:12Z</time>
      </trkpt>
      <trkpt lat="43.55271" lon="3.84612">
        <ele>10</ele>
        <time>2021-01-01T11:16:17Z</time>
      </trkpt>
      <trkpt lat="43.55273" lon="3.8462">
        <ele>9</ele>
        <time>2021-01-01T11:16:21Z</time>
      </trkpt>
      <trkpt lat="43.55273" lon="3.84626">
        <ele>8</ele>
        <time>2021-01-01T11:16:24Z</time>
      </trkpt>
      <trkpt lat="43.55267" lon="3.84629">
        <ele>8</ele>
        <time>2021-01-01T11:16:27Z</time>
      </trkpt>
      <trkpt lat="43.55257" lon="3.84632">
        <ele>8</ele>
        <time>2021-01-01T11:16:29Z</time>
      </trkpt>
      <trkpt lat="43.55249" lon="3.84634">
        <ele>8</ele>
        <time>2021-01-01T11:16:30Z</time>
      </trkpt>
      <trkpt lat="43.55244" lon="3.84635">
        <ele>8</ele>
        <time>2021-01-01T11:16:31Z</time>
      </trkpt>
      <trkpt lat="43.55238" lon="3.84636">
        <ele>7</ele>
        <time>2021-01-01T11:16:32Z</time>
      </trkpt>
      <trkpt lat="43.55233" lon="3.84637">
        <ele>7</ele>
        <time>2021-01-01T11:16:33Z</time>
      </trkpt>
      <trkpt lat="43.55228" lon="3.84638">
        <ele>7</ele>
        <time>2021-01-01T11:16:34Z</time>
      </trkpt>
      <trkpt lat="43.55223" lon="3.84639">
        <ele>6</ele>
        <time>2021-01-01T11:16:35Z</time>
      </trkpt>
      <trkpt lat="43.55218" lon="3.8464">
        <ele>6</ele>
        <time>2021-01-01T11:16:36Z</time>
      </trkpt>
      <trkpt lat="43.55212" lon="3.84641">
        <ele>7</ele>
        <time>2021-01-01T11:16:37Z</time>
      </trkpt>
      <trkpt lat="43.55206" lon="3.84642">
        <ele>7</ele>
        <time>2021-01-01T11:16:38Z</time>
      </trkpt>
      <trkpt lat="43.55201" lon="3.84643">
        <ele>7</ele>
        <time>2021-01-01T11:16:39Z</time>
      </trkpt>
      <trkpt lat="43.55195" lon="3.84644">
        <ele>7</ele>
        <time>2021-01-01T11:16:40Z</time>
      </trkpt>
      <trkpt lat="43.5519" lon="3.84644">
        <ele>7</ele>
        <time>2021-01-01T11:16:41Z</time>
      </trkpt>
      <trkpt lat="43.55184" lon="3.84645">
        <ele>7</ele>
        <time>2021-01-01T11:16:42Z</time>
      </trkpt>
      <trkpt lat="43.55179" lon="3.84645">
        <ele>7</ele>
        <time>2021-01-01T11:16:43Z</time>
      </trkpt>
      <trkpt lat="43.55172" lon="3.84645">
        <ele>7</ele>
        <time>2021-01-01T11:16:44Z</time>
      </trkpt>
      <trkpt lat="43.55166" lon="3.84644">
        <ele>7</ele>
        <time>2021-01-01T11:16:45Z</time>
      </trkpt>
      <trkpt lat="43.55161" lon="3.84645">
        <ele>7</ele>
        <time>2021-01-01T11:16:46Z</time>
      </trkpt>
      <trkpt lat="43.55154" lon="3.84644">
        <ele>8</ele>
        <time>2021-01-01T11:16:47Z</time>
      </trkpt>
      <trkpt lat="43.5515" lon="3.84642">
        <ele>7</ele>
        <time>2021-01-01T11:16:48Z</time>
      </trkpt>
      <trkpt lat="43.55143" lon="3.84643">
        <ele>7</ele>
        <time>2021-01-01T11:16:49Z</time>
      </trkpt>
      <trkpt lat="43.55138" lon="3.84643">
        <ele>7</ele>
        <time>2021-01-01T11:16:50Z</time>
      </trkpt>
      <trkpt lat="43.55132" lon="3.84643">
        <ele>7</ele>
        <time>2021-01-01T11:16:51Z</time>
      </trkpt>
      <trkpt lat="43.55126" lon="3.84643">
        <ele>6</ele>
        <time>2021-01-01T11:16:52Z</time>
      </trkpt>
      <trkpt lat="43.5512" lon="3.84643">
        <ele>6</ele>
        <time>2021-01-01T11:16:53Z</time>
      </trkpt>
      <trkpt lat="43.55114" lon="3.84643">
        <ele>6</ele>
        <time>2021-01-01T11:16:54Z</time>
      </trkpt>
      <trkpt lat="43.55108" lon="3.84643">
        <ele>6</ele>
        <time>2021-01-01T11:16:55Z</time>
      </trkpt>
      <trkpt lat="43.55101" lon="3.84644">
        <ele>6</ele>
        <time>2021-01-01T11:16:56Z</time>
      </trkpt>
      <trkpt lat="43.55095" lon="3.84644">
        <ele>7</ele>
        <time>2021-01-01T11:16:57Z</time>
      </trkpt>
      <trkpt lat="43.55089" lon="3.84644">
        <ele>7</ele>
        <time>2021-01-01T11:16:58Z</time>
      </trkpt>
      <trkpt lat="43.55081" lon="3.84644">
        <ele>7</ele>
        <time>2021-01-01T11:16:59Z</time>
      </trkpt>
      <trkpt lat="43.55076" lon="3.84644">
        <ele>7</ele>
        <time>2021-01-01T11:17:00Z</time>
      </trkpt>
      <trkpt lat="43.55069" lon="3.84643">
        <ele>7</ele>
        <time>2021-01-01T11:17:01Z</time>
      </trkpt>
      <trkpt lat="43.55064" lon="3.84643">
        <ele>7</ele>
        <time>2021-01-01T11:17:02Z</time>
      </trkpt>
      <trkpt lat="43.55057" lon="3.84642">
        <ele>7</ele>
        <time>2021-01-01T11:17:03Z</time>
      </trkpt>
      <trkpt lat="43.55051" lon="3.84642">
        <ele>7</ele>
        <time>2021-01-01T11:17:04Z</time>
      </trkpt>
      <trkpt lat="43.55045" lon="3.84642">
        <ele>8</ele>
        <time>2021-01-01T11:17:05Z</time>
      </trkpt>
      <trkpt lat="43.55039" lon="3.84642">
        <ele>8</ele>
        <time>2021-01-01T11:17:06Z</time>
      </trkpt>
      <trkpt lat="43.55033" lon="3.84642">
        <ele>8</ele>
        <time>2021-01-01T11:17:07Z</time>
      </trkpt>
      <trkpt lat="43.55027" lon="3.84643">
        <ele>9</ele>
        <time>2021-01-01T11:17:08Z</time>
      </trkpt>
      <trkpt lat="43.55022" lon="3.84641">
        <ele>9</ele>
        <time>2021-01-01T11:17:09Z</time>
      </trkpt>
      <trkpt lat="43.55016" lon="3.8464">
        <ele>8</ele>
        <time>2021-01-01T11:17:10Z</time>
      </trkpt>
      <trkpt lat="43.5501" lon="3.8464">
        <ele>8</ele>
        <time>2021-01-01T11:17:11Z</time>
      </trkpt>
      <trkpt lat="43.55003" lon="3.84639">
        <ele>8</ele>
        <time>2021-01-01T11:17:12Z</time>
      </trkpt>
      <trkpt lat="43.54998" lon="3.84636">
        <ele>7</ele>
        <time>2021-01-01T11:17:13Z</time>
      </trkpt>
      <trkpt lat="43.54992" lon="3.84634">
        <ele>7</ele>
        <time>2021-01-01T11:17:14Z</time>
      </trkpt>
      <trkpt lat="43.54987" lon="3.84631">
        <ele>8</ele>
        <time>2021-01-01T11:17:15Z</time>
      </trkpt>
      <trkpt lat="43.54982" lon="3.84626">
        <ele>8</ele>
        <time>2021-01-01T11:17:16Z</time>
      </trkpt>
      <trkpt lat="43.54977" lon="3.84622">
        <ele>8</ele>
        <time>2021-01-01T11:17:17Z</time>
      </trkpt>
      <trkpt lat="43.54971" lon="3.84618">
        <ele>8</ele>
        <time>2021-01-01T11:17:18Z</time>
      </trkpt>
      <trkpt lat="43.54966" lon="3.84614">
        <ele>8</ele>
        <time>2021-01-01T11:17:19Z</time>
      </trkpt>
      <trkpt lat="43.54961" lon="3.84611">
        <ele>8</ele>
        <time>2021-01-01T11:17:20Z</time>
      </trkpt>
      <trkpt lat="43.54955" lon="3.84607">
        <ele>9</ele>
        <time>2021-01-01T11:17:21Z</time>
      </trkpt>
      <trkpt lat="43.54949" lon="3.84604">
        <ele>9</ele>
        <time>2021-01-01T11:17:22Z</time>
      </trkpt>
      <trkpt lat="43.54943" lon="3.846">
        <ele>9</ele>
        <time>2021-01-01T11:17:23Z</time>
      </trkpt>
      <trkpt lat="43.54938" lon="3.84596">
        <ele>9</ele>
        <time>2021-01-01T11:17:24Z</time>
      </trkpt>
      <trkpt lat="43.54932" lon="3.84592">
        <ele>9</ele>
        <time>2021-01-01T11:17:25Z</time>
      </trkpt>
      <trkpt lat="43.54927" lon="3.84587">
        <ele>9</ele>
        <time>2021-01-01T11:17:26Z</time>
      </trkpt>
      <trkpt lat="43.54922" lon="3.84583">
        <ele>9</ele>
        <time>2021-01-01T11:17:27Z</time>
      </trkpt>
      <trkpt lat="43.54917" lon="3.84578">
        <ele>9</ele>
        <time>2021-01-01T11:17:28Z</time>
      </trkpt>
      <trkpt lat="43.54913" lon="3.84572">
        <ele>8</ele>
        <time>2021-01-01T11:17:29Z</time>
      </trkpt>
      <trkpt lat="43.54909" lon="3.84567">
        <ele>8</ele>
        <time>2021-01-01T11:17:30Z</time>
      </trkpt>
      <trkpt lat="43.54904" lon="3.84562">
        <ele>8</ele>
        <time>2021-01-01T11:17:31Z</time>
      </trkpt>
      <trkpt lat="43.54899" lon="3.84557">
        <ele>8</ele>
        <time>2021-01-01T11:17:32Z</time>
      </trkpt>
      <trkpt lat="43.54894" lon="3.84552">
        <ele>8</ele>
        <time>2021-01-01T11:17:33Z</time>
      </trkpt>
      <trkpt lat="43.54889" lon="3.84546">
        <ele>8</ele>
        <time>2021-01-01T11:17:34Z</time>
      </trkpt>
      <trkpt lat="43.54884" lon="3.8454">
        <ele>8</ele>
        <time>2021-01-01T11:17:35Z</time>
      </trkpt>
      <trkpt lat="43.5488" lon="3.84536">
        <ele>8</ele>
        <time>2021-01-01T11:17:36Z</time>
      </trkpt>
      <trkpt lat="43.54874" lon="3.8453">
        <ele>8</ele>
        <time>2021-01-01T11:17:37Z</time>
      </trkpt>
      <trkpt lat="43.5487" lon="3.84524">
        <ele>8</ele>
        <time>2021-01-01T11:17:38Z</time>
      </trkpt>
      <trkpt lat="43.54866" lon="3.8452">
        <ele>8</ele>
        <time>2021-01-01T11:17:39Z</time>
      </trkpt>
      <trkpt lat="43.54861" lon="3.84514">
        <ele>8</ele>
        <time>2021-01-01T11:17:40Z</time>
      </trkpt>
      <trkpt lat="43.54858" lon="3.8451">
        <ele>8</ele>
        <time>2021-01-01T11:17:41Z</time>
      </trkpt>
      <trkpt lat="43.54853" lon="3.84504">
        <ele>8</ele>
        <time>2021-01-01T11:17:42Z</time>
      </trkpt>
      <trkpt lat="43.5485" lon="3.84499">
        <ele>9</ele>
        <time>2021-01-01T11:17:43Z</time>
      </trkpt>
      <trkpt lat="43.54846" lon="3.84492">
        <ele>9</ele>
        <time>2021-01-01T11:17:44Z</time>
      </trkpt>
      <trkpt lat="43.54842" lon="3.84487">
        <ele>9</ele>
        <time>2021-01-01T11:17:45Z</time>
      </trkpt>
      <trkpt lat="43.54838" lon="3.84481">
        <ele>9</ele>
        <time>2021-01-01T11:17:46Z</time>
      </trkpt>
      <trkpt lat="43.54833" lon="3.84475">
        <ele>9</ele>
        <time>2021-01-01T11:17:47Z</time>
      </trkpt>
      <trkpt lat="43.54828" lon="3.8447">
        <ele>9</ele>
        <time>2021-01-01T11:17:48Z</time>
      </trkpt>
      <trkpt lat="43.54824" lon="3.84465">
        <ele>9</ele>
        <time>2021-01-01T11:17:49Z</time>
      </trkpt>
      <trkpt lat="43.54819" lon="3.8446">
        <ele>9</ele>
        <time>2021-01-01T11:17:50Z</time>
      </trkpt>
      <trkpt lat="43.54814" lon="3.84454">
        <ele>9</ele>
        <time>2021-01-01T11:17:51Z</time>
      </trkpt>
      <trkpt lat="43.5481" lon="3.84448">
        <ele>8</ele>
        <time>2021-01-01T11:17:52Z</time>
      </trkpt>
      <trkpt lat="43.54805" lon="3.84442">
        <ele>8</ele>
        <time>2021-01-01T11:17:53Z</time>
      </trkpt>
      <trkpt lat="43.548" lon="3.84436">
        <ele>8</ele>
        <time>2021-01-01T11:17:54Z</time>
      </trkpt>
      <trkpt lat="43.54796" lon="3.8443">
        <ele>8</ele>
        <time>2021-01-01T11:17:55Z</time>
      </trkpt>
      <trkpt lat="43.54792" lon="3.84423">
        <ele>8</ele>
        <time>2021-01-01T11:17:56Z</time>
      </trkpt>
      <trkpt lat="43.54787" lon="3.84418">
        <ele>8</ele>
        <time>2021-01-01T11:17:57Z</time>
      </trkpt>
      <trkpt lat="43.54782" lon="3.84411">
        <ele>8</ele>
        <time>2021-01-01T11:17:58Z</time>
      </trkpt>
      <trkpt lat="43.54778" lon="3.84405">
        <ele>8</ele>
        <time>2021-01-01T11:17:59Z</time>
      </trkpt>
      <trkpt lat="43.54773" lon="3.84399">
        <ele>7</ele>
        <time>2021-01-01T11:18:00Z</time>
      </trkpt>
      <trkpt lat="43.54768" lon="3.84391">
        <ele>7</ele>
        <time>2021-01-01T11:18:01Z</time>
      </trkpt>
      <trkpt lat="43.54763" lon="3.84384">
        <ele>7</ele>
        <time>2021-01-01T11:18:02Z</time>
      </trkpt>
      <trkpt lat="43.54757" lon="3.84377">
        <ele>7</ele>
        <time>2021-01-01T11:18:03Z</time>
      </trkpt>
      <trkpt lat="43.54752" lon="3.84371">
        <ele>7</ele>
        <time>2021-01-01T11:18:04Z</time>
      </trkpt>
      <trkpt lat="43.54747" lon="3.84364">
        <ele>7</ele>
        <time>2021-01-01T11:18:05Z</time>
      </trkpt>
      <trkpt lat="43.54742" lon="3.84357">
        <ele>7</ele>
        <time>2021-01-01T11:18:06Z</time>
      </trkpt>
      <trkpt lat="43.54737" lon="3.8435">
        <ele>7</ele>
        <time>2021-01-01T11:18:07Z</time>
      </trkpt>
      <trkpt lat="43.54732" lon="3.84343">
        <ele>7</ele>
        <time>2021-01-01T11:18:08Z</time>
      </trkpt>
      <trkpt lat="43.54727" lon="3.84337">
        <ele>6</ele>
        <time>2021-01-01T11:18:09Z</time>
      </trkpt>
      <trkpt lat="43.54722" lon="3.84331">
        <ele>6</ele>
        <time>2021-01-01T11:18:10Z</time>
      </trkpt>
      <trkpt lat="43.54717" lon="3.84325">
        <ele>6</ele>
        <time>2021-01-01T11:18:11Z</time>
      </trkpt>
      <trkpt lat="43.54714" lon="3.84319">
        <ele>5</ele>
        <time>2021-01-01T11:18:12Z</time>
      </trkpt>
      <trkpt lat="43.54709" lon="3.84313">
        <ele>5</ele>
        <time>2021-01-01T11:18:13Z</time>
      </trkpt>
      <trkpt lat="43.54705" lon="3.84307">
        <ele>5</ele>
        <time>2021-01-01T11:18:14Z</time>
      </trkpt>
      <trkpt lat="43.54701" lon="3.84302">
        <ele>5</ele>
        <time>2021-01-01T11:18:15Z</time>
      </trkpt>
      <trkpt lat="43.54697" lon="3.84296">
        <ele>5</ele>
        <time>2021-01-01T11:18:16Z</time>
      </trkpt>
      <trkpt lat="43.54694" lon="3.8429">
        <ele>5</ele>
        <time>2021-01-01T11:18:17Z</time>
      </trkpt>
      <trkpt lat="43.54689" lon="3.84284">
        <ele>8</ele>
        <time>2021-01-01T11:18:18Z</time>
      </trkpt>
      <trkpt lat="43.54684" lon="3.84277">
        <ele>9</ele>
        <time>2021-01-01T11:18:19Z</time>
      </trkpt>
      <trkpt lat="43.5468" lon="3.84271">
        <ele>10</ele>
        <time>2021-01-01T11:18:20Z</time>
      </trkpt>
      <trkpt lat="43.54676" lon="3.84265">
        <ele>11</ele>
        <time>2021-01-01T11:18:21Z</time>
      </trkpt>
      <trkpt lat="43.54672" lon="3.84259">
        <ele>11</ele>
        <time>2021-01-01T11:18:22Z</time>
      </trkpt>
      <trkpt lat="43.54668" lon="3.84252">
        <ele>9</ele>
        <time>2021-01-01T11:18:23Z</time>
      </trkpt>
      <trkpt lat="43.54663" lon="3.84245">
        <ele>8</ele>
        <time>2021-01-01T11:18:24Z</time>
      </trkpt>
      <trkpt lat="43.54659" lon="3.84239">
        <ele>8</ele>
        <time>2021-01-01T11:18:25Z</time>
      </trkpt>
      <trkpt lat="43.54655" lon="3.84232">
        <ele>8</ele>
        <time>2021-01-01T11:18:26Z</time>
      </trkpt>
      <trkpt lat="43.54651" lon="3.84224">
        <ele>8</ele>
        <time>2021-01-01T11:18:27Z</time>
      </trkpt>
      <trkpt lat="43.54649" lon="3.84216">
        <ele>8</ele>
        <time>2021-01-01T11:18:28Z</time>
      </trkpt>
      <trkpt lat="43.54645" lon="3.84208">
        <ele>8</ele>
        <time>2021-01-01T11:18:29Z</time>
      </trkpt>
      <trkpt lat="43.54642" lon="3.842">
        <ele>8</ele>
        <time>2021-01-01T11:18:30Z</time>
      </trkpt>
      <trkpt lat="43.54639" lon="3.84193">
        <ele>9</ele>
        <time>2021-01-01T11:18:31Z</time>
      </trkpt>
      <trkpt lat="43.54635" lon="3.84186">
        <ele>9</ele>
        <time>2021-01-01T11:18:32Z</time>
      </trkpt>
      <trkpt lat="43.54632" lon="3.84178">
        <ele>9</ele>
        <time>2021-01-01T11:18:33Z</time>
      </trkpt>
      <trkpt lat="43.54629" lon="3.84171">
        <ele>9</ele>
        <time>2021-01-01T11:18:34Z</time>
      </trkpt>
      <trkpt lat="43.54626" lon="3.84163">
        <ele>9</ele>
        <time>2021-01-01T11:18:35Z</time>
      </trkpt>
      <trkpt lat="43.54623" lon="3.84155">
        <ele>9</ele>
        <time>2021-01-01T11:18:36Z</time>
      </trkpt>
      <trkpt lat="43.54621" lon="3.84149">
        <ele>9</ele>
        <time>2021-01-01T11:18:37Z</time>
      </trkpt>
      <trkpt lat="43.54618" lon="3.84141">
        <ele>9</ele>
        <time>2021-01-01T11:18:38Z</time>
      </trkpt>
      <trkpt lat="43.54615" lon="3.84135">
        <ele>9</ele>
        <time>2021-01-01T11:18:39Z</time>
      </trkpt>
      <trkpt lat="43.54614" lon="3.84129">
        <ele>8</ele>
        <time>2021-01-01T11:18:40Z</time>
      </trkpt>
      <trkpt lat="43.5461" lon="3.84123">
        <ele>8</ele>
        <time>2021-01-01T11:18:41Z</time>
      </trkpt>
      <trkpt lat="43.54607" lon="3.84116">
        <ele>8</ele>
        <time>2021-01-01T11:18:42Z</time>
      </trkpt>
      <trkpt lat="43.54603" lon="3.84109">
        <ele>8</ele>
        <time>2021-01-01T11:18:43Z</time>
      </trkpt>
      <trkpt lat="43.54599" lon="3.84103">
        <ele>8</ele>
        <time>2021-01-01T11:18:44Z</time>
      </trkpt>
      <trkpt lat="43.54597" lon="3.84097">
        <ele>8</ele>
        <time>2021-01-01T11:18:45Z</time>
      </trkpt>
      <trkpt lat="43.54593" lon="3.8409">
        <ele>8</ele>
        <time>2021-01-01T11:18:46Z</time>
      </trkpt>
      <trkpt lat="43.54588" lon="3.84082">
        <ele>8</ele>
        <time>2021-01-01T11:18:47Z</time>
      </trkpt>
      <trkpt lat="43.54585" lon="3.84076">
        <ele>8</ele>
        <time>2021-01-01T11:18:48Z</time>
      </trkpt>
      <trkpt lat="43.54582" lon="3.84068">
        <ele>8</ele>
        <time>2021-01-01T11:18:49Z</time>
      </trkpt>
      <trkpt lat="43.54577" lon="3.84062">
        <ele>9</ele>
        <time>2021-01-01T11:18:50Z</time>
      </trkpt>
      <trkpt lat="43.54573" lon="3.84056">
        <ele>9</ele>
        <time>2021-01-01T11:18:51Z</time>
      </trkpt>
      <trkpt lat="43.54568" lon="3.84049">
        <ele>8</ele>
        <time>2021-01-01T11:18:52Z</time>
      </trkpt>
      <trkpt lat="43.54564" lon="3.84043">
        <ele>8</ele>
        <time>2021-01-01T11:18:53Z</time>
      </trkpt>
      <trkpt lat="43.54561" lon="3.84038">
        <ele>8</ele>
        <time>2021-01-01T11:18:54Z</time>
      </trkpt>
      <trkpt lat="43.54557" lon="3.84031">
        <ele>8</ele>
        <time>2021-01-01T11:18:55Z</time>
      </trkpt>
      <trkpt lat="43.54553" lon="3.84025">
        <ele>9</ele>
        <time>2021-01-01T11:18:56Z</time>
      </trkpt>
      <trkpt lat="43.54549" lon="3.84019">
        <ele>9</ele>
        <time>2021-01-01T11:18:57Z</time>
      </trkpt>
      <trkpt lat="43.54544" lon="3.84013">
        <ele>9</ele>
        <time>2021-01-01T11:18:58Z</time>
      </trkpt>
      <trkpt lat="43.5454" lon="3.84007">
        <ele>10</ele>
        <time>2021-01-01T11:18:59Z</time>
      </trkpt>
      <trkpt lat="43.54536" lon="3.84002">
        <ele>10</ele>
        <time>2021-01-01T11:19:00Z</time>
      </trkpt>
      <trkpt lat="43.54531" lon="3.83997">
        <ele>11</ele>
        <time>2021-01-01T11:19:01Z</time>
      </trkpt>
      <trkpt lat="43.54527" lon="3.83991">
        <ele>11</ele>
        <time>2021-01-01T11:19:02Z</time>
      </trkpt>
      <trkpt lat="43.54522" lon="3.83986">
        <ele>12</ele>
        <time>2021-01-01T11:19:03Z</time>
      </trkpt>
      <trkpt lat="43.54518" lon="3.83981">
        <ele>12</ele>
        <time>2021-01-01T11:19:04Z</time>
      </trkpt>
      <trkpt lat="43.54514" lon="3.83976">
        <ele>13</ele>
        <time>2021-01-01T11:19:05Z</time>
      </trkpt>
      <trkpt lat="43.5451" lon="3.83971">
        <ele>13</ele>
        <time>2021-01-01T11:19:06Z</time>
      </trkpt>
      <trkpt lat="43.54506" lon="3.83966">
        <ele>14</ele>
        <time>2021-01-01T11:19:07Z</time>
      </trkpt>
      <trkpt lat="43.54502" lon="3.83961">
        <ele>14</ele>
        <time>2021-01-01T11:19:08Z</time>
      </trkpt>
      <trkpt lat="43.54498" lon="3.83957">
        <ele>14</ele>
        <time>2021-01-01T11:19:09Z</time>
      </trkpt>
      <trkpt lat="43.54493" lon="3.83952">
        <ele>14</ele>
        <time>2021-01-01T11:19:10Z</time>
      </trkpt>
      <trkpt lat="43.54489" lon="3.83947">
        <ele>14</ele>
        <time>2021-01-01T11:19:11Z</time>
      </trkpt>
      <trkpt lat="43.54484" lon="3.83942">
        <ele>14</ele>
        <time>2021-01-01T11:19:12Z</time>
      </trkpt>
      <trkpt lat="43.5448" lon="3.83936">
        <ele>14</ele>
        <time>2021-01-01T11:19:13Z</time>
      </trkpt>
      <trkpt lat="43.54475" lon="3.8393">
        <ele>14</ele>
        <time>2021-01-01T11:19:14Z</time>
      </trkpt>
      <trkpt lat="43.5447" lon="3.83925">
        <ele>14</ele>
        <time>2021-01-01T11:19:15Z</time>
      </trkpt>
      <trkpt lat="43.54466" lon="3.8392">
        <ele>13</ele>
        <time>2021-01-01T11:19:16Z</time>
      </trkpt>
      <trkpt lat="43.54461" lon="3.83915">
        <ele>13</ele>
        <time>2021-01-01T11:19:17Z</time>
      </trkpt>
      <trkpt lat="43.54455" lon="3.83911">
        <ele>13</ele>
        <time>2021-01-01T11:19:18Z</time>
      </trkpt>
      <trkpt lat="43.5445" lon="3.83906">
        <ele>13</ele>
        <time>2021-01-01T11:19:19Z</time>
      </trkpt>
      <trkpt lat="43.54443" lon="3.83901">
        <ele>13</ele>
        <time>2021-01-01T11:19:20Z</time>
      </trkpt>
      <trkpt lat="43.54438" lon="3.83897">
        <ele>13</ele>
        <time>2021-01-01T11:19:21Z</time>
      </trkpt>
      <trkpt lat="43.54433" lon="3.83893">
        <ele>13</ele>
        <time>2021-01-01T11:19:22Z</time>
      </trkpt>
      <trkpt lat="43.54427" lon="3.83887">
        <ele>13</ele>
        <time>2021-01-01T11:19:23Z</time>
      </trkpt>
      <trkpt lat="43.54422" lon="3.83883">
        <ele>13</ele>
        <time>2021-01-01T11:19:24Z</time>
      </trkpt>
      <trkpt lat="43.54416" lon="3.83879">
        <ele>13</ele>
        <time>2021-01-01T11:19:25Z</time>
      </trkpt>
      <trkpt lat="43.54411" lon="3.83875">
        <ele>13</ele>
        <time>2021-01-01T11:19:26Z</time>
      </trkpt>
      <trkpt lat="43.54405" lon="3.83871">
        <ele>13</ele>
        <time>2021-01-01T11:19:27Z</time>
      </trkpt>
      <trkpt lat="43.544" lon="3.83867">
        <ele>12</ele>
        <time>2021-01-01T11:19:28Z</time>
      </trkpt>
      <trkpt lat="43.54395" lon="3.83863">
        <ele>12</ele>
        <time>2021-01-01T11:19:29Z</time>
      </trkpt>
      <trkpt lat="43.5439" lon="3.8386">
        <ele>13</ele>
        <time>2021-01-01T11:19:30Z</time>
      </trkpt>
      <trkpt lat="43.54384" lon="3.83856">
        <ele>13</ele>
        <time>2021-01-01T11:19:31Z</time>
      </trkpt>
      <trkpt lat="43.5438" lon="3.83854">
        <ele>13</ele>
        <time>2021-01-01T11:19:32Z</time>
      </trkpt>
      <trkpt lat="43.54375" lon="3.83853">
        <ele>14</ele>
        <time>2021-01-01T11:19:33Z</time>
      </trkpt>
      <trkpt lat="43.54369" lon="3.83849">
        <ele>14</ele>
        <time>2021-01-01T11:19:35Z</time>
      </trkpt>
      <trkpt lat="43.54366" lon="3.83842">
        <ele>14</ele>
        <time>2021-01-01T11:19:37Z</time>
      </trkpt>
      <trkpt lat="43.54362" lon="3.83836">
        <ele>14</ele>
        <time>2021-01-01T11:19:39Z</time>
      </trkpt>
      <trkpt lat="43.54358" lon="3.83843">
        <ele>13</ele>
        <time>2021-01-01T11:19:42Z</time>
      </trkpt>
      <trkpt lat="43.54355" lon="3.83848">
        <ele>12</ele>
        <time>2021-01-01T11:19:44Z</time>
      </trkpt>
      <trkpt lat="43.54349" lon="3.83848">
        <ele>10</ele>
        <time>2021-01-01T11:19:47Z</time>
      </trkpt>
      <trkpt lat="43.54346" lon="3.83853">
        <ele>9</ele>
        <time>2021-01-01T11:19:51Z</time>
      </trkpt>
      <trkpt lat="43.54346" lon="3.83863">
        <ele>7</ele>
        <time>2021-01-01T11:19:53Z</time>
      </trkpt>
      <trkpt lat="43.54344" lon="3.83874">
        <ele>6</ele>
        <time>2021-01-01T11:19:55Z</time>
      </trkpt>
      <trkpt lat="43.5434" lon="3.83887">
        <ele>6</ele>
        <time>2021-01-01T11:19:57Z</time>
      </trkpt>
      <trkpt lat="43.54337" lon="3.83893">
        <ele>5</ele>
        <time>2021-01-01T11:19:58Z</time>
      </trkpt>
      <trkpt lat="43.54334" lon="3.83899">
        <ele>5</ele>
        <time>2021-01-01T11:19:59Z</time>
      </trkpt>
      <trkpt lat="43.54331" lon="3.83904">
        <ele>5</ele>
        <time>2021-01-01T11:20:00Z</time>
      </trkpt>
      <trkpt lat="43.54328" lon="3.83909">
        <ele>5</ele>
        <time>2021-01-01T11:20:01Z</time>
      </trkpt>
      <trkpt lat="43.54325" lon="3.83916">
        <ele>5</ele>
        <time>2021-01-01T11:20:02Z</time>
      </trkpt>
      <trkpt lat="43.54321" lon="3.83921">
        <ele>5</ele>
        <time>2021-01-01T11:20:03Z</time>
      </trkpt>
      <trkpt lat="43.54316" lon="3.83927">
        <ele>6</ele>
        <time>2021-01-01T11:20:04Z</time>
      </trkpt>
      <trkpt lat="43.54311" lon="3.83931">
        <ele>6</ele>
        <time>2021-01-01T11:20:05Z</time>
      </trkpt>
      <trkpt lat="43.54307" lon="3.83936">
        <ele>6</ele>
        <time>2021-01-01T11:20:06Z</time>
      </trkpt>
      <trkpt lat="43.54302" lon="3.83938">
        <ele>6</ele>
        <time>2021-01-01T11:20:07Z</time>
      </trkpt>
      <trkpt lat="43.54295" lon="3.83941">
        <ele>6</ele>
        <time>2021-01-01T11:20:08Z</time>
      </trkpt>
      <trkpt lat="43.5429" lon="3.83943">
        <ele>6</ele>
        <time>2021-01-01T11:20:09Z</time>
      </trkpt>
      <trkpt lat="43.54284" lon="3.83942">
        <ele>6</ele>
        <time>2021-01-01T11:20:10Z</time>
      </trkpt>
      <trkpt lat="43.54278" lon="3.83943">
        <ele>6</ele>
        <time>2021-01-01T11:20:11Z</time>
      </trkpt>
      <trkpt lat="43.54273" lon="3.83942">
        <ele>6</ele>
        <time>2021-01-01T11:20:12Z</time>
      </trkpt>
      <trkpt lat="43.54266" lon="3.83941">
        <ele>6</ele>
        <time>2021-01-01T11:20:13Z</time>
      </trkpt>
      <trkpt lat="43.5426" lon="3.8394">
        <ele>6</ele>
        <time>2021-01-01T11:20:14Z</time>
      </trkpt>
      <trkpt lat="43.54255" lon="3.83938">
        <ele>7</ele>
        <time>2021-01-01T11:20:15Z</time>
      </trkpt>
      <trkpt lat="43.54248" lon="3.83936">
        <ele>7</ele>
        <time>2021-01-01T11:20:16Z</time>
      </trkpt>
      <trkpt lat="43.54241" lon="3.83932">
        <ele>7</ele>
        <time>2021-01-01T11:20:17Z</time>
      </trkpt>
      <trkpt lat="43.54235" lon="3.83929">
        <ele>7</ele>
        <time>2021-01-01T11:20:18Z</time>
      </trkpt>
      <trkpt lat="43.5423" lon="3.83928">
        <ele>7</ele>
        <time>2021-01-01T11:20:19Z</time>
      </trkpt>
      <trkpt lat="43.54224" lon="3.8393">
        <ele>7</ele>
        <time>2021-01-01T11:20:20Z</time>
      </trkpt>
      <trkpt lat="43.54221" lon="3.83934">
        <ele>7</ele>
        <time>2021-01-01T11:20:21Z</time>
      </trkpt>
      <trkpt lat="43.54219" lon="3.83941">
        <ele>7</ele>
        <time>2021-01-01T11:20:22Z</time>
      </trkpt>
      <trkpt lat="43.54216" lon="3.83953">
        <ele>7</ele>
        <time>2021-01-01T11:20:24Z</time>
      </trkpt>
      <trkpt lat="43.54215" lon="3.83959">
        <ele>7</ele>
        <time>2021-01-01T11:20:25Z</time>
      </trkpt>
      <trkpt lat="43.54209" lon="3.83968">
        <ele>7</ele>
        <time>2021-01-01T11:20:27Z</time>
      </trkpt>
      <trkpt lat="43.54205" lon="3.83972">
        <ele>7</ele>
        <time>2021-01-01T11:20:28Z</time>
      </trkpt>
      <trkpt lat="43.54201" lon="3.83977">
        <ele>7</ele>
        <time>2021-01-01T11:20:29Z</time>
      </trkpt>
      <trkpt lat="43.54198" lon="3.83982">
        <ele>7</ele>
        <time>2021-01-01T11:20:30Z</time>
      </trkpt>
      <trkpt lat="43.54194" lon="3.83993">
        <ele>7</ele>
        <time>2021-01-01T11:20:32Z</time>
      </trkpt>
      <trkpt lat="43.54191" lon="3.83999">
        <ele>7</ele>
        <time>2021-01-01T11:20:33Z</time>
      </trkpt>
      <trkpt lat="43.54189" lon="3.84005">
        <ele>8</ele>
        <time>2021-01-01T11:20:34Z</time>
      </trkpt>
      <trkpt lat="43.54186" lon="3.8401">
        <ele>8</ele>
        <time>2021-01-01T11:20:35Z</time>
      </trkpt>
      <trkpt lat="43.54182" lon="3.84016">
        <ele>8</ele>
        <time>2021-01-01T11:20:36Z</time>
      </trkpt>
      <trkpt lat="43.5418" lon="3.84027">
        <ele>8</ele>
        <time>2021-01-01T11:20:38Z</time>
      </trkpt>
      <trkpt lat="43.54179" lon="3.84035">
        <ele>9</ele>
        <time>2021-01-01T11:20:40Z</time>
      </trkpt>
      <trkpt lat="43.54175" lon="3.84037">
        <ele>10</ele>
        <time>2021-01-01T11:20:44Z</time>
      </trkpt>
      <trkpt lat="43.54169" lon="3.84037">
        <ele>10</ele>
        <time>2021-01-01T11:20:47Z</time>
      </trkpt>
      <trkpt lat="43.54165" lon="3.84036">
        <ele>11</ele>
        <time>2021-01-01T11:20:49Z</time>
      </trkpt>
      <trkpt lat="43.5416" lon="3.84035">
        <ele>12</ele>
        <time>2021-01-01T11:20:51Z</time>
      </trkpt>
      <trkpt lat="43.54155" lon="3.84033">
        <ele>11</ele>
        <time>2021-01-01T11:20:53Z</time>
      </trkpt>
      <trkpt lat="43.54149" lon="3.84032">
        <ele>11</ele>
        <time>2021-01-01T11:20:55Z</time>
      </trkpt>
      <trkpt lat="43.54143" lon="3.84031">
        <ele>11</ele>
        <time>2021-01-01T11:20:57Z</time>
      </trkpt>
      <trkpt lat="43.54137" lon="3.84031">
        <ele>11</ele>
        <time>2021-01-01T11:20:59Z</time>
      </trkpt>
      <trkpt lat="43.54131" lon="3.84034">
        <ele>11</ele>
        <time>2021-01-01T11:21:01Z</time>
      </trkpt>
      <trkpt lat="43.54125" lon="3.84036">
        <ele>11</ele>
        <time>2021-01-01T11:21:03Z</time>
      </trkpt>
      <trkpt lat="43.5412" lon="3.84038">
        <ele>11</ele>
        <time>2021-01-01T11:21:05Z</time>
      </trkpt>
      <trkpt lat="43.54114" lon="3.84041">
        <ele>11</ele>
        <time>2021-01-01T11:21:08Z</time>
      </trkpt>
      <trkpt lat="43.54117" lon="3.84035">
        <ele>10</ele>
        <time>2021-01-01T11:21:21Z</time>
      </trkpt>
      <trkpt lat="43.54123" lon="3.84033">
        <ele>10</ele>
        <time>2021-01-01T11:21:24Z</time>
      </trkpt>
      <trkpt lat="43.54128" lon="3.84031">
        <ele>10</ele>
        <time>2021-01-01T11:21:27Z</time>
      </trkpt>
      <trkpt lat="43.54133" lon="3.84029">
        <ele>9</ele>
        <time>2021-01-01T11:21:30Z</time>
      </trkpt>
      <trkpt lat="43.54139" lon="3.84028">
        <ele>9</ele>
        <time>2021-01-01T11:21:32Z</time>
      </trkpt>
      <trkpt lat="43.54145" lon="3.84029">
        <ele>9</ele>
        <time>2021-01-01T11:21:34Z</time>
      </trkpt>
      <trkpt lat="43.54151" lon="3.8403">
        <ele>9</ele>
        <time>2021-01-01T11:21:36Z</time>
      </trkpt>
      <trkpt lat="43.54157" lon="3.84032">
        <ele>10</ele>
        <time>2021-01-01T11:21:38Z</time>
      </trkpt>
      <trkpt lat="43.54162" lon="3.84033">
        <ele>10</ele>
        <time>2021-01-01T11:21:40Z</time>
      </trkpt>
      <trkpt lat="43.54167" lon="3.84035">
        <ele>10</ele>
        <time>2021-01-01T11:21:42Z</time>
      </trkpt>
      <trkpt lat="43.54172" lon="3.84037">
        <ele>10</ele>
        <time>2021-01-01T11:21:44Z</time>
      </trkpt>
      <trkpt lat="43.54176" lon="3.84036">
        <ele>10</ele>
        <time>2021-01-01T11:21:46Z</time>
      </trkpt>
      <trkpt lat="43.5418" lon="3.84029">
        <ele>10</ele>
        <time>2021-01-01T11:21:48Z</time>
      </trkpt>
      <trkpt lat="43.54183" lon="3.84017">
        <ele>10</ele>
        <time>2021-01-01T11:21:50Z</time>
      </trkpt>
      <trkpt lat="43.54185" lon="3.84009">
        <ele>9</ele>
        <time>2021-01-01T11:21:51Z</time>
      </trkpt>
      <trkpt lat="43.54188" lon="3.84002">
        <ele>9</ele>
        <time>2021-01-01T11:21:52Z</time>
      </trkpt>
      <trkpt lat="43.54192" lon="3.83995">
        <ele>8</ele>
        <time>2021-01-01T11:21:53Z</time>
      </trkpt>
      <trkpt lat="43.54196" lon="3.83989">
        <ele>8</ele>
        <time>2021-01-01T11:21:54Z</time>
      </trkpt>
      <trkpt lat="43.54199" lon="3.83982">
        <ele>7</ele>
        <time>2021-01-01T11:21:55Z</time>
      </trkpt>
      <trkpt lat="43.54203" lon="3.83974">
        <ele>7</ele>
        <time>2021-01-01T11:21:56Z</time>
      </trkpt>
      <trkpt lat="43.54207" lon="3.83966">
        <ele>7</ele>
        <time>2021-01-01T11:21:57Z</time>
      </trkpt>
      <trkpt lat="43.54212" lon="3.83958">
        <ele>6</ele>
        <time>2021-01-01T11:21:58Z</time>
      </trkpt>
      <trkpt lat="43.54215" lon="3.83949">
        <ele>6</ele>
        <time>2021-01-01T11:21:59Z</time>
      </trkpt>
      <trkpt lat="43.54218" lon="3.83941">
        <ele>6</ele>
        <time>2021-01-01T11:22:00Z</time>
      </trkpt>
      <trkpt lat="43.54221" lon="3.83934">
        <ele>6</ele>
        <time>2021-01-01T11:22:01Z</time>
      </trkpt>
      <trkpt lat="43.54222" lon="3.83928">
        <ele>5</ele>
        <time>2021-01-01T11:22:03Z</time>
      </trkpt>
      <trkpt lat="43.54217" lon="3.83922">
        <ele>5</ele>
        <time>2021-01-01T11:22:10Z</time>
      </trkpt>
      <trkpt lat="43.54213" lon="3.83922">
        <ele>4</ele>
        <time>2021-01-01T11:22:13Z</time>
      </trkpt>
      <trkpt lat="43.54207" lon="3.83921">
        <ele>4</ele>
        <time>2021-01-01T11:22:17Z</time>
      </trkpt>
      <trkpt lat="43.542" lon="3.8392">
        <ele>4</ele>
        <time>2021-01-01T11:22:19Z</time>
      </trkpt>
      <trkpt lat="43.54192" lon="3.83919">
        <ele>4</ele>
        <time>2021-01-01T11:22:20Z</time>
      </trkpt>
      <trkpt lat="43.54187" lon="3.83918">
        <ele>3</ele>
        <time>2021-01-01T11:22:22Z</time>
      </trkpt>
      <trkpt lat="43.54182" lon="3.83917">
        <ele>4</ele>
        <time>2021-01-01T11:22:25Z</time>
      </trkpt>
      <trkpt lat="43.54186" lon="3.83918">
        <ele>4</ele>
        <time>2021-01-01T11:22:30Z</time>
      </trkpt>
      <trkpt lat="43.54191" lon="3.83919">
        <ele>4</ele>
        <time>2021-01-01T11:22:32Z</time>
      </trkpt>
      <trkpt lat="43.54196" lon="3.83919">
        <ele>4</ele>
        <time>2021-01-01T11:22:34Z</time>
      </trkpt>
      <trkpt lat="43.54201" lon="3.83921">
        <ele>3</ele>
        <time>2021-01-01T11:22:36Z</time>
      </trkpt>
      <trkpt lat="43.54206" lon="3.83922">
        <ele>3</ele>
        <time>2021-01-01T11:22:38Z</time>
      </trkpt>
      <trkpt lat="43.5421" lon="3.83926">
        <ele>3</ele>
        <time>2021-01-01T11:22:41Z</time>
      </trkpt>
      <trkpt lat="43.54205" lon="3.83922">
        <ele>3</ele>
        <time>2021-01-01T11:22:46Z</time>
      </trkpt>
      <trkpt lat="43.54207" lon="3.83915">
        <ele>4</ele>
        <time>2021-01-01T11:22:49Z</time>
      </trkpt>
      <trkpt lat="43.54211" lon="3.83909">
        <ele>4</ele>
        <time>2021-01-01T11:22:52Z</time>
      </trkpt>
      <trkpt lat="43.54214" lon="3.83903">
        <ele>4</ele>
        <time>2021-01-01T11:22:54Z</time>
      </trkpt>
      <trkpt lat="43.54216" lon="3.83897">
        <ele>5</ele>
        <time>2021-01-01T11:22:56Z</time>
      </trkpt>
      <trkpt lat="43.54219" lon="3.8389">
        <ele>5</ele>
        <time>2021-01-01T11:22:59Z</time>
      </trkpt>
      <trkpt lat="43.54223" lon="3.83883">
        <ele>5</ele>
        <time>2021-01-01T11:23:02Z</time>
      </trkpt>
      <trkpt lat="43.54225" lon="3.83875">
        <ele>5</ele>
        <time>2021-01-01T11:23:05Z</time>
      </trkpt>
      <trkpt lat="43.54226" lon="3.83867">
        <ele>6</ele>
        <time>2021-01-01T11:23:08Z</time>
      </trkpt>
      <trkpt lat="43.54226" lon="3.83861">
        <ele>6</ele>
        <time>2021-01-01T11:23:11Z</time>
      </trkpt>
      <trkpt lat="43.5423" lon="3.83855">
        <ele>6</ele>
        <time>2021-01-01T11:23:15Z</time>
      </trkpt>
      <trkpt lat="43.54236" lon="3.83856">
        <ele>6</ele>
        <time>2021-01-01T11:23:19Z</time>
      </trkpt>
      <trkpt lat="43.5424" lon="3.83859">
        <ele>6</ele>
        <time>2021-01-01T11:23:22Z</time>
      </trkpt>
      <trkpt lat="43.54245" lon="3.83861">
        <ele>6</ele>
        <time>2021-01-01T11:23:25Z</time>
      </trkpt>
      <trkpt lat="43.5425" lon="3.83863">
        <ele>7</ele>
        <time>2021-01-01T11:23:28Z</time>
      </trkpt>
      <trkpt lat="43.54255" lon="3.83865">
        <ele>7</ele>
        <time>2021-01-01T11:23:31Z</time>
      </trkpt>
      <trkpt lat="43.54261" lon="3.83867">
        <ele>8</ele>
        <time>2021-01-01T11:23:34Z</time>
      </trkpt>
      <trkpt lat="43.54266" lon="3.83868">
        <ele>8</ele>
        <time>2021-01-01T11:23:36Z</time>
      </trkpt>
      <trkpt lat="43.54271" lon="3.83869">
        <ele>8</ele>
        <time>2021-01-01T11:23:38Z</time>
      </trkpt>
      <trkpt lat="43.54276" lon="3.83871">
        <ele>8</ele>
        <time>2021-01-01T11:23:40Z</time>
      </trkpt>
      <trkpt lat="43.54281" lon="3.83873">
        <ele>7</ele>
        <time>2021-01-01T11:23:42Z</time>
      </trkpt>
      <trkpt lat="43.54288" lon="3.83875">
        <ele>7</ele>
        <time>2021-01-01T11:23:44Z</time>
      </trkpt>
      <trkpt lat="43.54295" lon="3.83876">
        <ele>7</ele>
        <time>2021-01-01T11:23:46Z</time>
      </trkpt>
      <trkpt lat="43.54301" lon="3.83877">
        <ele>7</ele>
        <time>2021-01-01T11:23:48Z</time>
      </trkpt>
      <trkpt lat="43.54307" lon="3.83879">
        <ele>7</ele>
        <time>2021-01-01T11:23:50Z</time>
      </trkpt>
      <trkpt lat="43.54313" lon="3.83881">
        <ele>7</ele>
        <time>2021-01-01T11:23:52Z</time>
      </trkpt>
      <trkpt lat="43.54318" lon="3.83884">
        <ele>7</ele>
        <time>2021-01-01T11:23:54Z</time>
      </trkpt>
      <trkpt lat="43.54324" lon="3.83887">
        <ele>6</ele>
        <time>2021-01-01T11:23:58Z</time>
      </trkpt>
      <trkpt lat="43.5433" lon="3.83888">
        <ele>6</ele>
        <time>2021-01-01T11:24:00Z</time>
      </trkpt>
      <trkpt lat="43.54335" lon="3.83887">
        <ele>6</ele>
        <time>2021-01-01T11:24:02Z</time>
      </trkpt>
      <trkpt lat="43.5434" lon="3.83883">
        <ele>6</ele>
        <time>2021-01-01T11:24:04Z</time>
      </trkpt>
      <trkpt lat="43.54342" lon="3.83871">
        <ele>6</ele>
        <time>2021-01-01T11:24:06Z</time>
      </trkpt>
      <trkpt lat="43.54345" lon="3.83864">
        <ele>6</ele>
        <time>2021-01-01T11:24:08Z</time>
      </trkpt>
      <trkpt lat="43.54344" lon="3.83855">
        <ele>6</ele>
        <time>2021-01-01T11:24:10Z</time>
      </trkpt>
      <trkpt lat="43.54342" lon="3.83846">
        <ele>7</ele>
        <time>2021-01-01T11:24:12Z</time>
      </trkpt>
      <trkpt lat="43.54341" lon="3.83837">
        <ele>7</ele>
        <time>2021-01-01T11:24:14Z</time>
      </trkpt>
      <trkpt lat="43.54338" lon="3.83829">
        <ele>7</ele>
        <time>2021-01-01T11:24:17Z</time>
      </trkpt>
      <trkpt lat="43.54327" lon="3.83814">
        <ele>6</ele>
        <time>2021-01-01T11:24:19Z</time>
      </trkpt>
      <trkpt lat="43.54323" lon="3.83811">
        <ele>6</ele>
        <time>2021-01-01T11:24:20Z</time>
      </trkpt>
      <trkpt lat="43.54318" lon="3.83807">
        <ele>6</ele>
        <time>2021-01-01T11:24:21Z</time>
      </trkpt>
      <trkpt lat="43.54313" lon="3.83805">
        <ele>6</ele>
        <time>2021-01-01T11:24:22Z</time>
      </trkpt>
      <trkpt lat="43.54308" lon="3.83802">
        <ele>6</ele>
        <time>2021-01-01T11:24:23Z</time>
      </trkpt>
      <trkpt lat="43.54303" lon="3.83799">
        <ele>6</ele>
        <time>2021-01-01T11:24:24Z</time>
      </trkpt>
      <trkpt lat="43.54299" lon="3.83795">
        <ele>6</ele>
        <time>2021-01-01T11:24:25Z</time>
      </trkpt>
      <trkpt lat="43.54294" lon="3.83794">
        <ele>6</ele>
        <time>2021-01-01T11:24:26Z</time>
      </trkpt>
      <trkpt lat="43.54289" lon="3.83791">
        <ele>5</ele>
        <time>2021-01-01T11:24:27Z</time>
      </trkpt>
      <trkpt lat="43.54284" lon="3.83788">
        <ele>5</ele>
        <time>2021-01-01T11:24:28Z</time>
      </trkpt>
      <trkpt lat="43.5428" lon="3.83785">
        <ele>5</ele>
        <time>2021-01-01T11:24:29Z</time>
      </trkpt>
      <trkpt lat="43.54275" lon="3.83782">
        <ele>5</ele>
        <time>2021-01-01T11:24:30Z</time>
      </trkpt>
      <trkpt lat="43.54271" lon="3.83778">
        <ele>4</ele>
        <time>2021-01-01T11:24:31Z</time>
      </trkpt>
      <trkpt lat="43.54265" lon="3.83775">
        <ele>4</ele>
        <time>2021-01-01T11:24:32Z</time>
      </trkpt>
      <trkpt lat="43.5426" lon="3.83773">
        <ele>5</ele>
        <time>2021-01-01T11:24:33Z</time>
      </trkpt>
      <trkpt lat="43.54254" lon="3.83769">
        <ele>5</ele>
        <time>2021-01-01T11:24:34Z</time>
      </trkpt>
      <trkpt lat="43.54248" lon="3.83766">
        <ele>4</ele>
        <time>2021-01-01T11:24:35Z</time>
      </trkpt>
      <trkpt lat="43.54243" lon="3.83763">
        <ele>4</ele>
        <time>2021-01-01T11:24:36Z</time>
      </trkpt>
      <trkpt lat="43.54237" lon="3.83759">
        <ele>4</ele>
        <time>2021-01-01T11:24:37Z</time>
      </trkpt>
      <trkpt lat="43.54232" lon="3.83758">
        <ele>4</ele>
        <time>2021-01-01T11:24:38Z</time>
      </trkpt>
      <trkpt lat="43.54228" lon="3.83754">
        <ele>3</ele>
        <time>2021-01-01T11:24:39Z</time>
      </trkpt>
      <trkpt lat="43.54223" lon="3.8375">
        <ele>3</ele>
        <time>2021-01-01T11:24:40Z</time>
      </trkpt>
      <trkpt lat="43.54219" lon="3.83748">
        <ele>3</ele>
        <time>2021-01-01T11:24:41Z</time>
      </trkpt>
      <trkpt lat="43.54214" lon="3.83744">
        <ele>3</ele>
        <time>2021-01-01T11:24:42Z</time>
      </trkpt>
      <trkpt lat="43.54209" lon="3.83743">
        <ele>2</ele>
        <time>2021-01-01T11:24:43Z</time>
      </trkpt>
      <trkpt lat="43.54202" lon="3.83748">
        <ele>2</ele>
        <time>2021-01-01T11:24:45Z</time>
      </trkpt>
      <trkpt lat="43.54198" lon="3.83752">
        <ele>2</ele>
        <time>2021-01-01T11:24:46Z</time>
      </trkpt>
      <trkpt lat="43.54193" lon="3.83756">
        <ele>2</ele>
        <time>2021-01-01T11:24:47Z</time>
      </trkpt>
      <trkpt lat="43.54189" lon="3.8376">
        <ele>2</ele>
        <time>2021-01-01T11:24:48Z</time>
      </trkpt>
      <trkpt lat="43.54183" lon="3.83764">
        <ele>2</ele>
        <time>2021-01-01T11:24:49Z</time>
      </trkpt>
      <trkpt lat="43.54178" lon="3.83768">
        <ele>2</ele>
        <time>2021-01-01T11:24:50Z</time>
      </trkpt>
      <trkpt lat="43.54173" lon="3.83772">
        <ele>3</ele>
        <time>2021-01-01T11:24:51Z</time>
      </trkpt>
      <trkpt lat="43.5417" lon="3.83778">
        <ele>3</ele>
        <time>2021-01-01T11:24:52Z</time>
      </trkpt>
      <trkpt lat="43.54164" lon="3.83783">
        <ele>3</ele>
        <time>2021-01-01T11:24:53Z</time>
      </trkpt>
      <trkpt lat="43.54158" lon="3.83786">
        <ele>3</ele>
        <time>2021-01-01T11:24:54Z</time>
      </trkpt>
      <trkpt lat="43.54152" lon="3.83789">
        <ele>3</ele>
        <time>2021-01-01T11:24:55Z</time>
      </trkpt>
      <trkpt lat="43.54147" lon="3.83794">
        <ele>3</ele>
        <time>2021-01-01T11:24:56Z</time>
      </trkpt>
      <trkpt lat="43.54141" lon="3.83798">
        <ele>3</ele>
        <time>2021-01-01T11:24:57Z</time>
      </trkpt>
      <trkpt lat="43.54137" lon="3.83803">
        <ele>3</ele>
        <time>2021-01-01T11:24:58Z</time>
      </trkpt>
      <trkpt lat="43.54131" lon="3.83807">
        <ele>3</ele>
        <time>2021-01-01T11:24:59Z</time>
      </trkpt>
      <trkpt lat="43.54126" lon="3.83812">
        <ele>2</ele>
        <time>2021-01-01T11:25:00Z</time>
      </trkpt>
      <trkpt lat="43.54122" lon="3.83816">
        <ele>2</ele>
        <time>2021-01-01T11:25:01Z</time>
      </trkpt>
      <trkpt lat="43.54118" lon="3.8382">
        <ele>2</ele>
        <time>2021-01-01T11:25:02Z</time>
      </trkpt>
      <trkpt lat="43.54114" lon="3.83824">
        <ele>1</ele>
        <time>2021-01-01T11:25:03Z</time>
      </trkpt>
      <trkpt lat="43.54109" lon="3.83829">
        <ele>1</ele>
        <time>2021-01-01T11:25:05Z</time>
      </trkpt>
      <trkpt lat="43.54105" lon="3.83832">
        <ele>1.8</ele>
        <time>2021-01-01T11:25:11Z</time>
      </trkpt>
      <trkpt lat="43.54106" lon="3.83831">
        <ele>1</ele>
        <time>2021-01-01T11:25:29Z</time>
      </trkpt>
      <trkpt lat="43.54105" lon="3.83831">
        <ele>1</ele>
        <time>2021-01-01T11:25:31Z</time>
      </trkpt>
      <trkpt lat="43.54109" lon="3.83827">
        <ele>1</ele>
        <time>2021-01-01T11:25:42Z</time>
      </trkpt>
      <trkpt lat="43.54114" lon="3.83824">
        <ele>2</ele>
        <time>2021-01-01T11:25:45Z</time>
      </trkpt>
      <trkpt lat="43.54118" lon="3.83821">
        <ele>2</ele>
        <time>2021-01-01T11:25:47Z</time>
      </trkpt>
      <trkpt lat="43.54123" lon="3.83816">
        <ele>2</ele>
        <time>2021-01-01T11:25:49Z</time>
      </trkpt>
      <trkpt lat="43.54129" lon="3.8381">
        <ele>3</ele>
        <time>2021-01-01T11:25:52Z</time>
      </trkpt>
      <trkpt lat="43.54134" lon="3.83803">
        <ele>3</ele>
        <time>2021-01-01T11:25:53Z</time>
      </trkpt>
      <trkpt lat="43.5414" lon="3.83797">
        <ele>4</ele>
        <time>2021-01-01T11:25:55Z</time>
      </trkpt>
      <trkpt lat="43.54146" lon="3.83791">
        <ele>5</ele>
        <time>2021-01-01T11:25:57Z</time>
      </trkpt>
      <trkpt lat="43.54153" lon="3.83786">
        <ele>5</ele>
        <time>2021-01-01T11:25:59Z</time>
      </trkpt>
      <trkpt lat="43.54159" lon="3.83781">
        <ele>6</ele>
        <time>2021-01-01T11:26:01Z</time>
      </trkpt>
      <trkpt lat="43.54165" lon="3.83777">
        <ele>6</ele>
        <time>2021-01-01T11:26:04Z</time>
      </trkpt>
      <trkpt lat="43.54169" lon="3.83773">
        <ele>5</ele>
        <time>2021-01-01T11:26:06Z</time>
      </trkpt>
      <trkpt lat="43.54178" lon="3.83766">
        <ele>5</ele>
        <time>2021-01-01T11:26:08Z</time>
      </trkpt>
      <trkpt lat="43.54184" lon="3.83762">
        <ele>5</ele>
        <time>2021-01-01T11:26:09Z</time>
      </trkpt>
      <trkpt lat="43.5419" lon="3.83757">
        <ele>5</ele>
        <time>2021-01-01T11:26:11Z</time>
      </trkpt>
      <trkpt lat="43.54196" lon="3.83752">
        <ele>5</ele>
        <time>2021-01-01T11:26:13Z</time>
      </trkpt>
      <trkpt lat="43.54202" lon="3.83747">
        <ele>5</ele>
        <time>2021-01-01T11:26:15Z</time>
      </trkpt>
      <trkpt lat="43.54205" lon="3.83742">
        <ele>6</ele>
        <time>2021-01-01T11:26:18Z</time>
      </trkpt>
      <trkpt lat="43.54202" lon="3.83735">
        <ele>6</ele>
        <time>2021-01-01T11:26:33Z</time>
      </trkpt>
      <trkpt lat="43.54197" lon="3.83729">
        <ele>6</ele>
        <time>2021-01-01T11:26:35Z</time>
      </trkpt>
      <trkpt lat="43.54191" lon="3.83723">
        <ele>6</ele>
        <time>2021-01-01T11:26:37Z</time>
      </trkpt>
      <trkpt lat="43.54186" lon="3.83717">
        <ele>6</ele>
        <time>2021-01-01T11:26:39Z</time>
      </trkpt>
      <trkpt lat="43.54186" lon="3.83715">
        <ele>6</ele>
        <time>2021-01-01T11:26:59Z</time>
      </trkpt>
      <trkpt lat="43.54186" lon="3.83715">
        <ele>5</ele>
        <time>2021-01-01T11:27:01Z</time>
      </trkpt>
      <trkpt lat="43.54185" lon="3.83715">
        <ele>5</ele>
        <time>2021-01-01T11:27:29Z</time>
      </trkpt>
      <trkpt lat="43.54185" lon="3.83715">
        <ele>5</ele>
        <time>2021-01-01T11:27:31Z</time>
      </trkpt>
      <trkpt lat="43.5418" lon="3.83711">
        <ele>5</ele>
        <time>2021-01-01T11:27:56Z</time>
      </trkpt>
      <trkpt lat="43.54176" lon="3.83708">
        <ele>5</ele>
        <time>2021-01-01T11:27:58Z</time>
      </trkpt>
      <trkpt lat="43.54171" lon="3.83705">
        <ele>5</ele>
        <time>2021-01-01T11:28:00Z</time>
      </trkpt>
      <trkpt lat="43.5416" lon="3.83694">
        <ele>5</ele>
        <time>2021-01-01T11:28:04Z</time>
      </trkpt>
      <trkpt lat="43.54155" lon="3.83689">
        <ele>5</ele>
        <time>2021-01-01T11:28:06Z</time>
      </trkpt>
      <trkpt lat="43.5415" lon="3.83683">
        <ele>5</ele>
        <time>2021-01-01T11:28:08Z</time>
      </trkpt>
      <trkpt lat="43.54144" lon="3.83677">
        <ele>6</ele>
        <time>2021-01-01T11:28:10Z</time>
      </trkpt>
      <trkpt lat="43.54139" lon="3.83673">
        <ele>6</ele>
        <time>2021-01-01T11:28:12Z</time>
      </trkpt>
      <trkpt lat="43.54125" lon="3.83659">
        <ele>6</ele>
        <time>2021-01-01T11:28:16Z</time>
      </trkpt>
      <trkpt lat="43.54119" lon="3.83654">
        <ele>7</ele>
        <time>2021-01-01T11:28:18Z</time>
      </trkpt>
      <trkpt lat="43.54114" lon="3.83648">
        <ele>7</ele>
        <time>2021-01-01T11:28:20Z</time>
      </trkpt>
      <trkpt lat="43.54109" lon="3.83643">
        <ele>8</ele>
        <time>2021-01-01T11:28:22Z</time>
      </trkpt>
      <trkpt lat="43.54104" lon="3.83637">
        <ele>8</ele>
        <time>2021-01-01T11:28:24Z</time>
      </trkpt>
      <trkpt lat="43.54099" lon="3.83631">
        <ele>8</ele>
        <time>2021-01-01T11:28:26Z</time>
      </trkpt>
      <trkpt lat="43.54094" lon="3.83626">
        <ele>9</ele>
        <time>2021-01-01T11:28:28Z</time>
      </trkpt>
      <trkpt lat="43.5409" lon="3.83621">
        <ele>9</ele>
        <time>2021-01-01T11:28:30Z</time>
      </trkpt>
      <trkpt lat="43.54086" lon="3.83618">
        <ele>9</ele>
        <time>2021-01-01T11:28:46Z</time>
      </trkpt>
      <trkpt lat="43.54081" lon="3.83615">
        <ele>8</ele>
        <time>2021-01-01T11:28:48Z</time>
      </trkpt>
      <trkpt lat="43.54076" lon="3.83612">
        <ele>8</ele>
        <time>2021-01-01T11:28:50Z</time>
      </trkpt>
      <trkpt lat="43.5407" lon="3.83608">
        <ele>7</ele>
        <time>2021-01-01T11:28:52Z</time>
      </trkpt>
      <trkpt lat="43.54063" lon="3.83602">
        <ele>6</ele>
        <time>2021-01-01T11:28:54Z</time>
      </trkpt>
      <trkpt lat="43.54059" lon="3.83598">
        <ele>6</ele>
        <time>2021-01-01T11:28:55Z</time>
      </trkpt>
      <trkpt lat="43.54054" lon="3.83595">
        <ele>6</ele>
        <time>2021-01-01T11:28:56Z</time>
      </trkpt>
      <trkpt lat="43.54049" lon="3.83593">
        <ele>6</ele>
        <time>2021-01-01T11:28:57Z</time>
      </trkpt>
      <trkpt lat="43.54045" lon="3.8359">
        <ele>6</ele>
        <time>2021-01-01T11:28:58Z</time>
      </trkpt>
      <trkpt lat="43.54038" lon="3.83586">
        <ele>5</ele>
        <time>2021-01-01T11:29:00Z</time>
      </trkpt>
      <trkpt lat="43.54033" lon="3.83582">
        <ele>5</ele>
        <time>2021-01-01T11:29:01Z</time>
      </trkpt>
      <trkpt lat="43.54026" lon="3.83577">
        <ele>5</ele>
        <time>2021-01-01T11:29:03Z</time>
      </trkpt>
      <trkpt lat="43.5402" lon="3.83572">
        <ele>5</ele>
        <time>2021-01-01T11:29:05Z</time>
      </trkpt>
      <trkpt lat="43.54015" lon="3.83569">
        <ele>5</ele>
        <time>2021-01-01T11:29:06Z</time>
      </trkpt>
      <trkpt lat="43.54008" lon="3.83564">
        <ele>5</ele>
        <time>2021-01-01T11:29:08Z</time>
      </trkpt>
      <trkpt lat="43.54" lon="3.83561">
        <ele>5</ele>
        <time>2021-01-01T11:29:10Z</time>
      </trkpt>
      <trkpt lat="43.53992" lon="3.83557">
        <ele>5</ele>
        <time>2021-01-01T11:29:12Z</time>
      </trkpt>
      <trkpt lat="43.53984" lon="3.83554">
        <ele>5</ele>
        <time>2021-01-01T11:29:14Z</time>
      </trkpt>
      <trkpt lat="43.53976" lon="3.8355">
        <ele>5</ele>
        <time>2021-01-01T11:29:16Z</time>
      </trkpt>
      <trkpt lat="43.53968" lon="3.83546">
        <ele>6</ele>
        <time>2021-01-01T11:29:18Z</time>
      </trkpt>
      <trkpt lat="43.53961" lon="3.83541">
        <ele>6</ele>
        <time>2021-01-01T11:29:20Z</time>
      </trkpt>
      <trkpt lat="43.53953" lon="3.83536">
        <ele>6</ele>
        <time>2021-01-01T11:29:22Z</time>
      </trkpt>
      <trkpt lat="43.53949" lon="3.83534">
        <ele>7</ele>
        <time>2021-01-01T11:29:23Z</time>
      </trkpt>
      <trkpt lat="43.53941" lon="3.83529">
        <ele>6</ele>
        <time>2021-01-01T11:29:25Z</time>
      </trkpt>
      <trkpt lat="43.53932" lon="3.83523">
        <ele>6</ele>
        <time>2021-01-01T11:29:27Z</time>
      </trkpt>
      <trkpt lat="43.53928" lon="3.8352">
        <ele>6</ele>
        <time>2021-01-01T11:29:28Z</time>
      </trkpt>
      <trkpt lat="43.53924" lon="3.83518">
        <ele>6</ele>
        <time>2021-01-01T11:29:29Z</time>
      </trkpt>
      <trkpt lat="43.5392" lon="3.83514">
        <ele>6</ele>
        <time>2021-01-01T11:29:30Z</time>
      </trkpt>
      <trkpt lat="43.53912" lon="3.83508">
        <ele>6</ele>
        <time>2021-01-01T11:29:32Z</time>
      </trkpt>
      <trkpt lat="43.53904" lon="3.83503">
        <ele>6</ele>
        <time>2021-01-01T11:29:34Z</time>
      </trkpt>
      <trkpt lat="43.53897" lon="3.83498">
        <ele>6</ele>
        <time>2021-01-01T11:29:36Z</time>
      </trkpt>
      <trkpt lat="43.5389" lon="3.83493">
        <ele>6</ele>
        <time>2021-01-01T11:29:38Z</time>
      </trkpt>
      <trkpt lat="43.53883" lon="3.83487">
        <ele>6</ele>
        <time>2021-01-01T11:29:40Z</time>
      </trkpt>
      <trkpt lat="43.53877" lon="3.83479">
        <ele>6</ele>
        <time>2021-01-01T11:29:42Z</time>
      </trkpt>
      <trkpt lat="43.5387" lon="3.83473">
        <ele>6</ele>
        <time>2021-01-01T11:29:44Z</time>
      </trkpt>
      <trkpt lat="43.53863" lon="3.83467">
        <ele>6</ele>
        <time>2021-01-01T11:29:46Z</time>
      </trkpt>
      <trkpt lat="43.53856" lon="3.83461">
        <ele>6</ele>
        <time>2021-01-01T11:29:48Z</time>
      </trkpt>
      <trkpt lat="43.53849" lon="3.83456">
        <ele>6</ele>
        <time>2021-01-01T11:29:50Z</time>
      </trkpt>
      <trkpt lat="43.53843" lon="3.83451">
        <ele>6</ele>
        <time>2021-01-01T11:29:52Z</time>
      </trkpt>
      <trkpt lat="43.53837" lon="3.83447">
        <ele>6</ele>
        <time>2021-01-01T11:29:54Z</time>
      </trkpt>
      <trkpt lat="43.53831" lon="3.83442">
        <ele>6</ele>
        <time>2021-01-01T11:29:56Z</time>
      </trkpt>
      <trkpt lat="43.53826" lon="3.83437">
        <ele>7</ele>
        <time>2021-01-01T11:29:58Z</time>
      </trkpt>
      <trkpt lat="43.53821" lon="3.83432">
        <ele>7</ele>
        <time>2021-01-01T11:30:00Z</time>
      </trkpt>
      <trkpt lat="43.53817" lon="3.83427">
        <ele>7</ele>
        <time>2021-01-01T11:30:02Z</time>
      </trkpt>
      <trkpt lat="43.53813" lon="3.83423">
        <ele>7</ele>
        <time>2021-01-01T11:30:04Z</time>
      </trkpt>
      <trkpt lat="43.53809" lon="3.83419">
        <ele>7</ele>
        <time>2021-01-01T11:30:06Z</time>
      </trkpt>
      <trkpt lat="43.53805" lon="3.83416">
        <ele>7</ele>
        <time>2021-01-01T11:30:08Z</time>
      </trkpt>
      <trkpt lat="43.538" lon="3.83412">
        <ele>7</ele>
        <time>2021-01-01T11:30:10Z</time>
      </trkpt>
      <trkpt lat="43.53794" lon="3.83407">
        <ele>7</ele>
        <time>2021-01-01T11:30:12Z</time>
      </trkpt>
      <trkpt lat="43.53789" lon="3.83401">
        <ele>7</ele>
        <time>2021-01-01T11:30:14Z</time>
      </trkpt>
      <trkpt lat="43.53783" lon="3.83395">
        <ele>7</ele>
        <time>2021-01-01T11:30:16Z</time>
      </trkpt>
      <trkpt lat="43.53777" lon="3.83389">
        <ele>8</ele>
        <time>2021-01-01T11:30:18Z</time>
      </trkpt>
      <trkpt lat="43.53771" lon="3.83383">
        <ele>8</ele>
        <time>2021-01-01T11:30:20Z</time>
      </trkpt>
      <trkpt lat="43.53766" lon="3.83376">
        <ele>8</ele>
        <time>2021-01-01T11:30:22Z</time>
      </trkpt>
      <trkpt lat="43.53761" lon="3.83369">
        <ele>7</ele>
        <time>2021-01-01T11:30:24Z</time>
      </trkpt>
      <trkpt lat="43.53756" lon="3.83363">
        <ele>7</ele>
        <time>2021-01-01T11:30:26Z</time>
      </trkpt>
      <trkpt lat="43.5375" lon="3.83357">
        <ele>7</ele>
        <time>2021-01-01T11:30:28Z</time>
      </trkpt>
      <trkpt lat="43.53744" lon="3.83351">
        <ele>7</ele>
        <time>2021-01-01T11:30:30Z</time>
      </trkpt>
      <trkpt lat="43.53737" lon="3.83344">
        <ele>7</ele>
        <time>2021-01-01T11:30:32Z</time>
      </trkpt>
      <trkpt lat="43.5373" lon="3.83337">
        <ele>7</ele>
        <time>2021-01-01T11:30:34Z</time>
      </trkpt>
      <trkpt lat="43.53726" lon="3.83334">
        <ele>7</ele>
        <time>2021-01-01T11:30:35Z</time>
      </trkpt>
      <trkpt lat="43.53722" lon="3.8333">
        <ele>8</ele>
        <time>2021-01-01T11:30:36Z</time>
      </trkpt>
      <trkpt lat="43.53715" lon="3.83325">
        <ele>8</ele>
        <time>2021-01-01T11:30:38Z</time>
      </trkpt>
      <trkpt lat="43.53709" lon="3.83319">
        <ele>8</ele>
        <time>2021-01-01T11:30:40Z</time>
      </trkpt>
      <trkpt lat="43.53704" lon="3.83315">
        <ele>8</ele>
        <time>2021-01-01T11:30:42Z</time>
      </trkpt>
      <trkpt lat="43.53698" lon="3.83312">
        <ele>8</ele>
        <time>2021-01-01T11:30:45Z</time>
      </trkpt>
      <trkpt lat="43.53693" lon="3.83309">
        <ele>8</ele>
        <time>2021-01-01T11:30:47Z</time>
      </trkpt>
      <trkpt lat="43.53686" lon="3.83307">
        <ele>7</ele>
        <time>2021-01-01T11:30:49Z</time>
      </trkpt>
      <trkpt lat="43.53675" lon="3.833">
        <ele>7</ele>
        <time>2021-01-01T11:30:50Z</time>
      </trkpt>
      <trkpt lat="43.53668" lon="3.83296">
        <ele>6</ele>
        <time>2021-01-01T11:30:52Z</time>
      </trkpt>
      <trkpt lat="43.53661" lon="3.83293">
        <ele>6</ele>
        <time>2021-01-01T11:30:54Z</time>
      </trkpt>
      <trkpt lat="43.53654" lon="3.83289">
        <ele>6</ele>
        <time>2021-01-01T11:30:56Z</time>
      </trkpt>
      <trkpt lat="43.53648" lon="3.83285">
        <ele>7</ele>
        <time>2021-01-01T11:30:58Z</time>
      </trkpt>
      <trkpt lat="43.53643" lon="3.83282">
        <ele>7</ele>
        <time>2021-01-01T11:31:00Z</time>
      </trkpt>
      <trkpt lat="43.53637" lon="3.83275">
        <ele>6</ele>
        <time>2021-01-01T11:31:02Z</time>
      </trkpt>
      <trkpt lat="43.53632" lon="3.8327">
        <ele>6</ele>
        <time>2021-01-01T11:31:04Z</time>
      </trkpt>
      <trkpt lat="43.53625" lon="3.83263">
        <ele>6</ele>
        <time>2021-01-01T11:31:06Z</time>
      </trkpt>
      <trkpt lat="43.53619" lon="3.83257">
        <ele>6</ele>
        <time>2021-01-01T11:31:08Z</time>
      </trkpt>
      <trkpt lat="43.53614" lon="3.83252">
        <ele>6</ele>
        <time>2021-01-01T11:31:10Z</time>
      </trkpt>
      <trkpt lat="43.5361" lon="3.83248">
        <ele>5</ele>
        <time>2021-01-01T11:31:13Z</time>
      </trkpt>
      <trkpt lat="43.53605" lon="3.83243">
        <ele>5</ele>
        <time>2021-01-01T11:31:16Z</time>
      </trkpt>
      <trkpt lat="43.53599" lon="3.83236">
        <ele>5</ele>
        <time>2021-01-01T11:31:18Z</time>
      </trkpt>
      <trkpt lat="43.53593" lon="3.83228">
        <ele>5</ele>
        <time>2021-01-01T11:31:20Z</time>
      </trkpt>
      <trkpt lat="43.53586" lon="3.83222">
        <ele>5</ele>
        <time>2021-01-01T11:31:21Z</time>
      </trkpt>
      <trkpt lat="43.53582" lon="3.8322">
        <ele>5</ele>
        <time>2021-01-01T11:31:22Z</time>
      </trkpt>
      <trkpt lat="43.53577" lon="3.83216">
        <ele>5</ele>
        <time>2021-01-01T11:31:23Z</time>
      </trkpt>
      <trkpt lat="43.53572" lon="3.83213">
        <ele>5</ele>
        <time>2021-01-01T11:31:24Z</time>
      </trkpt>
      <trkpt lat="43.53567" lon="3.83209">
        <ele>5</ele>
        <time>2021-01-01T11:31:25Z</time>
      </trkpt>
      <trkpt lat="43.53562" lon="3.83205">
        <ele>5</ele>
        <time>2021-01-01T11:31:26Z</time>
      </trkpt>
      <trkpt lat="43.53557" lon="3.83202">
        <ele>5</ele>
        <time>2021-01-01T11:31:27Z</time>
      </trkpt>
      <trkpt lat="43.53552" lon="3.83198">
        <ele>5</ele>
        <time>2021-01-01T11:31:28Z</time>
      </trkpt>
      <trkpt lat="43.53546" lon="3.83195">
        <ele>5</ele>
        <time>2021-01-01T11:31:29Z</time>
      </trkpt>
      <trkpt lat="43.5354" lon="3.83192">
        <ele>5</ele>
        <time>2021-01-01T11:31:30Z</time>
      </trkpt>
      <trkpt lat="43.53535" lon="3.8319">
        <ele>5</ele>
        <time>2021-01-01T11:31:31Z</time>
      </trkpt>
      <trkpt lat="43.53529" lon="3.83187">
        <ele>5</ele>
        <time>2021-01-01T11:31:32Z</time>
      </trkpt>
      <trkpt lat="43.53524" lon="3.83185">
        <ele>5</ele>
        <time>2021-01-01T11:31:33Z</time>
      </trkpt>
      <trkpt lat="43.53518" lon="3.83181">
        <ele>5</ele>
        <time>2021-01-01T11:31:34Z</time>
      </trkpt>
      <trkpt lat="43.53513" lon="3.83177">
        <ele>5</ele>
        <time>2021-01-01T11:31:35Z</time>
      </trkpt>
      <trkpt lat="43.53508" lon="3.83173">
        <ele>5</ele>
        <time>2021-01-01T11:31:36Z</time>
      </trkpt>
      <trkpt lat="43.53502" lon="3.83171">
        <ele>5</ele>
        <time>2021-01-01T11:31:37Z</time>
      </trkpt>
      <trkpt lat="43.53496" lon="3.83169">
        <ele>5</ele>
        <time>2021-01-01T11:31:38Z</time>
      </trkpt>
      <trkpt lat="43.5349" lon="3.83165">
        <ele>5</ele>
        <time>2021-01-01T11:31:39Z</time>
      </trkpt>
      <trkpt lat="43.53484" lon="3.83162">
        <ele>6</ele>
        <time>2021-01-01T11:31:40Z</time>
      </trkpt>
      <trkpt lat="43.53478" lon="3.83158">
        <ele>6</ele>
        <time>2021-01-01T11:31:41Z</time>
      </trkpt>
      <trkpt lat="43.53472" lon="3.83155">
        <ele>6</ele>
        <time>2021-01-01T11:31:42Z</time>
      </trkpt>
      <trkpt lat="43.53466" lon="3.83152">
        <ele>7</ele>
        <time>2021-01-01T11:31:43Z</time>
      </trkpt>
      <trkpt lat="43.53459" lon="3.83149">
        <ele>7</ele>
        <time>2021-01-01T11:31:44Z</time>
      </trkpt>
      <trkpt lat="43.53453" lon="3.83147">
        <ele>7</ele>
        <time>2021-01-01T11:31:45Z</time>
      </trkpt>
      <trkpt lat="43.53447" lon="3.83145">
        <ele>7</ele>
        <time>2021-01-01T11:31:46Z</time>
      </trkpt>
      <trkpt lat="43.53441" lon="3.83143">
        <ele>7</ele>
        <time>2021-01-01T11:31:47Z</time>
      </trkpt>
      <trkpt lat="43.53436" lon="3.83141">
        <ele>7</ele>
        <time>2021-01-01T11:31:48Z</time>
      </trkpt>
      <trkpt lat="43.53429" lon="3.83139">
        <ele>7</ele>
        <time>2021-01-01T11:31:49Z</time>
      </trkpt>
      <trkpt lat="43.53424" lon="3.83137">
        <ele>7</ele>
        <time>2021-01-01T11:31:50Z</time>
      </trkpt>
      <trkpt lat="43.53418" lon="3.83136">
        <ele>8</ele>
        <time>2021-01-01T11:31:51Z</time>
      </trkpt>
      <trkpt lat="43.53413" lon="3.83134">
        <ele>8</ele>
        <time>2021-01-01T11:31:52Z</time>
      </trkpt>
      <trkpt lat="43.53408" lon="3.83132">
        <ele>8</ele>
        <time>2021-01-01T11:31:53Z</time>
      </trkpt>
      <trkpt lat="43.53402" lon="3.83132">
        <ele>8</ele>
        <time>2021-01-01T11:31:54Z</time>
      </trkpt>
      <trkpt lat="43.53396" lon="3.83131">
        <ele>9</ele>
        <time>2021-01-01T11:31:55Z</time>
      </trkpt>
      <trkpt lat="43.53391" lon="3.83131">
        <ele>9</ele>
        <time>2021-01-01T11:31:56Z</time>
      </trkpt>
      <trkpt lat="43.53385" lon="3.83132">
        <ele>9</ele>
        <time>2021-01-01T11:31:57Z</time>
      </trkpt>
      <trkpt lat="43.53379" lon="3.83133">
        <ele>9</ele>
        <time>2021-01-01T11:31:58Z</time>
      </trkpt>
      <trkpt lat="43.53374" lon="3.83133">
        <ele>10</ele>
        <time>2021-01-01T11:31:59Z</time>
      </trkpt>
      <trkpt lat="43.53369" lon="3.83134">
        <ele>10</ele>
        <time>2021-01-01T11:32:00Z</time>
      </trkpt>
      <trkpt lat="43.53364" lon="3.83135">
        <ele>9</ele>
        <time>2021-01-01T11:32:01Z</time>
      </trkpt>
      <trkpt lat="43.53359" lon="3.83137">
        <ele>10</ele>
        <time>2021-01-01T11:32:02Z</time>
      </trkpt>
      <trkpt lat="43.53354" lon="3.83139">
        <ele>10</ele>
        <time>2021-01-01T11:32:03Z</time>
      </trkpt>
      <trkpt lat="43.5335" lon="3.8314">
        <ele>10</ele>
        <time>2021-01-01T11:32:04Z</time>
      </trkpt>
      <trkpt lat="43.53344" lon="3.83141">
        <ele>10</ele>
        <time>2021-01-01T11:32:05Z</time>
      </trkpt>
      <trkpt lat="43.53339" lon="3.83143">
        <ele>10</ele>
        <time>2021-01-01T11:32:06Z</time>
      </trkpt>
      <trkpt lat="43.53334" lon="3.83145">
        <ele>10</ele>
        <time>2021-01-01T11:32:07Z</time>
      </trkpt>
      <trkpt lat="43.5333" lon="3.83147">
        <ele>10</ele>
        <time>2021-01-01T11:32:08Z</time>
      </trkpt>
      <trkpt lat="43.53325" lon="3.83149">
        <ele>10</ele>
        <time>2021-01-01T11:32:09Z</time>
      </trkpt>
      <trkpt lat="43.5332" lon="3.83153">
        <ele>10</ele>
        <time>2021-01-01T11:32:10Z</time>
      </trkpt>
      <trkpt lat="43.53315" lon="3.83155">
        <ele>10</ele>
        <time>2021-01-01T11:32:11Z</time>
      </trkpt>
      <trkpt lat="43.5331" lon="3.83156">
        <ele>11</ele>
        <time>2021-01-01T11:32:12Z</time>
      </trkpt>
      <trkpt lat="43.53305" lon="3.83157">
        <ele>11</ele>
        <time>2021-01-01T11:32:13Z</time>
      </trkpt>
      <trkpt lat="43.53301" lon="3.83158">
        <ele>11</ele>
        <time>2021-01-01T11:32:14Z</time>
      </trkpt>
      <trkpt lat="43.53296" lon="3.83157">
        <ele>11</ele>
        <time>2021-01-01T11:32:15Z</time>
      </trkpt>
      <trkpt lat="43.53288" lon="3.83154">
        <ele>11</ele>
        <time>2021-01-01T11:32:17Z</time>
      </trkpt>
      <trkpt lat="43.53283" lon="3.8315">
        <ele>10</ele>
        <time>2021-01-01T11:32:18Z</time>
      </trkpt>
      <trkpt lat="43.53279" lon="3.83147">
        <ele>10</ele>
        <time>2021-01-01T11:32:19Z</time>
      </trkpt>
      <trkpt lat="43.53274" lon="3.83142">
        <ele>9</ele>
        <time>2021-01-01T11:32:20Z</time>
      </trkpt>
      <trkpt lat="43.53267" lon="3.83134">
        <ele>9</ele>
        <time>2021-01-01T11:32:22Z</time>
      </trkpt>
      <trkpt lat="43.53263" lon="3.83129">
        <ele>8</ele>
        <time>2021-01-01T11:32:23Z</time>
      </trkpt>
      <trkpt lat="43.53255" lon="3.83122">
        <ele>8</ele>
        <time>2021-01-01T11:32:25Z</time>
      </trkpt>
      <trkpt lat="43.53251" lon="3.83119">
        <ele>8</ele>
        <time>2021-01-01T11:32:26Z</time>
      </trkpt>
      <trkpt lat="43.53244" lon="3.83113">
        <ele>8</ele>
        <time>2021-01-01T11:32:28Z</time>
      </trkpt>
      <trkpt lat="43.53236" lon="3.83107">
        <ele>8</ele>
        <time>2021-01-01T11:32:30Z</time>
      </trkpt>
      <trkpt lat="43.53232" lon="3.83104">
        <ele>9</ele>
        <time>2021-01-01T11:32:31Z</time>
      </trkpt>
      <trkpt lat="43.53224" lon="3.83098">
        <ele>9</ele>
        <time>2021-01-01T11:32:33Z</time>
      </trkpt>
      <trkpt lat="43.53217" lon="3.83095">
        <ele>10</ele>
        <time>2021-01-01T11:32:35Z</time>
      </trkpt>
      <trkpt lat="43.5321" lon="3.83095">
        <ele>10</ele>
        <time>2021-01-01T11:32:37Z</time>
      </trkpt>
      <trkpt lat="43.53202" lon="3.83102">
        <ele>11</ele>
        <time>2021-01-01T11:32:39Z</time>
      </trkpt>
      <trkpt lat="43.53199" lon="3.83113">
        <ele>11</ele>
        <time>2021-01-01T11:32:41Z</time>
      </trkpt>
      <trkpt lat="43.53197" lon="3.83119">
        <ele>11</ele>
        <time>2021-01-01T11:32:42Z</time>
      </trkpt>
      <trkpt lat="43.53193" lon="3.83129">
        <ele>11</ele>
        <time>2021-01-01T11:32:44Z</time>
      </trkpt>
      <trkpt lat="43.5319" lon="3.83138">
        <ele>11</ele>
        <time>2021-01-01T11:32:47Z</time>
      </trkpt>
      <trkpt lat="43.53188" lon="3.83146">
        <ele>10</ele>
        <time>2021-01-01T11:32:49Z</time>
      </trkpt>
      <trkpt lat="43.53187" lon="3.83157">
        <ele>10</ele>
        <time>2021-01-01T11:32:51Z</time>
      </trkpt>
      <trkpt lat="43.53185" lon="3.83167">
        <ele>10</ele>
        <time>2021-01-01T11:32:53Z</time>
      </trkpt>
      <trkpt lat="43.53182" lon="3.83181">
        <ele>11</ele>
        <time>2021-01-01T11:32:55Z</time>
      </trkpt>
      <trkpt lat="43.5318" lon="3.83189">
        <ele>11</ele>
        <time>2021-01-01T11:32:56Z</time>
      </trkpt>
      <trkpt lat="43.53176" lon="3.83197">
        <ele>11</ele>
        <time>2021-01-01T11:32:58Z</time>
      </trkpt>
      <trkpt lat="43.53172" lon="3.83205">
        <ele>12</ele>
        <time>2021-01-01T11:33:00Z</time>
      </trkpt>
      <trkpt lat="43.53167" lon="3.83211">
        <ele>12</ele>
        <time>2021-01-01T11:33:02Z</time>
      </trkpt>
      <trkpt lat="43.53162" lon="3.83216">
        <ele>13</ele>
        <time>2021-01-01T11:33:04Z</time>
      </trkpt>
      <trkpt lat="43.53157" lon="3.83222">
        <ele>13</ele>
        <time>2021-01-01T11:33:06Z</time>
      </trkpt>
      <trkpt lat="43.53152" lon="3.83228">
        <ele>13</ele>
        <time>2021-01-01T11:33:09Z</time>
      </trkpt>
      <trkpt lat="43.53148" lon="3.83233">
        <ele>13</ele>
        <time>2021-01-01T11:33:11Z</time>
      </trkpt>
      <trkpt lat="43.53143" lon="3.83238">
        <ele>14</ele>
        <time>2021-01-01T11:33:13Z</time>
      </trkpt>
      <trkpt lat="43.53138" lon="3.83243">
        <ele>14</ele>
        <time>2021-01-01T11:33:15Z</time>
      </trkpt>
      <trkpt lat="43.53134" lon="3.83247">
        <ele>14</ele>
        <time>2021-01-01T11:33:17Z</time>
      </trkpt>
      <trkpt lat="43.5313" lon="3.8325">
        <ele>14</ele>
        <time>2021-01-01T11:33:19Z</time>
      </trkpt>
      <trkpt lat="43.53125" lon="3.83253">
        <ele>14</ele>
        <time>2021-01-01T11:33:21Z</time>
      </trkpt>
      <trkpt lat="43.53119" lon="3.83257">
        <ele>14</ele>
        <time>2021-01-01T11:33:23Z</time>
      </trkpt>
      <trkpt lat="43.53113" lon="3.83262">
        <ele>14</ele>
        <time>2021-01-01T11:33:25Z</time>
      </trkpt>
      <trkpt lat="43.53108" lon="3.83267">
        <ele>15</ele>
        <time>2021-01-01T11:33:27Z</time>
      </trkpt>
      <trkpt lat="43.53102" lon="3.83272">
        <ele>15</ele>
        <time>2021-01-01T11:33:29Z</time>
      </trkpt>
      <trkpt lat="43.53097" lon="3.83278">
        <ele>15</ele>
        <time>2021-01-01T11:33:31Z</time>
      </trkpt>
      <trkpt lat="43.53093" lon="3.83286">
        <ele>14</ele>
        <time>2021-01-01T11:33:33Z</time>
      </trkpt>
      <trkpt lat="43.53088" lon="3.83296">
        <ele>14</ele>
        <time>2021-01-01T11:33:35Z</time>
      </trkpt>
      <trkpt lat="43.53085" lon="3.83307">
        <ele>14</ele>
        <time>2021-01-01T11:33:37Z</time>
      </trkpt>
      <trkpt lat="43.53082" lon="3.83313">
        <ele>14</ele>
        <time>2021-01-01T11:33:38Z</time>
      </trkpt>
      <trkpt lat="43.53079" lon="3.83324">
        <ele>14</ele>
        <time>2021-01-01T11:33:40Z</time>
      </trkpt>
      <trkpt lat="43.53078" lon="3.8333">
        <ele>13</ele>
        <time>2021-01-01T11:33:41Z</time>
      </trkpt>
      <trkpt lat="43.53078" lon="3.83339">
        <ele>13</ele>
        <time>2021-01-01T11:33:43Z</time>
      </trkpt>
      <trkpt lat="43.53084" lon="3.83345">
        <ele>12</ele>
        <time>2021-01-01T11:33:45Z</time>
      </trkpt>
      <trkpt lat="43.53089" lon="3.83349">
        <ele>12</ele>
        <time>2021-01-01T11:33:47Z</time>
      </trkpt>
      <trkpt lat="43.53091" lon="3.83356">
        <ele>11</ele>
        <time>2021-01-01T11:33:51Z</time>
      </trkpt>
      <trkpt lat="43.53093" lon="3.83365">
        <ele>11</ele>
        <time>2021-01-01T11:33:54Z</time>
      </trkpt>
      <trkpt lat="43.53095" lon="3.83373">
        <ele>12</ele>
        <time>2021-01-01T11:33:56Z</time>
      </trkpt>
      <trkpt lat="43.53099" lon="3.83378">
        <ele>12</ele>
        <time>2021-01-01T11:33:59Z</time>
      </trkpt>
      <trkpt lat="43.53099" lon="3.83378">
        <ele>13</ele>
        <time>2021-01-01T11:34:14Z</time>
      </trkpt>
      <trkpt lat="43.53099" lon="3.83378">
        <ele>14</ele>
        <time>2021-01-01T11:34:16Z</time>
      </trkpt>
      <trkpt lat="43.53096" lon="3.83377">
        <ele>14</ele>
        <time>2021-01-01T11:34:44Z</time>
      </trkpt>
      <trkpt lat="43.53096" lon="3.83377">
        <ele>14</ele>
        <time>2021-01-01T11:34:46Z</time>
      </trkpt>
      <trkpt lat="43.53094" lon="3.83371">
        <ele>13</ele>
        <time>2021-01-01T11:34:54Z</time>
      </trkpt>
      <trkpt lat="43.5309" lon="3.83366">
        <ele>12</ele>
        <time>2021-01-01T11:34:56Z</time>
      </trkpt>
      <trkpt lat="43.53074" lon="3.8337">
        <ele>11</ele>
        <time>2021-01-01T11:35:04Z</time>
      </trkpt>
      <trkpt lat="43.5307" lon="3.83373">
        <ele>11</ele>
        <time>2021-01-01T11:35:07Z</time>
      </trkpt>
      <trkpt lat="43.5307" lon="3.8338">
        <ele>11</ele>
        <time>2021-01-01T11:35:15Z</time>
      </trkpt>
      <trkpt lat="43.53068" lon="3.8339">
        <ele>10</ele>
        <time>2021-01-01T11:35:17Z</time>
      </trkpt>
      <trkpt lat="43.53066" lon="3.83396">
        <ele>9</ele>
        <time>2021-01-01T11:35:18Z</time>
      </trkpt>
      <trkpt lat="43.53064" lon="3.83404">
        <ele>8</ele>
        <time>2021-01-01T11:35:19Z</time>
      </trkpt>
      <trkpt lat="43.53062" lon="3.83416">
        <ele>8</ele>
        <time>2021-01-01T11:35:21Z</time>
      </trkpt>
      <trkpt lat="43.53061" lon="3.83422">
        <ele>7</ele>
        <time>2021-01-01T11:35:22Z</time>
      </trkpt>
      <trkpt lat="43.53059" lon="3.83429">
        <ele>7</ele>
        <time>2021-01-01T11:35:23Z</time>
      </trkpt>
      <trkpt lat="43.53058" lon="3.83437">
        <ele>7</ele>
        <time>2021-01-01T11:35:24Z</time>
      </trkpt>
      <trkpt lat="43.53057" lon="3.83445">
        <ele>7</ele>
        <time>2021-01-01T11:35:25Z</time>
      </trkpt>
      <trkpt lat="43.53056" lon="3.83453">
        <ele>7</ele>
        <time>2021-01-01T11:35:26Z</time>
      </trkpt>
      <trkpt lat="43.53055" lon="3.83461">
        <ele>7</ele>
        <time>2021-01-01T11:35:27Z</time>
      </trkpt>
      <trkpt lat="43.53053" lon="3.83469">
        <ele>6</ele>
        <time>2021-01-01T11:35:28Z</time>
      </trkpt>
      <trkpt lat="43.53053" lon="3.83477">
        <ele>6</ele>
        <time>2021-01-01T11:35:29Z</time>
      </trkpt>
      <trkpt lat="43.53053" lon="3.83486">
        <ele>6</ele>
        <time>2021-01-01T11:35:30Z</time>
      </trkpt>
      <trkpt lat="43.53051" lon="3.83494">
        <ele>5</ele>
        <time>2021-01-01T11:35:31Z</time>
      </trkpt>
      <trkpt lat="43.53049" lon="3.83502">
        <ele>5</ele>
        <time>2021-01-01T11:35:32Z</time>
      </trkpt>
      <trkpt lat="43.53049" lon="3.83512">
        <ele>5</ele>
        <time>2021-01-01T11:35:33Z</time>
      </trkpt>
      <trkpt lat="43.53048" lon="3.83521">
        <ele>5</ele>
        <time>2021-01-01T11:35:34Z</time>
      </trkpt>
      <trkpt lat="43.53047" lon="3.83529">
        <ele>5</ele>
        <time>2021-01-01T11:35:35Z</time>
      </trkpt>
      <trkpt lat="43.53046" lon="3.83538">
        <ele>5</ele>
        <time>2021-01-01T11:35:36Z</time>
      </trkpt>
      <trkpt lat="43.53044" lon="3.83547">
        <ele>5</ele>
        <time>2021-01-01T11:35:37Z</time>
      </trkpt>
      <trkpt lat="43.53043" lon="3.83556">
        <ele>5</ele>
        <time>2021-01-01T11:35:38Z</time>
      </trkpt>
      <trkpt lat="43.53042" lon="3.83564">
        <ele>5</ele>
        <time>2021-01-01T11:35:39Z</time>
      </trkpt>
      <trkpt lat="43.5304" lon="3.83573">
        <ele>5</ele>
        <time>2021-01-01T11:35:40Z</time>
      </trkpt>
      <trkpt lat="43.53039" lon="3.83581">
        <ele>5</ele>
        <time>2021-01-01T11:35:41Z</time>
      </trkpt>
      <trkpt lat="43.53038" lon="3.8359">
        <ele>5</ele>
        <time>2021-01-01T11:35:42Z</time>
      </trkpt>
      <trkpt lat="43.53038" lon="3.83598">
        <ele>5</ele>
        <time>2021-01-01T11:35:43Z</time>
      </trkpt>
      <trkpt lat="43.53037" lon="3.83606">
        <ele>5</ele>
        <time>2021-01-01T11:35:44Z</time>
      </trkpt>
      <trkpt lat="43.53036" lon="3.83613">
        <ele>4</ele>
        <time>2021-01-01T11:35:45Z</time>
      </trkpt>
      <trkpt lat="43.53035" lon="3.8362">
        <ele>4</ele>
        <time>2021-01-01T11:35:46Z</time>
      </trkpt>
      <trkpt lat="43.53035" lon="3.83627">
        <ele>4</ele>
        <time>2021-01-01T11:35:47Z</time>
      </trkpt>
      <trkpt lat="43.53034" lon="3.83634">
        <ele>4</ele>
        <time>2021-01-01T11:35:48Z</time>
      </trkpt>
      <trkpt lat="43.53034" lon="3.8364">
        <ele>4</ele>
        <time>2021-01-01T11:35:49Z</time>
      </trkpt>
      <trkpt lat="43.53034" lon="3.8365">
        <ele>4</ele>
        <time>2021-01-01T11:35:51Z</time>
      </trkpt>
      <trkpt lat="43.53035" lon="3.83658">
        <ele>4</ele>
        <time>2021-01-01T11:35:53Z</time>
      </trkpt>
      <trkpt lat="43.53032" lon="3.83667">
        <ele>4</ele>
        <time>2021-01-01T11:35:56Z</time>
      </trkpt>
      <trkpt lat="43.53031" lon="3.83673">
        <ele>4</ele>
        <time>2021-01-01T11:35:58Z</time>
      </trkpt>
      <trkpt lat="43.53029" lon="3.83682">
        <ele>3</ele>
        <time>2021-01-01T11:36:00Z</time>
      </trkpt>
      <trkpt lat="43.53027" lon="3.83688">
        <ele>3</ele>
        <time>2021-01-01T11:36:02Z</time>
      </trkpt>
      <trkpt lat="43.53032" lon="3.83688">
        <ele>4</ele>
        <time>2021-01-01T11:36:06Z</time>
      </trkpt>
      <trkpt lat="43.53033" lon="3.83677">
        <ele>4</ele>
        <time>2021-01-01T11:36:08Z</time>
      </trkpt>
      <trkpt lat="43.53033" lon="3.83666">
        <ele>4</ele>
        <time>2021-01-01T11:36:10Z</time>
      </trkpt>
      <trkpt lat="43.53035" lon="3.83655">
        <ele>4</ele>
        <time>2021-01-01T11:36:12Z</time>
      </trkpt>
      <trkpt lat="43.53036" lon="3.83644">
        <ele>4</ele>
        <time>2021-01-01T11:36:14Z</time>
      </trkpt>
      <trkpt lat="43.53035" lon="3.83636">
        <ele>4</ele>
        <time>2021-01-01T11:36:16Z</time>
      </trkpt>
      <trkpt lat="43.53028" lon="3.83632">
        <ele>4</ele>
        <time>2021-01-01T11:36:18Z</time>
      </trkpt>
      <trkpt lat="43.53023" lon="3.83633">
        <ele>4</ele>
        <time>2021-01-01T11:36:19Z</time>
      </trkpt>
      <trkpt lat="43.53019" lon="3.83636">
        <ele>4</ele>
        <time>2021-01-01T11:36:20Z</time>
      </trkpt>
      <trkpt lat="43.53014" lon="3.83639">
        <ele>5</ele>
        <time>2021-01-01T11:36:21Z</time>
      </trkpt>
      <trkpt lat="43.5301" lon="3.83643">
        <ele>4</ele>
        <time>2021-01-01T11:36:22Z</time>
      </trkpt>
      <trkpt lat="43.53005" lon="3.83648">
        <ele>4</ele>
        <time>2021-01-01T11:36:25Z</time>
      </trkpt>
      <trkpt lat="43.53001" lon="3.83652">
        <ele>4</ele>
        <time>2021-01-01T11:36:26Z</time>
      </trkpt>
      <trkpt lat="43.52996" lon="3.83655">
        <ele>4</ele>
        <time>2021-01-01T11:36:27Z</time>
      </trkpt>
      <trkpt lat="43.52992" lon="3.83658">
        <ele>4</ele>
        <time>2021-01-01T11:36:28Z</time>
      </trkpt>
      <trkpt lat="43.52986" lon="3.83662">
        <ele>4</ele>
        <time>2021-01-01T11:36:30Z</time>
      </trkpt>
      <trkpt lat="43.52978" lon="3.83668">
        <ele>4</ele>
        <time>2021-01-01T11:36:31Z</time>
      </trkpt>
      <trkpt lat="43.52972" lon="3.83673">
        <ele>4</ele>
        <time>2021-01-01T11:36:33Z</time>
      </trkpt>
      <trkpt lat="43.52966" lon="3.83677">
        <ele>4</ele>
        <time>2021-01-01T11:36:35Z</time>
      </trkpt>
      <trkpt lat="43.5296" lon="3.83677">
        <ele>4</ele>
        <time>2021-01-01T11:36:37Z</time>
      </trkpt>
      <trkpt lat="43.52956" lon="3.83681">
        <ele>4</ele>
        <time>2021-01-01T11:36:39Z</time>
      </trkpt>
      <trkpt lat="43.52951" lon="3.83685">
        <ele>4</ele>
        <time>2021-01-01T11:36:42Z</time>
      </trkpt>
      <trkpt lat="43.52947" lon="3.83688">
        <ele>4</ele>
        <time>2021-01-01T11:36:44Z</time>
      </trkpt>
      <trkpt lat="43.52942" lon="3.83691">
        <ele>4</ele>
        <time>2021-01-01T11:36:46Z</time>
      </trkpt>
      <trkpt lat="43.52937" lon="3.83694">
        <ele>4</ele>
        <time>2021-01-01T11:36:48Z</time>
      </trkpt>
      <trkpt lat="43.52932" lon="3.83698">
        <ele>4</ele>
        <time>2021-01-01T11:36:50Z</time>
      </trkpt>
      <trkpt lat="43.52927" lon="3.837">
        <ele>4</ele>
        <time>2021-01-01T11:36:52Z</time>
      </trkpt>
      <trkpt lat="43.52922" lon="3.83703">
        <ele>4</ele>
        <time>2021-01-01T11:36:54Z</time>
      </trkpt>
      <trkpt lat="43.52916" lon="3.83707">
        <ele>4</ele>
        <time>2021-01-01T11:36:56Z</time>
      </trkpt>
      <trkpt lat="43.52911" lon="3.8371">
        <ele>4</ele>
        <time>2021-01-01T11:36:58Z</time>
      </trkpt>
      <trkpt lat="43.52906" lon="3.83714">
        <ele>4</ele>
        <time>2021-01-01T11:37:00Z</time>
      </trkpt>
      <trkpt lat="43.529" lon="3.83718">
        <ele>4</ele>
        <time>2021-01-01T11:37:02Z</time>
      </trkpt>
      <trkpt lat="43.52896" lon="3.83721">
        <ele>5</ele>
        <time>2021-01-01T11:37:04Z</time>
      </trkpt>
      <trkpt lat="43.52891" lon="3.83724">
        <ele>5</ele>
        <time>2021-01-01T11:37:07Z</time>
      </trkpt>
      <trkpt lat="43.52885" lon="3.83724">
        <ele>5</ele>
        <time>2021-01-01T11:37:09Z</time>
      </trkpt>
      <trkpt lat="43.52879" lon="3.83725">
        <ele>5</ele>
        <time>2021-01-01T11:37:11Z</time>
      </trkpt>
      <trkpt lat="43.52875" lon="3.83722">
        <ele>6</ele>
        <time>2021-01-01T11:37:13Z</time>
      </trkpt>
      <trkpt lat="43.52872" lon="3.83716">
        <ele>6</ele>
        <time>2021-01-01T11:37:15Z</time>
      </trkpt>
      <trkpt lat="43.52868" lon="3.83711">
        <ele>6</ele>
        <time>2021-01-01T11:37:17Z</time>
      </trkpt>
      <trkpt lat="43.52865" lon="3.83705">
        <ele>6</ele>
        <time>2021-01-01T11:37:19Z</time>
      </trkpt>
      <trkpt lat="43.52861" lon="3.83701">
        <ele>6</ele>
        <time>2021-01-01T11:37:21Z</time>
      </trkpt>
      <trkpt lat="43.52857" lon="3.83695">
        <ele>6</ele>
        <time>2021-01-01T11:37:24Z</time>
      </trkpt>
      <trkpt lat="43.52854" lon="3.83691">
        <ele>6</ele>
        <time>2021-01-01T11:37:26Z</time>
      </trkpt>
      <trkpt lat="43.5285" lon="3.83686">
        <ele>6</ele>
        <time>2021-01-01T11:37:28Z</time>
      </trkpt>
      <trkpt lat="43.52847" lon="3.83681">
        <ele>6</ele>
        <time>2021-01-01T11:37:30Z</time>
      </trkpt>
      <trkpt lat="43.52843" lon="3.83676">
        <ele>6</ele>
        <time>2021-01-01T11:37:32Z</time>
      </trkpt>
      <trkpt lat="43.52839" lon="3.83671">
        <ele>7</ele>
        <time>2021-01-01T11:37:34Z</time>
      </trkpt>
      <trkpt lat="43.52836" lon="3.83667">
        <ele>6</ele>
        <time>2021-01-01T11:37:36Z</time>
      </trkpt>
      <trkpt lat="43.52832" lon="3.83661">
        <ele>6</ele>
        <time>2021-01-01T11:37:38Z</time>
      </trkpt>
      <trkpt lat="43.52829" lon="3.83655">
        <ele>6</ele>
        <time>2021-01-01T11:37:40Z</time>
      </trkpt>
      <trkpt lat="43.52824" lon="3.83649">
        <ele>6</ele>
        <time>2021-01-01T11:37:42Z</time>
      </trkpt>
      <trkpt lat="43.52821" lon="3.83644">
        <ele>6</ele>
        <time>2021-01-01T11:37:44Z</time>
      </trkpt>
      <trkpt lat="43.52816" lon="3.83638">
        <ele>6</ele>
        <time>2021-01-01T11:37:47Z</time>
      </trkpt>
      <trkpt lat="43.52812" lon="3.83633">
        <ele>6</ele>
        <time>2021-01-01T11:37:49Z</time>
      </trkpt>
      <trkpt lat="43.52808" lon="3.83627">
        <ele>6</ele>
        <time>2021-01-01T11:37:51Z</time>
      </trkpt>
      <trkpt lat="43.52804" lon="3.83621">
        <ele>6</ele>
        <time>2021-01-01T11:37:53Z</time>
      </trkpt>
      <trkpt lat="43.52799" lon="3.83614">
        <ele>6</ele>
        <time>2021-01-01T11:37:55Z</time>
      </trkpt>
      <trkpt lat="43.52795" lon="3.83608">
        <ele>6</ele>
        <time>2021-01-01T11:37:57Z</time>
      </trkpt>
      <trkpt lat="43.52791" lon="3.83602">
        <ele>7</ele>
        <time>2021-01-01T11:37:59Z</time>
      </trkpt>
      <trkpt lat="43.52786" lon="3.83596">
        <ele>7</ele>
        <time>2021-01-01T11:38:01Z</time>
      </trkpt>
      <trkpt lat="43.52782" lon="3.83591">
        <ele>7</ele>
        <time>2021-01-01T11:38:03Z</time>
      </trkpt>
      <trkpt lat="43.52777" lon="3.83583">
        <ele>7</ele>
        <time>2021-01-01T11:38:06Z</time>
      </trkpt>
      <trkpt lat="43.52773" lon="3.83578">
        <ele>7</ele>
        <time>2021-01-01T11:38:07Z</time>
      </trkpt>
      <trkpt lat="43.52769" lon="3.83572">
        <ele>7</ele>
        <time>2021-01-01T11:38:09Z</time>
      </trkpt>
      <trkpt lat="43.52765" lon="3.83566">
        <ele>7</ele>
        <time>2021-01-01T11:38:11Z</time>
      </trkpt>
      <trkpt lat="43.5276" lon="3.83561">
        <ele>7</ele>
        <time>2021-01-01T11:38:13Z</time>
      </trkpt>
      <trkpt lat="43.52757" lon="3.83556">
        <ele>7</ele>
        <time>2021-01-01T11:38:15Z</time>
      </trkpt>
      <trkpt lat="43.52753" lon="3.83551">
        <ele>7</ele>
        <time>2021-01-01T11:38:18Z</time>
      </trkpt>
      <trkpt lat="43.52749" lon="3.83545">
        <ele>7</ele>
        <time>2021-01-01T11:38:21Z</time>
      </trkpt>
      <trkpt lat="43.52744" lon="3.8354">
        <ele>7</ele>
        <time>2021-01-01T11:38:23Z</time>
      </trkpt>
      <trkpt lat="43.52739" lon="3.83533">
        <ele>7</ele>
        <time>2021-01-01T11:38:25Z</time>
      </trkpt>
      <trkpt lat="43.52735" lon="3.83527">
        <ele>7</ele>
        <time>2021-01-01T11:38:27Z</time>
      </trkpt>
      <trkpt lat="43.52729" lon="3.8352">
        <ele>7</ele>
        <time>2021-01-01T11:38:29Z</time>
      </trkpt>
      <trkpt lat="43.52725" lon="3.83514">
        <ele>7</ele>
        <time>2021-01-01T11:38:31Z</time>
      </trkpt>
      <trkpt lat="43.52721" lon="3.83508">
        <ele>7</ele>
        <time>2021-01-01T11:38:33Z</time>
      </trkpt>
      <trkpt lat="43.52717" lon="3.83502">
        <ele>7</ele>
        <time>2021-01-01T11:38:35Z</time>
      </trkpt>
      <trkpt lat="43.52713" lon="3.83496">
        <ele>7</ele>
        <time>2021-01-01T11:38:37Z</time>
      </trkpt>
      <trkpt lat="43.52708" lon="3.8349">
        <ele>6</ele>
        <time>2021-01-01T11:38:40Z</time>
      </trkpt>
      <trkpt lat="43.52702" lon="3.83482">
        <ele>6</ele>
        <time>2021-01-01T11:38:42Z</time>
      </trkpt>
      <trkpt lat="43.52698" lon="3.83476">
        <ele>6</ele>
        <time>2021-01-01T11:38:44Z</time>
      </trkpt>
      <trkpt lat="43.52693" lon="3.8347">
        <ele>6</ele>
        <time>2021-01-01T11:38:46Z</time>
      </trkpt>
      <trkpt lat="43.52689" lon="3.83464">
        <ele>6</ele>
        <time>2021-01-01T11:38:48Z</time>
      </trkpt>
      <trkpt lat="43.52685" lon="3.8346">
        <ele>6</ele>
        <time>2021-01-01T11:38:50Z</time>
      </trkpt>
      <trkpt lat="43.52681" lon="3.83455">
        <ele>6</ele>
        <time>2021-01-01T11:38:53Z</time>
      </trkpt>
      <trkpt lat="43.52677" lon="3.83453">
        <ele>6</ele>
        <time>2021-01-01T11:39:14Z</time>
      </trkpt>
      <trkpt lat="43.52677" lon="3.83452">
        <ele>6</ele>
        <time>2021-01-01T11:39:16Z</time>
      </trkpt>
      <trkpt lat="43.52676" lon="3.83446">
        <ele>6</ele>
        <time>2021-01-01T11:39:24Z</time>
      </trkpt>
      <trkpt lat="43.5268" lon="3.83441">
        <ele>6</ele>
        <time>2021-01-01T11:39:27Z</time>
      </trkpt>
      <trkpt lat="43.52683" lon="3.83435">
        <ele>6</ele>
        <time>2021-01-01T11:39:31Z</time>
      </trkpt>
      <trkpt lat="43.52687" lon="3.83429">
        <ele>6</ele>
        <time>2021-01-01T11:39:33Z</time>
      </trkpt>
      <trkpt lat="43.5269" lon="3.83425">
        <ele>6</ele>
        <time>2021-01-01T11:39:35Z</time>
      </trkpt>
      <trkpt lat="43.52694" lon="3.8342">
        <ele>6</ele>
        <time>2021-01-01T11:39:37Z</time>
      </trkpt>
      <trkpt lat="43.52699" lon="3.83415">
        <ele>5</ele>
        <time>2021-01-01T11:39:40Z</time>
      </trkpt>
      <trkpt lat="43.52703" lon="3.83412">
        <ele>5</ele>
        <time>2021-01-01T11:39:42Z</time>
      </trkpt>
      <trkpt lat="43.52707" lon="3.83407">
        <ele>5</ele>
        <time>2021-01-01T11:39:44Z</time>
      </trkpt>
      <trkpt lat="43.5271" lon="3.83402">
        <ele>5</ele>
        <time>2021-01-01T11:39:46Z</time>
      </trkpt>
      <trkpt lat="43.52712" lon="3.83397">
        <ele>5</ele>
        <time>2021-01-01T11:39:48Z</time>
      </trkpt>
      <trkpt lat="43.52715" lon="3.83392">
        <ele>5</ele>
        <time>2021-01-01T11:39:50Z</time>
      </trkpt>
      <trkpt lat="43.52719" lon="3.83388">
        <ele>5</ele>
        <time>2021-01-01T11:39:52Z</time>
      </trkpt>
      <trkpt lat="43.52723" lon="3.83382">
        <ele>5</ele>
        <time>2021-01-01T11:39:55Z</time>
      </trkpt>
      <trkpt lat="43.52727" lon="3.83375">
        <ele>5</ele>
        <time>2021-01-01T11:39:58Z</time>
      </trkpt>
      <trkpt lat="43.52724" lon="3.83368">
        <ele>5</ele>
        <time>2021-01-01T11:40:00Z</time>
      </trkpt>
      <trkpt lat="43.52719" lon="3.83361">
        <ele>5</ele>
        <time>2021-01-01T11:40:02Z</time>
      </trkpt>
      <trkpt lat="43.52714" lon="3.83358">
        <ele>5</ele>
        <time>2021-01-01T11:40:03Z</time>
      </trkpt>
      <trkpt lat="43.52709" lon="3.83351">
        <ele>5</ele>
        <time>2021-01-01T11:40:05Z</time>
      </trkpt>
      <trkpt lat="43.52705" lon="3.83344">
        <ele>5</ele>
        <time>2021-01-01T11:40:07Z</time>
      </trkpt>
      <trkpt lat="43.52699" lon="3.83338">
        <ele>5</ele>
        <time>2021-01-01T11:40:09Z</time>
      </trkpt>
      <trkpt lat="43.52695" lon="3.83331">
        <ele>5</ele>
        <time>2021-01-01T11:40:11Z</time>
      </trkpt>
      <trkpt lat="43.52691" lon="3.83324">
        <ele>5</ele>
        <time>2021-01-01T11:40:13Z</time>
      </trkpt>
      <trkpt lat="43.52688" lon="3.83317">
        <ele>6</ele>
        <time>2021-01-01T11:40:15Z</time>
      </trkpt>
      <trkpt lat="43.52683" lon="3.8331">
        <ele>5</ele>
        <time>2021-01-01T11:40:17Z</time>
      </trkpt>
      <trkpt lat="43.52679" lon="3.83304">
        <ele>5</ele>
        <time>2021-01-01T11:40:19Z</time>
      </trkpt>
      <trkpt lat="43.52676" lon="3.83299">
        <ele>5</ele>
        <time>2021-01-01T11:40:21Z</time>
      </trkpt>
      <trkpt lat="43.52671" lon="3.83293">
        <ele>5</ele>
        <time>2021-01-01T11:40:23Z</time>
      </trkpt>
      <trkpt lat="43.52666" lon="3.83287">
        <ele>4</ele>
        <time>2021-01-01T11:40:25Z</time>
      </trkpt>
      <trkpt lat="43.52661" lon="3.83281">
        <ele>4</ele>
        <time>2021-01-01T11:40:27Z</time>
      </trkpt>
      <trkpt lat="43.52657" lon="3.83275">
        <ele>3</ele>
        <time>2021-01-01T11:40:29Z</time>
      </trkpt>
      <trkpt lat="43.52652" lon="3.83269">
        <ele>3</ele>
        <time>2021-01-01T11:40:31Z</time>
      </trkpt>
      <trkpt lat="43.52647" lon="3.83269">
        <ele>3</ele>
        <time>2021-01-01T11:40:33Z</time>
      </trkpt>
      <trkpt lat="43.52643" lon="3.83273">
        <ele>3</ele>
        <time>2021-01-01T11:40:35Z</time>
      </trkpt>
      <trkpt lat="43.5264" lon="3.8328">
        <ele>3</ele>
        <time>2021-01-01T11:40:38Z</time>
      </trkpt>
      <trkpt lat="43.52636" lon="3.83285">
        <ele>3</ele>
        <time>2021-01-01T11:40:41Z</time>
      </trkpt>
      <trkpt lat="43.52641" lon="3.83281">
        <ele>3</ele>
        <time>2021-01-01T11:40:49Z</time>
      </trkpt>
      <trkpt lat="43.52644" lon="3.83274">
        <ele>3</ele>
        <time>2021-01-01T11:40:51Z</time>
      </trkpt>
      <trkpt lat="43.52647" lon="3.83269">
        <ele>3</ele>
        <time>2021-01-01T11:40:53Z</time>
      </trkpt>
      <trkpt lat="43.52647" lon="3.83268">
        <ele>3</ele>
        <time>2021-01-01T11:41:14Z</time>
      </trkpt>
      <trkpt lat="43.52647" lon="3.83268">
        <ele>4</ele>
        <time>2021-01-01T11:41:16Z</time>
      </trkpt>
      <trkpt lat="43.52652" lon="3.83264">
        <ele>4</ele>
        <time>2021-01-01T11:41:20Z</time>
      </trkpt>
      <trkpt lat="43.52655" lon="3.83256">
        <ele>5</ele>
        <time>2021-01-01T11:41:23Z</time>
      </trkpt>
      <trkpt lat="43.52658" lon="3.83249">
        <ele>6</ele>
        <time>2021-01-01T11:41:25Z</time>
      </trkpt>
      <trkpt lat="43.5266" lon="3.83243">
        <ele>6</ele>
        <time>2021-01-01T11:41:28Z</time>
      </trkpt>
      <trkpt lat="43.52666" lon="3.83236">
        <ele>7</ele>
        <time>2021-01-01T11:41:31Z</time>
      </trkpt>
      <trkpt lat="43.5267" lon="3.83231">
        <ele>6</ele>
        <time>2021-01-01T11:41:33Z</time>
      </trkpt>
      <trkpt lat="43.52673" lon="3.83225">
        <ele>6</ele>
        <time>2021-01-01T11:41:35Z</time>
      </trkpt>
      <trkpt lat="43.52676" lon="3.83219">
        <ele>6</ele>
        <time>2021-01-01T11:41:37Z</time>
      </trkpt>
      <trkpt lat="43.5268" lon="3.83214">
        <ele>6</ele>
        <time>2021-01-01T11:41:39Z</time>
      </trkpt>
      <trkpt lat="43.52684" lon="3.83209">
        <ele>6</ele>
        <time>2021-01-01T11:41:41Z</time>
      </trkpt>
      <trkpt lat="43.52688" lon="3.83203">
        <ele>6</ele>
        <time>2021-01-01T11:41:43Z</time>
      </trkpt>
      <trkpt lat="43.52691" lon="3.83199">
        <ele>6</ele>
        <time>2021-01-01T11:41:45Z</time>
      </trkpt>
      <trkpt lat="43.52692" lon="3.8319">
        <ele>6</ele>
        <time>2021-01-01T11:41:48Z</time>
      </trkpt>
      <trkpt lat="43.52691" lon="3.83184">
        <ele>6</ele>
        <time>2021-01-01T11:41:50Z</time>
      </trkpt>
      <trkpt lat="43.52688" lon="3.83178">
        <ele>7</ele>
        <time>2021-01-01T11:41:53Z</time>
      </trkpt>
      <trkpt lat="43.52685" lon="3.83174">
        <ele>6</ele>
        <time>2021-01-01T11:41:56Z</time>
      </trkpt>
      <trkpt lat="43.52681" lon="3.83172">
        <ele>6</ele>
        <time>2021-01-01T11:42:00Z</time>
      </trkpt>
      <trkpt lat="43.52683" lon="3.83178">
        <ele>6</ele>
        <time>2021-01-01T11:42:03Z</time>
      </trkpt>
      <trkpt lat="43.52687" lon="3.83182">
        <ele>5</ele>
        <time>2021-01-01T11:42:05Z</time>
      </trkpt>
      <trkpt lat="43.52689" lon="3.83187">
        <ele>5</ele>
        <time>2021-01-01T11:42:07Z</time>
      </trkpt>
      <trkpt lat="43.52692" lon="3.83194">
        <ele>5</ele>
        <time>2021-01-01T11:42:09Z</time>
      </trkpt>
      <trkpt lat="43.52697" lon="3.83195">
        <ele>5</ele>
        <time>2021-01-01T11:42:11Z</time>
      </trkpt>
      <trkpt lat="43.52702" lon="3.8319">
        <ele>5</ele>
        <time>2021-01-01T11:42:13Z</time>
      </trkpt>
      <trkpt lat="43.52707" lon="3.83185">
        <ele>5</ele>
        <time>2021-01-01T11:42:15Z</time>
      </trkpt>
      <trkpt lat="43.5271" lon="3.8318">
        <ele>5</ele>
        <time>2021-01-01T11:42:17Z</time>
      </trkpt>
      <trkpt lat="43.52713" lon="3.83173">
        <ele>5</ele>
        <time>2021-01-01T11:42:19Z</time>
      </trkpt>
      <trkpt lat="43.52715" lon="3.83166">
        <ele>5</ele>
        <time>2021-01-01T11:42:22Z</time>
      </trkpt>
      <trkpt lat="43.52718" lon="3.83159">
        <ele>5</ele>
        <time>2021-01-01T11:42:24Z</time>
      </trkpt>
      <trkpt lat="43.52721" lon="3.83154">
        <ele>5</ele>
        <time>2021-01-01T11:42:26Z</time>
      </trkpt>
      <trkpt lat="43.52724" lon="3.83148">
        <ele>5</ele>
        <time>2021-01-01T11:42:29Z</time>
      </trkpt>
      <trkpt lat="43.52728" lon="3.83143">
        <ele>5</ele>
        <time>2021-01-01T11:42:31Z</time>
      </trkpt>
      <trkpt lat="43.52732" lon="3.83138">
        <ele>5</ele>
        <time>2021-01-01T11:42:34Z</time>
      </trkpt>
      <trkpt lat="43.52738" lon="3.83134">
        <ele>4</ele>
        <time>2021-01-01T11:42:37Z</time>
      </trkpt>
      <trkpt lat="43.52743" lon="3.83137">
        <ele>4</ele>
        <time>2021-01-01T11:42:40Z</time>
      </trkpt>
      <trkpt lat="43.52749" lon="3.83139">
        <ele>4</ele>
        <time>2021-01-01T11:42:43Z</time>
      </trkpt>
      <trkpt lat="43.52753" lon="3.83142">
        <ele>4</ele>
        <time>2021-01-01T11:42:46Z</time>
      </trkpt>
      <trkpt lat="43.52758" lon="3.83146">
        <ele>4</ele>
        <time>2021-01-01T11:42:49Z</time>
      </trkpt>
      <trkpt lat="43.52762" lon="3.83151">
        <ele>4</ele>
        <time>2021-01-01T11:42:52Z</time>
      </trkpt>
      <trkpt lat="43.52766" lon="3.83156">
        <ele>4</ele>
        <time>2021-01-01T11:42:55Z</time>
      </trkpt>
      <trkpt lat="43.5277" lon="3.83161">
        <ele>4</ele>
        <time>2021-01-01T11:42:58Z</time>
      </trkpt>
      <trkpt lat="43.52774" lon="3.83166">
        <ele>4</ele>
        <time>2021-01-01T11:43:01Z</time>
      </trkpt>
      <trkpt lat="43.52779" lon="3.83168">
        <ele>4</ele>
        <time>2021-01-01T11:43:03Z</time>
      </trkpt>
      <trkpt lat="43.52785" lon="3.83166">
        <ele>4</ele>
        <time>2021-01-01T11:43:05Z</time>
      </trkpt>
      <trkpt lat="43.52791" lon="3.83165">
        <ele>4</ele>
        <time>2021-01-01T11:43:07Z</time>
      </trkpt>
      <trkpt lat="43.52795" lon="3.83164">
        <ele>4</ele>
        <time>2021-01-01T11:43:09Z</time>
      </trkpt>
      <trkpt lat="43.528" lon="3.83165">
        <ele>4</ele>
        <time>2021-01-01T11:43:11Z</time>
      </trkpt>
      <trkpt lat="43.52805" lon="3.8317">
        <ele>4</ele>
        <time>2021-01-01T11:43:14Z</time>
      </trkpt>
      <trkpt lat="43.52811" lon="3.83175">
        <ele>4</ele>
        <time>2021-01-01T11:43:17Z</time>
      </trkpt>
      <trkpt lat="43.52817" lon="3.83178">
        <ele>4</ele>
        <time>2021-01-01T11:43:20Z</time>
      </trkpt>
      <trkpt lat="43.52822" lon="3.83181">
        <ele>3</ele>
        <time>2021-01-01T11:43:23Z</time>
      </trkpt>
      <trkpt lat="43.52828" lon="3.83182">
        <ele>3</ele>
        <time>2021-01-01T11:43:26Z</time>
      </trkpt>
      <trkpt lat="43.52833" lon="3.83184">
        <ele>3</ele>
        <time>2021-01-01T11:43:28Z</time>
      </trkpt>
      <trkpt lat="43.52838" lon="3.83186">
        <ele>3</ele>
        <time>2021-01-01T11:43:30Z</time>
      </trkpt>
      <trkpt lat="43.52843" lon="3.83189">
        <ele>3</ele>
        <time>2021-01-01T11:43:32Z</time>
      </trkpt>
      <trkpt lat="43.52849" lon="3.83192">
        <ele>3</ele>
        <time>2021-01-01T11:43:34Z</time>
      </trkpt>
      <trkpt lat="43.52854" lon="3.83194">
        <ele>3</ele>
        <time>2021-01-01T11:43:36Z</time>
      </trkpt>
      <trkpt lat="43.52859" lon="3.83196">
        <ele>3</ele>
        <time>2021-01-01T11:43:38Z</time>
      </trkpt>
      <trkpt lat="43.52865" lon="3.83198">
        <ele>3</ele>
        <time>2021-01-01T11:43:40Z</time>
      </trkpt>
      <trkpt lat="43.5287" lon="3.832">
        <ele>3</ele>
        <time>2021-01-01T11:43:43Z</time>
      </trkpt>
      <trkpt lat="43.52876" lon="3.83201">
        <ele>3</ele>
        <time>2021-01-01T11:43:46Z</time>
      </trkpt>
      <trkpt lat="43.52882" lon="3.83202">
        <ele>3</ele>
        <time>2021-01-01T11:43:49Z</time>
      </trkpt>
      <trkpt lat="43.52886" lon="3.83205">
        <ele>3</ele>
        <time>2021-01-01T11:43:51Z</time>
      </trkpt>
      <trkpt lat="43.52892" lon="3.83207">
        <ele>3</ele>
        <time>2021-01-01T11:43:53Z</time>
      </trkpt>
      <trkpt lat="43.52897" lon="3.83209">
        <ele>4</ele>
        <time>2021-01-01T11:43:55Z</time>
      </trkpt>
      <trkpt lat="43.52903" lon="3.83212">
        <ele>4</ele>
        <time>2021-01-01T11:43:57Z</time>
      </trkpt>
      <trkpt lat="43.52909" lon="3.83215">
        <ele>4</ele>
        <time>2021-01-01T11:43:59Z</time>
      </trkpt>
      <trkpt lat="43.52914" lon="3.83218">
        <ele>4</ele>
        <time>2021-01-01T11:44:01Z</time>
      </trkpt>
      <trkpt lat="43.52919" lon="3.8322">
        <ele>4</ele>
        <time>2021-01-01T11:44:03Z</time>
      </trkpt>
      <trkpt lat="43.52924" lon="3.83222">
        <ele>4</ele>
        <time>2021-01-01T11:44:05Z</time>
      </trkpt>
      <trkpt lat="43.52931" lon="3.83227">
        <ele>4</ele>
        <time>2021-01-01T11:44:08Z</time>
      </trkpt>
      <trkpt lat="43.52935" lon="3.83229">
        <ele>4</ele>
        <time>2021-01-01T11:44:09Z</time>
      </trkpt>
      <trkpt lat="43.5294" lon="3.83234">
        <ele>4</ele>
        <time>2021-01-01T11:44:12Z</time>
      </trkpt>
      <trkpt lat="43.52946" lon="3.83235">
        <ele>4</ele>
        <time>2021-01-01T11:44:15Z</time>
      </trkpt>
      <trkpt lat="43.52953" lon="3.83238">
        <ele>5</ele>
        <time>2021-01-01T11:44:18Z</time>
      </trkpt>
      <trkpt lat="43.52958" lon="3.83242">
        <ele>5</ele>
        <time>2021-01-01T11:44:22Z</time>
      </trkpt>
      <trkpt lat="43.52963" lon="3.83244">
        <ele>5</ele>
        <time>2021-01-01T11:44:24Z</time>
      </trkpt>
      <trkpt lat="43.52968" lon="3.83247">
        <ele>5</ele>
        <time>2021-01-01T11:44:27Z</time>
      </trkpt>
      <trkpt lat="43.52974" lon="3.83251">
        <ele>5</ele>
        <time>2021-01-01T11:44:30Z</time>
      </trkpt>
      <trkpt lat="43.5298" lon="3.83253">
        <ele>5</ele>
        <time>2021-01-01T11:44:33Z</time>
      </trkpt>
      <trkpt lat="43.52984" lon="3.83249">
        <ele>4</ele>
        <time>2021-01-01T11:44:36Z</time>
      </trkpt>
      <trkpt lat="43.52983" lon="3.83243">
        <ele>4</ele>
        <time>2021-01-01T11:44:39Z</time>
      </trkpt>
      <trkpt lat="43.52979" lon="3.83239">
        <ele>4</ele>
        <time>2021-01-01T11:44:41Z</time>
      </trkpt>
      <trkpt lat="43.52973" lon="3.83237">
        <ele>6</ele>
        <time>2021-01-01T11:44:43Z</time>
      </trkpt>
      <trkpt lat="43.52966" lon="3.83235">
        <ele>7</ele>
        <time>2021-01-01T11:44:45Z</time>
      </trkpt>
      <trkpt lat="43.5296" lon="3.83233">
        <ele>7</ele>
        <time>2021-01-01T11:44:47Z</time>
      </trkpt>
      <trkpt lat="43.52954" lon="3.8323">
        <ele>7</ele>
        <time>2021-01-01T11:44:49Z</time>
      </trkpt>
      <trkpt lat="43.52947" lon="3.83226">
        <ele>7</ele>
        <time>2021-01-01T11:44:51Z</time>
      </trkpt>
      <trkpt lat="43.5294" lon="3.83222">
        <ele>6</ele>
        <time>2021-01-01T11:44:53Z</time>
      </trkpt>
      <trkpt lat="43.52936" lon="3.83221">
        <ele>5</ele>
        <time>2021-01-01T11:44:55Z</time>
      </trkpt>
      <trkpt lat="43.5293" lon="3.83217">
        <ele>5</ele>
        <time>2021-01-01T11:44:57Z</time>
      </trkpt>
      <trkpt lat="43.52923" lon="3.83213">
        <ele>5</ele>
        <time>2021-01-01T11:44:58Z</time>
      </trkpt>
      <trkpt lat="43.52916" lon="3.83209">
        <ele>5</ele>
        <time>2021-01-01T11:45:00Z</time>
      </trkpt>
      <trkpt lat="43.5291" lon="3.83205">
        <ele>5</ele>
        <time>2021-01-01T11:45:02Z</time>
      </trkpt>
      <trkpt lat="43.52903" lon="3.83202">
        <ele>5</ele>
        <time>2021-01-01T11:45:04Z</time>
      </trkpt>
      <trkpt lat="43.52896" lon="3.832">
        <ele>4</ele>
        <time>2021-01-01T11:45:06Z</time>
      </trkpt>
      <trkpt lat="43.52892" lon="3.83196">
        <ele>4</ele>
        <time>2021-01-01T11:45:10Z</time>
      </trkpt>
      <trkpt lat="43.52894" lon="3.8319">
        <ele>4</ele>
        <time>2021-01-01T11:45:12Z</time>
      </trkpt>
      <trkpt lat="43.52897" lon="3.83183">
        <ele>4</ele>
        <time>2021-01-01T11:45:14Z</time>
      </trkpt>
      <trkpt lat="43.52899" lon="3.83175">
        <ele>4</ele>
        <time>2021-01-01T11:45:16Z</time>
      </trkpt>
      <trkpt lat="43.52902" lon="3.83167">
        <ele>4</ele>
        <time>2021-01-01T11:45:18Z</time>
      </trkpt>
      <trkpt lat="43.52903" lon="3.83159">
        <ele>4</ele>
        <time>2021-01-01T11:45:20Z</time>
      </trkpt>
      <trkpt lat="43.52906" lon="3.83151">
        <ele>4</ele>
        <time>2021-01-01T11:45:22Z</time>
      </trkpt>
      <trkpt lat="43.52908" lon="3.83144">
        <ele>5</ele>
        <time>2021-01-01T11:45:24Z</time>
      </trkpt>
      <trkpt lat="43.5291" lon="3.83138">
        <ele>5</ele>
        <time>2021-01-01T11:45:27Z</time>
      </trkpt>
      <trkpt lat="43.52912" lon="3.83132">
        <ele>5</ele>
        <time>2021-01-01T11:45:29Z</time>
      </trkpt>
      <trkpt lat="43.52914" lon="3.83126">
        <ele>5</ele>
        <time>2021-01-01T11:45:31Z</time>
      </trkpt>
      <trkpt lat="43.52916" lon="3.83119">
        <ele>5</ele>
        <time>2021-01-01T11:45:33Z</time>
      </trkpt>
      <trkpt lat="43.52919" lon="3.83112">
        <ele>5</ele>
        <time>2021-01-01T11:45:35Z</time>
      </trkpt>
      <trkpt lat="43.52921" lon="3.83104">
        <ele>6</ele>
        <time>2021-01-01T11:45:38Z</time>
      </trkpt>
      <trkpt lat="43.52925" lon="3.83097">
        <ele>5</ele>
        <time>2021-01-01T11:45:41Z</time>
      </trkpt>
      <trkpt lat="43.52929" lon="3.83093">
        <ele>5</ele>
        <time>2021-01-01T11:45:44Z</time>
      </trkpt>
      <trkpt lat="43.52935" lon="3.83092">
        <ele>5</ele>
        <time>2021-01-01T11:45:47Z</time>
      </trkpt>
      <trkpt lat="43.52939" lon="3.83087">
        <ele>5</ele>
        <time>2021-01-01T11:45:50Z</time>
      </trkpt>
      <trkpt lat="43.52934" lon="3.83093">
        <ele>5</ele>
        <time>2021-01-01T11:45:59Z</time>
      </trkpt>
      <trkpt lat="43.52929" lon="3.83098">
        <ele>5</ele>
        <time>2021-01-01T11:46:02Z</time>
      </trkpt>
      <trkpt lat="43.52925" lon="3.83092">
        <ele>4</ele>
        <time>2021-01-01T11:46:05Z</time>
      </trkpt>
      <trkpt lat="43.52929" lon="3.83087">
        <ele>4</ele>
        <time>2021-01-01T11:46:08Z</time>
      </trkpt>
      <trkpt lat="43.52934" lon="3.83084">
        <ele>4</ele>
        <time>2021-01-01T11:46:11Z</time>
      </trkpt>
      <trkpt lat="43.52937" lon="3.83079">
        <ele>5</ele>
        <time>2021-01-01T11:46:14Z</time>
      </trkpt>
      <trkpt lat="43.52938" lon="3.83079">
        <ele>5</ele>
        <time>2021-01-01T11:46:29Z</time>
      </trkpt>
      <trkpt lat="43.52938" lon="3.83075">
        <ele>5</ele>
        <time>2021-01-01T11:46:31Z</time>
      </trkpt>
      <trkpt lat="43.5294" lon="3.83074">
        <ele>5</ele>
        <time>2021-01-01T11:46:59Z</time>
      </trkpt>
      <trkpt lat="43.5294" lon="3.83074">
        <ele>4</ele>
        <time>2021-01-01T11:47:01Z</time>
      </trkpt>
      <trkpt lat="43.5294" lon="3.83066">
        <ele>4</ele>
        <time>2021-01-01T11:47:08Z</time>
      </trkpt>
      <trkpt lat="43.52935" lon="3.83061">
        <ele>4</ele>
        <time>2021-01-01T11:47:11Z</time>
      </trkpt>
      <trkpt lat="43.52931" lon="3.83058">
        <ele>4</ele>
        <time>2021-01-01T11:47:13Z</time>
      </trkpt>
      <trkpt lat="43.52921" lon="3.83054">
        <ele>4</ele>
        <time>2021-01-01T11:47:17Z</time>
      </trkpt>
      <trkpt lat="43.52917" lon="3.83051">
        <ele>5</ele>
        <time>2021-01-01T11:47:19Z</time>
      </trkpt>
      <trkpt lat="43.52912" lon="3.83049">
        <ele>5</ele>
        <time>2021-01-01T11:47:21Z</time>
      </trkpt>
      <trkpt lat="43.52908" lon="3.83047">
        <ele>5</ele>
        <time>2021-01-01T11:47:23Z</time>
      </trkpt>
      <trkpt lat="43.52902" lon="3.83043">
        <ele>6</ele>
        <time>2021-01-01T11:47:26Z</time>
      </trkpt>
      <trkpt lat="43.52897" lon="3.83039">
        <ele>7</ele>
        <time>2021-01-01T11:47:28Z</time>
      </trkpt>
      <trkpt lat="43.52893" lon="3.83037">
        <ele>7</ele>
        <time>2021-01-01T11:47:30Z</time>
      </trkpt>
      <trkpt lat="43.52888" lon="3.83034">
        <ele>8</ele>
        <time>2021-01-01T11:47:32Z</time>
      </trkpt>
      <trkpt lat="43.52883" lon="3.83031">
        <ele>8</ele>
        <time>2021-01-01T11:47:34Z</time>
      </trkpt>
      <trkpt lat="43.52877" lon="3.83028">
        <ele>8</ele>
        <time>2021-01-01T11:47:36Z</time>
      </trkpt>
      <trkpt lat="43.52872" lon="3.83025">
        <ele>7</ele>
        <time>2021-01-01T11:47:38Z</time>
      </trkpt>
      <trkpt lat="43.52867" lon="3.83021">
        <ele>7</ele>
        <time>2021-01-01T11:47:40Z</time>
      </trkpt>
      <trkpt lat="43.52861" lon="3.83019">
        <ele>7</ele>
        <time>2021-01-01T11:47:42Z</time>
      </trkpt>
      <trkpt lat="43.52855" lon="3.83019">
        <ele>7</ele>
        <time>2021-01-01T11:47:44Z</time>
      </trkpt>
      <trkpt lat="43.5285" lon="3.83018">
        <ele>7</ele>
        <time>2021-01-01T11:47:46Z</time>
      </trkpt>
      <trkpt lat="43.52844" lon="3.83016">
        <ele>7</ele>
        <time>2021-01-01T11:47:48Z</time>
      </trkpt>
      <trkpt lat="43.5284" lon="3.83012">
        <ele>8</ele>
        <time>2021-01-01T11:47:50Z</time>
      </trkpt>
      <trkpt lat="43.52836" lon="3.83007">
        <ele>8</ele>
        <time>2021-01-01T11:47:52Z</time>
      </trkpt>
      <trkpt lat="43.52832" lon="3.83003">
        <ele>9</ele>
        <time>2021-01-01T11:47:54Z</time>
      </trkpt>
      <trkpt lat="43.52828" lon="3.82998">
        <ele>9</ele>
        <time>2021-01-01T11:47:56Z</time>
      </trkpt>
      <trkpt lat="43.52825" lon="3.82994">
        <ele>9</ele>
        <time>2021-01-01T11:47:58Z</time>
      </trkpt>
      <trkpt lat="43.52821" lon="3.8299">
        <ele>9</ele>
        <time>2021-01-01T11:48:00Z</time>
      </trkpt>
      <trkpt lat="43.52816" lon="3.82984">
        <ele>9</ele>
        <time>2021-01-01T11:48:03Z</time>
      </trkpt>
      <trkpt lat="43.52813" lon="3.82978">
        <ele>9</ele>
        <time>2021-01-01T11:48:05Z</time>
      </trkpt>
      <trkpt lat="43.52811" lon="3.82972">
        <ele>8</ele>
        <time>2021-01-01T11:48:07Z</time>
      </trkpt>
      <trkpt lat="43.52807" lon="3.82966">
        <ele>8</ele>
        <time>2021-01-01T11:48:09Z</time>
      </trkpt>
      <trkpt lat="43.52803" lon="3.82959">
        <ele>8</ele>
        <time>2021-01-01T11:48:11Z</time>
      </trkpt>
      <trkpt lat="43.52797" lon="3.82953">
        <ele>8</ele>
        <time>2021-01-01T11:48:13Z</time>
      </trkpt>
      <trkpt lat="43.52791" lon="3.82947">
        <ele>7</ele>
        <time>2021-01-01T11:48:15Z</time>
      </trkpt>
      <trkpt lat="43.52786" lon="3.82941">
        <ele>7</ele>
        <time>2021-01-01T11:48:17Z</time>
      </trkpt>
      <trkpt lat="43.52782" lon="3.82936">
        <ele>7</ele>
        <time>2021-01-01T11:48:19Z</time>
      </trkpt>
      <trkpt lat="43.5278" lon="3.82929">
        <ele>6</ele>
        <time>2021-01-01T11:48:21Z</time>
      </trkpt>
      <trkpt lat="43.52778" lon="3.82922">
        <ele>6</ele>
        <time>2021-01-01T11:48:23Z</time>
      </trkpt>
      <trkpt lat="43.52775" lon="3.82913">
        <ele>5</ele>
        <time>2021-01-01T11:48:25Z</time>
      </trkpt>
      <trkpt lat="43.52773" lon="3.82904">
        <ele>5</ele>
        <time>2021-01-01T11:48:27Z</time>
      </trkpt>
      <trkpt lat="43.52771" lon="3.82894">
        <ele>4</ele>
        <time>2021-01-01T11:48:29Z</time>
      </trkpt>
      <trkpt lat="43.52768" lon="3.82884">
        <ele>4</ele>
        <time>2021-01-01T11:48:31Z</time>
      </trkpt>
      <trkpt lat="43.52765" lon="3.82874">
        <ele>3</ele>
        <time>2021-01-01T11:48:33Z</time>
      </trkpt>
      <trkpt lat="43.52762" lon="3.82864">
        <ele>3</ele>
        <time>2021-01-01T11:48:35Z</time>
      </trkpt>
      <trkpt lat="43.52759" lon="3.82854">
        <ele>3</ele>
        <time>2021-01-01T11:48:37Z</time>
      </trkpt>
      <trkpt lat="43.52757" lon="3.82844">
        <ele>3</ele>
        <time>2021-01-01T11:48:39Z</time>
      </trkpt>
      <trkpt lat="43.52755" lon="3.82835">
        <ele>3</ele>
        <time>2021-01-01T11:48:41Z</time>
      </trkpt>
      <trkpt lat="43.52753" lon="3.82826">
        <ele>3</ele>
        <time>2021-01-01T11:48:43Z</time>
      </trkpt>
      <trkpt lat="43.52753" lon="3.82818">
        <ele>3</ele>
        <time>2021-01-01T11:48:45Z</time>
      </trkpt>
      <trkpt lat="43.52753" lon="3.82809">
        <ele>3</ele>
        <time>2021-01-01T11:48:47Z</time>
      </trkpt>
      <trkpt lat="43.52751" lon="3.828">
        <ele>3</ele>
        <time>2021-01-01T11:48:49Z</time>
      </trkpt>
      <trkpt lat="43.52749" lon="3.82793">
        <ele>3</ele>
        <time>2021-01-01T11:48:51Z</time>
      </trkpt>
      <trkpt lat="43.52745" lon="3.82788">
        <ele>3</ele>
        <time>2021-01-01T11:48:54Z</time>
      </trkpt>
      <trkpt lat="43.52743" lon="3.82781">
        <ele>2</ele>
        <time>2021-01-01T11:48:57Z</time>
      </trkpt>
      <trkpt lat="43.52738" lon="3.82776">
        <ele>2</ele>
        <time>2021-01-01T11:49:00Z</time>
      </trkpt>
      <trkpt lat="43.52733" lon="3.82772">
        <ele>2</ele>
        <time>2021-01-01T11:49:03Z</time>
      </trkpt>
      <trkpt lat="43.52729" lon="3.82767">
        <ele>3</ele>
        <time>2021-01-01T11:49:05Z</time>
      </trkpt>
      <trkpt lat="43.52726" lon="3.82762">
        <ele>2</ele>
        <time>2021-01-01T11:49:07Z</time>
      </trkpt>
      <trkpt lat="43.52722" lon="3.82757">
        <ele>2</ele>
        <time>2021-01-01T11:49:09Z</time>
      </trkpt>
      <trkpt lat="43.52718" lon="3.82753">
        <ele>7</ele>
        <time>2021-01-01T11:49:11Z</time>
      </trkpt>
      <trkpt lat="43.52713" lon="3.82749">
        <ele>10</ele>
        <time>2021-01-01T11:49:13Z</time>
      </trkpt>
      <trkpt lat="43.52708" lon="3.82745">
        <ele>12</ele>
        <time>2021-01-01T11:49:15Z</time>
      </trkpt>
      <trkpt lat="43.52704" lon="3.8274">
        <ele>13</ele>
        <time>2021-01-01T11:49:17Z</time>
      </trkpt>
      <trkpt lat="43.52699" lon="3.82737">
        <ele>14</ele>
        <time>2021-01-01T11:49:19Z</time>
      </trkpt>
      <trkpt lat="43.52695" lon="3.82734">
        <ele>10</ele>
        <time>2021-01-01T11:49:21Z</time>
      </trkpt>
      <trkpt lat="43.5269" lon="3.82728">
        <ele>8</ele>
        <time>2021-01-01T11:49:24Z</time>
      </trkpt>
      <trkpt lat="43.52686" lon="3.82725">
        <ele>6</ele>
        <time>2021-01-01T11:49:26Z</time>
      </trkpt>
      <trkpt lat="43.52681" lon="3.82722">
        <ele>6</ele>
        <time>2021-01-01T11:49:28Z</time>
      </trkpt>
      <trkpt lat="43.52677" lon="3.82719">
        <ele>6</ele>
        <time>2021-01-01T11:49:30Z</time>
      </trkpt>
      <trkpt lat="43.52671" lon="3.82719">
        <ele>7</ele>
        <time>2021-01-01T11:49:33Z</time>
      </trkpt>
      <trkpt lat="43.52668" lon="3.82725">
        <ele>7</ele>
        <time>2021-01-01T11:49:35Z</time>
      </trkpt>
      <trkpt lat="43.52667" lon="3.82733">
        <ele>7</ele>
        <time>2021-01-01T11:49:37Z</time>
      </trkpt>
      <trkpt lat="43.52664" lon="3.82741">
        <ele>6</ele>
        <time>2021-01-01T11:49:39Z</time>
      </trkpt>
      <trkpt lat="43.52663" lon="3.8275">
        <ele>5</ele>
        <time>2021-01-01T11:49:41Z</time>
      </trkpt>
      <trkpt lat="43.52662" lon="3.82759">
        <ele>4</ele>
        <time>2021-01-01T11:49:43Z</time>
      </trkpt>
      <trkpt lat="43.52661" lon="3.82768">
        <ele>3</ele>
        <time>2021-01-01T11:49:45Z</time>
      </trkpt>
      <trkpt lat="43.5266" lon="3.82777">
        <ele>3</ele>
        <time>2021-01-01T11:49:47Z</time>
      </trkpt>
      <trkpt lat="43.52659" lon="3.82787">
        <ele>3</ele>
        <time>2021-01-01T11:49:49Z</time>
      </trkpt>
      <trkpt lat="43.52659" lon="3.82796">
        <ele>3</ele>
        <time>2021-01-01T11:49:51Z</time>
      </trkpt>
      <trkpt lat="43.52659" lon="3.82805">
        <ele>3</ele>
        <time>2021-01-01T11:49:53Z</time>
      </trkpt>
      <trkpt lat="43.52661" lon="3.82815">
        <ele>3</ele>
        <time>2021-01-01T11:49:55Z</time>
      </trkpt>
      <trkpt lat="43.52662" lon="3.82823">
        <ele>2</ele>
        <time>2021-01-01T11:49:57Z</time>
      </trkpt>
      <trkpt lat="43.52659" lon="3.8283">
        <ele>2</ele>
        <time>2021-01-01T11:50:00Z</time>
      </trkpt>
      <trkpt lat="43.52656" lon="3.82836">
        <ele>2</ele>
        <time>2021-01-01T11:50:02Z</time>
      </trkpt>
      <trkpt lat="43.52649" lon="3.82848">
        <ele>2</ele>
        <time>2021-01-01T11:50:03Z</time>
      </trkpt>
      <trkpt lat="43.52643" lon="3.82855">
        <ele>2</ele>
        <time>2021-01-01T11:50:05Z</time>
      </trkpt>
      <trkpt lat="43.52638" lon="3.82862">
        <ele>2</ele>
        <time>2021-01-01T11:50:07Z</time>
      </trkpt>
      <trkpt lat="43.52634" lon="3.82871">
        <ele>3</ele>
        <time>2021-01-01T11:50:09Z</time>
      </trkpt>
      <trkpt lat="43.52631" lon="3.82877">
        <ele>3</ele>
        <time>2021-01-01T11:50:11Z</time>
      </trkpt>
      <trkpt lat="43.52625" lon="3.8289">
        <ele>3</ele>
        <time>2021-01-01T11:50:14Z</time>
      </trkpt>
      <trkpt lat="43.52621" lon="3.82898">
        <ele>4</ele>
        <time>2021-01-01T11:50:15Z</time>
      </trkpt>
      <trkpt lat="43.52618" lon="3.82908">
        <ele>4</ele>
        <time>2021-01-01T11:50:17Z</time>
      </trkpt>
      <trkpt lat="43.52612" lon="3.82918">
        <ele>4</ele>
        <time>2021-01-01T11:50:19Z</time>
      </trkpt>
      <trkpt lat="43.5261" lon="3.82923">
        <ele>4</ele>
        <time>2021-01-01T11:50:20Z</time>
      </trkpt>
      <trkpt lat="43.52604" lon="3.82932">
        <ele>5</ele>
        <time>2021-01-01T11:50:22Z</time>
      </trkpt>
      <trkpt lat="43.52602" lon="3.82938">
        <ele>5</ele>
        <time>2021-01-01T11:50:24Z</time>
      </trkpt>
      <trkpt lat="43.52599" lon="3.82946">
        <ele>5</ele>
        <time>2021-01-01T11:50:26Z</time>
      </trkpt>
      <trkpt lat="43.52596" lon="3.82953">
        <ele>5</ele>
        <time>2021-01-01T11:50:28Z</time>
      </trkpt>
      <trkpt lat="43.52594" lon="3.8296">
        <ele>5</ele>
        <time>2021-01-01T11:50:29Z</time>
      </trkpt>
      <trkpt lat="43.5259" lon="3.82969">
        <ele>4</ele>
        <time>2021-01-01T11:50:30Z</time>
      </trkpt>
      <trkpt lat="43.52586" lon="3.82979">
        <ele>4</ele>
        <time>2021-01-01T11:50:31Z</time>
      </trkpt>
      <trkpt lat="43.52583" lon="3.82985">
        <ele>4</ele>
        <time>2021-01-01T11:50:32Z</time>
      </trkpt>
      <trkpt lat="43.5258" lon="3.8299">
        <ele>4</ele>
        <time>2021-01-01T11:50:33Z</time>
      </trkpt>
      <trkpt lat="43.52578" lon="3.82996">
        <ele>4</ele>
        <time>2021-01-01T11:50:34Z</time>
      </trkpt>
      <trkpt lat="43.52576" lon="3.83002">
        <ele>4</ele>
        <time>2021-01-01T11:50:35Z</time>
      </trkpt>
      <trkpt lat="43.52572" lon="3.83012">
        <ele>3</ele>
        <time>2021-01-01T11:50:37Z</time>
      </trkpt>
      <trkpt lat="43.52566" lon="3.83021">
        <ele>3</ele>
        <time>2021-01-01T11:50:39Z</time>
      </trkpt>
      <trkpt lat="43.52562" lon="3.83031">
        <ele>3</ele>
        <time>2021-01-01T11:50:41Z</time>
      </trkpt>
      <trkpt lat="43.52557" lon="3.83042">
        <ele>3</ele>
        <time>2021-01-01T11:50:43Z</time>
      </trkpt>
      <trkpt lat="43.52554" lon="3.83053">
        <ele>3</ele>
        <time>2021-01-01T11:50:45Z</time>
      </trkpt>
      <trkpt lat="43.52551" lon="3.83058">
        <ele>3</ele>
        <time>2021-01-01T11:50:46Z</time>
      </trkpt>
      <trkpt lat="43.52548" lon="3.83069">
        <ele>4</ele>
        <time>2021-01-01T11:50:48Z</time>
      </trkpt>
      <trkpt lat="43.52544" lon="3.83079">
        <ele>5</ele>
        <time>2021-01-01T11:50:50Z</time>
      </trkpt>
      <trkpt lat="43.52539" lon="3.8309">
        <ele>5</ele>
        <time>2021-01-01T11:50:52Z</time>
      </trkpt>
      <trkpt lat="43.52537" lon="3.83096">
        <ele>5</ele>
        <time>2021-01-01T11:50:53Z</time>
      </trkpt>
      <trkpt lat="43.52534" lon="3.83106">
        <ele>5</ele>
        <time>2021-01-01T11:50:56Z</time>
      </trkpt>
      <trkpt lat="43.52531" lon="3.83117">
        <ele>5</ele>
        <time>2021-01-01T11:50:58Z</time>
      </trkpt>
      <trkpt lat="43.52528" lon="3.83124">
        <ele>4</ele>
        <time>2021-01-01T11:50:59Z</time>
      </trkpt>
      <trkpt lat="43.52526" lon="3.8313">
        <ele>4</ele>
        <time>2021-01-01T11:51:00Z</time>
      </trkpt>
      <trkpt lat="43.5252" lon="3.83143">
        <ele>4</ele>
        <time>2021-01-01T11:51:02Z</time>
      </trkpt>
      <trkpt lat="43.52514" lon="3.83149">
        <ele>4</ele>
        <time>2021-01-01T11:51:04Z</time>
      </trkpt>
      <trkpt lat="43.52508" lon="3.83146">
        <ele>4</ele>
        <time>2021-01-01T11:51:06Z</time>
      </trkpt>
      <trkpt lat="43.52502" lon="3.83139">
        <ele>4</ele>
        <time>2021-01-01T11:51:08Z</time>
      </trkpt>
      <trkpt lat="43.52498" lon="3.83136">
        <ele>4</ele>
        <time>2021-01-01T11:51:10Z</time>
      </trkpt>
      <trkpt lat="43.52492" lon="3.83137">
        <ele>4</ele>
        <time>2021-01-01T11:51:12Z</time>
      </trkpt>
      <trkpt lat="43.52488" lon="3.83141">
        <ele>4</ele>
        <time>2021-01-01T11:51:13Z</time>
      </trkpt>
      <trkpt lat="43.52482" lon="3.83144">
        <ele>5</ele>
        <time>2021-01-01T11:51:14Z</time>
      </trkpt>
      <trkpt lat="43.52475" lon="3.8315">
        <ele>5</ele>
        <time>2021-01-01T11:51:16Z</time>
      </trkpt>
      <trkpt lat="43.52467" lon="3.83155">
        <ele>5</ele>
        <time>2021-01-01T11:51:18Z</time>
      </trkpt>
      <trkpt lat="43.5246" lon="3.83158">
        <ele>5</ele>
        <time>2021-01-01T11:51:20Z</time>
      </trkpt>
      <trkpt lat="43.52455" lon="3.83161">
        <ele>5</ele>
        <time>2021-01-01T11:51:22Z</time>
      </trkpt>
      <trkpt lat="43.5245" lon="3.83163">
        <ele>5</ele>
        <time>2021-01-01T11:51:25Z</time>
      </trkpt>
      <trkpt lat="43.52446" lon="3.83165">
        <ele>5</ele>
        <time>2021-01-01T11:51:28Z</time>
      </trkpt>
      <trkpt lat="43.5244" lon="3.83168">
        <ele>5</ele>
        <time>2021-01-01T11:51:30Z</time>
      </trkpt>
      <trkpt lat="43.52433" lon="3.83172">
        <ele>5</ele>
        <time>2021-01-01T11:51:32Z</time>
      </trkpt>
      <trkpt lat="43.52425" lon="3.83175">
        <ele>5</ele>
        <time>2021-01-01T11:51:34Z</time>
      </trkpt>
      <trkpt lat="43.52417" lon="3.8318">
        <ele>5</ele>
        <time>2021-01-01T11:51:36Z</time>
      </trkpt>
      <trkpt lat="43.5241" lon="3.83185">
        <ele>5</ele>
        <time>2021-01-01T11:51:38Z</time>
      </trkpt>
      <trkpt lat="43.52402" lon="3.83189">
        <ele>6</ele>
        <time>2021-01-01T11:51:40Z</time>
      </trkpt>
      <trkpt lat="43.52393" lon="3.83192">
        <ele>6</ele>
        <time>2021-01-01T11:51:42Z</time>
      </trkpt>
      <trkpt lat="43.52388" lon="3.83194">
        <ele>6</ele>
        <time>2021-01-01T11:51:43Z</time>
      </trkpt>
      <trkpt lat="43.52381" lon="3.83199">
        <ele>5</ele>
        <time>2021-01-01T11:51:45Z</time>
      </trkpt>
      <trkpt lat="43.52377" lon="3.83201">
        <ele>5</ele>
        <time>2021-01-01T11:51:46Z</time>
      </trkpt>
      <trkpt lat="43.52369" lon="3.83206">
        <ele>4</ele>
        <time>2021-01-01T11:51:48Z</time>
      </trkpt>
      <trkpt lat="43.52364" lon="3.83209">
        <ele>3</ele>
        <time>2021-01-01T11:51:49Z</time>
      </trkpt>
      <trkpt lat="43.52358" lon="3.83214">
        <ele>2</ele>
        <time>2021-01-01T11:51:51Z</time>
      </trkpt>
      <trkpt lat="43.52353" lon="3.83221">
        <ele>1</ele>
        <time>2021-01-01T11:51:53Z</time>
      </trkpt>
      <trkpt lat="43.52348" lon="3.83227">
        <ele>1</ele>
        <time>2021-01-01T11:51:55Z</time>
      </trkpt>
      <trkpt lat="43.52343" lon="3.83235">
        <ele>2</ele>
        <time>2021-01-01T11:51:57Z</time>
      </trkpt>
      <trkpt lat="43.52338" lon="3.83242">
        <ele>2</ele>
        <time>2021-01-01T11:51:59Z</time>
      </trkpt>
      <trkpt lat="43.52332" lon="3.83251">
        <ele>2</ele>
        <time>2021-01-01T11:52:01Z</time>
      </trkpt>
      <trkpt lat="43.52327" lon="3.8326">
        <ele>1.7</ele>
        <time>2021-01-01T11:52:03Z</time>
      </trkpt>
      <trkpt lat="43.52321" lon="3.83269">
        <ele>1.6</ele>
        <time>2021-01-01T11:52:05Z</time>
      </trkpt>
      <trkpt lat="43.52318" lon="3.83274">
        <ele>1.6</ele>
        <time>2021-01-01T11:52:06Z</time>
      </trkpt>
      <trkpt lat="43.52314" lon="3.83279">
        <ele>1.7</ele>
        <time>2021-01-01T11:52:07Z</time>
      </trkpt>
      <trkpt lat="43.52308" lon="3.83287">
        <ele>1.6</ele>
        <time>2021-01-01T11:52:09Z</time>
      </trkpt>
      <trkpt lat="43.52301" lon="3.83294">
        <ele>1</ele>
        <time>2021-01-01T11:52:11Z</time>
      </trkpt>
      <trkpt lat="43.52296" lon="3.83301">
        <ele>1.5</ele>
        <time>2021-01-01T11:52:13Z</time>
      </trkpt>
      <trkpt lat="43.52295" lon="3.83301">
        <ele>1</ele>
        <time>2021-01-01T11:52:29Z</time>
      </trkpt>
      <trkpt lat="43.52295" lon="3.83301">
        <ele>1</ele>
        <time>2021-01-01T11:52:31Z</time>
      </trkpt>
      <trkpt lat="43.52292" lon="3.83307">
        <ele>1</ele>
        <time>2021-01-01T11:52:33Z</time>
      </trkpt>
      <trkpt lat="43.52287" lon="3.83311">
        <ele>1</ele>
        <time>2021-01-01T11:52:35Z</time>
      </trkpt>
      <trkpt lat="43.52282" lon="3.83316">
        <ele>2</ele>
        <time>2021-01-01T11:52:37Z</time>
      </trkpt>
      <trkpt lat="43.52275" lon="3.83321">
        <ele>2</ele>
        <time>2021-01-01T11:52:39Z</time>
      </trkpt>
      <trkpt lat="43.52272" lon="3.83325">
        <ele>2</ele>
        <time>2021-01-01T11:52:41Z</time>
      </trkpt>
      <trkpt lat="43.52268" lon="3.83331">
        <ele>2</ele>
        <time>2021-01-01T11:52:43Z</time>
      </trkpt>
      <trkpt lat="43.52262" lon="3.83342">
        <ele>2</ele>
        <time>2021-01-01T11:52:44Z</time>
      </trkpt>
      <trkpt lat="43.52257" lon="3.83352">
        <ele>2</ele>
        <time>2021-01-01T11:52:46Z</time>
      </trkpt>
      <trkpt lat="43.52254" lon="3.83356">
        <ele>2</ele>
        <time>2021-01-01T11:52:47Z</time>
      </trkpt>
      <trkpt lat="43.52247" lon="3.83365">
        <ele>3</ele>
        <time>2021-01-01T11:52:49Z</time>
      </trkpt>
      <trkpt lat="43.52244" lon="3.8337">
        <ele>3</ele>
        <time>2021-01-01T11:52:50Z</time>
      </trkpt>
      <trkpt lat="43.5224" lon="3.83373">
        <ele>3</ele>
        <time>2021-01-01T11:52:51Z</time>
      </trkpt>
      <trkpt lat="43.52232" lon="3.8338">
        <ele>3</ele>
        <time>2021-01-01T11:52:53Z</time>
      </trkpt>
      <trkpt lat="43.52228" lon="3.83385">
        <ele>3</ele>
        <time>2021-01-01T11:52:54Z</time>
      </trkpt>
      <trkpt lat="43.52225" lon="3.8339">
        <ele>3</ele>
        <time>2021-01-01T11:52:55Z</time>
      </trkpt>
      <trkpt lat="43.52221" lon="3.83395">
        <ele>3</ele>
        <time>2021-01-01T11:52:56Z</time>
      </trkpt>
      <trkpt lat="43.52217" lon="3.83398">
        <ele>3</ele>
        <time>2021-01-01T11:52:57Z</time>
      </trkpt>
      <trkpt lat="43.52212" lon="3.834">
        <ele>3</ele>
        <time>2021-01-01T11:52:58Z</time>
      </trkpt>
      <trkpt lat="43.52205" lon="3.83401">
        <ele>2</ele>
        <time>2021-01-01T11:52:59Z</time>
      </trkpt>
      <trkpt lat="43.52201" lon="3.83405">
        <ele>2</ele>
        <time>2021-01-01T11:53:00Z</time>
      </trkpt>
      <trkpt lat="43.52196" lon="3.83409">
        <ele>1</ele>
        <time>2021-01-01T11:53:01Z</time>
      </trkpt>
      <trkpt lat="43.52192" lon="3.83413">
        <ele>1</ele>
        <time>2021-01-01T11:53:02Z</time>
      </trkpt>
      <trkpt lat="43.52188" lon="3.83417">
        <ele>1</ele>
        <time>2021-01-01T11:53:03Z</time>
      </trkpt>
      <trkpt lat="43.52184" lon="3.8342">
        <ele>1</ele>
        <time>2021-01-01T11:53:04Z</time>
      </trkpt>
      <trkpt lat="43.52177" lon="3.83428">
        <ele>1</ele>
        <time>2021-01-01T11:53:06Z</time>
      </trkpt>
      <trkpt lat="43.52173" lon="3.83432">
        <ele>1</ele>
        <time>2021-01-01T11:53:07Z</time>
      </trkpt>
      <trkpt lat="43.52168" lon="3.83437">
        <ele>1</ele>
        <time>2021-01-01T11:53:08Z</time>
      </trkpt>
      <trkpt lat="43.52164" lon="3.83442">
        <ele>1</ele>
        <time>2021-01-01T11:53:09Z</time>
      </trkpt>
      <trkpt lat="43.5216" lon="3.83447">
        <ele>1</ele>
        <time>2021-01-01T11:53:10Z</time>
      </trkpt>
      <trkpt lat="43.52155" lon="3.83452">
        <ele>1</ele>
        <time>2021-01-01T11:53:11Z</time>
      </trkpt>
      <trkpt lat="43.52151" lon="3.83456">
        <ele>1</ele>
        <time>2021-01-01T11:53:12Z</time>
      </trkpt>
      <trkpt lat="43.52147" lon="3.83461">
        <ele>1</ele>
        <time>2021-01-01T11:53:13Z</time>
      </trkpt>
      <trkpt lat="43.52143" lon="3.83465">
        <ele>1</ele>
        <time>2021-01-01T11:53:14Z</time>
      </trkpt>
      <trkpt lat="43.52139" lon="3.8347">
        <ele>-1</ele>
        <time>2021-01-01T11:53:15Z</time>
      </trkpt>
      <trkpt lat="43.52135" lon="3.83474">
        <ele>-1</ele>
        <time>2021-01-01T11:53:16Z</time>
      </trkpt>
      <trkpt lat="43.52131" lon="3.83478">
        <ele>-1</ele>
        <time>2021-01-01T11:53:17Z</time>
      </trkpt>
      <trkpt lat="43.52127" lon="3.83483">
        <ele>-1</ele>
        <time>2021-01-01T11:53:18Z</time>
      </trkpt>
      <trkpt lat="43.52123" lon="3.83487">
        <ele>-1</ele>
        <time>2021-01-01T11:53:19Z</time>
      </trkpt>
      <trkpt lat="43.52118" lon="3.83492">
        <ele>-1</ele>
        <time>2021-01-01T11:53:20Z</time>
      </trkpt>
      <trkpt lat="43.52114" lon="3.83497">
        <ele>-1</ele>
        <time>2021-01-01T11:53:21Z</time>
      </trkpt>
      <trkpt lat="43.52109" lon="3.83501">
        <ele>1</ele>
        <time>2021-01-01T11:53:22Z</time>
      </trkpt>
      <trkpt lat="43.52102" lon="3.83503">
        <ele>-1</ele>
        <time>2021-01-01T11:53:23Z</time>
      </trkpt>
      <trkpt lat="43.52096" lon="3.83505">
        <ele>-1</ele>
        <time>2021-01-01T11:53:24Z</time>
      </trkpt>
      <trkpt lat="43.52091" lon="3.83506">
        <ele>1</ele>
        <time>2021-01-01T11:53:25Z</time>
      </trkpt>
      <trkpt lat="43.52084" lon="3.83507">
        <ele>1</ele>
        <time>2021-01-01T11:53:26Z</time>
      </trkpt>
      <trkpt lat="43.52078" lon="3.83506">
        <ele>1</ele>
        <time>2021-01-01T11:53:27Z</time>
      </trkpt>
      <trkpt lat="43.52073" lon="3.83506">
        <ele>1</ele>
        <time>2021-01-01T11:53:28Z</time>
      </trkpt>
      <trkpt lat="43.52067" lon="3.83504">
        <ele>1</ele>
        <time>2021-01-01T11:53:29Z</time>
      </trkpt>
      <trkpt lat="43.52062" lon="3.83503">
        <ele>1</ele>
        <time>2021-01-01T11:53:30Z</time>
      </trkpt>
      <trkpt lat="43.52055" lon="3.83502">
        <ele>1</ele>
        <time>2021-01-01T11:53:31Z</time>
      </trkpt>
      <trkpt lat="43.52049" lon="3.83501">
        <ele>1</ele>
        <time>2021-01-01T11:53:32Z</time>
      </trkpt>
      <trkpt lat="43.52044" lon="3.83499">
        <ele>1</ele>
        <time>2021-01-01T11:53:33Z</time>
      </trkpt>
      <trkpt lat="43.52038" lon="3.83497">
        <ele>1</ele>
        <time>2021-01-01T11:53:34Z</time>
      </trkpt>
      <trkpt lat="43.52033" lon="3.83495">
        <ele>1</ele>
        <time>2021-01-01T11:53:35Z</time>
      </trkpt>
      <trkpt lat="43.52027" lon="3.83493">
        <ele>1</ele>
        <time>2021-01-01T11:53:36Z</time>
      </trkpt>
      <trkpt lat="43.52021" lon="3.83491">
        <ele>2</ele>
        <time>2021-01-01T11:53:37Z</time>
      </trkpt>
      <trkpt lat="43.52016" lon="3.83489">
        <ele>2</ele>
        <time>2021-01-01T11:53:38Z</time>
      </trkpt>
      <trkpt lat="43.52011" lon="3.83487">
        <ele>2</ele>
        <time>2021-01-01T11:53:39Z</time>
      </trkpt>
      <trkpt lat="43.52005" lon="3.83482">
        <ele>2</ele>
        <time>2021-01-01T11:53:41Z</time>
      </trkpt>
      <trkpt lat="43.52001" lon="3.83476">
        <ele>3</ele>
        <time>2021-01-01T11:53:43Z</time>
      </trkpt>
      <trkpt lat="43.51999" lon="3.83469">
        <ele>3</ele>
        <time>2021-01-01T11:53:45Z</time>
      </trkpt>
      <trkpt lat="43.51996" lon="3.83462">
        <ele>3</ele>
        <time>2021-01-01T11:53:48Z</time>
      </trkpt>
      <trkpt lat="43.51993" lon="3.83454">
        <ele>2</ele>
        <time>2021-01-01T11:53:49Z</time>
      </trkpt>
      <trkpt lat="43.51989" lon="3.83444">
        <ele>2</ele>
        <time>2021-01-01T11:53:50Z</time>
      </trkpt>
      <trkpt lat="43.51986" lon="3.83437">
        <ele>2</ele>
        <time>2021-01-01T11:53:51Z</time>
      </trkpt>
      <trkpt lat="43.51984" lon="3.83431">
        <ele>2</ele>
        <time>2021-01-01T11:53:52Z</time>
      </trkpt>
      <trkpt lat="43.51983" lon="3.83424">
        <ele>2</ele>
        <time>2021-01-01T11:53:53Z</time>
      </trkpt>
      <trkpt lat="43.51981" lon="3.83417">
        <ele>2</ele>
        <time>2021-01-01T11:53:54Z</time>
      </trkpt>
      <trkpt lat="43.51979" lon="3.83411">
        <ele>2</ele>
        <time>2021-01-01T11:53:55Z</time>
      </trkpt>
      <trkpt lat="43.51976" lon="3.83405">
        <ele>2</ele>
        <time>2021-01-01T11:53:56Z</time>
      </trkpt>
      <trkpt lat="43.51972" lon="3.83393">
        <ele>2</ele>
        <time>2021-01-01T11:53:58Z</time>
      </trkpt>
      <trkpt lat="43.51969" lon="3.83387">
        <ele>2</ele>
        <time>2021-01-01T11:53:59Z</time>
      </trkpt>
      <trkpt lat="43.51966" lon="3.8338">
        <ele>1</ele>
        <time>2021-01-01T11:54:00Z</time>
      </trkpt>
      <trkpt lat="43.51964" lon="3.83374">
        <ele>1</ele>
        <time>2021-01-01T11:54:01Z</time>
      </trkpt>
      <trkpt lat="43.51961" lon="3.83368">
        <ele>1</ele>
        <time>2021-01-01T11:54:02Z</time>
      </trkpt>
      <trkpt lat="43.51959" lon="3.83361">
        <ele>1</ele>
        <time>2021-01-01T11:54:03Z</time>
      </trkpt>
      <trkpt lat="43.51955" lon="3.83354">
        <ele>1</ele>
        <time>2021-01-01T11:54:04Z</time>
      </trkpt>
      <trkpt lat="43.51951" lon="3.8335">
        <ele>1</ele>
        <time>2021-01-01T11:54:05Z</time>
      </trkpt>
      <trkpt lat="43.51946" lon="3.83346">
        <ele>1</ele>
        <time>2021-01-01T11:54:06Z</time>
      </trkpt>
      <trkpt lat="43.51941" lon="3.83344">
        <ele>1</ele>
        <time>2021-01-01T11:54:07Z</time>
      </trkpt>
      <trkpt lat="43.51935" lon="3.83343">
        <ele>1</ele>
        <time>2021-01-01T11:54:08Z</time>
      </trkpt>
      <trkpt lat="43.5193" lon="3.83345">
        <ele>1</ele>
        <time>2021-01-01T11:54:09Z</time>
      </trkpt>
      <trkpt lat="43.51924" lon="3.83348">
        <ele>1</ele>
        <time>2021-01-01T11:54:10Z</time>
      </trkpt>
      <trkpt lat="43.51919" lon="3.83352">
        <ele>1</ele>
        <time>2021-01-01T11:54:11Z</time>
      </trkpt>
      <trkpt lat="43.51914" lon="3.83357">
        <ele>1</ele>
        <time>2021-01-01T11:54:12Z</time>
      </trkpt>
      <trkpt lat="43.5191" lon="3.8336">
        <ele>1</ele>
        <time>2021-01-01T11:54:13Z</time>
      </trkpt>
      <trkpt lat="43.51905" lon="3.83365">
        <ele>1</ele>
        <time>2021-01-01T11:54:14Z</time>
      </trkpt>
      <trkpt lat="43.519" lon="3.83369">
        <ele>1</ele>
        <time>2021-01-01T11:54:15Z</time>
      </trkpt>
      <trkpt lat="43.51894" lon="3.83373">
        <ele>1</ele>
        <time>2021-01-01T11:54:16Z</time>
      </trkpt>
      <trkpt lat="43.51889" lon="3.83378">
        <ele>1</ele>
        <time>2021-01-01T11:54:17Z</time>
      </trkpt>
      <trkpt lat="43.51884" lon="3.83382">
        <ele>-1</ele>
        <time>2021-01-01T11:54:18Z</time>
      </trkpt>
      <trkpt lat="43.51879" lon="3.83386">
        <ele>-1</ele>
        <time>2021-01-01T11:54:19Z</time>
      </trkpt>
      <trkpt lat="43.51874" lon="3.83389">
        <ele>-1</ele>
        <time>2021-01-01T11:54:20Z</time>
      </trkpt>
      <trkpt lat="43.5187" lon="3.83393">
        <ele>-1</ele>
        <time>2021-01-01T11:54:21Z</time>
      </trkpt>
      <trkpt lat="43.51865" lon="3.83396">
        <ele>-1</ele>
        <time>2021-01-01T11:54:22Z</time>
      </trkpt>
      <trkpt lat="43.5186" lon="3.834">
        <ele>-2</ele>
        <time>2021-01-01T11:54:23Z</time>
      </trkpt>
      <trkpt lat="43.51856" lon="3.83404">
        <ele>-2</ele>
        <time>2021-01-01T11:54:24Z</time>
      </trkpt>
      <trkpt lat="43.51851" lon="3.83408">
        <ele>-2</ele>
        <time>2021-01-01T11:54:25Z</time>
      </trkpt>
      <trkpt lat="43.51846" lon="3.83412">
        <ele>-2</ele>
        <time>2021-01-01T11:54:26Z</time>
      </trkpt>
      <trkpt lat="43.51841" lon="3.83416">
        <ele>-2</ele>
        <time>2021-01-01T11:54:27Z</time>
      </trkpt>
      <trkpt lat="43.51836" lon="3.83421">
        <ele>-2</ele>
        <time>2021-01-01T11:54:28Z</time>
      </trkpt>
      <trkpt lat="43.51831" lon="3.83426">
        <ele>-2</ele>
        <time>2021-01-01T11:54:29Z</time>
      </trkpt>
      <trkpt lat="43.51826" lon="3.83431">
        <ele>-1</ele>
        <time>2021-01-01T11:54:30Z</time>
      </trkpt>
      <trkpt lat="43.51821" lon="3.83436">
        <ele>-2</ele>
        <time>2021-01-01T11:54:31Z</time>
      </trkpt>
      <trkpt lat="43.51816" lon="3.8344">
        <ele>-2</ele>
        <time>2021-01-01T11:54:32Z</time>
      </trkpt>
      <trkpt lat="43.51811" lon="3.83443">
        <ele>-2</ele>
        <time>2021-01-01T11:54:33Z</time>
      </trkpt>
      <trkpt lat="43.51807" lon="3.83447">
        <ele>-2</ele>
        <time>2021-01-01T11:54:34Z</time>
      </trkpt>
      <trkpt lat="43.51802" lon="3.83451">
        <ele>-1</ele>
        <time>2021-01-01T11:54:35Z</time>
      </trkpt>
      <trkpt lat="43.51798" lon="3.83454">
        <ele>-1</ele>
        <time>2021-01-01T11:54:36Z</time>
      </trkpt>
      <trkpt lat="43.51792" lon="3.83457">
        <ele>-1</ele>
        <time>2021-01-01T11:54:37Z</time>
      </trkpt>
      <trkpt lat="43.51787" lon="3.83461">
        <ele>1</ele>
        <time>2021-01-01T11:54:38Z</time>
      </trkpt>
      <trkpt lat="43.51782" lon="3.83462">
        <ele>1</ele>
        <time>2021-01-01T11:54:39Z</time>
      </trkpt>
      <trkpt lat="43.51777" lon="3.83464">
        <ele>1</ele>
        <time>2021-01-01T11:54:40Z</time>
      </trkpt>
      <trkpt lat="43.51769" lon="3.83469">
        <ele>-1</ele>
        <time>2021-01-01T11:54:42Z</time>
      </trkpt>
      <trkpt lat="43.51764" lon="3.83472">
        <ele>-1</ele>
        <time>2021-01-01T11:54:43Z</time>
      </trkpt>
      <trkpt lat="43.5176" lon="3.83475">
        <ele>-1</ele>
        <time>2021-01-01T11:54:44Z</time>
      </trkpt>
      <trkpt lat="43.51756" lon="3.83477">
        <ele>-1</ele>
        <time>2021-01-01T11:54:45Z</time>
      </trkpt>
      <trkpt lat="43.51751" lon="3.83479">
        <ele>-2</ele>
        <time>2021-01-01T11:54:46Z</time>
      </trkpt>
      <trkpt lat="43.51742" lon="3.83484">
        <ele>-1</ele>
        <time>2021-01-01T11:54:48Z</time>
      </trkpt>
      <trkpt lat="43.51738" lon="3.83486">
        <ele>-1</ele>
        <time>2021-01-01T11:54:49Z</time>
      </trkpt>
      <trkpt lat="43.51733" lon="3.83487">
        <ele>-1</ele>
        <time>2021-01-01T11:54:50Z</time>
      </trkpt>
      <trkpt lat="43.51727" lon="3.83488">
        <ele>-1</ele>
        <time>2021-01-01T11:54:51Z</time>
      </trkpt>
      <trkpt lat="43.51722" lon="3.83489">
        <ele>1</ele>
        <time>2021-01-01T11:54:52Z</time>
      </trkpt>
      <trkpt lat="43.51718" lon="3.83488">
        <ele>1</ele>
        <time>2021-01-01T11:54:53Z</time>
      </trkpt>
      <trkpt lat="43.51712" lon="3.83487">
        <ele>1</ele>
        <time>2021-01-01T11:54:54Z</time>
      </trkpt>
      <trkpt lat="43.51707" lon="3.83487">
        <ele>1</ele>
        <time>2021-01-01T11:54:55Z</time>
      </trkpt>
      <trkpt lat="43.51701" lon="3.83489">
        <ele>1</ele>
        <time>2021-01-01T11:54:56Z</time>
      </trkpt>
      <trkpt lat="43.51696" lon="3.83491">
        <ele>1</ele>
        <time>2021-01-01T11:54:57Z</time>
      </trkpt>
      <trkpt lat="43.5169" lon="3.83492">
        <ele>1</ele>
        <time>2021-01-01T11:54:58Z</time>
      </trkpt>
      <trkpt lat="43.51684" lon="3.83494">
        <ele>1</ele>
        <time>2021-01-01T11:54:59Z</time>
      </trkpt>
      <trkpt lat="43.51678" lon="3.83494">
        <ele>1</ele>
        <time>2021-01-01T11:55:00Z</time>
      </trkpt>
      <trkpt lat="43.51673" lon="3.83494">
        <ele>1</ele>
        <time>2021-01-01T11:55:01Z</time>
      </trkpt>
      <trkpt lat="43.51667" lon="3.83493">
        <ele>1</ele>
        <time>2021-01-01T11:55:02Z</time>
      </trkpt>
      <trkpt lat="43.51662" lon="3.83492">
        <ele>1</ele>
        <time>2021-01-01T11:55:03Z</time>
      </trkpt>
      <trkpt lat="43.51657" lon="3.8349">
        <ele>1</ele>
        <time>2021-01-01T11:55:04Z</time>
      </trkpt>
      <trkpt lat="43.51652" lon="3.83488">
        <ele>1</ele>
        <time>2021-01-01T11:55:05Z</time>
      </trkpt>
      <trkpt lat="43.51646" lon="3.83484">
        <ele>1</ele>
        <time>2021-01-01T11:55:06Z</time>
      </trkpt>
      <trkpt lat="43.51642" lon="3.83481">
        <ele>1</ele>
        <time>2021-01-01T11:55:07Z</time>
      </trkpt>
      <trkpt lat="43.51637" lon="3.83477">
        <ele>1</ele>
        <time>2021-01-01T11:55:08Z</time>
      </trkpt>
      <trkpt lat="43.51633" lon="3.83472">
        <ele>1</ele>
        <time>2021-01-01T11:55:09Z</time>
      </trkpt>
      <trkpt lat="43.51629" lon="3.83468">
        <ele>1</ele>
        <time>2021-01-01T11:55:10Z</time>
      </trkpt>
      <trkpt lat="43.51624" lon="3.83464">
        <ele>2</ele>
        <time>2021-01-01T11:55:11Z</time>
      </trkpt>
      <trkpt lat="43.51619" lon="3.83462">
        <ele>2</ele>
        <time>2021-01-01T11:55:12Z</time>
      </trkpt>
      <trkpt lat="43.51614" lon="3.83459">
        <ele>2</ele>
        <time>2021-01-01T11:55:13Z</time>
      </trkpt>
      <trkpt lat="43.51609" lon="3.83455">
        <ele>3</ele>
        <time>2021-01-01T11:55:14Z</time>
      </trkpt>
      <trkpt lat="43.51605" lon="3.83452">
        <ele>3</ele>
        <time>2021-01-01T11:55:15Z</time>
      </trkpt>
      <trkpt lat="43.51601" lon="3.83449">
        <ele>3</ele>
        <time>2021-01-01T11:55:16Z</time>
      </trkpt>
      <trkpt lat="43.51597" lon="3.83445">
        <ele>3</ele>
        <time>2021-01-01T11:55:17Z</time>
      </trkpt>
      <trkpt lat="43.51593" lon="3.83442">
        <ele>3</ele>
        <time>2021-01-01T11:55:18Z</time>
      </trkpt>
      <trkpt lat="43.51588" lon="3.83438">
        <ele>2</ele>
        <time>2021-01-01T11:55:19Z</time>
      </trkpt>
      <trkpt lat="43.51585" lon="3.83435">
        <ele>2</ele>
        <time>2021-01-01T11:55:20Z</time>
      </trkpt>
      <trkpt lat="43.5158" lon="3.83432">
        <ele>2</ele>
        <time>2021-01-01T11:55:21Z</time>
      </trkpt>
      <trkpt lat="43.51576" lon="3.83429">
        <ele>2</ele>
        <time>2021-01-01T11:55:22Z</time>
      </trkpt>
      <trkpt lat="43.51572" lon="3.83424">
        <ele>2</ele>
        <time>2021-01-01T11:55:23Z</time>
      </trkpt>
      <trkpt lat="43.51565" lon="3.83416">
        <ele>2</ele>
        <time>2021-01-01T11:55:25Z</time>
      </trkpt>
      <trkpt lat="43.51561" lon="3.83413">
        <ele>2</ele>
        <time>2021-01-01T11:55:26Z</time>
      </trkpt>
      <trkpt lat="43.51556" lon="3.83409">
        <ele>2</ele>
        <time>2021-01-01T11:55:27Z</time>
      </trkpt>
      <trkpt lat="43.51552" lon="3.83407">
        <ele>1</ele>
        <time>2021-01-01T11:55:28Z</time>
      </trkpt>
      <trkpt lat="43.51545" lon="3.834">
        <ele>1</ele>
        <time>2021-01-01T11:55:30Z</time>
      </trkpt>
      <trkpt lat="43.51537" lon="3.83394">
        <ele>1</ele>
        <time>2021-01-01T11:55:32Z</time>
      </trkpt>
      <trkpt lat="43.51531" lon="3.83388">
        <ele>2</ele>
        <time>2021-01-01T11:55:34Z</time>
      </trkpt>
      <trkpt lat="43.51524" lon="3.83383">
        <ele>2</ele>
        <time>2021-01-01T11:55:36Z</time>
      </trkpt>
      <trkpt lat="43.51517" lon="3.8338">
        <ele>2</ele>
        <time>2021-01-01T11:55:38Z</time>
      </trkpt>
      <trkpt lat="43.51511" lon="3.83379">
        <ele>2</ele>
        <time>2021-01-01T11:55:40Z</time>
      </trkpt>
      <trkpt lat="43.51506" lon="3.83387">
        <ele>1</ele>
        <time>2021-01-01T11:55:42Z</time>
      </trkpt>
      <trkpt lat="43.51502" lon="3.83394">
        <ele>1</ele>
        <time>2021-01-01T11:55:44Z</time>
      </trkpt>
      <trkpt lat="43.51498" lon="3.83403">
        <ele>1</ele>
        <time>2021-01-01T11:55:46Z</time>
      </trkpt>
      <trkpt lat="43.51494" lon="3.83412">
        <ele>1</ele>
        <time>2021-01-01T11:55:48Z</time>
      </trkpt>
      <trkpt lat="43.51492" lon="3.83422">
        <ele>1</ele>
        <time>2021-01-01T11:55:50Z</time>
      </trkpt>
      <trkpt lat="43.5149" lon="3.83432">
        <ele>2</ele>
        <time>2021-01-01T11:55:52Z</time>
      </trkpt>
      <trkpt lat="43.51488" lon="3.83441">
        <ele>2</ele>
        <time>2021-01-01T11:55:54Z</time>
      </trkpt>
      <trkpt lat="43.51486" lon="3.83451">
        <ele>2</ele>
        <time>2021-01-01T11:55:56Z</time>
      </trkpt>
      <trkpt lat="43.51485" lon="3.83459">
        <ele>2</ele>
        <time>2021-01-01T11:55:58Z</time>
      </trkpt>
      <trkpt lat="43.51482" lon="3.83466">
        <ele>2</ele>
        <time>2021-01-01T11:56:00Z</time>
      </trkpt>
      <trkpt lat="43.51475" lon="3.8347">
        <ele>2</ele>
        <time>2021-01-01T11:56:03Z</time>
      </trkpt>
      <trkpt lat="43.51469" lon="3.83474">
        <ele>2</ele>
        <time>2021-01-01T11:56:05Z</time>
      </trkpt>
      <trkpt lat="43.51464" lon="3.83477">
        <ele>2</ele>
        <time>2021-01-01T11:56:07Z</time>
      </trkpt>
      <trkpt lat="43.51458" lon="3.83476">
        <ele>2</ele>
        <time>2021-01-01T11:56:10Z</time>
      </trkpt>
      <trkpt lat="43.51456" lon="3.83469">
        <ele>2</ele>
        <time>2021-01-01T11:56:12Z</time>
      </trkpt>
      <trkpt lat="43.51453" lon="3.83462">
        <ele>3</ele>
        <time>2021-01-01T11:56:14Z</time>
      </trkpt>
      <trkpt lat="43.51448" lon="3.83454">
        <ele>3</ele>
        <time>2021-01-01T11:56:16Z</time>
      </trkpt>
      <trkpt lat="43.51444" lon="3.83444">
        <ele>3</ele>
        <time>2021-01-01T11:56:18Z</time>
      </trkpt>
      <trkpt lat="43.51441" lon="3.83436">
        <ele>2</ele>
        <time>2021-01-01T11:56:20Z</time>
      </trkpt>
      <trkpt lat="43.51437" lon="3.83427">
        <ele>2</ele>
        <time>2021-01-01T11:56:22Z</time>
      </trkpt>
      <trkpt lat="43.51434" lon="3.83421">
        <ele>2</ele>
        <time>2021-01-01T11:56:24Z</time>
      </trkpt>
      <trkpt lat="43.51431" lon="3.83413">
        <ele>2</ele>
        <time>2021-01-01T11:56:26Z</time>
      </trkpt>
      <trkpt lat="43.51426" lon="3.83401">
        <ele>2</ele>
        <time>2021-01-01T11:56:28Z</time>
      </trkpt>
      <trkpt lat="43.51424" lon="3.83395">
        <ele>2</ele>
        <time>2021-01-01T11:56:29Z</time>
      </trkpt>
      <trkpt lat="43.51421" lon="3.83389">
        <ele>2</ele>
        <time>2021-01-01T11:56:30Z</time>
      </trkpt>
      <trkpt lat="43.51419" lon="3.83383">
        <ele>3</ele>
        <time>2021-01-01T11:56:31Z</time>
      </trkpt>
      <trkpt lat="43.51416" lon="3.83378">
        <ele>3</ele>
        <time>2021-01-01T11:56:32Z</time>
      </trkpt>
      <trkpt lat="43.51414" lon="3.83373">
        <ele>3</ele>
        <time>2021-01-01T11:56:33Z</time>
      </trkpt>
      <trkpt lat="43.51411" lon="3.83368">
        <ele>3</ele>
        <time>2021-01-01T11:56:34Z</time>
      </trkpt>
      <trkpt lat="43.51405" lon="3.83357">
        <ele>3</ele>
        <time>2021-01-01T11:56:36Z</time>
      </trkpt>
      <trkpt lat="43.51401" lon="3.8335">
        <ele>3</ele>
        <time>2021-01-01T11:56:38Z</time>
      </trkpt>
      <trkpt lat="43.51398" lon="3.83342">
        <ele>3</ele>
        <time>2021-01-01T11:56:40Z</time>
      </trkpt>
      <trkpt lat="43.51397" lon="3.83336">
        <ele>3</ele>
        <time>2021-01-01T11:56:42Z</time>
      </trkpt>
      <trkpt lat="43.51395" lon="3.8333">
        <ele>3</ele>
        <time>2021-01-01T11:56:44Z</time>
      </trkpt>
      <trkpt lat="43.51392" lon="3.83324">
        <ele>3</ele>
        <time>2021-01-01T11:56:47Z</time>
      </trkpt>
      <trkpt lat="43.51387" lon="3.83312">
        <ele>3</ele>
        <time>2021-01-01T11:56:49Z</time>
      </trkpt>
      <trkpt lat="43.51385" lon="3.83306">
        <ele>3</ele>
        <time>2021-01-01T11:56:50Z</time>
      </trkpt>
      <trkpt lat="43.51382" lon="3.83301">
        <ele>3</ele>
        <time>2021-01-01T11:56:51Z</time>
      </trkpt>
      <trkpt lat="43.51377" lon="3.83294">
        <ele>3</ele>
        <time>2021-01-01T11:56:52Z</time>
      </trkpt>
      <trkpt lat="43.51374" lon="3.83289">
        <ele>3</ele>
        <time>2021-01-01T11:56:53Z</time>
      </trkpt>
      <trkpt lat="43.5137" lon="3.83285">
        <ele>3</ele>
        <time>2021-01-01T11:56:54Z</time>
      </trkpt>
      <trkpt lat="43.51366" lon="3.8328">
        <ele>3</ele>
        <time>2021-01-01T11:56:55Z</time>
      </trkpt>
      <trkpt lat="43.51362" lon="3.83275">
        <ele>4</ele>
        <time>2021-01-01T11:56:56Z</time>
      </trkpt>
      <trkpt lat="43.51359" lon="3.8327">
        <ele>4</ele>
        <time>2021-01-01T11:56:57Z</time>
      </trkpt>
      <trkpt lat="43.51355" lon="3.83266">
        <ele>4</ele>
        <time>2021-01-01T11:56:58Z</time>
      </trkpt>
      <trkpt lat="43.51347" lon="3.83259">
        <ele>4</ele>
        <time>2021-01-01T11:57:00Z</time>
      </trkpt>
      <trkpt lat="43.51341" lon="3.8325">
        <ele>4</ele>
        <time>2021-01-01T11:57:02Z</time>
      </trkpt>
      <trkpt lat="43.51339" lon="3.83245">
        <ele>4</ele>
        <time>2021-01-01T11:57:03Z</time>
      </trkpt>
      <trkpt lat="43.51336" lon="3.83239">
        <ele>4</ele>
        <time>2021-01-01T11:57:04Z</time>
      </trkpt>
      <trkpt lat="43.51333" lon="3.83228">
        <ele>3</ele>
        <time>2021-01-01T11:57:06Z</time>
      </trkpt>
      <trkpt lat="43.51329" lon="3.83217">
        <ele>3</ele>
        <time>2021-01-01T11:57:08Z</time>
      </trkpt>
      <trkpt lat="43.51325" lon="3.83205">
        <ele>3</ele>
        <time>2021-01-01T11:57:10Z</time>
      </trkpt>
      <trkpt lat="43.5132" lon="3.83194">
        <ele>3</ele>
        <time>2021-01-01T11:57:12Z</time>
      </trkpt>
      <trkpt lat="43.51318" lon="3.83187">
        <ele>3</ele>
        <time>2021-01-01T11:57:13Z</time>
      </trkpt>
      <trkpt lat="43.51317" lon="3.83181">
        <ele>3</ele>
        <time>2021-01-01T11:57:14Z</time>
      </trkpt>
      <trkpt lat="43.51315" lon="3.83175">
        <ele>3</ele>
        <time>2021-01-01T11:57:15Z</time>
      </trkpt>
      <trkpt lat="43.51313" lon="3.83169">
        <ele>3</ele>
        <time>2021-01-01T11:57:16Z</time>
      </trkpt>
      <trkpt lat="43.5131" lon="3.83163">
        <ele>3</ele>
        <time>2021-01-01T11:57:17Z</time>
      </trkpt>
      <trkpt lat="43.51308" lon="3.83158">
        <ele>3</ele>
        <time>2021-01-01T11:57:18Z</time>
      </trkpt>
      <trkpt lat="43.51305" lon="3.83152">
        <ele>3</ele>
        <time>2021-01-01T11:57:19Z</time>
      </trkpt>
      <trkpt lat="43.51304" lon="3.83146">
        <ele>3</ele>
        <time>2021-01-01T11:57:20Z</time>
      </trkpt>
      <trkpt lat="43.51302" lon="3.8314">
        <ele>3</ele>
        <time>2021-01-01T11:57:21Z</time>
      </trkpt>
      <trkpt lat="43.513" lon="3.83134">
        <ele>3</ele>
        <time>2021-01-01T11:57:22Z</time>
      </trkpt>
      <trkpt lat="43.51297" lon="3.83124">
        <ele>3</ele>
        <time>2021-01-01T11:57:24Z</time>
      </trkpt>
      <trkpt lat="43.51294" lon="3.83118">
        <ele>3</ele>
        <time>2021-01-01T11:57:25Z</time>
      </trkpt>
      <trkpt lat="43.51293" lon="3.83112">
        <ele>3</ele>
        <time>2021-01-01T11:57:26Z</time>
      </trkpt>
      <trkpt lat="43.51291" lon="3.83107">
        <ele>3</ele>
        <time>2021-01-01T11:57:27Z</time>
      </trkpt>
      <trkpt lat="43.51289" lon="3.83097">
        <ele>2</ele>
        <time>2021-01-01T11:57:29Z</time>
      </trkpt>
      <trkpt lat="43.51284" lon="3.83091">
        <ele>2</ele>
        <time>2021-01-01T11:57:32Z</time>
      </trkpt>
      <trkpt lat="43.51283" lon="3.83084">
        <ele>2</ele>
        <time>2021-01-01T11:57:34Z</time>
      </trkpt>
      <trkpt lat="43.51281" lon="3.83077">
        <ele>2</ele>
        <time>2021-01-01T11:57:36Z</time>
      </trkpt>
      <trkpt lat="43.51277" lon="3.83067">
        <ele>2</ele>
        <time>2021-01-01T11:57:38Z</time>
      </trkpt>
      <trkpt lat="43.51273" lon="3.83059">
        <ele>2</ele>
        <time>2021-01-01T11:57:40Z</time>
      </trkpt>
      <trkpt lat="43.51268" lon="3.83052">
        <ele>2</ele>
        <time>2021-01-01T11:57:42Z</time>
      </trkpt>
      <trkpt lat="43.51261" lon="3.83049">
        <ele>2</ele>
        <time>2021-01-01T11:57:44Z</time>
      </trkpt>
      <trkpt lat="43.51253" lon="3.83049">
        <ele>2</ele>
        <time>2021-01-01T11:57:46Z</time>
      </trkpt>
      <trkpt lat="43.51246" lon="3.8305">
        <ele>1</ele>
        <time>2021-01-01T11:57:48Z</time>
      </trkpt>
      <trkpt lat="43.51235" lon="3.83053">
        <ele>1</ele>
        <time>2021-01-01T11:57:51Z</time>
      </trkpt>
      <trkpt lat="43.5123" lon="3.83055">
        <ele>1</ele>
        <time>2021-01-01T11:57:52Z</time>
      </trkpt>
      <trkpt lat="43.51225" lon="3.83055">
        <ele>1</ele>
        <time>2021-01-01T11:57:53Z</time>
      </trkpt>
      <trkpt lat="43.5122" lon="3.83057">
        <ele>1</ele>
        <time>2021-01-01T11:57:54Z</time>
      </trkpt>
      <trkpt lat="43.51212" lon="3.83059">
        <ele>1</ele>
        <time>2021-01-01T11:57:56Z</time>
      </trkpt>
      <trkpt lat="43.51207" lon="3.83061">
        <ele>2</ele>
        <time>2021-01-01T11:57:57Z</time>
      </trkpt>
      <trkpt lat="43.51202" lon="3.83063">
        <ele>2</ele>
        <time>2021-01-01T11:57:58Z</time>
      </trkpt>
      <trkpt lat="43.51197" lon="3.83066">
        <ele>2</ele>
        <time>2021-01-01T11:57:59Z</time>
      </trkpt>
      <trkpt lat="43.51192" lon="3.8307">
        <ele>3</ele>
        <time>2021-01-01T11:58:00Z</time>
      </trkpt>
      <trkpt lat="43.51186" lon="3.83077">
        <ele>3</ele>
        <time>2021-01-01T11:58:02Z</time>
      </trkpt>
      <trkpt lat="43.51181" lon="3.83084">
        <ele>3</ele>
        <time>2021-01-01T11:58:04Z</time>
      </trkpt>
      <trkpt lat="43.51178" lon="3.83093">
        <ele>3</ele>
        <time>2021-01-01T11:58:06Z</time>
      </trkpt>
      <trkpt lat="43.51173" lon="3.83101">
        <ele>2</ele>
        <time>2021-01-01T11:58:08Z</time>
      </trkpt>
      <trkpt lat="43.5117" lon="3.83105">
        <ele>2</ele>
        <time>2021-01-01T11:58:10Z</time>
      </trkpt>
      <trkpt lat="43.51165" lon="3.83109">
        <ele>2</ele>
        <time>2021-01-01T11:58:12Z</time>
      </trkpt>
      <trkpt lat="43.51158" lon="3.83111">
        <ele>1</ele>
        <time>2021-01-01T11:58:14Z</time>
      </trkpt>
      <trkpt lat="43.51151" lon="3.83108">
        <ele>1</ele>
        <time>2021-01-01T11:58:16Z</time>
      </trkpt>
      <trkpt lat="43.51143" lon="3.83104">
        <ele>2</ele>
        <time>2021-01-01T11:58:18Z</time>
      </trkpt>
      <trkpt lat="43.51135" lon="3.83102">
        <ele>1</ele>
        <time>2021-01-01T11:58:20Z</time>
      </trkpt>
      <trkpt lat="43.5113" lon="3.831">
        <ele>2</ele>
        <time>2021-01-01T11:58:22Z</time>
      </trkpt>
      <trkpt lat="43.51125" lon="3.83096">
        <ele>2</ele>
        <time>2021-01-01T11:58:25Z</time>
      </trkpt>
      <trkpt lat="43.51116" lon="3.83093">
        <ele>1</ele>
        <time>2021-01-01T11:58:27Z</time>
      </trkpt>
      <trkpt lat="43.5111" lon="3.8309">
        <ele>1</ele>
        <time>2021-01-01T11:58:28Z</time>
      </trkpt>
      <trkpt lat="43.51105" lon="3.83087">
        <ele>2</ele>
        <time>2021-01-01T11:58:29Z</time>
      </trkpt>
      <trkpt lat="43.51101" lon="3.83084">
        <ele>2</ele>
        <time>2021-01-01T11:58:30Z</time>
      </trkpt>
      <trkpt lat="43.51094" lon="3.83081">
        <ele>2</ele>
        <time>2021-01-01T11:58:32Z</time>
      </trkpt>
      <trkpt lat="43.51087" lon="3.83077">
        <ele>2</ele>
        <time>2021-01-01T11:58:34Z</time>
      </trkpt>
      <trkpt lat="43.5108" lon="3.83071">
        <ele>1</ele>
        <time>2021-01-01T11:58:36Z</time>
      </trkpt>
      <trkpt lat="43.51076" lon="3.83067">
        <ele>1</ele>
        <time>2021-01-01T11:58:37Z</time>
      </trkpt>
      <trkpt lat="43.51071" lon="3.83064">
        <ele>1</ele>
        <time>2021-01-01T11:58:38Z</time>
      </trkpt>
      <trkpt lat="43.51066" lon="3.8306">
        <ele>1</ele>
        <time>2021-01-01T11:58:39Z</time>
      </trkpt>
      <trkpt lat="43.5106" lon="3.83057">
        <ele>1</ele>
        <time>2021-01-01T11:58:40Z</time>
      </trkpt>
      <trkpt lat="43.51055" lon="3.83054">
        <ele>1</ele>
        <time>2021-01-01T11:58:41Z</time>
      </trkpt>
      <trkpt lat="43.5105" lon="3.83052">
        <ele>1</ele>
        <time>2021-01-01T11:58:43Z</time>
      </trkpt>
      <trkpt lat="43.51044" lon="3.8305">
        <ele>1</ele>
        <time>2021-01-01T11:58:44Z</time>
      </trkpt>
      <trkpt lat="43.51032" lon="3.83048">
        <ele>1</ele>
        <time>2021-01-01T11:58:45Z</time>
      </trkpt>
      <trkpt lat="43.51026" lon="3.83048">
        <ele>1</ele>
        <time>2021-01-01T11:58:47Z</time>
      </trkpt>
      <trkpt lat="43.5102" lon="3.83049">
        <ele>1</ele>
        <time>2021-01-01T11:58:49Z</time>
      </trkpt>
      <trkpt lat="43.51013" lon="3.8305">
        <ele>1</ele>
        <time>2021-01-01T11:58:51Z</time>
      </trkpt>
      <trkpt lat="43.51008" lon="3.83052">
        <ele>1</ele>
        <time>2021-01-01T11:58:53Z</time>
      </trkpt>
      <trkpt lat="43.51004" lon="3.83054">
        <ele>1</ele>
        <time>2021-01-01T11:58:54Z</time>
      </trkpt>
      <trkpt lat="43.50993" lon="3.83061">
        <ele>2</ele>
        <time>2021-01-01T11:58:56Z</time>
      </trkpt>
      <trkpt lat="43.50988" lon="3.83064">
        <ele>2</ele>
        <time>2021-01-01T11:58:57Z</time>
      </trkpt>
      <trkpt lat="43.50983" lon="3.83066">
        <ele>2</ele>
        <time>2021-01-01T11:58:58Z</time>
      </trkpt>
      <trkpt lat="43.50979" lon="3.83068">
        <ele>2</ele>
        <time>2021-01-01T11:58:59Z</time>
      </trkpt>
      <trkpt lat="43.50974" lon="3.83069">
        <ele>2</ele>
        <time>2021-01-01T11:59:00Z</time>
      </trkpt>
      <trkpt lat="43.50969" lon="3.83071">
        <ele>2</ele>
        <time>2021-01-01T11:59:01Z</time>
      </trkpt>
      <trkpt lat="43.50961" lon="3.83074">
        <ele>3</ele>
        <time>2021-01-01T11:59:03Z</time>
      </trkpt>
      <trkpt lat="43.50957" lon="3.83076">
        <ele>3</ele>
        <time>2021-01-01T11:59:04Z</time>
      </trkpt>
      <trkpt lat="43.5095" lon="3.83081">
        <ele>3</ele>
        <time>2021-01-01T11:59:06Z</time>
      </trkpt>
      <trkpt lat="43.50942" lon="3.83083">
        <ele>3</ele>
        <time>2021-01-01T11:59:08Z</time>
      </trkpt>
      <trkpt lat="43.50935" lon="3.83089">
        <ele>3</ele>
        <time>2021-01-01T11:59:10Z</time>
      </trkpt>
      <trkpt lat="43.5093" lon="3.8309">
        <ele>3</ele>
        <time>2021-01-01T11:59:12Z</time>
      </trkpt>
      <trkpt lat="43.50923" lon="3.83096">
        <ele>3</ele>
        <time>2021-01-01T11:59:14Z</time>
      </trkpt>
      <trkpt lat="43.50914" lon="3.83103">
        <ele>3</ele>
        <time>2021-01-01T11:59:15Z</time>
      </trkpt>
      <trkpt lat="43.50911" lon="3.83108">
        <ele>3</ele>
        <time>2021-01-01T11:59:16Z</time>
      </trkpt>
      <trkpt lat="43.50909" lon="3.83114">
        <ele>3</ele>
        <time>2021-01-01T11:59:17Z</time>
      </trkpt>
      <trkpt lat="43.50906" lon="3.83119">
        <ele>3</ele>
        <time>2021-01-01T11:59:18Z</time>
      </trkpt>
      <trkpt lat="43.50901" lon="3.83128">
        <ele>3</ele>
        <time>2021-01-01T11:59:20Z</time>
      </trkpt>
      <trkpt lat="43.50895" lon="3.83134">
        <ele>3</ele>
        <time>2021-01-01T11:59:22Z</time>
      </trkpt>
      <trkpt lat="43.50893" lon="3.8314">
        <ele>3</ele>
        <time>2021-01-01T11:59:24Z</time>
      </trkpt>
      <trkpt lat="43.50889" lon="3.83147">
        <ele>3</ele>
        <time>2021-01-01T11:59:27Z</time>
      </trkpt>
      <trkpt lat="43.50881" lon="3.83158">
        <ele>2</ele>
        <time>2021-01-01T11:59:30Z</time>
      </trkpt>
      <trkpt lat="43.50877" lon="3.83165">
        <ele>2</ele>
        <time>2021-01-01T11:59:31Z</time>
      </trkpt>
      <trkpt lat="43.50872" lon="3.83173">
        <ele>2</ele>
        <time>2021-01-01T11:59:33Z</time>
      </trkpt>
      <trkpt lat="43.50867" lon="3.8318">
        <ele>2</ele>
        <time>2021-01-01T11:59:35Z</time>
      </trkpt>
      <trkpt lat="43.50862" lon="3.83187">
        <ele>2</ele>
        <time>2021-01-01T11:59:37Z</time>
      </trkpt>
      <trkpt lat="43.50858" lon="3.83193">
        <ele>2</ele>
        <time>2021-01-01T11:59:40Z</time>
      </trkpt>
      <trkpt lat="43.50854" lon="3.83197">
        <ele>2</ele>
        <time>2021-01-01T11:59:43Z</time>
      </trkpt>
      <trkpt lat="43.50848" lon="3.83205">
        <ele>2</ele>
        <time>2021-01-01T11:59:46Z</time>
      </trkpt>
      <trkpt lat="43.50841" lon="3.83215">
        <ele>3</ele>
        <time>2021-01-01T11:59:48Z</time>
      </trkpt>
      <trkpt lat="43.50837" lon="3.83222">
        <ele>3</ele>
        <time>2021-01-01T11:59:50Z</time>
      </trkpt>
      <trkpt lat="43.50835" lon="3.8323">
        <ele>3</ele>
        <time>2021-01-01T11:59:52Z</time>
      </trkpt>
      <trkpt lat="43.50832" lon="3.83239">
        <ele>3</ele>
        <time>2021-01-01T11:59:54Z</time>
      </trkpt>
      <trkpt lat="43.50829" lon="3.83246">
        <ele>3</ele>
        <time>2021-01-01T11:59:56Z</time>
      </trkpt>
      <trkpt lat="43.50827" lon="3.83252">
        <ele>3</ele>
        <time>2021-01-01T11:59:59Z</time>
      </trkpt>
      <trkpt lat="43.50824" lon="3.83259">
        <ele>3</ele>
        <time>2021-01-01T12:00:01Z</time>
      </trkpt>
      <trkpt lat="43.50821" lon="3.83267">
        <ele>3</ele>
        <time>2021-01-01T12:00:03Z</time>
      </trkpt>
      <trkpt lat="43.50817" lon="3.83277">
        <ele>3</ele>
        <time>2021-01-01T12:00:05Z</time>
      </trkpt>
      <trkpt lat="43.50814" lon="3.83283">
        <ele>3</ele>
        <time>2021-01-01T12:00:07Z</time>
      </trkpt>
      <trkpt lat="43.50813" lon="3.8329">
        <ele>3</ele>
        <time>2021-01-01T12:00:09Z</time>
      </trkpt>
      <trkpt lat="43.50811" lon="3.83297">
        <ele>3</ele>
        <time>2021-01-01T12:00:11Z</time>
      </trkpt>
      <trkpt lat="43.50808" lon="3.83304">
        <ele>3</ele>
        <time>2021-01-01T12:00:14Z</time>
      </trkpt>
      <trkpt lat="43.50806" lon="3.83311">
        <ele>3</ele>
        <time>2021-01-01T12:00:17Z</time>
      </trkpt>
      <trkpt lat="43.50804" lon="3.83318">
        <ele>3</ele>
        <time>2021-01-01T12:00:19Z</time>
      </trkpt>
      <trkpt lat="43.50802" lon="3.83325">
        <ele>3</ele>
        <time>2021-01-01T12:00:22Z</time>
      </trkpt>
      <trkpt lat="43.50802" lon="3.83326">
        <ele>3</ele>
        <time>2021-01-01T12:00:45Z</time>
      </trkpt>
      <trkpt lat="43.50802" lon="3.83326">
        <ele>3</ele>
        <time>2021-01-01T12:00:46Z</time>
      </trkpt>
      <trkpt lat="43.508" lon="3.83333">
        <ele>3</ele>
        <time>2021-01-01T12:00:51Z</time>
      </trkpt>
      <trkpt lat="43.50797" lon="3.8334">
        <ele>3</ele>
        <time>2021-01-01T12:00:53Z</time>
      </trkpt>
      <trkpt lat="43.50794" lon="3.83348">
        <ele>3</ele>
        <time>2021-01-01T12:00:55Z</time>
      </trkpt>
      <trkpt lat="43.50791" lon="3.83356">
        <ele>3</ele>
        <time>2021-01-01T12:00:57Z</time>
      </trkpt>
      <trkpt lat="43.50789" lon="3.83362">
        <ele>4</ele>
        <time>2021-01-01T12:01:00Z</time>
      </trkpt>
      <trkpt lat="43.50786" lon="3.83368">
        <ele>3</ele>
        <time>2021-01-01T12:01:01Z</time>
      </trkpt>
      <trkpt lat="43.50784" lon="3.83375">
        <ele>3</ele>
        <time>2021-01-01T12:01:02Z</time>
      </trkpt>
      <trkpt lat="43.50782" lon="3.83383">
        <ele>3</ele>
        <time>2021-01-01T12:01:04Z</time>
      </trkpt>
      <trkpt lat="43.50781" lon="3.83391">
        <ele>3</ele>
        <time>2021-01-01T12:01:06Z</time>
      </trkpt>
      <trkpt lat="43.50781" lon="3.834">
        <ele>3</ele>
        <time>2021-01-01T12:01:08Z</time>
      </trkpt>
      <trkpt lat="43.50781" lon="3.83407">
        <ele>3</ele>
        <time>2021-01-01T12:01:10Z</time>
      </trkpt>
      <trkpt lat="43.50781" lon="3.83417">
        <ele>3</ele>
        <time>2021-01-01T12:01:13Z</time>
      </trkpt>
      <trkpt lat="43.50781" lon="3.83426">
        <ele>3</ele>
        <time>2021-01-01T12:01:14Z</time>
      </trkpt>
      <trkpt lat="43.5078" lon="3.83434">
        <ele>3</ele>
        <time>2021-01-01T12:01:16Z</time>
      </trkpt>
      <trkpt lat="43.50781" lon="3.83443">
        <ele>2</ele>
        <time>2021-01-01T12:01:18Z</time>
      </trkpt>
      <trkpt lat="43.50781" lon="3.83453">
        <ele>2</ele>
        <time>2021-01-01T12:01:20Z</time>
      </trkpt>
      <trkpt lat="43.50781" lon="3.83462">
        <ele>2</ele>
        <time>2021-01-01T12:01:22Z</time>
      </trkpt>
      <trkpt lat="43.50781" lon="3.8347">
        <ele>2</ele>
        <time>2021-01-01T12:01:24Z</time>
      </trkpt>
      <trkpt lat="43.50781" lon="3.83481">
        <ele>2</ele>
        <time>2021-01-01T12:01:26Z</time>
      </trkpt>
      <trkpt lat="43.50782" lon="3.8349">
        <ele>2</ele>
        <time>2021-01-01T12:01:27Z</time>
      </trkpt>
      <trkpt lat="43.50782" lon="3.83496">
        <ele>2</ele>
        <time>2021-01-01T12:01:28Z</time>
      </trkpt>
      <trkpt lat="43.50783" lon="3.83503">
        <ele>3</ele>
        <time>2021-01-01T12:01:29Z</time>
      </trkpt>
      <trkpt lat="43.50784" lon="3.83511">
        <ele>3</ele>
        <time>2021-01-01T12:01:31Z</time>
      </trkpt>
      <trkpt lat="43.50785" lon="3.83521">
        <ele>3</ele>
        <time>2021-01-01T12:01:33Z</time>
      </trkpt>
      <trkpt lat="43.50787" lon="3.83533">
        <ele>4</ele>
        <time>2021-01-01T12:01:34Z</time>
      </trkpt>
      <trkpt lat="43.5079" lon="3.83544">
        <ele>4</ele>
        <time>2021-01-01T12:01:36Z</time>
      </trkpt>
      <trkpt lat="43.5079" lon="3.83554">
        <ele>4</ele>
        <time>2021-01-01T12:01:38Z</time>
      </trkpt>
      <trkpt lat="43.50793" lon="3.83564">
        <ele>4</ele>
        <time>2021-01-01T12:01:40Z</time>
      </trkpt>
      <trkpt lat="43.50795" lon="3.83576">
        <ele>5</ele>
        <time>2021-01-01T12:01:42Z</time>
      </trkpt>
      <trkpt lat="43.50798" lon="3.83589">
        <ele>5</ele>
        <time>2021-01-01T12:01:44Z</time>
      </trkpt>
      <trkpt lat="43.50799" lon="3.83595">
        <ele>5</ele>
        <time>2021-01-01T12:01:45Z</time>
      </trkpt>
      <trkpt lat="43.50801" lon="3.83606">
        <ele>5</ele>
        <time>2021-01-01T12:01:47Z</time>
      </trkpt>
      <trkpt lat="43.50802" lon="3.83617">
        <ele>5</ele>
        <time>2021-01-01T12:01:49Z</time>
      </trkpt>
      <trkpt lat="43.50803" lon="3.83624">
        <ele>5</ele>
        <time>2021-01-01T12:01:51Z</time>
      </trkpt>
      <trkpt lat="43.50803" lon="3.83632">
        <ele>5</ele>
        <time>2021-01-01T12:01:54Z</time>
      </trkpt>
      <trkpt lat="43.50806" lon="3.83643">
        <ele>5</ele>
        <time>2021-01-01T12:01:57Z</time>
      </trkpt>
      <trkpt lat="43.50807" lon="3.8365">
        <ele>5</ele>
        <time>2021-01-01T12:01:58Z</time>
      </trkpt>
      <trkpt lat="43.50808" lon="3.83657">
        <ele>5</ele>
        <time>2021-01-01T12:02:00Z</time>
      </trkpt>
      <trkpt lat="43.5081" lon="3.83665">
        <ele>4</ele>
        <time>2021-01-01T12:02:02Z</time>
      </trkpt>
      <trkpt lat="43.50812" lon="3.83674">
        <ele>4</ele>
        <time>2021-01-01T12:02:04Z</time>
      </trkpt>
      <trkpt lat="43.50814" lon="3.83683">
        <ele>4</ele>
        <time>2021-01-01T12:02:07Z</time>
      </trkpt>
      <trkpt lat="43.50816" lon="3.83689">
        <ele>4</ele>
        <time>2021-01-01T12:02:09Z</time>
      </trkpt>
      <trkpt lat="43.50818" lon="3.83699">
        <ele>5</ele>
        <time>2021-01-01T12:02:11Z</time>
      </trkpt>
      <trkpt lat="43.50819" lon="3.83708">
        <ele>5</ele>
        <time>2021-01-01T12:02:12Z</time>
      </trkpt>
      <trkpt lat="43.5082" lon="3.83717">
        <ele>5</ele>
        <time>2021-01-01T12:02:14Z</time>
      </trkpt>
      <trkpt lat="43.5082" lon="3.83726">
        <ele>5</ele>
        <time>2021-01-01T12:02:16Z</time>
      </trkpt>
      <trkpt lat="43.50822" lon="3.83734">
        <ele>5</ele>
        <time>2021-01-01T12:02:18Z</time>
      </trkpt>
      <trkpt lat="43.50824" lon="3.83741">
        <ele>5</ele>
        <time>2021-01-01T12:02:20Z</time>
      </trkpt>
      <trkpt lat="43.50826" lon="3.83748">
        <ele>4</ele>
        <time>2021-01-01T12:02:22Z</time>
      </trkpt>
      <trkpt lat="43.50826" lon="3.83754">
        <ele>4</ele>
        <time>2021-01-01T12:02:25Z</time>
      </trkpt>
      <trkpt lat="43.50824" lon="3.83756">
        <ele>4</ele>
        <time>2021-01-01T12:02:45Z</time>
      </trkpt>
      <trkpt lat="43.50825" lon="3.83756">
        <ele>3</ele>
        <time>2021-01-01T12:02:46Z</time>
      </trkpt>
      <trkpt lat="43.50825" lon="3.83756">
        <ele>3</ele>
        <time>2021-01-01T12:03:15Z</time>
      </trkpt>
      <trkpt lat="43.50825" lon="3.83756">
        <ele>3</ele>
        <time>2021-01-01T12:03:16Z</time>
      </trkpt>
      <trkpt lat="43.50803" lon="3.83751">
        <ele>3</ele>
        <time>2021-01-01T12:03:44Z</time>
      </trkpt>
      <trkpt lat="43.50798" lon="3.8375">
        <ele>3</ele>
        <time>2021-01-01T12:03:46Z</time>
      </trkpt>
      <trkpt lat="43.50793" lon="3.83748">
        <ele>3</ele>
        <time>2021-01-01T12:03:49Z</time>
      </trkpt>
      <trkpt lat="43.50788" lon="3.83746">
        <ele>3</ele>
        <time>2021-01-01T12:03:51Z</time>
      </trkpt>
      <trkpt lat="43.50783" lon="3.83744">
        <ele>3</ele>
        <time>2021-01-01T12:03:53Z</time>
      </trkpt>
      <trkpt lat="43.50778" lon="3.83741">
        <ele>3</ele>
        <time>2021-01-01T12:03:55Z</time>
      </trkpt>
      <trkpt lat="43.50773" lon="3.83739">
        <ele>3</ele>
        <time>2021-01-01T12:03:58Z</time>
      </trkpt>
      <trkpt lat="43.50768" lon="3.83739">
        <ele>3</ele>
        <time>2021-01-01T12:04:00Z</time>
      </trkpt>
      <trkpt lat="43.50761" lon="3.83741">
        <ele>3</ele>
        <time>2021-01-01T12:04:03Z</time>
      </trkpt>
      <trkpt lat="43.50757" lon="3.83742">
        <ele>3</ele>
        <time>2021-01-01T12:04:05Z</time>
      </trkpt>
      <trkpt lat="43.50749" lon="3.83744">
        <ele>3</ele>
        <time>2021-01-01T12:04:08Z</time>
      </trkpt>
      <trkpt lat="43.50739" lon="3.8375">
        <ele>3</ele>
        <time>2021-01-01T12:04:10Z</time>
      </trkpt>
      <trkpt lat="43.50735" lon="3.83754">
        <ele>3</ele>
        <time>2021-01-01T12:04:12Z</time>
      </trkpt>
      <trkpt lat="43.50731" lon="3.83758">
        <ele>3</ele>
        <time>2021-01-01T12:04:14Z</time>
      </trkpt>
      <trkpt lat="43.50726" lon="3.83759">
        <ele>3</ele>
        <time>2021-01-01T12:04:16Z</time>
      </trkpt>
      <trkpt lat="43.5072" lon="3.83763">
        <ele>3</ele>
        <time>2021-01-01T12:04:19Z</time>
      </trkpt>
      <trkpt lat="43.50714" lon="3.83768">
        <ele>4</ele>
        <time>2021-01-01T12:04:22Z</time>
      </trkpt>
      <trkpt lat="43.50709" lon="3.8377">
        <ele>4</ele>
        <time>2021-01-01T12:04:24Z</time>
      </trkpt>
      <trkpt lat="43.50705" lon="3.83775">
        <ele>3</ele>
        <time>2021-01-01T12:04:26Z</time>
      </trkpt>
      <trkpt lat="43.50699" lon="3.83779">
        <ele>3</ele>
        <time>2021-01-01T12:04:28Z</time>
      </trkpt>
      <trkpt lat="43.50693" lon="3.83782">
        <ele>3</ele>
        <time>2021-01-01T12:04:30Z</time>
      </trkpt>
      <trkpt lat="43.50686" lon="3.83786">
        <ele>2</ele>
        <time>2021-01-01T12:04:32Z</time>
      </trkpt>
      <trkpt lat="43.50681" lon="3.8379">
        <ele>2</ele>
        <time>2021-01-01T12:04:34Z</time>
      </trkpt>
      <trkpt lat="43.50676" lon="3.83793">
        <ele>2</ele>
        <time>2021-01-01T12:04:36Z</time>
      </trkpt>
      <trkpt lat="43.5067" lon="3.83796">
        <ele>2</ele>
        <time>2021-01-01T12:04:38Z</time>
      </trkpt>
      <trkpt lat="43.50665" lon="3.838">
        <ele>1</ele>
        <time>2021-01-01T12:04:40Z</time>
      </trkpt>
      <trkpt lat="43.50659" lon="3.83804">
        <ele>1</ele>
        <time>2021-01-01T12:04:42Z</time>
      </trkpt>
      <trkpt lat="43.50655" lon="3.83807">
        <time>2021-01-01T12:04:44Z</time>
      </trkpt>
      <trkpt lat="43.5065" lon="3.83812">
        <time>2021-01-01T12:04:46Z</time>
      </trkpt>
      <trkpt lat="43.50645" lon="3.83817">
        <time>2021-01-01T12:04:48Z</time>
      </trkpt>
      <trkpt lat="43.50643" lon="3.83824">
        <time>2021-01-01T12:04:50Z</time>
      </trkpt>
      <trkpt lat="43.50644" lon="3.83831">
        <time>2021-01-01T12:04:54Z</time>
      </trkpt>
      <trkpt lat="43.50646" lon="3.83837">
        <ele>1</ele>
        <time>2021-01-01T12:04:59Z</time>
      </trkpt>
      <trkpt lat="43.50647" lon="3.83845">
        <ele>2</ele>
        <time>2021-01-01T12:05:03Z</time>
      </trkpt>
      <trkpt lat="43.50643" lon="3.83849">
        <ele>2</ele>
        <time>2021-01-01T12:05:05Z</time>
      </trkpt>
      <trkpt lat="43.50638" lon="3.83852">
        <ele>3</ele>
        <time>2021-01-01T12:05:07Z</time>
      </trkpt>
      <trkpt lat="43.50633" lon="3.83855">
        <ele>3</ele>
        <time>2021-01-01T12:05:09Z</time>
      </trkpt>
      <trkpt lat="43.50627" lon="3.83859">
        <ele>4</ele>
        <time>2021-01-01T12:05:11Z</time>
      </trkpt>
      <trkpt lat="43.50621" lon="3.83863">
        <ele>4</ele>
        <time>2021-01-01T12:05:13Z</time>
      </trkpt>
      <trkpt lat="43.50616" lon="3.83866">
        <ele>4</ele>
        <time>2021-01-01T12:05:15Z</time>
      </trkpt>
      <trkpt lat="43.5061" lon="3.8387">
        <ele>4</ele>
        <time>2021-01-01T12:05:17Z</time>
      </trkpt>
      <trkpt lat="43.50604" lon="3.83875">
        <ele>4</ele>
        <time>2021-01-01T12:05:19Z</time>
      </trkpt>
      <trkpt lat="43.50597" lon="3.83879">
        <ele>4</ele>
        <time>2021-01-01T12:05:21Z</time>
      </trkpt>
      <trkpt lat="43.50593" lon="3.83883">
        <ele>3</ele>
        <time>2021-01-01T12:05:23Z</time>
      </trkpt>
      <trkpt lat="43.50589" lon="3.8389">
        <ele>3</ele>
        <time>2021-01-01T12:05:25Z</time>
      </trkpt>
      <trkpt lat="43.50587" lon="3.83899">
        <ele>3</ele>
        <time>2021-01-01T12:05:27Z</time>
      </trkpt>
      <trkpt lat="43.50586" lon="3.83909">
        <ele>3</ele>
        <time>2021-01-01T12:05:29Z</time>
      </trkpt>
      <trkpt lat="43.50587" lon="3.8392">
        <ele>4</ele>
        <time>2021-01-01T12:05:31Z</time>
      </trkpt>
      <trkpt lat="43.50588" lon="3.83926">
        <ele>4</ele>
        <time>2021-01-01T12:05:32Z</time>
      </trkpt>
      <trkpt lat="43.5059" lon="3.83932">
        <ele>4</ele>
        <time>2021-01-01T12:05:33Z</time>
      </trkpt>
      <trkpt lat="43.50595" lon="3.83943">
        <ele>4</ele>
        <time>2021-01-01T12:05:35Z</time>
      </trkpt>
      <trkpt lat="43.50598" lon="3.83947">
        <ele>4</ele>
        <time>2021-01-01T12:05:36Z</time>
      </trkpt>
      <trkpt lat="43.50603" lon="3.83951">
        <ele>4</ele>
        <time>2021-01-01T12:05:37Z</time>
      </trkpt>
      <trkpt lat="43.50607" lon="3.83955">
        <ele>4</ele>
        <time>2021-01-01T12:05:38Z</time>
      </trkpt>
      <trkpt lat="43.50611" lon="3.83959">
        <ele>4</ele>
        <time>2021-01-01T12:05:39Z</time>
      </trkpt>
      <trkpt lat="43.50618" lon="3.83968">
        <ele>4</ele>
        <time>2021-01-01T12:05:41Z</time>
      </trkpt>
      <trkpt lat="43.50622" lon="3.83974">
        <ele>4</ele>
        <time>2021-01-01T12:05:42Z</time>
      </trkpt>
      <trkpt lat="43.50625" lon="3.83979">
        <ele>4</ele>
        <time>2021-01-01T12:05:43Z</time>
      </trkpt>
      <trkpt lat="43.50628" lon="3.83984">
        <ele>4</ele>
        <time>2021-01-01T12:05:44Z</time>
      </trkpt>
      <trkpt lat="43.50634" lon="3.83993">
        <ele>4</ele>
        <time>2021-01-01T12:05:46Z</time>
      </trkpt>
      <trkpt lat="43.50637" lon="3.83998">
        <ele>4</ele>
        <time>2021-01-01T12:05:47Z</time>
      </trkpt>
      <trkpt lat="43.50642" lon="3.84008">
        <ele>4</ele>
        <time>2021-01-01T12:05:49Z</time>
      </trkpt>
      <trkpt lat="43.50644" lon="3.84014">
        <ele>4</ele>
        <time>2021-01-01T12:05:50Z</time>
      </trkpt>
      <trkpt lat="43.50647" lon="3.8402">
        <ele>4</ele>
        <time>2021-01-01T12:05:51Z</time>
      </trkpt>
      <trkpt lat="43.5065" lon="3.84026">
        <ele>4</ele>
        <time>2021-01-01T12:05:52Z</time>
      </trkpt>
      <trkpt lat="43.50652" lon="3.84032">
        <ele>4</ele>
        <time>2021-01-01T12:05:53Z</time>
      </trkpt>
      <trkpt lat="43.50655" lon="3.84038">
        <ele>4</ele>
        <time>2021-01-01T12:05:54Z</time>
      </trkpt>
      <trkpt lat="43.50658" lon="3.84044">
        <ele>4</ele>
        <time>2021-01-01T12:05:55Z</time>
      </trkpt>
      <trkpt lat="43.5066" lon="3.8405">
        <ele>4</ele>
        <time>2021-01-01T12:05:56Z</time>
      </trkpt>
      <trkpt lat="43.50663" lon="3.84057">
        <ele>5</ele>
        <time>2021-01-01T12:05:57Z</time>
      </trkpt>
      <trkpt lat="43.50665" lon="3.84062">
        <ele>5</ele>
        <time>2021-01-01T12:05:58Z</time>
      </trkpt>
      <trkpt lat="43.50667" lon="3.84069">
        <ele>5</ele>
        <time>2021-01-01T12:05:59Z</time>
      </trkpt>
      <trkpt lat="43.50671" lon="3.8408">
        <ele>5</ele>
        <time>2021-01-01T12:06:01Z</time>
      </trkpt>
      <trkpt lat="43.50672" lon="3.84085">
        <ele>4</ele>
        <time>2021-01-01T12:06:02Z</time>
      </trkpt>
      <trkpt lat="43.50674" lon="3.84092">
        <ele>4</ele>
        <time>2021-01-01T12:06:03Z</time>
      </trkpt>
      <trkpt lat="43.50676" lon="3.841">
        <ele>3</ele>
        <time>2021-01-01T12:06:04Z</time>
      </trkpt>
      <trkpt lat="43.50677" lon="3.84106">
        <ele>3</ele>
        <time>2021-01-01T12:06:05Z</time>
      </trkpt>
      <trkpt lat="43.50681" lon="3.84112">
        <ele>3</ele>
        <time>2021-01-01T12:06:06Z</time>
      </trkpt>
      <trkpt lat="43.50686" lon="3.84116">
        <ele>3</ele>
        <time>2021-01-01T12:06:07Z</time>
      </trkpt>
      <trkpt lat="43.50691" lon="3.84119">
        <ele>4</ele>
        <time>2021-01-01T12:06:08Z</time>
      </trkpt>
      <trkpt lat="43.50694" lon="3.84124">
        <ele>4</ele>
        <time>2021-01-01T12:06:09Z</time>
      </trkpt>
      <trkpt lat="43.50696" lon="3.84135">
        <ele>4</ele>
        <time>2021-01-01T12:06:11Z</time>
      </trkpt>
      <trkpt lat="43.50697" lon="3.84148">
        <ele>4</ele>
        <time>2021-01-01T12:06:13Z</time>
      </trkpt>
      <trkpt lat="43.50696" lon="3.84155">
        <ele>4</ele>
        <time>2021-01-01T12:06:14Z</time>
      </trkpt>
      <trkpt lat="43.50695" lon="3.84162">
        <ele>4</ele>
        <time>2021-01-01T12:06:15Z</time>
      </trkpt>
      <trkpt lat="43.50696" lon="3.84172">
        <ele>4</ele>
        <time>2021-01-01T12:06:17Z</time>
      </trkpt>
      <trkpt lat="43.50694" lon="3.84181">
        <ele>4</ele>
        <time>2021-01-01T12:06:19Z</time>
      </trkpt>
      <trkpt lat="43.50695" lon="3.84187">
        <ele>3</ele>
        <time>2021-01-01T12:06:21Z</time>
      </trkpt>
      <trkpt lat="43.50695" lon="3.84193">
        <ele>3</ele>
        <time>2021-01-01T12:06:24Z</time>
      </trkpt>
      <trkpt lat="43.50695" lon="3.84202">
        <ele>3</ele>
        <time>2021-01-01T12:06:27Z</time>
      </trkpt>
      <trkpt lat="43.50695" lon="3.8421">
        <ele>3</ele>
        <time>2021-01-01T12:06:29Z</time>
      </trkpt>
      <trkpt lat="43.50696" lon="3.84218">
        <ele>3</ele>
        <time>2021-01-01T12:06:31Z</time>
      </trkpt>
      <trkpt lat="43.50697" lon="3.84226">
        <ele>3</ele>
        <time>2021-01-01T12:06:33Z</time>
      </trkpt>
      <trkpt lat="43.50699" lon="3.84233">
        <ele>3</ele>
        <time>2021-01-01T12:06:35Z</time>
      </trkpt>
      <trkpt lat="43.50699" lon="3.84241">
        <ele>3</ele>
        <time>2021-01-01T12:06:37Z</time>
      </trkpt>
      <trkpt lat="43.507" lon="3.84249">
        <ele>3</ele>
        <time>2021-01-01T12:06:39Z</time>
      </trkpt>
      <trkpt lat="43.50701" lon="3.84259">
        <ele>4</ele>
        <time>2021-01-01T12:06:41Z</time>
      </trkpt>
      <trkpt lat="43.50702" lon="3.84266">
        <ele>4</ele>
        <time>2021-01-01T12:06:43Z</time>
      </trkpt>
      <trkpt lat="43.50702" lon="3.84274">
        <ele>4</ele>
        <time>2021-01-01T12:06:45Z</time>
      </trkpt>
      <trkpt lat="43.50702" lon="3.84281">
        <ele>4</ele>
        <time>2021-01-01T12:06:47Z</time>
      </trkpt>
      <trkpt lat="43.50701" lon="3.8429">
        <ele>4</ele>
        <time>2021-01-01T12:06:49Z</time>
      </trkpt>
      <trkpt lat="43.50705" lon="3.84296">
        <ele>4</ele>
        <time>2021-01-01T12:06:52Z</time>
      </trkpt>
      <trkpt lat="43.50711" lon="3.84298">
        <ele>5</ele>
        <time>2021-01-01T12:06:54Z</time>
      </trkpt>
      <trkpt lat="43.50716" lon="3.84299">
        <ele>5</ele>
        <time>2021-01-01T12:06:56Z</time>
      </trkpt>
      <trkpt lat="43.50722" lon="3.843">
        <ele>5</ele>
        <time>2021-01-01T12:06:58Z</time>
      </trkpt>
      <trkpt lat="43.50728" lon="3.84301">
        <ele>5</ele>
        <time>2021-01-01T12:07:00Z</time>
      </trkpt>
      <trkpt lat="43.50734" lon="3.84302">
        <ele>6</ele>
        <time>2021-01-01T12:07:02Z</time>
      </trkpt>
      <trkpt lat="43.50739" lon="3.84303">
        <ele>6</ele>
        <time>2021-01-01T12:07:04Z</time>
      </trkpt>
      <trkpt lat="43.50742" lon="3.8431">
        <ele>6</ele>
        <time>2021-01-01T12:07:08Z</time>
      </trkpt>
      <trkpt lat="43.50747" lon="3.84313">
        <ele>6</ele>
        <time>2021-01-01T12:07:10Z</time>
      </trkpt>
      <trkpt lat="43.50752" lon="3.84314">
        <ele>6</ele>
        <time>2021-01-01T12:07:12Z</time>
      </trkpt>
      <trkpt lat="43.50757" lon="3.84315">
        <ele>6</ele>
        <time>2021-01-01T12:07:15Z</time>
      </trkpt>
      <trkpt lat="43.50766" lon="3.84316">
        <ele>6</ele>
        <time>2021-01-01T12:07:16Z</time>
      </trkpt>
      <trkpt lat="43.50773" lon="3.84316">
        <ele>5</ele>
        <time>2021-01-01T12:07:18Z</time>
      </trkpt>
      <trkpt lat="43.5078" lon="3.84319">
        <ele>5</ele>
        <time>2021-01-01T12:07:20Z</time>
      </trkpt>
      <trkpt lat="43.50786" lon="3.84319">
        <ele>5</ele>
        <time>2021-01-01T12:07:22Z</time>
      </trkpt>
      <trkpt lat="43.50794" lon="3.84321">
        <ele>5</ele>
        <time>2021-01-01T12:07:24Z</time>
      </trkpt>
      <trkpt lat="43.50801" lon="3.84324">
        <ele>4</ele>
        <time>2021-01-01T12:07:26Z</time>
      </trkpt>
      <trkpt lat="43.50807" lon="3.84326">
        <ele>4</ele>
        <time>2021-01-01T12:07:28Z</time>
      </trkpt>
      <trkpt lat="43.50812" lon="3.84331">
        <ele>4</ele>
        <time>2021-01-01T12:07:30Z</time>
      </trkpt>
      <trkpt lat="43.50816" lon="3.84339">
        <ele>5</ele>
        <time>2021-01-01T12:07:32Z</time>
      </trkpt>
      <trkpt lat="43.50819" lon="3.84349">
        <ele>6</ele>
        <time>2021-01-01T12:07:34Z</time>
      </trkpt>
      <trkpt lat="43.50822" lon="3.84358">
        <ele>6</ele>
        <time>2021-01-01T12:07:36Z</time>
      </trkpt>
      <trkpt lat="43.50825" lon="3.84366">
        <ele>7</ele>
        <time>2021-01-01T12:07:38Z</time>
      </trkpt>
      <trkpt lat="43.50827" lon="3.84375">
        <ele>8</ele>
        <time>2021-01-01T12:07:41Z</time>
      </trkpt>
      <trkpt lat="43.5083" lon="3.84382">
        <ele>8</ele>
        <time>2021-01-01T12:07:43Z</time>
      </trkpt>
      <trkpt lat="43.50834" lon="3.8439">
        <ele>8</ele>
        <time>2021-01-01T12:07:45Z</time>
      </trkpt>
      <trkpt lat="43.50838" lon="3.84399">
        <ele>9</ele>
        <time>2021-01-01T12:07:47Z</time>
      </trkpt>
      <trkpt lat="43.50841" lon="3.84409">
        <ele>9</ele>
        <time>2021-01-01T12:07:49Z</time>
      </trkpt>
      <trkpt lat="43.50847" lon="3.84424">
        <ele>9</ele>
        <time>2021-01-01T12:07:50Z</time>
      </trkpt>
      <trkpt lat="43.50851" lon="3.84433">
        <ele>9</ele>
        <time>2021-01-01T12:07:52Z</time>
      </trkpt>
      <trkpt lat="43.50853" lon="3.84442">
        <ele>10</ele>
        <time>2021-01-01T12:07:54Z</time>
      </trkpt>
      <trkpt lat="43.50856" lon="3.8445">
        <ele>10</ele>
        <time>2021-01-01T12:07:56Z</time>
      </trkpt>
      <trkpt lat="43.50859" lon="3.84459">
        <ele>10</ele>
        <time>2021-01-01T12:07:58Z</time>
      </trkpt>
      <trkpt lat="43.50862" lon="3.84467">
        <ele>11</ele>
        <time>2021-01-01T12:08:00Z</time>
      </trkpt>
      <trkpt lat="43.50865" lon="3.84476">
        <ele>11</ele>
        <time>2021-01-01T12:08:02Z</time>
      </trkpt>
      <trkpt lat="43.50869" lon="3.84483">
        <ele>11</ele>
        <time>2021-01-01T12:08:04Z</time>
      </trkpt>
      <trkpt lat="43.50873" lon="3.84489">
        <ele>11</ele>
        <time>2021-01-01T12:08:06Z</time>
      </trkpt>
      <trkpt lat="43.50878" lon="3.84495">
        <ele>11</ele>
        <time>2021-01-01T12:08:08Z</time>
      </trkpt>
      <trkpt lat="43.50882" lon="3.84502">
        <ele>11</ele>
        <time>2021-01-01T12:08:10Z</time>
      </trkpt>
      <trkpt lat="43.50885" lon="3.8451">
        <ele>11</ele>
        <time>2021-01-01T12:08:12Z</time>
      </trkpt>
      <trkpt lat="43.50889" lon="3.84518">
        <ele>12</ele>
        <time>2021-01-01T12:08:14Z</time>
      </trkpt>
      <trkpt lat="43.50893" lon="3.84524">
        <ele>12</ele>
        <time>2021-01-01T12:08:16Z</time>
      </trkpt>
      <trkpt lat="43.50897" lon="3.84531">
        <ele>12</ele>
        <time>2021-01-01T12:08:18Z</time>
      </trkpt>
      <trkpt lat="43.509" lon="3.84537">
        <ele>12</ele>
        <time>2021-01-01T12:08:20Z</time>
      </trkpt>
      <trkpt lat="43.50905" lon="3.84543">
        <ele>12</ele>
        <time>2021-01-01T12:08:22Z</time>
      </trkpt>
      <trkpt lat="43.5091" lon="3.8455">
        <ele>12</ele>
        <time>2021-01-01T12:08:24Z</time>
      </trkpt>
      <trkpt lat="43.50913" lon="3.84557">
        <ele>12</ele>
        <time>2021-01-01T12:08:26Z</time>
      </trkpt>
      <trkpt lat="43.50917" lon="3.84565">
        <ele>12</ele>
        <time>2021-01-01T12:08:28Z</time>
      </trkpt>
      <trkpt lat="43.5092" lon="3.84573">
        <ele>13</ele>
        <time>2021-01-01T12:08:30Z</time>
      </trkpt>
      <trkpt lat="43.50923" lon="3.8458">
        <ele>13</ele>
        <time>2021-01-01T12:08:32Z</time>
      </trkpt>
      <trkpt lat="43.50926" lon="3.84588">
        <ele>13</ele>
        <time>2021-01-01T12:08:34Z</time>
      </trkpt>
      <trkpt lat="43.5093" lon="3.84595">
        <ele>13</ele>
        <time>2021-01-01T12:08:37Z</time>
      </trkpt>
      <trkpt lat="43.50938" lon="3.84604">
        <ele>14</ele>
        <time>2021-01-01T12:08:39Z</time>
      </trkpt>
      <trkpt lat="43.50942" lon="3.84611">
        <ele>14</ele>
        <time>2021-01-01T12:08:41Z</time>
      </trkpt>
      <trkpt lat="43.50946" lon="3.84618">
        <ele>14</ele>
        <time>2021-01-01T12:08:43Z</time>
      </trkpt>
      <trkpt lat="43.5095" lon="3.84624">
        <ele>14</ele>
        <time>2021-01-01T12:08:45Z</time>
      </trkpt>
      <trkpt lat="43.50953" lon="3.84629">
        <ele>14</ele>
        <time>2021-01-01T12:08:47Z</time>
      </trkpt>
      <trkpt lat="43.50957" lon="3.84637">
        <ele>14</ele>
        <time>2021-01-01T12:08:50Z</time>
      </trkpt>
      <trkpt lat="43.50962" lon="3.84644">
        <ele>14</ele>
        <time>2021-01-01T12:08:51Z</time>
      </trkpt>
      <trkpt lat="43.50966" lon="3.84651">
        <ele>14</ele>
        <time>2021-01-01T12:08:53Z</time>
      </trkpt>
      <trkpt lat="43.50969" lon="3.84658">
        <ele>14</ele>
        <time>2021-01-01T12:08:55Z</time>
      </trkpt>
      <trkpt lat="43.50974" lon="3.84666">
        <ele>14</ele>
        <time>2021-01-01T12:08:57Z</time>
      </trkpt>
      <trkpt lat="43.50978" lon="3.84674">
        <ele>14</ele>
        <time>2021-01-01T12:08:59Z</time>
      </trkpt>
      <trkpt lat="43.50983" lon="3.84682">
        <ele>14</ele>
        <time>2021-01-01T12:09:01Z</time>
      </trkpt>
      <trkpt lat="43.50986" lon="3.8469">
        <ele>14</ele>
        <time>2021-01-01T12:09:03Z</time>
      </trkpt>
      <trkpt lat="43.5099" lon="3.84698">
        <ele>14</ele>
        <time>2021-01-01T12:09:05Z</time>
      </trkpt>
      <trkpt lat="43.50995" lon="3.84706">
        <ele>14</ele>
        <time>2021-01-01T12:09:07Z</time>
      </trkpt>
      <trkpt lat="43.50999" lon="3.84712">
        <ele>13</ele>
        <time>2021-01-01T12:09:09Z</time>
      </trkpt>
      <trkpt lat="43.51003" lon="3.8472">
        <ele>13</ele>
        <time>2021-01-01T12:09:11Z</time>
      </trkpt>
      <trkpt lat="43.51007" lon="3.84727">
        <ele>13</ele>
        <time>2021-01-01T12:09:13Z</time>
      </trkpt>
      <trkpt lat="43.51011" lon="3.84735">
        <ele>13</ele>
        <time>2021-01-01T12:09:15Z</time>
      </trkpt>
      <trkpt lat="43.51016" lon="3.84743">
        <ele>13</ele>
        <time>2021-01-01T12:09:17Z</time>
      </trkpt>
      <trkpt lat="43.51021" lon="3.8475">
        <ele>13</ele>
        <time>2021-01-01T12:09:19Z</time>
      </trkpt>
      <trkpt lat="43.51027" lon="3.84758">
        <ele>14</ele>
        <time>2021-01-01T12:09:21Z</time>
      </trkpt>
      <trkpt lat="43.51033" lon="3.84767">
        <ele>14</ele>
        <time>2021-01-01T12:09:23Z</time>
      </trkpt>
      <trkpt lat="43.51039" lon="3.84776">
        <ele>14</ele>
        <time>2021-01-01T12:09:25Z</time>
      </trkpt>
      <trkpt lat="43.51045" lon="3.84785">
        <ele>14</ele>
        <time>2021-01-01T12:09:27Z</time>
      </trkpt>
      <trkpt lat="43.5105" lon="3.84794">
        <ele>15</ele>
        <time>2021-01-01T12:09:29Z</time>
      </trkpt>
      <trkpt lat="43.51057" lon="3.84802">
        <ele>15</ele>
        <time>2021-01-01T12:09:31Z</time>
      </trkpt>
      <trkpt lat="43.51061" lon="3.84808">
        <ele>14</ele>
        <time>2021-01-01T12:09:33Z</time>
      </trkpt>
      <trkpt lat="43.51065" lon="3.84815">
        <ele>14</ele>
        <time>2021-01-01T12:09:35Z</time>
      </trkpt>
      <trkpt lat="43.51069" lon="3.84823">
        <ele>13</ele>
        <time>2021-01-01T12:09:37Z</time>
      </trkpt>
      <trkpt lat="43.51077" lon="3.84829">
        <ele>12</ele>
        <time>2021-01-01T12:09:39Z</time>
      </trkpt>
      <trkpt lat="43.51082" lon="3.84833">
        <ele>12</ele>
        <time>2021-01-01T12:09:40Z</time>
      </trkpt>
      <trkpt lat="43.51088" lon="3.8484">
        <ele>11</ele>
        <time>2021-01-01T12:09:42Z</time>
      </trkpt>
      <trkpt lat="43.51095" lon="3.84848">
        <ele>11</ele>
        <time>2021-01-01T12:09:44Z</time>
      </trkpt>
      <trkpt lat="43.51099" lon="3.84852">
        <ele>11</ele>
        <time>2021-01-01T12:09:45Z</time>
      </trkpt>
      <trkpt lat="43.51104" lon="3.84856">
        <ele>10</ele>
        <time>2021-01-01T12:09:46Z</time>
      </trkpt>
      <trkpt lat="43.51107" lon="3.84862">
        <ele>10</ele>
        <time>2021-01-01T12:09:47Z</time>
      </trkpt>
      <trkpt lat="43.51112" lon="3.84865">
        <ele>10</ele>
        <time>2021-01-01T12:09:48Z</time>
      </trkpt>
      <trkpt lat="43.5112" lon="3.84872">
        <ele>10</ele>
        <time>2021-01-01T12:09:50Z</time>
      </trkpt>
      <trkpt lat="43.51125" lon="3.84877">
        <ele>9</ele>
        <time>2021-01-01T12:09:51Z</time>
      </trkpt>
      <trkpt lat="43.51129" lon="3.84882">
        <ele>9</ele>
        <time>2021-01-01T12:09:52Z</time>
      </trkpt>
      <trkpt lat="43.51133" lon="3.84887">
        <ele>9</ele>
        <time>2021-01-01T12:09:53Z</time>
      </trkpt>
      <trkpt lat="43.51136" lon="3.84893">
        <ele>9</ele>
        <time>2021-01-01T12:09:54Z</time>
      </trkpt>
      <trkpt lat="43.51141" lon="3.84898">
        <ele>9</ele>
        <time>2021-01-01T12:09:55Z</time>
      </trkpt>
      <trkpt lat="43.51144" lon="3.84903">
        <ele>9</ele>
        <time>2021-01-01T12:09:56Z</time>
      </trkpt>
      <trkpt lat="43.51148" lon="3.84908">
        <ele>9</ele>
        <time>2021-01-01T12:09:57Z</time>
      </trkpt>
      <trkpt lat="43.51152" lon="3.84913">
        <ele>9</ele>
        <time>2021-01-01T12:09:58Z</time>
      </trkpt>
      <trkpt lat="43.51156" lon="3.84918">
        <ele>9</ele>
        <time>2021-01-01T12:09:59Z</time>
      </trkpt>
      <trkpt lat="43.51159" lon="3.84922">
        <ele>9</ele>
        <time>2021-01-01T12:10:00Z</time>
      </trkpt>
      <trkpt lat="43.51163" lon="3.84927">
        <ele>9</ele>
        <time>2021-01-01T12:10:01Z</time>
      </trkpt>
      <trkpt lat="43.51168" lon="3.84933">
        <ele>9</ele>
        <time>2021-01-01T12:10:02Z</time>
      </trkpt>
      <trkpt lat="43.51171" lon="3.84937">
        <ele>9</ele>
        <time>2021-01-01T12:10:03Z</time>
      </trkpt>
      <trkpt lat="43.51175" lon="3.84943">
        <ele>9</ele>
        <time>2021-01-01T12:10:04Z</time>
      </trkpt>
      <trkpt lat="43.51179" lon="3.84948">
        <ele>10</ele>
        <time>2021-01-01T12:10:05Z</time>
      </trkpt>
      <trkpt lat="43.51186" lon="3.84956">
        <ele>11</ele>
        <time>2021-01-01T12:10:07Z</time>
      </trkpt>
      <trkpt lat="43.51191" lon="3.84965">
        <ele>11</ele>
        <time>2021-01-01T12:10:09Z</time>
      </trkpt>
      <trkpt lat="43.51197" lon="3.84973">
        <ele>12</ele>
        <time>2021-01-01T12:10:11Z</time>
      </trkpt>
      <trkpt lat="43.51203" lon="3.8498">
        <ele>13</ele>
        <time>2021-01-01T12:10:13Z</time>
      </trkpt>
      <trkpt lat="43.51207" lon="3.84983">
        <ele>14</ele>
        <time>2021-01-01T12:10:14Z</time>
      </trkpt>
      <trkpt lat="43.51214" lon="3.8499">
        <ele>15</ele>
        <time>2021-01-01T12:10:16Z</time>
      </trkpt>
      <trkpt lat="43.51218" lon="3.84994">
        <ele>16</ele>
        <time>2021-01-01T12:10:17Z</time>
      </trkpt>
      <trkpt lat="43.51223" lon="3.84996">
        <ele>16</ele>
        <time>2021-01-01T12:10:18Z</time>
      </trkpt>
      <trkpt lat="43.51228" lon="3.84997">
        <ele>16</ele>
        <time>2021-01-01T12:10:19Z</time>
      </trkpt>
      <trkpt lat="43.51236" lon="3.84999">
        <ele>16</ele>
        <time>2021-01-01T12:10:21Z</time>
      </trkpt>
      <trkpt lat="43.51241" lon="3.84999">
        <ele>15</ele>
        <time>2021-01-01T12:10:22Z</time>
      </trkpt>
      <trkpt lat="43.51245" lon="3.85002">
        <ele>15</ele>
        <time>2021-01-01T12:10:23Z</time>
      </trkpt>
      <trkpt lat="43.51254" lon="3.85007">
        <ele>14</ele>
        <time>2021-01-01T12:10:25Z</time>
      </trkpt>
      <trkpt lat="43.51259" lon="3.8501">
        <ele>14</ele>
        <time>2021-01-01T12:10:26Z</time>
      </trkpt>
      <trkpt lat="43.51263" lon="3.85013">
        <ele>14</ele>
        <time>2021-01-01T12:10:27Z</time>
      </trkpt>
      <trkpt lat="43.51268" lon="3.85016">
        <ele>14</ele>
        <time>2021-01-01T12:10:28Z</time>
      </trkpt>
      <trkpt lat="43.51272" lon="3.85019">
        <ele>15</ele>
        <time>2021-01-01T12:10:29Z</time>
      </trkpt>
      <trkpt lat="43.51277" lon="3.85022">
        <ele>15</ele>
        <time>2021-01-01T12:10:30Z</time>
      </trkpt>
      <trkpt lat="43.51281" lon="3.85025">
        <ele>15</ele>
        <time>2021-01-01T12:10:31Z</time>
      </trkpt>
      <trkpt lat="43.51289" lon="3.85031">
        <ele>15</ele>
        <time>2021-01-01T12:10:33Z</time>
      </trkpt>
      <trkpt lat="43.51293" lon="3.85034">
        <ele>15</ele>
        <time>2021-01-01T12:10:34Z</time>
      </trkpt>
      <trkpt lat="43.51301" lon="3.8504">
        <ele>14</ele>
        <time>2021-01-01T12:10:36Z</time>
      </trkpt>
      <trkpt lat="43.51305" lon="3.85043">
        <ele>14</ele>
        <time>2021-01-01T12:10:37Z</time>
      </trkpt>
      <trkpt lat="43.5131" lon="3.85046">
        <ele>14</ele>
        <time>2021-01-01T12:10:38Z</time>
      </trkpt>
      <trkpt lat="43.51315" lon="3.85049">
        <ele>14</ele>
        <time>2021-01-01T12:10:39Z</time>
      </trkpt>
      <trkpt lat="43.51324" lon="3.85054">
        <ele>14</ele>
        <time>2021-01-01T12:10:41Z</time>
      </trkpt>
      <trkpt lat="43.51328" lon="3.85058">
        <ele>14</ele>
        <time>2021-01-01T12:10:42Z</time>
      </trkpt>
      <trkpt lat="43.51333" lon="3.85061">
        <ele>14</ele>
        <time>2021-01-01T12:10:43Z</time>
      </trkpt>
      <trkpt lat="43.51338" lon="3.85065">
        <ele>13</ele>
        <time>2021-01-01T12:10:44Z</time>
      </trkpt>
      <trkpt lat="43.51345" lon="3.85072">
        <ele>13</ele>
        <time>2021-01-01T12:10:46Z</time>
      </trkpt>
      <trkpt lat="43.5135" lon="3.85078">
        <ele>12</ele>
        <time>2021-01-01T12:10:47Z</time>
      </trkpt>
      <trkpt lat="43.51354" lon="3.85082">
        <ele>12</ele>
        <time>2021-01-01T12:10:48Z</time>
      </trkpt>
      <trkpt lat="43.51362" lon="3.85091">
        <ele>11</ele>
        <time>2021-01-01T12:10:50Z</time>
      </trkpt>
      <trkpt lat="43.51366" lon="3.85096">
        <ele>10</ele>
        <time>2021-01-01T12:10:51Z</time>
      </trkpt>
      <trkpt lat="43.51371" lon="3.851">
        <ele>9</ele>
        <time>2021-01-01T12:10:52Z</time>
      </trkpt>
      <trkpt lat="43.51375" lon="3.85105">
        <ele>9</ele>
        <time>2021-01-01T12:10:53Z</time>
      </trkpt>
      <trkpt lat="43.51379" lon="3.85111">
        <ele>9</ele>
        <time>2021-01-01T12:10:54Z</time>
      </trkpt>
      <trkpt lat="43.51382" lon="3.85116">
        <ele>9</ele>
        <time>2021-01-01T12:10:55Z</time>
      </trkpt>
      <trkpt lat="43.51387" lon="3.85121">
        <ele>9</ele>
        <time>2021-01-01T12:10:56Z</time>
      </trkpt>
      <trkpt lat="43.51391" lon="3.85126">
        <ele>9</ele>
        <time>2021-01-01T12:10:57Z</time>
      </trkpt>
      <trkpt lat="43.51396" lon="3.8513">
        <ele>9</ele>
        <time>2021-01-01T12:10:58Z</time>
      </trkpt>
      <trkpt lat="43.514" lon="3.85134">
        <ele>9</ele>
        <time>2021-01-01T12:10:59Z</time>
      </trkpt>
      <trkpt lat="43.51403" lon="3.8514">
        <ele>10</ele>
        <time>2021-01-01T12:11:00Z</time>
      </trkpt>
      <trkpt lat="43.51407" lon="3.85147">
        <ele>10</ele>
        <time>2021-01-01T12:11:01Z</time>
      </trkpt>
      <trkpt lat="43.51411" lon="3.85152">
        <ele>10</ele>
        <time>2021-01-01T12:11:02Z</time>
      </trkpt>
      <trkpt lat="43.51414" lon="3.85158">
        <ele>11</ele>
        <time>2021-01-01T12:11:03Z</time>
      </trkpt>
      <trkpt lat="43.51419" lon="3.85165">
        <ele>11</ele>
        <time>2021-01-01T12:11:04Z</time>
      </trkpt>
      <trkpt lat="43.51425" lon="3.85175">
        <ele>11</ele>
        <time>2021-01-01T12:11:06Z</time>
      </trkpt>
      <trkpt lat="43.51429" lon="3.85183">
        <ele>11</ele>
        <time>2021-01-01T12:11:07Z</time>
      </trkpt>
      <trkpt lat="43.51433" lon="3.85189">
        <ele>10</ele>
        <time>2021-01-01T12:11:08Z</time>
      </trkpt>
      <trkpt lat="43.51438" lon="3.85196">
        <ele>10</ele>
        <time>2021-01-01T12:11:09Z</time>
      </trkpt>
      <trkpt lat="43.51442" lon="3.85203">
        <ele>9</ele>
        <time>2021-01-01T12:11:10Z</time>
      </trkpt>
      <trkpt lat="43.51447" lon="3.85211">
        <ele>9</ele>
        <time>2021-01-01T12:11:11Z</time>
      </trkpt>
      <trkpt lat="43.5145" lon="3.85217">
        <ele>9</ele>
        <time>2021-01-01T12:11:12Z</time>
      </trkpt>
      <trkpt lat="43.51455" lon="3.85224">
        <ele>9</ele>
        <time>2021-01-01T12:11:13Z</time>
      </trkpt>
      <trkpt lat="43.51458" lon="3.8523">
        <ele>9</ele>
        <time>2021-01-01T12:11:14Z</time>
      </trkpt>
      <trkpt lat="43.51462" lon="3.85236">
        <ele>9</ele>
        <time>2021-01-01T12:11:15Z</time>
      </trkpt>
      <trkpt lat="43.51466" lon="3.85241">
        <ele>9</ele>
        <time>2021-01-01T12:11:16Z</time>
      </trkpt>
      <trkpt lat="43.51469" lon="3.85248">
        <ele>10</ele>
        <time>2021-01-01T12:11:17Z</time>
      </trkpt>
      <trkpt lat="43.51474" lon="3.85254">
        <ele>10</ele>
        <time>2021-01-01T12:11:18Z</time>
      </trkpt>
      <trkpt lat="43.51477" lon="3.85259">
        <ele>9</ele>
        <time>2021-01-01T12:11:20Z</time>
      </trkpt>
      <trkpt lat="43.51477" lon="3.85266">
        <ele>8</ele>
        <time>2021-01-01T12:11:23Z</time>
      </trkpt>
      <trkpt lat="43.51473" lon="3.85265">
        <ele>6</ele>
        <time>2021-01-01T12:11:25Z</time>
      </trkpt>
      <trkpt lat="43.51468" lon="3.85265">
        <ele>6</ele>
        <time>2021-01-01T12:11:27Z</time>
      </trkpt>
      <trkpt lat="43.51463" lon="3.85263">
        <ele>5</ele>
        <time>2021-01-01T12:11:29Z</time>
      </trkpt>
      <trkpt lat="43.51454" lon="3.85262">
        <ele>5</ele>
        <time>2021-01-01T12:11:33Z</time>
      </trkpt>
      <trkpt lat="43.51447" lon="3.8526">
        <ele>6</ele>
        <time>2021-01-01T12:11:34Z</time>
      </trkpt>
      <trkpt lat="43.5144" lon="3.85257">
        <ele>8</ele>
        <time>2021-01-01T12:11:36Z</time>
      </trkpt>
      <trkpt lat="43.51433" lon="3.85256">
        <ele>8</ele>
        <time>2021-01-01T12:11:38Z</time>
      </trkpt>
      <trkpt lat="43.51426" lon="3.85255">
        <ele>9</ele>
        <time>2021-01-01T12:11:40Z</time>
      </trkpt>
      <trkpt lat="43.51418" lon="3.85254">
        <ele>9</ele>
        <time>2021-01-01T12:11:42Z</time>
      </trkpt>
      <trkpt lat="43.5141" lon="3.85251">
        <ele>9</ele>
        <time>2021-01-01T12:11:44Z</time>
      </trkpt>
      <trkpt lat="43.51402" lon="3.85249">
        <ele>9</ele>
        <time>2021-01-01T12:11:46Z</time>
      </trkpt>
      <trkpt lat="43.51394" lon="3.85248">
        <ele>10</ele>
        <time>2021-01-01T12:11:48Z</time>
      </trkpt>
      <trkpt lat="43.51387" lon="3.85246">
        <ele>10</ele>
        <time>2021-01-01T12:11:50Z</time>
      </trkpt>
      <trkpt lat="43.5138" lon="3.85243">
        <ele>10</ele>
        <time>2021-01-01T12:11:52Z</time>
      </trkpt>
      <trkpt lat="43.51374" lon="3.85238">
        <ele>11</ele>
        <time>2021-01-01T12:11:54Z</time>
      </trkpt>
      <trkpt lat="43.51367" lon="3.85233">
        <ele>12</ele>
        <time>2021-01-01T12:11:56Z</time>
      </trkpt>
      <trkpt lat="43.51363" lon="3.85227">
        <ele>12</ele>
        <time>2021-01-01T12:11:58Z</time>
      </trkpt>
      <trkpt lat="43.51357" lon="3.85222">
        <ele>12</ele>
        <time>2021-01-01T12:12:01Z</time>
      </trkpt>
      <trkpt lat="43.51349" lon="3.85216">
        <ele>13</ele>
        <time>2021-01-01T12:12:02Z</time>
      </trkpt>
      <trkpt lat="43.51342" lon="3.85216">
        <ele>13</ele>
        <time>2021-01-01T12:12:04Z</time>
      </trkpt>
      <trkpt lat="43.51335" lon="3.85216">
        <ele>14</ele>
        <time>2021-01-01T12:12:06Z</time>
      </trkpt>
      <trkpt lat="43.51327" lon="3.85217">
        <ele>14</ele>
        <time>2021-01-01T12:12:08Z</time>
      </trkpt>
      <trkpt lat="43.51321" lon="3.85218">
        <ele>15</ele>
        <time>2021-01-01T12:12:10Z</time>
      </trkpt>
      <trkpt lat="43.51316" lon="3.85217">
        <ele>15</ele>
        <time>2021-01-01T12:12:12Z</time>
      </trkpt>
      <trkpt lat="43.51309" lon="3.85217">
        <ele>15</ele>
        <time>2021-01-01T12:12:14Z</time>
      </trkpt>
      <trkpt lat="43.51304" lon="3.85217">
        <ele>16</ele>
        <time>2021-01-01T12:12:15Z</time>
      </trkpt>
      <trkpt lat="43.51299" lon="3.85217">
        <ele>15</ele>
        <time>2021-01-01T12:12:16Z</time>
      </trkpt>
      <trkpt lat="43.51288" lon="3.85217">
        <ele>15</ele>
        <time>2021-01-01T12:12:18Z</time>
      </trkpt>
      <trkpt lat="43.51279" lon="3.85218">
        <ele>15</ele>
        <time>2021-01-01T12:12:20Z</time>
      </trkpt>
      <trkpt lat="43.5127" lon="3.8522">
        <ele>15</ele>
        <time>2021-01-01T12:12:22Z</time>
      </trkpt>
      <trkpt lat="43.51265" lon="3.85221">
        <ele>15</ele>
        <time>2021-01-01T12:12:23Z</time>
      </trkpt>
      <trkpt lat="43.5126" lon="3.85222">
        <ele>15</ele>
        <time>2021-01-01T12:12:24Z</time>
      </trkpt>
      <trkpt lat="43.51255" lon="3.85221">
        <ele>15</ele>
        <time>2021-01-01T12:12:25Z</time>
      </trkpt>
      <trkpt lat="43.51251" lon="3.85221">
        <ele>15</ele>
        <time>2021-01-01T12:12:26Z</time>
      </trkpt>
      <trkpt lat="43.51246" lon="3.85222">
        <ele>14</ele>
        <time>2021-01-01T12:12:27Z</time>
      </trkpt>
      <trkpt lat="43.51237" lon="3.85225">
        <ele>14</ele>
        <time>2021-01-01T12:12:29Z</time>
      </trkpt>
      <trkpt lat="43.51232" lon="3.85224">
        <ele>14</ele>
        <time>2021-01-01T12:12:30Z</time>
      </trkpt>
      <trkpt lat="43.51227" lon="3.85226">
        <ele>13</ele>
        <time>2021-01-01T12:12:31Z</time>
      </trkpt>
      <trkpt lat="43.51219" lon="3.85228">
        <ele>13</ele>
        <time>2021-01-01T12:12:33Z</time>
      </trkpt>
      <trkpt lat="43.51215" lon="3.8523">
        <ele>13</ele>
        <time>2021-01-01T12:12:34Z</time>
      </trkpt>
      <trkpt lat="43.51206" lon="3.8523">
        <ele>13</ele>
        <time>2021-01-01T12:12:36Z</time>
      </trkpt>
      <trkpt lat="43.51197" lon="3.85233">
        <ele>13</ele>
        <time>2021-01-01T12:12:38Z</time>
      </trkpt>
      <trkpt lat="43.5119" lon="3.85239">
        <ele>14</ele>
        <time>2021-01-01T12:12:40Z</time>
      </trkpt>
      <trkpt lat="43.51184" lon="3.85246">
        <ele>13</ele>
        <time>2021-01-01T12:12:42Z</time>
      </trkpt>
      <trkpt lat="43.51183" lon="3.85259">
        <ele>13</ele>
        <time>2021-01-01T12:12:44Z</time>
      </trkpt>
      <trkpt lat="43.51185" lon="3.85265">
        <ele>13</ele>
        <time>2021-01-01T12:12:45Z</time>
      </trkpt>
      <trkpt lat="43.51188" lon="3.85271">
        <ele>13</ele>
        <time>2021-01-01T12:12:46Z</time>
      </trkpt>
      <trkpt lat="43.51191" lon="3.85276">
        <ele>13</ele>
        <time>2021-01-01T12:12:47Z</time>
      </trkpt>
      <trkpt lat="43.51193" lon="3.85283">
        <ele>13</ele>
        <time>2021-01-01T12:12:48Z</time>
      </trkpt>
      <trkpt lat="43.51195" lon="3.85289">
        <ele>13</ele>
        <time>2021-01-01T12:12:49Z</time>
      </trkpt>
      <trkpt lat="43.51197" lon="3.85295">
        <ele>13</ele>
        <time>2021-01-01T12:12:50Z</time>
      </trkpt>
      <trkpt lat="43.51199" lon="3.85301">
        <ele>13</ele>
        <time>2021-01-01T12:12:51Z</time>
      </trkpt>
      <trkpt lat="43.51202" lon="3.85308">
        <ele>13</ele>
        <time>2021-01-01T12:12:52Z</time>
      </trkpt>
      <trkpt lat="43.51203" lon="3.85314">
        <ele>14</ele>
        <time>2021-01-01T12:12:53Z</time>
      </trkpt>
      <trkpt lat="43.51207" lon="3.85326">
        <ele>14</ele>
        <time>2021-01-01T12:12:55Z</time>
      </trkpt>
      <trkpt lat="43.51209" lon="3.85332">
        <ele>14</ele>
        <time>2021-01-01T12:12:56Z</time>
      </trkpt>
      <trkpt lat="43.51211" lon="3.85338">
        <ele>14</ele>
        <time>2021-01-01T12:12:57Z</time>
      </trkpt>
      <trkpt lat="43.51214" lon="3.85345">
        <ele>14</ele>
        <time>2021-01-01T12:12:58Z</time>
      </trkpt>
      <trkpt lat="43.51216" lon="3.8535">
        <ele>14</ele>
        <time>2021-01-01T12:12:59Z</time>
      </trkpt>
      <trkpt lat="43.51218" lon="3.85356">
        <ele>14</ele>
        <time>2021-01-01T12:13:00Z</time>
      </trkpt>
      <trkpt lat="43.51219" lon="3.85362">
        <ele>14</ele>
        <time>2021-01-01T12:13:01Z</time>
      </trkpt>
      <trkpt lat="43.51222" lon="3.85368">
        <ele>14</ele>
        <time>2021-01-01T12:13:02Z</time>
      </trkpt>
      <trkpt lat="43.51224" lon="3.85374">
        <ele>14</ele>
        <time>2021-01-01T12:13:03Z</time>
      </trkpt>
      <trkpt lat="43.51229" lon="3.85385">
        <ele>14</ele>
        <time>2021-01-01T12:13:05Z</time>
      </trkpt>
      <trkpt lat="43.51233" lon="3.85391">
        <ele>14</ele>
        <time>2021-01-01T12:13:06Z</time>
      </trkpt>
      <trkpt lat="43.51236" lon="3.85397">
        <ele>14</ele>
        <time>2021-01-01T12:13:07Z</time>
      </trkpt>
      <trkpt lat="43.5124" lon="3.85403">
        <ele>13</ele>
        <time>2021-01-01T12:13:08Z</time>
      </trkpt>
      <trkpt lat="43.51244" lon="3.85409">
        <ele>13</ele>
        <time>2021-01-01T12:13:09Z</time>
      </trkpt>
      <trkpt lat="43.51247" lon="3.85413">
        <ele>12</ele>
        <time>2021-01-01T12:13:10Z</time>
      </trkpt>
      <trkpt lat="43.51252" lon="3.85418">
        <ele>12</ele>
        <time>2021-01-01T12:13:11Z</time>
      </trkpt>
      <trkpt lat="43.51257" lon="3.85424">
        <ele>12</ele>
        <time>2021-01-01T12:13:12Z</time>
      </trkpt>
      <trkpt lat="43.51262" lon="3.85429">
        <ele>12</ele>
        <time>2021-01-01T12:13:13Z</time>
      </trkpt>
      <trkpt lat="43.51268" lon="3.85435">
        <ele>12</ele>
        <time>2021-01-01T12:13:14Z</time>
      </trkpt>
      <trkpt lat="43.51271" lon="3.85439">
        <ele>12</ele>
        <time>2021-01-01T12:13:15Z</time>
      </trkpt>
      <trkpt lat="43.51275" lon="3.85446">
        <ele>12</ele>
        <time>2021-01-01T12:13:16Z</time>
      </trkpt>
      <trkpt lat="43.51279" lon="3.85451">
        <ele>12</ele>
        <time>2021-01-01T12:13:17Z</time>
      </trkpt>
      <trkpt lat="43.51284" lon="3.85456">
        <ele>11</ele>
        <time>2021-01-01T12:13:18Z</time>
      </trkpt>
      <trkpt lat="43.51287" lon="3.85462">
        <ele>11</ele>
        <time>2021-01-01T12:13:19Z</time>
      </trkpt>
      <trkpt lat="43.51292" lon="3.85467">
        <ele>11</ele>
        <time>2021-01-01T12:13:20Z</time>
      </trkpt>
      <trkpt lat="43.51297" lon="3.85472">
        <ele>11</ele>
        <time>2021-01-01T12:13:21Z</time>
      </trkpt>
      <trkpt lat="43.513" lon="3.85477">
        <ele>10</ele>
        <time>2021-01-01T12:13:22Z</time>
      </trkpt>
      <trkpt lat="43.51304" lon="3.85483">
        <ele>11</ele>
        <time>2021-01-01T12:13:23Z</time>
      </trkpt>
      <trkpt lat="43.51308" lon="3.85488">
        <ele>12</ele>
        <time>2021-01-01T12:13:24Z</time>
      </trkpt>
      <trkpt lat="43.51313" lon="3.85494">
        <ele>12</ele>
        <time>2021-01-01T12:13:25Z</time>
      </trkpt>
      <trkpt lat="43.51318" lon="3.85499">
        <ele>14</ele>
        <time>2021-01-01T12:13:26Z</time>
      </trkpt>
      <trkpt lat="43.51323" lon="3.85504">
        <ele>15</ele>
        <time>2021-01-01T12:13:27Z</time>
      </trkpt>
      <trkpt lat="43.51327" lon="3.8551">
        <ele>16</ele>
        <time>2021-01-01T12:13:28Z</time>
      </trkpt>
      <trkpt lat="43.51331" lon="3.85515">
        <ele>16</ele>
        <time>2021-01-01T12:13:29Z</time>
      </trkpt>
      <trkpt lat="43.51336" lon="3.8552">
        <ele>16</ele>
        <time>2021-01-01T12:13:30Z</time>
      </trkpt>
      <trkpt lat="43.51341" lon="3.85525">
        <ele>17</ele>
        <time>2021-01-01T12:13:31Z</time>
      </trkpt>
      <trkpt lat="43.51345" lon="3.8553">
        <ele>17</ele>
        <time>2021-01-01T12:13:32Z</time>
      </trkpt>
      <trkpt lat="43.5135" lon="3.85535">
        <ele>17</ele>
        <time>2021-01-01T12:13:33Z</time>
      </trkpt>
      <trkpt lat="43.51354" lon="3.8554">
        <ele>17</ele>
        <time>2021-01-01T12:13:34Z</time>
      </trkpt>
      <trkpt lat="43.5136" lon="3.85549">
        <ele>17</ele>
        <time>2021-01-01T12:13:36Z</time>
      </trkpt>
      <trkpt lat="43.51362" lon="3.85556">
        <ele>17</ele>
        <time>2021-01-01T12:13:37Z</time>
      </trkpt>
      <trkpt lat="43.51367" lon="3.85561">
        <ele>16</ele>
        <time>2021-01-01T12:13:38Z</time>
      </trkpt>
      <trkpt lat="43.51371" lon="3.85564">
        <ele>16</ele>
        <time>2021-01-01T12:13:39Z</time>
      </trkpt>
      <trkpt lat="43.51375" lon="3.85568">
        <ele>16</ele>
        <time>2021-01-01T12:13:40Z</time>
      </trkpt>
      <trkpt lat="43.51378" lon="3.85574">
        <ele>14</ele>
        <time>2021-01-01T12:13:41Z</time>
      </trkpt>
      <trkpt lat="43.51384" lon="3.8558">
        <ele>13</ele>
        <time>2021-01-01T12:13:42Z</time>
      </trkpt>
      <trkpt lat="43.51388" lon="3.85585">
        <ele>13</ele>
        <time>2021-01-01T12:13:43Z</time>
      </trkpt>
      <trkpt lat="43.51393" lon="3.8559">
        <ele>12</ele>
        <time>2021-01-01T12:13:44Z</time>
      </trkpt>
      <trkpt lat="43.51399" lon="3.85597">
        <ele>12</ele>
        <time>2021-01-01T12:13:45Z</time>
      </trkpt>
      <trkpt lat="43.51403" lon="3.85602">
        <ele>13</ele>
        <time>2021-01-01T12:13:46Z</time>
      </trkpt>
      <trkpt lat="43.51408" lon="3.85607">
        <ele>14</ele>
        <time>2021-01-01T12:13:47Z</time>
      </trkpt>
      <trkpt lat="43.51413" lon="3.85613">
        <ele>14</ele>
        <time>2021-01-01T12:13:48Z</time>
      </trkpt>
      <trkpt lat="43.51419" lon="3.85618">
        <ele>15</ele>
        <time>2021-01-01T12:13:49Z</time>
      </trkpt>
      <trkpt lat="43.51424" lon="3.85623">
        <ele>15</ele>
        <time>2021-01-01T12:13:50Z</time>
      </trkpt>
      <trkpt lat="43.51428" lon="3.85628">
        <ele>15</ele>
        <time>2021-01-01T12:13:51Z</time>
      </trkpt>
      <trkpt lat="43.51433" lon="3.85633">
        <ele>16</ele>
        <time>2021-01-01T12:13:52Z</time>
      </trkpt>
      <trkpt lat="43.51439" lon="3.85638">
        <ele>16</ele>
        <time>2021-01-01T12:13:53Z</time>
      </trkpt>
      <trkpt lat="43.51444" lon="3.85642">
        <ele>15</ele>
        <time>2021-01-01T12:13:54Z</time>
      </trkpt>
      <trkpt lat="43.51448" lon="3.85646">
        <ele>15</ele>
        <time>2021-01-01T12:13:55Z</time>
      </trkpt>
      <trkpt lat="43.51454" lon="3.85651">
        <ele>15</ele>
        <time>2021-01-01T12:13:56Z</time>
      </trkpt>
      <trkpt lat="43.51459" lon="3.85654">
        <ele>15</ele>
        <time>2021-01-01T12:13:57Z</time>
      </trkpt>
      <trkpt lat="43.51464" lon="3.85656">
        <ele>15</ele>
        <time>2021-01-01T12:13:58Z</time>
      </trkpt>
      <trkpt lat="43.51469" lon="3.85657">
        <ele>16</ele>
        <time>2021-01-01T12:13:59Z</time>
      </trkpt>
      <trkpt lat="43.51475" lon="3.85658">
        <ele>16</ele>
        <time>2021-01-01T12:14:00Z</time>
      </trkpt>
      <trkpt lat="43.5148" lon="3.85659">
        <ele>16</ele>
        <time>2021-01-01T12:14:01Z</time>
      </trkpt>
      <trkpt lat="43.51485" lon="3.8566">
        <ele>16</ele>
        <time>2021-01-01T12:14:02Z</time>
      </trkpt>
      <trkpt lat="43.51489" lon="3.85661">
        <ele>16</ele>
        <time>2021-01-01T12:14:03Z</time>
      </trkpt>
      <trkpt lat="43.51497" lon="3.85661">
        <ele>16</ele>
        <time>2021-01-01T12:14:05Z</time>
      </trkpt>
      <trkpt lat="43.515" lon="3.85668">
        <ele>15</ele>
        <time>2021-01-01T12:14:07Z</time>
      </trkpt>
      <trkpt lat="43.51494" lon="3.85674">
        <ele>15</ele>
        <time>2021-01-01T12:14:09Z</time>
      </trkpt>
      <trkpt lat="43.51488" lon="3.85681">
        <ele>14</ele>
        <time>2021-01-01T12:14:11Z</time>
      </trkpt>
      <trkpt lat="43.51485" lon="3.85687">
        <ele>14</ele>
        <time>2021-01-01T12:14:13Z</time>
      </trkpt>
      <trkpt lat="43.51481" lon="3.85693">
        <ele>14</ele>
        <time>2021-01-01T12:14:15Z</time>
      </trkpt>
      <trkpt lat="43.51477" lon="3.85699">
        <ele>13</ele>
        <time>2021-01-01T12:14:16Z</time>
      </trkpt>
      <trkpt lat="43.51474" lon="3.85704">
        <ele>13</ele>
        <time>2021-01-01T12:14:17Z</time>
      </trkpt>
      <trkpt lat="43.5147" lon="3.8571">
        <ele>13</ele>
        <time>2021-01-01T12:14:18Z</time>
      </trkpt>
      <trkpt lat="43.51466" lon="3.85715">
        <ele>13</ele>
        <time>2021-01-01T12:14:19Z</time>
      </trkpt>
      <trkpt lat="43.51462" lon="3.8572">
        <ele>13</ele>
        <time>2021-01-01T12:14:20Z</time>
      </trkpt>
      <trkpt lat="43.51458" lon="3.85725">
        <ele>13</ele>
        <time>2021-01-01T12:14:21Z</time>
      </trkpt>
      <trkpt lat="43.51455" lon="3.85729">
        <ele>13</ele>
        <time>2021-01-01T12:14:22Z</time>
      </trkpt>
      <trkpt lat="43.51451" lon="3.85735">
        <ele>13</ele>
        <time>2021-01-01T12:14:23Z</time>
      </trkpt>
      <trkpt lat="43.51445" lon="3.85742">
        <ele>13</ele>
        <time>2021-01-01T12:14:24Z</time>
      </trkpt>
      <trkpt lat="43.51441" lon="3.85748">
        <ele>13</ele>
        <time>2021-01-01T12:14:25Z</time>
      </trkpt>
      <trkpt lat="43.51437" lon="3.85752">
        <ele>13</ele>
        <time>2021-01-01T12:14:26Z</time>
      </trkpt>
      <trkpt lat="43.51433" lon="3.85757">
        <ele>13</ele>
        <time>2021-01-01T12:14:27Z</time>
      </trkpt>
      <trkpt lat="43.51431" lon="3.85764">
        <ele>13</ele>
        <time>2021-01-01T12:14:28Z</time>
      </trkpt>
      <trkpt lat="43.51429" lon="3.85771">
        <ele>12</ele>
        <time>2021-01-01T12:14:29Z</time>
      </trkpt>
      <trkpt lat="43.5143" lon="3.85779">
        <ele>12</ele>
        <time>2021-01-01T12:14:30Z</time>
      </trkpt>
      <trkpt lat="43.51432" lon="3.85787">
        <ele>12</ele>
        <time>2021-01-01T12:14:31Z</time>
      </trkpt>
      <trkpt lat="43.51434" lon="3.85794">
        <ele>12</ele>
        <time>2021-01-01T12:14:32Z</time>
      </trkpt>
      <trkpt lat="43.51435" lon="3.85802">
        <ele>12</ele>
        <time>2021-01-01T12:14:33Z</time>
      </trkpt>
      <trkpt lat="43.51436" lon="3.85811">
        <ele>13</ele>
        <time>2021-01-01T12:14:34Z</time>
      </trkpt>
      <trkpt lat="43.51436" lon="3.85818">
        <ele>13</ele>
        <time>2021-01-01T12:14:35Z</time>
      </trkpt>
      <trkpt lat="43.51434" lon="3.85826">
        <ele>13</ele>
        <time>2021-01-01T12:14:36Z</time>
      </trkpt>
      <trkpt lat="43.51434" lon="3.85833">
        <ele>13</ele>
        <time>2021-01-01T12:14:37Z</time>
      </trkpt>
      <trkpt lat="43.51434" lon="3.85841">
        <ele>13</ele>
        <time>2021-01-01T12:14:38Z</time>
      </trkpt>
      <trkpt lat="43.51434" lon="3.85848">
        <ele>13</ele>
        <time>2021-01-01T12:14:39Z</time>
      </trkpt>
      <trkpt lat="43.51433" lon="3.85855">
        <ele>13</ele>
        <time>2021-01-01T12:14:40Z</time>
      </trkpt>
      <trkpt lat="43.51433" lon="3.85862">
        <ele>13</ele>
        <time>2021-01-01T12:14:41Z</time>
      </trkpt>
      <trkpt lat="43.51431" lon="3.85871">
        <ele>13</ele>
        <time>2021-01-01T12:14:42Z</time>
      </trkpt>
      <trkpt lat="43.5143" lon="3.85878">
        <ele>13</ele>
        <time>2021-01-01T12:14:43Z</time>
      </trkpt>
      <trkpt lat="43.51428" lon="3.85885">
        <ele>13</ele>
        <time>2021-01-01T12:14:44Z</time>
      </trkpt>
      <trkpt lat="43.51426" lon="3.85893">
        <ele>13</ele>
        <time>2021-01-01T12:14:45Z</time>
      </trkpt>
      <trkpt lat="43.51424" lon="3.85899">
        <ele>13</ele>
        <time>2021-01-01T12:14:46Z</time>
      </trkpt>
      <trkpt lat="43.51423" lon="3.85907">
        <ele>13</ele>
        <time>2021-01-01T12:14:47Z</time>
      </trkpt>
      <trkpt lat="43.51422" lon="3.85914">
        <ele>13</ele>
        <time>2021-01-01T12:14:48Z</time>
      </trkpt>
      <trkpt lat="43.5142" lon="3.85921">
        <ele>13</ele>
        <time>2021-01-01T12:14:49Z</time>
      </trkpt>
      <trkpt lat="43.51418" lon="3.85928">
        <ele>12</ele>
        <time>2021-01-01T12:14:50Z</time>
      </trkpt>
      <trkpt lat="43.51416" lon="3.85934">
        <ele>12</ele>
        <time>2021-01-01T12:14:51Z</time>
      </trkpt>
      <trkpt lat="43.51415" lon="3.85942">
        <ele>11</ele>
        <time>2021-01-01T12:14:52Z</time>
      </trkpt>
      <trkpt lat="43.51413" lon="3.85949">
        <ele>10</ele>
        <time>2021-01-01T12:14:53Z</time>
      </trkpt>
      <trkpt lat="43.51411" lon="3.85956">
        <ele>10</ele>
        <time>2021-01-01T12:14:54Z</time>
      </trkpt>
      <trkpt lat="43.5141" lon="3.85963">
        <ele>10</ele>
        <time>2021-01-01T12:14:55Z</time>
      </trkpt>
      <trkpt lat="43.51408" lon="3.8597">
        <ele>10</ele>
        <time>2021-01-01T12:14:56Z</time>
      </trkpt>
      <trkpt lat="43.51407" lon="3.85976">
        <ele>10</ele>
        <time>2021-01-01T12:14:57Z</time>
      </trkpt>
      <trkpt lat="43.51405" lon="3.85984">
        <ele>10</ele>
        <time>2021-01-01T12:14:58Z</time>
      </trkpt>
      <trkpt lat="43.51404" lon="3.85991">
        <ele>10</ele>
        <time>2021-01-01T12:14:59Z</time>
      </trkpt>
      <trkpt lat="43.51402" lon="3.85999">
        <ele>10</ele>
        <time>2021-01-01T12:15:00Z</time>
      </trkpt>
      <trkpt lat="43.51399" lon="3.86012">
        <ele>10</ele>
        <time>2021-01-01T12:15:02Z</time>
      </trkpt>
      <trkpt lat="43.51398" lon="3.86018">
        <ele>10</ele>
        <time>2021-01-01T12:15:03Z</time>
      </trkpt>
      <trkpt lat="43.51391" lon="3.86026">
        <ele>9</ele>
        <time>2021-01-01T12:15:05Z</time>
      </trkpt>
      <trkpt lat="43.51387" lon="3.86027">
        <ele>9</ele>
        <time>2021-01-01T12:15:06Z</time>
      </trkpt>
      <trkpt lat="43.51382" lon="3.86028">
        <ele>9</ele>
        <time>2021-01-01T12:15:07Z</time>
      </trkpt>
      <trkpt lat="43.51377" lon="3.86029">
        <ele>8</ele>
        <time>2021-01-01T12:15:08Z</time>
      </trkpt>
      <trkpt lat="43.51371" lon="3.86029">
        <ele>8</ele>
        <time>2021-01-01T12:15:09Z</time>
      </trkpt>
      <trkpt lat="43.51365" lon="3.86029">
        <ele>8</ele>
        <time>2021-01-01T12:15:10Z</time>
      </trkpt>
      <trkpt lat="43.5136" lon="3.86028">
        <ele>8</ele>
        <time>2021-01-01T12:15:11Z</time>
      </trkpt>
      <trkpt lat="43.51355" lon="3.86027">
        <ele>8</ele>
        <time>2021-01-01T12:15:12Z</time>
      </trkpt>
      <trkpt lat="43.51349" lon="3.86027">
        <ele>7</ele>
        <time>2021-01-01T12:15:13Z</time>
      </trkpt>
      <trkpt lat="43.51344" lon="3.86029">
        <ele>7</ele>
        <time>2021-01-01T12:15:14Z</time>
      </trkpt>
      <trkpt lat="43.51338" lon="3.86032">
        <ele>7</ele>
        <time>2021-01-01T12:15:15Z</time>
      </trkpt>
      <trkpt lat="43.51334" lon="3.86036">
        <ele>7</ele>
        <time>2021-01-01T12:15:16Z</time>
      </trkpt>
      <trkpt lat="43.5133" lon="3.86042">
        <ele>6</ele>
        <time>2021-01-01T12:15:17Z</time>
      </trkpt>
      <trkpt lat="43.51326" lon="3.86049">
        <ele>6</ele>
        <time>2021-01-01T12:15:18Z</time>
      </trkpt>
      <trkpt lat="43.51322" lon="3.86055">
        <ele>6</ele>
        <time>2021-01-01T12:15:19Z</time>
      </trkpt>
      <trkpt lat="43.51319" lon="3.86062">
        <ele>6</ele>
        <time>2021-01-01T12:15:20Z</time>
      </trkpt>
      <trkpt lat="43.51315" lon="3.86067">
        <ele>6</ele>
        <time>2021-01-01T12:15:21Z</time>
      </trkpt>
      <trkpt lat="43.5131" lon="3.86073">
        <ele>6</ele>
        <time>2021-01-01T12:15:22Z</time>
      </trkpt>
      <trkpt lat="43.51307" lon="3.8608">
        <ele>6</ele>
        <time>2021-01-01T12:15:23Z</time>
      </trkpt>
      <trkpt lat="43.51302" lon="3.86086">
        <ele>6</ele>
        <time>2021-01-01T12:15:24Z</time>
      </trkpt>
      <trkpt lat="43.51299" lon="3.86092">
        <ele>6</ele>
        <time>2021-01-01T12:15:25Z</time>
      </trkpt>
      <trkpt lat="43.51294" lon="3.86096">
        <ele>6</ele>
        <time>2021-01-01T12:15:26Z</time>
      </trkpt>
      <trkpt lat="43.5129" lon="3.86102">
        <ele>6</ele>
        <time>2021-01-01T12:15:27Z</time>
      </trkpt>
      <trkpt lat="43.51286" lon="3.86108">
        <ele>6</ele>
        <time>2021-01-01T12:15:28Z</time>
      </trkpt>
      <trkpt lat="43.51283" lon="3.86114">
        <ele>5</ele>
        <time>2021-01-01T12:15:29Z</time>
      </trkpt>
      <trkpt lat="43.5128" lon="3.8612">
        <ele>5</ele>
        <time>2021-01-01T12:15:30Z</time>
      </trkpt>
      <trkpt lat="43.51277" lon="3.86126">
        <ele>6</ele>
        <time>2021-01-01T12:15:31Z</time>
      </trkpt>
      <trkpt lat="43.51273" lon="3.86131">
        <ele>6</ele>
        <time>2021-01-01T12:15:32Z</time>
      </trkpt>
      <trkpt lat="43.5127" lon="3.86137">
        <ele>6</ele>
        <time>2021-01-01T12:15:33Z</time>
      </trkpt>
      <trkpt lat="43.51266" lon="3.86143">
        <ele>6</ele>
        <time>2021-01-01T12:15:34Z</time>
      </trkpt>
      <trkpt lat="43.51263" lon="3.86149">
        <ele>6</ele>
        <time>2021-01-01T12:15:35Z</time>
      </trkpt>
      <trkpt lat="43.51259" lon="3.86154">
        <ele>6</ele>
        <time>2021-01-01T12:15:36Z</time>
      </trkpt>
      <trkpt lat="43.51256" lon="3.8616">
        <ele>6</ele>
        <time>2021-01-01T12:15:37Z</time>
      </trkpt>
      <trkpt lat="43.51252" lon="3.86167">
        <ele>6</ele>
        <time>2021-01-01T12:15:38Z</time>
      </trkpt>
      <trkpt lat="43.51249" lon="3.86173">
        <ele>6</ele>
        <time>2021-01-01T12:15:39Z</time>
      </trkpt>
      <trkpt lat="43.51246" lon="3.86179">
        <ele>6</ele>
        <time>2021-01-01T12:15:40Z</time>
      </trkpt>
      <trkpt lat="43.51242" lon="3.86185">
        <ele>7</ele>
        <time>2021-01-01T12:15:41Z</time>
      </trkpt>
      <trkpt lat="43.51239" lon="3.86191">
        <ele>7</ele>
        <time>2021-01-01T12:15:42Z</time>
      </trkpt>
      <trkpt lat="43.51235" lon="3.86197">
        <ele>7</ele>
        <time>2021-01-01T12:15:43Z</time>
      </trkpt>
      <trkpt lat="43.51231" lon="3.86203">
        <ele>7</ele>
        <time>2021-01-01T12:15:44Z</time>
      </trkpt>
      <trkpt lat="43.51229" lon="3.86209">
        <ele>7</ele>
        <time>2021-01-01T12:15:45Z</time>
      </trkpt>
      <trkpt lat="43.51225" lon="3.86216">
        <ele>7</ele>
        <time>2021-01-01T12:15:46Z</time>
      </trkpt>
      <trkpt lat="43.51222" lon="3.86221">
        <ele>7</ele>
        <time>2021-01-01T12:15:47Z</time>
      </trkpt>
      <trkpt lat="43.51217" lon="3.86227">
        <ele>6</ele>
        <time>2021-01-01T12:15:48Z</time>
      </trkpt>
      <trkpt lat="43.51214" lon="3.86234">
        <ele>6</ele>
        <time>2021-01-01T12:15:49Z</time>
      </trkpt>
      <trkpt lat="43.51209" lon="3.8624">
        <ele>6</ele>
        <time>2021-01-01T12:15:50Z</time>
      </trkpt>
      <trkpt lat="43.51205" lon="3.86246">
        <ele>5</ele>
        <time>2021-01-01T12:15:51Z</time>
      </trkpt>
      <trkpt lat="43.51202" lon="3.86251">
        <ele>5</ele>
        <time>2021-01-01T12:15:52Z</time>
      </trkpt>
      <trkpt lat="43.51199" lon="3.86257">
        <ele>5</ele>
        <time>2021-01-01T12:15:53Z</time>
      </trkpt>
      <trkpt lat="43.51196" lon="3.86263">
        <ele>5</ele>
        <time>2021-01-01T12:15:54Z</time>
      </trkpt>
      <trkpt lat="43.51193" lon="3.86269">
        <ele>5</ele>
        <time>2021-01-01T12:15:55Z</time>
      </trkpt>
      <trkpt lat="43.51189" lon="3.86275">
        <ele>5</ele>
        <time>2021-01-01T12:15:56Z</time>
      </trkpt>
      <trkpt lat="43.51187" lon="3.86281">
        <ele>5</ele>
        <time>2021-01-01T12:15:57Z</time>
      </trkpt>
      <trkpt lat="43.51185" lon="3.86288">
        <ele>5</ele>
        <time>2021-01-01T12:15:58Z</time>
      </trkpt>
      <trkpt lat="43.51184" lon="3.86298">
        <ele>4</ele>
        <time>2021-01-01T12:16:00Z</time>
      </trkpt>
      <trkpt lat="43.51181" lon="3.86304">
        <ele>3</ele>
        <time>2021-01-01T12:16:01Z</time>
      </trkpt>
      <trkpt lat="43.51179" lon="3.86309">
        <ele>3</ele>
        <time>2021-01-01T12:16:02Z</time>
      </trkpt>
      <trkpt lat="43.51178" lon="3.86316">
        <ele>2</ele>
        <time>2021-01-01T12:16:03Z</time>
      </trkpt>
      <trkpt lat="43.51175" lon="3.86327">
        <ele>2</ele>
        <time>2021-01-01T12:16:05Z</time>
      </trkpt>
      <trkpt lat="43.51173" lon="3.86338">
        <ele>2</ele>
        <time>2021-01-01T12:16:07Z</time>
      </trkpt>
      <trkpt lat="43.51172" lon="3.86348">
        <ele>2</ele>
        <time>2021-01-01T12:16:09Z</time>
      </trkpt>
      <trkpt lat="43.51172" lon="3.86356">
        <ele>3</ele>
        <time>2021-01-01T12:16:11Z</time>
      </trkpt>
      <trkpt lat="43.51172" lon="3.86358">
        <ele>4</ele>
        <time>2021-01-01T12:16:30Z</time>
      </trkpt>
      <trkpt lat="43.51173" lon="3.86359">
        <ele>4</ele>
        <time>2021-01-01T12:16:31Z</time>
      </trkpt>
      <trkpt lat="43.5118" lon="3.8636">
        <ele>5</ele>
        <time>2021-01-01T12:16:33Z</time>
      </trkpt>
      <trkpt lat="43.51185" lon="3.86358">
        <ele>5</ele>
        <time>2021-01-01T12:16:35Z</time>
      </trkpt>
      <trkpt lat="43.51192" lon="3.86356">
        <ele>5</ele>
        <time>2021-01-01T12:16:37Z</time>
      </trkpt>
      <trkpt lat="43.51199" lon="3.86358">
        <ele>5</ele>
        <time>2021-01-01T12:16:39Z</time>
      </trkpt>
      <trkpt lat="43.51204" lon="3.86361">
        <ele>6</ele>
        <time>2021-01-01T12:16:41Z</time>
      </trkpt>
      <trkpt lat="43.51209" lon="3.86365">
        <ele>6</ele>
        <time>2021-01-01T12:16:43Z</time>
      </trkpt>
      <trkpt lat="43.51213" lon="3.86368">
        <ele>6</ele>
        <time>2021-01-01T12:16:45Z</time>
      </trkpt>
      <trkpt lat="43.51216" lon="3.86373">
        <ele>6</ele>
        <time>2021-01-01T12:16:47Z</time>
      </trkpt>
      <trkpt lat="43.5122" lon="3.86378">
        <ele>6</ele>
        <time>2021-01-01T12:16:49Z</time>
      </trkpt>
      <trkpt lat="43.51223" lon="3.86383">
        <ele>6</ele>
        <time>2021-01-01T12:16:51Z</time>
      </trkpt>
      <trkpt lat="43.51227" lon="3.86391">
        <ele>6</ele>
        <time>2021-01-01T12:16:54Z</time>
      </trkpt>
      <trkpt lat="43.51231" lon="3.86395">
        <ele>6</ele>
        <time>2021-01-01T12:16:56Z</time>
      </trkpt>
      <trkpt lat="43.51236" lon="3.86398">
        <ele>6</ele>
        <time>2021-01-01T12:16:58Z</time>
      </trkpt>
      <trkpt lat="43.51241" lon="3.86401">
        <ele>6</ele>
        <time>2021-01-01T12:17:00Z</time>
      </trkpt>
      <trkpt lat="43.51246" lon="3.86404">
        <ele>6</ele>
        <time>2021-01-01T12:17:02Z</time>
      </trkpt>
      <trkpt lat="43.5125" lon="3.86407">
        <ele>6</ele>
        <time>2021-01-01T12:17:04Z</time>
      </trkpt>
      <trkpt lat="43.51255" lon="3.86409">
        <ele>6</ele>
        <time>2021-01-01T12:17:06Z</time>
      </trkpt>
      <trkpt lat="43.5126" lon="3.86411">
        <ele>6</ele>
        <time>2021-01-01T12:17:08Z</time>
      </trkpt>
      <trkpt lat="43.51265" lon="3.86412">
        <ele>5</ele>
        <time>2021-01-01T12:17:10Z</time>
      </trkpt>
      <trkpt lat="43.51271" lon="3.86414">
        <ele>5</ele>
        <time>2021-01-01T12:17:12Z</time>
      </trkpt>
      <trkpt lat="43.51279" lon="3.86417">
        <ele>3</ele>
        <time>2021-01-01T12:17:14Z</time>
      </trkpt>
      <trkpt lat="43.51284" lon="3.86418">
        <ele>2</ele>
        <time>2021-01-01T12:17:17Z</time>
      </trkpt>
      <trkpt lat="43.51289" lon="3.8642">
        <ele>2.6</ele>
        <time>2021-01-01T12:17:19Z</time>
      </trkpt>
      <trkpt lat="43.51294" lon="3.86421">
        <ele>2.41</ele>
        <time>2021-01-01T12:17:20Z</time>
      </trkpt>
      <trkpt lat="43.51299" lon="3.86422">
        <ele>2.23</ele>
        <time>2021-01-01T12:17:21Z</time>
      </trkpt>
      <trkpt lat="43.51304" lon="3.86423">
        <ele>2.06</ele>
        <time>2021-01-01T12:17:22Z</time>
      </trkpt>
      <trkpt lat="43.51314" lon="3.86425">
        <ele>-1</ele>
        <time>2021-01-01T12:17:23Z</time>
      </trkpt>
      <trkpt lat="43.5132" lon="3.86423">
        <ele>2</ele>
        <time>2021-01-01T12:17:25Z</time>
      </trkpt>
      <trkpt lat="43.51326" lon="3.86422">
        <ele>2</ele>
        <time>2021-01-01T12:17:27Z</time>
      </trkpt>
      <trkpt lat="43.51331" lon="3.8642">
        <ele>2</ele>
        <time>2021-01-01T12:17:29Z</time>
      </trkpt>
      <trkpt lat="43.51336" lon="3.86418">
        <ele>1.9</ele>
        <time>2021-01-01T12:17:31Z</time>
      </trkpt>
      <trkpt lat="43.51341" lon="3.86417">
        <ele>1.74</ele>
        <time>2021-01-01T12:17:33Z</time>
      </trkpt>
      <trkpt lat="43.51346" lon="3.86416">
        <ele>1.5</ele>
        <time>2021-01-01T12:17:35Z</time>
      </trkpt>
      <trkpt lat="43.51353" lon="3.86416">
        <ele>1.3</ele>
        <time>2021-01-01T12:17:37Z</time>
      </trkpt>
      <trkpt lat="43.51379" lon="3.86419">
        <ele>1.66</ele>
        <time>2021-01-01T12:17:45Z</time>
      </trkpt>
      <trkpt lat="43.51384" lon="3.86416">
        <ele>1</ele>
        <time>2021-01-01T12:17:46Z</time>
      </trkpt>
      <trkpt lat="43.5139" lon="3.86419">
        <ele>1</ele>
        <time>2021-01-01T12:17:48Z</time>
      </trkpt>
      <trkpt lat="43.51395" lon="3.8642">
        <ele>1</ele>
        <time>2021-01-01T12:17:50Z</time>
      </trkpt>
      <trkpt lat="43.51402" lon="3.86422">
        <ele>2</ele>
        <time>2021-01-01T12:17:52Z</time>
      </trkpt>
      <trkpt lat="43.51409" lon="3.86423">
        <ele>2</ele>
        <time>2021-01-01T12:17:54Z</time>
      </trkpt>
      <trkpt lat="43.51416" lon="3.86424">
        <ele>3</ele>
        <time>2021-01-01T12:17:56Z</time>
      </trkpt>
      <trkpt lat="43.51424" lon="3.86425">
        <ele>3</ele>
        <time>2021-01-01T12:17:58Z</time>
      </trkpt>
      <trkpt lat="43.51431" lon="3.86426">
        <ele>3</ele>
        <time>2021-01-01T12:18:00Z</time>
      </trkpt>
      <trkpt lat="43.51438" lon="3.86427">
        <ele>3</ele>
        <time>2021-01-01T12:18:03Z</time>
      </trkpt>
      <trkpt lat="43.51445" lon="3.86427">
        <ele>2</ele>
        <time>2021-01-01T12:18:05Z</time>
      </trkpt>
      <trkpt lat="43.51453" lon="3.86428">
        <ele>2</ele>
        <time>2021-01-01T12:18:07Z</time>
      </trkpt>
      <trkpt lat="43.51461" lon="3.86429">
        <ele>2</ele>
        <time>2021-01-01T12:18:09Z</time>
      </trkpt>
      <trkpt lat="43.51467" lon="3.86431">
        <ele>2</ele>
        <time>2021-01-01T12:18:11Z</time>
      </trkpt>
      <trkpt lat="43.51473" lon="3.86433">
        <ele>2</ele>
        <time>2021-01-01T12:18:13Z</time>
      </trkpt>
      <trkpt lat="43.51479" lon="3.86434">
        <ele>2</ele>
        <time>2021-01-01T12:18:16Z</time>
      </trkpt>
      <trkpt lat="43.51485" lon="3.86433">
        <ele>1</ele>
        <time>2021-01-01T12:18:19Z</time>
      </trkpt>
      <trkpt lat="43.5149" lon="3.86434">
        <ele>1</ele>
        <time>2021-01-01T12:18:22Z</time>
      </trkpt>
      <trkpt lat="43.51496" lon="3.86433">
        <ele>1</ele>
        <time>2021-01-01T12:18:27Z</time>
      </trkpt>
      <trkpt lat="43.51502" lon="3.86435">
        <ele>1</ele>
        <time>2021-01-01T12:18:30Z</time>
      </trkpt>
      <trkpt lat="43.51508" lon="3.86437">
        <ele>1</ele>
        <time>2021-01-01T12:18:32Z</time>
      </trkpt>
      <trkpt lat="43.51514" lon="3.86439">
        <ele>1</ele>
        <time>2021-01-01T12:18:34Z</time>
      </trkpt>
      <trkpt lat="43.51523" lon="3.86442">
        <ele>1</ele>
        <time>2021-01-01T12:18:36Z</time>
      </trkpt>
      <trkpt lat="43.5153" lon="3.86444">
        <ele>1</ele>
        <time>2021-01-01T12:18:38Z</time>
      </trkpt>
      <trkpt lat="43.51536" lon="3.86446">
        <ele>1</ele>
        <time>2021-01-01T12:18:40Z</time>
      </trkpt>
      <trkpt lat="43.51543" lon="3.86449">
        <ele>1</ele>
        <time>2021-01-01T12:18:42Z</time>
      </trkpt>
      <trkpt lat="43.5155" lon="3.8645">
        <ele>1</ele>
        <time>2021-01-01T12:18:44Z</time>
      </trkpt>
      <trkpt lat="43.51556" lon="3.86451">
        <ele>1</ele>
        <time>2021-01-01T12:18:46Z</time>
      </trkpt>
      <trkpt lat="43.51563" lon="3.86453">
        <ele>1</ele>
        <time>2021-01-01T12:18:48Z</time>
      </trkpt>
      <trkpt lat="43.51568" lon="3.86453">
        <ele>1</ele>
        <time>2021-01-01T12:18:50Z</time>
      </trkpt>
      <trkpt lat="43.51574" lon="3.86452">
        <ele>1</ele>
        <time>2021-01-01T12:18:52Z</time>
      </trkpt>
      <trkpt lat="43.51579" lon="3.86451">
        <ele>1</ele>
        <time>2021-01-01T12:18:54Z</time>
      </trkpt>
      <trkpt lat="43.51583" lon="3.86449">
        <ele>1</ele>
        <time>2021-01-01T12:18:56Z</time>
      </trkpt>
      <trkpt lat="43.51587" lon="3.86447">
        <ele>1</ele>
        <time>2021-01-01T12:19:15Z</time>
      </trkpt>
      <trkpt lat="43.51587" lon="3.86447">
        <ele>1</ele>
        <time>2021-01-01T12:19:16Z</time>
      </trkpt>
      <trkpt lat="43.51588" lon="3.86449">
        <ele>1</ele>
        <time>2021-01-01T12:19:45Z</time>
      </trkpt>
      <trkpt lat="43.51587" lon="3.86449">
        <ele>1</ele>
        <time>2021-01-01T12:19:46Z</time>
      </trkpt>
      <trkpt lat="43.52225" lon="3.866">
        <ele>-11</ele>
        <time>2021-01-01T12:24:15Z</time>
      </trkpt>
      <trkpt lat="43.5223" lon="3.86589">
        <ele>-7</ele>
        <time>2021-01-01T12:24:16Z</time>
      </trkpt>
      <trkpt lat="43.52234" lon="3.86592">
        <ele>-4</ele>
        <time>2021-01-01T12:24:17Z</time>
      </trkpt>
      <trkpt lat="43.52243" lon="3.86593">
        <ele>6</ele>
        <time>2021-01-01T12:24:19Z</time>
      </trkpt>
      <trkpt lat="43.52248" lon="3.86589">
        <ele>6</ele>
        <time>2021-01-01T12:24:21Z</time>
      </trkpt>
      <trkpt lat="43.52255" lon="3.86587">
        <ele>6</ele>
        <time>2021-01-01T12:24:23Z</time>
      </trkpt>
      <trkpt lat="43.52259" lon="3.86585">
        <ele>7</ele>
        <time>2021-01-01T12:24:24Z</time>
      </trkpt>
      <trkpt lat="43.52268" lon="3.86581">
        <ele>7</ele>
        <time>2021-01-01T12:24:26Z</time>
      </trkpt>
      <trkpt lat="43.52277" lon="3.86577">
        <ele>6</ele>
        <time>2021-01-01T12:24:28Z</time>
      </trkpt>
      <trkpt lat="43.52285" lon="3.86573">
        <ele>6</ele>
        <time>2021-01-01T12:24:30Z</time>
      </trkpt>
      <trkpt lat="43.52292" lon="3.86569">
        <ele>6</ele>
        <time>2021-01-01T12:24:32Z</time>
      </trkpt>
      <trkpt lat="43.52298" lon="3.86566">
        <ele>6</ele>
        <time>2021-01-01T12:24:34Z</time>
      </trkpt>
      <trkpt lat="43.52305" lon="3.86568">
        <ele>6</ele>
        <time>2021-01-01T12:24:36Z</time>
      </trkpt>
      <trkpt lat="43.52306" lon="3.86579">
        <ele>6</ele>
        <time>2021-01-01T12:24:38Z</time>
      </trkpt>
      <trkpt lat="43.52304" lon="3.86589">
        <ele>5</ele>
        <time>2021-01-01T12:24:40Z</time>
      </trkpt>
      <trkpt lat="43.52304" lon="3.86595">
        <ele>5</ele>
        <time>2021-01-01T12:24:41Z</time>
      </trkpt>
      <trkpt lat="43.52303" lon="3.86609">
        <ele>5</ele>
        <time>2021-01-01T12:24:43Z</time>
      </trkpt>
      <trkpt lat="43.52303" lon="3.86615">
        <ele>5</ele>
        <time>2021-01-01T12:24:44Z</time>
      </trkpt>
      <trkpt lat="43.52303" lon="3.86623">
        <ele>5</ele>
        <time>2021-01-01T12:24:45Z</time>
      </trkpt>
      <trkpt lat="43.52303" lon="3.8663">
        <ele>5</ele>
        <time>2021-01-01T12:24:46Z</time>
      </trkpt>
      <trkpt lat="43.52304" lon="3.86637">
        <ele>5</ele>
        <time>2021-01-01T12:24:47Z</time>
      </trkpt>
      <trkpt lat="43.52305" lon="3.86643">
        <ele>5</ele>
        <time>2021-01-01T12:24:48Z</time>
      </trkpt>
      <trkpt lat="43.52306" lon="3.8665">
        <ele>4</ele>
        <time>2021-01-01T12:24:49Z</time>
      </trkpt>
      <trkpt lat="43.52307" lon="3.86657">
        <ele>5</ele>
        <time>2021-01-01T12:24:50Z</time>
      </trkpt>
      <trkpt lat="43.52308" lon="3.86664">
        <ele>4</ele>
        <time>2021-01-01T12:24:51Z</time>
      </trkpt>
      <trkpt lat="43.52307" lon="3.86672">
        <ele>4</ele>
        <time>2021-01-01T12:24:52Z</time>
      </trkpt>
      <trkpt lat="43.52306" lon="3.86678">
        <ele>4</ele>
        <time>2021-01-01T12:24:53Z</time>
      </trkpt>
      <trkpt lat="43.52307" lon="3.86685">
        <ele>4</ele>
        <time>2021-01-01T12:24:54Z</time>
      </trkpt>
      <trkpt lat="43.52306" lon="3.86693">
        <ele>4</ele>
        <time>2021-01-01T12:24:55Z</time>
      </trkpt>
      <trkpt lat="43.52306" lon="3.867">
        <ele>4</ele>
        <time>2021-01-01T12:24:56Z</time>
      </trkpt>
      <trkpt lat="43.52306" lon="3.86706">
        <ele>4</ele>
        <time>2021-01-01T12:24:57Z</time>
      </trkpt>
      <trkpt lat="43.52306" lon="3.86713">
        <ele>4</ele>
        <time>2021-01-01T12:24:58Z</time>
      </trkpt>
      <trkpt lat="43.52305" lon="3.8672">
        <ele>4</ele>
        <time>2021-01-01T12:24:59Z</time>
      </trkpt>
      <trkpt lat="43.52303" lon="3.86729">
        <ele>4</ele>
        <time>2021-01-01T12:25:00Z</time>
      </trkpt>
      <trkpt lat="43.52303" lon="3.86737">
        <ele>3</ele>
        <time>2021-01-01T12:25:01Z</time>
      </trkpt>
      <trkpt lat="43.523" lon="3.86743">
        <ele>2</ele>
        <time>2021-01-01T12:25:02Z</time>
      </trkpt>
      <trkpt lat="43.52297" lon="3.8675">
        <ele>2</ele>
        <time>2021-01-01T12:25:03Z</time>
      </trkpt>
      <trkpt lat="43.52294" lon="3.86757">
        <ele>2</ele>
        <time>2021-01-01T12:25:04Z</time>
      </trkpt>
      <trkpt lat="43.52291" lon="3.86763">
        <ele>1</ele>
        <time>2021-01-01T12:25:05Z</time>
      </trkpt>
      <trkpt lat="43.52288" lon="3.86768">
        <ele>1</ele>
        <time>2021-01-01T12:25:06Z</time>
      </trkpt>
      <trkpt lat="43.52284" lon="3.86774">
        <ele>1</ele>
        <time>2021-01-01T12:25:07Z</time>
      </trkpt>
      <trkpt lat="43.5228" lon="3.8678">
        <ele>4.1</ele>
        <time>2021-01-01T12:25:08Z</time>
      </trkpt>
      <trkpt lat="43.52277" lon="3.86786">
        <ele>4</ele>
        <time>2021-01-01T12:25:09Z</time>
      </trkpt>
      <trkpt lat="43.52273" lon="3.86793">
        <ele>4</ele>
        <time>2021-01-01T12:25:10Z</time>
      </trkpt>
      <trkpt lat="43.5227" lon="3.86799">
        <ele>1</ele>
        <time>2021-01-01T12:25:11Z</time>
      </trkpt>
      <trkpt lat="43.52267" lon="3.86805">
        <ele>1</ele>
        <time>2021-01-01T12:25:12Z</time>
      </trkpt>
      <trkpt lat="43.52263" lon="3.86811">
        <ele>1</ele>
        <time>2021-01-01T12:25:13Z</time>
      </trkpt>
      <trkpt lat="43.52259" lon="3.86816">
        <ele>2</ele>
        <time>2021-01-01T12:25:14Z</time>
      </trkpt>
      <trkpt lat="43.52257" lon="3.86822">
        <ele>2</ele>
        <time>2021-01-01T12:25:15Z</time>
      </trkpt>
      <trkpt lat="43.52254" lon="3.86829">
        <ele>2</ele>
        <time>2021-01-01T12:25:16Z</time>
      </trkpt>
      <trkpt lat="43.52253" lon="3.86836">
        <ele>2</ele>
        <time>2021-01-01T12:25:17Z</time>
      </trkpt>
      <trkpt lat="43.52255" lon="3.86843">
        <ele>1</ele>
        <time>2021-01-01T12:25:18Z</time>
      </trkpt>
      <trkpt lat="43.52259" lon="3.86849">
        <ele>1</ele>
        <time>2021-01-01T12:25:19Z</time>
      </trkpt>
      <trkpt lat="43.52263" lon="3.86854">
        <ele>1</ele>
        <time>2021-01-01T12:25:20Z</time>
      </trkpt>
      <trkpt lat="43.52268" lon="3.86858">
        <ele>1</ele>
        <time>2021-01-01T12:25:21Z</time>
      </trkpt>
      <trkpt lat="43.52273" lon="3.86862">
        <ele>1</ele>
        <time>2021-01-01T12:25:22Z</time>
      </trkpt>
      <trkpt lat="43.52278" lon="3.86865">
        <ele>1</ele>
        <time>2021-01-01T12:25:23Z</time>
      </trkpt>
      <trkpt lat="43.52283" lon="3.86869">
        <ele>1</ele>
        <time>2021-01-01T12:25:24Z</time>
      </trkpt>
      <trkpt lat="43.52289" lon="3.86871">
        <ele>1</ele>
        <time>2021-01-01T12:25:25Z</time>
      </trkpt>
      <trkpt lat="43.52294" lon="3.86876">
        <ele>1</ele>
        <time>2021-01-01T12:25:26Z</time>
      </trkpt>
      <trkpt lat="43.52298" lon="3.86879">
        <ele>1</ele>
        <time>2021-01-01T12:25:27Z</time>
      </trkpt>
      <trkpt lat="43.52303" lon="3.86883">
        <ele>1</ele>
        <time>2021-01-01T12:25:28Z</time>
      </trkpt>
      <trkpt lat="43.52306" lon="3.86889">
        <ele>1</ele>
        <time>2021-01-01T12:25:29Z</time>
      </trkpt>
      <trkpt lat="43.52308" lon="3.86895">
        <ele>1</ele>
        <time>2021-01-01T12:25:30Z</time>
      </trkpt>
      <trkpt lat="43.52307" lon="3.86902">
        <ele>1</ele>
        <time>2021-01-01T12:25:31Z</time>
      </trkpt>
      <trkpt lat="43.52305" lon="3.86909">
        <ele>2</ele>
        <time>2021-01-01T12:25:32Z</time>
      </trkpt>
      <trkpt lat="43.52301" lon="3.86915">
        <ele>2</ele>
        <time>2021-01-01T12:25:33Z</time>
      </trkpt>
      <trkpt lat="43.52297" lon="3.86919">
        <ele>2</ele>
        <time>2021-01-01T12:25:34Z</time>
      </trkpt>
      <trkpt lat="43.52292" lon="3.86924">
        <ele>2</ele>
        <time>2021-01-01T12:25:35Z</time>
      </trkpt>
      <trkpt lat="43.52287" lon="3.8693">
        <ele>2</ele>
        <time>2021-01-01T12:25:36Z</time>
      </trkpt>
      <trkpt lat="43.52284" lon="3.86936">
        <ele>2</ele>
        <time>2021-01-01T12:25:37Z</time>
      </trkpt>
      <trkpt lat="43.52281" lon="3.86944">
        <ele>2</ele>
        <time>2021-01-01T12:25:38Z</time>
      </trkpt>
      <trkpt lat="43.52279" lon="3.86953">
        <ele>1</ele>
        <time>2021-01-01T12:25:39Z</time>
      </trkpt>
      <trkpt lat="43.52279" lon="3.86963">
        <ele>1</ele>
        <time>2021-01-01T12:25:40Z</time>
      </trkpt>
      <trkpt lat="43.5228" lon="3.86972">
        <ele>1</ele>
        <time>2021-01-01T12:25:41Z</time>
      </trkpt>
      <trkpt lat="43.52282" lon="3.86981">
        <ele>1</ele>
        <time>2021-01-01T12:25:42Z</time>
      </trkpt>
      <trkpt lat="43.52284" lon="3.86989">
        <ele>2</ele>
        <time>2021-01-01T12:25:43Z</time>
      </trkpt>
      <trkpt lat="43.52287" lon="3.86999">
        <ele>2</ele>
        <time>2021-01-01T12:25:44Z</time>
      </trkpt>
      <trkpt lat="43.52289" lon="3.87007">
        <ele>2</ele>
        <time>2021-01-01T12:25:45Z</time>
      </trkpt>
      <trkpt lat="43.52292" lon="3.87015">
        <ele>3</ele>
        <time>2021-01-01T12:25:46Z</time>
      </trkpt>
      <trkpt lat="43.52296" lon="3.87021">
        <ele>3</ele>
        <time>2021-01-01T12:25:47Z</time>
      </trkpt>
      <trkpt lat="43.523" lon="3.87026">
        <ele>3</ele>
        <time>2021-01-01T12:25:48Z</time>
      </trkpt>
      <trkpt lat="43.52305" lon="3.87032">
        <ele>3</ele>
        <time>2021-01-01T12:25:49Z</time>
      </trkpt>
      <trkpt lat="43.52309" lon="3.87036">
        <ele>3</ele>
        <time>2021-01-01T12:25:50Z</time>
      </trkpt>
      <trkpt lat="43.52314" lon="3.87041">
        <ele>3</ele>
        <time>2021-01-01T12:25:51Z</time>
      </trkpt>
      <trkpt lat="43.52318" lon="3.87045">
        <ele>3</ele>
        <time>2021-01-01T12:25:52Z</time>
      </trkpt>
      <trkpt lat="43.52322" lon="3.87048">
        <ele>3</ele>
        <time>2021-01-01T12:25:53Z</time>
      </trkpt>
      <trkpt lat="43.52328" lon="3.87054">
        <ele>2</ele>
        <time>2021-01-01T12:25:54Z</time>
      </trkpt>
      <trkpt lat="43.52332" lon="3.87059">
        <ele>2</ele>
        <time>2021-01-01T12:25:55Z</time>
      </trkpt>
      <trkpt lat="43.52337" lon="3.87064">
        <ele>2</ele>
        <time>2021-01-01T12:25:56Z</time>
      </trkpt>
      <trkpt lat="43.52341" lon="3.87069">
        <ele>1</ele>
        <time>2021-01-01T12:25:57Z</time>
      </trkpt>
      <trkpt lat="43.52345" lon="3.87075">
        <ele>1</ele>
        <time>2021-01-01T12:25:58Z</time>
      </trkpt>
      <trkpt lat="43.5235" lon="3.87079">
        <ele>1</ele>
        <time>2021-01-01T12:25:59Z</time>
      </trkpt>
      <trkpt lat="43.52355" lon="3.87084">
        <ele>1</ele>
        <time>2021-01-01T12:26:00Z</time>
      </trkpt>
      <trkpt lat="43.52359" lon="3.87089">
        <ele>2</ele>
        <time>2021-01-01T12:26:01Z</time>
      </trkpt>
      <trkpt lat="43.52364" lon="3.87092">
        <ele>2.1</ele>
        <time>2021-01-01T12:26:02Z</time>
      </trkpt>
      <trkpt lat="43.5237" lon="3.87096">
        <ele>2.3</ele>
        <time>2021-01-01T12:26:03Z</time>
      </trkpt>
      <trkpt lat="43.52378" lon="3.87102">
        <ele>2.6</ele>
        <time>2021-01-01T12:26:05Z</time>
      </trkpt>
      <trkpt lat="43.52382" lon="3.87105">
        <ele>2.8</ele>
        <time>2021-01-01T12:26:06Z</time>
      </trkpt>
      <trkpt lat="43.52387" lon="3.87108">
        <ele>2.9</ele>
        <time>2021-01-01T12:26:07Z</time>
      </trkpt>
      <trkpt lat="43.52391" lon="3.87111">
        <ele>3</ele>
        <time>2021-01-01T12:26:08Z</time>
      </trkpt>
      <trkpt lat="43.52399" lon="3.87117">
        <ele>1</ele>
        <time>2021-01-01T12:26:10Z</time>
      </trkpt>
      <trkpt lat="43.52407" lon="3.8712">
        <ele>1</ele>
        <time>2021-01-01T12:26:12Z</time>
      </trkpt>
      <trkpt lat="43.52409" lon="3.87127">
        <ele>1</ele>
        <time>2021-01-01T12:26:14Z</time>
      </trkpt>
      <trkpt lat="43.52405" lon="3.87137">
        <ele>1</ele>
        <time>2021-01-01T12:26:16Z</time>
      </trkpt>
      <trkpt lat="43.52399" lon="3.87144">
        <ele>1</ele>
        <time>2021-01-01T12:26:18Z</time>
      </trkpt>
      <trkpt lat="43.52393" lon="3.87154">
        <ele>1</ele>
        <time>2021-01-01T12:26:20Z</time>
      </trkpt>
      <trkpt lat="43.52387" lon="3.87164">
        <ele>1</ele>
        <time>2021-01-01T12:26:22Z</time>
      </trkpt>
      <trkpt lat="43.52384" lon="3.87169">
        <ele>1</ele>
        <time>2021-01-01T12:26:23Z</time>
      </trkpt>
      <trkpt lat="43.52381" lon="3.87175">
        <ele>1</ele>
        <time>2021-01-01T12:26:24Z</time>
      </trkpt>
      <trkpt lat="43.52378" lon="3.8718">
        <ele>1</ele>
        <time>2021-01-01T12:26:25Z</time>
      </trkpt>
      <trkpt lat="43.52375" lon="3.87186">
        <ele>2</ele>
        <time>2021-01-01T12:26:26Z</time>
      </trkpt>
      <trkpt lat="43.52371" lon="3.8719">
        <ele>1</ele>
        <time>2021-01-01T12:26:27Z</time>
      </trkpt>
      <trkpt lat="43.52367" lon="3.87197">
        <ele>1</ele>
        <time>2021-01-01T12:26:28Z</time>
      </trkpt>
      <trkpt lat="43.52363" lon="3.87204">
        <ele>1</ele>
        <time>2021-01-01T12:26:29Z</time>
      </trkpt>
      <trkpt lat="43.52361" lon="3.8721">
        <ele>1</ele>
        <time>2021-01-01T12:26:30Z</time>
      </trkpt>
      <trkpt lat="43.52358" lon="3.87217">
        <ele>1</ele>
        <time>2021-01-01T12:26:31Z</time>
      </trkpt>
      <trkpt lat="43.52353" lon="3.87229">
        <ele>1</ele>
        <time>2021-01-01T12:26:33Z</time>
      </trkpt>
      <trkpt lat="43.5235" lon="3.87236">
        <ele>1</ele>
        <time>2021-01-01T12:26:34Z</time>
      </trkpt>
      <trkpt lat="43.52348" lon="3.87242">
        <ele>1</ele>
        <time>2021-01-01T12:26:35Z</time>
      </trkpt>
      <trkpt lat="43.52345" lon="3.87249">
        <ele>1</ele>
        <time>2021-01-01T12:26:36Z</time>
      </trkpt>
      <trkpt lat="43.52343" lon="3.87256">
        <ele>1</ele>
        <time>2021-01-01T12:26:37Z</time>
      </trkpt>
      <trkpt lat="43.5234" lon="3.87263">
        <ele>1</ele>
        <time>2021-01-01T12:26:38Z</time>
      </trkpt>
      <trkpt lat="43.52339" lon="3.8727">
        <ele>1</ele>
        <time>2021-01-01T12:26:39Z</time>
      </trkpt>
      <trkpt lat="43.52337" lon="3.87276">
        <ele>1</ele>
        <time>2021-01-01T12:26:40Z</time>
      </trkpt>
      <trkpt lat="43.52336" lon="3.87284">
        <ele>1</ele>
        <time>2021-01-01T12:26:42Z</time>
      </trkpt>
      <trkpt lat="43.52343" lon="3.87286">
        <ele>1</ele>
        <time>2021-01-01T12:26:45Z</time>
      </trkpt>
      <trkpt lat="43.52349" lon="3.87281">
        <ele>1</ele>
        <time>2021-01-01T12:26:47Z</time>
      </trkpt>
      <trkpt lat="43.52353" lon="3.87277">
        <ele>1</ele>
        <time>2021-01-01T12:26:49Z</time>
      </trkpt>
      <trkpt lat="43.52356" lon="3.87271">
        <ele>1</ele>
        <time>2021-01-01T12:26:51Z</time>
      </trkpt>
      <trkpt lat="43.52366" lon="3.87262">
        <ele>1</ele>
        <time>2021-01-01T12:26:53Z</time>
      </trkpt>
      <trkpt lat="43.52371" lon="3.87262">
        <ele>1</ele>
        <time>2021-01-01T12:26:54Z</time>
      </trkpt>
      <trkpt lat="43.52376" lon="3.87262">
        <ele>2</ele>
        <time>2021-01-01T12:26:55Z</time>
      </trkpt>
      <trkpt lat="43.52385" lon="3.87264">
        <ele>2</ele>
        <time>2021-01-01T12:26:57Z</time>
      </trkpt>
      <trkpt lat="43.52391" lon="3.87264">
        <ele>2</ele>
        <time>2021-01-01T12:26:58Z</time>
      </trkpt>
      <trkpt lat="43.524" lon="3.87262">
        <ele>2</ele>
        <time>2021-01-01T12:27:00Z</time>
      </trkpt>
      <trkpt lat="43.52406" lon="3.87262">
        <ele>2</ele>
        <time>2021-01-01T12:27:01Z</time>
      </trkpt>
      <trkpt lat="43.5241" lon="3.87262">
        <ele>1</ele>
        <time>2021-01-01T12:27:02Z</time>
      </trkpt>
      <trkpt lat="43.52416" lon="3.87262">
        <ele>1</ele>
        <time>2021-01-01T12:27:03Z</time>
      </trkpt>
      <trkpt lat="43.52422" lon="3.87263">
        <ele>1</ele>
        <time>2021-01-01T12:27:04Z</time>
      </trkpt>
      <trkpt lat="43.52428" lon="3.87263">
        <ele>1</ele>
        <time>2021-01-01T12:27:05Z</time>
      </trkpt>
      <trkpt lat="43.52433" lon="3.87263">
        <ele>1</ele>
        <time>2021-01-01T12:27:06Z</time>
      </trkpt>
      <trkpt lat="43.52438" lon="3.87262">
        <ele>1</ele>
        <time>2021-01-01T12:27:07Z</time>
      </trkpt>
      <trkpt lat="43.52443" lon="3.87261">
        <ele>1</ele>
        <time>2021-01-01T12:27:08Z</time>
      </trkpt>
      <trkpt lat="43.52448" lon="3.8726">
        <ele>1</ele>
        <time>2021-01-01T12:27:09Z</time>
      </trkpt>
      <trkpt lat="43.52454" lon="3.87259">
        <ele>1</ele>
        <time>2021-01-01T12:27:10Z</time>
      </trkpt>
      <trkpt lat="43.52459" lon="3.87259">
        <ele>1</ele>
        <time>2021-01-01T12:27:11Z</time>
      </trkpt>
      <trkpt lat="43.52464" lon="3.87258">
        <ele>1</ele>
        <time>2021-01-01T12:27:12Z</time>
      </trkpt>
      <trkpt lat="43.5247" lon="3.87258">
        <ele>1</ele>
        <time>2021-01-01T12:27:13Z</time>
      </trkpt>
      <trkpt lat="43.52475" lon="3.8726">
        <ele>1</ele>
        <time>2021-01-01T12:27:14Z</time>
      </trkpt>
      <trkpt lat="43.52481" lon="3.87261">
        <ele>1</ele>
        <time>2021-01-01T12:27:15Z</time>
      </trkpt>
      <trkpt lat="43.52486" lon="3.87261">
        <ele>1</ele>
        <time>2021-01-01T12:27:16Z</time>
      </trkpt>
      <trkpt lat="43.52492" lon="3.87262">
        <ele>1</ele>
        <time>2021-01-01T12:27:17Z</time>
      </trkpt>
      <trkpt lat="43.52496" lon="3.87263">
        <ele>1</ele>
        <time>2021-01-01T12:27:18Z</time>
      </trkpt>
      <trkpt lat="43.52503" lon="3.87265">
        <ele>1</ele>
        <time>2021-01-01T12:27:19Z</time>
      </trkpt>
      <trkpt lat="43.52509" lon="3.87267">
        <ele>1</ele>
        <time>2021-01-01T12:27:20Z</time>
      </trkpt>
      <trkpt lat="43.52514" lon="3.87269">
        <ele>1</ele>
        <time>2021-01-01T12:27:21Z</time>
      </trkpt>
      <trkpt lat="43.5252" lon="3.87271">
        <ele>1</ele>
        <time>2021-01-01T12:27:22Z</time>
      </trkpt>
      <trkpt lat="43.52527" lon="3.87271">
        <ele>1</ele>
        <time>2021-01-01T12:27:23Z</time>
      </trkpt>
      <trkpt lat="43.52533" lon="3.87269">
        <ele>-1</ele>
        <time>2021-01-01T12:27:24Z</time>
      </trkpt>
      <trkpt lat="43.52538" lon="3.87266">
        <ele>-1</ele>
        <time>2021-01-01T12:27:25Z</time>
      </trkpt>
      <trkpt lat="43.52543" lon="3.87263">
        <ele>-1</ele>
        <time>2021-01-01T12:27:26Z</time>
      </trkpt>
      <trkpt lat="43.52549" lon="3.87261">
        <ele>-1</ele>
        <time>2021-01-01T12:27:27Z</time>
      </trkpt>
      <trkpt lat="43.52556" lon="3.8726">
        <ele>-1</ele>
        <time>2021-01-01T12:27:28Z</time>
      </trkpt>
      <trkpt lat="43.52561" lon="3.87261">
        <ele>-1</ele>
        <time>2021-01-01T12:27:29Z</time>
      </trkpt>
      <trkpt lat="43.52567" lon="3.87263">
        <ele>-2</ele>
        <time>2021-01-01T12:27:30Z</time>
      </trkpt>
      <trkpt lat="43.52573" lon="3.87264">
        <ele>-2</ele>
        <time>2021-01-01T12:27:31Z</time>
      </trkpt>
      <trkpt lat="43.52579" lon="3.87264">
        <ele>-2</ele>
        <time>2021-01-01T12:27:32Z</time>
      </trkpt>
      <trkpt lat="43.52586" lon="3.87264">
        <ele>-2</ele>
        <time>2021-01-01T12:27:33Z</time>
      </trkpt>
      <trkpt lat="43.52591" lon="3.87265">
        <ele>-2</ele>
        <time>2021-01-01T12:27:34Z</time>
      </trkpt>
      <trkpt lat="43.52598" lon="3.87266">
        <ele>-3</ele>
        <time>2021-01-01T12:27:35Z</time>
      </trkpt>
      <trkpt lat="43.52604" lon="3.87266">
        <ele>-3</ele>
        <time>2021-01-01T12:27:36Z</time>
      </trkpt>
      <trkpt lat="43.52609" lon="3.87265">
        <ele>-1</ele>
        <time>2021-01-01T12:27:37Z</time>
      </trkpt>
      <trkpt lat="43.52616" lon="3.87265">
        <ele>1</ele>
        <time>2021-01-01T12:27:38Z</time>
      </trkpt>
      <trkpt lat="43.52622" lon="3.87265">
        <ele>1</ele>
        <time>2021-01-01T12:27:39Z</time>
      </trkpt>
      <trkpt lat="43.52628" lon="3.87265">
        <ele>1</ele>
        <time>2021-01-01T12:27:40Z</time>
      </trkpt>
      <trkpt lat="43.52635" lon="3.87265">
        <ele>2</ele>
        <time>2021-01-01T12:27:41Z</time>
      </trkpt>
      <trkpt lat="43.52641" lon="3.87264">
        <ele>1</ele>
        <time>2021-01-01T12:27:42Z</time>
      </trkpt>
      <trkpt lat="43.52647" lon="3.87264">
        <ele>1</ele>
        <time>2021-01-01T12:27:43Z</time>
      </trkpt>
      <trkpt lat="43.52652" lon="3.87265">
        <ele>1</ele>
        <time>2021-01-01T12:27:44Z</time>
      </trkpt>
      <trkpt lat="43.52659" lon="3.87265">
        <ele>1</ele>
        <time>2021-01-01T12:27:45Z</time>
      </trkpt>
      <trkpt lat="43.52665" lon="3.87266">
        <ele>-1</ele>
        <time>2021-01-01T12:27:46Z</time>
      </trkpt>
      <trkpt lat="43.5267" lon="3.87266">
        <ele>-1</ele>
        <time>2021-01-01T12:27:47Z</time>
      </trkpt>
      <trkpt lat="43.52676" lon="3.87266">
        <ele>-1</ele>
        <time>2021-01-01T12:27:48Z</time>
      </trkpt>
      <trkpt lat="43.52682" lon="3.87265">
        <ele>-1</ele>
        <time>2021-01-01T12:27:49Z</time>
      </trkpt>
      <trkpt lat="43.52688" lon="3.87264">
        <ele>-1</ele>
        <time>2021-01-01T12:27:50Z</time>
      </trkpt>
      <trkpt lat="43.52692" lon="3.87265">
        <ele>-2</ele>
        <time>2021-01-01T12:27:51Z</time>
      </trkpt>
      <trkpt lat="43.52699" lon="3.87264">
        <ele>-2</ele>
        <time>2021-01-01T12:27:52Z</time>
      </trkpt>
      <trkpt lat="43.52705" lon="3.87264">
        <ele>-2</ele>
        <time>2021-01-01T12:27:53Z</time>
      </trkpt>
      <trkpt lat="43.5271" lon="3.87262">
        <ele>-3</ele>
        <time>2021-01-01T12:27:54Z</time>
      </trkpt>
      <trkpt lat="43.52716" lon="3.87261">
        <ele>-3</ele>
        <time>2021-01-01T12:27:55Z</time>
      </trkpt>
      <trkpt lat="43.52722" lon="3.8726">
        <ele>-3</ele>
        <time>2021-01-01T12:27:56Z</time>
      </trkpt>
      <trkpt lat="43.52728" lon="3.87257">
        <ele>-4</ele>
        <time>2021-01-01T12:27:57Z</time>
      </trkpt>
      <trkpt lat="43.52734" lon="3.87256">
        <ele>-4</ele>
        <time>2021-01-01T12:27:58Z</time>
      </trkpt>
      <trkpt lat="43.52739" lon="3.87255">
        <ele>-4</ele>
        <time>2021-01-01T12:27:59Z</time>
      </trkpt>
      <trkpt lat="43.52747" lon="3.87258">
        <ele>-4</ele>
        <time>2021-01-01T12:28:01Z</time>
      </trkpt>
      <trkpt lat="43.52752" lon="3.87264">
        <ele>-4</ele>
        <time>2021-01-01T12:28:03Z</time>
      </trkpt>
      <trkpt lat="43.52757" lon="3.87269">
        <ele>-3</ele>
        <time>2021-01-01T12:28:06Z</time>
      </trkpt>
      <trkpt lat="43.52761" lon="3.87272">
        <ele>-3</ele>
        <time>2021-01-01T12:28:09Z</time>
      </trkpt>
      <trkpt lat="43.52766" lon="3.8728">
        <ele>-2</ele>
        <time>2021-01-01T12:28:12Z</time>
      </trkpt>
      <trkpt lat="43.52774" lon="3.87291">
        <ele>-2</ele>
        <time>2021-01-01T12:28:13Z</time>
      </trkpt>
      <trkpt lat="43.52777" lon="3.87296">
        <ele>-1</ele>
        <time>2021-01-01T12:28:14Z</time>
      </trkpt>
      <trkpt lat="43.5278" lon="3.87301">
        <ele>1</ele>
        <time>2021-01-01T12:28:15Z</time>
      </trkpt>
      <trkpt lat="43.52784" lon="3.87306">
        <ele>1</ele>
        <time>2021-01-01T12:28:16Z</time>
      </trkpt>
      <trkpt lat="43.52788" lon="3.87309">
        <ele>1</ele>
        <time>2021-01-01T12:28:17Z</time>
      </trkpt>
      <trkpt lat="43.52792" lon="3.87314">
        <ele>1</ele>
        <time>2021-01-01T12:28:18Z</time>
      </trkpt>
      <trkpt lat="43.52795" lon="3.87318">
        <ele>1</ele>
        <time>2021-01-01T12:28:19Z</time>
      </trkpt>
      <trkpt lat="43.52798" lon="3.87324">
        <ele>1</ele>
        <time>2021-01-01T12:28:20Z</time>
      </trkpt>
      <trkpt lat="43.52801" lon="3.8733">
        <ele>1</ele>
        <time>2021-01-01T12:28:21Z</time>
      </trkpt>
      <trkpt lat="43.52804" lon="3.87334">
        <ele>1</ele>
        <time>2021-01-01T12:28:22Z</time>
      </trkpt>
      <trkpt lat="43.52811" lon="3.87341">
        <ele>1</ele>
        <time>2021-01-01T12:28:24Z</time>
      </trkpt>
      <trkpt lat="43.52818" lon="3.87344">
        <ele>1</ele>
        <time>2021-01-01T12:28:26Z</time>
      </trkpt>
      <trkpt lat="43.52826" lon="3.87345">
        <ele>1</ele>
        <time>2021-01-01T12:28:28Z</time>
      </trkpt>
      <trkpt lat="43.52833" lon="3.87345">
        <ele>1</ele>
        <time>2021-01-01T12:28:30Z</time>
      </trkpt>
      <trkpt lat="43.52839" lon="3.87346">
        <ele>1</ele>
        <time>2021-01-01T12:28:33Z</time>
      </trkpt>
      <trkpt lat="43.5285" lon="3.8735">
        <ele>1</ele>
        <time>2021-01-01T12:28:35Z</time>
      </trkpt>
      <trkpt lat="43.52855" lon="3.87347">
        <ele>1</ele>
        <time>2021-01-01T12:28:37Z</time>
      </trkpt>
      <trkpt lat="43.5286" lon="3.87342">
        <ele>1</ele>
        <time>2021-01-01T12:28:39Z</time>
      </trkpt>
      <trkpt lat="43.52868" lon="3.87341">
        <ele>1</ele>
        <time>2021-01-01T12:28:41Z</time>
      </trkpt>
      <trkpt lat="43.52874" lon="3.87336">
        <ele>1</ele>
        <time>2021-01-01T12:28:43Z</time>
      </trkpt>
      <trkpt lat="43.52878" lon="3.87332">
        <ele>1</ele>
        <time>2021-01-01T12:28:46Z</time>
      </trkpt>
      <trkpt lat="43.52884" lon="3.87329">
        <ele>1</ele>
        <time>2021-01-01T12:28:47Z</time>
      </trkpt>
      <trkpt lat="43.52892" lon="3.87329">
        <ele>1</ele>
        <time>2021-01-01T12:28:48Z</time>
      </trkpt>
      <trkpt lat="43.52896" lon="3.87326">
        <ele>1</ele>
        <time>2021-01-01T12:28:49Z</time>
      </trkpt>
      <trkpt lat="43.52904" lon="3.87322">
        <ele>1</ele>
        <time>2021-01-01T12:28:51Z</time>
      </trkpt>
      <trkpt lat="43.52912" lon="3.87317">
        <ele>2</ele>
        <time>2021-01-01T12:28:53Z</time>
      </trkpt>
      <trkpt lat="43.52921" lon="3.87314">
        <ele>2</ele>
        <time>2021-01-01T12:28:55Z</time>
      </trkpt>
      <trkpt lat="43.52925" lon="3.87313">
        <ele>2</ele>
        <time>2021-01-01T12:28:56Z</time>
      </trkpt>
      <trkpt lat="43.5293" lon="3.87311">
        <ele>2</ele>
        <time>2021-01-01T12:28:57Z</time>
      </trkpt>
      <trkpt lat="43.52934" lon="3.87309">
        <ele>2</ele>
        <time>2021-01-01T12:28:58Z</time>
      </trkpt>
      <trkpt lat="43.52942" lon="3.87306">
        <ele>2</ele>
        <time>2021-01-01T12:29:00Z</time>
      </trkpt>
      <trkpt lat="43.52951" lon="3.87303">
        <ele>2</ele>
        <time>2021-01-01T12:29:02Z</time>
      </trkpt>
      <trkpt lat="43.52955" lon="3.87302">
        <ele>2</ele>
        <time>2021-01-01T12:29:03Z</time>
      </trkpt>
      <trkpt lat="43.52964" lon="3.87299">
        <ele>2</ele>
        <time>2021-01-01T12:29:05Z</time>
      </trkpt>
      <trkpt lat="43.52969" lon="3.87298">
        <ele>2</ele>
        <time>2021-01-01T12:29:06Z</time>
      </trkpt>
      <trkpt lat="43.52977" lon="3.87294">
        <ele>2</ele>
        <time>2021-01-01T12:29:08Z</time>
      </trkpt>
      <trkpt lat="43.52987" lon="3.8729">
        <ele>2</ele>
        <time>2021-01-01T12:29:10Z</time>
      </trkpt>
      <trkpt lat="43.52992" lon="3.87289">
        <ele>2</ele>
        <time>2021-01-01T12:29:11Z</time>
      </trkpt>
      <trkpt lat="43.52996" lon="3.87286">
        <ele>2</ele>
        <time>2021-01-01T12:29:12Z</time>
      </trkpt>
      <trkpt lat="43.53002" lon="3.87284">
        <ele>2</ele>
        <time>2021-01-01T12:29:13Z</time>
      </trkpt>
      <trkpt lat="43.53007" lon="3.87283">
        <ele>2</ele>
        <time>2021-01-01T12:29:14Z</time>
      </trkpt>
      <trkpt lat="43.53012" lon="3.87281">
        <ele>2</ele>
        <time>2021-01-01T12:29:15Z</time>
      </trkpt>
      <trkpt lat="43.53017" lon="3.87278">
        <ele>2</ele>
        <time>2021-01-01T12:29:16Z</time>
      </trkpt>
      <trkpt lat="43.53022" lon="3.87276">
        <ele>2</ele>
        <time>2021-01-01T12:29:17Z</time>
      </trkpt>
      <trkpt lat="43.53027" lon="3.87275">
        <ele>2</ele>
        <time>2021-01-01T12:29:18Z</time>
      </trkpt>
      <trkpt lat="43.53032" lon="3.87271">
        <ele>2</ele>
        <time>2021-01-01T12:29:19Z</time>
      </trkpt>
      <trkpt lat="43.53035" lon="3.87267">
        <ele>2</ele>
        <time>2021-01-01T12:29:20Z</time>
      </trkpt>
      <trkpt lat="43.5304" lon="3.87263">
        <ele>2</ele>
        <time>2021-01-01T12:29:21Z</time>
      </trkpt>
      <trkpt lat="43.53044" lon="3.87259">
        <ele>2</ele>
        <time>2021-01-01T12:29:22Z</time>
      </trkpt>
      <trkpt lat="43.53048" lon="3.87254">
        <ele>2</ele>
        <time>2021-01-01T12:29:23Z</time>
      </trkpt>
      <trkpt lat="43.53052" lon="3.87251">
        <ele>2</ele>
        <time>2021-01-01T12:29:24Z</time>
      </trkpt>
      <trkpt lat="43.53057" lon="3.87249">
        <ele>2</ele>
        <time>2021-01-01T12:29:25Z</time>
      </trkpt>
      <trkpt lat="43.53064" lon="3.87251">
        <ele>2</ele>
        <time>2021-01-01T12:29:27Z</time>
      </trkpt>
      <trkpt lat="43.53071" lon="3.87251">
        <ele>2</ele>
        <time>2021-01-01T12:29:29Z</time>
      </trkpt>
      <trkpt lat="43.53078" lon="3.87251">
        <ele>3</ele>
        <time>2021-01-01T12:29:31Z</time>
      </trkpt>
      <trkpt lat="43.53084" lon="3.8725">
        <ele>3</ele>
        <time>2021-01-01T12:29:33Z</time>
      </trkpt>
      <trkpt lat="43.5309" lon="3.8725">
        <ele>3</ele>
        <time>2021-01-01T12:29:35Z</time>
      </trkpt>
      <trkpt lat="43.53096" lon="3.87249">
        <ele>4</ele>
        <time>2021-01-01T12:29:37Z</time>
      </trkpt>
      <trkpt lat="43.53103" lon="3.87249">
        <ele>4</ele>
        <time>2021-01-01T12:29:39Z</time>
      </trkpt>
      <trkpt lat="43.5311" lon="3.87248">
        <ele>5</ele>
        <time>2021-01-01T12:29:41Z</time>
      </trkpt>
      <trkpt lat="43.53117" lon="3.87248">
        <ele>5</ele>
        <time>2021-01-01T12:29:43Z</time>
      </trkpt>
      <trkpt lat="43.53123" lon="3.87245">
        <ele>5</ele>
        <time>2021-01-01T12:29:45Z</time>
      </trkpt>
      <trkpt lat="43.5313" lon="3.87243">
        <ele>6</ele>
        <time>2021-01-01T12:29:47Z</time>
      </trkpt>
      <trkpt lat="43.53138" lon="3.87238">
        <ele>6</ele>
        <time>2021-01-01T12:29:49Z</time>
      </trkpt>
      <trkpt lat="43.53146" lon="3.87232">
        <ele>6</ele>
        <time>2021-01-01T12:29:51Z</time>
      </trkpt>
      <trkpt lat="43.53153" lon="3.87225">
        <ele>6</ele>
        <time>2021-01-01T12:29:53Z</time>
      </trkpt>
      <trkpt lat="43.53159" lon="3.87219">
        <ele>6</ele>
        <time>2021-01-01T12:29:55Z</time>
      </trkpt>
      <trkpt lat="43.53165" lon="3.87213">
        <ele>6</ele>
        <time>2021-01-01T12:29:57Z</time>
      </trkpt>
      <trkpt lat="43.53169" lon="3.87209">
        <ele>6</ele>
        <time>2021-01-01T12:29:58Z</time>
      </trkpt>
      <trkpt lat="43.53173" lon="3.87206">
        <ele>6</ele>
        <time>2021-01-01T12:29:59Z</time>
      </trkpt>
      <trkpt lat="43.53178" lon="3.87203">
        <ele>6</ele>
        <time>2021-01-01T12:30:00Z</time>
      </trkpt>
      <trkpt lat="43.53182" lon="3.872">
        <ele>6</ele>
        <time>2021-01-01T12:30:01Z</time>
      </trkpt>
      <trkpt lat="43.53186" lon="3.87197">
        <ele>6</ele>
        <time>2021-01-01T12:30:02Z</time>
      </trkpt>
      <trkpt lat="43.5319" lon="3.87194">
        <ele>6</ele>
        <time>2021-01-01T12:30:03Z</time>
      </trkpt>
      <trkpt lat="43.53195" lon="3.87191">
        <ele>6</ele>
        <time>2021-01-01T12:30:04Z</time>
      </trkpt>
      <trkpt lat="43.53199" lon="3.87189">
        <ele>6</ele>
        <time>2021-01-01T12:30:05Z</time>
      </trkpt>
      <trkpt lat="43.53204" lon="3.87186">
        <ele>5</ele>
        <time>2021-01-01T12:30:06Z</time>
      </trkpt>
      <trkpt lat="43.53208" lon="3.87183">
        <ele>5</ele>
        <time>2021-01-01T12:30:07Z</time>
      </trkpt>
      <trkpt lat="43.53214" lon="3.87181">
        <ele>5</ele>
        <time>2021-01-01T12:30:08Z</time>
      </trkpt>
      <trkpt lat="43.53219" lon="3.87178">
        <ele>5</ele>
        <time>2021-01-01T12:30:09Z</time>
      </trkpt>
      <trkpt lat="43.53224" lon="3.87176">
        <ele>4</ele>
        <time>2021-01-01T12:30:10Z</time>
      </trkpt>
      <trkpt lat="43.53229" lon="3.87172">
        <ele>4</ele>
        <time>2021-01-01T12:30:11Z</time>
      </trkpt>
      <trkpt lat="43.53235" lon="3.87169">
        <ele>4</ele>
        <time>2021-01-01T12:30:12Z</time>
      </trkpt>
      <trkpt lat="43.53241" lon="3.87167">
        <ele>4</ele>
        <time>2021-01-01T12:30:13Z</time>
      </trkpt>
      <trkpt lat="43.53246" lon="3.87164">
        <ele>3</ele>
        <time>2021-01-01T12:30:14Z</time>
      </trkpt>
      <trkpt lat="43.53251" lon="3.87161">
        <ele>3</ele>
        <time>2021-01-01T12:30:15Z</time>
      </trkpt>
      <trkpt lat="43.53257" lon="3.87159">
        <ele>3</ele>
        <time>2021-01-01T12:30:16Z</time>
      </trkpt>
      <trkpt lat="43.53264" lon="3.87156">
        <ele>3</ele>
        <time>2021-01-01T12:30:17Z</time>
      </trkpt>
      <trkpt lat="43.5327" lon="3.87154">
        <ele>3</ele>
        <time>2021-01-01T12:30:18Z</time>
      </trkpt>
      <trkpt lat="43.53276" lon="3.87152">
        <ele>3</ele>
        <time>2021-01-01T12:30:19Z</time>
      </trkpt>
      <trkpt lat="43.53282" lon="3.8715">
        <ele>3</ele>
        <time>2021-01-01T12:30:20Z</time>
      </trkpt>
      <trkpt lat="43.53289" lon="3.87148">
        <ele>3</ele>
        <time>2021-01-01T12:30:21Z</time>
      </trkpt>
      <trkpt lat="43.53294" lon="3.87147">
        <ele>4</ele>
        <time>2021-01-01T12:30:22Z</time>
      </trkpt>
      <trkpt lat="43.533" lon="3.87145">
        <ele>4</ele>
        <time>2021-01-01T12:30:23Z</time>
      </trkpt>
      <trkpt lat="43.53305" lon="3.87144">
        <ele>3</ele>
        <time>2021-01-01T12:30:24Z</time>
      </trkpt>
      <trkpt lat="43.53312" lon="3.87142">
        <ele>3</ele>
        <time>2021-01-01T12:30:25Z</time>
      </trkpt>
      <trkpt lat="43.53318" lon="3.8714">
        <ele>3</ele>
        <time>2021-01-01T12:30:26Z</time>
      </trkpt>
      <trkpt lat="43.53323" lon="3.87138">
        <ele>3</ele>
        <time>2021-01-01T12:30:27Z</time>
      </trkpt>
      <trkpt lat="43.5333" lon="3.87136">
        <ele>3</ele>
        <time>2021-01-01T12:30:28Z</time>
      </trkpt>
      <trkpt lat="43.53336" lon="3.87135">
        <ele>3</ele>
        <time>2021-01-01T12:30:29Z</time>
      </trkpt>
      <trkpt lat="43.53342" lon="3.87133">
        <ele>2</ele>
        <time>2021-01-01T12:30:30Z</time>
      </trkpt>
      <trkpt lat="43.53349" lon="3.8713">
        <ele>2</ele>
        <time>2021-01-01T12:30:31Z</time>
      </trkpt>
      <trkpt lat="43.53355" lon="3.87127">
        <ele>2</ele>
        <time>2021-01-01T12:30:32Z</time>
      </trkpt>
      <trkpt lat="43.53362" lon="3.87124">
        <ele>2</ele>
        <time>2021-01-01T12:30:33Z</time>
      </trkpt>
      <trkpt lat="43.53368" lon="3.87121">
        <ele>2</ele>
        <time>2021-01-01T12:30:34Z</time>
      </trkpt>
      <trkpt lat="43.53375" lon="3.87118">
        <ele>3</ele>
        <time>2021-01-01T12:30:35Z</time>
      </trkpt>
      <trkpt lat="43.53382" lon="3.87116">
        <ele>3</ele>
        <time>2021-01-01T12:30:36Z</time>
      </trkpt>
      <trkpt lat="43.53388" lon="3.87115">
        <ele>3</ele>
        <time>2021-01-01T12:30:37Z</time>
      </trkpt>
      <trkpt lat="43.53394" lon="3.87113">
        <ele>4</ele>
        <time>2021-01-01T12:30:38Z</time>
      </trkpt>
      <trkpt lat="43.53402" lon="3.87111">
        <ele>4</ele>
        <time>2021-01-01T12:30:39Z</time>
      </trkpt>
      <trkpt lat="43.53407" lon="3.87109">
        <ele>4</ele>
        <time>2021-01-01T12:30:40Z</time>
      </trkpt>
      <trkpt lat="43.53415" lon="3.87107">
        <ele>3</ele>
        <time>2021-01-01T12:30:41Z</time>
      </trkpt>
      <trkpt lat="43.53421" lon="3.87105">
        <ele>3</ele>
        <time>2021-01-01T12:30:42Z</time>
      </trkpt>
      <trkpt lat="43.53428" lon="3.87102">
        <ele>3</ele>
        <time>2021-01-01T12:30:43Z</time>
      </trkpt>
      <trkpt lat="43.53434" lon="3.871">
        <ele>2</ele>
        <time>2021-01-01T12:30:44Z</time>
      </trkpt>
      <trkpt lat="43.5344" lon="3.87097">
        <ele>2</ele>
        <time>2021-01-01T12:30:45Z</time>
      </trkpt>
      <trkpt lat="43.53445" lon="3.87094">
        <ele>2</ele>
        <time>2021-01-01T12:30:46Z</time>
      </trkpt>
      <trkpt lat="43.53452" lon="3.87091">
        <ele>2</ele>
        <time>2021-01-01T12:30:47Z</time>
      </trkpt>
      <trkpt lat="43.53458" lon="3.87088">
        <ele>2</ele>
        <time>2021-01-01T12:30:48Z</time>
      </trkpt>
      <trkpt lat="43.53463" lon="3.87086">
        <ele>2</ele>
        <time>2021-01-01T12:30:49Z</time>
      </trkpt>
      <trkpt lat="43.5347" lon="3.87084">
        <ele>2</ele>
        <time>2021-01-01T12:30:50Z</time>
      </trkpt>
      <trkpt lat="43.53476" lon="3.87081">
        <ele>1</ele>
        <time>2021-01-01T12:30:51Z</time>
      </trkpt>
      <trkpt lat="43.53482" lon="3.8708">
        <ele>1</ele>
        <time>2021-01-01T12:30:52Z</time>
      </trkpt>
      <trkpt lat="43.53487" lon="3.87078">
        <ele>1</ele>
        <time>2021-01-01T12:30:53Z</time>
      </trkpt>
      <trkpt lat="43.53494" lon="3.87075">
        <ele>1</ele>
        <time>2021-01-01T12:30:54Z</time>
      </trkpt>
      <trkpt lat="43.535" lon="3.87073">
        <ele>2</ele>
        <time>2021-01-01T12:30:55Z</time>
      </trkpt>
      <trkpt lat="43.53506" lon="3.87071">
        <ele>1.9</ele>
        <time>2021-01-01T12:30:56Z</time>
      </trkpt>
      <trkpt lat="43.53511" lon="3.87069">
        <ele>1.8</ele>
        <time>2021-01-01T12:30:57Z</time>
      </trkpt>
      <trkpt lat="43.53518" lon="3.87067">
        <ele>1.7</ele>
        <time>2021-01-01T12:30:58Z</time>
      </trkpt>
      <trkpt lat="43.53523" lon="3.87064">
        <ele>1.7</ele>
        <time>2021-01-01T12:30:59Z</time>
      </trkpt>
      <trkpt lat="43.5353" lon="3.87062">
        <ele>1.8</ele>
        <time>2021-01-01T12:31:00Z</time>
      </trkpt>
      <trkpt lat="43.53536" lon="3.87061">
        <ele>1.9</ele>
        <time>2021-01-01T12:31:01Z</time>
      </trkpt>
      <trkpt lat="43.53542" lon="3.87059">
        <ele>1.9</ele>
        <time>2021-01-01T12:31:02Z</time>
      </trkpt>
      <trkpt lat="43.53548" lon="3.87057">
        <ele>2</ele>
        <time>2021-01-01T12:31:03Z</time>
      </trkpt>
      <trkpt lat="43.53554" lon="3.87055">
        <ele>2</ele>
        <time>2021-01-01T12:31:04Z</time>
      </trkpt>
      <trkpt lat="43.5356" lon="3.87054">
        <ele>2</ele>
        <time>2021-01-01T12:31:05Z</time>
      </trkpt>
      <trkpt lat="43.53566" lon="3.87052">
        <ele>2</ele>
        <time>2021-01-01T12:31:06Z</time>
      </trkpt>
      <trkpt lat="43.53574" lon="3.8705">
        <ele>2</ele>
        <time>2021-01-01T12:31:07Z</time>
      </trkpt>
      <trkpt lat="43.5358" lon="3.87047">
        <ele>2</ele>
        <time>2021-01-01T12:31:08Z</time>
      </trkpt>
      <trkpt lat="43.53585" lon="3.87044">
        <ele>2</ele>
        <time>2021-01-01T12:31:09Z</time>
      </trkpt>
      <trkpt lat="43.53591" lon="3.87042">
        <ele>2</ele>
        <time>2021-01-01T12:31:10Z</time>
      </trkpt>
      <trkpt lat="43.53598" lon="3.87041">
        <ele>2</ele>
        <time>2021-01-01T12:31:11Z</time>
      </trkpt>
      <trkpt lat="43.53603" lon="3.87038">
        <ele>2</ele>
        <time>2021-01-01T12:31:12Z</time>
      </trkpt>
      <trkpt lat="43.53609" lon="3.87036">
        <ele>2</ele>
        <time>2021-01-01T12:31:13Z</time>
      </trkpt>
      <trkpt lat="43.53616" lon="3.87035">
        <ele>1</ele>
        <time>2021-01-01T12:31:14Z</time>
      </trkpt>
      <trkpt lat="43.53622" lon="3.87034">
        <ele>1</ele>
        <time>2021-01-01T12:31:15Z</time>
      </trkpt>
      <trkpt lat="43.53628" lon="3.87033">
        <ele>1</ele>
        <time>2021-01-01T12:31:16Z</time>
      </trkpt>
      <trkpt lat="43.53635" lon="3.87032">
        <ele>1</ele>
        <time>2021-01-01T12:31:17Z</time>
      </trkpt>
      <trkpt lat="43.53642" lon="3.8703">
        <ele>2</ele>
        <time>2021-01-01T12:31:18Z</time>
      </trkpt>
      <trkpt lat="43.53648" lon="3.87029">
        <ele>2</ele>
        <time>2021-01-01T12:31:19Z</time>
      </trkpt>
      <trkpt lat="43.53655" lon="3.87028">
        <ele>2</ele>
        <time>2021-01-01T12:31:20Z</time>
      </trkpt>
      <trkpt lat="43.53661" lon="3.87028">
        <ele>3</ele>
        <time>2021-01-01T12:31:21Z</time>
      </trkpt>
      <trkpt lat="43.53667" lon="3.87027">
        <ele>3</ele>
        <time>2021-01-01T12:31:22Z</time>
      </trkpt>
      <trkpt lat="43.53672" lon="3.87026">
        <ele>3</ele>
        <time>2021-01-01T12:31:23Z</time>
      </trkpt>
      <trkpt lat="43.53678" lon="3.87024">
        <ele>3</ele>
        <time>2021-01-01T12:31:24Z</time>
      </trkpt>
      <trkpt lat="43.53684" lon="3.87021">
        <ele>3</ele>
        <time>2021-01-01T12:31:25Z</time>
      </trkpt>
      <trkpt lat="43.53689" lon="3.8702">
        <ele>3</ele>
        <time>2021-01-01T12:31:26Z</time>
      </trkpt>
      <trkpt lat="43.53695" lon="3.87017">
        <ele>3</ele>
        <time>2021-01-01T12:31:27Z</time>
      </trkpt>
      <trkpt lat="43.537" lon="3.87016">
        <ele>3</ele>
        <time>2021-01-01T12:31:28Z</time>
      </trkpt>
      <trkpt lat="43.53705" lon="3.87014">
        <ele>3</ele>
        <time>2021-01-01T12:31:29Z</time>
      </trkpt>
      <trkpt lat="43.5371" lon="3.87012">
        <ele>3</ele>
        <time>2021-01-01T12:31:30Z</time>
      </trkpt>
      <trkpt lat="43.53715" lon="3.87009">
        <ele>3</ele>
        <time>2021-01-01T12:31:31Z</time>
      </trkpt>
      <trkpt lat="43.5372" lon="3.87006">
        <ele>4</ele>
        <time>2021-01-01T12:31:32Z</time>
      </trkpt>
      <trkpt lat="43.53725" lon="3.87004">
        <ele>4</ele>
        <time>2021-01-01T12:31:33Z</time>
      </trkpt>
      <trkpt lat="43.53729" lon="3.87001">
        <ele>5</ele>
        <time>2021-01-01T12:31:34Z</time>
      </trkpt>
      <trkpt lat="43.53733" lon="3.86999">
        <ele>5</ele>
        <time>2021-01-01T12:31:35Z</time>
      </trkpt>
      <trkpt lat="43.53739" lon="3.86997">
        <ele>5</ele>
        <time>2021-01-01T12:31:36Z</time>
      </trkpt>
      <trkpt lat="43.53743" lon="3.86995">
        <ele>6</ele>
        <time>2021-01-01T12:31:37Z</time>
      </trkpt>
      <trkpt lat="43.53748" lon="3.86992">
        <ele>6</ele>
        <time>2021-01-01T12:31:38Z</time>
      </trkpt>
      <trkpt lat="43.53752" lon="3.86989">
        <ele>5</ele>
        <time>2021-01-01T12:31:39Z</time>
      </trkpt>
      <trkpt lat="43.5376" lon="3.86987">
        <ele>5</ele>
        <time>2021-01-01T12:31:41Z</time>
      </trkpt>
      <trkpt lat="43.53768" lon="3.86983">
        <ele>4</ele>
        <time>2021-01-01T12:31:43Z</time>
      </trkpt>
      <trkpt lat="43.53772" lon="3.8698">
        <ele>4</ele>
        <time>2021-01-01T12:31:44Z</time>
      </trkpt>
      <trkpt lat="43.53779" lon="3.86974">
        <ele>4</ele>
        <time>2021-01-01T12:31:46Z</time>
      </trkpt>
      <trkpt lat="43.53785" lon="3.8697">
        <ele>3</ele>
        <time>2021-01-01T12:31:48Z</time>
      </trkpt>
      <trkpt lat="43.5379" lon="3.86963">
        <ele>4</ele>
        <time>2021-01-01T12:31:50Z</time>
      </trkpt>
      <trkpt lat="43.53794" lon="3.86953">
        <ele>4</ele>
        <time>2021-01-01T12:31:52Z</time>
      </trkpt>
      <trkpt lat="43.53801" lon="3.86948">
        <ele>4</ele>
        <time>2021-01-01T12:31:54Z</time>
      </trkpt>
      <trkpt lat="43.53809" lon="3.86946">
        <ele>4</ele>
        <time>2021-01-01T12:31:56Z</time>
      </trkpt>
      <trkpt lat="43.53814" lon="3.86943">
        <ele>4</ele>
        <time>2021-01-01T12:31:57Z</time>
      </trkpt>
      <trkpt lat="43.53821" lon="3.86938">
        <ele>4</ele>
        <time>2021-01-01T12:31:59Z</time>
      </trkpt>
      <trkpt lat="43.53828" lon="3.86932">
        <ele>4</ele>
        <time>2021-01-01T12:32:01Z</time>
      </trkpt>
      <trkpt lat="43.53832" lon="3.86925">
        <ele>4</ele>
        <time>2021-01-01T12:32:03Z</time>
      </trkpt>
      <trkpt lat="43.53834" lon="3.86918">
        <ele>4</ele>
        <time>2021-01-01T12:32:05Z</time>
      </trkpt>
      <trkpt lat="43.53838" lon="3.86912">
        <ele>4</ele>
        <time>2021-01-01T12:32:08Z</time>
      </trkpt>
      <trkpt lat="43.53843" lon="3.86911">
        <ele>4</ele>
        <time>2021-01-01T12:32:10Z</time>
      </trkpt>
      <trkpt lat="43.53849" lon="3.86911">
        <ele>4</ele>
        <time>2021-01-01T12:32:12Z</time>
      </trkpt>
      <trkpt lat="43.53854" lon="3.86914">
        <ele>4</ele>
        <time>2021-01-01T12:32:15Z</time>
      </trkpt>
      <trkpt lat="43.53858" lon="3.8692">
        <ele>4</ele>
        <time>2021-01-01T12:32:17Z</time>
      </trkpt>
      <trkpt lat="43.53862" lon="3.86925">
        <ele>5</ele>
        <time>2021-01-01T12:32:19Z</time>
      </trkpt>
      <trkpt lat="43.53866" lon="3.8693">
        <ele>5</ele>
        <time>2021-01-01T12:32:21Z</time>
      </trkpt>
      <trkpt lat="43.53869" lon="3.86936">
        <ele>5</ele>
        <time>2021-01-01T12:32:23Z</time>
      </trkpt>
      <trkpt lat="43.53875" lon="3.86938">
        <ele>5</ele>
        <time>2021-01-01T12:32:25Z</time>
      </trkpt>
      <trkpt lat="43.53877" lon="3.8693">
        <ele>5</ele>
        <time>2021-01-01T12:32:27Z</time>
      </trkpt>
      <trkpt lat="43.53873" lon="3.8692">
        <ele>5</ele>
        <time>2021-01-01T12:32:29Z</time>
      </trkpt>
      <trkpt lat="43.53867" lon="3.86916">
        <ele>4</ele>
        <time>2021-01-01T12:32:30Z</time>
      </trkpt>
      <trkpt lat="43.53864" lon="3.86907">
        <ele>4</ele>
        <time>2021-01-01T12:32:32Z</time>
      </trkpt>
      <trkpt lat="43.53864" lon="3.86896">
        <ele>4</ele>
        <time>2021-01-01T12:32:34Z</time>
      </trkpt>
      <trkpt lat="43.53869" lon="3.86886">
        <ele>4</ele>
        <time>2021-01-01T12:32:36Z</time>
      </trkpt>
      <trkpt lat="43.53872" lon="3.86881">
        <ele>4</ele>
        <time>2021-01-01T12:32:37Z</time>
      </trkpt>
      <trkpt lat="43.53875" lon="3.86876">
        <ele>4</ele>
        <time>2021-01-01T12:32:38Z</time>
      </trkpt>
      <trkpt lat="43.53878" lon="3.8687">
        <ele>4</ele>
        <time>2021-01-01T12:32:39Z</time>
      </trkpt>
      <trkpt lat="43.53881" lon="3.86865">
        <ele>4</ele>
        <time>2021-01-01T12:32:40Z</time>
      </trkpt>
      <trkpt lat="43.53885" lon="3.86859">
        <ele>4</ele>
        <time>2021-01-01T12:32:41Z</time>
      </trkpt>
      <trkpt lat="43.53887" lon="3.86853">
        <ele>4</ele>
        <time>2021-01-01T12:32:42Z</time>
      </trkpt>
      <trkpt lat="43.5389" lon="3.86848">
        <ele>4</ele>
        <time>2021-01-01T12:32:43Z</time>
      </trkpt>
      <trkpt lat="43.53893" lon="3.86843">
        <ele>4</ele>
        <time>2021-01-01T12:32:44Z</time>
      </trkpt>
      <trkpt lat="43.53895" lon="3.86836">
        <ele>4</ele>
        <time>2021-01-01T12:32:45Z</time>
      </trkpt>
      <trkpt lat="43.53898" lon="3.8683">
        <ele>5</ele>
        <time>2021-01-01T12:32:46Z</time>
      </trkpt>
      <trkpt lat="43.53901" lon="3.86825">
        <ele>5</ele>
        <time>2021-01-01T12:32:47Z</time>
      </trkpt>
      <trkpt lat="43.53904" lon="3.86819">
        <ele>5</ele>
        <time>2021-01-01T12:32:48Z</time>
      </trkpt>
      <trkpt lat="43.53907" lon="3.86813">
        <ele>5</ele>
        <time>2021-01-01T12:32:49Z</time>
      </trkpt>
      <trkpt lat="43.53909" lon="3.86806">
        <ele>5</ele>
        <time>2021-01-01T12:32:50Z</time>
      </trkpt>
      <trkpt lat="43.53911" lon="3.868">
        <ele>5</ele>
        <time>2021-01-01T12:32:51Z</time>
      </trkpt>
      <trkpt lat="43.53913" lon="3.86794">
        <ele>6</ele>
        <time>2021-01-01T12:32:52Z</time>
      </trkpt>
      <trkpt lat="43.53915" lon="3.86787">
        <ele>6</ele>
        <time>2021-01-01T12:32:53Z</time>
      </trkpt>
      <trkpt lat="43.53918" lon="3.86781">
        <ele>6</ele>
        <time>2021-01-01T12:32:54Z</time>
      </trkpt>
      <trkpt lat="43.53921" lon="3.86775">
        <ele>6</ele>
        <time>2021-01-01T12:32:55Z</time>
      </trkpt>
      <trkpt lat="43.53926" lon="3.86762">
        <ele>7</ele>
        <time>2021-01-01T12:32:57Z</time>
      </trkpt>
      <trkpt lat="43.53928" lon="3.86757">
        <ele>7</ele>
        <time>2021-01-01T12:32:58Z</time>
      </trkpt>
      <trkpt lat="43.53931" lon="3.8675">
        <ele>7</ele>
        <time>2021-01-01T12:32:59Z</time>
      </trkpt>
      <trkpt lat="43.53933" lon="3.86743">
        <ele>7</ele>
        <time>2021-01-01T12:33:00Z</time>
      </trkpt>
      <trkpt lat="43.53935" lon="3.86736">
        <ele>7</ele>
        <time>2021-01-01T12:33:01Z</time>
      </trkpt>
      <trkpt lat="43.53937" lon="3.8673">
        <ele>7</ele>
        <time>2021-01-01T12:33:02Z</time>
      </trkpt>
      <trkpt lat="43.53939" lon="3.86723">
        <ele>7</ele>
        <time>2021-01-01T12:33:03Z</time>
      </trkpt>
      <trkpt lat="43.53942" lon="3.86716">
        <ele>8</ele>
        <time>2021-01-01T12:33:04Z</time>
      </trkpt>
      <trkpt lat="43.53945" lon="3.8671">
        <ele>8</ele>
        <time>2021-01-01T12:33:05Z</time>
      </trkpt>
      <trkpt lat="43.53947" lon="3.86703">
        <ele>8</ele>
        <time>2021-01-01T12:33:06Z</time>
      </trkpt>
      <trkpt lat="43.53949" lon="3.86697">
        <ele>8</ele>
        <time>2021-01-01T12:33:07Z</time>
      </trkpt>
      <trkpt lat="43.53951" lon="3.86689">
        <ele>9</ele>
        <time>2021-01-01T12:33:08Z</time>
      </trkpt>
      <trkpt lat="43.53956" lon="3.8668">
        <ele>8</ele>
        <time>2021-01-01T12:33:10Z</time>
      </trkpt>
      <trkpt lat="43.53959" lon="3.86674">
        <ele>8</ele>
        <time>2021-01-01T12:33:11Z</time>
      </trkpt>
      <trkpt lat="43.53962" lon="3.86668">
        <ele>7</ele>
        <time>2021-01-01T12:33:12Z</time>
      </trkpt>
      <trkpt lat="43.53964" lon="3.86662">
        <ele>6</ele>
        <time>2021-01-01T12:33:13Z</time>
      </trkpt>
      <trkpt lat="43.53967" lon="3.86656">
        <ele>6</ele>
        <time>2021-01-01T12:33:14Z</time>
      </trkpt>
      <trkpt lat="43.53973" lon="3.86644">
        <ele>5</ele>
        <time>2021-01-01T12:33:16Z</time>
      </trkpt>
      <trkpt lat="43.53976" lon="3.86639">
        <ele>5</ele>
        <time>2021-01-01T12:33:17Z</time>
      </trkpt>
      <trkpt lat="43.53978" lon="3.86632">
        <ele>4</ele>
        <time>2021-01-01T12:33:18Z</time>
      </trkpt>
      <trkpt lat="43.53978" lon="3.86625">
        <ele>4</ele>
        <time>2021-01-01T12:33:19Z</time>
      </trkpt>
      <trkpt lat="43.53978" lon="3.86617">
        <ele>4</ele>
        <time>2021-01-01T12:33:20Z</time>
      </trkpt>
      <trkpt lat="43.53981" lon="3.8661">
        <ele>4</ele>
        <time>2021-01-01T12:33:22Z</time>
      </trkpt>
      <trkpt lat="43.53986" lon="3.86608">
        <ele>5</ele>
        <time>2021-01-01T12:33:25Z</time>
      </trkpt>
      <trkpt lat="43.53993" lon="3.86608">
        <ele>5</ele>
        <time>2021-01-01T12:33:28Z</time>
      </trkpt>
      <trkpt lat="43.54" lon="3.86611">
        <ele>5</ele>
        <time>2021-01-01T12:33:30Z</time>
      </trkpt>
      <trkpt lat="43.54008" lon="3.86614">
        <ele>5</ele>
        <time>2021-01-01T12:33:32Z</time>
      </trkpt>
      <trkpt lat="43.54015" lon="3.8661">
        <ele>5</ele>
        <time>2021-01-01T12:33:34Z</time>
      </trkpt>
      <trkpt lat="43.54017" lon="3.86601">
        <ele>4</ele>
        <time>2021-01-01T12:33:36Z</time>
      </trkpt>
      <trkpt lat="43.54017" lon="3.86595">
        <ele>4</ele>
        <time>2021-01-01T12:33:37Z</time>
      </trkpt>
      <trkpt lat="43.54016" lon="3.86586">
        <ele>4</ele>
        <time>2021-01-01T12:33:39Z</time>
      </trkpt>
      <trkpt lat="43.54014" lon="3.86576">
        <ele>4</ele>
        <time>2021-01-01T12:33:41Z</time>
      </trkpt>
      <trkpt lat="43.54011" lon="3.86562">
        <ele>4</ele>
        <time>2021-01-01T12:33:43Z</time>
      </trkpt>
      <trkpt lat="43.54009" lon="3.86555">
        <ele>4</ele>
        <time>2021-01-01T12:33:44Z</time>
      </trkpt>
      <trkpt lat="43.54007" lon="3.86548">
        <ele>4</ele>
        <time>2021-01-01T12:33:45Z</time>
      </trkpt>
      <trkpt lat="43.54005" lon="3.86542">
        <ele>4</ele>
        <time>2021-01-01T12:33:46Z</time>
      </trkpt>
      <trkpt lat="43.54004" lon="3.86536">
        <ele>4</ele>
        <time>2021-01-01T12:33:47Z</time>
      </trkpt>
      <trkpt lat="43.54002" lon="3.86531">
        <ele>4</ele>
        <time>2021-01-01T12:33:48Z</time>
      </trkpt>
      <trkpt lat="43.53997" lon="3.86521">
        <ele>4</ele>
        <time>2021-01-01T12:33:50Z</time>
      </trkpt>
      <trkpt lat="43.53996" lon="3.86512">
        <ele>4</ele>
        <time>2021-01-01T12:33:52Z</time>
      </trkpt>
      <trkpt lat="43.53999" lon="3.86505">
        <ele>4</ele>
        <time>2021-01-01T12:33:54Z</time>
      </trkpt>
      <trkpt lat="43.54007" lon="3.86501">
        <ele>4</ele>
        <time>2021-01-01T12:33:56Z</time>
      </trkpt>
      <trkpt lat="43.54014" lon="3.86496">
        <ele>4</ele>
        <time>2021-01-01T12:33:58Z</time>
      </trkpt>
      <trkpt lat="43.54022" lon="3.8649">
        <ele>5</ele>
        <time>2021-01-01T12:34:00Z</time>
      </trkpt>
      <trkpt lat="43.54025" lon="3.86486">
        <ele>5</ele>
        <time>2021-01-01T12:34:01Z</time>
      </trkpt>
      <trkpt lat="43.5403" lon="3.86481">
        <ele>5</ele>
        <time>2021-01-01T12:34:02Z</time>
      </trkpt>
      <trkpt lat="43.54033" lon="3.86476">
        <ele>5</ele>
        <time>2021-01-01T12:34:03Z</time>
      </trkpt>
      <trkpt lat="43.54038" lon="3.86471">
        <ele>5</ele>
        <time>2021-01-01T12:34:04Z</time>
      </trkpt>
      <trkpt lat="43.54042" lon="3.86466">
        <ele>5</ele>
        <time>2021-01-01T12:34:05Z</time>
      </trkpt>
      <trkpt lat="43.54046" lon="3.86462">
        <ele>5</ele>
        <time>2021-01-01T12:34:06Z</time>
      </trkpt>
      <trkpt lat="43.5405" lon="3.86456">
        <ele>5</ele>
        <time>2021-01-01T12:34:07Z</time>
      </trkpt>
      <trkpt lat="43.54055" lon="3.86451">
        <ele>4</ele>
        <time>2021-01-01T12:34:08Z</time>
      </trkpt>
      <trkpt lat="43.5406" lon="3.86447">
        <ele>4</ele>
        <time>2021-01-01T12:34:09Z</time>
      </trkpt>
      <trkpt lat="43.54065" lon="3.86442">
        <ele>4</ele>
        <time>2021-01-01T12:34:10Z</time>
      </trkpt>
      <trkpt lat="43.5407" lon="3.86437">
        <ele>5</ele>
        <time>2021-01-01T12:34:11Z</time>
      </trkpt>
      <trkpt lat="43.54076" lon="3.86433">
        <ele>5</ele>
        <time>2021-01-01T12:34:12Z</time>
      </trkpt>
      <trkpt lat="43.54081" lon="3.86428">
        <ele>5</ele>
        <time>2021-01-01T12:34:13Z</time>
      </trkpt>
      <trkpt lat="43.54087" lon="3.86422">
        <ele>4</ele>
        <time>2021-01-01T12:34:14Z</time>
      </trkpt>
      <trkpt lat="43.54091" lon="3.86416">
        <ele>4</ele>
        <time>2021-01-01T12:34:15Z</time>
      </trkpt>
      <trkpt lat="43.54096" lon="3.86411">
        <ele>4</ele>
        <time>2021-01-01T12:34:16Z</time>
      </trkpt>
      <trkpt lat="43.541" lon="3.86403">
        <ele>3</ele>
        <time>2021-01-01T12:34:17Z</time>
      </trkpt>
      <trkpt lat="43.54104" lon="3.86396">
        <ele>3</ele>
        <time>2021-01-01T12:34:18Z</time>
      </trkpt>
      <trkpt lat="43.54107" lon="3.86388">
        <ele>4</ele>
        <time>2021-01-01T12:34:19Z</time>
      </trkpt>
      <trkpt lat="43.54111" lon="3.86381">
        <ele>4</ele>
        <time>2021-01-01T12:34:20Z</time>
      </trkpt>
      <trkpt lat="43.54114" lon="3.86373">
        <ele>4</ele>
        <time>2021-01-01T12:34:21Z</time>
      </trkpt>
      <trkpt lat="43.54118" lon="3.86365">
        <ele>4</ele>
        <time>2021-01-01T12:34:22Z</time>
      </trkpt>
      <trkpt lat="43.54121" lon="3.86358">
        <ele>5</ele>
        <time>2021-01-01T12:34:23Z</time>
      </trkpt>
      <trkpt lat="43.54125" lon="3.86351">
        <ele>5</ele>
        <time>2021-01-01T12:34:24Z</time>
      </trkpt>
      <trkpt lat="43.54129" lon="3.86342">
        <ele>5</ele>
        <time>2021-01-01T12:34:25Z</time>
      </trkpt>
      <trkpt lat="43.54133" lon="3.86336">
        <ele>5</ele>
        <time>2021-01-01T12:34:26Z</time>
      </trkpt>
      <trkpt lat="43.54136" lon="3.86329">
        <ele>5</ele>
        <time>2021-01-01T12:34:27Z</time>
      </trkpt>
      <trkpt lat="43.54138" lon="3.8632">
        <ele>5</ele>
        <time>2021-01-01T12:34:28Z</time>
      </trkpt>
      <trkpt lat="43.54141" lon="3.86312">
        <ele>5</ele>
        <time>2021-01-01T12:34:29Z</time>
      </trkpt>
      <trkpt lat="43.54144" lon="3.86305">
        <ele>5</ele>
        <time>2021-01-01T12:34:30Z</time>
      </trkpt>
      <trkpt lat="43.54148" lon="3.86298">
        <ele>5</ele>
        <time>2021-01-01T12:34:31Z</time>
      </trkpt>
      <trkpt lat="43.5415" lon="3.86292">
        <ele>5</ele>
        <time>2021-01-01T12:34:32Z</time>
      </trkpt>
      <trkpt lat="43.54153" lon="3.86284">
        <ele>5</ele>
        <time>2021-01-01T12:34:33Z</time>
      </trkpt>
      <trkpt lat="43.54157" lon="3.86277">
        <ele>5</ele>
        <time>2021-01-01T12:34:34Z</time>
      </trkpt>
      <trkpt lat="43.5416" lon="3.8627">
        <ele>5</ele>
        <time>2021-01-01T12:34:35Z</time>
      </trkpt>
      <trkpt lat="43.54164" lon="3.86264">
        <ele>4</ele>
        <time>2021-01-01T12:34:36Z</time>
      </trkpt>
      <trkpt lat="43.54168" lon="3.86257">
        <ele>4</ele>
        <time>2021-01-01T12:34:37Z</time>
      </trkpt>
      <trkpt lat="43.54171" lon="3.8625">
        <ele>4</ele>
        <time>2021-01-01T12:34:38Z</time>
      </trkpt>
      <trkpt lat="43.54174" lon="3.86243">
        <ele>4</ele>
        <time>2021-01-01T12:34:39Z</time>
      </trkpt>
      <trkpt lat="43.54177" lon="3.86236">
        <ele>4</ele>
        <time>2021-01-01T12:34:40Z</time>
      </trkpt>
      <trkpt lat="43.54181" lon="3.86228">
        <ele>4</ele>
        <time>2021-01-01T12:34:41Z</time>
      </trkpt>
      <trkpt lat="43.54184" lon="3.86222">
        <ele>4</ele>
        <time>2021-01-01T12:34:42Z</time>
      </trkpt>
      <trkpt lat="43.54187" lon="3.86215">
        <ele>4</ele>
        <time>2021-01-01T12:34:43Z</time>
      </trkpt>
      <trkpt lat="43.5419" lon="3.86209">
        <ele>4</ele>
        <time>2021-01-01T12:34:44Z</time>
      </trkpt>
      <trkpt lat="43.54193" lon="3.86202">
        <ele>4</ele>
        <time>2021-01-01T12:34:45Z</time>
      </trkpt>
      <trkpt lat="43.54197" lon="3.86195">
        <ele>4</ele>
        <time>2021-01-01T12:34:46Z</time>
      </trkpt>
      <trkpt lat="43.542" lon="3.86189">
        <ele>4</ele>
        <time>2021-01-01T12:34:47Z</time>
      </trkpt>
      <trkpt lat="43.54203" lon="3.86182">
        <ele>4</ele>
        <time>2021-01-01T12:34:48Z</time>
      </trkpt>
      <trkpt lat="43.54206" lon="3.86176">
        <ele>4</ele>
        <time>2021-01-01T12:34:49Z</time>
      </trkpt>
      <trkpt lat="43.5421" lon="3.86169">
        <ele>3</ele>
        <time>2021-01-01T12:34:50Z</time>
      </trkpt>
      <trkpt lat="43.54213" lon="3.86162">
        <ele>3</ele>
        <time>2021-01-01T12:34:51Z</time>
      </trkpt>
      <trkpt lat="43.54216" lon="3.86156">
        <ele>3</ele>
        <time>2021-01-01T12:34:52Z</time>
      </trkpt>
      <trkpt lat="43.54219" lon="3.86149">
        <ele>3</ele>
        <time>2021-01-01T12:34:53Z</time>
      </trkpt>
      <trkpt lat="43.54222" lon="3.86143">
        <ele>3</ele>
        <time>2021-01-01T12:34:54Z</time>
      </trkpt>
      <trkpt lat="43.54224" lon="3.86137">
        <ele>3</ele>
        <time>2021-01-01T12:34:55Z</time>
      </trkpt>
      <trkpt lat="43.54227" lon="3.86132">
        <ele>3</ele>
        <time>2021-01-01T12:34:56Z</time>
      </trkpt>
      <trkpt lat="43.54229" lon="3.86126">
        <ele>3</ele>
        <time>2021-01-01T12:34:57Z</time>
      </trkpt>
      <trkpt lat="43.54234" lon="3.86116">
        <ele>3</ele>
        <time>2021-01-01T12:34:59Z</time>
      </trkpt>
      <trkpt lat="43.54236" lon="3.8611">
        <ele>4</ele>
        <time>2021-01-01T12:35:00Z</time>
      </trkpt>
      <trkpt lat="43.54239" lon="3.86104">
        <ele>4</ele>
        <time>2021-01-01T12:35:01Z</time>
      </trkpt>
      <trkpt lat="43.54241" lon="3.86098">
        <ele>4</ele>
        <time>2021-01-01T12:35:02Z</time>
      </trkpt>
      <trkpt lat="43.54243" lon="3.86092">
        <ele>4</ele>
        <time>2021-01-01T12:35:03Z</time>
      </trkpt>
      <trkpt lat="43.54246" lon="3.86086">
        <ele>4</ele>
        <time>2021-01-01T12:35:04Z</time>
      </trkpt>
      <trkpt lat="43.54249" lon="3.86079">
        <ele>4</ele>
        <time>2021-01-01T12:35:05Z</time>
      </trkpt>
      <trkpt lat="43.54252" lon="3.86072">
        <ele>3</ele>
        <time>2021-01-01T12:35:06Z</time>
      </trkpt>
      <trkpt lat="43.54255" lon="3.86066">
        <ele>4</ele>
        <time>2021-01-01T12:35:07Z</time>
      </trkpt>
      <trkpt lat="43.54258" lon="3.8606">
        <ele>4</ele>
        <time>2021-01-01T12:35:08Z</time>
      </trkpt>
      <trkpt lat="43.54261" lon="3.86054">
        <ele>4</ele>
        <time>2021-01-01T12:35:09Z</time>
      </trkpt>
      <trkpt lat="43.54263" lon="3.86048">
        <ele>4</ele>
        <time>2021-01-01T12:35:10Z</time>
      </trkpt>
      <trkpt lat="43.54267" lon="3.86041">
        <ele>4</ele>
        <time>2021-01-01T12:35:11Z</time>
      </trkpt>
      <trkpt lat="43.54269" lon="3.86036">
        <ele>4</ele>
        <time>2021-01-01T12:35:12Z</time>
      </trkpt>
      <trkpt lat="43.54273" lon="3.8603">
        <ele>5</ele>
        <time>2021-01-01T12:35:13Z</time>
      </trkpt>
      <trkpt lat="43.54275" lon="3.86025">
        <ele>5</ele>
        <time>2021-01-01T12:35:14Z</time>
      </trkpt>
      <trkpt lat="43.54278" lon="3.86019">
        <ele>5</ele>
        <time>2021-01-01T12:35:15Z</time>
      </trkpt>
      <trkpt lat="43.54282" lon="3.86008">
        <ele>5</ele>
        <time>2021-01-01T12:35:17Z</time>
      </trkpt>
      <trkpt lat="43.54284" lon="3.86002">
        <ele>5</ele>
        <time>2021-01-01T12:35:18Z</time>
      </trkpt>
      <trkpt lat="43.54287" lon="3.85996">
        <ele>5</ele>
        <time>2021-01-01T12:35:19Z</time>
      </trkpt>
      <trkpt lat="43.5429" lon="3.8599">
        <ele>5</ele>
        <time>2021-01-01T12:35:20Z</time>
      </trkpt>
      <trkpt lat="43.54293" lon="3.85984">
        <ele>5</ele>
        <time>2021-01-01T12:35:21Z</time>
      </trkpt>
      <trkpt lat="43.54296" lon="3.85977">
        <ele>5</ele>
        <time>2021-01-01T12:35:22Z</time>
      </trkpt>
      <trkpt lat="43.543" lon="3.85971">
        <ele>5</ele>
        <time>2021-01-01T12:35:23Z</time>
      </trkpt>
      <trkpt lat="43.54302" lon="3.85965">
        <ele>5</ele>
        <time>2021-01-01T12:35:24Z</time>
      </trkpt>
      <trkpt lat="43.54305" lon="3.85958">
        <ele>5</ele>
        <time>2021-01-01T12:35:25Z</time>
      </trkpt>
      <trkpt lat="43.54308" lon="3.85952">
        <ele>5</ele>
        <time>2021-01-01T12:35:26Z</time>
      </trkpt>
      <trkpt lat="43.5431" lon="3.85945">
        <ele>6</ele>
        <time>2021-01-01T12:35:27Z</time>
      </trkpt>
      <trkpt lat="43.54313" lon="3.85938">
        <ele>6</ele>
        <time>2021-01-01T12:35:28Z</time>
      </trkpt>
      <trkpt lat="43.54316" lon="3.85931">
        <ele>6</ele>
        <time>2021-01-01T12:35:29Z</time>
      </trkpt>
      <trkpt lat="43.54318" lon="3.85925">
        <ele>6</ele>
        <time>2021-01-01T12:35:30Z</time>
      </trkpt>
      <trkpt lat="43.54319" lon="3.85919">
        <ele>6</ele>
        <time>2021-01-01T12:35:31Z</time>
      </trkpt>
      <trkpt lat="43.54322" lon="3.85912">
        <ele>6</ele>
        <time>2021-01-01T12:35:32Z</time>
      </trkpt>
      <trkpt lat="43.54325" lon="3.85906">
        <ele>6</ele>
        <time>2021-01-01T12:35:33Z</time>
      </trkpt>
      <trkpt lat="43.5433" lon="3.85899">
        <ele>6</ele>
        <time>2021-01-01T12:35:34Z</time>
      </trkpt>
      <trkpt lat="43.54332" lon="3.85892">
        <ele>6</ele>
        <time>2021-01-01T12:35:35Z</time>
      </trkpt>
      <trkpt lat="43.54334" lon="3.85886">
        <ele>5</ele>
        <time>2021-01-01T12:35:36Z</time>
      </trkpt>
      <trkpt lat="43.54337" lon="3.85878">
        <ele>5</ele>
        <time>2021-01-01T12:35:37Z</time>
      </trkpt>
      <trkpt lat="43.54339" lon="3.85871">
        <ele>5</ele>
        <time>2021-01-01T12:35:38Z</time>
      </trkpt>
      <trkpt lat="43.54342" lon="3.85864">
        <ele>6</ele>
        <time>2021-01-01T12:35:39Z</time>
      </trkpt>
      <trkpt lat="43.54344" lon="3.85858">
        <ele>6</ele>
        <time>2021-01-01T12:35:40Z</time>
      </trkpt>
      <trkpt lat="43.54346" lon="3.85851">
        <ele>6</ele>
        <time>2021-01-01T12:35:41Z</time>
      </trkpt>
      <trkpt lat="43.54348" lon="3.85844">
        <ele>6</ele>
        <time>2021-01-01T12:35:42Z</time>
      </trkpt>
      <trkpt lat="43.5435" lon="3.85836">
        <ele>7</ele>
        <time>2021-01-01T12:35:43Z</time>
      </trkpt>
      <trkpt lat="43.54351" lon="3.85829">
        <ele>6</ele>
        <time>2021-01-01T12:35:44Z</time>
      </trkpt>
      <trkpt lat="43.54353" lon="3.85822">
        <ele>7</ele>
        <time>2021-01-01T12:35:45Z</time>
      </trkpt>
      <trkpt lat="43.54355" lon="3.85814">
        <ele>7</ele>
        <time>2021-01-01T12:35:46Z</time>
      </trkpt>
      <trkpt lat="43.54356" lon="3.85807">
        <ele>7</ele>
        <time>2021-01-01T12:35:47Z</time>
      </trkpt>
      <trkpt lat="43.54359" lon="3.858">
        <ele>7</ele>
        <time>2021-01-01T12:35:48Z</time>
      </trkpt>
      <trkpt lat="43.5436" lon="3.85793">
        <ele>7</ele>
        <time>2021-01-01T12:35:49Z</time>
      </trkpt>
      <trkpt lat="43.54362" lon="3.85785">
        <ele>7</ele>
        <time>2021-01-01T12:35:50Z</time>
      </trkpt>
      <trkpt lat="43.54364" lon="3.85778">
        <ele>7</ele>
        <time>2021-01-01T12:35:51Z</time>
      </trkpt>
      <trkpt lat="43.54365" lon="3.8577">
        <ele>7</ele>
        <time>2021-01-01T12:35:52Z</time>
      </trkpt>
      <trkpt lat="43.54367" lon="3.85763">
        <ele>7</ele>
        <time>2021-01-01T12:35:53Z</time>
      </trkpt>
      <trkpt lat="43.54368" lon="3.85757">
        <ele>6</ele>
        <time>2021-01-01T12:35:54Z</time>
      </trkpt>
      <trkpt lat="43.5437" lon="3.85749">
        <ele>6</ele>
        <time>2021-01-01T12:35:56Z</time>
      </trkpt>
      <trkpt lat="43.54373" lon="3.85741">
        <ele>6</ele>
        <time>2021-01-01T12:35:59Z</time>
      </trkpt>
      <trkpt lat="43.5438" lon="3.85736">
        <ele>6</ele>
        <time>2021-01-01T12:36:02Z</time>
      </trkpt>
      <trkpt lat="43.54388" lon="3.85734">
        <ele>5</ele>
        <time>2021-01-01T12:36:04Z</time>
      </trkpt>
      <trkpt lat="43.54397" lon="3.85733">
        <ele>5</ele>
        <time>2021-01-01T12:36:06Z</time>
      </trkpt>
      <trkpt lat="43.54402" lon="3.85734">
        <ele>5</ele>
        <time>2021-01-01T12:36:07Z</time>
      </trkpt>
      <trkpt lat="43.54412" lon="3.85735">
        <ele>4</ele>
        <time>2021-01-01T12:36:09Z</time>
      </trkpt>
      <trkpt lat="43.54417" lon="3.85736">
        <ele>5</ele>
        <time>2021-01-01T12:36:10Z</time>
      </trkpt>
      <trkpt lat="43.54422" lon="3.85738">
        <ele>5</ele>
        <time>2021-01-01T12:36:11Z</time>
      </trkpt>
      <trkpt lat="43.54427" lon="3.85741">
        <ele>5</ele>
        <time>2021-01-01T12:36:12Z</time>
      </trkpt>
      <trkpt lat="43.54433" lon="3.85748">
        <ele>4</ele>
        <time>2021-01-01T12:36:14Z</time>
      </trkpt>
      <trkpt lat="43.54435" lon="3.85758">
        <ele>5</ele>
        <time>2021-01-01T12:36:16Z</time>
      </trkpt>
      <trkpt lat="43.54438" lon="3.85768">
        <ele>5</ele>
        <time>2021-01-01T12:36:18Z</time>
      </trkpt>
      <trkpt lat="43.54438" lon="3.8578">
        <ele>5</ele>
        <time>2021-01-01T12:36:20Z</time>
      </trkpt>
      <trkpt lat="43.54439" lon="3.85792">
        <ele>5</ele>
        <time>2021-01-01T12:36:22Z</time>
      </trkpt>
      <trkpt lat="43.54439" lon="3.85799">
        <ele>6</ele>
        <time>2021-01-01T12:36:23Z</time>
      </trkpt>
      <trkpt lat="43.5444" lon="3.85806">
        <ele>5</ele>
        <time>2021-01-01T12:36:24Z</time>
      </trkpt>
      <trkpt lat="43.5444" lon="3.85813">
        <ele>4</ele>
        <time>2021-01-01T12:36:25Z</time>
      </trkpt>
      <trkpt lat="43.54442" lon="3.8582">
        <ele>4</ele>
        <time>2021-01-01T12:36:26Z</time>
      </trkpt>
      <trkpt lat="43.54443" lon="3.85826">
        <ele>4</ele>
        <time>2021-01-01T12:36:27Z</time>
      </trkpt>
      <trkpt lat="43.54446" lon="3.85834">
        <ele>4</ele>
        <time>2021-01-01T12:36:28Z</time>
      </trkpt>
      <trkpt lat="43.54449" lon="3.85842">
        <ele>4</ele>
        <time>2021-01-01T12:36:29Z</time>
      </trkpt>
      <trkpt lat="43.54451" lon="3.85849">
        <ele>5</ele>
        <time>2021-01-01T12:36:30Z</time>
      </trkpt>
      <trkpt lat="43.54452" lon="3.85857">
        <ele>5</ele>
        <time>2021-01-01T12:36:31Z</time>
      </trkpt>
      <trkpt lat="43.54454" lon="3.85864">
        <ele>5</ele>
        <time>2021-01-01T12:36:32Z</time>
      </trkpt>
      <trkpt lat="43.54456" lon="3.85872">
        <ele>6</ele>
        <time>2021-01-01T12:36:33Z</time>
      </trkpt>
      <trkpt lat="43.54458" lon="3.85879">
        <ele>6</ele>
        <time>2021-01-01T12:36:34Z</time>
      </trkpt>
      <trkpt lat="43.54461" lon="3.85886">
        <ele>6</ele>
        <time>2021-01-01T12:36:35Z</time>
      </trkpt>
      <trkpt lat="43.54464" lon="3.85894">
        <ele>6</ele>
        <time>2021-01-01T12:36:36Z</time>
      </trkpt>
      <trkpt lat="43.54466" lon="3.85902">
        <ele>6</ele>
        <time>2021-01-01T12:36:37Z</time>
      </trkpt>
      <trkpt lat="43.54468" lon="3.85909">
        <ele>6</ele>
        <time>2021-01-01T12:36:38Z</time>
      </trkpt>
      <trkpt lat="43.5447" lon="3.85915">
        <ele>5</ele>
        <time>2021-01-01T12:36:39Z</time>
      </trkpt>
      <trkpt lat="43.54473" lon="3.85923">
        <ele>5</ele>
        <time>2021-01-01T12:36:40Z</time>
      </trkpt>
      <trkpt lat="43.54475" lon="3.85931">
        <ele>5</ele>
        <time>2021-01-01T12:36:41Z</time>
      </trkpt>
      <trkpt lat="43.54478" lon="3.85939">
        <ele>5</ele>
        <time>2021-01-01T12:36:42Z</time>
      </trkpt>
      <trkpt lat="43.54481" lon="3.85947">
        <ele>5</ele>
        <time>2021-01-01T12:36:43Z</time>
      </trkpt>
      <trkpt lat="43.54487" lon="3.85952">
        <ele>4</ele>
        <time>2021-01-01T12:36:44Z</time>
      </trkpt>
      <trkpt lat="43.54492" lon="3.85955">
        <ele>4</ele>
        <time>2021-01-01T12:36:45Z</time>
      </trkpt>
      <trkpt lat="43.54499" lon="3.85958">
        <ele>4</ele>
        <time>2021-01-01T12:36:46Z</time>
      </trkpt>
      <trkpt lat="43.54505" lon="3.85957">
        <ele>4</ele>
        <time>2021-01-01T12:36:47Z</time>
      </trkpt>
      <trkpt lat="43.54512" lon="3.85957">
        <ele>4</ele>
        <time>2021-01-01T12:36:48Z</time>
      </trkpt>
      <trkpt lat="43.54517" lon="3.85955">
        <ele>4</ele>
        <time>2021-01-01T12:36:49Z</time>
      </trkpt>
      <trkpt lat="43.54523" lon="3.85953">
        <ele>4</ele>
        <time>2021-01-01T12:36:50Z</time>
      </trkpt>
      <trkpt lat="43.54528" lon="3.8595">
        <ele>4</ele>
        <time>2021-01-01T12:36:51Z</time>
      </trkpt>
      <trkpt lat="43.54534" lon="3.85947">
        <ele>4</ele>
        <time>2021-01-01T12:36:52Z</time>
      </trkpt>
      <trkpt lat="43.54539" lon="3.85944">
        <ele>4</ele>
        <time>2021-01-01T12:36:53Z</time>
      </trkpt>
      <trkpt lat="43.54544" lon="3.85942">
        <ele>5</ele>
        <time>2021-01-01T12:36:54Z</time>
      </trkpt>
      <trkpt lat="43.54549" lon="3.85939">
        <ele>5</ele>
        <time>2021-01-01T12:36:55Z</time>
      </trkpt>
      <trkpt lat="43.54556" lon="3.85936">
        <ele>5</ele>
        <time>2021-01-01T12:36:56Z</time>
      </trkpt>
      <trkpt lat="43.54561" lon="3.85932">
        <ele>5</ele>
        <time>2021-01-01T12:36:57Z</time>
      </trkpt>
      <trkpt lat="43.54567" lon="3.8593">
        <ele>5</ele>
        <time>2021-01-01T12:36:58Z</time>
      </trkpt>
      <trkpt lat="43.54572" lon="3.85928">
        <ele>5</ele>
        <time>2021-01-01T12:36:59Z</time>
      </trkpt>
      <trkpt lat="43.54578" lon="3.85925">
        <ele>5</ele>
        <time>2021-01-01T12:37:00Z</time>
      </trkpt>
      <trkpt lat="43.54582" lon="3.85922">
        <ele>5</ele>
        <time>2021-01-01T12:37:01Z</time>
      </trkpt>
      <trkpt lat="43.54587" lon="3.85919">
        <ele>5</ele>
        <time>2021-01-01T12:37:02Z</time>
      </trkpt>
      <trkpt lat="43.54593" lon="3.85916">
        <ele>5</ele>
        <time>2021-01-01T12:37:03Z</time>
      </trkpt>
      <trkpt lat="43.54598" lon="3.85913">
        <ele>5</ele>
        <time>2021-01-01T12:37:04Z</time>
      </trkpt>
      <trkpt lat="43.54603" lon="3.8591">
        <ele>5</ele>
        <time>2021-01-01T12:37:05Z</time>
      </trkpt>
      <trkpt lat="43.54608" lon="3.85907">
        <ele>6</ele>
        <time>2021-01-01T12:37:06Z</time>
      </trkpt>
      <trkpt lat="43.54613" lon="3.85905">
        <ele>7</ele>
        <time>2021-01-01T12:37:07Z</time>
      </trkpt>
      <trkpt lat="43.54618" lon="3.85902">
        <ele>7</ele>
        <time>2021-01-01T12:37:08Z</time>
      </trkpt>
      <trkpt lat="43.54623" lon="3.85898">
        <ele>7</ele>
        <time>2021-01-01T12:37:09Z</time>
      </trkpt>
      <trkpt lat="43.54628" lon="3.85895">
        <ele>7</ele>
        <time>2021-01-01T12:37:10Z</time>
      </trkpt>
      <trkpt lat="43.54634" lon="3.85892">
        <ele>7</ele>
        <time>2021-01-01T12:37:11Z</time>
      </trkpt>
      <trkpt lat="43.54639" lon="3.85889">
        <ele>7</ele>
        <time>2021-01-01T12:37:12Z</time>
      </trkpt>
      <trkpt lat="43.54644" lon="3.85887">
        <ele>7</ele>
        <time>2021-01-01T12:37:13Z</time>
      </trkpt>
      <trkpt lat="43.5465" lon="3.85885">
        <ele>6</ele>
        <time>2021-01-01T12:37:14Z</time>
      </trkpt>
      <trkpt lat="43.54655" lon="3.85882">
        <ele>6</ele>
        <time>2021-01-01T12:37:15Z</time>
      </trkpt>
      <trkpt lat="43.5466" lon="3.85879">
        <ele>6</ele>
        <time>2021-01-01T12:37:16Z</time>
      </trkpt>
      <trkpt lat="43.54666" lon="3.85876">
        <ele>5</ele>
        <time>2021-01-01T12:37:17Z</time>
      </trkpt>
      <trkpt lat="43.54671" lon="3.85874">
        <ele>5</ele>
        <time>2021-01-01T12:37:18Z</time>
      </trkpt>
      <trkpt lat="43.54676" lon="3.85873">
        <ele>5</ele>
        <time>2021-01-01T12:37:19Z</time>
      </trkpt>
      <trkpt lat="43.54681" lon="3.85871">
        <ele>5</ele>
        <time>2021-01-01T12:37:20Z</time>
      </trkpt>
      <trkpt lat="43.54687" lon="3.85869">
        <ele>5</ele>
        <time>2021-01-01T12:37:21Z</time>
      </trkpt>
      <trkpt lat="43.54692" lon="3.85868">
        <ele>5</ele>
        <time>2021-01-01T12:37:22Z</time>
      </trkpt>
      <trkpt lat="43.54698" lon="3.85868">
        <ele>4</ele>
        <time>2021-01-01T12:37:23Z</time>
      </trkpt>
      <trkpt lat="43.54704" lon="3.85866">
        <ele>4</ele>
        <time>2021-01-01T12:37:24Z</time>
      </trkpt>
      <trkpt lat="43.5471" lon="3.85864">
        <ele>4</ele>
        <time>2021-01-01T12:37:25Z</time>
      </trkpt>
      <trkpt lat="43.54716" lon="3.85863">
        <ele>5</ele>
        <time>2021-01-01T12:37:26Z</time>
      </trkpt>
      <trkpt lat="43.54723" lon="3.85861">
        <ele>4</ele>
        <time>2021-01-01T12:37:27Z</time>
      </trkpt>
      <trkpt lat="43.5473" lon="3.8586">
        <ele>4</ele>
        <time>2021-01-01T12:37:28Z</time>
      </trkpt>
      <trkpt lat="43.54736" lon="3.85859">
        <ele>4</ele>
        <time>2021-01-01T12:37:29Z</time>
      </trkpt>
      <trkpt lat="43.54743" lon="3.85859">
        <ele>4</ele>
        <time>2021-01-01T12:37:30Z</time>
      </trkpt>
      <trkpt lat="43.54749" lon="3.85858">
        <ele>3</ele>
        <time>2021-01-01T12:37:31Z</time>
      </trkpt>
      <trkpt lat="43.54755" lon="3.85858">
        <ele>3</ele>
        <time>2021-01-01T12:37:32Z</time>
      </trkpt>
      <trkpt lat="43.5476" lon="3.85858">
        <ele>2</ele>
        <time>2021-01-01T12:37:33Z</time>
      </trkpt>
      <trkpt lat="43.54766" lon="3.85858">
        <ele>2</ele>
        <time>2021-01-01T12:37:34Z</time>
      </trkpt>
      <trkpt lat="43.54772" lon="3.85858">
        <ele>2</ele>
        <time>2021-01-01T12:37:35Z</time>
      </trkpt>
      <trkpt lat="43.54777" lon="3.85856">
        <ele>2</ele>
        <time>2021-01-01T12:37:36Z</time>
      </trkpt>
      <trkpt lat="43.54783" lon="3.85855">
        <ele>2</ele>
        <time>2021-01-01T12:37:37Z</time>
      </trkpt>
      <trkpt lat="43.54787" lon="3.85854">
        <ele>2</ele>
        <time>2021-01-01T12:37:38Z</time>
      </trkpt>
      <trkpt lat="43.54794" lon="3.85855">
        <ele>2</ele>
        <time>2021-01-01T12:37:39Z</time>
      </trkpt>
      <trkpt lat="43.548" lon="3.85855">
        <ele>3</ele>
        <time>2021-01-01T12:37:40Z</time>
      </trkpt>
      <trkpt lat="43.54806" lon="3.85854">
        <ele>3</ele>
        <time>2021-01-01T12:37:41Z</time>
      </trkpt>
      <trkpt lat="43.54812" lon="3.85854">
        <ele>3</ele>
        <time>2021-01-01T12:37:42Z</time>
      </trkpt>
      <trkpt lat="43.54818" lon="3.85854">
        <ele>3</ele>
        <time>2021-01-01T12:37:43Z</time>
      </trkpt>
      <trkpt lat="43.54824" lon="3.85854">
        <ele>3</ele>
        <time>2021-01-01T12:37:44Z</time>
      </trkpt>
      <trkpt lat="43.5483" lon="3.85854">
        <ele>3</ele>
        <time>2021-01-01T12:37:45Z</time>
      </trkpt>
      <trkpt lat="43.54836" lon="3.85855">
        <ele>3</ele>
        <time>2021-01-01T12:37:46Z</time>
      </trkpt>
      <trkpt lat="43.54843" lon="3.85854">
        <ele>3</ele>
        <time>2021-01-01T12:37:47Z</time>
      </trkpt>
      <trkpt lat="43.54849" lon="3.85854">
        <ele>3</ele>
        <time>2021-01-01T12:37:48Z</time>
      </trkpt>
      <trkpt lat="43.54855" lon="3.85854">
        <ele>3</ele>
        <time>2021-01-01T12:37:49Z</time>
      </trkpt>
      <trkpt lat="43.5486" lon="3.85854">
        <ele>3</ele>
        <time>2021-01-01T12:37:50Z</time>
      </trkpt>
      <trkpt lat="43.54866" lon="3.85854">
        <ele>3</ele>
        <time>2021-01-01T12:37:51Z</time>
      </trkpt>
      <trkpt lat="43.54872" lon="3.85854">
        <ele>3</ele>
        <time>2021-01-01T12:37:52Z</time>
      </trkpt>
      <trkpt lat="43.54878" lon="3.85854">
        <ele>3</ele>
        <time>2021-01-01T12:37:53Z</time>
      </trkpt>
      <trkpt lat="43.54884" lon="3.85853">
        <ele>3</ele>
        <time>2021-01-01T12:37:54Z</time>
      </trkpt>
      <trkpt lat="43.54889" lon="3.85853">
        <ele>3</ele>
        <time>2021-01-01T12:37:55Z</time>
      </trkpt>
      <trkpt lat="43.54895" lon="3.85854">
        <ele>3</ele>
        <time>2021-01-01T12:37:56Z</time>
      </trkpt>
      <trkpt lat="43.54901" lon="3.85854">
        <ele>3</ele>
        <time>2021-01-01T12:37:57Z</time>
      </trkpt>
      <trkpt lat="43.54907" lon="3.85854">
        <ele>4</ele>
        <time>2021-01-01T12:37:58Z</time>
      </trkpt>
      <trkpt lat="43.54914" lon="3.85853">
        <ele>4</ele>
        <time>2021-01-01T12:37:59Z</time>
      </trkpt>
      <trkpt lat="43.54919" lon="3.85851">
        <ele>4</ele>
        <time>2021-01-01T12:38:00Z</time>
      </trkpt>
      <trkpt lat="43.54925" lon="3.85852">
        <ele>4</ele>
        <time>2021-01-01T12:38:01Z</time>
      </trkpt>
      <trkpt lat="43.54935" lon="3.85852">
        <ele>4</ele>
        <time>2021-01-01T12:38:03Z</time>
      </trkpt>
      <trkpt lat="43.54941" lon="3.85852">
        <ele>4</ele>
        <time>2021-01-01T12:38:04Z</time>
      </trkpt>
      <trkpt lat="43.54947" lon="3.85852">
        <ele>3</ele>
        <time>2021-01-01T12:38:05Z</time>
      </trkpt>
      <trkpt lat="43.54953" lon="3.85852">
        <ele>3</ele>
        <time>2021-01-01T12:38:06Z</time>
      </trkpt>
      <trkpt lat="43.54959" lon="3.85851">
        <ele>3</ele>
        <time>2021-01-01T12:38:07Z</time>
      </trkpt>
      <trkpt lat="43.54965" lon="3.85851">
        <ele>4</ele>
        <time>2021-01-01T12:38:08Z</time>
      </trkpt>
      <trkpt lat="43.54971" lon="3.8585">
        <ele>4</ele>
        <time>2021-01-01T12:38:09Z</time>
      </trkpt>
      <trkpt lat="43.54978" lon="3.85849">
        <ele>4</ele>
        <time>2021-01-01T12:38:10Z</time>
      </trkpt>
      <trkpt lat="43.54984" lon="3.85848">
        <ele>4</ele>
        <time>2021-01-01T12:38:11Z</time>
      </trkpt>
      <trkpt lat="43.5499" lon="3.85849">
        <ele>4</ele>
        <time>2021-01-01T12:38:12Z</time>
      </trkpt>
      <trkpt lat="43.54997" lon="3.85849">
        <ele>4</ele>
        <time>2021-01-01T12:38:13Z</time>
      </trkpt>
      <trkpt lat="43.55003" lon="3.85849">
        <ele>4</ele>
        <time>2021-01-01T12:38:14Z</time>
      </trkpt>
      <trkpt lat="43.55008" lon="3.85849">
        <ele>4</ele>
        <time>2021-01-01T12:38:15Z</time>
      </trkpt>
      <trkpt lat="43.55014" lon="3.85849">
        <ele>4</ele>
        <time>2021-01-01T12:38:16Z</time>
      </trkpt>
      <trkpt lat="43.55021" lon="3.85848">
        <ele>4</ele>
        <time>2021-01-01T12:38:17Z</time>
      </trkpt>
      <trkpt lat="43.55026" lon="3.85848">
        <ele>5</ele>
        <time>2021-01-01T12:38:18Z</time>
      </trkpt>
      <trkpt lat="43.55032" lon="3.85848">
        <ele>5</ele>
        <time>2021-01-01T12:38:19Z</time>
      </trkpt>
      <trkpt lat="43.55039" lon="3.85848">
        <ele>5</ele>
        <time>2021-01-01T12:38:20Z</time>
      </trkpt>
      <trkpt lat="43.55045" lon="3.85848">
        <ele>5</ele>
        <time>2021-01-01T12:38:21Z</time>
      </trkpt>
      <trkpt lat="43.5505" lon="3.85848">
        <ele>5</ele>
        <time>2021-01-01T12:38:22Z</time>
      </trkpt>
      <trkpt lat="43.55056" lon="3.85848">
        <ele>5</ele>
        <time>2021-01-01T12:38:23Z</time>
      </trkpt>
      <trkpt lat="43.55063" lon="3.85848">
        <ele>4</ele>
        <time>2021-01-01T12:38:24Z</time>
      </trkpt>
      <trkpt lat="43.55069" lon="3.85848">
        <ele>4</ele>
        <time>2021-01-01T12:38:25Z</time>
      </trkpt>
      <trkpt lat="43.55076" lon="3.85848">
        <ele>4</ele>
        <time>2021-01-01T12:38:26Z</time>
      </trkpt>
      <trkpt lat="43.55081" lon="3.85848">
        <ele>4</ele>
        <time>2021-01-01T12:38:27Z</time>
      </trkpt>
      <trkpt lat="43.55087" lon="3.85847">
        <ele>4</ele>
        <time>2021-01-01T12:38:28Z</time>
      </trkpt>
      <trkpt lat="43.55092" lon="3.85847">
        <ele>5</ele>
        <time>2021-01-01T12:38:29Z</time>
      </trkpt>
      <trkpt lat="43.55098" lon="3.85847">
        <ele>5</ele>
        <time>2021-01-01T12:38:30Z</time>
      </trkpt>
      <trkpt lat="43.55104" lon="3.85848">
        <ele>5</ele>
        <time>2021-01-01T12:38:31Z</time>
      </trkpt>
      <trkpt lat="43.5511" lon="3.85848">
        <ele>5</ele>
        <time>2021-01-01T12:38:32Z</time>
      </trkpt>
      <trkpt lat="43.55116" lon="3.85848">
        <ele>5</ele>
        <time>2021-01-01T12:38:33Z</time>
      </trkpt>
      <trkpt lat="43.55122" lon="3.85848">
        <ele>5</ele>
        <time>2021-01-01T12:38:34Z</time>
      </trkpt>
      <trkpt lat="43.55128" lon="3.85848">
        <ele>5</ele>
        <time>2021-01-01T12:38:35Z</time>
      </trkpt>
      <trkpt lat="43.55133" lon="3.85848">
        <ele>5</ele>
        <time>2021-01-01T12:38:36Z</time>
      </trkpt>
      <trkpt lat="43.5514" lon="3.85848">
        <ele>5</ele>
        <time>2021-01-01T12:38:37Z</time>
      </trkpt>
      <trkpt lat="43.55145" lon="3.85849">
        <ele>5</ele>
        <time>2021-01-01T12:38:38Z</time>
      </trkpt>
      <trkpt lat="43.55151" lon="3.8585">
        <ele>4</ele>
        <time>2021-01-01T12:38:39Z</time>
      </trkpt>
      <trkpt lat="43.55157" lon="3.85851">
        <ele>4</ele>
        <time>2021-01-01T12:38:40Z</time>
      </trkpt>
      <trkpt lat="43.55162" lon="3.85852">
        <ele>4</ele>
        <time>2021-01-01T12:38:41Z</time>
      </trkpt>
      <trkpt lat="43.55168" lon="3.85853">
        <ele>4</ele>
        <time>2021-01-01T12:38:42Z</time>
      </trkpt>
      <trkpt lat="43.55174" lon="3.85854">
        <ele>4</ele>
        <time>2021-01-01T12:38:43Z</time>
      </trkpt>
      <trkpt lat="43.55179" lon="3.85856">
        <ele>5</ele>
        <time>2021-01-01T12:38:44Z</time>
      </trkpt>
      <trkpt lat="43.55185" lon="3.85857">
        <ele>5</ele>
        <time>2021-01-01T12:38:45Z</time>
      </trkpt>
      <trkpt lat="43.55191" lon="3.8586">
        <ele>5</ele>
        <time>2021-01-01T12:38:46Z</time>
      </trkpt>
      <trkpt lat="43.55195" lon="3.85862">
        <ele>5</ele>
        <time>2021-01-01T12:38:47Z</time>
      </trkpt>
      <trkpt lat="43.552" lon="3.85865">
        <ele>5</ele>
        <time>2021-01-01T12:38:48Z</time>
      </trkpt>
      <trkpt lat="43.55206" lon="3.85867">
        <ele>5</ele>
        <time>2021-01-01T12:38:49Z</time>
      </trkpt>
      <trkpt lat="43.55211" lon="3.85868">
        <ele>5</ele>
        <time>2021-01-01T12:38:50Z</time>
      </trkpt>
      <trkpt lat="43.55217" lon="3.8587">
        <ele>5</ele>
        <time>2021-01-01T12:38:51Z</time>
      </trkpt>
      <trkpt lat="43.55223" lon="3.85873">
        <ele>5</ele>
        <time>2021-01-01T12:38:52Z</time>
      </trkpt>
      <trkpt lat="43.55228" lon="3.85876">
        <ele>5</ele>
        <time>2021-01-01T12:38:53Z</time>
      </trkpt>
      <trkpt lat="43.55234" lon="3.85877">
        <ele>4</ele>
        <time>2021-01-01T12:38:54Z</time>
      </trkpt>
      <trkpt lat="43.55239" lon="3.8588">
        <ele>4</ele>
        <time>2021-01-01T12:38:55Z</time>
      </trkpt>
      <trkpt lat="43.55244" lon="3.85882">
        <ele>4</ele>
        <time>2021-01-01T12:38:56Z</time>
      </trkpt>
      <trkpt lat="43.55249" lon="3.85885">
        <ele>4</ele>
        <time>2021-01-01T12:38:57Z</time>
      </trkpt>
      <trkpt lat="43.55253" lon="3.85887">
        <ele>4</ele>
        <time>2021-01-01T12:38:58Z</time>
      </trkpt>
      <trkpt lat="43.55263" lon="3.85892">
        <ele>4</ele>
        <time>2021-01-01T12:39:00Z</time>
      </trkpt>
      <trkpt lat="43.55268" lon="3.85893">
        <ele>4</ele>
        <time>2021-01-01T12:39:01Z</time>
      </trkpt>
      <trkpt lat="43.55273" lon="3.85896">
        <ele>4</ele>
        <time>2021-01-01T12:39:02Z</time>
      </trkpt>
      <trkpt lat="43.55279" lon="3.85899">
        <ele>4</ele>
        <time>2021-01-01T12:39:03Z</time>
      </trkpt>
      <trkpt lat="43.55284" lon="3.85901">
        <ele>4</ele>
        <time>2021-01-01T12:39:04Z</time>
      </trkpt>
      <trkpt lat="43.55293" lon="3.85904">
        <ele>4</ele>
        <time>2021-01-01T12:39:06Z</time>
      </trkpt>
      <trkpt lat="43.55298" lon="3.85907">
        <ele>4</ele>
        <time>2021-01-01T12:39:07Z</time>
      </trkpt>
      <trkpt lat="43.55307" lon="3.85911">
        <ele>4</ele>
        <time>2021-01-01T12:39:09Z</time>
      </trkpt>
      <trkpt lat="43.55313" lon="3.85914">
        <ele>4</ele>
        <time>2021-01-01T12:39:10Z</time>
      </trkpt>
      <trkpt lat="43.55318" lon="3.85917">
        <ele>4</ele>
        <time>2021-01-01T12:39:11Z</time>
      </trkpt>
      <trkpt lat="43.55323" lon="3.8592">
        <ele>4</ele>
        <time>2021-01-01T12:39:12Z</time>
      </trkpt>
      <trkpt lat="43.55328" lon="3.85922">
        <ele>4</ele>
        <time>2021-01-01T12:39:13Z</time>
      </trkpt>
      <trkpt lat="43.55333" lon="3.85925">
        <ele>4</ele>
        <time>2021-01-01T12:39:14Z</time>
      </trkpt>
      <trkpt lat="43.55338" lon="3.85926">
        <ele>4</ele>
        <time>2021-01-01T12:39:15Z</time>
      </trkpt>
      <trkpt lat="43.55344" lon="3.85928">
        <ele>4</ele>
        <time>2021-01-01T12:39:16Z</time>
      </trkpt>
      <trkpt lat="43.55349" lon="3.85931">
        <ele>4</ele>
        <time>2021-01-01T12:39:17Z</time>
      </trkpt>
      <trkpt lat="43.55354" lon="3.85933">
        <ele>4</ele>
        <time>2021-01-01T12:39:18Z</time>
      </trkpt>
      <trkpt lat="43.55359" lon="3.85936">
        <ele>4</ele>
        <time>2021-01-01T12:39:19Z</time>
      </trkpt>
      <trkpt lat="43.55365" lon="3.85938">
        <ele>4</ele>
        <time>2021-01-01T12:39:20Z</time>
      </trkpt>
      <trkpt lat="43.5537" lon="3.85941">
        <ele>3</ele>
        <time>2021-01-01T12:39:21Z</time>
      </trkpt>
      <trkpt lat="43.55375" lon="3.85943">
        <ele>3</ele>
        <time>2021-01-01T12:39:22Z</time>
      </trkpt>
      <trkpt lat="43.5538" lon="3.85946">
        <ele>3</ele>
        <time>2021-01-01T12:39:23Z</time>
      </trkpt>
      <trkpt lat="43.55389" lon="3.85951">
        <ele>3</ele>
        <time>2021-01-01T12:39:25Z</time>
      </trkpt>
      <trkpt lat="43.55394" lon="3.85953">
        <ele>3</ele>
        <time>2021-01-01T12:39:26Z</time>
      </trkpt>
      <trkpt lat="43.55399" lon="3.85955">
        <ele>3</ele>
        <time>2021-01-01T12:39:27Z</time>
      </trkpt>
      <trkpt lat="43.55404" lon="3.85957">
        <ele>3</ele>
        <time>2021-01-01T12:39:28Z</time>
      </trkpt>
      <trkpt lat="43.55408" lon="3.85959">
        <ele>3</ele>
        <time>2021-01-01T12:39:29Z</time>
      </trkpt>
      <trkpt lat="43.55413" lon="3.85962">
        <ele>3</ele>
        <time>2021-01-01T12:39:30Z</time>
      </trkpt>
      <trkpt lat="43.55418" lon="3.85963">
        <ele>3</ele>
        <time>2021-01-01T12:39:31Z</time>
      </trkpt>
      <trkpt lat="43.55423" lon="3.85966">
        <ele>3</ele>
        <time>2021-01-01T12:39:32Z</time>
      </trkpt>
      <trkpt lat="43.55429" lon="3.85968">
        <ele>3</ele>
        <time>2021-01-01T12:39:33Z</time>
      </trkpt>
      <trkpt lat="43.55434" lon="3.85971">
        <ele>3</ele>
        <time>2021-01-01T12:39:34Z</time>
      </trkpt>
      <trkpt lat="43.55439" lon="3.85974">
        <ele>3</ele>
        <time>2021-01-01T12:39:35Z</time>
      </trkpt>
      <trkpt lat="43.55444" lon="3.85977">
        <ele>3</ele>
        <time>2021-01-01T12:39:36Z</time>
      </trkpt>
      <trkpt lat="43.5545" lon="3.85979">
        <ele>3</ele>
        <time>2021-01-01T12:39:37Z</time>
      </trkpt>
      <trkpt lat="43.55454" lon="3.85982">
        <ele>3</ele>
        <time>2021-01-01T12:39:38Z</time>
      </trkpt>
      <trkpt lat="43.55458" lon="3.85985">
        <ele>3</ele>
        <time>2021-01-01T12:39:39Z</time>
      </trkpt>
      <trkpt lat="43.55462" lon="3.85988">
        <ele>3</ele>
        <time>2021-01-01T12:39:40Z</time>
      </trkpt>
      <trkpt lat="43.55467" lon="3.85991">
        <ele>3</ele>
        <time>2021-01-01T12:39:41Z</time>
      </trkpt>
      <trkpt lat="43.55472" lon="3.85995">
        <ele>4</ele>
        <time>2021-01-01T12:39:42Z</time>
      </trkpt>
      <trkpt lat="43.55478" lon="3.85998">
        <ele>4</ele>
        <time>2021-01-01T12:39:43Z</time>
      </trkpt>
      <trkpt lat="43.55484" lon="3.86">
        <ele>4</ele>
        <time>2021-01-01T12:39:44Z</time>
      </trkpt>
      <trkpt lat="43.55489" lon="3.86004">
        <ele>4</ele>
        <time>2021-01-01T12:39:45Z</time>
      </trkpt>
      <trkpt lat="43.55494" lon="3.86007">
        <ele>4</ele>
        <time>2021-01-01T12:39:46Z</time>
      </trkpt>
      <trkpt lat="43.55499" lon="3.86011">
        <ele>4</ele>
        <time>2021-01-01T12:39:47Z</time>
      </trkpt>
      <trkpt lat="43.55504" lon="3.86015">
        <ele>3</ele>
        <time>2021-01-01T12:39:48Z</time>
      </trkpt>
      <trkpt lat="43.55508" lon="3.86017">
        <ele>3</ele>
        <time>2021-01-01T12:39:49Z</time>
      </trkpt>
      <trkpt lat="43.55513" lon="3.8602">
        <ele>3</ele>
        <time>2021-01-01T12:39:50Z</time>
      </trkpt>
      <trkpt lat="43.55518" lon="3.86023">
        <ele>4</ele>
        <time>2021-01-01T12:39:51Z</time>
      </trkpt>
      <trkpt lat="43.55524" lon="3.86026">
        <ele>4</ele>
        <time>2021-01-01T12:39:52Z</time>
      </trkpt>
      <trkpt lat="43.55529" lon="3.86029">
        <ele>4</ele>
        <time>2021-01-01T12:39:53Z</time>
      </trkpt>
      <trkpt lat="43.55533" lon="3.86033">
        <ele>4</ele>
        <time>2021-01-01T12:39:54Z</time>
      </trkpt>
      <trkpt lat="43.55538" lon="3.86037">
        <ele>5</ele>
        <time>2021-01-01T12:39:55Z</time>
      </trkpt>
      <trkpt lat="43.55542" lon="3.86039">
        <ele>5</ele>
        <time>2021-01-01T12:39:56Z</time>
      </trkpt>
      <trkpt lat="43.5555" lon="3.86045">
        <ele>5</ele>
        <time>2021-01-01T12:39:58Z</time>
      </trkpt>
      <trkpt lat="43.55555" lon="3.86048">
        <ele>5</ele>
        <time>2021-01-01T12:39:59Z</time>
      </trkpt>
      <trkpt lat="43.55559" lon="3.8605">
        <ele>5</ele>
        <time>2021-01-01T12:40:00Z</time>
      </trkpt>
      <trkpt lat="43.5557" lon="3.86053">
        <ele>6</ele>
        <time>2021-01-01T12:40:02Z</time>
      </trkpt>
      <trkpt lat="43.55578" lon="3.86056">
        <ele>6</ele>
        <time>2021-01-01T12:40:04Z</time>
      </trkpt>
      <trkpt lat="43.55582" lon="3.86059">
        <ele>6</ele>
        <time>2021-01-01T12:40:05Z</time>
      </trkpt>
      <trkpt lat="43.55587" lon="3.86061">
        <ele>6</ele>
        <time>2021-01-01T12:40:06Z</time>
      </trkpt>
      <trkpt lat="43.55594" lon="3.86067">
        <ele>6</ele>
        <time>2021-01-01T12:40:08Z</time>
      </trkpt>
      <trkpt lat="43.55602" lon="3.8607">
        <ele>6</ele>
        <time>2021-01-01T12:40:10Z</time>
      </trkpt>
      <trkpt lat="43.55606" lon="3.86071">
        <ele>6</ele>
        <time>2021-01-01T12:40:11Z</time>
      </trkpt>
      <trkpt lat="43.55615" lon="3.8607">
        <ele>6</ele>
        <time>2021-01-01T12:40:13Z</time>
      </trkpt>
      <trkpt lat="43.55619" lon="3.86072">
        <ele>7</ele>
        <time>2021-01-01T12:40:14Z</time>
      </trkpt>
      <trkpt lat="43.55624" lon="3.86074">
        <ele>7</ele>
        <time>2021-01-01T12:40:15Z</time>
      </trkpt>
      <trkpt lat="43.55627" lon="3.86078">
        <ele>7</ele>
        <time>2021-01-01T12:40:16Z</time>
      </trkpt>
      <trkpt lat="43.55629" lon="3.86083">
        <ele>7</ele>
        <time>2021-01-01T12:40:17Z</time>
      </trkpt>
      <trkpt lat="43.55631" lon="3.8609">
        <ele>7</ele>
        <time>2021-01-01T12:40:18Z</time>
      </trkpt>
      <trkpt lat="43.55633" lon="3.86103">
        <ele>7</ele>
        <time>2021-01-01T12:40:20Z</time>
      </trkpt>
      <trkpt lat="43.55635" lon="3.86109">
        <ele>7</ele>
        <time>2021-01-01T12:40:21Z</time>
      </trkpt>
      <trkpt lat="43.55636" lon="3.86116">
        <ele>7</ele>
        <time>2021-01-01T12:40:22Z</time>
      </trkpt>
      <trkpt lat="43.55638" lon="3.86122">
        <ele>7</ele>
        <time>2021-01-01T12:40:23Z</time>
      </trkpt>
      <trkpt lat="43.55639" lon="3.86128">
        <ele>8</ele>
        <time>2021-01-01T12:40:24Z</time>
      </trkpt>
      <trkpt lat="43.55641" lon="3.86135">
        <ele>8</ele>
        <time>2021-01-01T12:40:25Z</time>
      </trkpt>
      <trkpt lat="43.55644" lon="3.86146">
        <ele>7</ele>
        <time>2021-01-01T12:40:27Z</time>
      </trkpt>
      <trkpt lat="43.55646" lon="3.86158">
        <ele>7</ele>
        <time>2021-01-01T12:40:29Z</time>
      </trkpt>
      <trkpt lat="43.55649" lon="3.8617">
        <ele>7</ele>
        <time>2021-01-01T12:40:31Z</time>
      </trkpt>
      <trkpt lat="43.55651" lon="3.86176">
        <ele>7</ele>
        <time>2021-01-01T12:40:32Z</time>
      </trkpt>
      <trkpt lat="43.55653" lon="3.86182">
        <ele>7</ele>
        <time>2021-01-01T12:40:33Z</time>
      </trkpt>
      <trkpt lat="43.55655" lon="3.86189">
        <ele>7</ele>
        <time>2021-01-01T12:40:34Z</time>
      </trkpt>
      <trkpt lat="43.55656" lon="3.86195">
        <ele>7</ele>
        <time>2021-01-01T12:40:35Z</time>
      </trkpt>
      <trkpt lat="43.55658" lon="3.86201">
        <ele>7</ele>
        <time>2021-01-01T12:40:36Z</time>
      </trkpt>
      <trkpt lat="43.5566" lon="3.86207">
        <ele>7</ele>
        <time>2021-01-01T12:40:37Z</time>
      </trkpt>
      <trkpt lat="43.55663" lon="3.86213">
        <ele>7</ele>
        <time>2021-01-01T12:40:38Z</time>
      </trkpt>
      <trkpt lat="43.55666" lon="3.86219">
        <ele>7</ele>
        <time>2021-01-01T12:40:39Z</time>
      </trkpt>
      <trkpt lat="43.55669" lon="3.86224">
        <ele>7</ele>
        <time>2021-01-01T12:40:40Z</time>
      </trkpt>
      <trkpt lat="43.55672" lon="3.8623">
        <ele>7</ele>
        <time>2021-01-01T12:40:41Z</time>
      </trkpt>
      <trkpt lat="43.55674" lon="3.86235">
        <ele>7</ele>
        <time>2021-01-01T12:40:42Z</time>
      </trkpt>
      <trkpt lat="43.55677" lon="3.86241">
        <ele>8</ele>
        <time>2021-01-01T12:40:43Z</time>
      </trkpt>
      <trkpt lat="43.55681" lon="3.86245">
        <ele>8</ele>
        <time>2021-01-01T12:40:44Z</time>
      </trkpt>
      <trkpt lat="43.55684" lon="3.86251">
        <ele>8</ele>
        <time>2021-01-01T12:40:45Z</time>
      </trkpt>
      <trkpt lat="43.55687" lon="3.86256">
        <ele>8</ele>
        <time>2021-01-01T12:40:46Z</time>
      </trkpt>
      <trkpt lat="43.5569" lon="3.8626">
        <ele>9</ele>
        <time>2021-01-01T12:40:47Z</time>
      </trkpt>
      <trkpt lat="43.55693" lon="3.86265">
        <ele>9</ele>
        <time>2021-01-01T12:40:48Z</time>
      </trkpt>
      <trkpt lat="43.55697" lon="3.86269">
        <ele>9</ele>
        <time>2021-01-01T12:40:49Z</time>
      </trkpt>
      <trkpt lat="43.557" lon="3.86273">
        <ele>9</ele>
        <time>2021-01-01T12:40:50Z</time>
      </trkpt>
      <trkpt lat="43.55703" lon="3.86278">
        <ele>9</ele>
        <time>2021-01-01T12:40:51Z</time>
      </trkpt>
      <trkpt lat="43.55707" lon="3.86283">
        <ele>9</ele>
        <time>2021-01-01T12:40:52Z</time>
      </trkpt>
      <trkpt lat="43.55711" lon="3.86287">
        <ele>9</ele>
        <time>2021-01-01T12:40:53Z</time>
      </trkpt>
      <trkpt lat="43.55714" lon="3.86292">
        <ele>9</ele>
        <time>2021-01-01T12:40:54Z</time>
      </trkpt>
      <trkpt lat="43.55719" lon="3.86298">
        <ele>9</ele>
        <time>2021-01-01T12:40:55Z</time>
      </trkpt>
      <trkpt lat="43.55723" lon="3.86302">
        <ele>8</ele>
        <time>2021-01-01T12:40:56Z</time>
      </trkpt>
      <trkpt lat="43.55727" lon="3.86307">
        <ele>8</ele>
        <time>2021-01-01T12:40:57Z</time>
      </trkpt>
      <trkpt lat="43.5573" lon="3.86312">
        <ele>8</ele>
        <time>2021-01-01T12:40:58Z</time>
      </trkpt>
      <trkpt lat="43.55734" lon="3.86316">
        <ele>8</ele>
        <time>2021-01-01T12:40:59Z</time>
      </trkpt>
      <trkpt lat="43.55738" lon="3.86322">
        <ele>8</ele>
        <time>2021-01-01T12:41:00Z</time>
      </trkpt>
      <trkpt lat="43.55741" lon="3.86328">
        <ele>8</ele>
        <time>2021-01-01T12:41:01Z</time>
      </trkpt>
      <trkpt lat="43.55745" lon="3.86333">
        <ele>8</ele>
        <time>2021-01-01T12:41:02Z</time>
      </trkpt>
      <trkpt lat="43.55748" lon="3.86337">
        <ele>9</ele>
        <time>2021-01-01T12:41:03Z</time>
      </trkpt>
      <trkpt lat="43.55753" lon="3.86343">
        <ele>9</ele>
        <time>2021-01-01T12:41:04Z</time>
      </trkpt>
      <trkpt lat="43.55756" lon="3.86347">
        <ele>9</ele>
        <time>2021-01-01T12:41:05Z</time>
      </trkpt>
      <trkpt lat="43.5576" lon="3.86351">
        <ele>9</ele>
        <time>2021-01-01T12:41:06Z</time>
      </trkpt>
      <trkpt lat="43.55766" lon="3.86359">
        <ele>10</ele>
        <time>2021-01-01T12:41:08Z</time>
      </trkpt>
      <trkpt lat="43.55771" lon="3.86363">
        <ele>10</ele>
        <time>2021-01-01T12:41:09Z</time>
      </trkpt>
      <trkpt lat="43.55775" lon="3.86368">
        <ele>10</ele>
        <time>2021-01-01T12:41:10Z</time>
      </trkpt>
      <trkpt lat="43.5578" lon="3.86374">
        <ele>10</ele>
        <time>2021-01-01T12:41:11Z</time>
      </trkpt>
      <trkpt lat="43.55784" lon="3.86379">
        <ele>11</ele>
        <time>2021-01-01T12:41:12Z</time>
      </trkpt>
      <trkpt lat="43.55789" lon="3.86385">
        <ele>11</ele>
        <time>2021-01-01T12:41:13Z</time>
      </trkpt>
      <trkpt lat="43.55792" lon="3.8639">
        <ele>11</ele>
        <time>2021-01-01T12:41:14Z</time>
      </trkpt>
      <trkpt lat="43.55797" lon="3.86396">
        <ele>10</ele>
        <time>2021-01-01T12:41:15Z</time>
      </trkpt>
      <trkpt lat="43.55801" lon="3.86401">
        <ele>10</ele>
        <time>2021-01-01T12:41:16Z</time>
      </trkpt>
      <trkpt lat="43.55806" lon="3.86407">
        <ele>10</ele>
        <time>2021-01-01T12:41:17Z</time>
      </trkpt>
      <trkpt lat="43.55811" lon="3.86412">
        <ele>10</ele>
        <time>2021-01-01T12:41:18Z</time>
      </trkpt>
      <trkpt lat="43.55816" lon="3.86418">
        <ele>10</ele>
        <time>2021-01-01T12:41:19Z</time>
      </trkpt>
      <trkpt lat="43.55821" lon="3.86423">
        <ele>9</ele>
        <time>2021-01-01T12:41:20Z</time>
      </trkpt>
      <trkpt lat="43.55826" lon="3.8643">
        <ele>9</ele>
        <time>2021-01-01T12:41:21Z</time>
      </trkpt>
      <trkpt lat="43.5583" lon="3.86436">
        <ele>9</ele>
        <time>2021-01-01T12:41:22Z</time>
      </trkpt>
      <trkpt lat="43.55834" lon="3.86442">
        <ele>9</ele>
        <time>2021-01-01T12:41:23Z</time>
      </trkpt>
      <trkpt lat="43.55839" lon="3.86448">
        <ele>8</ele>
        <time>2021-01-01T12:41:24Z</time>
      </trkpt>
      <trkpt lat="43.55844" lon="3.86455">
        <ele>8</ele>
        <time>2021-01-01T12:41:25Z</time>
      </trkpt>
      <trkpt lat="43.55848" lon="3.86461">
        <ele>8</ele>
        <time>2021-01-01T12:41:26Z</time>
      </trkpt>
      <trkpt lat="43.55853" lon="3.86467">
        <ele>8</ele>
        <time>2021-01-01T12:41:27Z</time>
      </trkpt>
      <trkpt lat="43.55857" lon="3.86473">
        <ele>8</ele>
        <time>2021-01-01T12:41:28Z</time>
      </trkpt>
      <trkpt lat="43.55862" lon="3.86478">
        <ele>8</ele>
        <time>2021-01-01T12:41:29Z</time>
      </trkpt>
      <trkpt lat="43.55867" lon="3.86484">
        <ele>9</ele>
        <time>2021-01-01T12:41:30Z</time>
      </trkpt>
      <trkpt lat="43.55871" lon="3.86489">
        <ele>9</ele>
        <time>2021-01-01T12:41:31Z</time>
      </trkpt>
      <trkpt lat="43.55876" lon="3.86496">
        <ele>10</ele>
        <time>2021-01-01T12:41:32Z</time>
      </trkpt>
      <trkpt lat="43.55881" lon="3.86502">
        <ele>10</ele>
        <time>2021-01-01T12:41:33Z</time>
      </trkpt>
      <trkpt lat="43.55885" lon="3.86509">
        <ele>10</ele>
        <time>2021-01-01T12:41:34Z</time>
      </trkpt>
      <trkpt lat="43.55889" lon="3.86515">
        <ele>10</ele>
        <time>2021-01-01T12:41:35Z</time>
      </trkpt>
      <trkpt lat="43.55894" lon="3.8652">
        <ele>10</ele>
        <time>2021-01-01T12:41:36Z</time>
      </trkpt>
      <trkpt lat="43.55899" lon="3.86526">
        <ele>10</ele>
        <time>2021-01-01T12:41:37Z</time>
      </trkpt>
      <trkpt lat="43.55903" lon="3.86531">
        <ele>11</ele>
        <time>2021-01-01T12:41:38Z</time>
      </trkpt>
      <trkpt lat="43.55909" lon="3.86536">
        <ele>11</ele>
        <time>2021-01-01T12:41:39Z</time>
      </trkpt>
      <trkpt lat="43.55915" lon="3.8654">
        <ele>11</ele>
        <time>2021-01-01T12:41:40Z</time>
      </trkpt>
      <trkpt lat="43.55921" lon="3.86544">
        <ele>11</ele>
        <time>2021-01-01T12:41:41Z</time>
      </trkpt>
      <trkpt lat="43.55927" lon="3.86548">
        <ele>11</ele>
        <time>2021-01-01T12:41:42Z</time>
      </trkpt>
      <trkpt lat="43.55933" lon="3.86551">
        <ele>11</ele>
        <time>2021-01-01T12:41:43Z</time>
      </trkpt>
      <trkpt lat="43.55939" lon="3.86555">
        <ele>11</ele>
        <time>2021-01-01T12:41:44Z</time>
      </trkpt>
      <trkpt lat="43.55944" lon="3.86559">
        <ele>11</ele>
        <time>2021-01-01T12:41:45Z</time>
      </trkpt>
      <trkpt lat="43.5595" lon="3.86563">
        <ele>11</ele>
        <time>2021-01-01T12:41:46Z</time>
      </trkpt>
      <trkpt lat="43.55956" lon="3.86567">
        <ele>11</ele>
        <time>2021-01-01T12:41:47Z</time>
      </trkpt>
      <trkpt lat="43.55961" lon="3.86571">
        <ele>11</ele>
        <time>2021-01-01T12:41:48Z</time>
      </trkpt>
      <trkpt lat="43.55966" lon="3.86574">
        <ele>11</ele>
        <time>2021-01-01T12:41:49Z</time>
      </trkpt>
      <trkpt lat="43.55973" lon="3.86577">
        <ele>10</ele>
        <time>2021-01-01T12:41:50Z</time>
      </trkpt>
      <trkpt lat="43.55978" lon="3.86581">
        <ele>10</ele>
        <time>2021-01-01T12:41:51Z</time>
      </trkpt>
      <trkpt lat="43.55984" lon="3.86585">
        <ele>11</ele>
        <time>2021-01-01T12:41:52Z</time>
      </trkpt>
      <trkpt lat="43.55989" lon="3.86588">
        <ele>11</ele>
        <time>2021-01-01T12:41:53Z</time>
      </trkpt>
      <trkpt lat="43.55994" lon="3.86592">
        <ele>11</ele>
        <time>2021-01-01T12:41:54Z</time>
      </trkpt>
      <trkpt lat="43.55999" lon="3.86596">
        <ele>11</ele>
        <time>2021-01-01T12:41:55Z</time>
      </trkpt>
      <trkpt lat="43.56005" lon="3.866">
        <ele>11</ele>
        <time>2021-01-01T12:41:56Z</time>
      </trkpt>
      <trkpt lat="43.5601" lon="3.86604">
        <ele>10</ele>
        <time>2021-01-01T12:41:57Z</time>
      </trkpt>
      <trkpt lat="43.56015" lon="3.86608">
        <ele>10</ele>
        <time>2021-01-01T12:41:58Z</time>
      </trkpt>
      <trkpt lat="43.56021" lon="3.86613">
        <ele>10</ele>
        <time>2021-01-01T12:41:59Z</time>
      </trkpt>
      <trkpt lat="43.56027" lon="3.86616">
        <ele>10</ele>
        <time>2021-01-01T12:42:00Z</time>
      </trkpt>
      <trkpt lat="43.56031" lon="3.86619">
        <ele>10</ele>
        <time>2021-01-01T12:42:01Z</time>
      </trkpt>
      <trkpt lat="43.56035" lon="3.86623">
        <ele>10</ele>
        <time>2021-01-01T12:42:02Z</time>
      </trkpt>
      <trkpt lat="43.5604" lon="3.86626">
        <ele>10</ele>
        <time>2021-01-01T12:42:03Z</time>
      </trkpt>
      <trkpt lat="43.56044" lon="3.86629">
        <ele>10</ele>
        <time>2021-01-01T12:42:04Z</time>
      </trkpt>
      <trkpt lat="43.56049" lon="3.86632">
        <ele>10</ele>
        <time>2021-01-01T12:42:05Z</time>
      </trkpt>
      <trkpt lat="43.56054" lon="3.86636">
        <ele>10</ele>
        <time>2021-01-01T12:42:06Z</time>
      </trkpt>
      <trkpt lat="43.56061" lon="3.86643">
        <ele>10</ele>
        <time>2021-01-01T12:42:08Z</time>
      </trkpt>
      <trkpt lat="43.56066" lon="3.86647">
        <ele>9</ele>
        <time>2021-01-01T12:42:09Z</time>
      </trkpt>
      <trkpt lat="43.5607" lon="3.8665">
        <ele>9</ele>
        <time>2021-01-01T12:42:10Z</time>
      </trkpt>
      <trkpt lat="43.56075" lon="3.86653">
        <ele>8</ele>
        <time>2021-01-01T12:42:11Z</time>
      </trkpt>
      <trkpt lat="43.5608" lon="3.86658">
        <ele>8</ele>
        <time>2021-01-01T12:42:12Z</time>
      </trkpt>
      <trkpt lat="43.56084" lon="3.86661">
        <ele>9</ele>
        <time>2021-01-01T12:42:13Z</time>
      </trkpt>
      <trkpt lat="43.56089" lon="3.86665">
        <ele>9</ele>
        <time>2021-01-01T12:42:14Z</time>
      </trkpt>
      <trkpt lat="43.56093" lon="3.86669">
        <ele>9</ele>
        <time>2021-01-01T12:42:15Z</time>
      </trkpt>
      <trkpt lat="43.56098" lon="3.86672">
        <ele>9</ele>
        <time>2021-01-01T12:42:16Z</time>
      </trkpt>
      <trkpt lat="43.56104" lon="3.86679">
        <ele>9</ele>
        <time>2021-01-01T12:42:18Z</time>
      </trkpt>
      <trkpt lat="43.56109" lon="3.86683">
        <ele>8</ele>
        <time>2021-01-01T12:42:19Z</time>
      </trkpt>
      <trkpt lat="43.56114" lon="3.86687">
        <ele>8</ele>
        <time>2021-01-01T12:42:20Z</time>
      </trkpt>
      <trkpt lat="43.5612" lon="3.86694">
        <ele>8</ele>
        <time>2021-01-01T12:42:22Z</time>
      </trkpt>
      <trkpt lat="43.56124" lon="3.86697">
        <ele>8</ele>
        <time>2021-01-01T12:42:23Z</time>
      </trkpt>
      <trkpt lat="43.5613" lon="3.867">
        <ele>8</ele>
        <time>2021-01-01T12:42:24Z</time>
      </trkpt>
      <trkpt lat="43.56134" lon="3.86703">
        <ele>9</ele>
        <time>2021-01-01T12:42:25Z</time>
      </trkpt>
      <trkpt lat="43.56144" lon="3.86706">
        <ele>9</ele>
        <time>2021-01-01T12:42:27Z</time>
      </trkpt>
      <trkpt lat="43.56149" lon="3.86708">
        <ele>9</ele>
        <time>2021-01-01T12:42:28Z</time>
      </trkpt>
      <trkpt lat="43.56155" lon="3.8671">
        <ele>9</ele>
        <time>2021-01-01T12:42:29Z</time>
      </trkpt>
      <trkpt lat="43.5616" lon="3.86711">
        <ele>10</ele>
        <time>2021-01-01T12:42:30Z</time>
      </trkpt>
      <trkpt lat="43.56166" lon="3.86713">
        <ele>10</ele>
        <time>2021-01-01T12:42:31Z</time>
      </trkpt>
      <trkpt lat="43.56173" lon="3.86714">
        <ele>10</ele>
        <time>2021-01-01T12:42:32Z</time>
      </trkpt>
      <trkpt lat="43.56178" lon="3.86715">
        <ele>11</ele>
        <time>2021-01-01T12:42:33Z</time>
      </trkpt>
      <trkpt lat="43.56185" lon="3.86716">
        <ele>11</ele>
        <time>2021-01-01T12:42:34Z</time>
      </trkpt>
      <trkpt lat="43.56192" lon="3.86717">
        <ele>11</ele>
        <time>2021-01-01T12:42:35Z</time>
      </trkpt>
      <trkpt lat="43.56197" lon="3.86719">
        <ele>11</ele>
        <time>2021-01-01T12:42:36Z</time>
      </trkpt>
      <trkpt lat="43.56205" lon="3.86719">
        <ele>11</ele>
        <time>2021-01-01T12:42:37Z</time>
      </trkpt>
      <trkpt lat="43.56211" lon="3.86721">
        <ele>10</ele>
        <time>2021-01-01T12:42:38Z</time>
      </trkpt>
      <trkpt lat="43.56217" lon="3.86724">
        <ele>9</ele>
        <time>2021-01-01T12:42:39Z</time>
      </trkpt>
      <trkpt lat="43.56224" lon="3.86727">
        <ele>9</ele>
        <time>2021-01-01T12:42:40Z</time>
      </trkpt>
      <trkpt lat="43.5623" lon="3.86729">
        <ele>8</ele>
        <time>2021-01-01T12:42:41Z</time>
      </trkpt>
      <trkpt lat="43.56236" lon="3.86732">
        <ele>8</ele>
        <time>2021-01-01T12:42:42Z</time>
      </trkpt>
      <trkpt lat="43.56241" lon="3.86734">
        <ele>7</ele>
        <time>2021-01-01T12:42:43Z</time>
      </trkpt>
      <trkpt lat="43.56247" lon="3.86738">
        <ele>7</ele>
        <time>2021-01-01T12:42:44Z</time>
      </trkpt>
      <trkpt lat="43.56254" lon="3.8674">
        <ele>7</ele>
        <time>2021-01-01T12:42:45Z</time>
      </trkpt>
      <trkpt lat="43.5626" lon="3.86744">
        <ele>7</ele>
        <time>2021-01-01T12:42:46Z</time>
      </trkpt>
      <trkpt lat="43.56265" lon="3.86747">
        <ele>7</ele>
        <time>2021-01-01T12:42:47Z</time>
      </trkpt>
      <trkpt lat="43.56271" lon="3.8675">
        <ele>7</ele>
        <time>2021-01-01T12:42:48Z</time>
      </trkpt>
      <trkpt lat="43.56279" lon="3.86755">
        <ele>7</ele>
        <time>2021-01-01T12:42:49Z</time>
      </trkpt>
      <trkpt lat="43.56285" lon="3.86759">
        <ele>7</ele>
        <time>2021-01-01T12:42:50Z</time>
      </trkpt>
      <trkpt lat="43.56292" lon="3.86763">
        <ele>7</ele>
        <time>2021-01-01T12:42:51Z</time>
      </trkpt>
      <trkpt lat="43.56297" lon="3.86767">
        <ele>7</ele>
        <time>2021-01-01T12:42:52Z</time>
      </trkpt>
      <trkpt lat="43.56303" lon="3.86771">
        <ele>7</ele>
        <time>2021-01-01T12:42:53Z</time>
      </trkpt>
      <trkpt lat="43.56309" lon="3.86775">
        <ele>7</ele>
        <time>2021-01-01T12:42:54Z</time>
      </trkpt>
      <trkpt lat="43.56316" lon="3.86778">
        <ele>6</ele>
        <time>2021-01-01T12:42:55Z</time>
      </trkpt>
      <trkpt lat="43.5632" lon="3.86782">
        <ele>6</ele>
        <time>2021-01-01T12:42:56Z</time>
      </trkpt>
      <trkpt lat="43.56326" lon="3.86785">
        <ele>6</ele>
        <time>2021-01-01T12:42:57Z</time>
      </trkpt>
      <trkpt lat="43.56331" lon="3.86789">
        <ele>6</ele>
        <time>2021-01-01T12:42:58Z</time>
      </trkpt>
      <trkpt lat="43.56337" lon="3.86793">
        <ele>6</ele>
        <time>2021-01-01T12:42:59Z</time>
      </trkpt>
      <trkpt lat="43.56343" lon="3.86795">
        <ele>6</ele>
        <time>2021-01-01T12:43:00Z</time>
      </trkpt>
      <trkpt lat="43.56347" lon="3.86798">
        <ele>7</ele>
        <time>2021-01-01T12:43:01Z</time>
      </trkpt>
      <trkpt lat="43.56353" lon="3.86801">
        <ele>7</ele>
        <time>2021-01-01T12:43:02Z</time>
      </trkpt>
      <trkpt lat="43.5636" lon="3.86805">
        <ele>7</ele>
        <time>2021-01-01T12:43:03Z</time>
      </trkpt>
      <trkpt lat="43.56365" lon="3.86808">
        <ele>8</ele>
        <time>2021-01-01T12:43:04Z</time>
      </trkpt>
      <trkpt lat="43.56371" lon="3.86812">
        <ele>8</ele>
        <time>2021-01-01T12:43:05Z</time>
      </trkpt>
      <trkpt lat="43.56376" lon="3.86815">
        <ele>8</ele>
        <time>2021-01-01T12:43:06Z</time>
      </trkpt>
      <trkpt lat="43.56382" lon="3.86819">
        <ele>8</ele>
        <time>2021-01-01T12:43:07Z</time>
      </trkpt>
      <trkpt lat="43.56388" lon="3.86823">
        <ele>9</ele>
        <time>2021-01-01T12:43:08Z</time>
      </trkpt>
      <trkpt lat="43.56393" lon="3.86826">
        <ele>9</ele>
        <time>2021-01-01T12:43:09Z</time>
      </trkpt>
      <trkpt lat="43.56399" lon="3.8683">
        <ele>9</ele>
        <time>2021-01-01T12:43:10Z</time>
      </trkpt>
      <trkpt lat="43.56405" lon="3.86834">
        <ele>9</ele>
        <time>2021-01-01T12:43:11Z</time>
      </trkpt>
      <trkpt lat="43.56411" lon="3.86838">
        <ele>10</ele>
        <time>2021-01-01T12:43:12Z</time>
      </trkpt>
      <trkpt lat="43.56416" lon="3.86842">
        <ele>10</ele>
        <time>2021-01-01T12:43:13Z</time>
      </trkpt>
      <trkpt lat="43.56422" lon="3.86845">
        <ele>10</ele>
        <time>2021-01-01T12:43:14Z</time>
      </trkpt>
      <trkpt lat="43.56427" lon="3.86848">
        <ele>10</ele>
        <time>2021-01-01T12:43:15Z</time>
      </trkpt>
      <trkpt lat="43.56434" lon="3.86851">
        <ele>10</ele>
        <time>2021-01-01T12:43:16Z</time>
      </trkpt>
      <trkpt lat="43.56439" lon="3.86855">
        <ele>10</ele>
        <time>2021-01-01T12:43:17Z</time>
      </trkpt>
      <trkpt lat="43.56445" lon="3.86858">
        <ele>10</ele>
        <time>2021-01-01T12:43:18Z</time>
      </trkpt>
      <trkpt lat="43.5645" lon="3.86862">
        <ele>10</ele>
        <time>2021-01-01T12:43:19Z</time>
      </trkpt>
      <trkpt lat="43.56456" lon="3.86865">
        <ele>9</ele>
        <time>2021-01-01T12:43:20Z</time>
      </trkpt>
      <trkpt lat="43.56462" lon="3.86867">
        <ele>9</ele>
        <time>2021-01-01T12:43:21Z</time>
      </trkpt>
      <trkpt lat="43.56468" lon="3.8687">
        <ele>9</ele>
        <time>2021-01-01T12:43:22Z</time>
      </trkpt>
      <trkpt lat="43.56474" lon="3.86874">
        <ele>9</ele>
        <time>2021-01-01T12:43:23Z</time>
      </trkpt>
      <trkpt lat="43.5648" lon="3.86877">
        <ele>9</ele>
        <time>2021-01-01T12:43:24Z</time>
      </trkpt>
      <trkpt lat="43.56485" lon="3.86881">
        <ele>9</ele>
        <time>2021-01-01T12:43:25Z</time>
      </trkpt>
      <trkpt lat="43.5649" lon="3.86885">
        <ele>9</ele>
        <time>2021-01-01T12:43:26Z</time>
      </trkpt>
      <trkpt lat="43.56495" lon="3.8689">
        <ele>9</ele>
        <time>2021-01-01T12:43:27Z</time>
      </trkpt>
      <trkpt lat="43.565" lon="3.86894">
        <ele>9</ele>
        <time>2021-01-01T12:43:28Z</time>
      </trkpt>
      <trkpt lat="43.56506" lon="3.86899">
        <ele>9</ele>
        <time>2021-01-01T12:43:29Z</time>
      </trkpt>
      <trkpt lat="43.56511" lon="3.86903">
        <ele>9</ele>
        <time>2021-01-01T12:43:30Z</time>
      </trkpt>
      <trkpt lat="43.56515" lon="3.86906">
        <ele>9</ele>
        <time>2021-01-01T12:43:31Z</time>
      </trkpt>
      <trkpt lat="43.56521" lon="3.8691">
        <ele>9</ele>
        <time>2021-01-01T12:43:32Z</time>
      </trkpt>
      <trkpt lat="43.56527" lon="3.86913">
        <ele>9</ele>
        <time>2021-01-01T12:43:33Z</time>
      </trkpt>
      <trkpt lat="43.56531" lon="3.86917">
        <ele>10</ele>
        <time>2021-01-01T12:43:34Z</time>
      </trkpt>
      <trkpt lat="43.56536" lon="3.86921">
        <ele>10</ele>
        <time>2021-01-01T12:43:35Z</time>
      </trkpt>
      <trkpt lat="43.56541" lon="3.86925">
        <ele>11</ele>
        <time>2021-01-01T12:43:36Z</time>
      </trkpt>
      <trkpt lat="43.56547" lon="3.86928">
        <ele>11</ele>
        <time>2021-01-01T12:43:37Z</time>
      </trkpt>
      <trkpt lat="43.56551" lon="3.86932">
        <ele>11</ele>
        <time>2021-01-01T12:43:38Z</time>
      </trkpt>
      <trkpt lat="43.56556" lon="3.86936">
        <ele>12</ele>
        <time>2021-01-01T12:43:39Z</time>
      </trkpt>
      <trkpt lat="43.56562" lon="3.86939">
        <ele>11</ele>
        <time>2021-01-01T12:43:40Z</time>
      </trkpt>
      <trkpt lat="43.56567" lon="3.86943">
        <ele>11</ele>
        <time>2021-01-01T12:43:41Z</time>
      </trkpt>
      <trkpt lat="43.56573" lon="3.86946">
        <ele>11</ele>
        <time>2021-01-01T12:43:42Z</time>
      </trkpt>
      <trkpt lat="43.56578" lon="3.8695">
        <ele>11</ele>
        <time>2021-01-01T12:43:43Z</time>
      </trkpt>
      <trkpt lat="43.56583" lon="3.86953">
        <ele>11</ele>
        <time>2021-01-01T12:43:44Z</time>
      </trkpt>
      <trkpt lat="43.56589" lon="3.86956">
        <ele>11</ele>
        <time>2021-01-01T12:43:45Z</time>
      </trkpt>
      <trkpt lat="43.56595" lon="3.86959">
        <ele>11</ele>
        <time>2021-01-01T12:43:46Z</time>
      </trkpt>
      <trkpt lat="43.56601" lon="3.86962">
        <ele>11</ele>
        <time>2021-01-01T12:43:47Z</time>
      </trkpt>
      <trkpt lat="43.56606" lon="3.86965">
        <ele>11</ele>
        <time>2021-01-01T12:43:48Z</time>
      </trkpt>
      <trkpt lat="43.56611" lon="3.86968">
        <ele>11</ele>
        <time>2021-01-01T12:43:49Z</time>
      </trkpt>
      <trkpt lat="43.56617" lon="3.86972">
        <ele>11</ele>
        <time>2021-01-01T12:43:50Z</time>
      </trkpt>
      <trkpt lat="43.56622" lon="3.86974">
        <ele>10</ele>
        <time>2021-01-01T12:43:51Z</time>
      </trkpt>
      <trkpt lat="43.56627" lon="3.86977">
        <ele>10</ele>
        <time>2021-01-01T12:43:52Z</time>
      </trkpt>
      <trkpt lat="43.56632" lon="3.86981">
        <ele>10</ele>
        <time>2021-01-01T12:43:53Z</time>
      </trkpt>
      <trkpt lat="43.56636" lon="3.86983">
        <ele>10</ele>
        <time>2021-01-01T12:43:54Z</time>
      </trkpt>
      <trkpt lat="43.56646" lon="3.86987">
        <ele>10</ele>
        <time>2021-01-01T12:43:56Z</time>
      </trkpt>
      <trkpt lat="43.5665" lon="3.86989">
        <ele>10</ele>
        <time>2021-01-01T12:43:57Z</time>
      </trkpt>
      <trkpt lat="43.56658" lon="3.86994">
        <ele>10</ele>
        <time>2021-01-01T12:43:59Z</time>
      </trkpt>
      <trkpt lat="43.56661" lon="3.87004">
        <ele>10</ele>
        <time>2021-01-01T12:44:01Z</time>
      </trkpt>
      <trkpt lat="43.56657" lon="3.87013">
        <ele>10</ele>
        <time>2021-01-01T12:44:03Z</time>
      </trkpt>
      <trkpt lat="43.5665" lon="3.87019">
        <ele>10</ele>
        <time>2021-01-01T12:44:05Z</time>
      </trkpt>
      <trkpt lat="43.56643" lon="3.87024">
        <ele>10</ele>
        <time>2021-01-01T12:44:07Z</time>
      </trkpt>
      <trkpt lat="43.56635" lon="3.87027">
        <ele>10</ele>
        <time>2021-01-01T12:44:09Z</time>
      </trkpt>
      <trkpt lat="43.56627" lon="3.87031">
        <ele>10</ele>
        <time>2021-01-01T12:44:11Z</time>
      </trkpt>
      <trkpt lat="43.56622" lon="3.87033">
        <ele>10</ele>
        <time>2021-01-01T12:44:12Z</time>
      </trkpt>
      <trkpt lat="43.56613" lon="3.87038">
        <ele>10</ele>
        <time>2021-01-01T12:44:14Z</time>
      </trkpt>
      <trkpt lat="43.56609" lon="3.87041">
        <ele>10</ele>
        <time>2021-01-01T12:44:15Z</time>
      </trkpt>
      <trkpt lat="43.56604" lon="3.87044">
        <ele>10</ele>
        <time>2021-01-01T12:44:16Z</time>
      </trkpt>
      <trkpt lat="43.566" lon="3.87048">
        <ele>11</ele>
        <time>2021-01-01T12:44:17Z</time>
      </trkpt>
      <trkpt lat="43.56595" lon="3.8705">
        <ele>11</ele>
        <time>2021-01-01T12:44:18Z</time>
      </trkpt>
      <trkpt lat="43.5659" lon="3.87053">
        <ele>11</ele>
        <time>2021-01-01T12:44:19Z</time>
      </trkpt>
      <trkpt lat="43.56586" lon="3.87057">
        <ele>12</ele>
        <time>2021-01-01T12:44:20Z</time>
      </trkpt>
      <trkpt lat="43.56578" lon="3.87063">
        <ele>12</ele>
        <time>2021-01-01T12:44:22Z</time>
      </trkpt>
      <trkpt lat="43.56574" lon="3.87066">
        <ele>11</ele>
        <time>2021-01-01T12:44:23Z</time>
      </trkpt>
      <trkpt lat="43.56569" lon="3.8707">
        <ele>11</ele>
        <time>2021-01-01T12:44:24Z</time>
      </trkpt>
      <trkpt lat="43.56564" lon="3.87074">
        <ele>10</ele>
        <time>2021-01-01T12:44:25Z</time>
      </trkpt>
      <trkpt lat="43.5656" lon="3.87077">
        <ele>10</ele>
        <time>2021-01-01T12:44:26Z</time>
      </trkpt>
      <trkpt lat="43.56556" lon="3.87081">
        <ele>9</ele>
        <time>2021-01-01T12:44:27Z</time>
      </trkpt>
      <trkpt lat="43.56551" lon="3.87083">
        <ele>9</ele>
        <time>2021-01-01T12:44:28Z</time>
      </trkpt>
      <trkpt lat="43.56546" lon="3.87086">
        <ele>9</ele>
        <time>2021-01-01T12:44:29Z</time>
      </trkpt>
      <trkpt lat="43.56541" lon="3.8709">
        <ele>10</ele>
        <time>2021-01-01T12:44:30Z</time>
      </trkpt>
      <trkpt lat="43.56537" lon="3.87093">
        <ele>10</ele>
        <time>2021-01-01T12:44:31Z</time>
      </trkpt>
      <trkpt lat="43.56532" lon="3.87096">
        <ele>9</ele>
        <time>2021-01-01T12:44:32Z</time>
      </trkpt>
      <trkpt lat="43.56528" lon="3.87099">
        <ele>9</ele>
        <time>2021-01-01T12:44:33Z</time>
      </trkpt>
      <trkpt lat="43.56524" lon="3.87101">
        <ele>9</ele>
        <time>2021-01-01T12:44:34Z</time>
      </trkpt>
      <trkpt lat="43.56519" lon="3.87104">
        <ele>9</ele>
        <time>2021-01-01T12:44:35Z</time>
      </trkpt>
      <trkpt lat="43.56514" lon="3.87107">
        <ele>9</ele>
        <time>2021-01-01T12:44:36Z</time>
      </trkpt>
      <trkpt lat="43.5651" lon="3.8711">
        <ele>9</ele>
        <time>2021-01-01T12:44:37Z</time>
      </trkpt>
      <trkpt lat="43.56505" lon="3.87113">
        <ele>10</ele>
        <time>2021-01-01T12:44:38Z</time>
      </trkpt>
      <trkpt lat="43.56498" lon="3.87118">
        <ele>10</ele>
        <time>2021-01-01T12:44:40Z</time>
      </trkpt>
      <trkpt lat="43.56493" lon="3.8712">
        <ele>10</ele>
        <time>2021-01-01T12:44:41Z</time>
      </trkpt>
      <trkpt lat="43.56488" lon="3.87122">
        <ele>10</ele>
        <time>2021-01-01T12:44:42Z</time>
      </trkpt>
      <trkpt lat="43.56484" lon="3.87125">
        <ele>11</ele>
        <time>2021-01-01T12:44:43Z</time>
      </trkpt>
      <trkpt lat="43.5648" lon="3.87127">
        <ele>11</ele>
        <time>2021-01-01T12:44:44Z</time>
      </trkpt>
      <trkpt lat="43.56475" lon="3.87128">
        <ele>11</ele>
        <time>2021-01-01T12:44:45Z</time>
      </trkpt>
      <trkpt lat="43.56471" lon="3.8713">
        <ele>11</ele>
        <time>2021-01-01T12:44:46Z</time>
      </trkpt>
      <trkpt lat="43.56466" lon="3.87131">
        <ele>11</ele>
        <time>2021-01-01T12:44:47Z</time>
      </trkpt>
      <trkpt lat="43.56457" lon="3.87133">
        <ele>11</ele>
        <time>2021-01-01T12:44:49Z</time>
      </trkpt>
      <trkpt lat="43.56448" lon="3.87133">
        <ele>11</ele>
        <time>2021-01-01T12:44:51Z</time>
      </trkpt>
      <trkpt lat="43.56443" lon="3.87135">
        <ele>11</ele>
        <time>2021-01-01T12:44:52Z</time>
      </trkpt>
      <trkpt lat="43.56435" lon="3.87137">
        <ele>11</ele>
        <time>2021-01-01T12:44:54Z</time>
      </trkpt>
      <trkpt lat="43.56429" lon="3.87137">
        <ele>11</ele>
        <time>2021-01-01T12:44:55Z</time>
      </trkpt>
      <trkpt lat="43.56421" lon="3.8714">
        <ele>11</ele>
        <time>2021-01-01T12:44:57Z</time>
      </trkpt>
      <trkpt lat="43.56413" lon="3.87142">
        <ele>11</ele>
        <time>2021-01-01T12:44:59Z</time>
      </trkpt>
      <trkpt lat="43.56405" lon="3.87145">
        <ele>11</ele>
        <time>2021-01-01T12:45:01Z</time>
      </trkpt>
      <trkpt lat="43.56396" lon="3.87146">
        <ele>11</ele>
        <time>2021-01-01T12:45:03Z</time>
      </trkpt>
      <trkpt lat="43.56389" lon="3.87148">
        <ele>11</ele>
        <time>2021-01-01T12:45:05Z</time>
      </trkpt>
      <trkpt lat="43.56381" lon="3.87151">
        <ele>11</ele>
        <time>2021-01-01T12:45:07Z</time>
      </trkpt>
      <trkpt lat="43.56374" lon="3.87154">
        <ele>11</ele>
        <time>2021-01-01T12:45:09Z</time>
      </trkpt>
      <trkpt lat="43.56366" lon="3.87156">
        <ele>12</ele>
        <time>2021-01-01T12:45:11Z</time>
      </trkpt>
      <trkpt lat="43.56361" lon="3.87162">
        <ele>12</ele>
        <time>2021-01-01T12:45:13Z</time>
      </trkpt>
      <trkpt lat="43.56358" lon="3.8717">
        <ele>12</ele>
        <time>2021-01-01T12:45:15Z</time>
      </trkpt>
      <trkpt lat="43.56359" lon="3.87176">
        <ele>12</ele>
        <time>2021-01-01T12:45:17Z</time>
      </trkpt>
      <trkpt lat="43.56364" lon="3.87173">
        <ele>12</ele>
        <time>2021-01-01T12:45:20Z</time>
      </trkpt>
      <trkpt lat="43.56369" lon="3.87171">
        <ele>12</ele>
        <time>2021-01-01T12:45:22Z</time>
      </trkpt>
      <trkpt lat="43.56376" lon="3.87176">
        <ele>12</ele>
        <time>2021-01-01T12:45:24Z</time>
      </trkpt>
      <trkpt lat="43.56381" lon="3.87184">
        <ele>12</ele>
        <time>2021-01-01T12:45:26Z</time>
      </trkpt>
      <trkpt lat="43.56385" lon="3.87194">
        <ele>12</ele>
        <time>2021-01-01T12:45:28Z</time>
      </trkpt>
      <trkpt lat="43.56389" lon="3.87202">
        <ele>12</ele>
        <time>2021-01-01T12:45:30Z</time>
      </trkpt>
      <trkpt lat="43.56393" lon="3.87209">
        <ele>11</ele>
        <time>2021-01-01T12:45:32Z</time>
      </trkpt>
      <trkpt lat="43.56397" lon="3.87215">
        <ele>11</ele>
        <time>2021-01-01T12:45:34Z</time>
      </trkpt>
      <trkpt lat="43.56402" lon="3.8722">
        <ele>11</ele>
        <time>2021-01-01T12:45:36Z</time>
      </trkpt>
      <trkpt lat="43.56408" lon="3.87225">
        <ele>11</ele>
        <time>2021-01-01T12:45:38Z</time>
      </trkpt>
      <trkpt lat="43.56413" lon="3.87233">
        <ele>11</ele>
        <time>2021-01-01T12:45:40Z</time>
      </trkpt>
      <trkpt lat="43.56416" lon="3.87239">
        <ele>10</ele>
        <time>2021-01-01T12:45:42Z</time>
      </trkpt>
      <trkpt lat="43.5642" lon="3.87246">
        <ele>10</ele>
        <time>2021-01-01T12:45:44Z</time>
      </trkpt>
      <trkpt lat="43.56426" lon="3.87253">
        <ele>10</ele>
        <time>2021-01-01T12:45:46Z</time>
      </trkpt>
      <trkpt lat="43.5643" lon="3.87257">
        <ele>10</ele>
        <time>2021-01-01T12:45:47Z</time>
      </trkpt>
      <trkpt lat="43.56432" lon="3.87263">
        <ele>10</ele>
        <time>2021-01-01T12:45:48Z</time>
      </trkpt>
      <trkpt lat="43.56434" lon="3.87269">
        <ele>10</ele>
        <time>2021-01-01T12:45:49Z</time>
      </trkpt>
      <trkpt lat="43.56435" lon="3.87276">
        <ele>11</ele>
        <time>2021-01-01T12:45:50Z</time>
      </trkpt>
      <trkpt lat="43.56436" lon="3.87283">
        <ele>11</ele>
        <time>2021-01-01T12:45:51Z</time>
      </trkpt>
      <trkpt lat="43.56438" lon="3.87293">
        <ele>11</ele>
        <time>2021-01-01T12:45:52Z</time>
      </trkpt>
      <trkpt lat="43.5644" lon="3.873">
        <ele>12</ele>
        <time>2021-01-01T12:45:53Z</time>
      </trkpt>
      <trkpt lat="43.56442" lon="3.87306">
        <ele>13</ele>
        <time>2021-01-01T12:45:54Z</time>
      </trkpt>
      <trkpt lat="43.56443" lon="3.87312">
        <ele>13</ele>
        <time>2021-01-01T12:45:55Z</time>
      </trkpt>
      <trkpt lat="43.56445" lon="3.87318">
        <ele>14</ele>
        <time>2021-01-01T12:45:56Z</time>
      </trkpt>
      <trkpt lat="43.56447" lon="3.87326">
        <ele>14</ele>
        <time>2021-01-01T12:45:57Z</time>
      </trkpt>
      <trkpt lat="43.56447" lon="3.87338">
        <ele>14</ele>
        <time>2021-01-01T12:45:59Z</time>
      </trkpt>
      <trkpt lat="43.56448" lon="3.87345">
        <ele>14</ele>
        <time>2021-01-01T12:46:00Z</time>
      </trkpt>
      <trkpt lat="43.5645" lon="3.87351">
        <ele>14</ele>
        <time>2021-01-01T12:46:01Z</time>
      </trkpt>
      <trkpt lat="43.56451" lon="3.87358">
        <ele>14</ele>
        <time>2021-01-01T12:46:02Z</time>
      </trkpt>
      <trkpt lat="43.56452" lon="3.87365">
        <ele>15</ele>
        <time>2021-01-01T12:46:03Z</time>
      </trkpt>
      <trkpt lat="43.56455" lon="3.87376">
        <ele>15</ele>
        <time>2021-01-01T12:46:05Z</time>
      </trkpt>
      <trkpt lat="43.56457" lon="3.87386">
        <ele>15</ele>
        <time>2021-01-01T12:46:07Z</time>
      </trkpt>
      <trkpt lat="43.56459" lon="3.87396">
        <ele>16</ele>
        <time>2021-01-01T12:46:09Z</time>
      </trkpt>
      <trkpt lat="43.56461" lon="3.87403">
        <ele>17</ele>
        <time>2021-01-01T12:46:11Z</time>
      </trkpt>
      <trkpt lat="43.56462" lon="3.87411">
        <ele>17</ele>
        <time>2021-01-01T12:46:13Z</time>
      </trkpt>
      <trkpt lat="43.56465" lon="3.87422">
        <ele>18</ele>
        <time>2021-01-01T12:46:15Z</time>
      </trkpt>
      <trkpt lat="43.56466" lon="3.87428">
        <ele>18</ele>
        <time>2021-01-01T12:46:16Z</time>
      </trkpt>
      <trkpt lat="43.56468" lon="3.87439">
        <ele>18</ele>
        <time>2021-01-01T12:46:18Z</time>
      </trkpt>
      <trkpt lat="43.56469" lon="3.87447">
        <ele>18</ele>
        <time>2021-01-01T12:46:19Z</time>
      </trkpt>
      <trkpt lat="43.56471" lon="3.87458">
        <ele>17</ele>
        <time>2021-01-01T12:46:21Z</time>
      </trkpt>
      <trkpt lat="43.56472" lon="3.87467">
        <ele>17</ele>
        <time>2021-01-01T12:46:23Z</time>
      </trkpt>
      <trkpt lat="43.56471" lon="3.87476">
        <ele>16</ele>
        <time>2021-01-01T12:46:26Z</time>
      </trkpt>
      <trkpt lat="43.56476" lon="3.87479">
        <ele>16</ele>
        <time>2021-01-01T12:46:30Z</time>
      </trkpt>
      <trkpt lat="43.56483" lon="3.87484">
        <ele>15</ele>
        <time>2021-01-01T12:46:33Z</time>
      </trkpt>
      <trkpt lat="43.56489" lon="3.87491">
        <ele>15</ele>
        <time>2021-01-01T12:46:35Z</time>
      </trkpt>
      <trkpt lat="43.56491" lon="3.87499">
        <ele>15</ele>
        <time>2021-01-01T12:46:36Z</time>
      </trkpt>
      <trkpt lat="43.56494" lon="3.87508">
        <ele>15</ele>
        <time>2021-01-01T12:46:38Z</time>
      </trkpt>
      <trkpt lat="43.56496" lon="3.87519">
        <ele>15</ele>
        <time>2021-01-01T12:46:40Z</time>
      </trkpt>
      <trkpt lat="43.565" lon="3.87529">
        <ele>15</ele>
        <time>2021-01-01T12:46:42Z</time>
      </trkpt>
      <trkpt lat="43.56502" lon="3.87535">
        <ele>15</ele>
        <time>2021-01-01T12:46:43Z</time>
      </trkpt>
      <trkpt lat="43.56505" lon="3.87542">
        <ele>15</ele>
        <time>2021-01-01T12:46:44Z</time>
      </trkpt>
      <trkpt lat="43.56508" lon="3.87547">
        <ele>15</ele>
        <time>2021-01-01T12:46:45Z</time>
      </trkpt>
      <trkpt lat="43.5651" lon="3.87553">
        <ele>15</ele>
        <time>2021-01-01T12:46:46Z</time>
      </trkpt>
      <trkpt lat="43.56513" lon="3.87559">
        <ele>15</ele>
        <time>2021-01-01T12:46:47Z</time>
      </trkpt>
      <trkpt lat="43.56516" lon="3.87566">
        <ele>14</ele>
        <time>2021-01-01T12:46:48Z</time>
      </trkpt>
      <trkpt lat="43.56518" lon="3.87573">
        <ele>14</ele>
        <time>2021-01-01T12:46:49Z</time>
      </trkpt>
      <trkpt lat="43.56521" lon="3.8758">
        <ele>14</ele>
        <time>2021-01-01T12:46:50Z</time>
      </trkpt>
      <trkpt lat="43.56522" lon="3.87589">
        <ele>13</ele>
        <time>2021-01-01T12:46:51Z</time>
      </trkpt>
      <trkpt lat="43.56522" lon="3.87598">
        <ele>13</ele>
        <time>2021-01-01T12:46:52Z</time>
      </trkpt>
      <trkpt lat="43.56522" lon="3.87608">
        <ele>13</ele>
        <time>2021-01-01T12:46:53Z</time>
      </trkpt>
      <trkpt lat="43.56522" lon="3.87618">
        <ele>12</ele>
        <time>2021-01-01T12:46:54Z</time>
      </trkpt>
      <trkpt lat="43.56522" lon="3.87627">
        <ele>12</ele>
        <time>2021-01-01T12:46:55Z</time>
      </trkpt>
      <trkpt lat="43.56522" lon="3.87637">
        <ele>12</ele>
        <time>2021-01-01T12:46:56Z</time>
      </trkpt>
      <trkpt lat="43.56524" lon="3.87647">
        <ele>12</ele>
        <time>2021-01-01T12:46:57Z</time>
      </trkpt>
      <trkpt lat="43.56525" lon="3.87656">
        <ele>12</ele>
        <time>2021-01-01T12:46:58Z</time>
      </trkpt>
      <trkpt lat="43.56526" lon="3.87665">
        <ele>11</ele>
        <time>2021-01-01T12:46:59Z</time>
      </trkpt>
      <trkpt lat="43.56528" lon="3.87674">
        <ele>11</ele>
        <time>2021-01-01T12:47:00Z</time>
      </trkpt>
      <trkpt lat="43.56531" lon="3.87683">
        <ele>11</ele>
        <time>2021-01-01T12:47:01Z</time>
      </trkpt>
      <trkpt lat="43.56534" lon="3.87691">
        <ele>10</ele>
        <time>2021-01-01T12:47:02Z</time>
      </trkpt>
      <trkpt lat="43.56537" lon="3.87699">
        <ele>9</ele>
        <time>2021-01-01T12:47:03Z</time>
      </trkpt>
      <trkpt lat="43.56541" lon="3.87707">
        <ele>9</ele>
        <time>2021-01-01T12:47:04Z</time>
      </trkpt>
      <trkpt lat="43.56544" lon="3.87715">
        <ele>9</ele>
        <time>2021-01-01T12:47:05Z</time>
      </trkpt>
      <trkpt lat="43.56547" lon="3.87723">
        <ele>8</ele>
        <time>2021-01-01T12:47:06Z</time>
      </trkpt>
      <trkpt lat="43.56549" lon="3.87732">
        <ele>8</ele>
        <time>2021-01-01T12:47:07Z</time>
      </trkpt>
      <trkpt lat="43.56551" lon="3.87741">
        <ele>8</ele>
        <time>2021-01-01T12:47:08Z</time>
      </trkpt>
      <trkpt lat="43.56551" lon="3.87749">
        <ele>8</ele>
        <time>2021-01-01T12:47:09Z</time>
      </trkpt>
      <trkpt lat="43.56553" lon="3.87758">
        <ele>8</ele>
        <time>2021-01-01T12:47:10Z</time>
      </trkpt>
      <trkpt lat="43.56554" lon="3.87767">
        <ele>8</ele>
        <time>2021-01-01T12:47:11Z</time>
      </trkpt>
      <trkpt lat="43.56555" lon="3.87776">
        <ele>8</ele>
        <time>2021-01-01T12:47:12Z</time>
      </trkpt>
      <trkpt lat="43.56556" lon="3.87785">
        <ele>8</ele>
        <time>2021-01-01T12:47:13Z</time>
      </trkpt>
      <trkpt lat="43.56556" lon="3.87793">
        <ele>8</ele>
        <time>2021-01-01T12:47:14Z</time>
      </trkpt>
      <trkpt lat="43.56556" lon="3.87804">
        <ele>8</ele>
        <time>2021-01-01T12:47:15Z</time>
      </trkpt>
      <trkpt lat="43.56554" lon="3.87812">
        <ele>7</ele>
        <time>2021-01-01T12:47:16Z</time>
      </trkpt>
      <trkpt lat="43.56555" lon="3.8782">
        <ele>7</ele>
        <time>2021-01-01T12:47:17Z</time>
      </trkpt>
      <trkpt lat="43.56555" lon="3.87829">
        <ele>7</ele>
        <time>2021-01-01T12:47:18Z</time>
      </trkpt>
      <trkpt lat="43.56557" lon="3.87837">
        <ele>7</ele>
        <time>2021-01-01T12:47:19Z</time>
      </trkpt>
      <trkpt lat="43.5656" lon="3.87845">
        <ele>6</ele>
        <time>2021-01-01T12:47:20Z</time>
      </trkpt>
      <trkpt lat="43.56564" lon="3.87854">
        <ele>6</ele>
        <time>2021-01-01T12:47:21Z</time>
      </trkpt>
      <trkpt lat="43.56568" lon="3.87861">
        <ele>6</ele>
        <time>2021-01-01T12:47:22Z</time>
      </trkpt>
      <trkpt lat="43.56572" lon="3.87866">
        <ele>6</ele>
        <time>2021-01-01T12:47:23Z</time>
      </trkpt>
      <trkpt lat="43.56575" lon="3.87871">
        <ele>5</ele>
        <time>2021-01-01T12:47:24Z</time>
      </trkpt>
      <trkpt lat="43.56582" lon="3.87876">
        <ele>5</ele>
        <time>2021-01-01T12:47:26Z</time>
      </trkpt>
      <trkpt lat="43.56586" lon="3.87881">
        <ele>5</ele>
        <time>2021-01-01T12:47:29Z</time>
      </trkpt>
      <trkpt lat="43.56591" lon="3.87882">
        <ele>4</ele>
        <time>2021-01-01T12:47:32Z</time>
      </trkpt>
      <trkpt lat="43.56597" lon="3.87881">
        <ele>4</ele>
        <time>2021-01-01T12:47:35Z</time>
      </trkpt>
      <trkpt lat="43.56603" lon="3.87876">
        <ele>4</ele>
        <time>2021-01-01T12:47:37Z</time>
      </trkpt>
      <trkpt lat="43.56607" lon="3.87871">
        <ele>4</ele>
        <time>2021-01-01T12:47:39Z</time>
      </trkpt>
      <trkpt lat="43.56612" lon="3.87869">
        <ele>4</ele>
        <time>2021-01-01T12:47:41Z</time>
      </trkpt>
      <trkpt lat="43.56616" lon="3.87873">
        <ele>5</ele>
        <time>2021-01-01T12:47:43Z</time>
      </trkpt>
      <trkpt lat="43.5662" lon="3.8788">
        <ele>5</ele>
        <time>2021-01-01T12:47:45Z</time>
      </trkpt>
      <trkpt lat="43.56624" lon="3.8789">
        <ele>6</ele>
        <time>2021-01-01T12:47:47Z</time>
      </trkpt>
      <trkpt lat="43.5663" lon="3.87894">
        <ele>6</ele>
        <time>2021-01-01T12:47:48Z</time>
      </trkpt>
      <trkpt lat="43.56636" lon="3.87898">
        <ele>5</ele>
        <time>2021-01-01T12:47:50Z</time>
      </trkpt>
      <trkpt lat="43.56642" lon="3.87907">
        <ele>5</ele>
        <time>2021-01-01T12:47:52Z</time>
      </trkpt>
      <trkpt lat="43.5664" lon="3.87916">
        <ele>5</ele>
        <time>2021-01-01T12:47:54Z</time>
      </trkpt>
      <trkpt lat="43.56639" lon="3.87923">
        <ele>5</ele>
        <time>2021-01-01T12:47:55Z</time>
      </trkpt>
      <trkpt lat="43.56638" lon="3.87929">
        <ele>4</ele>
        <time>2021-01-01T12:47:56Z</time>
      </trkpt>
      <trkpt lat="43.56637" lon="3.87936">
        <ele>4</ele>
        <time>2021-01-01T12:47:57Z</time>
      </trkpt>
      <trkpt lat="43.56636" lon="3.87942">
        <ele>4</ele>
        <time>2021-01-01T12:47:58Z</time>
      </trkpt>
      <trkpt lat="43.56633" lon="3.87948">
        <ele>4</ele>
        <time>2021-01-01T12:47:59Z</time>
      </trkpt>
      <trkpt lat="43.56629" lon="3.87953">
        <ele>4</ele>
        <time>2021-01-01T12:48:00Z</time>
      </trkpt>
      <trkpt lat="43.56625" lon="3.87958">
        <ele>4</ele>
        <time>2021-01-01T12:48:01Z</time>
      </trkpt>
      <trkpt lat="43.56622" lon="3.87963">
        <ele>4</ele>
        <time>2021-01-01T12:48:02Z</time>
      </trkpt>
      <trkpt lat="43.5662" lon="3.87969">
        <ele>4</ele>
        <time>2021-01-01T12:48:03Z</time>
      </trkpt>
      <trkpt lat="43.56621" lon="3.87981">
        <ele>4</ele>
        <time>2021-01-01T12:48:05Z</time>
      </trkpt>
      <trkpt lat="43.56625" lon="3.87992">
        <ele>4</ele>
        <time>2021-01-01T12:48:07Z</time>
      </trkpt>
      <trkpt lat="43.56631" lon="3.88003">
        <ele>4</ele>
        <time>2021-01-01T12:48:09Z</time>
      </trkpt>
      <trkpt lat="43.56635" lon="3.88007">
        <ele>4</ele>
        <time>2021-01-01T12:48:10Z</time>
      </trkpt>
      <trkpt lat="43.56639" lon="3.88013">
        <ele>5</ele>
        <time>2021-01-01T12:48:11Z</time>
      </trkpt>
      <trkpt lat="43.56642" lon="3.88018">
        <ele>5</ele>
        <time>2021-01-01T12:48:12Z</time>
      </trkpt>
      <trkpt lat="43.56645" lon="3.88024">
        <ele>5</ele>
        <time>2021-01-01T12:48:13Z</time>
      </trkpt>
      <trkpt lat="43.56648" lon="3.88029">
        <ele>6</ele>
        <time>2021-01-01T12:48:14Z</time>
      </trkpt>
      <trkpt lat="43.56651" lon="3.88034">
        <ele>6</ele>
        <time>2021-01-01T12:48:15Z</time>
      </trkpt>
      <trkpt lat="43.56654" lon="3.8804">
        <ele>6</ele>
        <time>2021-01-01T12:48:16Z</time>
      </trkpt>
      <trkpt lat="43.56659" lon="3.88049">
        <ele>6</ele>
        <time>2021-01-01T12:48:18Z</time>
      </trkpt>
      <trkpt lat="43.56666" lon="3.88055">
        <ele>6</ele>
        <time>2021-01-01T12:48:20Z</time>
      </trkpt>
      <trkpt lat="43.56673" lon="3.88062">
        <ele>6</ele>
        <time>2021-01-01T12:48:22Z</time>
      </trkpt>
      <trkpt lat="43.56678" lon="3.88071">
        <ele>6</ele>
        <time>2021-01-01T12:48:24Z</time>
      </trkpt>
      <trkpt lat="43.56684" lon="3.88079">
        <ele>6</ele>
        <time>2021-01-01T12:48:26Z</time>
      </trkpt>
      <trkpt lat="43.5669" lon="3.88088">
        <ele>6</ele>
        <time>2021-01-01T12:48:28Z</time>
      </trkpt>
      <trkpt lat="43.56693" lon="3.88093">
        <ele>6</ele>
        <time>2021-01-01T12:48:29Z</time>
      </trkpt>
      <trkpt lat="43.56697" lon="3.88098">
        <ele>6</ele>
        <time>2021-01-01T12:48:30Z</time>
      </trkpt>
      <trkpt lat="43.56701" lon="3.88103">
        <ele>6</ele>
        <time>2021-01-01T12:48:31Z</time>
      </trkpt>
      <trkpt lat="43.56703" lon="3.88109">
        <ele>6</ele>
        <time>2021-01-01T12:48:32Z</time>
      </trkpt>
      <trkpt lat="43.56706" lon="3.88114">
        <ele>6</ele>
        <time>2021-01-01T12:48:33Z</time>
      </trkpt>
      <trkpt lat="43.56709" lon="3.88119">
        <ele>6</ele>
        <time>2021-01-01T12:48:34Z</time>
      </trkpt>
      <trkpt lat="43.56712" lon="3.88125">
        <ele>6</ele>
        <time>2021-01-01T12:48:35Z</time>
      </trkpt>
      <trkpt lat="43.56719" lon="3.88135">
        <ele>6</ele>
        <time>2021-01-01T12:48:37Z</time>
      </trkpt>
      <trkpt lat="43.56722" lon="3.8814">
        <ele>6</ele>
        <time>2021-01-01T12:48:38Z</time>
      </trkpt>
      <trkpt lat="43.56725" lon="3.88147">
        <ele>6</ele>
        <time>2021-01-01T12:48:39Z</time>
      </trkpt>
      <trkpt lat="43.56728" lon="3.88153">
        <ele>5</ele>
        <time>2021-01-01T12:48:40Z</time>
      </trkpt>
      <trkpt lat="43.56731" lon="3.88159">
        <ele>5</ele>
        <time>2021-01-01T12:48:41Z</time>
      </trkpt>
      <trkpt lat="43.56734" lon="3.88165">
        <ele>5</ele>
        <time>2021-01-01T12:48:42Z</time>
      </trkpt>
      <trkpt lat="43.56737" lon="3.88172">
        <ele>5</ele>
        <time>2021-01-01T12:48:43Z</time>
      </trkpt>
      <trkpt lat="43.56741" lon="3.88177">
        <ele>6</ele>
        <time>2021-01-01T12:48:44Z</time>
      </trkpt>
      <trkpt lat="43.56744" lon="3.88184">
        <ele>6</ele>
        <time>2021-01-01T12:48:45Z</time>
      </trkpt>
      <trkpt lat="43.5675" lon="3.88196">
        <ele>6</ele>
        <time>2021-01-01T12:48:47Z</time>
      </trkpt>
      <trkpt lat="43.56752" lon="3.88202">
        <ele>5</ele>
        <time>2021-01-01T12:48:48Z</time>
      </trkpt>
      <trkpt lat="43.56756" lon="3.88209">
        <ele>5</ele>
        <time>2021-01-01T12:48:49Z</time>
      </trkpt>
      <trkpt lat="43.56759" lon="3.88214">
        <ele>5</ele>
        <time>2021-01-01T12:48:50Z</time>
      </trkpt>
      <trkpt lat="43.56762" lon="3.8822">
        <ele>5</ele>
        <time>2021-01-01T12:48:51Z</time>
      </trkpt>
      <trkpt lat="43.56765" lon="3.88226">
        <ele>5</ele>
        <time>2021-01-01T12:48:52Z</time>
      </trkpt>
      <trkpt lat="43.56767" lon="3.88232">
        <ele>6</ele>
        <time>2021-01-01T12:48:53Z</time>
      </trkpt>
      <trkpt lat="43.5677" lon="3.88237">
        <ele>6</ele>
        <time>2021-01-01T12:48:54Z</time>
      </trkpt>
      <trkpt lat="43.56774" lon="3.88243">
        <ele>6</ele>
        <time>2021-01-01T12:48:55Z</time>
      </trkpt>
      <trkpt lat="43.56776" lon="3.88249">
        <ele>6</ele>
        <time>2021-01-01T12:48:56Z</time>
      </trkpt>
      <trkpt lat="43.56779" lon="3.88254">
        <ele>6</ele>
        <time>2021-01-01T12:48:57Z</time>
      </trkpt>
      <trkpt lat="43.56782" lon="3.8826">
        <ele>7</ele>
        <time>2021-01-01T12:48:58Z</time>
      </trkpt>
      <trkpt lat="43.56786" lon="3.8827">
        <ele>6</ele>
        <time>2021-01-01T12:49:00Z</time>
      </trkpt>
      <trkpt lat="43.56791" lon="3.8828">
        <ele>6</ele>
        <time>2021-01-01T12:49:02Z</time>
      </trkpt>
      <trkpt lat="43.56794" lon="3.88285">
        <ele>6</ele>
        <time>2021-01-01T12:49:03Z</time>
      </trkpt>
      <trkpt lat="43.56799" lon="3.88294">
        <ele>6</ele>
        <time>2021-01-01T12:49:05Z</time>
      </trkpt>
      <trkpt lat="43.56804" lon="3.88302">
        <ele>5</ele>
        <time>2021-01-01T12:49:07Z</time>
      </trkpt>
      <trkpt lat="43.56808" lon="3.88312">
        <ele>5</ele>
        <time>2021-01-01T12:49:09Z</time>
      </trkpt>
      <trkpt lat="43.5681" lon="3.88318">
        <ele>6</ele>
        <time>2021-01-01T12:49:10Z</time>
      </trkpt>
      <trkpt lat="43.56815" lon="3.88329">
        <ele>6</ele>
        <time>2021-01-01T12:49:12Z</time>
      </trkpt>
      <trkpt lat="43.56817" lon="3.88335">
        <ele>6</ele>
        <time>2021-01-01T12:49:13Z</time>
      </trkpt>
      <trkpt lat="43.5682" lon="3.88345">
        <ele>6</ele>
        <time>2021-01-01T12:49:15Z</time>
      </trkpt>
      <trkpt lat="43.56821" lon="3.88351">
        <ele>7</ele>
        <time>2021-01-01T12:49:16Z</time>
      </trkpt>
      <trkpt lat="43.56826" lon="3.88361">
        <ele>7</ele>
        <time>2021-01-01T12:49:18Z</time>
      </trkpt>
      <trkpt lat="43.56828" lon="3.88367">
        <ele>7</ele>
        <time>2021-01-01T12:49:19Z</time>
      </trkpt>
      <trkpt lat="43.5683" lon="3.88372">
        <ele>7</ele>
        <time>2021-01-01T12:49:20Z</time>
      </trkpt>
      <trkpt lat="43.56833" lon="3.88377">
        <ele>7</ele>
        <time>2021-01-01T12:49:21Z</time>
      </trkpt>
      <trkpt lat="43.56837" lon="3.88389">
        <ele>7</ele>
        <time>2021-01-01T12:49:23Z</time>
      </trkpt>
      <trkpt lat="43.56839" lon="3.88396">
        <ele>7</ele>
        <time>2021-01-01T12:49:24Z</time>
      </trkpt>
      <trkpt lat="43.56842" lon="3.88402">
        <ele>7</ele>
        <time>2021-01-01T12:49:25Z</time>
      </trkpt>
      <trkpt lat="43.56844" lon="3.88409">
        <ele>7</ele>
        <time>2021-01-01T12:49:26Z</time>
      </trkpt>
      <trkpt lat="43.56847" lon="3.88415">
        <ele>8</ele>
        <time>2021-01-01T12:49:27Z</time>
      </trkpt>
      <trkpt lat="43.56851" lon="3.88422">
        <ele>8</ele>
        <time>2021-01-01T12:49:28Z</time>
      </trkpt>
      <trkpt lat="43.56855" lon="3.88429">
        <ele>7</ele>
        <time>2021-01-01T12:49:29Z</time>
      </trkpt>
      <trkpt lat="43.56858" lon="3.88435">
        <ele>7</ele>
        <time>2021-01-01T12:49:30Z</time>
      </trkpt>
      <trkpt lat="43.5686" lon="3.8844">
        <ele>7</ele>
        <time>2021-01-01T12:49:31Z</time>
      </trkpt>
      <trkpt lat="43.56864" lon="3.88446">
        <ele>7</ele>
        <time>2021-01-01T12:49:32Z</time>
      </trkpt>
      <trkpt lat="43.56868" lon="3.88452">
        <ele>7</ele>
        <time>2021-01-01T12:49:33Z</time>
      </trkpt>
      <trkpt lat="43.5687" lon="3.88458">
        <ele>7</ele>
        <time>2021-01-01T12:49:34Z</time>
      </trkpt>
      <trkpt lat="43.56873" lon="3.88464">
        <ele>7</ele>
        <time>2021-01-01T12:49:35Z</time>
      </trkpt>
      <trkpt lat="43.56876" lon="3.88471">
        <ele>7</ele>
        <time>2021-01-01T12:49:36Z</time>
      </trkpt>
      <trkpt lat="43.5688" lon="3.88477">
        <ele>7</ele>
        <time>2021-01-01T12:49:37Z</time>
      </trkpt>
      <trkpt lat="43.56885" lon="3.88481">
        <ele>7</ele>
        <time>2021-01-01T12:49:38Z</time>
      </trkpt>
      <trkpt lat="43.56888" lon="3.88486">
        <ele>7</ele>
        <time>2021-01-01T12:49:39Z</time>
      </trkpt>
      <trkpt lat="43.56893" lon="3.88489">
        <ele>7</ele>
        <time>2021-01-01T12:49:40Z</time>
      </trkpt>
      <trkpt lat="43.56897" lon="3.88494">
        <ele>7</ele>
        <time>2021-01-01T12:49:41Z</time>
      </trkpt>
      <trkpt lat="43.569" lon="3.88501">
        <ele>6</ele>
        <time>2021-01-01T12:49:42Z</time>
      </trkpt>
      <trkpt lat="43.56901" lon="3.88509">
        <ele>6</ele>
        <time>2021-01-01T12:49:43Z</time>
      </trkpt>
      <trkpt lat="43.56901" lon="3.88517">
        <ele>6</ele>
        <time>2021-01-01T12:49:44Z</time>
      </trkpt>
      <trkpt lat="43.56901" lon="3.88525">
        <ele>6</ele>
        <time>2021-01-01T12:49:45Z</time>
      </trkpt>
      <trkpt lat="43.56903" lon="3.88533">
        <ele>5</ele>
        <time>2021-01-01T12:49:46Z</time>
      </trkpt>
      <trkpt lat="43.56905" lon="3.88541">
        <ele>5</ele>
        <time>2021-01-01T12:49:47Z</time>
      </trkpt>
      <trkpt lat="43.56908" lon="3.88549">
        <ele>6</ele>
        <time>2021-01-01T12:49:48Z</time>
      </trkpt>
      <trkpt lat="43.56911" lon="3.88558">
        <ele>6</ele>
        <time>2021-01-01T12:49:49Z</time>
      </trkpt>
      <trkpt lat="43.56913" lon="3.88566">
        <ele>6</ele>
        <time>2021-01-01T12:49:50Z</time>
      </trkpt>
      <trkpt lat="43.56915" lon="3.88573">
        <ele>6</ele>
        <time>2021-01-01T12:49:51Z</time>
      </trkpt>
      <trkpt lat="43.56918" lon="3.88581">
        <ele>6</ele>
        <time>2021-01-01T12:49:52Z</time>
      </trkpt>
      <trkpt lat="43.56921" lon="3.88589">
        <ele>6</ele>
        <time>2021-01-01T12:49:53Z</time>
      </trkpt>
      <trkpt lat="43.56923" lon="3.88598">
        <ele>6</ele>
        <time>2021-01-01T12:49:54Z</time>
      </trkpt>
      <trkpt lat="43.56926" lon="3.88606">
        <ele>5</ele>
        <time>2021-01-01T12:49:55Z</time>
      </trkpt>
      <trkpt lat="43.56929" lon="3.88613">
        <ele>5</ele>
        <time>2021-01-01T12:49:56Z</time>
      </trkpt>
      <trkpt lat="43.56932" lon="3.88621">
        <ele>5</ele>
        <time>2021-01-01T12:49:57Z</time>
      </trkpt>
      <trkpt lat="43.56935" lon="3.88628">
        <ele>5</ele>
        <time>2021-01-01T12:49:58Z</time>
      </trkpt>
      <trkpt lat="43.56937" lon="3.88635">
        <ele>5</ele>
        <time>2021-01-01T12:49:59Z</time>
      </trkpt>
      <trkpt lat="43.56941" lon="3.88643">
        <ele>5</ele>
        <time>2021-01-01T12:50:00Z</time>
      </trkpt>
      <trkpt lat="43.56944" lon="3.8865">
        <ele>5</ele>
        <time>2021-01-01T12:50:01Z</time>
      </trkpt>
      <trkpt lat="43.56946" lon="3.88657">
        <ele>4</ele>
        <time>2021-01-01T12:50:02Z</time>
      </trkpt>
      <trkpt lat="43.56949" lon="3.88665">
        <ele>4</ele>
        <time>2021-01-01T12:50:03Z</time>
      </trkpt>
      <trkpt lat="43.56952" lon="3.88673">
        <ele>4</ele>
        <time>2021-01-01T12:50:04Z</time>
      </trkpt>
      <trkpt lat="43.56955" lon="3.8868">
        <ele>4</ele>
        <time>2021-01-01T12:50:05Z</time>
      </trkpt>
      <trkpt lat="43.56958" lon="3.88687">
        <ele>4</ele>
        <time>2021-01-01T12:50:06Z</time>
      </trkpt>
      <trkpt lat="43.56963" lon="3.88695">
        <ele>4</ele>
        <time>2021-01-01T12:50:07Z</time>
      </trkpt>
      <trkpt lat="43.56964" lon="3.88702">
        <ele>4</ele>
        <time>2021-01-01T12:50:08Z</time>
      </trkpt>
      <trkpt lat="43.56967" lon="3.88709">
        <ele>4</ele>
        <time>2021-01-01T12:50:09Z</time>
      </trkpt>
      <trkpt lat="43.56969" lon="3.88716">
        <ele>4</ele>
        <time>2021-01-01T12:50:10Z</time>
      </trkpt>
      <trkpt lat="43.56971" lon="3.88723">
        <ele>4</ele>
        <time>2021-01-01T12:50:11Z</time>
      </trkpt>
      <trkpt lat="43.56974" lon="3.88731">
        <ele>4</ele>
        <time>2021-01-01T12:50:12Z</time>
      </trkpt>
      <trkpt lat="43.56977" lon="3.88738">
        <ele>4</ele>
        <time>2021-01-01T12:50:13Z</time>
      </trkpt>
      <trkpt lat="43.56979" lon="3.88744">
        <ele>4</ele>
        <time>2021-01-01T12:50:14Z</time>
      </trkpt>
      <trkpt lat="43.56981" lon="3.88751">
        <ele>4</ele>
        <time>2021-01-01T12:50:15Z</time>
      </trkpt>
      <trkpt lat="43.56984" lon="3.88757">
        <ele>4</ele>
        <time>2021-01-01T12:50:16Z</time>
      </trkpt>
      <trkpt lat="43.56986" lon="3.88765">
        <ele>4</ele>
        <time>2021-01-01T12:50:17Z</time>
      </trkpt>
      <trkpt lat="43.56989" lon="3.88772">
        <ele>5</ele>
        <time>2021-01-01T12:50:18Z</time>
      </trkpt>
      <trkpt lat="43.56991" lon="3.88779">
        <ele>5</ele>
        <time>2021-01-01T12:50:19Z</time>
      </trkpt>
      <trkpt lat="43.56994" lon="3.88786">
        <ele>5</ele>
        <time>2021-01-01T12:50:20Z</time>
      </trkpt>
      <trkpt lat="43.56996" lon="3.88793">
        <ele>5</ele>
        <time>2021-01-01T12:50:21Z</time>
      </trkpt>
      <trkpt lat="43.56999" lon="3.888">
        <ele>4</ele>
        <time>2021-01-01T12:50:22Z</time>
      </trkpt>
      <trkpt lat="43.57002" lon="3.88807">
        <ele>4</ele>
        <time>2021-01-01T12:50:23Z</time>
      </trkpt>
      <trkpt lat="43.57004" lon="3.88814">
        <ele>4</ele>
        <time>2021-01-01T12:50:24Z</time>
      </trkpt>
      <trkpt lat="43.57007" lon="3.8882">
        <ele>4</ele>
        <time>2021-01-01T12:50:25Z</time>
      </trkpt>
      <trkpt lat="43.5701" lon="3.88827">
        <ele>4</ele>
        <time>2021-01-01T12:50:26Z</time>
      </trkpt>
      <trkpt lat="43.57012" lon="3.88833">
        <ele>4</ele>
        <time>2021-01-01T12:50:27Z</time>
      </trkpt>
      <trkpt lat="43.57015" lon="3.88839">
        <ele>4</ele>
        <time>2021-01-01T12:50:28Z</time>
      </trkpt>
      <trkpt lat="43.57018" lon="3.88846">
        <ele>4</ele>
        <time>2021-01-01T12:50:29Z</time>
      </trkpt>
      <trkpt lat="43.57021" lon="3.88853">
        <ele>5</ele>
        <time>2021-01-01T12:50:30Z</time>
      </trkpt>
      <trkpt lat="43.57023" lon="3.88859">
        <ele>5</ele>
        <time>2021-01-01T12:50:31Z</time>
      </trkpt>
      <trkpt lat="43.57026" lon="3.88865">
        <ele>5</ele>
        <time>2021-01-01T12:50:32Z</time>
      </trkpt>
      <trkpt lat="43.57028" lon="3.88872">
        <ele>5</ele>
        <time>2021-01-01T12:50:33Z</time>
      </trkpt>
      <trkpt lat="43.57031" lon="3.88879">
        <ele>5</ele>
        <time>2021-01-01T12:50:34Z</time>
      </trkpt>
      <trkpt lat="43.57034" lon="3.88885">
        <ele>6</ele>
        <time>2021-01-01T12:50:35Z</time>
      </trkpt>
      <trkpt lat="43.57036" lon="3.88892">
        <ele>6</ele>
        <time>2021-01-01T12:50:36Z</time>
      </trkpt>
      <trkpt lat="43.57038" lon="3.88898">
        <ele>6</ele>
        <time>2021-01-01T12:50:37Z</time>
      </trkpt>
      <trkpt lat="43.5704" lon="3.88904">
        <ele>6</ele>
        <time>2021-01-01T12:50:38Z</time>
      </trkpt>
      <trkpt lat="43.57042" lon="3.8891">
        <ele>6</ele>
        <time>2021-01-01T12:50:39Z</time>
      </trkpt>
      <trkpt lat="43.57045" lon="3.88916">
        <ele>6</ele>
        <time>2021-01-01T12:50:40Z</time>
      </trkpt>
      <trkpt lat="43.57047" lon="3.88922">
        <ele>6</ele>
        <time>2021-01-01T12:50:41Z</time>
      </trkpt>
      <trkpt lat="43.57049" lon="3.88928">
        <ele>6</ele>
        <time>2021-01-01T12:50:42Z</time>
      </trkpt>
      <trkpt lat="43.57051" lon="3.88933">
        <ele>6</ele>
        <time>2021-01-01T12:50:43Z</time>
      </trkpt>
      <trkpt lat="43.57055" lon="3.88944">
        <ele>6</ele>
        <time>2021-01-01T12:50:45Z</time>
      </trkpt>
      <trkpt lat="43.57058" lon="3.88951">
        <ele>6</ele>
        <time>2021-01-01T12:50:46Z</time>
      </trkpt>
      <trkpt lat="43.57062" lon="3.88962">
        <ele>6</ele>
        <time>2021-01-01T12:50:48Z</time>
      </trkpt>
      <trkpt lat="43.57064" lon="3.88968">
        <ele>6</ele>
        <time>2021-01-01T12:50:49Z</time>
      </trkpt>
      <trkpt lat="43.57066" lon="3.88975">
        <ele>6</ele>
        <time>2021-01-01T12:50:50Z</time>
      </trkpt>
      <trkpt lat="43.5707" lon="3.88985">
        <ele>7</ele>
        <time>2021-01-01T12:50:52Z</time>
      </trkpt>
      <trkpt lat="43.57071" lon="3.88991">
        <ele>7</ele>
        <time>2021-01-01T12:50:53Z</time>
      </trkpt>
      <trkpt lat="43.57074" lon="3.88997">
        <ele>7</ele>
        <time>2021-01-01T12:50:54Z</time>
      </trkpt>
      <trkpt lat="43.57076" lon="3.89003">
        <ele>7</ele>
        <time>2021-01-01T12:50:55Z</time>
      </trkpt>
      <trkpt lat="43.57077" lon="3.89009">
        <ele>8</ele>
        <time>2021-01-01T12:50:56Z</time>
      </trkpt>
      <trkpt lat="43.5708" lon="3.89015">
        <ele>8</ele>
        <time>2021-01-01T12:50:57Z</time>
      </trkpt>
      <trkpt lat="43.57082" lon="3.89021">
        <ele>8</ele>
        <time>2021-01-01T12:50:58Z</time>
      </trkpt>
      <trkpt lat="43.57086" lon="3.89032">
        <ele>8</ele>
        <time>2021-01-01T12:51:00Z</time>
      </trkpt>
      <trkpt lat="43.5709" lon="3.89043">
        <ele>7</ele>
        <time>2021-01-01T12:51:02Z</time>
      </trkpt>
      <trkpt lat="43.57096" lon="3.89054">
        <ele>7</ele>
        <time>2021-01-01T12:51:04Z</time>
      </trkpt>
      <trkpt lat="43.57098" lon="3.8906">
        <ele>7</ele>
        <time>2021-01-01T12:51:05Z</time>
      </trkpt>
      <trkpt lat="43.57103" lon="3.89072">
        <ele>7</ele>
        <time>2021-01-01T12:51:07Z</time>
      </trkpt>
      <trkpt lat="43.57105" lon="3.89077">
        <ele>7</ele>
        <time>2021-01-01T12:51:08Z</time>
      </trkpt>
      <trkpt lat="43.57107" lon="3.89084">
        <ele>6</ele>
        <time>2021-01-01T12:51:09Z</time>
      </trkpt>
      <trkpt lat="43.5711" lon="3.8909">
        <ele>6</ele>
        <time>2021-01-01T12:51:10Z</time>
      </trkpt>
      <trkpt lat="43.57114" lon="3.89102">
        <ele>6</ele>
        <time>2021-01-01T12:51:12Z</time>
      </trkpt>
      <trkpt lat="43.57117" lon="3.89108">
        <ele>6</ele>
        <time>2021-01-01T12:51:13Z</time>
      </trkpt>
      <trkpt lat="43.57119" lon="3.89114">
        <ele>5</ele>
        <time>2021-01-01T12:51:14Z</time>
      </trkpt>
      <trkpt lat="43.57121" lon="3.89121">
        <ele>5</ele>
        <time>2021-01-01T12:51:15Z</time>
      </trkpt>
      <trkpt lat="43.57123" lon="3.89128">
        <ele>5</ele>
        <time>2021-01-01T12:51:16Z</time>
      </trkpt>
      <trkpt lat="43.57126" lon="3.89135">
        <ele>5</ele>
        <time>2021-01-01T12:51:17Z</time>
      </trkpt>
      <trkpt lat="43.57128" lon="3.89141">
        <ele>6</ele>
        <time>2021-01-01T12:51:18Z</time>
      </trkpt>
      <trkpt lat="43.57131" lon="3.89147">
        <ele>6</ele>
        <time>2021-01-01T12:51:19Z</time>
      </trkpt>
      <trkpt lat="43.57133" lon="3.89153">
        <ele>6</ele>
        <time>2021-01-01T12:51:20Z</time>
      </trkpt>
      <trkpt lat="43.57137" lon="3.89159">
        <ele>6</ele>
        <time>2021-01-01T12:51:21Z</time>
      </trkpt>
      <trkpt lat="43.5714" lon="3.89165">
        <ele>6</ele>
        <time>2021-01-01T12:51:22Z</time>
      </trkpt>
      <trkpt lat="43.57142" lon="3.8917">
        <ele>6</ele>
        <time>2021-01-01T12:51:23Z</time>
      </trkpt>
      <trkpt lat="43.57148" lon="3.8918">
        <ele>6</ele>
        <time>2021-01-01T12:51:25Z</time>
      </trkpt>
      <trkpt lat="43.57153" lon="3.89191">
        <ele>5</ele>
        <time>2021-01-01T12:51:27Z</time>
      </trkpt>
      <trkpt lat="43.57156" lon="3.89196">
        <ele>5</ele>
        <time>2021-01-01T12:51:28Z</time>
      </trkpt>
      <trkpt lat="43.5716" lon="3.892">
        <ele>5</ele>
        <time>2021-01-01T12:51:29Z</time>
      </trkpt>
      <trkpt lat="43.57164" lon="3.89205">
        <ele>5</ele>
        <time>2021-01-01T12:51:30Z</time>
      </trkpt>
      <trkpt lat="43.57168" lon="3.89209">
        <ele>5</ele>
        <time>2021-01-01T12:51:31Z</time>
      </trkpt>
      <trkpt lat="43.57171" lon="3.89214">
        <ele>5</ele>
        <time>2021-01-01T12:51:32Z</time>
      </trkpt>
      <trkpt lat="43.57176" lon="3.89215">
        <ele>5</ele>
        <time>2021-01-01T12:51:33Z</time>
      </trkpt>
      <trkpt lat="43.57179" lon="3.8922">
        <ele>5</ele>
        <time>2021-01-01T12:51:34Z</time>
      </trkpt>
      <trkpt lat="43.57185" lon="3.89229">
        <ele>5</ele>
        <time>2021-01-01T12:51:36Z</time>
      </trkpt>
      <trkpt lat="43.57188" lon="3.89233">
        <ele>5</ele>
        <time>2021-01-01T12:51:37Z</time>
      </trkpt>
      <trkpt lat="43.57193" lon="3.89242">
        <ele>5</ele>
        <time>2021-01-01T12:51:39Z</time>
      </trkpt>
      <trkpt lat="43.572" lon="3.8925">
        <ele>6</ele>
        <time>2021-01-01T12:51:41Z</time>
      </trkpt>
      <trkpt lat="43.57206" lon="3.89256">
        <ele>6</ele>
        <time>2021-01-01T12:51:43Z</time>
      </trkpt>
      <trkpt lat="43.57213" lon="3.89262">
        <ele>6</ele>
        <time>2021-01-01T12:51:45Z</time>
      </trkpt>
      <trkpt lat="43.57218" lon="3.89264">
        <ele>6</ele>
        <time>2021-01-01T12:51:46Z</time>
      </trkpt>
      <trkpt lat="43.57222" lon="3.89273">
        <ele>6</ele>
        <time>2021-01-01T12:51:48Z</time>
      </trkpt>
      <trkpt lat="43.57227" lon="3.89279">
        <ele>6</ele>
        <time>2021-01-01T12:51:50Z</time>
      </trkpt>
      <trkpt lat="43.57233" lon="3.89285">
        <ele>6</ele>
        <time>2021-01-01T12:51:52Z</time>
      </trkpt>
      <trkpt lat="43.57236" lon="3.89296">
        <ele>5</ele>
        <time>2021-01-01T12:51:54Z</time>
      </trkpt>
      <trkpt lat="43.57239" lon="3.89306">
        <ele>5</ele>
        <time>2021-01-01T12:51:56Z</time>
      </trkpt>
      <trkpt lat="43.57244" lon="3.89316">
        <ele>5</ele>
        <time>2021-01-01T12:51:58Z</time>
      </trkpt>
      <trkpt lat="43.57247" lon="3.89321">
        <ele>5</ele>
        <time>2021-01-01T12:51:59Z</time>
      </trkpt>
      <trkpt lat="43.57252" lon="3.89328">
        <ele>5</ele>
        <time>2021-01-01T12:52:01Z</time>
      </trkpt>
      <trkpt lat="43.57256" lon="3.89338">
        <ele>6</ele>
        <time>2021-01-01T12:52:03Z</time>
      </trkpt>
      <trkpt lat="43.57255" lon="3.8935">
        <ele>6</ele>
        <time>2021-01-01T12:52:05Z</time>
      </trkpt>
      <trkpt lat="43.57252" lon="3.89362">
        <ele>6</ele>
        <time>2021-01-01T12:52:07Z</time>
      </trkpt>
      <trkpt lat="43.57251" lon="3.89368">
        <ele>6</ele>
        <time>2021-01-01T12:52:08Z</time>
      </trkpt>
      <trkpt lat="43.57251" lon="3.89374">
        <ele>6</ele>
        <time>2021-01-01T12:52:09Z</time>
      </trkpt>
      <trkpt lat="43.57247" lon="3.89385">
        <ele>6</ele>
        <time>2021-01-01T12:52:11Z</time>
      </trkpt>
      <trkpt lat="43.57244" lon="3.89391">
        <ele>6</ele>
        <time>2021-01-01T12:52:12Z</time>
      </trkpt>
      <trkpt lat="43.57242" lon="3.89396">
        <ele>6</ele>
        <time>2021-01-01T12:52:13Z</time>
      </trkpt>
      <trkpt lat="43.57241" lon="3.89402">
        <ele>6</ele>
        <time>2021-01-01T12:52:14Z</time>
      </trkpt>
      <trkpt lat="43.57239" lon="3.89414">
        <ele>6</ele>
        <time>2021-01-01T12:52:16Z</time>
      </trkpt>
      <trkpt lat="43.57238" lon="3.8942">
        <ele>7</ele>
        <time>2021-01-01T12:52:17Z</time>
      </trkpt>
      <trkpt lat="43.57236" lon="3.89426">
        <ele>7</ele>
        <time>2021-01-01T12:52:18Z</time>
      </trkpt>
      <trkpt lat="43.57232" lon="3.89437">
        <ele>7</ele>
        <time>2021-01-01T12:52:20Z</time>
      </trkpt>
      <trkpt lat="43.57229" lon="3.89443">
        <ele>6</ele>
        <time>2021-01-01T12:52:21Z</time>
      </trkpt>
      <trkpt lat="43.57227" lon="3.89449">
        <ele>6</ele>
        <time>2021-01-01T12:52:22Z</time>
      </trkpt>
      <trkpt lat="43.57225" lon="3.89455">
        <ele>6</ele>
        <time>2021-01-01T12:52:23Z</time>
      </trkpt>
      <trkpt lat="43.57221" lon="3.89465">
        <ele>6</ele>
        <time>2021-01-01T12:52:25Z</time>
      </trkpt>
      <trkpt lat="43.57217" lon="3.89475">
        <ele>6</ele>
        <time>2021-01-01T12:52:27Z</time>
      </trkpt>
      <trkpt lat="43.57212" lon="3.89484">
        <ele>6</ele>
        <time>2021-01-01T12:52:29Z</time>
      </trkpt>
      <trkpt lat="43.57207" lon="3.89492">
        <ele>7</ele>
        <time>2021-01-01T12:52:31Z</time>
      </trkpt>
      <trkpt lat="43.57203" lon="3.89498">
        <ele>7</ele>
        <time>2021-01-01T12:52:33Z</time>
      </trkpt>
      <trkpt lat="43.57198" lon="3.89503">
        <ele>7</ele>
        <time>2021-01-01T12:52:35Z</time>
      </trkpt>
      <trkpt lat="43.57194" lon="3.89508">
        <ele>7</ele>
        <time>2021-01-01T12:52:37Z</time>
      </trkpt>
      <trkpt lat="43.57191" lon="3.89515">
        <ele>6</ele>
        <time>2021-01-01T12:52:39Z</time>
      </trkpt>
      <trkpt lat="43.5719" lon="3.89523">
        <ele>6</ele>
        <time>2021-01-01T12:52:41Z</time>
      </trkpt>
      <trkpt lat="43.57187" lon="3.89531">
        <ele>6</ele>
        <time>2021-01-01T12:52:43Z</time>
      </trkpt>
      <trkpt lat="43.57183" lon="3.89539">
        <ele>6</ele>
        <time>2021-01-01T12:52:45Z</time>
      </trkpt>
      <trkpt lat="43.5718" lon="3.89546">
        <ele>7</ele>
        <time>2021-01-01T12:52:47Z</time>
      </trkpt>
      <trkpt lat="43.57177" lon="3.89552">
        <ele>7</ele>
        <time>2021-01-01T12:52:49Z</time>
      </trkpt>
      <trkpt lat="43.57174" lon="3.89559">
        <ele>7</ele>
        <time>2021-01-01T12:52:51Z</time>
      </trkpt>
      <trkpt lat="43.5717" lon="3.89565">
        <ele>7</ele>
        <time>2021-01-01T12:52:53Z</time>
      </trkpt>
      <trkpt lat="43.57166" lon="3.89573">
        <ele>8</ele>
        <time>2021-01-01T12:52:55Z</time>
      </trkpt>
      <trkpt lat="43.57162" lon="3.89579">
        <ele>8</ele>
        <time>2021-01-01T12:52:57Z</time>
      </trkpt>
      <trkpt lat="43.57158" lon="3.89585">
        <ele>8</ele>
        <time>2021-01-01T12:52:59Z</time>
      </trkpt>
      <trkpt lat="43.57155" lon="3.89592">
        <ele>9</ele>
        <time>2021-01-01T12:53:01Z</time>
      </trkpt>
      <trkpt lat="43.57153" lon="3.896">
        <ele>9</ele>
        <time>2021-01-01T12:53:03Z</time>
      </trkpt>
      <trkpt lat="43.5715" lon="3.89608">
        <ele>10</ele>
        <time>2021-01-01T12:53:05Z</time>
      </trkpt>
      <trkpt lat="43.57147" lon="3.89615">
        <ele>11</ele>
        <time>2021-01-01T12:53:07Z</time>
      </trkpt>
      <trkpt lat="43.57143" lon="3.89623">
        <ele>11</ele>
        <time>2021-01-01T12:53:09Z</time>
      </trkpt>
      <trkpt lat="43.57139" lon="3.8963">
        <ele>11</ele>
        <time>2021-01-01T12:53:11Z</time>
      </trkpt>
      <trkpt lat="43.57136" lon="3.89639">
        <ele>12</ele>
        <time>2021-01-01T12:53:13Z</time>
      </trkpt>
      <trkpt lat="43.57133" lon="3.89648">
        <ele>12</ele>
        <time>2021-01-01T12:53:15Z</time>
      </trkpt>
      <trkpt lat="43.57128" lon="3.89658">
        <ele>11</ele>
        <time>2021-01-01T12:53:17Z</time>
      </trkpt>
      <trkpt lat="43.57123" lon="3.89667">
        <ele>11</ele>
        <time>2021-01-01T12:53:19Z</time>
      </trkpt>
      <trkpt lat="43.5712" lon="3.89672">
        <ele>11</ele>
        <time>2021-01-01T12:53:20Z</time>
      </trkpt>
      <trkpt lat="43.57118" lon="3.89678">
        <ele>10</ele>
        <time>2021-01-01T12:53:21Z</time>
      </trkpt>
      <trkpt lat="43.57117" lon="3.89685">
        <ele>9</ele>
        <time>2021-01-01T12:53:22Z</time>
      </trkpt>
      <trkpt lat="43.57114" lon="3.89691">
        <ele>9</ele>
        <time>2021-01-01T12:53:23Z</time>
      </trkpt>
      <trkpt lat="43.57111" lon="3.89697">
        <ele>9</ele>
        <time>2021-01-01T12:53:24Z</time>
      </trkpt>
      <trkpt lat="43.57108" lon="3.89703">
        <ele>8</ele>
        <time>2021-01-01T12:53:25Z</time>
      </trkpt>
      <trkpt lat="43.57106" lon="3.89708">
        <ele>8</ele>
        <time>2021-01-01T12:53:26Z</time>
      </trkpt>
      <trkpt lat="43.57103" lon="3.89714">
        <ele>8</ele>
        <time>2021-01-01T12:53:27Z</time>
      </trkpt>
      <trkpt lat="43.57101" lon="3.89721">
        <ele>7</ele>
        <time>2021-01-01T12:53:28Z</time>
      </trkpt>
      <trkpt lat="43.57098" lon="3.89727">
        <ele>7</ele>
        <time>2021-01-01T12:53:29Z</time>
      </trkpt>
      <trkpt lat="43.57095" lon="3.89733">
        <ele>7</ele>
        <time>2021-01-01T12:53:30Z</time>
      </trkpt>
      <trkpt lat="43.57093" lon="3.89738">
        <ele>7</ele>
        <time>2021-01-01T12:53:31Z</time>
      </trkpt>
      <trkpt lat="43.5709" lon="3.89744">
        <ele>7</ele>
        <time>2021-01-01T12:53:32Z</time>
      </trkpt>
      <trkpt lat="43.57087" lon="3.89751">
        <ele>8</ele>
        <time>2021-01-01T12:53:33Z</time>
      </trkpt>
      <trkpt lat="43.57085" lon="3.89758">
        <ele>8</ele>
        <time>2021-01-01T12:53:34Z</time>
      </trkpt>
      <trkpt lat="43.57084" lon="3.89764">
        <ele>9</ele>
        <time>2021-01-01T12:53:35Z</time>
      </trkpt>
      <trkpt lat="43.57082" lon="3.8977">
        <ele>9</ele>
        <time>2021-01-01T12:53:36Z</time>
      </trkpt>
      <trkpt lat="43.57079" lon="3.89776">
        <ele>9</ele>
        <time>2021-01-01T12:53:37Z</time>
      </trkpt>
      <trkpt lat="43.57075" lon="3.89787">
        <ele>10</ele>
        <time>2021-01-01T12:53:39Z</time>
      </trkpt>
      <trkpt lat="43.57072" lon="3.89796">
        <ele>9</ele>
        <time>2021-01-01T12:53:41Z</time>
      </trkpt>
      <trkpt lat="43.57074" lon="3.89804">
        <ele>9</ele>
        <time>2021-01-01T12:53:43Z</time>
      </trkpt>
      <trkpt lat="43.57081" lon="3.89808">
        <ele>9</ele>
        <time>2021-01-01T12:53:47Z</time>
      </trkpt>
      <trkpt lat="43.57085" lon="3.89812">
        <ele>9</ele>
        <time>2021-01-01T12:53:50Z</time>
      </trkpt>
      <trkpt lat="43.57091" lon="3.89812">
        <ele>9</ele>
        <time>2021-01-01T12:53:51Z</time>
      </trkpt>
      <trkpt lat="43.57099" lon="3.89809">
        <ele>9</ele>
        <time>2021-01-01T12:53:52Z</time>
      </trkpt>
      <trkpt lat="43.57108" lon="3.89808">
        <ele>9</ele>
        <time>2021-01-01T12:53:54Z</time>
      </trkpt>
      <trkpt lat="43.57117" lon="3.89808">
        <ele>9</ele>
        <time>2021-01-01T12:53:56Z</time>
      </trkpt>
      <trkpt lat="43.57124" lon="3.89808">
        <ele>9</ele>
        <time>2021-01-01T12:53:57Z</time>
      </trkpt>
      <trkpt lat="43.57129" lon="3.89808">
        <ele>9</ele>
        <time>2021-01-01T12:53:58Z</time>
      </trkpt>
      <trkpt lat="43.57134" lon="3.89809">
        <ele>8</ele>
        <time>2021-01-01T12:53:59Z</time>
      </trkpt>
      <trkpt lat="43.57139" lon="3.89811">
        <ele>8</ele>
        <time>2021-01-01T12:54:00Z</time>
      </trkpt>
      <trkpt lat="43.57144" lon="3.89813">
        <ele>8</ele>
        <time>2021-01-01T12:54:01Z</time>
      </trkpt>
      <trkpt lat="43.57149" lon="3.89817">
        <ele>8</ele>
        <time>2021-01-01T12:54:02Z</time>
      </trkpt>
      <trkpt lat="43.57153" lon="3.89822">
        <ele>8</ele>
        <time>2021-01-01T12:54:03Z</time>
      </trkpt>
      <trkpt lat="43.57156" lon="3.89828">
        <ele>8</ele>
        <time>2021-01-01T12:54:04Z</time>
      </trkpt>
      <trkpt lat="43.57161" lon="3.89833">
        <ele>8</ele>
        <time>2021-01-01T12:54:05Z</time>
      </trkpt>
      <trkpt lat="43.57169" lon="3.89835">
        <ele>8</ele>
        <time>2021-01-01T12:54:07Z</time>
      </trkpt>
      <trkpt lat="43.57174" lon="3.89831">
        <ele>8</ele>
        <time>2021-01-01T12:54:08Z</time>
      </trkpt>
      <trkpt lat="43.57175" lon="3.89825">
        <ele>8</ele>
        <time>2021-01-01T12:54:09Z</time>
      </trkpt>
      <trkpt lat="43.57181" lon="3.89816">
        <ele>9</ele>
        <time>2021-01-01T12:54:11Z</time>
      </trkpt>
      <trkpt lat="43.57186" lon="3.89811">
        <ele>9</ele>
        <time>2021-01-01T12:54:13Z</time>
      </trkpt>
      <trkpt lat="43.57193" lon="3.89806">
        <ele>9</ele>
        <time>2021-01-01T12:54:15Z</time>
      </trkpt>
      <trkpt lat="43.57196" lon="3.89802">
        <ele>9</ele>
        <time>2021-01-01T12:54:16Z</time>
      </trkpt>
      <trkpt lat="43.57201" lon="3.89798">
        <ele>9</ele>
        <time>2021-01-01T12:54:17Z</time>
      </trkpt>
      <trkpt lat="43.57205" lon="3.89794">
        <ele>9</ele>
        <time>2021-01-01T12:54:18Z</time>
      </trkpt>
      <trkpt lat="43.57209" lon="3.8979">
        <ele>9</ele>
        <time>2021-01-01T12:54:19Z</time>
      </trkpt>
      <trkpt lat="43.57214" lon="3.89787">
        <ele>9</ele>
        <time>2021-01-01T12:54:20Z</time>
      </trkpt>
      <trkpt lat="43.5722" lon="3.89784">
        <ele>9</ele>
        <time>2021-01-01T12:54:21Z</time>
      </trkpt>
      <trkpt lat="43.57225" lon="3.89783">
        <ele>9</ele>
        <time>2021-01-01T12:54:22Z</time>
      </trkpt>
      <trkpt lat="43.57233" lon="3.8978">
        <ele>9</ele>
        <time>2021-01-01T12:54:24Z</time>
      </trkpt>
      <trkpt lat="43.57238" lon="3.8978">
        <ele>9</ele>
        <time>2021-01-01T12:54:25Z</time>
      </trkpt>
      <trkpt lat="43.57248" lon="3.8978">
        <ele>9</ele>
        <time>2021-01-01T12:54:27Z</time>
      </trkpt>
      <trkpt lat="43.57252" lon="3.89779">
        <ele>9</ele>
        <time>2021-01-01T12:54:28Z</time>
      </trkpt>
      <trkpt lat="43.57257" lon="3.89777">
        <ele>9</ele>
        <time>2021-01-01T12:54:29Z</time>
      </trkpt>
      <trkpt lat="43.57262" lon="3.89777">
        <ele>9</ele>
        <time>2021-01-01T12:54:30Z</time>
      </trkpt>
      <trkpt lat="43.57272" lon="3.89775">
        <ele>9</ele>
        <time>2021-01-01T12:54:32Z</time>
      </trkpt>
      <trkpt lat="43.57277" lon="3.89775">
        <ele>9</ele>
        <time>2021-01-01T12:54:33Z</time>
      </trkpt>
      <trkpt lat="43.57281" lon="3.89775">
        <ele>9</ele>
        <time>2021-01-01T12:54:34Z</time>
      </trkpt>
      <trkpt lat="43.57287" lon="3.89774">
        <ele>8</ele>
        <time>2021-01-01T12:54:35Z</time>
      </trkpt>
      <trkpt lat="43.57292" lon="3.89774">
        <ele>8</ele>
        <time>2021-01-01T12:54:36Z</time>
      </trkpt>
      <trkpt lat="43.57297" lon="3.89775">
        <ele>7</ele>
        <time>2021-01-01T12:54:37Z</time>
      </trkpt>
      <trkpt lat="43.57302" lon="3.89774">
        <ele>7</ele>
        <time>2021-01-01T12:54:38Z</time>
      </trkpt>
      <trkpt lat="43.57307" lon="3.89775">
        <ele>7</ele>
        <time>2021-01-01T12:54:39Z</time>
      </trkpt>
      <trkpt lat="43.57312" lon="3.89775">
        <ele>7</ele>
        <time>2021-01-01T12:54:40Z</time>
      </trkpt>
      <trkpt lat="43.57317" lon="3.89776">
        <ele>7</ele>
        <time>2021-01-01T12:54:41Z</time>
      </trkpt>
      <trkpt lat="43.57322" lon="3.89777">
        <ele>7</ele>
        <time>2021-01-01T12:54:42Z</time>
      </trkpt>
      <trkpt lat="43.57326" lon="3.89777">
        <ele>7</ele>
        <time>2021-01-01T12:54:43Z</time>
      </trkpt>
      <trkpt lat="43.57332" lon="3.89777">
        <ele>7</ele>
        <time>2021-01-01T12:54:44Z</time>
      </trkpt>
      <trkpt lat="43.57336" lon="3.89778">
        <ele>7</ele>
        <time>2021-01-01T12:54:45Z</time>
      </trkpt>
      <trkpt lat="43.57341" lon="3.89779">
        <ele>7</ele>
        <time>2021-01-01T12:54:46Z</time>
      </trkpt>
      <trkpt lat="43.57347" lon="3.89781">
        <ele>7</ele>
        <time>2021-01-01T12:54:47Z</time>
      </trkpt>
      <trkpt lat="43.57351" lon="3.89781">
        <ele>8</ele>
        <time>2021-01-01T12:54:48Z</time>
      </trkpt>
      <trkpt lat="43.57356" lon="3.89783">
        <ele>8</ele>
        <time>2021-01-01T12:54:49Z</time>
      </trkpt>
      <trkpt lat="43.57361" lon="3.89784">
        <ele>8</ele>
        <time>2021-01-01T12:54:50Z</time>
      </trkpt>
      <trkpt lat="43.57365" lon="3.89785">
        <ele>8</ele>
        <time>2021-01-01T12:54:51Z</time>
      </trkpt>
      <trkpt lat="43.57371" lon="3.89787">
        <ele>7</ele>
        <time>2021-01-01T12:54:52Z</time>
      </trkpt>
      <trkpt lat="43.57376" lon="3.89789">
        <ele>7</ele>
        <time>2021-01-01T12:54:53Z</time>
      </trkpt>
      <trkpt lat="43.5738" lon="3.89791">
        <ele>7</ele>
        <time>2021-01-01T12:54:54Z</time>
      </trkpt>
      <trkpt lat="43.57385" lon="3.89793">
        <ele>7</ele>
        <time>2021-01-01T12:54:55Z</time>
      </trkpt>
      <trkpt lat="43.57391" lon="3.89796">
        <ele>8</ele>
        <time>2021-01-01T12:54:56Z</time>
      </trkpt>
      <trkpt lat="43.57396" lon="3.89799">
        <ele>8</ele>
        <time>2021-01-01T12:54:57Z</time>
      </trkpt>
      <trkpt lat="43.574" lon="3.89802">
        <ele>8</ele>
        <time>2021-01-01T12:54:58Z</time>
      </trkpt>
      <trkpt lat="43.57404" lon="3.89805">
        <ele>8</ele>
        <time>2021-01-01T12:54:59Z</time>
      </trkpt>
      <trkpt lat="43.57409" lon="3.89808">
        <ele>8</ele>
        <time>2021-01-01T12:55:00Z</time>
      </trkpt>
      <trkpt lat="43.57414" lon="3.89812">
        <ele>8</ele>
        <time>2021-01-01T12:55:01Z</time>
      </trkpt>
      <trkpt lat="43.57418" lon="3.89816">
        <ele>8</ele>
        <time>2021-01-01T12:55:02Z</time>
      </trkpt>
      <trkpt lat="43.57423" lon="3.89821">
        <ele>9</ele>
        <time>2021-01-01T12:55:03Z</time>
      </trkpt>
      <trkpt lat="43.57427" lon="3.89826">
        <ele>9</ele>
        <time>2021-01-01T12:55:04Z</time>
      </trkpt>
      <trkpt lat="43.57431" lon="3.8983">
        <ele>9</ele>
        <time>2021-01-01T12:55:05Z</time>
      </trkpt>
      <trkpt lat="43.57435" lon="3.89834">
        <ele>9</ele>
        <time>2021-01-01T12:55:06Z</time>
      </trkpt>
      <trkpt lat="43.57443" lon="3.89845">
        <ele>8</ele>
        <time>2021-01-01T12:55:08Z</time>
      </trkpt>
      <trkpt lat="43.57447" lon="3.8985">
        <ele>8</ele>
        <time>2021-01-01T12:55:09Z</time>
      </trkpt>
      <trkpt lat="43.57451" lon="3.89855">
        <ele>8</ele>
        <time>2021-01-01T12:55:10Z</time>
      </trkpt>
      <trkpt lat="43.57455" lon="3.89861">
        <ele>8</ele>
        <time>2021-01-01T12:55:11Z</time>
      </trkpt>
      <trkpt lat="43.5746" lon="3.89867">
        <ele>7</ele>
        <time>2021-01-01T12:55:12Z</time>
      </trkpt>
      <trkpt lat="43.57464" lon="3.89873">
        <ele>7</ele>
        <time>2021-01-01T12:55:13Z</time>
      </trkpt>
      <trkpt lat="43.57467" lon="3.89878">
        <ele>6</ele>
        <time>2021-01-01T12:55:14Z</time>
      </trkpt>
      <trkpt lat="43.57472" lon="3.89888">
        <ele>6</ele>
        <time>2021-01-01T12:55:16Z</time>
      </trkpt>
      <trkpt lat="43.5747" lon="3.89894">
        <ele>6</ele>
        <time>2021-01-01T12:55:17Z</time>
      </trkpt>
      <trkpt lat="43.57461" lon="3.89904">
        <ele>5</ele>
        <time>2021-01-01T12:55:19Z</time>
      </trkpt>
      <trkpt lat="43.57454" lon="3.89912">
        <ele>5</ele>
        <time>2021-01-01T12:55:20Z</time>
      </trkpt>
      <trkpt lat="43.57447" lon="3.89918">
        <ele>5</ele>
        <time>2021-01-01T12:55:21Z</time>
      </trkpt>
      <trkpt lat="43.57441" lon="3.89923">
        <ele>5</ele>
        <time>2021-01-01T12:55:22Z</time>
      </trkpt>
      <trkpt lat="43.57436" lon="3.89928">
        <ele>5</ele>
        <time>2021-01-01T12:55:23Z</time>
      </trkpt>
      <trkpt lat="43.57435" lon="3.89934">
        <ele>5</ele>
        <time>2021-01-01T12:55:24Z</time>
      </trkpt>
      <trkpt lat="43.5744" lon="3.89943">
        <ele>5</ele>
        <time>2021-01-01T12:55:26Z</time>
      </trkpt>
      <trkpt lat="43.57444" lon="3.89947">
        <ele>5</ele>
        <time>2021-01-01T12:55:27Z</time>
      </trkpt>
      <trkpt lat="43.5745" lon="3.89954">
        <ele>5</ele>
        <time>2021-01-01T12:55:29Z</time>
      </trkpt>
      <trkpt lat="43.57455" lon="3.89958">
        <ele>5</ele>
        <time>2021-01-01T12:55:30Z</time>
      </trkpt>
      <trkpt lat="43.57459" lon="3.89964">
        <ele>5</ele>
        <time>2021-01-01T12:55:31Z</time>
      </trkpt>
      <trkpt lat="43.57462" lon="3.8997">
        <ele>5</ele>
        <time>2021-01-01T12:55:32Z</time>
      </trkpt>
      <trkpt lat="43.57463" lon="3.89977">
        <ele>4</ele>
        <time>2021-01-01T12:55:33Z</time>
      </trkpt>
      <trkpt lat="43.57465" lon="3.89984">
        <ele>4</ele>
        <time>2021-01-01T12:55:34Z</time>
      </trkpt>
      <trkpt lat="43.57467" lon="3.89991">
        <ele>4</ele>
        <time>2021-01-01T12:55:35Z</time>
      </trkpt>
      <trkpt lat="43.57469" lon="3.89997">
        <ele>3</ele>
        <time>2021-01-01T12:55:36Z</time>
      </trkpt>
      <trkpt lat="43.57473" lon="3.90004">
        <ele>3</ele>
        <time>2021-01-01T12:55:37Z</time>
      </trkpt>
      <trkpt lat="43.57476" lon="3.90011">
        <ele>2</ele>
        <time>2021-01-01T12:55:38Z</time>
      </trkpt>
      <trkpt lat="43.57481" lon="3.90015">
        <ele>2</ele>
        <time>2021-01-01T12:55:39Z</time>
      </trkpt>
      <trkpt lat="43.57486" lon="3.90019">
        <ele>1</ele>
        <time>2021-01-01T12:55:40Z</time>
      </trkpt>
      <trkpt lat="43.5749" lon="3.90021">
        <ele>1</ele>
        <time>2021-01-01T12:55:41Z</time>
      </trkpt>
      <trkpt lat="43.57495" lon="3.90024">
        <ele>1</ele>
        <time>2021-01-01T12:55:42Z</time>
      </trkpt>
      <trkpt lat="43.57501" lon="3.90027">
        <ele>1</ele>
        <time>2021-01-01T12:55:43Z</time>
      </trkpt>
      <trkpt lat="43.57505" lon="3.90031">
        <ele>2</ele>
        <time>2021-01-01T12:55:44Z</time>
      </trkpt>
      <trkpt lat="43.5751" lon="3.90036">
        <ele>3</ele>
        <time>2021-01-01T12:55:45Z</time>
      </trkpt>
      <trkpt lat="43.57516" lon="3.90038">
        <ele>4</ele>
        <time>2021-01-01T12:55:46Z</time>
      </trkpt>
      <trkpt lat="43.57522" lon="3.90039">
        <ele>4</ele>
        <time>2021-01-01T12:55:47Z</time>
      </trkpt>
      <trkpt lat="43.57527" lon="3.90041">
        <ele>5</ele>
        <time>2021-01-01T12:55:48Z</time>
      </trkpt>
      <trkpt lat="43.57533" lon="3.90043">
        <ele>5</ele>
        <time>2021-01-01T12:55:49Z</time>
      </trkpt>
      <trkpt lat="43.57538" lon="3.90045">
        <ele>6</ele>
        <time>2021-01-01T12:55:50Z</time>
      </trkpt>
      <trkpt lat="43.57546" lon="3.90052">
        <ele>5</ele>
        <time>2021-01-01T12:55:52Z</time>
      </trkpt>
      <trkpt lat="43.57551" lon="3.90057">
        <ele>5</ele>
        <time>2021-01-01T12:55:53Z</time>
      </trkpt>
      <trkpt lat="43.57555" lon="3.90061">
        <ele>5</ele>
        <time>2021-01-01T12:55:54Z</time>
      </trkpt>
      <trkpt lat="43.57559" lon="3.90066">
        <ele>5</ele>
        <time>2021-01-01T12:55:55Z</time>
      </trkpt>
      <trkpt lat="43.57563" lon="3.90071">
        <ele>5</ele>
        <time>2021-01-01T12:55:56Z</time>
      </trkpt>
      <trkpt lat="43.57567" lon="3.90077">
        <ele>5</ele>
        <time>2021-01-01T12:55:57Z</time>
      </trkpt>
      <trkpt lat="43.57571" lon="3.90082">
        <ele>5</ele>
        <time>2021-01-01T12:55:58Z</time>
      </trkpt>
      <trkpt lat="43.57575" lon="3.90088">
        <ele>5</ele>
        <time>2021-01-01T12:55:59Z</time>
      </trkpt>
      <trkpt lat="43.57578" lon="3.90093">
        <ele>5</ele>
        <time>2021-01-01T12:56:00Z</time>
      </trkpt>
      <trkpt lat="43.57582" lon="3.90098">
        <ele>5</ele>
        <time>2021-01-01T12:56:01Z</time>
      </trkpt>
      <trkpt lat="43.57586" lon="3.90103">
        <ele>4</ele>
        <time>2021-01-01T12:56:02Z</time>
      </trkpt>
      <trkpt lat="43.57591" lon="3.90106">
        <ele>4</ele>
        <time>2021-01-01T12:56:03Z</time>
      </trkpt>
      <trkpt lat="43.57596" lon="3.90106">
        <ele>4</ele>
        <time>2021-01-01T12:56:04Z</time>
      </trkpt>
      <trkpt lat="43.576" lon="3.90104">
        <ele>4</ele>
        <time>2021-01-01T12:56:05Z</time>
      </trkpt>
      <trkpt lat="43.57605" lon="3.90099">
        <ele>4</ele>
        <time>2021-01-01T12:56:06Z</time>
      </trkpt>
      <trkpt lat="43.57608" lon="3.90095">
        <ele>5</ele>
        <time>2021-01-01T12:56:07Z</time>
      </trkpt>
      <trkpt lat="43.57612" lon="3.9009">
        <ele>5</ele>
        <time>2021-01-01T12:56:08Z</time>
      </trkpt>
      <trkpt lat="43.57616" lon="3.90087">
        <ele>5</ele>
        <time>2021-01-01T12:56:10Z</time>
      </trkpt>
      <trkpt lat="43.57622" lon="3.9009">
        <ele>6</ele>
        <time>2021-01-01T12:56:12Z</time>
      </trkpt>
      <trkpt lat="43.57628" lon="3.90095">
        <ele>6</ele>
        <time>2021-01-01T12:56:14Z</time>
      </trkpt>
      <trkpt lat="43.57632" lon="3.90099">
        <ele>7</ele>
        <time>2021-01-01T12:56:15Z</time>
      </trkpt>
      <trkpt lat="43.57639" lon="3.90106">
        <ele>7</ele>
        <time>2021-01-01T12:56:17Z</time>
      </trkpt>
      <trkpt lat="43.57645" lon="3.90114">
        <ele>8</ele>
        <time>2021-01-01T12:56:19Z</time>
      </trkpt>
      <trkpt lat="43.57649" lon="3.90118">
        <ele>8</ele>
        <time>2021-01-01T12:56:20Z</time>
      </trkpt>
      <trkpt lat="43.57652" lon="3.90122">
        <ele>8</ele>
        <time>2021-01-01T12:56:21Z</time>
      </trkpt>
      <trkpt lat="43.57655" lon="3.90128">
        <ele>8</ele>
        <time>2021-01-01T12:56:22Z</time>
      </trkpt>
      <trkpt lat="43.57662" lon="3.90136">
        <ele>8</ele>
        <time>2021-01-01T12:56:24Z</time>
      </trkpt>
      <trkpt lat="43.57666" lon="3.9014">
        <ele>8</ele>
        <time>2021-01-01T12:56:25Z</time>
      </trkpt>
      <trkpt lat="43.57669" lon="3.90144">
        <ele>8</ele>
        <time>2021-01-01T12:56:26Z</time>
      </trkpt>
      <trkpt lat="43.57674" lon="3.90149">
        <ele>8</ele>
        <time>2021-01-01T12:56:27Z</time>
      </trkpt>
      <trkpt lat="43.57681" lon="3.90156">
        <ele>8</ele>
        <time>2021-01-01T12:56:29Z</time>
      </trkpt>
      <trkpt lat="43.57686" lon="3.9016">
        <ele>8</ele>
        <time>2021-01-01T12:56:30Z</time>
      </trkpt>
      <trkpt lat="43.5769" lon="3.90164">
        <ele>8</ele>
        <time>2021-01-01T12:56:31Z</time>
      </trkpt>
      <trkpt lat="43.57693" lon="3.90168">
        <ele>8</ele>
        <time>2021-01-01T12:56:32Z</time>
      </trkpt>
      <trkpt lat="43.57697" lon="3.90173">
        <ele>8</ele>
        <time>2021-01-01T12:56:33Z</time>
      </trkpt>
      <trkpt lat="43.57702" lon="3.90183">
        <ele>8</ele>
        <time>2021-01-01T12:56:35Z</time>
      </trkpt>
      <trkpt lat="43.57706" lon="3.90187">
        <ele>8</ele>
        <time>2021-01-01T12:56:36Z</time>
      </trkpt>
      <trkpt lat="43.57713" lon="3.90195">
        <ele>9</ele>
        <time>2021-01-01T12:56:38Z</time>
      </trkpt>
      <trkpt lat="43.57718" lon="3.90199">
        <ele>9</ele>
        <time>2021-01-01T12:56:39Z</time>
      </trkpt>
      <trkpt lat="43.57722" lon="3.90203">
        <ele>9</ele>
        <time>2021-01-01T12:56:40Z</time>
      </trkpt>
      <trkpt lat="43.57726" lon="3.90207">
        <ele>9</ele>
        <time>2021-01-01T12:56:41Z</time>
      </trkpt>
      <trkpt lat="43.57729" lon="3.90212">
        <ele>9</ele>
        <time>2021-01-01T12:56:42Z</time>
      </trkpt>
      <trkpt lat="43.57732" lon="3.90216">
        <ele>9</ele>
        <time>2021-01-01T12:56:43Z</time>
      </trkpt>
      <trkpt lat="43.57736" lon="3.9022">
        <ele>9</ele>
        <time>2021-01-01T12:56:44Z</time>
      </trkpt>
      <trkpt lat="43.5774" lon="3.90225">
        <ele>9</ele>
        <time>2021-01-01T12:56:45Z</time>
      </trkpt>
      <trkpt lat="43.57745" lon="3.9023">
        <ele>9</ele>
        <time>2021-01-01T12:56:46Z</time>
      </trkpt>
      <trkpt lat="43.57748" lon="3.90234">
        <ele>9</ele>
        <time>2021-01-01T12:56:47Z</time>
      </trkpt>
      <trkpt lat="43.57752" lon="3.90239">
        <ele>9</ele>
        <time>2021-01-01T12:56:48Z</time>
      </trkpt>
      <trkpt lat="43.57756" lon="3.90243">
        <ele>9</ele>
        <time>2021-01-01T12:56:49Z</time>
      </trkpt>
      <trkpt lat="43.5776" lon="3.90248">
        <ele>9</ele>
        <time>2021-01-01T12:56:50Z</time>
      </trkpt>
      <trkpt lat="43.57764" lon="3.90253">
        <ele>9</ele>
        <time>2021-01-01T12:56:51Z</time>
      </trkpt>
      <trkpt lat="43.57768" lon="3.90257">
        <ele>9</ele>
        <time>2021-01-01T12:56:52Z</time>
      </trkpt>
      <trkpt lat="43.57772" lon="3.90262">
        <ele>9</ele>
        <time>2021-01-01T12:56:53Z</time>
      </trkpt>
      <trkpt lat="43.57776" lon="3.90267">
        <ele>9</ele>
        <time>2021-01-01T12:56:54Z</time>
      </trkpt>
      <trkpt lat="43.5778" lon="3.90272">
        <ele>8</ele>
        <time>2021-01-01T12:56:55Z</time>
      </trkpt>
      <trkpt lat="43.57784" lon="3.90276">
        <ele>8</ele>
        <time>2021-01-01T12:56:56Z</time>
      </trkpt>
      <trkpt lat="43.57788" lon="3.90281">
        <ele>8</ele>
        <time>2021-01-01T12:56:57Z</time>
      </trkpt>
      <trkpt lat="43.57792" lon="3.90285">
        <ele>8</ele>
        <time>2021-01-01T12:56:58Z</time>
      </trkpt>
      <trkpt lat="43.57795" lon="3.90289">
        <ele>7</ele>
        <time>2021-01-01T12:56:59Z</time>
      </trkpt>
      <trkpt lat="43.578" lon="3.90294">
        <ele>7</ele>
        <time>2021-01-01T12:57:00Z</time>
      </trkpt>
      <trkpt lat="43.57804" lon="3.90299">
        <ele>7</ele>
        <time>2021-01-01T12:57:01Z</time>
      </trkpt>
      <trkpt lat="43.57808" lon="3.90303">
        <ele>7</ele>
        <time>2021-01-01T12:57:02Z</time>
      </trkpt>
      <trkpt lat="43.57812" lon="3.90308">
        <ele>6</ele>
        <time>2021-01-01T12:57:03Z</time>
      </trkpt>
      <trkpt lat="43.57816" lon="3.90312">
        <ele>6</ele>
        <time>2021-01-01T12:57:04Z</time>
      </trkpt>
      <trkpt lat="43.57821" lon="3.90317">
        <ele>6</ele>
        <time>2021-01-01T12:57:05Z</time>
      </trkpt>
      <trkpt lat="43.57824" lon="3.90321">
        <ele>6</ele>
        <time>2021-01-01T12:57:06Z</time>
      </trkpt>
      <trkpt lat="43.57828" lon="3.90326">
        <ele>7</ele>
        <time>2021-01-01T12:57:07Z</time>
      </trkpt>
      <trkpt lat="43.57832" lon="3.90331">
        <ele>7</ele>
        <time>2021-01-01T12:57:08Z</time>
      </trkpt>
      <trkpt lat="43.57837" lon="3.90336">
        <ele>7</ele>
        <time>2021-01-01T12:57:09Z</time>
      </trkpt>
      <trkpt lat="43.57841" lon="3.90341">
        <ele>6</ele>
        <time>2021-01-01T12:57:10Z</time>
      </trkpt>
      <trkpt lat="43.57845" lon="3.90345">
        <ele>6</ele>
        <time>2021-01-01T12:57:11Z</time>
      </trkpt>
      <trkpt lat="43.57849" lon="3.9035">
        <ele>6</ele>
        <time>2021-01-01T12:57:12Z</time>
      </trkpt>
      <trkpt lat="43.57853" lon="3.90355">
        <ele>6</ele>
        <time>2021-01-01T12:57:13Z</time>
      </trkpt>
      <trkpt lat="43.57858" lon="3.90359">
        <ele>6</ele>
        <time>2021-01-01T12:57:14Z</time>
      </trkpt>
      <trkpt lat="43.57862" lon="3.90363">
        <ele>6</ele>
        <time>2021-01-01T12:57:15Z</time>
      </trkpt>
      <trkpt lat="43.57867" lon="3.90368">
        <ele>5</ele>
        <time>2021-01-01T12:57:16Z</time>
      </trkpt>
      <trkpt lat="43.57871" lon="3.90372">
        <ele>5</ele>
        <time>2021-01-01T12:57:17Z</time>
      </trkpt>
      <trkpt lat="43.57874" lon="3.90376">
        <ele>5</ele>
        <time>2021-01-01T12:57:18Z</time>
      </trkpt>
      <trkpt lat="43.57878" lon="3.90381">
        <ele>5</ele>
        <time>2021-01-01T12:57:19Z</time>
      </trkpt>
      <trkpt lat="43.57882" lon="3.90386">
        <ele>5</ele>
        <time>2021-01-01T12:57:20Z</time>
      </trkpt>
      <trkpt lat="43.57887" lon="3.90392">
        <ele>5</ele>
        <time>2021-01-01T12:57:21Z</time>
      </trkpt>
      <trkpt lat="43.57891" lon="3.90397">
        <ele>5</ele>
        <time>2021-01-01T12:57:22Z</time>
      </trkpt>
      <trkpt lat="43.57895" lon="3.90402">
        <ele>4</ele>
        <time>2021-01-01T12:57:23Z</time>
      </trkpt>
      <trkpt lat="43.57898" lon="3.90407">
        <ele>3</ele>
        <time>2021-01-01T12:57:24Z</time>
      </trkpt>
      <trkpt lat="43.57901" lon="3.90413">
        <ele>3</ele>
        <time>2021-01-01T12:57:25Z</time>
      </trkpt>
      <trkpt lat="43.57904" lon="3.90419">
        <ele>3</ele>
        <time>2021-01-01T12:57:26Z</time>
      </trkpt>
      <trkpt lat="43.57907" lon="3.90425">
        <ele>3</ele>
        <time>2021-01-01T12:57:27Z</time>
      </trkpt>
      <trkpt lat="43.5791" lon="3.90431">
        <ele>3</ele>
        <time>2021-01-01T12:57:28Z</time>
      </trkpt>
      <trkpt lat="43.57912" lon="3.90437">
        <ele>3</ele>
        <time>2021-01-01T12:57:29Z</time>
      </trkpt>
      <trkpt lat="43.57915" lon="3.90443">
        <ele>3</ele>
        <time>2021-01-01T12:57:30Z</time>
      </trkpt>
      <trkpt lat="43.57918" lon="3.9045">
        <ele>3</ele>
        <time>2021-01-01T12:57:31Z</time>
      </trkpt>
      <trkpt lat="43.5792" lon="3.90457">
        <ele>3</ele>
        <time>2021-01-01T12:57:32Z</time>
      </trkpt>
      <trkpt lat="43.57922" lon="3.90463">
        <ele>2</ele>
        <time>2021-01-01T12:57:33Z</time>
      </trkpt>
      <trkpt lat="43.57924" lon="3.90469">
        <ele>2</ele>
        <time>2021-01-01T12:57:34Z</time>
      </trkpt>
      <trkpt lat="43.57926" lon="3.90476">
        <ele>2</ele>
        <time>2021-01-01T12:57:35Z</time>
      </trkpt>
      <trkpt lat="43.57928" lon="3.90482">
        <ele>2</ele>
        <time>2021-01-01T12:57:36Z</time>
      </trkpt>
      <trkpt lat="43.5793" lon="3.90489">
        <ele>2</ele>
        <time>2021-01-01T12:57:37Z</time>
      </trkpt>
      <trkpt lat="43.57933" lon="3.90495">
        <ele>2</ele>
        <time>2021-01-01T12:57:38Z</time>
      </trkpt>
      <trkpt lat="43.57936" lon="3.90501">
        <ele>1</ele>
        <time>2021-01-01T12:57:39Z</time>
      </trkpt>
      <trkpt lat="43.57939" lon="3.90507">
        <ele>1</ele>
        <time>2021-01-01T12:57:40Z</time>
      </trkpt>
      <trkpt lat="43.57941" lon="3.90514">
        <ele>1</ele>
        <time>2021-01-01T12:57:41Z</time>
      </trkpt>
      <trkpt lat="43.57944" lon="3.9052">
        <ele>1</ele>
        <time>2021-01-01T12:57:42Z</time>
      </trkpt>
      <trkpt lat="43.57947" lon="3.90526">
        <ele>1</ele>
        <time>2021-01-01T12:57:43Z</time>
      </trkpt>
      <trkpt lat="43.5795" lon="3.90532">
        <ele>1</ele>
        <time>2021-01-01T12:57:44Z</time>
      </trkpt>
      <trkpt lat="43.57953" lon="3.90539">
        <ele>1</ele>
        <time>2021-01-01T12:57:45Z</time>
      </trkpt>
      <trkpt lat="43.57956" lon="3.90545">
        <ele>1</ele>
        <time>2021-01-01T12:57:46Z</time>
      </trkpt>
      <trkpt lat="43.57959" lon="3.90551">
        <ele>1</ele>
        <time>2021-01-01T12:57:47Z</time>
      </trkpt>
      <trkpt lat="43.57962" lon="3.90557">
        <ele>6.8</ele>
        <time>2021-01-01T12:57:48Z</time>
      </trkpt>
      <trkpt lat="43.57964" lon="3.90563">
        <ele>7.2</ele>
        <time>2021-01-01T12:57:49Z</time>
      </trkpt>
      <trkpt lat="43.57967" lon="3.90569">
        <ele>1</ele>
        <time>2021-01-01T12:57:50Z</time>
      </trkpt>
      <trkpt lat="43.5797" lon="3.90575">
        <ele>1</ele>
        <time>2021-01-01T12:57:51Z</time>
      </trkpt>
      <trkpt lat="43.57973" lon="3.90581">
        <ele>1</ele>
        <time>2021-01-01T12:57:52Z</time>
      </trkpt>
      <trkpt lat="43.57976" lon="3.90587">
        <ele>2</ele>
        <time>2021-01-01T12:57:53Z</time>
      </trkpt>
      <trkpt lat="43.57979" lon="3.90594">
        <ele>2</ele>
        <time>2021-01-01T12:57:54Z</time>
      </trkpt>
      <trkpt lat="43.57982" lon="3.906">
        <ele>2</ele>
        <time>2021-01-01T12:57:55Z</time>
      </trkpt>
      <trkpt lat="43.57985" lon="3.90605">
        <ele>2</ele>
        <time>2021-01-01T12:57:56Z</time>
      </trkpt>
      <trkpt lat="43.57989" lon="3.90611">
        <ele>2</ele>
        <time>2021-01-01T12:57:57Z</time>
      </trkpt>
      <trkpt lat="43.57992" lon="3.90616">
        <ele>2</ele>
        <time>2021-01-01T12:57:58Z</time>
      </trkpt>
      <trkpt lat="43.57995" lon="3.90622">
        <ele>2</ele>
        <time>2021-01-01T12:57:59Z</time>
      </trkpt>
      <trkpt lat="43.57998" lon="3.90628">
        <ele>2</ele>
        <time>2021-01-01T12:58:00Z</time>
      </trkpt>
      <trkpt lat="43.58001" lon="3.90634">
        <ele>2</ele>
        <time>2021-01-01T12:58:01Z</time>
      </trkpt>
      <trkpt lat="43.58004" lon="3.90639">
        <ele>3</ele>
        <time>2021-01-01T12:58:02Z</time>
      </trkpt>
      <trkpt lat="43.58006" lon="3.90646">
        <ele>3</ele>
        <time>2021-01-01T12:58:03Z</time>
      </trkpt>
      <trkpt lat="43.58008" lon="3.90652">
        <ele>3</ele>
        <time>2021-01-01T12:58:04Z</time>
      </trkpt>
      <trkpt lat="43.58011" lon="3.90658">
        <ele>3</ele>
        <time>2021-01-01T12:58:05Z</time>
      </trkpt>
      <trkpt lat="43.58015" lon="3.90665">
        <ele>3</ele>
        <time>2021-01-01T12:58:06Z</time>
      </trkpt>
      <trkpt lat="43.58018" lon="3.9067">
        <ele>3</ele>
        <time>2021-01-01T12:58:07Z</time>
      </trkpt>
      <trkpt lat="43.5802" lon="3.90676">
        <ele>4</ele>
        <time>2021-01-01T12:58:08Z</time>
      </trkpt>
      <trkpt lat="43.58024" lon="3.90682">
        <ele>4</ele>
        <time>2021-01-01T12:58:09Z</time>
      </trkpt>
      <trkpt lat="43.58026" lon="3.90688">
        <ele>4</ele>
        <time>2021-01-01T12:58:10Z</time>
      </trkpt>
      <trkpt lat="43.5803" lon="3.90694">
        <ele>4</ele>
        <time>2021-01-01T12:58:11Z</time>
      </trkpt>
      <trkpt lat="43.58033" lon="3.907">
        <ele>4</ele>
        <time>2021-01-01T12:58:12Z</time>
      </trkpt>
      <trkpt lat="43.58036" lon="3.90706">
        <ele>4</ele>
        <time>2021-01-01T12:58:13Z</time>
      </trkpt>
      <trkpt lat="43.5804" lon="3.90712">
        <ele>4</ele>
        <time>2021-01-01T12:58:14Z</time>
      </trkpt>
      <trkpt lat="43.58044" lon="3.90718">
        <ele>3</ele>
        <time>2021-01-01T12:58:15Z</time>
      </trkpt>
      <trkpt lat="43.5805" lon="3.90729">
        <ele>3</ele>
        <time>2021-01-01T12:58:17Z</time>
      </trkpt>
      <trkpt lat="43.58053" lon="3.90735">
        <ele>3</ele>
        <time>2021-01-01T12:58:18Z</time>
      </trkpt>
      <trkpt lat="43.58057" lon="3.90741">
        <ele>3</ele>
        <time>2021-01-01T12:58:19Z</time>
      </trkpt>
      <trkpt lat="43.58061" lon="3.90747">
        <ele>3</ele>
        <time>2021-01-01T12:58:20Z</time>
      </trkpt>
      <trkpt lat="43.58064" lon="3.90751">
        <ele>3</ele>
        <time>2021-01-01T12:58:21Z</time>
      </trkpt>
      <trkpt lat="43.58069" lon="3.90755">
        <ele>3</ele>
        <time>2021-01-01T12:58:22Z</time>
      </trkpt>
      <trkpt lat="43.58073" lon="3.9076">
        <ele>3</ele>
        <time>2021-01-01T12:58:23Z</time>
      </trkpt>
      <trkpt lat="43.58077" lon="3.90764">
        <ele>3</ele>
        <time>2021-01-01T12:58:24Z</time>
      </trkpt>
      <trkpt lat="43.58081" lon="3.90769">
        <ele>3</ele>
        <time>2021-01-01T12:58:25Z</time>
      </trkpt>
      <trkpt lat="43.58087" lon="3.90773">
        <ele>3</ele>
        <time>2021-01-01T12:58:26Z</time>
      </trkpt>
      <trkpt lat="43.58091" lon="3.90776">
        <ele>3</ele>
        <time>2021-01-01T12:58:27Z</time>
      </trkpt>
      <trkpt lat="43.58096" lon="3.9078">
        <ele>4</ele>
        <time>2021-01-01T12:58:28Z</time>
      </trkpt>
      <trkpt lat="43.581" lon="3.90783">
        <ele>4</ele>
        <time>2021-01-01T12:58:29Z</time>
      </trkpt>
      <trkpt lat="43.58104" lon="3.90785">
        <ele>5</ele>
        <time>2021-01-01T12:58:30Z</time>
      </trkpt>
      <trkpt lat="43.58108" lon="3.90787">
        <ele>5</ele>
        <time>2021-01-01T12:58:31Z</time>
      </trkpt>
      <trkpt lat="43.58114" lon="3.9079">
        <ele>5</ele>
        <time>2021-01-01T12:58:32Z</time>
      </trkpt>
      <trkpt lat="43.58118" lon="3.90792">
        <ele>5</ele>
        <time>2021-01-01T12:58:33Z</time>
      </trkpt>
      <trkpt lat="43.58123" lon="3.90795">
        <ele>5</ele>
        <time>2021-01-01T12:58:34Z</time>
      </trkpt>
      <trkpt lat="43.58133" lon="3.90799">
        <ele>5</ele>
        <time>2021-01-01T12:58:36Z</time>
      </trkpt>
      <trkpt lat="43.58138" lon="3.90801">
        <ele>6</ele>
        <time>2021-01-01T12:58:37Z</time>
      </trkpt>
      <trkpt lat="43.58143" lon="3.90802">
        <ele>6</ele>
        <time>2021-01-01T12:58:38Z</time>
      </trkpt>
      <trkpt lat="43.58148" lon="3.90803">
        <ele>6</ele>
        <time>2021-01-01T12:58:39Z</time>
      </trkpt>
      <trkpt lat="43.58154" lon="3.90804">
        <ele>6</ele>
        <time>2021-01-01T12:58:40Z</time>
      </trkpt>
      <trkpt lat="43.58159" lon="3.90805">
        <ele>7</ele>
        <time>2021-01-01T12:58:41Z</time>
      </trkpt>
      <trkpt lat="43.58164" lon="3.90806">
        <ele>7</ele>
        <time>2021-01-01T12:58:42Z</time>
      </trkpt>
      <trkpt lat="43.5817" lon="3.90806">
        <ele>7</ele>
        <time>2021-01-01T12:58:43Z</time>
      </trkpt>
      <trkpt lat="43.58175" lon="3.90807">
        <ele>7</ele>
        <time>2021-01-01T12:58:44Z</time>
      </trkpt>
      <trkpt lat="43.5818" lon="3.90808">
        <ele>7</ele>
        <time>2021-01-01T12:58:45Z</time>
      </trkpt>
      <trkpt lat="43.58185" lon="3.90808">
        <ele>7</ele>
        <time>2021-01-01T12:58:46Z</time>
      </trkpt>
      <trkpt lat="43.5819" lon="3.90809">
        <ele>8</ele>
        <time>2021-01-01T12:58:47Z</time>
      </trkpt>
      <trkpt lat="43.58195" lon="3.90809">
        <ele>8</ele>
        <time>2021-01-01T12:58:48Z</time>
      </trkpt>
      <trkpt lat="43.58201" lon="3.90809">
        <ele>8</ele>
        <time>2021-01-01T12:58:49Z</time>
      </trkpt>
      <trkpt lat="43.58206" lon="3.9081">
        <ele>8</ele>
        <time>2021-01-01T12:58:50Z</time>
      </trkpt>
      <trkpt lat="43.58211" lon="3.9081">
        <ele>8</ele>
        <time>2021-01-01T12:58:51Z</time>
      </trkpt>
      <trkpt lat="43.58216" lon="3.90811">
        <ele>8</ele>
        <time>2021-01-01T12:58:52Z</time>
      </trkpt>
      <trkpt lat="43.58221" lon="3.90811">
        <ele>8</ele>
        <time>2021-01-01T12:58:53Z</time>
      </trkpt>
      <trkpt lat="43.58227" lon="3.90812">
        <ele>8</ele>
        <time>2021-01-01T12:58:54Z</time>
      </trkpt>
      <trkpt lat="43.58232" lon="3.90812">
        <ele>8</ele>
        <time>2021-01-01T12:58:55Z</time>
      </trkpt>
      <trkpt lat="43.58237" lon="3.90813">
        <ele>8</ele>
        <time>2021-01-01T12:58:56Z</time>
      </trkpt>
      <trkpt lat="43.58242" lon="3.90814">
        <ele>9</ele>
        <time>2021-01-01T12:58:57Z</time>
      </trkpt>
      <trkpt lat="43.58247" lon="3.90815">
        <ele>9</ele>
        <time>2021-01-01T12:58:58Z</time>
      </trkpt>
      <trkpt lat="43.58252" lon="3.90815">
        <ele>9</ele>
        <time>2021-01-01T12:58:59Z</time>
      </trkpt>
      <trkpt lat="43.58258" lon="3.90815">
        <ele>9</ele>
        <time>2021-01-01T12:59:00Z</time>
      </trkpt>
      <trkpt lat="43.58264" lon="3.90816">
        <ele>9</ele>
        <time>2021-01-01T12:59:01Z</time>
      </trkpt>
      <trkpt lat="43.5827" lon="3.90816">
        <ele>9</ele>
        <time>2021-01-01T12:59:02Z</time>
      </trkpt>
      <trkpt lat="43.58275" lon="3.90816">
        <ele>9</ele>
        <time>2021-01-01T12:59:03Z</time>
      </trkpt>
      <trkpt lat="43.5828" lon="3.90816">
        <ele>9</ele>
        <time>2021-01-01T12:59:04Z</time>
      </trkpt>
      <trkpt lat="43.58285" lon="3.90817">
        <ele>9</ele>
        <time>2021-01-01T12:59:05Z</time>
      </trkpt>
      <trkpt lat="43.5829" lon="3.90817">
        <ele>9</ele>
        <time>2021-01-01T12:59:06Z</time>
      </trkpt>
      <trkpt lat="43.58295" lon="3.90817">
        <ele>9</ele>
        <time>2021-01-01T12:59:07Z</time>
      </trkpt>
      <trkpt lat="43.583" lon="3.90816">
        <ele>8</ele>
        <time>2021-01-01T12:59:08Z</time>
      </trkpt>
      <trkpt lat="43.58305" lon="3.90816">
        <ele>8</ele>
        <time>2021-01-01T12:59:09Z</time>
      </trkpt>
      <trkpt lat="43.5831" lon="3.90816">
        <ele>8</ele>
        <time>2021-01-01T12:59:10Z</time>
      </trkpt>
      <trkpt lat="43.58315" lon="3.90817">
        <ele>8</ele>
        <time>2021-01-01T12:59:11Z</time>
      </trkpt>
      <trkpt lat="43.58321" lon="3.90819">
        <ele>7</ele>
        <time>2021-01-01T12:59:12Z</time>
      </trkpt>
      <trkpt lat="43.58326" lon="3.9082">
        <ele>7</ele>
        <time>2021-01-01T12:59:13Z</time>
      </trkpt>
      <trkpt lat="43.58332" lon="3.9082">
        <ele>7</ele>
        <time>2021-01-01T12:59:14Z</time>
      </trkpt>
      <trkpt lat="43.58337" lon="3.90821">
        <ele>7</ele>
        <time>2021-01-01T12:59:15Z</time>
      </trkpt>
      <trkpt lat="43.58342" lon="3.90822">
        <ele>7</ele>
        <time>2021-01-01T12:59:16Z</time>
      </trkpt>
      <trkpt lat="43.58348" lon="3.90822">
        <ele>8</ele>
        <time>2021-01-01T12:59:17Z</time>
      </trkpt>
      <trkpt lat="43.58353" lon="3.90822">
        <ele>8</ele>
        <time>2021-01-01T12:59:18Z</time>
      </trkpt>
      <trkpt lat="43.58358" lon="3.90821">
        <ele>8</ele>
        <time>2021-01-01T12:59:19Z</time>
      </trkpt>
      <trkpt lat="43.58363" lon="3.90821">
        <ele>9</ele>
        <time>2021-01-01T12:59:20Z</time>
      </trkpt>
      <trkpt lat="43.58369" lon="3.90821">
        <ele>9</ele>
        <time>2021-01-01T12:59:21Z</time>
      </trkpt>
      <trkpt lat="43.58375" lon="3.9082">
        <ele>9</ele>
        <time>2021-01-01T12:59:22Z</time>
      </trkpt>
      <trkpt lat="43.58381" lon="3.9082">
        <ele>9</ele>
        <time>2021-01-01T12:59:23Z</time>
      </trkpt>
      <trkpt lat="43.58386" lon="3.90819">
        <ele>9</ele>
        <time>2021-01-01T12:59:24Z</time>
      </trkpt>
      <trkpt lat="43.58391" lon="3.90818">
        <ele>9</ele>
        <time>2021-01-01T12:59:25Z</time>
      </trkpt>
      <trkpt lat="43.58397" lon="3.90816">
        <ele>9</ele>
        <time>2021-01-01T12:59:26Z</time>
      </trkpt>
      <trkpt lat="43.58402" lon="3.90815">
        <ele>9</ele>
        <time>2021-01-01T12:59:27Z</time>
      </trkpt>
      <trkpt lat="43.58407" lon="3.90814">
        <ele>9</ele>
        <time>2021-01-01T12:59:28Z</time>
      </trkpt>
      <trkpt lat="43.58412" lon="3.90812">
        <ele>9</ele>
        <time>2021-01-01T12:59:29Z</time>
      </trkpt>
      <trkpt lat="43.58418" lon="3.90811">
        <ele>9</ele>
        <time>2021-01-01T12:59:30Z</time>
      </trkpt>
      <trkpt lat="43.58423" lon="3.9081">
        <ele>10</ele>
        <time>2021-01-01T12:59:31Z</time>
      </trkpt>
      <trkpt lat="43.58428" lon="3.90808">
        <ele>10</ele>
        <time>2021-01-01T12:59:32Z</time>
      </trkpt>
      <trkpt lat="43.58434" lon="3.90806">
        <ele>10</ele>
        <time>2021-01-01T12:59:33Z</time>
      </trkpt>
      <trkpt lat="43.58439" lon="3.90804">
        <ele>10</ele>
        <time>2021-01-01T12:59:34Z</time>
      </trkpt>
      <trkpt lat="43.58445" lon="3.90803">
        <ele>10</ele>
        <time>2021-01-01T12:59:35Z</time>
      </trkpt>
      <trkpt lat="43.5845" lon="3.90801">
        <ele>11</ele>
        <time>2021-01-01T12:59:36Z</time>
      </trkpt>
      <trkpt lat="43.58455" lon="3.90798">
        <ele>11</ele>
        <time>2021-01-01T12:59:37Z</time>
      </trkpt>
      <trkpt lat="43.58461" lon="3.90796">
        <ele>11</ele>
        <time>2021-01-01T12:59:38Z</time>
      </trkpt>
      <trkpt lat="43.58467" lon="3.90793">
        <ele>11</ele>
        <time>2021-01-01T12:59:39Z</time>
      </trkpt>
      <trkpt lat="43.58472" lon="3.9079">
        <ele>11</ele>
        <time>2021-01-01T12:59:40Z</time>
      </trkpt>
      <trkpt lat="43.58477" lon="3.90787">
        <ele>11</ele>
        <time>2021-01-01T12:59:41Z</time>
      </trkpt>
      <trkpt lat="43.58482" lon="3.90784">
        <ele>11</ele>
        <time>2021-01-01T12:59:42Z</time>
      </trkpt>
      <trkpt lat="43.58487" lon="3.90781">
        <ele>11</ele>
        <time>2021-01-01T12:59:43Z</time>
      </trkpt>
      <trkpt lat="43.58492" lon="3.90778">
        <ele>11</ele>
        <time>2021-01-01T12:59:44Z</time>
      </trkpt>
      <trkpt lat="43.58498" lon="3.90775">
        <ele>11</ele>
        <time>2021-01-01T12:59:45Z</time>
      </trkpt>
      <trkpt lat="43.58503" lon="3.90772">
        <ele>11</ele>
        <time>2021-01-01T12:59:46Z</time>
      </trkpt>
      <trkpt lat="43.58508" lon="3.9077">
        <ele>11</ele>
        <time>2021-01-01T12:59:47Z</time>
      </trkpt>
      <trkpt lat="43.58514" lon="3.90767">
        <ele>11</ele>
        <time>2021-01-01T12:59:48Z</time>
      </trkpt>
      <trkpt lat="43.58519" lon="3.90765">
        <ele>11</ele>
        <time>2021-01-01T12:59:49Z</time>
      </trkpt>
      <trkpt lat="43.58524" lon="3.90763">
        <ele>11</ele>
        <time>2021-01-01T12:59:50Z</time>
      </trkpt>
      <trkpt lat="43.58529" lon="3.90762">
        <ele>11</ele>
        <time>2021-01-01T12:59:51Z</time>
      </trkpt>
      <trkpt lat="43.58535" lon="3.9076">
        <ele>11</ele>
        <time>2021-01-01T12:59:52Z</time>
      </trkpt>
      <trkpt lat="43.5854" lon="3.90758">
        <ele>11</ele>
        <time>2021-01-01T12:59:53Z</time>
      </trkpt>
      <trkpt lat="43.58545" lon="3.90756">
        <ele>11</ele>
        <time>2021-01-01T12:59:54Z</time>
      </trkpt>
      <trkpt lat="43.58551" lon="3.90754">
        <ele>10</ele>
        <time>2021-01-01T12:59:55Z</time>
      </trkpt>
      <trkpt lat="43.58556" lon="3.90753">
        <ele>10</ele>
        <time>2021-01-01T12:59:56Z</time>
      </trkpt>
      <trkpt lat="43.58562" lon="3.90752">
        <ele>10</ele>
        <time>2021-01-01T12:59:57Z</time>
      </trkpt>
      <trkpt lat="43.58567" lon="3.90751">
        <ele>10</ele>
        <time>2021-01-01T12:59:58Z</time>
      </trkpt>
      <trkpt lat="43.58572" lon="3.9075">
        <ele>10</ele>
        <time>2021-01-01T12:59:59Z</time>
      </trkpt>
      <trkpt lat="43.58577" lon="3.90749">
        <ele>10</ele>
        <time>2021-01-01T13:00:00Z</time>
      </trkpt>
      <trkpt lat="43.58583" lon="3.90748">
        <ele>10</ele>
        <time>2021-01-01T13:00:01Z</time>
      </trkpt>
      <trkpt lat="43.58587" lon="3.90748">
        <ele>10</ele>
        <time>2021-01-01T13:00:02Z</time>
      </trkpt>
      <trkpt lat="43.58593" lon="3.90747">
        <ele>11</ele>
        <time>2021-01-01T13:00:03Z</time>
      </trkpt>
      <trkpt lat="43.58598" lon="3.90746">
        <ele>11</ele>
        <time>2021-01-01T13:00:04Z</time>
      </trkpt>
      <trkpt lat="43.58603" lon="3.90746">
        <ele>11</ele>
        <time>2021-01-01T13:00:05Z</time>
      </trkpt>
      <trkpt lat="43.58608" lon="3.90745">
        <ele>11</ele>
        <time>2021-01-01T13:00:06Z</time>
      </trkpt>
      <trkpt lat="43.58613" lon="3.90745">
        <ele>11</ele>
        <time>2021-01-01T13:00:07Z</time>
      </trkpt>
      <trkpt lat="43.58619" lon="3.90746">
        <ele>11</ele>
        <time>2021-01-01T13:00:08Z</time>
      </trkpt>
      <trkpt lat="43.58624" lon="3.90746">
        <ele>11</ele>
        <time>2021-01-01T13:00:09Z</time>
      </trkpt>
      <trkpt lat="43.58629" lon="3.90747">
        <ele>11</ele>
        <time>2021-01-01T13:00:10Z</time>
      </trkpt>
      <trkpt lat="43.58635" lon="3.90748">
        <ele>11</ele>
        <time>2021-01-01T13:00:11Z</time>
      </trkpt>
      <trkpt lat="43.5864" lon="3.90751">
        <ele>12</ele>
        <time>2021-01-01T13:00:12Z</time>
      </trkpt>
      <trkpt lat="43.58643" lon="3.90754">
        <ele>12</ele>
        <time>2021-01-01T13:00:13Z</time>
      </trkpt>
      <trkpt lat="43.58648" lon="3.90757">
        <ele>12</ele>
        <time>2021-01-01T13:00:14Z</time>
      </trkpt>
      <trkpt lat="43.58652" lon="3.90761">
        <ele>11</ele>
        <time>2021-01-01T13:00:15Z</time>
      </trkpt>
      <trkpt lat="43.58661" lon="3.90767">
        <ele>11</ele>
        <time>2021-01-01T13:00:17Z</time>
      </trkpt>
      <trkpt lat="43.58666" lon="3.90771">
        <ele>10</ele>
        <time>2021-01-01T13:00:18Z</time>
      </trkpt>
      <trkpt lat="43.58674" lon="3.90773">
        <ele>9</ele>
        <time>2021-01-01T13:00:19Z</time>
      </trkpt>
      <trkpt lat="43.5868" lon="3.90776">
        <ele>8</ele>
        <time>2021-01-01T13:00:20Z</time>
      </trkpt>
      <trkpt lat="43.58686" lon="3.90778">
        <ele>8</ele>
        <time>2021-01-01T13:00:21Z</time>
      </trkpt>
      <trkpt lat="43.58693" lon="3.9078">
        <ele>8</ele>
        <time>2021-01-01T13:00:22Z</time>
      </trkpt>
      <trkpt lat="43.58699" lon="3.90782">
        <ele>8</ele>
        <time>2021-01-01T13:00:23Z</time>
      </trkpt>
      <trkpt lat="43.58706" lon="3.90783">
        <ele>8</ele>
        <time>2021-01-01T13:00:24Z</time>
      </trkpt>
      <trkpt lat="43.58712" lon="3.90784">
        <ele>8</ele>
        <time>2021-01-01T13:00:25Z</time>
      </trkpt>
      <trkpt lat="43.58718" lon="3.90785">
        <ele>8</ele>
        <time>2021-01-01T13:00:26Z</time>
      </trkpt>
      <trkpt lat="43.58725" lon="3.90786">
        <ele>8</ele>
        <time>2021-01-01T13:00:27Z</time>
      </trkpt>
      <trkpt lat="43.5873" lon="3.90788">
        <ele>8</ele>
        <time>2021-01-01T13:00:28Z</time>
      </trkpt>
      <trkpt lat="43.58736" lon="3.90792">
        <ele>7</ele>
        <time>2021-01-01T13:00:29Z</time>
      </trkpt>
      <trkpt lat="43.58742" lon="3.90795">
        <ele>7</ele>
        <time>2021-01-01T13:00:30Z</time>
      </trkpt>
      <trkpt lat="43.58748" lon="3.90797">
        <ele>7</ele>
        <time>2021-01-01T13:00:31Z</time>
      </trkpt>
      <trkpt lat="43.58754" lon="3.90798">
        <ele>7</ele>
        <time>2021-01-01T13:00:32Z</time>
      </trkpt>
      <trkpt lat="43.58759" lon="3.90799">
        <ele>7</ele>
        <time>2021-01-01T13:00:33Z</time>
      </trkpt>
      <trkpt lat="43.58765" lon="3.90801">
        <ele>7</ele>
        <time>2021-01-01T13:00:34Z</time>
      </trkpt>
      <trkpt lat="43.58771" lon="3.90802">
        <ele>7</ele>
        <time>2021-01-01T13:00:35Z</time>
      </trkpt>
      <trkpt lat="43.58776" lon="3.90804">
        <ele>7</ele>
        <time>2021-01-01T13:00:36Z</time>
      </trkpt>
      <trkpt lat="43.58781" lon="3.90806">
        <ele>7</ele>
        <time>2021-01-01T13:00:37Z</time>
      </trkpt>
      <trkpt lat="43.58788" lon="3.90807">
        <ele>7</ele>
        <time>2021-01-01T13:00:38Z</time>
      </trkpt>
      <trkpt lat="43.58793" lon="3.90808">
        <ele>7</ele>
        <time>2021-01-01T13:00:39Z</time>
      </trkpt>
      <trkpt lat="43.58799" lon="3.90807">
        <ele>7</ele>
        <time>2021-01-01T13:00:40Z</time>
      </trkpt>
      <trkpt lat="43.58804" lon="3.90805">
        <ele>7</ele>
        <time>2021-01-01T13:00:41Z</time>
      </trkpt>
      <trkpt lat="43.58808" lon="3.908">
        <ele>7</ele>
        <time>2021-01-01T13:00:42Z</time>
      </trkpt>
      <trkpt lat="43.58815" lon="3.90794">
        <ele>7</ele>
        <time>2021-01-01T13:00:44Z</time>
      </trkpt>
      <trkpt lat="43.58821" lon="3.90794">
        <ele>8</ele>
        <time>2021-01-01T13:00:45Z</time>
      </trkpt>
      <trkpt lat="43.58825" lon="3.90794">
        <ele>8</ele>
        <time>2021-01-01T13:00:46Z</time>
      </trkpt>
      <trkpt lat="43.5883" lon="3.90795">
        <ele>8</ele>
        <time>2021-01-01T13:00:47Z</time>
      </trkpt>
      <trkpt lat="43.58835" lon="3.90795">
        <ele>9</ele>
        <time>2021-01-01T13:00:48Z</time>
      </trkpt>
      <trkpt lat="43.58842" lon="3.90793">
        <ele>9</ele>
        <time>2021-01-01T13:00:50Z</time>
      </trkpt>
      <trkpt lat="43.58847" lon="3.90793">
        <ele>9</ele>
        <time>2021-01-01T13:00:51Z</time>
      </trkpt>
      <trkpt lat="43.58856" lon="3.90791">
        <ele>10</ele>
        <time>2021-01-01T13:00:53Z</time>
      </trkpt>
      <trkpt lat="43.58861" lon="3.9079">
        <ele>10</ele>
        <time>2021-01-01T13:00:54Z</time>
      </trkpt>
      <trkpt lat="43.58866" lon="3.90788">
        <ele>10</ele>
        <time>2021-01-01T13:00:55Z</time>
      </trkpt>
      <trkpt lat="43.58875" lon="3.90785">
        <ele>11</ele>
        <time>2021-01-01T13:00:57Z</time>
      </trkpt>
      <trkpt lat="43.5888" lon="3.90784">
        <ele>11</ele>
        <time>2021-01-01T13:00:58Z</time>
      </trkpt>
      <trkpt lat="43.58888" lon="3.90783">
        <ele>11</ele>
        <time>2021-01-01T13:01:01Z</time>
      </trkpt>
      <trkpt lat="43.58894" lon="3.90783">
        <ele>11</ele>
        <time>2021-01-01T13:01:02Z</time>
      </trkpt>
      <trkpt lat="43.58899" lon="3.90782">
        <ele>11</ele>
        <time>2021-01-01T13:01:03Z</time>
      </trkpt>
      <trkpt lat="43.58906" lon="3.90783">
        <ele>10</ele>
        <time>2021-01-01T13:01:04Z</time>
      </trkpt>
      <trkpt lat="43.58914" lon="3.90784">
        <ele>10</ele>
        <time>2021-01-01T13:01:05Z</time>
      </trkpt>
      <trkpt lat="43.58919" lon="3.90782">
        <ele>10</ele>
        <time>2021-01-01T13:01:06Z</time>
      </trkpt>
      <trkpt lat="43.58925" lon="3.9078">
        <ele>9</ele>
        <time>2021-01-01T13:01:07Z</time>
      </trkpt>
      <trkpt lat="43.58931" lon="3.90779">
        <ele>9</ele>
        <time>2021-01-01T13:01:08Z</time>
      </trkpt>
      <trkpt lat="43.5894" lon="3.90775">
        <ele>9</ele>
        <time>2021-01-01T13:01:10Z</time>
      </trkpt>
      <trkpt lat="43.58945" lon="3.90774">
        <ele>9</ele>
        <time>2021-01-01T13:01:11Z</time>
      </trkpt>
      <trkpt lat="43.5895" lon="3.90772">
        <ele>9</ele>
        <time>2021-01-01T13:01:12Z</time>
      </trkpt>
      <trkpt lat="43.58955" lon="3.90772">
        <ele>9</ele>
        <time>2021-01-01T13:01:13Z</time>
      </trkpt>
      <trkpt lat="43.5896" lon="3.90771">
        <ele>9</ele>
        <time>2021-01-01T13:01:14Z</time>
      </trkpt>
      <trkpt lat="43.58965" lon="3.9077">
        <ele>9</ele>
        <time>2021-01-01T13:01:15Z</time>
      </trkpt>
      <trkpt lat="43.58971" lon="3.90769">
        <ele>9</ele>
        <time>2021-01-01T13:01:16Z</time>
      </trkpt>
      <trkpt lat="43.58977" lon="3.90768">
        <ele>9</ele>
        <time>2021-01-01T13:01:17Z</time>
      </trkpt>
      <trkpt lat="43.58981" lon="3.90766">
        <ele>9</ele>
        <time>2021-01-01T13:01:18Z</time>
      </trkpt>
      <trkpt lat="43.58986" lon="3.90765">
        <ele>9</ele>
        <time>2021-01-01T13:01:19Z</time>
      </trkpt>
      <trkpt lat="43.58991" lon="3.90764">
        <ele>9</ele>
        <time>2021-01-01T13:01:20Z</time>
      </trkpt>
      <trkpt lat="43.58996" lon="3.90763">
        <ele>10</ele>
        <time>2021-01-01T13:01:21Z</time>
      </trkpt>
      <trkpt lat="43.59002" lon="3.90762">
        <ele>10</ele>
        <time>2021-01-01T13:01:22Z</time>
      </trkpt>
      <trkpt lat="43.59007" lon="3.9076">
        <ele>10</ele>
        <time>2021-01-01T13:01:23Z</time>
      </trkpt>
      <trkpt lat="43.59011" lon="3.90758">
        <ele>10</ele>
        <time>2021-01-01T13:01:24Z</time>
      </trkpt>
      <trkpt lat="43.59018" lon="3.90754">
        <ele>10</ele>
        <time>2021-01-01T13:01:26Z</time>
      </trkpt>
      <trkpt lat="43.59023" lon="3.90751">
        <ele>10</ele>
        <time>2021-01-01T13:01:27Z</time>
      </trkpt>
      <trkpt lat="43.59027" lon="3.90749">
        <ele>10</ele>
        <time>2021-01-01T13:01:28Z</time>
      </trkpt>
      <trkpt lat="43.59031" lon="3.90746">
        <ele>10</ele>
        <time>2021-01-01T13:01:29Z</time>
      </trkpt>
      <trkpt lat="43.59036" lon="3.90743">
        <ele>10</ele>
        <time>2021-01-01T13:01:30Z</time>
      </trkpt>
      <trkpt lat="43.5904" lon="3.9074">
        <ele>10</ele>
        <time>2021-01-01T13:01:31Z</time>
      </trkpt>
      <trkpt lat="43.59044" lon="3.90736">
        <ele>10</ele>
        <time>2021-01-01T13:01:32Z</time>
      </trkpt>
      <trkpt lat="43.59048" lon="3.90732">
        <ele>10</ele>
        <time>2021-01-01T13:01:33Z</time>
      </trkpt>
      <trkpt lat="43.59053" lon="3.90729">
        <ele>10</ele>
        <time>2021-01-01T13:01:34Z</time>
      </trkpt>
      <trkpt lat="43.59058" lon="3.90726">
        <ele>10</ele>
        <time>2021-01-01T13:01:35Z</time>
      </trkpt>
      <trkpt lat="43.59062" lon="3.90722">
        <ele>10</ele>
        <time>2021-01-01T13:01:36Z</time>
      </trkpt>
      <trkpt lat="43.59066" lon="3.90719">
        <ele>10</ele>
        <time>2021-01-01T13:01:37Z</time>
      </trkpt>
      <trkpt lat="43.5907" lon="3.90714">
        <ele>10</ele>
        <time>2021-01-01T13:01:38Z</time>
      </trkpt>
      <trkpt lat="43.59074" lon="3.9071">
        <ele>10</ele>
        <time>2021-01-01T13:01:39Z</time>
      </trkpt>
      <trkpt lat="43.59078" lon="3.90705">
        <ele>10</ele>
        <time>2021-01-01T13:01:40Z</time>
      </trkpt>
      <trkpt lat="43.59082" lon="3.90701">
        <ele>10</ele>
        <time>2021-01-01T13:01:41Z</time>
      </trkpt>
      <trkpt lat="43.59085" lon="3.90696">
        <ele>10</ele>
        <time>2021-01-01T13:01:42Z</time>
      </trkpt>
      <trkpt lat="43.59089" lon="3.90692">
        <ele>10</ele>
        <time>2021-01-01T13:01:43Z</time>
      </trkpt>
      <trkpt lat="43.59092" lon="3.90687">
        <ele>10</ele>
        <time>2021-01-01T13:01:44Z</time>
      </trkpt>
      <trkpt lat="43.59097" lon="3.90683">
        <ele>10</ele>
        <time>2021-01-01T13:01:45Z</time>
      </trkpt>
      <trkpt lat="43.59101" lon="3.90679">
        <ele>10</ele>
        <time>2021-01-01T13:01:46Z</time>
      </trkpt>
      <trkpt lat="43.59107" lon="3.9067">
        <ele>10</ele>
        <time>2021-01-01T13:01:48Z</time>
      </trkpt>
      <trkpt lat="43.59111" lon="3.90665">
        <ele>10</ele>
        <time>2021-01-01T13:01:49Z</time>
      </trkpt>
      <trkpt lat="43.59115" lon="3.9066">
        <ele>10</ele>
        <time>2021-01-01T13:01:50Z</time>
      </trkpt>
      <trkpt lat="43.59119" lon="3.90655">
        <ele>10</ele>
        <time>2021-01-01T13:01:51Z</time>
      </trkpt>
      <trkpt lat="43.59123" lon="3.90649">
        <ele>10</ele>
        <time>2021-01-01T13:01:52Z</time>
      </trkpt>
      <trkpt lat="43.59126" lon="3.90645">
        <ele>10</ele>
        <time>2021-01-01T13:01:53Z</time>
      </trkpt>
      <trkpt lat="43.5913" lon="3.9064">
        <ele>10</ele>
        <time>2021-01-01T13:01:54Z</time>
      </trkpt>
      <trkpt lat="43.59133" lon="3.90634">
        <ele>10</ele>
        <time>2021-01-01T13:01:55Z</time>
      </trkpt>
      <trkpt lat="43.59137" lon="3.90629">
        <ele>10</ele>
        <time>2021-01-01T13:01:56Z</time>
      </trkpt>
      <trkpt lat="43.5914" lon="3.90624">
        <ele>11</ele>
        <time>2021-01-01T13:01:57Z</time>
      </trkpt>
      <trkpt lat="43.59147" lon="3.90614">
        <ele>10</ele>
        <time>2021-01-01T13:01:59Z</time>
      </trkpt>
      <trkpt lat="43.5915" lon="3.9061">
        <ele>10</ele>
        <time>2021-01-01T13:02:00Z</time>
      </trkpt>
      <trkpt lat="43.59153" lon="3.90604">
        <ele>10</ele>
        <time>2021-01-01T13:02:01Z</time>
      </trkpt>
      <trkpt lat="43.59156" lon="3.90598">
        <ele>10</ele>
        <time>2021-01-01T13:02:02Z</time>
      </trkpt>
      <trkpt lat="43.5916" lon="3.90593">
        <ele>10</ele>
        <time>2021-01-01T13:02:03Z</time>
      </trkpt>
      <trkpt lat="43.59162" lon="3.90587">
        <ele>10</ele>
        <time>2021-01-01T13:02:04Z</time>
      </trkpt>
      <trkpt lat="43.59164" lon="3.90581">
        <ele>10</ele>
        <time>2021-01-01T13:02:05Z</time>
      </trkpt>
      <trkpt lat="43.59167" lon="3.90576">
        <ele>10</ele>
        <time>2021-01-01T13:02:06Z</time>
      </trkpt>
      <trkpt lat="43.5917" lon="3.90571">
        <ele>10</ele>
        <time>2021-01-01T13:02:07Z</time>
      </trkpt>
      <trkpt lat="43.59174" lon="3.90567">
        <ele>10</ele>
        <time>2021-01-01T13:02:08Z</time>
      </trkpt>
      <trkpt lat="43.59178" lon="3.90563">
        <ele>10</ele>
        <time>2021-01-01T13:02:09Z</time>
      </trkpt>
      <trkpt lat="43.59184" lon="3.90554">
        <ele>10</ele>
        <time>2021-01-01T13:02:11Z</time>
      </trkpt>
      <trkpt lat="43.59191" lon="3.90546">
        <ele>10</ele>
        <time>2021-01-01T13:02:13Z</time>
      </trkpt>
      <trkpt lat="43.59194" lon="3.90541">
        <ele>10</ele>
        <time>2021-01-01T13:02:14Z</time>
      </trkpt>
      <trkpt lat="43.59198" lon="3.90537">
        <ele>10</ele>
        <time>2021-01-01T13:02:15Z</time>
      </trkpt>
      <trkpt lat="43.59202" lon="3.90533">
        <ele>11</ele>
        <time>2021-01-01T13:02:16Z</time>
      </trkpt>
      <trkpt lat="43.59209" lon="3.90524">
        <ele>11</ele>
        <time>2021-01-01T13:02:18Z</time>
      </trkpt>
      <trkpt lat="43.59213" lon="3.9052">
        <ele>11</ele>
        <time>2021-01-01T13:02:19Z</time>
      </trkpt>
      <trkpt lat="43.59216" lon="3.90517">
        <ele>11</ele>
        <time>2021-01-01T13:02:20Z</time>
      </trkpt>
      <trkpt lat="43.5922" lon="3.90513">
        <ele>11</ele>
        <time>2021-01-01T13:02:21Z</time>
      </trkpt>
      <trkpt lat="43.59223" lon="3.90508">
        <ele>11</ele>
        <time>2021-01-01T13:02:22Z</time>
      </trkpt>
      <trkpt lat="43.59227" lon="3.90504">
        <ele>11</ele>
        <time>2021-01-01T13:02:23Z</time>
      </trkpt>
      <trkpt lat="43.59231" lon="3.905">
        <ele>11</ele>
        <time>2021-01-01T13:02:24Z</time>
      </trkpt>
      <trkpt lat="43.59412" lon="3.90401">
        <ele>-9</ele>
        <time>2021-01-01T13:03:05Z</time>
      </trkpt>
      <trkpt lat="43.59415" lon="3.90397">
        <ele>-4</ele>
        <time>2021-01-01T13:03:06Z</time>
      </trkpt>
      <trkpt lat="43.59424" lon="3.9039">
        <ele>-1</ele>
        <time>2021-01-01T13:03:08Z</time>
      </trkpt>
      <trkpt lat="43.59428" lon="3.90386">
        <ele>-1</ele>
        <time>2021-01-01T13:03:09Z</time>
      </trkpt>
      <trkpt lat="43.59432" lon="3.90382">
        <ele>10</ele>
        <time>2021-01-01T13:03:10Z</time>
      </trkpt>
      <trkpt lat="43.59436" lon="3.90377">
        <ele>10</ele>
        <time>2021-01-01T13:03:11Z</time>
      </trkpt>
      <trkpt lat="43.5944" lon="3.90373">
        <ele>11</ele>
        <time>2021-01-01T13:03:12Z</time>
      </trkpt>
      <trkpt lat="43.59443" lon="3.90369">
        <ele>11</ele>
        <time>2021-01-01T13:03:13Z</time>
      </trkpt>
      <trkpt lat="43.59446" lon="3.90365">
        <ele>11</ele>
        <time>2021-01-01T13:03:14Z</time>
      </trkpt>
      <trkpt lat="43.59453" lon="3.90358">
        <ele>12</ele>
        <time>2021-01-01T13:03:16Z</time>
      </trkpt>
      <trkpt lat="43.59457" lon="3.90354">
        <ele>12</ele>
        <time>2021-01-01T13:03:17Z</time>
      </trkpt>
      <trkpt lat="43.59461" lon="3.90351">
        <ele>12</ele>
        <time>2021-01-01T13:03:18Z</time>
      </trkpt>
      <trkpt lat="43.59465" lon="3.90347">
        <ele>12</ele>
        <time>2021-01-01T13:03:19Z</time>
      </trkpt>
      <trkpt lat="43.59469" lon="3.90343">
        <ele>12</ele>
        <time>2021-01-01T13:03:20Z</time>
      </trkpt>
      <trkpt lat="43.59473" lon="3.90338">
        <ele>12</ele>
        <time>2021-01-01T13:03:21Z</time>
      </trkpt>
      <trkpt lat="43.59477" lon="3.90334">
        <ele>12</ele>
        <time>2021-01-01T13:03:22Z</time>
      </trkpt>
      <trkpt lat="43.5948" lon="3.9033">
        <ele>12</ele>
        <time>2021-01-01T13:03:23Z</time>
      </trkpt>
      <trkpt lat="43.59484" lon="3.90325">
        <ele>12</ele>
        <time>2021-01-01T13:03:24Z</time>
      </trkpt>
      <trkpt lat="43.59492" lon="3.90317">
        <ele>12</ele>
        <time>2021-01-01T13:03:26Z</time>
      </trkpt>
      <trkpt lat="43.59497" lon="3.90312">
        <ele>12</ele>
        <time>2021-01-01T13:03:27Z</time>
      </trkpt>
      <trkpt lat="43.59501" lon="3.90307">
        <ele>12</ele>
        <time>2021-01-01T13:03:28Z</time>
      </trkpt>
      <trkpt lat="43.59504" lon="3.90301">
        <ele>12</ele>
        <time>2021-01-01T13:03:29Z</time>
      </trkpt>
      <trkpt lat="43.59508" lon="3.90296">
        <ele>13</ele>
        <time>2021-01-01T13:03:30Z</time>
      </trkpt>
      <trkpt lat="43.59512" lon="3.90291">
        <ele>13</ele>
        <time>2021-01-01T13:03:31Z</time>
      </trkpt>
      <trkpt lat="43.59515" lon="3.90286">
        <ele>13</ele>
        <time>2021-01-01T13:03:32Z</time>
      </trkpt>
      <trkpt lat="43.59519" lon="3.9028">
        <ele>13</ele>
        <time>2021-01-01T13:03:33Z</time>
      </trkpt>
      <trkpt lat="43.59523" lon="3.90276">
        <ele>13</ele>
        <time>2021-01-01T13:03:34Z</time>
      </trkpt>
      <trkpt lat="43.59527" lon="3.90272">
        <ele>13</ele>
        <time>2021-01-01T13:03:35Z</time>
      </trkpt>
      <trkpt lat="43.5953" lon="3.90267">
        <ele>13</ele>
        <time>2021-01-01T13:03:36Z</time>
      </trkpt>
      <trkpt lat="43.59535" lon="3.90261">
        <ele>13</ele>
        <time>2021-01-01T13:03:37Z</time>
      </trkpt>
      <trkpt lat="43.59538" lon="3.90257">
        <ele>13</ele>
        <time>2021-01-01T13:03:38Z</time>
      </trkpt>
      <trkpt lat="43.59543" lon="3.90253">
        <ele>13</ele>
        <time>2021-01-01T13:03:39Z</time>
      </trkpt>
      <trkpt lat="43.59546" lon="3.90247">
        <ele>13</ele>
        <time>2021-01-01T13:03:40Z</time>
      </trkpt>
      <trkpt lat="43.59549" lon="3.90241">
        <ele>13</ele>
        <time>2021-01-01T13:03:41Z</time>
      </trkpt>
      <trkpt lat="43.59553" lon="3.90236">
        <ele>13</ele>
        <time>2021-01-01T13:03:42Z</time>
      </trkpt>
      <trkpt lat="43.59557" lon="3.9023">
        <ele>13</ele>
        <time>2021-01-01T13:03:43Z</time>
      </trkpt>
      <trkpt lat="43.59561" lon="3.90225">
        <ele>12</ele>
        <time>2021-01-01T13:03:44Z</time>
      </trkpt>
      <trkpt lat="43.59569" lon="3.90219">
        <ele>12</ele>
        <time>2021-01-01T13:03:46Z</time>
      </trkpt>
      <trkpt lat="43.59573" lon="3.90214">
        <ele>12</ele>
        <time>2021-01-01T13:03:47Z</time>
      </trkpt>
      <trkpt lat="43.59576" lon="3.90207">
        <ele>12</ele>
        <time>2021-01-01T13:03:48Z</time>
      </trkpt>
      <trkpt lat="43.5958" lon="3.90199">
        <ele>11</ele>
        <time>2021-01-01T13:03:49Z</time>
      </trkpt>
      <trkpt lat="43.59582" lon="3.90193">
        <ele>11</ele>
        <time>2021-01-01T13:03:50Z</time>
      </trkpt>
      <trkpt lat="43.59586" lon="3.90186">
        <ele>11</ele>
        <time>2021-01-01T13:03:51Z</time>
      </trkpt>
      <trkpt lat="43.59591" lon="3.9018">
        <ele>11</ele>
        <time>2021-01-01T13:03:52Z</time>
      </trkpt>
      <trkpt lat="43.59595" lon="3.90175">
        <ele>11</ele>
        <time>2021-01-01T13:03:53Z</time>
      </trkpt>
      <trkpt lat="43.59599" lon="3.90169">
        <ele>12</ele>
        <time>2021-01-01T13:03:54Z</time>
      </trkpt>
      <trkpt lat="43.59603" lon="3.90163">
        <ele>12</ele>
        <time>2021-01-01T13:03:55Z</time>
      </trkpt>
      <trkpt lat="43.59607" lon="3.90157">
        <ele>12</ele>
        <time>2021-01-01T13:03:56Z</time>
      </trkpt>
      <trkpt lat="43.59611" lon="3.90151">
        <ele>12</ele>
        <time>2021-01-01T13:03:57Z</time>
      </trkpt>
      <trkpt lat="43.59616" lon="3.90147">
        <ele>12</ele>
        <time>2021-01-01T13:03:58Z</time>
      </trkpt>
      <trkpt lat="43.5962" lon="3.90142">
        <ele>12</ele>
        <time>2021-01-01T13:03:59Z</time>
      </trkpt>
      <trkpt lat="43.59624" lon="3.90135">
        <ele>12</ele>
        <time>2021-01-01T13:04:00Z</time>
      </trkpt>
      <trkpt lat="43.59628" lon="3.90129">
        <ele>12</ele>
        <time>2021-01-01T13:04:01Z</time>
      </trkpt>
      <trkpt lat="43.59631" lon="3.90123">
        <ele>13</ele>
        <time>2021-01-01T13:04:02Z</time>
      </trkpt>
      <trkpt lat="43.59635" lon="3.90117">
        <ele>13</ele>
        <time>2021-01-01T13:04:03Z</time>
      </trkpt>
      <trkpt lat="43.5964" lon="3.90112">
        <ele>13</ele>
        <time>2021-01-01T13:04:04Z</time>
      </trkpt>
      <trkpt lat="43.59644" lon="3.90105">
        <ele>13</ele>
        <time>2021-01-01T13:04:05Z</time>
      </trkpt>
      <trkpt lat="43.59648" lon="3.90099">
        <ele>14</ele>
        <time>2021-01-01T13:04:06Z</time>
      </trkpt>
      <trkpt lat="43.59652" lon="3.90092">
        <ele>14</ele>
        <time>2021-01-01T13:04:07Z</time>
      </trkpt>
      <trkpt lat="43.59656" lon="3.90088">
        <ele>14</ele>
        <time>2021-01-01T13:04:08Z</time>
      </trkpt>
      <trkpt lat="43.5966" lon="3.90082">
        <ele>14</ele>
        <time>2021-01-01T13:04:09Z</time>
      </trkpt>
      <trkpt lat="43.59664" lon="3.90075">
        <ele>13</ele>
        <time>2021-01-01T13:04:10Z</time>
      </trkpt>
      <trkpt lat="43.59668" lon="3.90069">
        <ele>13</ele>
        <time>2021-01-01T13:04:11Z</time>
      </trkpt>
      <trkpt lat="43.59671" lon="3.90063">
        <ele>13</ele>
        <time>2021-01-01T13:04:12Z</time>
      </trkpt>
      <trkpt lat="43.59676" lon="3.90058">
        <ele>13</ele>
        <time>2021-01-01T13:04:13Z</time>
      </trkpt>
      <trkpt lat="43.59679" lon="3.90051">
        <ele>13</ele>
        <time>2021-01-01T13:04:14Z</time>
      </trkpt>
      <trkpt lat="43.59683" lon="3.90045">
        <ele>13</ele>
        <time>2021-01-01T13:04:15Z</time>
      </trkpt>
      <trkpt lat="43.59686" lon="3.9004">
        <ele>13</ele>
        <time>2021-01-01T13:04:16Z</time>
      </trkpt>
      <trkpt lat="43.5969" lon="3.90034">
        <ele>13</ele>
        <time>2021-01-01T13:04:17Z</time>
      </trkpt>
      <trkpt lat="43.59693" lon="3.90028">
        <ele>13</ele>
        <time>2021-01-01T13:04:18Z</time>
      </trkpt>
      <trkpt lat="43.59695" lon="3.90021">
        <ele>13</ele>
        <time>2021-01-01T13:04:19Z</time>
      </trkpt>
      <trkpt lat="43.59698" lon="3.90015">
        <ele>14</ele>
        <time>2021-01-01T13:04:20Z</time>
      </trkpt>
      <trkpt lat="43.59701" lon="3.90009">
        <ele>14</ele>
        <time>2021-01-01T13:04:21Z</time>
      </trkpt>
      <trkpt lat="43.59705" lon="3.90002">
        <ele>14</ele>
        <time>2021-01-01T13:04:22Z</time>
      </trkpt>
      <trkpt lat="43.59709" lon="3.89995">
        <ele>14</ele>
        <time>2021-01-01T13:04:23Z</time>
      </trkpt>
      <trkpt lat="43.59713" lon="3.89989">
        <ele>13</ele>
        <time>2021-01-01T13:04:24Z</time>
      </trkpt>
      <trkpt lat="43.59718" lon="3.89982">
        <ele>13</ele>
        <time>2021-01-01T13:04:25Z</time>
      </trkpt>
      <trkpt lat="43.59724" lon="3.8998">
        <ele>13</ele>
        <time>2021-01-01T13:04:26Z</time>
      </trkpt>
      <trkpt lat="43.59729" lon="3.89975">
        <ele>13</ele>
        <time>2021-01-01T13:04:27Z</time>
      </trkpt>
      <trkpt lat="43.59734" lon="3.89971">
        <ele>13</ele>
        <time>2021-01-01T13:04:28Z</time>
      </trkpt>
      <trkpt lat="43.59738" lon="3.89965">
        <ele>14</ele>
        <time>2021-01-01T13:04:29Z</time>
      </trkpt>
      <trkpt lat="43.59743" lon="3.8996">
        <ele>14</ele>
        <time>2021-01-01T13:04:30Z</time>
      </trkpt>
      <trkpt lat="43.59747" lon="3.89956">
        <ele>14</ele>
        <time>2021-01-01T13:04:31Z</time>
      </trkpt>
      <trkpt lat="43.59752" lon="3.89952">
        <ele>15</ele>
        <time>2021-01-01T13:04:32Z</time>
      </trkpt>
      <trkpt lat="43.59755" lon="3.89948">
        <ele>15</ele>
        <time>2021-01-01T13:04:33Z</time>
      </trkpt>
      <trkpt lat="43.5976" lon="3.89943">
        <ele>16</ele>
        <time>2021-01-01T13:04:34Z</time>
      </trkpt>
      <trkpt lat="43.59765" lon="3.89938">
        <ele>16</ele>
        <time>2021-01-01T13:04:35Z</time>
      </trkpt>
      <trkpt lat="43.5977" lon="3.89935">
        <ele>16</ele>
        <time>2021-01-01T13:04:36Z</time>
      </trkpt>
      <trkpt lat="43.59775" lon="3.89933">
        <ele>16</ele>
        <time>2021-01-01T13:04:37Z</time>
      </trkpt>
      <trkpt lat="43.59781" lon="3.89929">
        <ele>16</ele>
        <time>2021-01-01T13:04:38Z</time>
      </trkpt>
      <trkpt lat="43.59786" lon="3.89926">
        <ele>16</ele>
        <time>2021-01-01T13:04:39Z</time>
      </trkpt>
      <trkpt lat="43.59791" lon="3.89922">
        <ele>16</ele>
        <time>2021-01-01T13:04:40Z</time>
      </trkpt>
      <trkpt lat="43.59797" lon="3.89919">
        <ele>16</ele>
        <time>2021-01-01T13:04:41Z</time>
      </trkpt>
      <trkpt lat="43.59802" lon="3.89916">
        <ele>16</ele>
        <time>2021-01-01T13:04:42Z</time>
      </trkpt>
      <trkpt lat="43.59808" lon="3.89913">
        <ele>16</ele>
        <time>2021-01-01T13:04:43Z</time>
      </trkpt>
      <trkpt lat="43.59813" lon="3.8991">
        <ele>16</ele>
        <time>2021-01-01T13:04:44Z</time>
      </trkpt>
      <trkpt lat="43.59819" lon="3.89907">
        <ele>16</ele>
        <time>2021-01-01T13:04:45Z</time>
      </trkpt>
      <trkpt lat="43.59825" lon="3.89904">
        <ele>16</ele>
        <time>2021-01-01T13:04:46Z</time>
      </trkpt>
      <trkpt lat="43.59831" lon="3.89901">
        <ele>16</ele>
        <time>2021-01-01T13:04:47Z</time>
      </trkpt>
      <trkpt lat="43.59837" lon="3.89898">
        <ele>16</ele>
        <time>2021-01-01T13:04:48Z</time>
      </trkpt>
      <trkpt lat="43.59842" lon="3.89894">
        <ele>16</ele>
        <time>2021-01-01T13:04:49Z</time>
      </trkpt>
      <trkpt lat="43.59847" lon="3.89891">
        <ele>16</ele>
        <time>2021-01-01T13:04:50Z</time>
      </trkpt>
      <trkpt lat="43.59853" lon="3.89886">
        <ele>17</ele>
        <time>2021-01-01T13:04:51Z</time>
      </trkpt>
      <trkpt lat="43.59858" lon="3.89882">
        <ele>17</ele>
        <time>2021-01-01T13:04:52Z</time>
      </trkpt>
      <trkpt lat="43.59864" lon="3.8988">
        <ele>18</ele>
        <time>2021-01-01T13:04:53Z</time>
      </trkpt>
      <trkpt lat="43.59869" lon="3.89878">
        <ele>18</ele>
        <time>2021-01-01T13:04:54Z</time>
      </trkpt>
      <trkpt lat="43.59876" lon="3.89877">
        <ele>18</ele>
        <time>2021-01-01T13:04:55Z</time>
      </trkpt>
      <trkpt lat="43.59882" lon="3.89874">
        <ele>18</ele>
        <time>2021-01-01T13:04:56Z</time>
      </trkpt>
      <trkpt lat="43.59887" lon="3.89872">
        <ele>18</ele>
        <time>2021-01-01T13:04:57Z</time>
      </trkpt>
      <trkpt lat="43.59893" lon="3.8987">
        <ele>18</ele>
        <time>2021-01-01T13:04:58Z</time>
      </trkpt>
      <trkpt lat="43.59899" lon="3.89867">
        <ele>18</ele>
        <time>2021-01-01T13:04:59Z</time>
      </trkpt>
      <trkpt lat="43.59904" lon="3.89864">
        <ele>18</ele>
        <time>2021-01-01T13:05:00Z</time>
      </trkpt>
      <trkpt lat="43.59909" lon="3.89862">
        <ele>17</ele>
        <time>2021-01-01T13:05:01Z</time>
      </trkpt>
      <trkpt lat="43.59916" lon="3.8986">
        <ele>17</ele>
        <time>2021-01-01T13:05:02Z</time>
      </trkpt>
      <trkpt lat="43.59921" lon="3.89856">
        <ele>17</ele>
        <time>2021-01-01T13:05:03Z</time>
      </trkpt>
      <trkpt lat="43.59926" lon="3.89852">
        <ele>16</ele>
        <time>2021-01-01T13:05:04Z</time>
      </trkpt>
      <trkpt lat="43.59932" lon="3.89847">
        <ele>16</ele>
        <time>2021-01-01T13:05:05Z</time>
      </trkpt>
      <trkpt lat="43.59938" lon="3.89845">
        <ele>16</ele>
        <time>2021-01-01T13:05:06Z</time>
      </trkpt>
      <trkpt lat="43.59944" lon="3.8984">
        <ele>16</ele>
        <time>2021-01-01T13:05:07Z</time>
      </trkpt>
      <trkpt lat="43.59951" lon="3.89837">
        <ele>17</ele>
        <time>2021-01-01T13:05:08Z</time>
      </trkpt>
      <trkpt lat="43.59956" lon="3.89833">
        <ele>17</ele>
        <time>2021-01-01T13:05:09Z</time>
      </trkpt>
      <trkpt lat="43.59961" lon="3.8983">
        <ele>17</ele>
        <time>2021-01-01T13:05:10Z</time>
      </trkpt>
      <trkpt lat="43.59966" lon="3.89827">
        <ele>17</ele>
        <time>2021-01-01T13:05:11Z</time>
      </trkpt>
      <trkpt lat="43.59971" lon="3.89823">
        <ele>18</ele>
        <time>2021-01-01T13:05:12Z</time>
      </trkpt>
      <trkpt lat="43.59976" lon="3.89819">
        <ele>18</ele>
        <time>2021-01-01T13:05:13Z</time>
      </trkpt>
      <trkpt lat="43.59981" lon="3.89814">
        <ele>18</ele>
        <time>2021-01-01T13:05:14Z</time>
      </trkpt>
      <trkpt lat="43.59985" lon="3.89809">
        <ele>18</ele>
        <time>2021-01-01T13:05:15Z</time>
      </trkpt>
      <trkpt lat="43.5999" lon="3.89805">
        <ele>19</ele>
        <time>2021-01-01T13:05:16Z</time>
      </trkpt>
      <trkpt lat="43.59995" lon="3.89801">
        <ele>19</ele>
        <time>2021-01-01T13:05:17Z</time>
      </trkpt>
      <trkpt lat="43.59999" lon="3.89797">
        <ele>19</ele>
        <time>2021-01-01T13:05:18Z</time>
      </trkpt>
      <trkpt lat="43.60004" lon="3.89792">
        <ele>19</ele>
        <time>2021-01-01T13:05:19Z</time>
      </trkpt>
      <trkpt lat="43.60007" lon="3.89787">
        <ele>19</ele>
        <time>2021-01-01T13:05:20Z</time>
      </trkpt>
      <trkpt lat="43.60012" lon="3.89783">
        <ele>19</ele>
        <time>2021-01-01T13:05:21Z</time>
      </trkpt>
      <trkpt lat="43.60016" lon="3.89778">
        <ele>19</ele>
        <time>2021-01-01T13:05:22Z</time>
      </trkpt>
      <trkpt lat="43.6002" lon="3.89773">
        <ele>19</ele>
        <time>2021-01-01T13:05:23Z</time>
      </trkpt>
      <trkpt lat="43.60024" lon="3.89767">
        <ele>19</ele>
        <time>2021-01-01T13:05:24Z</time>
      </trkpt>
      <trkpt lat="43.60029" lon="3.89759">
        <ele>19</ele>
        <time>2021-01-01T13:05:25Z</time>
      </trkpt>
      <trkpt lat="43.60033" lon="3.8975">
        <ele>19</ele>
        <time>2021-01-01T13:05:26Z</time>
      </trkpt>
      <trkpt lat="43.60038" lon="3.89741">
        <ele>18</ele>
        <time>2021-01-01T13:05:27Z</time>
      </trkpt>
      <trkpt lat="43.60043" lon="3.8973">
        <ele>18</ele>
        <time>2021-01-01T13:05:28Z</time>
      </trkpt>
      <trkpt lat="43.60048" lon="3.8972">
        <ele>17</ele>
        <time>2021-01-01T13:05:29Z</time>
      </trkpt>
      <trkpt lat="43.60054" lon="3.8971">
        <ele>16</ele>
        <time>2021-01-01T13:05:30Z</time>
      </trkpt>
      <trkpt lat="43.6006" lon="3.89702">
        <ele>16</ele>
        <time>2021-01-01T13:05:31Z</time>
      </trkpt>
      <trkpt lat="43.60067" lon="3.89693">
        <ele>16</ele>
        <time>2021-01-01T13:05:32Z</time>
      </trkpt>
      <trkpt lat="43.60072" lon="3.89687">
        <ele>16</ele>
        <time>2021-01-01T13:05:33Z</time>
      </trkpt>
      <trkpt lat="43.60077" lon="3.89678">
        <ele>16</ele>
        <time>2021-01-01T13:05:34Z</time>
      </trkpt>
      <trkpt lat="43.60084" lon="3.89674">
        <ele>15</ele>
        <time>2021-01-01T13:05:35Z</time>
      </trkpt>
      <trkpt lat="43.60091" lon="3.89669">
        <ele>15</ele>
        <time>2021-01-01T13:05:36Z</time>
      </trkpt>
      <trkpt lat="43.60097" lon="3.89664">
        <ele>14</ele>
        <time>2021-01-01T13:05:37Z</time>
      </trkpt>
      <trkpt lat="43.60103" lon="3.8966">
        <ele>14</ele>
        <time>2021-01-01T13:05:38Z</time>
      </trkpt>
      <trkpt lat="43.60108" lon="3.89656">
        <ele>14</ele>
        <time>2021-01-01T13:05:39Z</time>
      </trkpt>
      <trkpt lat="43.60113" lon="3.89653">
        <ele>14</ele>
        <time>2021-01-01T13:05:40Z</time>
      </trkpt>
      <trkpt lat="43.60117" lon="3.8965">
        <ele>14</ele>
        <time>2021-01-01T13:05:41Z</time>
      </trkpt>
      <trkpt lat="43.6342" lon="3.8597">
        <ele>-7</ele>
        <time>2021-01-01T13:41:56Z</time>
      </trkpt>
      <trkpt lat="43.63421" lon="3.85969">
        <ele>6</ele>
        <time>2021-01-01T13:41:57Z</time>
      </trkpt>
      <trkpt lat="43.63413" lon="3.85973">
        <ele>12</ele>
        <time>2021-01-01T13:42:06Z</time>
      </trkpt>
      <trkpt lat="43.63412" lon="3.85985">
        <ele>32</ele>
        <time>2021-01-01T13:42:07Z</time>
      </trkpt>
      <trkpt lat="43.63405" lon="3.85983">
        <ele>38</ele>
        <time>2021-01-01T13:42:09Z</time>
      </trkpt>
      <trkpt lat="43.63411" lon="3.85984">
        <ele>41</ele>
        <time>2021-01-01T13:42:11Z</time>
      </trkpt>
      <trkpt lat="43.63405" lon="3.85976">
        <ele>49</ele>
        <time>2021-01-01T13:42:12Z</time>
      </trkpt>
      <trkpt lat="43.63416" lon="3.85983">
        <ele>56</ele>
        <time>2021-01-01T13:42:13Z</time>
      </trkpt>
      <trkpt lat="43.63422" lon="3.85984">
        <ele>55</ele>
        <time>2021-01-01T13:42:15Z</time>
      </trkpt>
      <trkpt lat="43.63413" lon="3.85995">
        <ele>55</ele>
        <time>2021-01-01T13:42:16Z</time>
      </trkpt>
      <trkpt lat="43.63414" lon="3.85987">
        <ele>48</ele>
        <time>2021-01-01T13:42:17Z</time>
      </trkpt>
      <trkpt lat="43.63418" lon="3.85985">
        <ele>37</ele>
        <time>2021-01-01T13:42:18Z</time>
      </trkpt>
      <trkpt lat="43.63411" lon="3.85963">
        <ele>25</ele>
        <time>2021-01-01T13:42:19Z</time>
      </trkpt>
      <trkpt lat="43.63431" lon="3.85984">
        <ele>20</ele>
        <time>2021-01-01T13:42:20Z</time>
      </trkpt>
      <trkpt lat="43.63406" lon="3.85973">
        <ele>13</ele>
        <time>2021-01-01T13:42:21Z</time>
      </trkpt>
      <trkpt lat="43.63414" lon="3.8598">
        <ele>18</ele>
        <time>2021-01-01T13:42:22Z</time>
      </trkpt>
      <trkpt lat="43.63414" lon="3.85989">
        <ele>35</ele>
        <time>2021-01-01T13:42:23Z</time>
      </trkpt>
      <trkpt lat="43.63408" lon="3.85981">
        <ele>57</ele>
        <time>2021-01-01T13:42:24Z</time>
      </trkpt>
      <trkpt lat="43.63418" lon="3.85988">
        <ele>74</ele>
        <time>2021-01-01T13:42:25Z</time>
      </trkpt>
      <trkpt lat="43.63421" lon="3.85999">
        <ele>92</ele>
        <time>2021-01-01T13:42:27Z</time>
      </trkpt>
      <trkpt lat="43.63415" lon="3.85996">
        <ele>108</ele>
        <time>2021-01-01T13:42:28Z</time>
      </trkpt>
    </trkseg>
  </trk>
</gpx>